<?xml version='1.0' encoding='UTF-8'?><gpx version="1.1" creator="JPX - https://github.com/jenetics/jpx" xmlns="http://www.topografix.com/GPX/1/1"><trk><trkseg><trkpt lat="43.8827398" lon="11.1805358"><ele>91.0</ele><time>2026-04-11T07:38:22.152Z</time></trkpt><trkpt lat="43.8828119" lon="11.1805734"><ele>91.0</ele><time>2026-04-11T07:38:25.152Z</time></trkpt><trkpt lat="43.8828795" lon="11.1805867"><ele>91.0</ele><time>2026-04-11T07:38:27.151Z</time></trkpt><trkpt lat="43.8829954" lon="11.1806305"><ele>91.0</ele><time>2026-04-11T07:38:29.152Z</time></trkpt><trkpt lat="43.8831018" lon="11.1806755"><ele>91.0</ele><time>2026-04-11T07:38:31.15Z</time></trkpt><trkpt lat="43.8832118" lon="11.180722"><ele>91.0</ele><time>2026-04-11T07:38:33.152Z</time></trkpt><trkpt lat="43.8833193" lon="11.1807814"><ele>91.0</ele><time>2026-04-11T07:38:35.151Z</time></trkpt><trkpt lat="43.8833747" lon="11.180849"><ele>91.0</ele><time>2026-04-11T07:38:36.151Z</time></trkpt><trkpt lat="43.8834284" lon="11.1809476"><ele>91.0</ele><time>2026-04-11T07:38:37.152Z</time></trkpt><trkpt lat="43.8834791" lon="11.1810553"><ele>91.0</ele><time>2026-04-11T07:38:38.152Z</time></trkpt><trkpt lat="43.883507" lon="11.1811781"><ele>91.0</ele><time>2026-04-11T07:38:39.151Z</time></trkpt><trkpt lat="43.8835137" lon="11.1813156"><ele>91.0</ele><time>2026-04-11T07:38:40.152Z</time></trkpt><trkpt lat="43.8835306" lon="11.1814525"><ele>91.0</ele><time>2026-04-11T07:38:41.15Z</time></trkpt><trkpt lat="43.8835598" lon="11.1815906"><ele>91.0</ele><time>2026-04-11T07:38:42.152Z</time></trkpt><trkpt lat="43.8836035" lon="11.1817369"><ele>91.0</ele><time>2026-04-11T07:38:43.152Z</time></trkpt><trkpt lat="43.8836538" lon="11.181904"><ele>91.4</ele><time>2026-04-11T07:38:44.151Z</time></trkpt><trkpt lat="43.8836982" lon="11.1820454"><ele>91.8</ele><time>2026-04-11T07:38:45.151Z</time></trkpt><trkpt lat="43.8837426" lon="11.1821755"><ele>92.2</ele><time>2026-04-11T07:38:46.151Z</time></trkpt><trkpt lat="43.8837864" lon="11.182289"><ele>92.60000000000001</ele><time>2026-04-11T07:38:47.152Z</time></trkpt><trkpt lat="43.8838266" lon="11.1823948"><ele>93.0</ele><time>2026-04-11T07:38:48.152Z</time></trkpt><trkpt lat="43.8838722" lon="11.1825169"><ele>93.2</ele><time>2026-04-11T07:38:49.151Z</time></trkpt><trkpt lat="43.8839184" lon="11.1826352"><ele>93.4</ele><time>2026-04-11T07:38:50.152Z</time></trkpt><trkpt lat="43.8839662" lon="11.1827544"><ele>93.60000000000001</ele><time>2026-04-11T07:38:51.152Z</time></trkpt><trkpt lat="43.8840098" lon="11.1828662"><ele>93.80000000000001</ele><time>2026-04-11T07:38:52.152Z</time></trkpt><trkpt lat="43.8840487" lon="11.18297"><ele>94.0</ele><time>2026-04-11T07:38:53.152Z</time></trkpt><trkpt lat="43.884094" lon="11.1830899"><ele>94.0</ele><time>2026-04-11T07:38:54.152Z</time></trkpt><trkpt lat="43.8841363" lon="11.1832015"><ele>94.0</ele><time>2026-04-11T07:38:55.152Z</time></trkpt><trkpt lat="43.8841832" lon="11.1833219"><ele>94.0</ele><time>2026-04-11T07:38:56.152Z</time></trkpt><trkpt lat="43.8842309" lon="11.1834443"><ele>94.0</ele><time>2026-04-11T07:38:57.151Z</time></trkpt><trkpt lat="43.8842759" lon="11.1835669"><ele>94.0</ele><time>2026-04-11T07:38:58.152Z</time></trkpt><trkpt lat="43.8843247" lon="11.1836871"><ele>94.25</ele><time>2026-04-11T07:38:59.152Z</time></trkpt><trkpt lat="43.8843743" lon="11.1838152"><ele>94.5</ele><time>2026-04-11T07:39:00.152Z</time></trkpt><trkpt lat="43.8844252" lon="11.1839535"><ele>94.75</ele><time>2026-04-11T07:39:01.151Z</time></trkpt><trkpt lat="43.8844793" lon="11.1840986"><ele>95.0</ele><time>2026-04-11T07:39:02.152Z</time></trkpt><trkpt lat="43.8845368" lon="11.1842479"><ele>95.0</ele><time>2026-04-11T07:39:03.151Z</time></trkpt><trkpt lat="43.8845997" lon="11.1844047"><ele>95.0</ele><time>2026-04-11T07:39:04.152Z</time></trkpt><trkpt lat="43.8846647" lon="11.1845737"><ele>95.0</ele><time>2026-04-11T07:39:05.152Z</time></trkpt><trkpt lat="43.884733" lon="11.1847509"><ele>95.0</ele><time>2026-04-11T07:39:06.152Z</time></trkpt><trkpt lat="43.8848099" lon="11.1849375"><ele>95.5</ele><time>2026-04-11T07:39:07.151Z</time></trkpt><trkpt lat="43.8848912" lon="11.1851127"><ele>96.0</ele><time>2026-04-11T07:39:08.152Z</time></trkpt><trkpt lat="43.8849811" lon="11.1852593"><ele>96.5</ele><time>2026-04-11T07:39:09.151Z</time></trkpt><trkpt lat="43.8850928" lon="11.1853981"><ele>97.0</ele><time>2026-04-11T07:39:10.151Z</time></trkpt><trkpt lat="43.8852209" lon="11.1855308"><ele>97.0</ele><time>2026-04-11T07:39:11.151Z</time></trkpt><trkpt lat="43.8853651" lon="11.1856457"><ele>97.0</ele><time>2026-04-11T07:39:12.151Z</time></trkpt><trkpt lat="43.8855115" lon="11.1857381"><ele>97.0</ele><time>2026-04-11T07:39:13.151Z</time></trkpt><trkpt lat="43.8856533" lon="11.185817"><ele>97.0</ele><time>2026-04-11T07:39:14.151Z</time></trkpt><trkpt lat="43.8857855" lon="11.1859269"><ele>97.0</ele><time>2026-04-11T07:39:15.152Z</time></trkpt><trkpt lat="43.8859036" lon="11.1860503"><ele>97.0</ele><time>2026-04-11T07:39:16.151Z</time></trkpt><trkpt lat="43.8860193" lon="11.1861856"><ele>98.66666666666667</ele><time>2026-04-11T07:39:17.152Z</time></trkpt><trkpt lat="43.8861332" lon="11.1863383"><ele>100.33333333333334</ele><time>2026-04-11T07:39:18.152Z</time></trkpt><trkpt lat="43.886242" lon="11.1865038"><ele>102.0</ele><time>2026-04-11T07:39:19.152Z</time></trkpt><trkpt lat="43.886359" lon="11.1866737"><ele>102.0</ele><time>2026-04-11T07:39:20.151Z</time></trkpt><trkpt lat="43.8864765" lon="11.1868413"><ele>102.0</ele><time>2026-04-11T07:39:21.151Z</time></trkpt><trkpt lat="43.8865851" lon="11.1869992"><ele>102.0</ele><time>2026-04-11T07:39:22.152Z</time></trkpt><trkpt lat="43.8866944" lon="11.1871596"><ele>104.66666666666666</ele><time>2026-04-11T07:39:23.152Z</time></trkpt><trkpt lat="43.8867964" lon="11.1873096"><ele>107.33333333333333</ele><time>2026-04-11T07:39:24.151Z</time></trkpt><trkpt lat="43.8868992" lon="11.1874676"><ele>110.0</ele><time>2026-04-11T07:39:25.152Z</time></trkpt><trkpt lat="43.8870017" lon="11.1876361"><ele>110.0</ele><time>2026-04-11T07:39:26.151Z</time></trkpt><trkpt lat="43.887086" lon="11.1878268"><ele>110.0</ele><time>2026-04-11T07:39:27.152Z</time></trkpt><trkpt lat="43.8871461" lon="11.1880371"><ele>110.0</ele><time>2026-04-11T07:39:28.152Z</time></trkpt><trkpt lat="43.8871828" lon="11.1882486"><ele>110.0</ele><time>2026-04-11T07:39:29.152Z</time></trkpt><trkpt lat="43.8871996" lon="11.1884602"><ele>110.0</ele><time>2026-04-11T07:39:30.151Z</time></trkpt><trkpt lat="43.8871998" lon="11.1886571"><ele>110.0</ele><time>2026-04-11T07:39:31.151Z</time></trkpt><trkpt lat="43.8871934" lon="11.1888577"><ele>110.0</ele><time>2026-04-11T07:39:32.152Z</time></trkpt><trkpt lat="43.8871836" lon="11.1890564"><ele>109.25</ele><time>2026-04-11T07:39:33.152Z</time></trkpt><trkpt lat="43.8871733" lon="11.18926"><ele>108.5</ele><time>2026-04-11T07:39:34.152Z</time></trkpt><trkpt lat="43.8871664" lon="11.1894518"><ele>107.75</ele><time>2026-04-11T07:39:35.151Z</time></trkpt><trkpt lat="43.8871634" lon="11.1896444"><ele>107.0</ele><time>2026-04-11T07:39:36.152Z</time></trkpt><trkpt lat="43.8871698" lon="11.1898353"><ele>106.75</ele><time>2026-04-11T07:39:37.151Z</time></trkpt><trkpt lat="43.8871877" lon="11.1900243"><ele>106.5</ele><time>2026-04-11T07:39:38.152Z</time></trkpt><trkpt lat="43.8872158" lon="11.1902164"><ele>106.25</ele><time>2026-04-11T07:39:39.151Z</time></trkpt><trkpt lat="43.8872549" lon="11.1904135"><ele>106.0</ele><time>2026-04-11T07:39:40.152Z</time></trkpt><trkpt lat="43.8873069" lon="11.1906111"><ele>106.33333333333334</ele><time>2026-04-11T07:39:41.152Z</time></trkpt><trkpt lat="43.8873705" lon="11.1908034"><ele>106.66666666666666</ele><time>2026-04-11T07:39:42.152Z</time></trkpt><trkpt lat="43.8874446" lon="11.1909899"><ele>107.0</ele><time>2026-04-11T07:39:43.152Z</time></trkpt><trkpt lat="43.8875292" lon="11.1911693"><ele>109.33333333333333</ele><time>2026-04-11T07:39:44.152Z</time></trkpt><trkpt lat="43.8876152" lon="11.1913594"><ele>111.66666666666666</ele><time>2026-04-11T07:39:45.152Z</time></trkpt><trkpt lat="43.8877002" lon="11.1915493"><ele>114.0</ele><time>2026-04-11T07:39:46.15Z</time></trkpt><trkpt lat="43.8877818" lon="11.1917222"><ele>114.0</ele><time>2026-04-11T07:39:47.151Z</time></trkpt><trkpt lat="43.8878607" lon="11.1918859"><ele>114.0</ele><time>2026-04-11T07:39:48.15Z</time></trkpt><trkpt lat="43.887938" lon="11.1920479"><ele>114.0</ele><time>2026-04-11T07:39:49.15Z</time></trkpt><trkpt lat="43.8880261" lon="11.1922308"><ele>114.0</ele><time>2026-04-11T07:39:50.15Z</time></trkpt><trkpt lat="43.8881197" lon="11.1924259"><ele>114.33333333333334</ele><time>2026-04-11T07:39:51.151Z</time></trkpt><trkpt lat="43.8882209" lon="11.1926328"><ele>114.66666666666667</ele><time>2026-04-11T07:39:52.15Z</time></trkpt><trkpt lat="43.8883218" lon="11.192834"><ele>115.0</ele><time>2026-04-11T07:39:53.15Z</time></trkpt><trkpt lat="43.8884221" lon="11.1930276"><ele>122.66666666666667</ele><time>2026-04-11T07:39:54.15Z</time></trkpt><trkpt lat="43.8885223" lon="11.1931954"><ele>130.33333333333334</ele><time>2026-04-11T07:39:55.15Z</time></trkpt><trkpt lat="43.8886292" lon="11.1933712"><ele>138.0</ele><time>2026-04-11T07:39:56.15Z</time></trkpt><trkpt lat="43.8887313" lon="11.1935561"><ele>138.0</ele><time>2026-04-11T07:39:57.151Z</time></trkpt><trkpt lat="43.888826" lon="11.1937476"><ele>138.0</ele><time>2026-04-11T07:39:58.149Z</time></trkpt><trkpt lat="43.8889122" lon="11.1939555"><ele>138.0</ele><time>2026-04-11T07:39:59.151Z</time></trkpt><trkpt lat="43.8889971" lon="11.194173"><ele>141.33333333333334</ele><time>2026-04-11T07:40:00.151Z</time></trkpt><trkpt lat="43.8890873" lon="11.19439"><ele>144.66666666666669</ele><time>2026-04-11T07:40:01.151Z</time></trkpt><trkpt lat="43.8891904" lon="11.1946034"><ele>148.0</ele><time>2026-04-11T07:40:02.151Z</time></trkpt><trkpt lat="43.8893082" lon="11.1948049"><ele>143.66666666666669</ele><time>2026-04-11T07:40:03.151Z</time></trkpt><trkpt lat="43.889441" lon="11.1950053"><ele>139.33333333333334</ele><time>2026-04-11T07:40:04.151Z</time></trkpt><trkpt lat="43.8895873" lon="11.1952006"><ele>135.0</ele><time>2026-04-11T07:40:05.151Z</time></trkpt><trkpt lat="43.8897245" lon="11.1953862"><ele>135.0</ele><time>2026-04-11T07:40:06.15Z</time></trkpt><trkpt lat="43.8898599" lon="11.1955785"><ele>135.0</ele><time>2026-04-11T07:40:07.151Z</time></trkpt><trkpt lat="43.8899847" lon="11.1957619"><ele>135.0</ele><time>2026-04-11T07:40:08.15Z</time></trkpt><trkpt lat="43.8900935" lon="11.1959507"><ele>138.66666666666666</ele><time>2026-04-11T07:40:09.149Z</time></trkpt><trkpt lat="43.8901676" lon="11.1961752"><ele>142.33333333333331</ele><time>2026-04-11T07:40:10.15Z</time></trkpt><trkpt lat="43.8902082" lon="11.1964217"><ele>146.0</ele><time>2026-04-11T07:40:11.151Z</time></trkpt><trkpt lat="43.8902562" lon="11.1966651"><ele>146.0</ele><time>2026-04-11T07:40:12.15Z</time></trkpt><trkpt lat="43.8903124" lon="11.196888"><ele>146.0</ele><time>2026-04-11T07:40:13.15Z</time></trkpt><trkpt lat="43.890364" lon="11.1971034"><ele>146.0</ele><time>2026-04-11T07:40:14.15Z</time></trkpt><trkpt lat="43.8904238" lon="11.1973152"><ele>140.33333333333331</ele><time>2026-04-11T07:40:15.151Z</time></trkpt><trkpt lat="43.8905072" lon="11.1974977"><ele>134.66666666666666</ele><time>2026-04-11T07:40:16.15Z</time></trkpt><trkpt lat="43.8906228" lon="11.1976324"><ele>129.0</ele><time>2026-04-11T07:40:17.151Z</time></trkpt><trkpt lat="43.8907608" lon="11.1977238"><ele>129.0</ele><time>2026-04-11T07:40:18.15Z</time></trkpt><trkpt lat="43.8908884" lon="11.1977926"><ele>129.0</ele><time>2026-04-11T07:40:19.15Z</time></trkpt><trkpt lat="43.8910296" lon="11.1978347"><ele>129.0</ele><time>2026-04-11T07:40:20.15Z</time></trkpt><trkpt lat="43.8911731" lon="11.1978783"><ele>129.0</ele><time>2026-04-11T07:40:21.15Z</time></trkpt><trkpt lat="43.8913121" lon="11.1979793"><ele>127.66666666666666</ele><time>2026-04-11T07:40:22.151Z</time></trkpt><trkpt lat="43.8914307" lon="11.1981339"><ele>126.33333333333333</ele><time>2026-04-11T07:40:23.15Z</time></trkpt><trkpt lat="43.8915421" lon="11.1983226"><ele>125.0</ele><time>2026-04-11T07:40:24.151Z</time></trkpt><trkpt lat="43.8916469" lon="11.1985047"><ele>125.0</ele><time>2026-04-11T07:40:25.151Z</time></trkpt><trkpt lat="43.8917537" lon="11.1986973"><ele>125.0</ele><time>2026-04-11T07:40:26.15Z</time></trkpt><trkpt lat="43.8918641" lon="11.198895"><ele>125.0</ele><time>2026-04-11T07:40:27.15Z</time></trkpt><trkpt lat="43.8919872" lon="11.1990785"><ele>124.66666666666666</ele><time>2026-04-11T07:40:28.151Z</time></trkpt><trkpt lat="43.8921332" lon="11.1992391"><ele>124.33333333333334</ele><time>2026-04-11T07:40:29.15Z</time></trkpt><trkpt lat="43.8922848" lon="11.1993898"><ele>124.0</ele><time>2026-04-11T07:40:30.151Z</time></trkpt><trkpt lat="43.8924318" lon="11.1995378"><ele>124.0</ele><time>2026-04-11T07:40:31.15Z</time></trkpt><trkpt lat="43.8925894" lon="11.1996889"><ele>124.0</ele><time>2026-04-11T07:40:32.151Z</time></trkpt><trkpt lat="43.8927473" lon="11.1998289"><ele>124.0</ele><time>2026-04-11T07:40:33.15Z</time></trkpt><trkpt lat="43.8929182" lon="11.1999508"><ele>125.66666666666667</ele><time>2026-04-11T07:40:34.151Z</time></trkpt><trkpt lat="43.8930817" lon="11.2000485"><ele>127.33333333333334</ele><time>2026-04-11T07:40:35.151Z</time></trkpt><trkpt lat="43.8932329" lon="11.2001207"><ele>129.0</ele><time>2026-04-11T07:40:36.151Z</time></trkpt><trkpt lat="43.8933783" lon="11.2001773"><ele>135.33333333333334</ele><time>2026-04-11T07:40:37.151Z</time></trkpt><trkpt lat="43.8935351" lon="11.2001965"><ele>141.66666666666669</ele><time>2026-04-11T07:40:38.151Z</time></trkpt><trkpt lat="43.8937016" lon="11.2001654"><ele>148.0</ele><time>2026-04-11T07:40:39.151Z</time></trkpt><trkpt lat="43.8938798" lon="11.2001293"><ele>148.0</ele><time>2026-04-11T07:40:40.15Z</time></trkpt><trkpt lat="43.8940629" lon="11.2001593"><ele>148.0</ele><time>2026-04-11T07:40:41.15Z</time></trkpt><trkpt lat="43.8942402" lon="11.2002141"><ele>148.0</ele><time>2026-04-11T07:40:42.151Z</time></trkpt><trkpt lat="43.8943978" lon="11.2002597"><ele>156.0</ele><time>2026-04-11T07:40:43.151Z</time></trkpt><trkpt lat="43.8945627" lon="11.2002998"><ele>164.0</ele><time>2026-04-11T07:40:44.15Z</time></trkpt><trkpt lat="43.8947224" lon="11.2003475"><ele>172.0</ele><time>2026-04-11T07:40:45.151Z</time></trkpt><trkpt lat="43.8948643" lon="11.2004361"><ele>172.0</ele><time>2026-04-11T07:40:46.15Z</time></trkpt><trkpt lat="43.8949807" lon="11.2005396"><ele>172.0</ele><time>2026-04-11T07:40:47.151Z</time></trkpt><trkpt lat="43.8950865" lon="11.2006643"><ele>172.0</ele><time>2026-04-11T07:40:48.15Z</time></trkpt><trkpt lat="43.8951827" lon="11.2008169"><ele>172.0</ele><time>2026-04-11T07:40:49.151Z</time></trkpt><trkpt lat="43.8952636" lon="11.20096"><ele>168.5</ele><time>2026-04-11T07:40:50.15Z</time></trkpt><trkpt lat="43.8953612" lon="11.2010827"><ele>165.0</ele><time>2026-04-11T07:40:51.15Z</time></trkpt><trkpt lat="43.8954848" lon="11.2011653"><ele>161.5</ele><time>2026-04-11T07:40:52.151Z</time></trkpt><trkpt lat="43.8956025" lon="11.2012532"><ele>158.0</ele><time>2026-04-11T07:40:53.151Z</time></trkpt><trkpt lat="43.8957885" lon="11.2011902"><ele>167.0</ele><time>2026-04-11T07:40:54.15Z</time></trkpt><trkpt lat="43.8959456" lon="11.2012336"><ele>176.0</ele><time>2026-04-11T07:40:55.151Z</time></trkpt><trkpt lat="43.8960989" lon="11.2013135"><ele>185.0</ele><time>2026-04-11T07:40:56.15Z</time></trkpt><trkpt lat="43.8962492" lon="11.201428"><ele>172.33333333333331</ele><time>2026-04-11T07:40:57.151Z</time></trkpt><trkpt lat="43.8964059" lon="11.2015548"><ele>159.66666666666666</ele><time>2026-04-11T07:40:58.151Z</time></trkpt><trkpt lat="43.8965554" lon="11.2016675"><ele>147.0</ele><time>2026-04-11T07:40:59.15Z</time></trkpt><trkpt lat="43.8967031" lon="11.2017789"><ele>154.33333333333334</ele><time>2026-04-11T07:41:00.15Z</time></trkpt><trkpt lat="43.8968579" lon="11.2018805"><ele>161.66666666666669</ele><time>2026-04-11T07:41:01.151Z</time></trkpt><trkpt lat="43.8970126" lon="11.2020014"><ele>169.0</ele><time>2026-04-11T07:41:02.151Z</time></trkpt><trkpt lat="43.8971451" lon="11.2021372"><ele>169.0</ele><time>2026-04-11T07:41:03.151Z</time></trkpt><trkpt lat="43.8972884" lon="11.2022489"><ele>169.0</ele><time>2026-04-11T07:41:04.15Z</time></trkpt><trkpt lat="43.8974404" lon="11.2023354"><ele>169.0</ele><time>2026-04-11T07:41:05.151Z</time></trkpt><trkpt lat="43.8975874" lon="11.202397"><ele>164.5</ele><time>2026-04-11T07:41:06.151Z</time></trkpt><trkpt lat="43.8977321" lon="11.2024685"><ele>160.0</ele><time>2026-04-11T07:41:07.15Z</time></trkpt><trkpt lat="43.8978658" lon="11.2025434"><ele>155.5</ele><time>2026-04-11T07:41:08.151Z</time></trkpt><trkpt lat="43.898009" lon="11.2026125"><ele>151.0</ele><time>2026-04-11T07:41:09.151Z</time></trkpt><trkpt lat="43.8981622" lon="11.202665"><ele>151.0</ele><time>2026-04-11T07:41:10.15Z</time></trkpt><trkpt lat="43.8983301" lon="11.2026958"><ele>151.0</ele><time>2026-04-11T07:41:11.149Z</time></trkpt><trkpt lat="43.8985005" lon="11.2027191"><ele>151.0</ele><time>2026-04-11T07:41:12.151Z</time></trkpt><trkpt lat="43.8986653" lon="11.2027248"><ele>153.0</ele><time>2026-04-11T07:41:13.151Z</time></trkpt><trkpt lat="43.8988272" lon="11.2027356"><ele>155.0</ele><time>2026-04-11T07:41:14.151Z</time></trkpt><trkpt lat="43.8989953" lon="11.2027561"><ele>157.0</ele><time>2026-04-11T07:41:15.149Z</time></trkpt><trkpt lat="43.8991723" lon="11.2027751"><ele>162.33333333333334</ele><time>2026-04-11T07:41:16.151Z</time></trkpt><trkpt lat="43.899355" lon="11.2027937"><ele>167.66666666666666</ele><time>2026-04-11T07:41:17.151Z</time></trkpt><trkpt lat="43.8995407" lon="11.2028136"><ele>173.0</ele><time>2026-04-11T07:41:18.151Z</time></trkpt><trkpt lat="43.8997255" lon="11.2028368"><ele>173.0</ele><time>2026-04-11T07:41:19.15Z</time></trkpt><trkpt lat="43.8999041" lon="11.2028575"><ele>173.0</ele><time>2026-04-11T07:41:20.151Z</time></trkpt><trkpt lat="43.9000599" lon="11.20288"><ele>173.0</ele><time>2026-04-11T07:41:21.151Z</time></trkpt><trkpt lat="43.9002099" lon="11.2029374"><ele>169.66666666666666</ele><time>2026-04-11T07:41:22.15Z</time></trkpt><trkpt lat="43.9003467" lon="11.2030395"><ele>166.33333333333334</ele><time>2026-04-11T07:41:23.151Z</time></trkpt><trkpt lat="43.90047" lon="11.2031657"><ele>163.0</ele><time>2026-04-11T07:41:24.151Z</time></trkpt><trkpt lat="43.9005768" lon="11.2032989"><ele>163.0</ele><time>2026-04-11T07:41:25.15Z</time></trkpt><trkpt lat="43.9006729" lon="11.2034544"><ele>163.0</ele><time>2026-04-11T07:41:26.15Z</time></trkpt><trkpt lat="43.9007627" lon="11.203628"><ele>163.0</ele><time>2026-04-11T07:41:27.151Z</time></trkpt><trkpt lat="43.9008333" lon="11.2038296"><ele>159.0</ele><time>2026-04-11T07:41:28.149Z</time></trkpt><trkpt lat="43.9009043" lon="11.2040422"><ele>155.0</ele><time>2026-04-11T07:41:29.151Z</time></trkpt><trkpt lat="43.900975" lon="11.2042489"><ele>151.0</ele><time>2026-04-11T07:41:30.151Z</time></trkpt><trkpt lat="43.9010485" lon="11.2044568"><ele>158.0</ele><time>2026-04-11T07:41:31.15Z</time></trkpt><trkpt lat="43.9011294" lon="11.2046744"><ele>165.0</ele><time>2026-04-11T07:41:32.151Z</time></trkpt><trkpt lat="43.9012103" lon="11.2048994"><ele>172.0</ele><time>2026-04-11T07:41:33.151Z</time></trkpt><trkpt lat="43.9012911" lon="11.205125"><ele>172.0</ele><time>2026-04-11T07:41:34.151Z</time></trkpt><trkpt lat="43.9013752" lon="11.2053529"><ele>172.0</ele><time>2026-04-11T07:41:35.151Z</time></trkpt><trkpt lat="43.901459" lon="11.2055654"><ele>172.0</ele><time>2026-04-11T07:41:36.15Z</time></trkpt><trkpt lat="43.9015457" lon="11.2057765"><ele>168.33333333333334</ele><time>2026-04-11T07:41:37.149Z</time></trkpt><trkpt lat="43.9016314" lon="11.2059718"><ele>164.66666666666666</ele><time>2026-04-11T07:41:38.15Z</time></trkpt><trkpt lat="43.9017262" lon="11.2061602"><ele>161.0</ele><time>2026-04-11T07:41:39.151Z</time></trkpt><trkpt lat="43.901825" lon="11.2063544"><ele>166.0</ele><time>2026-04-11T07:41:40.151Z</time></trkpt><trkpt lat="43.9019185" lon="11.2065602"><ele>171.0</ele><time>2026-04-11T07:41:41.151Z</time></trkpt><trkpt lat="43.9020017" lon="11.2067523"><ele>176.0</ele><time>2026-04-11T07:41:42.151Z</time></trkpt><trkpt lat="43.9021019" lon="11.206912"><ele>176.0</ele><time>2026-04-11T07:41:43.15Z</time></trkpt><trkpt lat="43.9022301" lon="11.2070636"><ele>176.0</ele><time>2026-04-11T07:41:44.15Z</time></trkpt><trkpt lat="43.9023762" lon="11.2071888"><ele>176.0</ele><time>2026-04-11T07:41:45.151Z</time></trkpt><trkpt lat="43.9025228" lon="11.2073341"><ele>180.33333333333331</ele><time>2026-04-11T07:41:46.151Z</time></trkpt><trkpt lat="43.9026471" lon="11.2075042"><ele>184.66666666666666</ele><time>2026-04-11T07:41:47.151Z</time></trkpt><trkpt lat="43.9027494" lon="11.2076728"><ele>189.0</ele><time>2026-04-11T07:41:48.15Z</time></trkpt><trkpt lat="43.9028375" lon="11.2078439"><ele>189.0</ele><time>2026-04-11T07:41:49.151Z</time></trkpt><trkpt lat="43.902917" lon="11.2080382"><ele>189.0</ele><time>2026-04-11T07:41:50.151Z</time></trkpt><trkpt lat="43.9029783" lon="11.2082452"><ele>189.0</ele><time>2026-04-11T07:41:51.151Z</time></trkpt><trkpt lat="43.903021" lon="11.2084383"><ele>183.25</ele><time>2026-04-11T07:41:52.15Z</time></trkpt><trkpt lat="43.9030556" lon="11.2086182"><ele>177.5</ele><time>2026-04-11T07:41:53.151Z</time></trkpt><trkpt lat="43.9030824" lon="11.2087788"><ele>171.75</ele><time>2026-04-11T07:41:54.15Z</time></trkpt><trkpt lat="43.903119" lon="11.2089235"><ele>166.0</ele><time>2026-04-11T07:41:55.15Z</time></trkpt><trkpt lat="43.9031926" lon="11.2090673"><ele>165.0</ele><time>2026-04-11T07:41:56.151Z</time></trkpt><trkpt lat="43.9032988" lon="11.2091754"><ele>164.0</ele><time>2026-04-11T07:41:57.151Z</time></trkpt><trkpt lat="43.9034215" lon="11.2092539"><ele>163.0</ele><time>2026-04-11T07:41:58.151Z</time></trkpt><trkpt lat="43.9035453" lon="11.20932"><ele>162.0</ele><time>2026-04-11T07:41:59.151Z</time></trkpt><trkpt lat="43.9036818" lon="11.209385"><ele>166.0</ele><time>2026-04-11T07:42:00.149Z</time></trkpt><trkpt lat="43.9038265" lon="11.209439"><ele>170.0</ele><time>2026-04-11T07:42:01.15Z</time></trkpt><trkpt lat="43.9039751" lon="11.209497"><ele>174.0</ele><time>2026-04-11T07:42:02.151Z</time></trkpt><trkpt lat="43.9041209" lon="11.2095507"><ele>183.0</ele><time>2026-04-11T07:42:03.151Z</time></trkpt><trkpt lat="43.9042721" lon="11.2096038"><ele>192.0</ele><time>2026-04-11T07:42:04.151Z</time></trkpt><trkpt lat="43.904427" lon="11.2096465"><ele>201.0</ele><time>2026-04-11T07:42:05.151Z</time></trkpt><trkpt lat="43.9045836" lon="11.2096952"><ele>201.0</ele><time>2026-04-11T07:42:06.15Z</time></trkpt><trkpt lat="43.9047368" lon="11.2097485"><ele>201.0</ele><time>2026-04-11T07:42:07.151Z</time></trkpt><trkpt lat="43.9048601" lon="11.2098162"><ele>201.0</ele><time>2026-04-11T07:42:08.151Z</time></trkpt><trkpt lat="43.9049597" lon="11.209873"><ele>201.0</ele><time>2026-04-11T07:42:09.151Z</time></trkpt><trkpt lat="43.9050471" lon="11.2099658"><ele>199.5</ele><time>2026-04-11T07:42:10.151Z</time></trkpt><trkpt lat="43.9051166" lon="11.2101024"><ele>198.0</ele><time>2026-04-11T07:42:11.15Z</time></trkpt><trkpt lat="43.9051217" lon="11.2102819"><ele>196.5</ele><time>2026-04-11T07:42:12.149Z</time></trkpt><trkpt lat="43.9051312" lon="11.2104619"><ele>195.0</ele><time>2026-04-11T07:42:13.15Z</time></trkpt><trkpt lat="43.905131" lon="11.2106331"><ele>189.75</ele><time>2026-04-11T07:42:14.151Z</time></trkpt><trkpt lat="43.9051325" lon="11.210809"><ele>184.5</ele><time>2026-04-11T07:42:15.15Z</time></trkpt><trkpt lat="43.905132" lon="11.2109976"><ele>179.25</ele><time>2026-04-11T07:42:16.15Z</time></trkpt><trkpt lat="43.9051272" lon="11.2111981"><ele>174.0</ele><time>2026-04-11T07:42:17.151Z</time></trkpt><trkpt lat="43.9051223" lon="11.2113981"><ele>172.25</ele><time>2026-04-11T07:42:18.15Z</time></trkpt><trkpt lat="43.9051238" lon="11.2116085"><ele>170.5</ele><time>2026-04-11T07:42:19.151Z</time></trkpt><trkpt lat="43.905148" lon="11.21182"><ele>168.75</ele><time>2026-04-11T07:42:20.15Z</time></trkpt><trkpt lat="43.9051847" lon="11.2119947"><ele>167.0</ele><time>2026-04-11T07:42:21.15Z</time></trkpt><trkpt lat="43.905242" lon="11.2121418"><ele>167.0</ele><time>2026-04-11T07:42:22.15Z</time></trkpt><trkpt lat="43.9053377" lon="11.2122595"><ele>167.0</ele><time>2026-04-11T07:42:23.15Z</time></trkpt><trkpt lat="43.9054668" lon="11.212331"><ele>167.0</ele><time>2026-04-11T07:42:24.15Z</time></trkpt><trkpt lat="43.9056119" lon="11.212386"><ele>167.0</ele><time>2026-04-11T07:42:25.151Z</time></trkpt><trkpt lat="43.9057422" lon="11.21244"><ele>166.25</ele><time>2026-04-11T07:42:26.151Z</time></trkpt><trkpt lat="43.9058767" lon="11.2125013"><ele>165.5</ele><time>2026-04-11T07:42:27.15Z</time></trkpt><trkpt lat="43.9059994" lon="11.2125602"><ele>164.75</ele><time>2026-04-11T07:42:28.149Z</time></trkpt><trkpt lat="43.9061136" lon="11.2126408"><ele>164.0</ele><time>2026-04-11T07:42:29.151Z</time></trkpt><trkpt lat="43.906219" lon="11.2127583"><ele>166.66666666666666</ele><time>2026-04-11T07:42:30.151Z</time></trkpt><trkpt lat="43.9063107" lon="11.2129095"><ele>169.33333333333334</ele><time>2026-04-11T07:42:31.151Z</time></trkpt><trkpt lat="43.9063998" lon="11.2130827"><ele>172.0</ele><time>2026-04-11T07:42:32.151Z</time></trkpt><trkpt lat="43.9064831" lon="11.2132727"><ele>172.0</ele><time>2026-04-11T07:42:33.151Z</time></trkpt><trkpt lat="43.906564" lon="11.2134691"><ele>172.0</ele><time>2026-04-11T07:42:34.151Z</time></trkpt><trkpt lat="43.9066432" lon="11.2136671"><ele>172.0</ele><time>2026-04-11T07:42:35.15Z</time></trkpt><trkpt lat="43.9067192" lon="11.2138655"><ele>176.66666666666669</ele><time>2026-04-11T07:42:36.15Z</time></trkpt><trkpt lat="43.9067933" lon="11.2140764"><ele>181.33333333333334</ele><time>2026-04-11T07:42:37.151Z</time></trkpt><trkpt lat="43.9068536" lon="11.2142939"><ele>186.0</ele><time>2026-04-11T07:42:38.151Z</time></trkpt><trkpt lat="43.9069091" lon="11.2144888"><ele>186.0</ele><time>2026-04-11T07:42:39.151Z</time></trkpt><trkpt lat="43.9069721" lon="11.2146806"><ele>186.0</ele><time>2026-04-11T07:42:40.15Z</time></trkpt><trkpt lat="43.9070392" lon="11.2148757"><ele>186.0</ele><time>2026-04-11T07:42:41.151Z</time></trkpt><trkpt lat="43.9071195" lon="11.2150485"><ele>183.0</ele><time>2026-04-11T07:42:42.149Z</time></trkpt><trkpt lat="43.9072161" lon="11.2152095"><ele>180.0</ele><time>2026-04-11T07:42:43.15Z</time></trkpt><trkpt lat="43.9073299" lon="11.2153576"><ele>177.0</ele><time>2026-04-11T07:42:44.151Z</time></trkpt><trkpt lat="43.9074516" lon="11.2155013"><ele>177.5</ele><time>2026-04-11T07:42:45.151Z</time></trkpt><trkpt lat="43.9075788" lon="11.2156224"><ele>178.0</ele><time>2026-04-11T07:42:46.149Z</time></trkpt><trkpt lat="43.9076992" lon="11.215731"><ele>178.5</ele><time>2026-04-11T07:42:47.151Z</time></trkpt><trkpt lat="43.9078132" lon="11.2158338"><ele>179.0</ele><time>2026-04-11T07:42:48.151Z</time></trkpt><trkpt lat="43.9079272" lon="11.2159406"><ele>179.0</ele><time>2026-04-11T07:42:49.15Z</time></trkpt><trkpt lat="43.9080409" lon="11.2160413"><ele>179.0</ele><time>2026-04-11T07:42:50.151Z</time></trkpt><trkpt lat="43.9081392" lon="11.2161324"><ele>179.0</ele><time>2026-04-11T07:42:51.151Z</time></trkpt><trkpt lat="43.9082263" lon="11.2162168"><ele>179.0</ele><time>2026-04-11T07:42:52.151Z</time></trkpt><trkpt lat="43.9083032" lon="11.2162921"><ele>179.0</ele><time>2026-04-11T07:42:53.15Z</time></trkpt><trkpt lat="43.9083664" lon="11.2163566"><ele>179.0</ele><time>2026-04-11T07:42:54.151Z</time></trkpt><trkpt lat="43.9084245" lon="11.2164263"><ele>179.0</ele><time>2026-04-11T07:42:55.151Z</time></trkpt><trkpt lat="43.9084805" lon="11.2164937"><ele>179.0</ele><time>2026-04-11T07:42:56.15Z</time></trkpt><trkpt lat="43.9085481" lon="11.2165645"><ele>179.0</ele><time>2026-04-11T07:42:58.151Z</time></trkpt><trkpt lat="43.908617" lon="11.2165576"><ele>179.0</ele><time>2026-04-11T07:43:00.15Z</time></trkpt><trkpt lat="43.9086755" lon="11.2165021"><ele>178.83333333333331</ele><time>2026-04-11T07:43:02.151Z</time></trkpt><trkpt lat="43.9087543" lon="11.2165238"><ele>178.66666666666666</ele><time>2026-04-11T07:43:05.15Z</time></trkpt><trkpt lat="43.9088457" lon="11.2166104"><ele>178.5</ele><time>2026-04-11T07:43:13.15Z</time></trkpt><trkpt lat="43.9088984" lon="11.216668"><ele>178.33333333333334</ele><time>2026-04-11T07:43:14.151Z</time></trkpt><trkpt lat="43.9089675" lon="11.2167203"><ele>178.16666666666669</ele><time>2026-04-11T07:43:15.151Z</time></trkpt><trkpt lat="43.9090354" lon="11.2167615"><ele>178.0</ele><time>2026-04-11T07:43:16.15Z</time></trkpt><trkpt lat="43.9090926" lon="11.2168062"><ele>178.0</ele><time>2026-04-11T07:43:17.15Z</time></trkpt><trkpt lat="43.9091914" lon="11.2168826"><ele>178.0</ele><time>2026-04-11T07:43:19.151Z</time></trkpt><trkpt lat="43.9092858" lon="11.2169609"><ele>178.0</ele><time>2026-04-11T07:43:21.151Z</time></trkpt><trkpt lat="43.9093704" lon="11.2170584"><ele>178.0</ele><time>2026-04-11T07:43:23.151Z</time></trkpt><trkpt lat="43.9094524" lon="11.2171592"><ele>178.0</ele><time>2026-04-11T07:43:25.15Z</time></trkpt><trkpt lat="43.9095116" lon="11.2172342"><ele>179.0</ele><time>2026-04-11T07:43:27.151Z</time></trkpt><trkpt lat="43.9095534" lon="11.2173408"><ele>180.0</ele><time>2026-04-11T07:43:30.15Z</time></trkpt><trkpt lat="43.9095775" lon="11.2174297"><ele>181.0</ele><time>2026-04-11T07:43:32.15Z</time></trkpt><trkpt lat="43.9095079" lon="11.2175699"><ele>182.0</ele><time>2026-04-11T07:43:35.15Z</time></trkpt><trkpt lat="43.9094338" lon="11.2176944"><ele>183.0</ele><time>2026-04-11T07:43:37.15Z</time></trkpt><trkpt lat="43.9093593" lon="11.21779"><ele>183.0</ele><time>2026-04-11T07:43:39.151Z</time></trkpt><trkpt lat="43.9092763" lon="11.2178794"><ele>183.0</ele><time>2026-04-11T07:43:41.151Z</time></trkpt><trkpt lat="43.9092004" lon="11.2179612"><ele>183.0</ele><time>2026-04-11T07:43:43.151Z</time></trkpt><trkpt lat="43.909132" lon="11.2180276"><ele>183.0</ele><time>2026-04-11T07:43:45.151Z</time></trkpt><trkpt lat="43.9090391" lon="11.2181171"><ele>183.0</ele><time>2026-04-11T07:43:47.15Z</time></trkpt><trkpt lat="43.9089469" lon="11.218213"><ele>181.8</ele><time>2026-04-11T07:43:49.15Z</time></trkpt><trkpt lat="43.9088612" lon="11.2182985"><ele>180.60000000000002</ele><time>2026-04-11T07:43:51.15Z</time></trkpt><trkpt lat="43.9087777" lon="11.2183806"><ele>179.39999999999998</ele><time>2026-04-11T07:43:53.151Z</time></trkpt><trkpt lat="43.9086937" lon="11.2184548"><ele>178.2</ele><time>2026-04-11T07:43:55.151Z</time></trkpt><trkpt lat="43.9086158" lon="11.2185223"><ele>177.0</ele><time>2026-04-11T07:43:57.151Z</time></trkpt><trkpt lat="43.9085367" lon="11.218586"><ele>177.0</ele><time>2026-04-11T07:43:59.151Z</time></trkpt><trkpt lat="43.9084602" lon="11.2186668"><ele>177.0</ele><time>2026-04-11T07:44:01.151Z</time></trkpt><trkpt lat="43.9083836" lon="11.2187436"><ele>177.0</ele><time>2026-04-11T07:44:03.151Z</time></trkpt><trkpt lat="43.9082914" lon="11.2188397"><ele>177.0</ele><time>2026-04-11T07:44:05.15Z</time></trkpt><trkpt lat="43.9082132" lon="11.2189193"><ele>177.0</ele><time>2026-04-11T07:44:07.151Z</time></trkpt><trkpt lat="43.9081239" lon="11.2189994"><ele>177.0</ele><time>2026-04-11T07:44:09.151Z</time></trkpt><trkpt lat="43.9080344" lon="11.219102"><ele>177.0</ele><time>2026-04-11T07:44:11.151Z</time></trkpt><trkpt lat="43.9079513" lon="11.2192152"><ele>177.0</ele><time>2026-04-11T07:44:13.15Z</time></trkpt><trkpt lat="43.9078846" lon="11.2193399"><ele>177.0</ele><time>2026-04-11T07:44:15.15Z</time></trkpt><trkpt lat="43.9078329" lon="11.2194696"><ele>177.0</ele><time>2026-04-11T07:44:17.151Z</time></trkpt><trkpt lat="43.9077687" lon="11.2195819"><ele>177.0</ele><time>2026-04-11T07:44:19.151Z</time></trkpt><trkpt lat="43.9076707" lon="11.2196411"><ele>177.0</ele><time>2026-04-11T07:44:21.151Z</time></trkpt><trkpt lat="43.9075588" lon="11.2196477"><ele>177.0</ele><time>2026-04-11T07:44:23.15Z</time></trkpt><trkpt lat="43.9074921" lon="11.2196414"><ele>177.0</ele><time>2026-04-11T07:44:24.15Z</time></trkpt><trkpt lat="43.9073971" lon="11.2196137"><ele>178.33333333333334</ele><time>2026-04-11T07:44:25.15Z</time></trkpt><trkpt lat="43.907303" lon="11.2196168"><ele>179.66666666666666</ele><time>2026-04-11T07:44:26.15Z</time></trkpt><trkpt lat="43.9072164" lon="11.2196125"><ele>181.0</ele><time>2026-04-11T07:44:27.151Z</time></trkpt><trkpt lat="43.9071258" lon="11.2196041"><ele>182.33333333333331</ele><time>2026-04-11T07:44:28.151Z</time></trkpt><trkpt lat="43.9070394" lon="11.2195941"><ele>183.66666666666666</ele><time>2026-04-11T07:44:29.151Z</time></trkpt><trkpt lat="43.9069623" lon="11.2195843"><ele>185.0</ele><time>2026-04-11T07:44:30.151Z</time></trkpt><trkpt lat="43.9068785" lon="11.2195878"><ele>185.0</ele><time>2026-04-11T07:44:31.15Z</time></trkpt><trkpt lat="43.9067989" lon="11.2195952"><ele>185.0</ele><time>2026-04-11T07:44:32.151Z</time></trkpt><trkpt lat="43.9067042" lon="11.2196304"><ele>185.0</ele><time>2026-04-11T07:44:33.151Z</time></trkpt><trkpt lat="43.9066172" lon="11.2196712"><ele>185.0</ele><time>2026-04-11T07:44:34.151Z</time></trkpt><trkpt lat="43.9065337" lon="11.2197241"><ele>185.0</ele><time>2026-04-11T07:44:35.151Z</time></trkpt><trkpt lat="43.9064566" lon="11.2197721"><ele>185.0</ele><time>2026-04-11T07:44:36.151Z</time></trkpt><trkpt lat="43.9063659" lon="11.2198299"><ele>189.6</ele><time>2026-04-11T07:44:37.15Z</time></trkpt><trkpt lat="43.9062755" lon="11.2198859"><ele>194.2</ele><time>2026-04-11T07:44:38.151Z</time></trkpt><trkpt lat="43.9061803" lon="11.2199665"><ele>198.8</ele><time>2026-04-11T07:44:39.151Z</time></trkpt><trkpt lat="43.9060954" lon="11.2200248"><ele>203.4</ele><time>2026-04-11T07:44:40.151Z</time></trkpt><trkpt lat="43.9060115" lon="11.2200741"><ele>208.0</ele><time>2026-04-11T07:44:41.151Z</time></trkpt><trkpt lat="43.9059378" lon="11.2200961"><ele>210.2</ele><time>2026-04-11T07:44:42.151Z</time></trkpt><trkpt lat="43.9058403" lon="11.2201156"><ele>212.4</ele><time>2026-04-11T07:44:43.15Z</time></trkpt><trkpt lat="43.9057419" lon="11.2201416"><ele>214.59999999999997</ele><time>2026-04-11T07:44:44.151Z</time></trkpt><trkpt lat="43.9056532" lon="11.220137"><ele>216.79999999999998</ele><time>2026-04-11T07:44:45.15Z</time></trkpt><trkpt lat="43.9055592" lon="11.2201432"><ele>219.0</ele><time>2026-04-11T07:44:46.15Z</time></trkpt><trkpt lat="43.9054764" lon="11.2201417"><ele>219.0</ele><time>2026-04-11T07:44:47.151Z</time></trkpt><trkpt lat="43.9053988" lon="11.2201336"><ele>219.0</ele><time>2026-04-11T07:44:48.151Z</time></trkpt><trkpt lat="43.9053331" lon="11.2201168"><ele>219.0</ele><time>2026-04-11T07:44:49.15Z</time></trkpt><trkpt lat="43.9052484" lon="11.2200588"><ele>219.0</ele><time>2026-04-11T07:44:51.15Z</time></trkpt><trkpt lat="43.9051714" lon="11.2200715"><ele>219.0</ele><time>2026-04-11T07:44:54.15Z</time></trkpt><trkpt lat="43.9052063" lon="11.2201703"><ele>219.0</ele><time>2026-04-11T07:44:56.151Z</time></trkpt><trkpt lat="43.905284" lon="11.2202389"><ele>219.0</ele><time>2026-04-11T07:44:58.151Z</time></trkpt><trkpt lat="43.9053579" lon="11.2203351"><ele>218.99999999999997</ele><time>2026-04-11T07:45:00.15Z</time></trkpt><trkpt lat="43.9054364" lon="11.2204382"><ele>218.99999999999997</ele><time>2026-04-11T07:45:02.151Z</time></trkpt><trkpt lat="43.9054902" lon="11.2204926"><ele>219.0</ele><time>2026-04-11T07:45:03.151Z</time></trkpt><trkpt lat="43.9055602" lon="11.2206085"><ele>219.0</ele><time>2026-04-11T07:45:05.151Z</time></trkpt><trkpt lat="43.9056297" lon="11.2206728"><ele>219.16666666666666</ele><time>2026-04-11T07:45:06.151Z</time></trkpt><trkpt lat="43.9056882" lon="11.2207414"><ele>219.33333333333331</ele><time>2026-04-11T07:45:07.151Z</time></trkpt><trkpt lat="43.9057508" lon="11.2208054"><ele>219.5</ele><time>2026-04-11T07:45:08.151Z</time></trkpt><trkpt lat="43.9058231" lon="11.2208765"><ele>219.66666666666666</ele><time>2026-04-11T07:45:09.15Z</time></trkpt><trkpt lat="43.9058865" lon="11.2209461"><ele>219.83333333333331</ele><time>2026-04-11T07:45:10.151Z</time></trkpt><trkpt lat="43.9059419" lon="11.2210029"><ele>220.0</ele><time>2026-04-11T07:45:11.15Z</time></trkpt><trkpt lat="43.9060094" lon="11.2210594"><ele>219.99999999999997</ele><time>2026-04-11T07:45:12.15Z</time></trkpt><trkpt lat="43.9060868" lon="11.2211094"><ele>220.0</ele><time>2026-04-11T07:45:13.149Z</time></trkpt><trkpt lat="43.9061451" lon="11.2211617"><ele>220.0</ele><time>2026-04-11T07:45:14.15Z</time></trkpt><trkpt lat="43.9061984" lon="11.2212109"><ele>220.0</ele><time>2026-04-11T07:45:15.15Z</time></trkpt><trkpt lat="43.90625" lon="11.2212646"><ele>219.99999999999997</ele><time>2026-04-11T07:45:16.15Z</time></trkpt><trkpt lat="43.9063024" lon="11.2213946"><ele>220.0</ele><time>2026-04-11T07:45:18.151Z</time></trkpt><trkpt lat="43.9063034" lon="11.2215338"><ele>220.6</ele><time>2026-04-11T07:45:20.151Z</time></trkpt><trkpt lat="43.906269" lon="11.2216674"><ele>221.2</ele><time>2026-04-11T07:45:22.151Z</time></trkpt><trkpt lat="43.9061837" lon="11.2216959"><ele>221.8</ele><time>2026-04-11T07:45:24.15Z</time></trkpt><trkpt lat="43.9060815" lon="11.2216697"><ele>222.4</ele><time>2026-04-11T07:45:26.15Z</time></trkpt><trkpt lat="43.9059598" lon="11.221619"><ele>223.0</ele><time>2026-04-11T07:45:28.15Z</time></trkpt><trkpt lat="43.9058904" lon="11.2216049"><ele>226.0</ele><time>2026-04-11T07:45:29.151Z</time></trkpt><trkpt lat="43.9058234" lon="11.2216032"><ele>229.0</ele><time>2026-04-11T07:45:30.151Z</time></trkpt><trkpt lat="43.9057539" lon="11.2216142"><ele>232.0</ele><time>2026-04-11T07:45:31.151Z</time></trkpt><trkpt lat="43.9056853" lon="11.221638"><ele>235.0</ele><time>2026-04-11T07:45:32.151Z</time></trkpt><trkpt lat="43.9056115" lon="11.2216715"><ele>238.0</ele><time>2026-04-11T07:45:33.15Z</time></trkpt><trkpt lat="43.9055352" lon="11.2217057"><ele>240.99999999999997</ele><time>2026-04-11T07:45:34.151Z</time></trkpt><trkpt lat="43.9054617" lon="11.2217345"><ele>243.99999999999997</ele><time>2026-04-11T07:45:35.151Z</time></trkpt><trkpt lat="43.9053845" lon="11.2217644"><ele>243.99999999999997</ele><time>2026-04-11T07:45:36.15Z</time></trkpt><trkpt lat="43.9052987" lon="11.2217953"><ele>244.0</ele><time>2026-04-11T07:45:37.15Z</time></trkpt><trkpt lat="43.9052403" lon="11.2218298"><ele>244.0</ele><time>2026-04-11T07:45:38.151Z</time></trkpt><trkpt lat="43.9051763" lon="11.2218677"><ele>244.0</ele><time>2026-04-11T07:45:39.15Z</time></trkpt><trkpt lat="43.9051047" lon="11.2218886"><ele>243.99999999999997</ele><time>2026-04-11T07:45:40.151Z</time></trkpt><trkpt lat="43.9050282" lon="11.2218967"><ele>244.0</ele><time>2026-04-11T07:45:41.151Z</time></trkpt><trkpt lat="43.9049339" lon="11.2218924"><ele>245.66666666666666</ele><time>2026-04-11T07:45:42.15Z</time></trkpt><trkpt lat="43.9048503" lon="11.2219232"><ele>247.33333333333331</ele><time>2026-04-11T07:45:43.15Z</time></trkpt><trkpt lat="43.9047664" lon="11.2219447"><ele>249.0</ele><time>2026-04-11T07:45:44.15Z</time></trkpt><trkpt lat="43.904691" lon="11.2219765"><ele>250.66666666666669</ele><time>2026-04-11T07:45:45.15Z</time></trkpt><trkpt lat="43.9046105" lon="11.2220159"><ele>252.33333333333334</ele><time>2026-04-11T07:45:46.151Z</time></trkpt><trkpt lat="43.9045331" lon="11.2220586"><ele>254.0</ele><time>2026-04-11T07:45:47.151Z</time></trkpt><trkpt lat="43.9044554" lon="11.2221075"><ele>254.00000000000003</ele><time>2026-04-11T07:45:48.151Z</time></trkpt><trkpt lat="43.9043803" lon="11.2221641"><ele>254.0</ele><time>2026-04-11T07:45:49.151Z</time></trkpt><trkpt lat="43.9043195" lon="11.2222351"><ele>254.0</ele><time>2026-04-11T07:45:50.151Z</time></trkpt><trkpt lat="43.9042736" lon="11.2223106"><ele>254.0</ele><time>2026-04-11T07:45:51.15Z</time></trkpt><trkpt lat="43.9042246" lon="11.2223806"><ele>254.00000000000003</ele><time>2026-04-11T07:45:52.151Z</time></trkpt><trkpt lat="43.9041739" lon="11.2224328"><ele>254.0</ele><time>2026-04-11T07:45:53.15Z</time></trkpt><trkpt lat="43.9040783" lon="11.2224735"><ele>254.16666666666669</ele><time>2026-04-11T07:45:55.151Z</time></trkpt><trkpt lat="43.9039719" lon="11.2224143"><ele>254.33333333333334</ele><time>2026-04-11T07:45:57.15Z</time></trkpt><trkpt lat="43.9039028" lon="11.2223645"><ele>254.5</ele><time>2026-04-11T07:45:58.15Z</time></trkpt><trkpt lat="43.903827" lon="11.2223155"><ele>254.66666666666669</ele><time>2026-04-11T07:45:59.15Z</time></trkpt><trkpt lat="43.9037516" lon="11.2222773"><ele>254.83333333333334</ele><time>2026-04-11T07:46:00.15Z</time></trkpt><trkpt lat="43.9036682" lon="11.2222438"><ele>255.0</ele><time>2026-04-11T07:46:01.15Z</time></trkpt><trkpt lat="43.9035822" lon="11.222214"><ele>255.0</ele><time>2026-04-11T07:46:02.149Z</time></trkpt><trkpt lat="43.9034947" lon="11.2221839"><ele>255.0</ele><time>2026-04-11T07:46:03.15Z</time></trkpt><trkpt lat="43.9034124" lon="11.2221551"><ele>255.0</ele><time>2026-04-11T07:46:04.151Z</time></trkpt><trkpt lat="43.9033296" lon="11.2221266"><ele>255.0</ele><time>2026-04-11T07:46:05.15Z</time></trkpt><trkpt lat="43.9032466" lon="11.2221019"><ele>255.0</ele><time>2026-04-11T07:46:06.151Z</time></trkpt><trkpt lat="43.9031679" lon="11.2220809"><ele>255.0</ele><time>2026-04-11T07:46:07.151Z</time></trkpt><trkpt lat="43.9030931" lon="11.2220488"><ele>256.0</ele><time>2026-04-11T07:46:08.151Z</time></trkpt><trkpt lat="43.9030198" lon="11.2220144"><ele>257.0</ele><time>2026-04-11T07:46:09.151Z</time></trkpt><trkpt lat="43.9029465" lon="11.2219904"><ele>258.0</ele><time>2026-04-11T07:46:10.151Z</time></trkpt><trkpt lat="43.9028787" lon="11.2219829"><ele>259.0</ele><time>2026-04-11T07:46:11.15Z</time></trkpt><trkpt lat="43.9028152" lon="11.2219869"><ele>260.0</ele><time>2026-04-11T07:46:12.15Z</time></trkpt><trkpt lat="43.902748" lon="11.2219964"><ele>261.0</ele><time>2026-04-11T07:46:13.15Z</time></trkpt><trkpt lat="43.9026743" lon="11.2220029"><ele>262.0</ele><time>2026-04-11T07:46:14.15Z</time></trkpt><trkpt lat="43.9025957" lon="11.2220058"><ele>264.14285714285717</ele><time>2026-04-11T07:46:15.15Z</time></trkpt><trkpt lat="43.9025182" lon="11.2220171"><ele>266.28571428571433</ele><time>2026-04-11T07:46:16.15Z</time></trkpt><trkpt lat="43.9024391" lon="11.222029"><ele>268.42857142857144</ele><time>2026-04-11T07:46:17.151Z</time></trkpt><trkpt lat="43.9023639" lon="11.2220372"><ele>270.57142857142856</ele><time>2026-04-11T07:46:18.151Z</time></trkpt><trkpt lat="43.9022935" lon="11.2220449"><ele>272.71428571428567</ele><time>2026-04-11T07:46:19.15Z</time></trkpt><trkpt lat="43.9022261" lon="11.2220337"><ele>274.85714285714283</ele><time>2026-04-11T07:46:20.15Z</time></trkpt><trkpt lat="43.902158" lon="11.2220096"><ele>277.0</ele><time>2026-04-11T07:46:21.151Z</time></trkpt><trkpt lat="43.9020878" lon="11.221969"><ele>277.0</ele><time>2026-04-11T07:46:22.151Z</time></trkpt><trkpt lat="43.9020085" lon="11.2219196"><ele>277.0</ele><time>2026-04-11T07:46:23.151Z</time></trkpt><trkpt lat="43.901922" lon="11.221871"><ele>277.0</ele><time>2026-04-11T07:46:24.151Z</time></trkpt><trkpt lat="43.9018352" lon="11.22183"><ele>277.0</ele><time>2026-04-11T07:46:25.151Z</time></trkpt><trkpt lat="43.9017479" lon="11.221798"><ele>277.0</ele><time>2026-04-11T07:46:26.151Z</time></trkpt><trkpt lat="43.9016618" lon="11.2217737"><ele>277.66666666666663</ele><time>2026-04-11T07:46:27.151Z</time></trkpt><trkpt lat="43.9015874" lon="11.2217612"><ele>278.3333333333333</ele><time>2026-04-11T07:46:28.15Z</time></trkpt><trkpt lat="43.9015104" lon="11.2217449"><ele>279.0</ele><time>2026-04-11T07:46:29.151Z</time></trkpt><trkpt lat="43.9014404" lon="11.2217327"><ele>279.6666666666667</ele><time>2026-04-11T07:46:30.151Z</time></trkpt><trkpt lat="43.9013703" lon="11.2217363"><ele>280.33333333333337</ele><time>2026-04-11T07:46:31.151Z</time></trkpt><trkpt lat="43.9012994" lon="11.2217697"><ele>281.0</ele><time>2026-04-11T07:46:32.149Z</time></trkpt><trkpt lat="43.9012292" lon="11.2218391"><ele>281.0</ele><time>2026-04-11T07:46:33.151Z</time></trkpt><trkpt lat="43.9011586" lon="11.2219223"><ele>281.0</ele><time>2026-04-11T07:46:34.151Z</time></trkpt><trkpt lat="43.9010969" lon="11.2220007"><ele>281.0</ele><time>2026-04-11T07:46:35.151Z</time></trkpt><trkpt lat="43.9010413" lon="11.2220826"><ele>281.0</ele><time>2026-04-11T07:46:36.15Z</time></trkpt><trkpt lat="43.9009973" lon="11.2221712"><ele>281.0</ele><time>2026-04-11T07:46:37.151Z</time></trkpt><trkpt lat="43.900954" lon="11.2222573"><ele>281.0</ele><time>2026-04-11T07:46:38.151Z</time></trkpt><trkpt lat="43.9009053" lon="11.2223236"><ele>279.8</ele><time>2026-04-11T07:46:39.151Z</time></trkpt><trkpt lat="43.9007936" lon="11.2223722"><ele>278.6</ele><time>2026-04-11T07:46:41.151Z</time></trkpt><trkpt lat="43.9006773" lon="11.2223378"><ele>277.4</ele><time>2026-04-11T07:46:43.15Z</time></trkpt><trkpt lat="43.9005791" lon="11.2223556"><ele>276.2</ele><time>2026-04-11T07:46:45.151Z</time></trkpt><trkpt lat="43.9005189" lon="11.2224591"><ele>275.0</ele><time>2026-04-11T07:46:47.151Z</time></trkpt><trkpt lat="43.9004691" lon="11.2226129"><ele>275.0</ele><time>2026-04-11T07:46:49.151Z</time></trkpt><trkpt lat="43.9004384" lon="11.222695"><ele>275.0</ele><time>2026-04-11T07:46:50.151Z</time></trkpt><trkpt lat="43.900401" lon="11.2227817"><ele>275.0</ele><time>2026-04-11T07:46:51.15Z</time></trkpt><trkpt lat="43.900358" lon="11.2228606"><ele>275.0</ele><time>2026-04-11T07:46:52.151Z</time></trkpt><trkpt lat="43.900315" lon="11.2229287"><ele>275.0</ele><time>2026-04-11T07:46:53.151Z</time></trkpt><trkpt lat="43.900267" lon="11.2229945"><ele>275.0</ele><time>2026-04-11T07:46:54.151Z</time></trkpt><trkpt lat="43.9002206" lon="11.2230548"><ele>275.0</ele><time>2026-04-11T07:46:55.151Z</time></trkpt><trkpt lat="43.90012" lon="11.2231466"><ele>278.8</ele><time>2026-04-11T07:46:57.151Z</time></trkpt><trkpt lat="43.9000144" lon="11.2231929"><ele>282.6</ele><time>2026-04-11T07:46:59.151Z</time></trkpt><trkpt lat="43.8999301" lon="11.2232305"><ele>286.4</ele><time>2026-04-11T07:47:01.15Z</time></trkpt><trkpt lat="43.8998319" lon="11.2232653"><ele>290.2</ele><time>2026-04-11T07:47:03.151Z</time></trkpt><trkpt lat="43.8997445" lon="11.2233257"><ele>294.0</ele><time>2026-04-11T07:47:05.15Z</time></trkpt><trkpt lat="43.8996866" lon="11.2234302"><ele>294.0</ele><time>2026-04-11T07:47:07.151Z</time></trkpt><trkpt lat="43.8996279" lon="11.2235694"><ele>294.0</ele><time>2026-04-11T07:47:09.151Z</time></trkpt><trkpt lat="43.8995868" lon="11.2237129"><ele>294.0</ele><time>2026-04-11T07:47:11.151Z</time></trkpt><trkpt lat="43.8995763" lon="11.2238565"><ele>294.0</ele><time>2026-04-11T07:47:13.151Z</time></trkpt><trkpt lat="43.8995929" lon="11.2240138"><ele>294.0</ele><time>2026-04-11T07:47:15.151Z</time></trkpt><trkpt lat="43.8996151" lon="11.2241756"><ele>293.8</ele><time>2026-04-11T07:47:17.151Z</time></trkpt><trkpt lat="43.8996329" lon="11.22434"><ele>293.59999999999997</ele><time>2026-04-11T07:47:19.15Z</time></trkpt><trkpt lat="43.89963" lon="11.2244297"><ele>293.4</ele><time>2026-04-11T07:47:20.151Z</time></trkpt><trkpt lat="43.8996089" lon="11.2245895"><ele>293.2</ele><time>2026-04-11T07:47:22.151Z</time></trkpt><trkpt lat="43.8995905" lon="11.2246742"><ele>293.0</ele><time>2026-04-11T07:47:23.15Z</time></trkpt><trkpt lat="43.899558" lon="11.2248304"><ele>295.0</ele><time>2026-04-11T07:47:25.15Z</time></trkpt><trkpt lat="43.8995258" lon="11.2249941"><ele>297.0</ele><time>2026-04-11T07:47:27.15Z</time></trkpt><trkpt lat="43.8994944" lon="11.2251378"><ele>299.0</ele><time>2026-04-11T07:47:29.15Z</time></trkpt><trkpt lat="43.8995048" lon="11.2252506"><ele>301.0</ele><time>2026-04-11T07:47:31.151Z</time></trkpt><trkpt lat="43.8995703" lon="11.2253545"><ele>303.0</ele><time>2026-04-11T07:47:33.151Z</time></trkpt><trkpt lat="43.8996467" lon="11.225464"><ele>303.0</ele><time>2026-04-11T07:47:35.15Z</time></trkpt><trkpt lat="43.8996692" lon="11.2255753"><ele>303.0</ele><time>2026-04-11T07:47:37.15Z</time></trkpt><trkpt lat="43.8996348" lon="11.2256796"><ele>303.0</ele><time>2026-04-11T07:47:39.151Z</time></trkpt><trkpt lat="43.8995588" lon="11.2257702"><ele>303.0</ele><time>2026-04-11T07:47:41.151Z</time></trkpt><trkpt lat="43.8994848" lon="11.2258745"><ele>303.0</ele><time>2026-04-11T07:47:43.151Z</time></trkpt><trkpt lat="43.8994143" lon="11.2259519"><ele>303.5</ele><time>2026-04-11T07:47:45.151Z</time></trkpt><trkpt lat="43.8993362" lon="11.2259798"><ele>304.0</ele><time>2026-04-11T07:47:47.151Z</time></trkpt><trkpt lat="43.8992476" lon="11.2259864"><ele>304.5</ele><time>2026-04-11T07:47:49.151Z</time></trkpt><trkpt lat="43.8991648" lon="11.2260095"><ele>305.0</ele><time>2026-04-11T07:47:51.151Z</time></trkpt><trkpt lat="43.8990802" lon="11.226062"><ele>305.5</ele><time>2026-04-11T07:47:53.151Z</time></trkpt><trkpt lat="43.8989954" lon="11.2261315"><ele>306.0</ele><time>2026-04-11T07:47:55.15Z</time></trkpt><trkpt lat="43.8989225" lon="11.226248"><ele>310.0</ele><time>2026-04-11T07:47:57.15Z</time></trkpt><trkpt lat="43.8988619" lon="11.2263893"><ele>314.0</ele><time>2026-04-11T07:47:59.151Z</time></trkpt><trkpt lat="43.8988019" lon="11.2265209"><ele>318.0</ele><time>2026-04-11T07:48:01.15Z</time></trkpt><trkpt lat="43.8987362" lon="11.2265989"><ele>322.0</ele><time>2026-04-11T07:48:03.15Z</time></trkpt><trkpt lat="43.8986636" lon="11.2266581"><ele>326.0</ele><time>2026-04-11T07:48:05.151Z</time></trkpt><trkpt lat="43.8985925" lon="11.2266872"><ele>326.0</ele><time>2026-04-11T07:48:07.15Z</time></trkpt><trkpt lat="43.8985178" lon="11.2267107"><ele>326.0</ele><time>2026-04-11T07:48:09.15Z</time></trkpt><trkpt lat="43.8984242" lon="11.2267389"><ele>326.0</ele><time>2026-04-11T07:48:11.15Z</time></trkpt><trkpt lat="43.8983418" lon="11.2267651"><ele>326.0</ele><time>2026-04-11T07:48:13.151Z</time></trkpt><trkpt lat="43.8982587" lon="11.2267988"><ele>326.0</ele><time>2026-04-11T07:48:16.151Z</time></trkpt><trkpt lat="43.8981924" lon="11.2268197"><ele>326.0</ele><time>2026-04-11T07:48:18.151Z</time></trkpt><trkpt lat="43.898111" lon="11.2268782"><ele>328.4</ele><time>2026-04-11T07:48:20.151Z</time></trkpt><trkpt lat="43.8980269" lon="11.2269493"><ele>330.8</ele><time>2026-04-11T07:48:22.151Z</time></trkpt><trkpt lat="43.8979576" lon="11.2270575"><ele>333.2</ele><time>2026-04-11T07:48:24.151Z</time></trkpt><trkpt lat="43.8978987" lon="11.2271745"><ele>335.59999999999997</ele><time>2026-04-11T07:48:26.15Z</time></trkpt><trkpt lat="43.8978391" lon="11.2272673"><ele>338.0</ele><time>2026-04-11T07:48:28.151Z</time></trkpt><trkpt lat="43.8977753" lon="11.2273449"><ele>338.0</ele><time>2026-04-11T07:48:30.151Z</time></trkpt><trkpt lat="43.8977094" lon="11.2274155"><ele>338.0</ele><time>2026-04-11T07:48:32.151Z</time></trkpt><trkpt lat="43.8976431" lon="11.2274755"><ele>338.0</ele><time>2026-04-11T07:48:34.151Z</time></trkpt><trkpt lat="43.8975774" lon="11.2275372"><ele>338.0</ele><time>2026-04-11T07:48:36.151Z</time></trkpt><trkpt lat="43.8975124" lon="11.2275967"><ele>338.0</ele><time>2026-04-11T07:48:38.15Z</time></trkpt><trkpt lat="43.8974564" lon="11.2276462"><ele>338.0</ele><time>2026-04-11T07:48:40.151Z</time></trkpt><trkpt lat="43.8974002" lon="11.2276999"><ele>343.33333333333337</ele><time>2026-04-11T07:49:22.151Z</time></trkpt><trkpt lat="43.8973156" lon="11.2277549"><ele>348.6666666666667</ele><time>2026-04-11T07:49:25.151Z</time></trkpt><trkpt lat="43.8972445" lon="11.2278049"><ele>354.0</ele><time>2026-04-11T07:49:27.151Z</time></trkpt><trkpt lat="43.8971729" lon="11.2278519"><ele>359.3333333333333</ele><time>2026-04-11T07:49:29.151Z</time></trkpt><trkpt lat="43.8971048" lon="11.2279057"><ele>364.66666666666663</ele><time>2026-04-11T07:49:31.15Z</time></trkpt><trkpt lat="43.8970631" lon="11.2280094"><ele>370.0</ele><time>2026-04-11T07:49:34.15Z</time></trkpt><trkpt lat="43.8970728" lon="11.2281262"><ele>369.16666666666663</ele><time>2026-04-11T07:49:37.149Z</time></trkpt><trkpt lat="43.8971038" lon="11.2282513"><ele>368.3333333333333</ele><time>2026-04-11T07:49:40.15Z</time></trkpt><trkpt lat="43.8971223" lon="11.2283469"><ele>367.5</ele><time>2026-04-11T07:49:42.151Z</time></trkpt><trkpt lat="43.8971487" lon="11.2284558"><ele>366.6666666666667</ele><time>2026-04-11T07:49:44.151Z</time></trkpt><trkpt lat="43.8971858" lon="11.228574"><ele>365.83333333333337</ele><time>2026-04-11T07:49:46.151Z</time></trkpt><trkpt lat="43.897203" lon="11.2287173"><ele>365.0</ele><time>2026-04-11T07:49:48.151Z</time></trkpt><trkpt lat="43.8971966" lon="11.2288439"><ele>365.0</ele><time>2026-04-11T07:49:50.151Z</time></trkpt><trkpt lat="43.8971862" lon="11.2289592"><ele>365.0</ele><time>2026-04-11T07:49:52.151Z</time></trkpt><trkpt lat="43.8971666" lon="11.2290709"><ele>365.0</ele><time>2026-04-11T07:49:54.15Z</time></trkpt><trkpt lat="43.897145" lon="11.2291809"><ele>365.0</ele><time>2026-04-11T07:49:56.151Z</time></trkpt><trkpt lat="43.8971068" lon="11.2292813"><ele>365.0</ele><time>2026-04-11T07:49:58.15Z</time></trkpt><trkpt lat="43.8970568" lon="11.2293506"><ele>365.0</ele><time>2026-04-11T07:50:00.15Z</time></trkpt><trkpt lat="43.8969998" lon="11.2294056"><ele>365.42857142857144</ele><time>2026-04-11T07:50:02.15Z</time></trkpt><trkpt lat="43.896929" lon="11.2294243"><ele>365.8571428571429</ele><time>2026-04-11T07:50:06.15Z</time></trkpt><trkpt lat="43.8968643" lon="11.2294635"><ele>366.28571428571433</ele><time>2026-04-11T07:50:09.15Z</time></trkpt><trkpt lat="43.8967832" lon="11.2295056"><ele>366.7142857142857</ele><time>2026-04-11T07:50:13.151Z</time></trkpt><trkpt lat="43.8967306" lon="11.2295839"><ele>367.1428571428571</ele><time>2026-04-11T07:50:17.15Z</time></trkpt><trkpt lat="43.8967278" lon="11.2296783"><ele>367.5714285714286</ele><time>2026-04-11T07:50:21.151Z</time></trkpt><trkpt lat="43.8967276" lon="11.2297692"><ele>368.0</ele><time>2026-04-11T07:50:23.151Z</time></trkpt><trkpt lat="43.8967259" lon="11.2298754"><ele>372.59999999999997</ele><time>2026-04-11T07:50:26.151Z</time></trkpt><trkpt lat="43.8967121" lon="11.2299871"><ele>377.2</ele><time>2026-04-11T07:50:30.15Z</time></trkpt><trkpt lat="43.8967012" lon="11.230079"><ele>381.8</ele><time>2026-04-11T07:50:32.151Z</time></trkpt><trkpt lat="43.8966676" lon="11.2302018"><ele>386.4</ele><time>2026-04-11T07:50:34.151Z</time></trkpt><trkpt lat="43.896613" lon="11.2303281"><ele>391.0</ele><time>2026-04-11T07:50:36.151Z</time></trkpt><trkpt lat="43.8965534" lon="11.2304597"><ele>390.99999999999994</ele><time>2026-04-11T07:50:38.151Z</time></trkpt><trkpt lat="43.8965134" lon="11.2305359"><ele>391.0</ele><time>2026-04-11T07:50:39.151Z</time></trkpt><trkpt lat="43.8964685" lon="11.2306175"><ele>391.0</ele><time>2026-04-11T07:50:40.15Z</time></trkpt><trkpt lat="43.8964279" lon="11.2307006"><ele>391.0</ele><time>2026-04-11T07:50:41.15Z</time></trkpt><trkpt lat="43.8963857" lon="11.2307781"><ele>391.0</ele><time>2026-04-11T07:50:42.151Z</time></trkpt><trkpt lat="43.8963457" lon="11.2308576"><ele>390.99999999999994</ele><time>2026-04-11T07:50:43.151Z</time></trkpt><trkpt lat="43.8963083" lon="11.2309348"><ele>391.0</ele><time>2026-04-11T07:50:44.151Z</time></trkpt><trkpt lat="43.8962701" lon="11.2310077"><ele>390.6666666666667</ele><time>2026-04-11T07:50:45.151Z</time></trkpt><trkpt lat="43.8962043" lon="11.2311315"><ele>390.33333333333337</ele><time>2026-04-11T07:50:47.15Z</time></trkpt><trkpt lat="43.8961517" lon="11.2312256"><ele>390.0</ele><time>2026-04-11T07:50:49.15Z</time></trkpt><trkpt lat="43.8961148" lon="11.2313061"><ele>389.66666666666663</ele><time>2026-04-11T07:50:51.151Z</time></trkpt><trkpt lat="43.8960968" lon="11.2313936"><ele>389.3333333333333</ele><time>2026-04-11T07:50:53.151Z</time></trkpt><trkpt lat="43.8961511" lon="11.2314994"><ele>389.0</ele><time>2026-04-11T07:50:56.15Z</time></trkpt><trkpt lat="43.896232" lon="11.2315501"><ele>390.4</ele><time>2026-04-11T07:50:58.15Z</time></trkpt><trkpt lat="43.8963072" lon="11.2316124"><ele>391.79999999999995</ele><time>2026-04-11T07:51:00.151Z</time></trkpt><trkpt lat="43.8963729" lon="11.2316842"><ele>393.20000000000005</ele><time>2026-04-11T07:51:02.151Z</time></trkpt><trkpt lat="43.8964436" lon="11.2317718"><ele>394.6</ele><time>2026-04-11T07:51:04.151Z</time></trkpt><trkpt lat="43.8965226" lon="11.2318619"><ele>396.0</ele><time>2026-04-11T07:51:06.151Z</time></trkpt><trkpt lat="43.896609" lon="11.2319724"><ele>396.0</ele><time>2026-04-11T07:51:08.151Z</time></trkpt><trkpt lat="43.8966863" lon="11.232088"><ele>396.0</ele><time>2026-04-11T07:51:10.151Z</time></trkpt><trkpt lat="43.8967499" lon="11.2322129"><ele>396.0</ele><time>2026-04-11T07:51:12.151Z</time></trkpt><trkpt lat="43.896788" lon="11.2323724"><ele>396.0</ele><time>2026-04-11T07:51:14.15Z</time></trkpt><trkpt lat="43.8967943" lon="11.232519"><ele>399.6</ele><time>2026-04-11T07:51:16.15Z</time></trkpt><trkpt lat="43.8967814" lon="11.2326512"><ele>403.20000000000005</ele><time>2026-04-11T07:51:18.15Z</time></trkpt><trkpt lat="43.896756" lon="11.232777"><ele>406.79999999999995</ele><time>2026-04-11T07:51:20.15Z</time></trkpt><trkpt lat="43.896728" lon="11.2329298"><ele>410.4</ele><time>2026-04-11T07:51:22.15Z</time></trkpt><trkpt lat="43.8966874" lon="11.2330834"><ele>414.0</ele><time>2026-04-11T07:51:24.15Z</time></trkpt><trkpt lat="43.8966513" lon="11.2332172"><ele>415.4</ele><time>2026-04-11T07:51:26.151Z</time></trkpt><trkpt lat="43.8966099" lon="11.2333785"><ele>416.79999999999995</ele><time>2026-04-11T07:51:28.151Z</time></trkpt><trkpt lat="43.8965709" lon="11.233531"><ele>418.20000000000005</ele><time>2026-04-11T07:51:30.151Z</time></trkpt><trkpt lat="43.8965291" lon="11.2336715"><ele>419.6</ele><time>2026-04-11T07:51:32.151Z</time></trkpt><trkpt lat="43.8965012" lon="11.233802"><ele>421.0</ele><time>2026-04-11T07:51:34.151Z</time></trkpt><trkpt lat="43.8964744" lon="11.2339292"><ele>421.50000000000006</ele><time>2026-04-11T07:51:36.151Z</time></trkpt><trkpt lat="43.8964426" lon="11.2340423"><ele>422.0</ele><time>2026-04-11T07:51:38.15Z</time></trkpt><trkpt lat="43.8964313" lon="11.2341434"><ele>422.5</ele><time>2026-04-11T07:51:40.15Z</time></trkpt><trkpt lat="43.8964816" lon="11.2342297"><ele>423.0</ele><time>2026-04-11T07:51:42.15Z</time></trkpt><trkpt lat="43.8965541" lon="11.2342594"><ele>423.50000000000006</ele><time>2026-04-11T07:51:44.15Z</time></trkpt><trkpt lat="43.896641" lon="11.2342932"><ele>424.0</ele><time>2026-04-11T07:51:46.151Z</time></trkpt><trkpt lat="43.8967052" lon="11.2343752"><ele>421.83333333333337</ele><time>2026-04-11T07:51:48.15Z</time></trkpt><trkpt lat="43.8967753" lon="11.2344739"><ele>419.6666666666667</ele><time>2026-04-11T07:51:50.15Z</time></trkpt><trkpt lat="43.8968215" lon="11.2345741"><ele>417.5</ele><time>2026-04-11T07:51:52.15Z</time></trkpt><trkpt lat="43.8968466" lon="11.2346774"><ele>415.33333333333337</ele><time>2026-04-11T07:51:54.151Z</time></trkpt><trkpt lat="43.8968592" lon="11.2347958"><ele>413.1666666666667</ele><time>2026-04-11T07:51:56.151Z</time></trkpt><trkpt lat="43.8968735" lon="11.2349148"><ele>411.0</ele><time>2026-04-11T07:51:58.151Z</time></trkpt><trkpt lat="43.8968832" lon="11.2350431"><ele>411.0</ele><time>2026-04-11T07:52:00.151Z</time></trkpt><trkpt lat="43.8968899" lon="11.2351848"><ele>411.0</ele><time>2026-04-11T07:52:02.151Z</time></trkpt><trkpt lat="43.8968726" lon="11.2353434"><ele>411.0</ele><time>2026-04-11T07:52:04.151Z</time></trkpt><trkpt lat="43.8968615" lon="11.2354324"><ele>411.0</ele><time>2026-04-11T07:52:05.151Z</time></trkpt><trkpt lat="43.8968487" lon="11.235519"><ele>411.0</ele><time>2026-04-11T07:52:06.151Z</time></trkpt><trkpt lat="43.8968528" lon="11.2356664"><ele>411.8333333333333</ele><time>2026-04-11T07:52:08.151Z</time></trkpt><trkpt lat="43.8968864" lon="11.2357881"><ele>412.66666666666663</ele><time>2026-04-11T07:52:10.15Z</time></trkpt><trkpt lat="43.8969083" lon="11.2358945"><ele>413.5</ele><time>2026-04-11T07:52:12.15Z</time></trkpt><trkpt lat="43.8968972" lon="11.2360081"><ele>414.3333333333333</ele><time>2026-04-11T07:52:14.151Z</time></trkpt><trkpt lat="43.89687" lon="11.2361315"><ele>415.16666666666663</ele><time>2026-04-11T07:52:16.151Z</time></trkpt><trkpt lat="43.8968277" lon="11.2362355"><ele>416.0</ele><time>2026-04-11T07:52:18.151Z</time></trkpt><trkpt lat="43.8968" lon="11.2363408"><ele>416.0</ele><time>2026-04-11T07:52:20.151Z</time></trkpt><trkpt lat="43.8968242" lon="11.2364584"><ele>416.0</ele><time>2026-04-11T07:52:22.151Z</time></trkpt><trkpt lat="43.8968751" lon="11.2365729"><ele>416.0</ele><time>2026-04-11T07:52:24.151Z</time></trkpt><trkpt lat="43.8969236" lon="11.2366919"><ele>416.0</ele><time>2026-04-11T07:52:26.151Z</time></trkpt><trkpt lat="43.8969506" lon="11.236821"><ele>416.0</ele><time>2026-04-11T07:52:28.151Z</time></trkpt><trkpt lat="43.896953" lon="11.2369594"><ele>417.4</ele><time>2026-04-11T07:52:30.15Z</time></trkpt><trkpt lat="43.8969433" lon="11.2371014"><ele>418.8</ele><time>2026-04-11T07:52:32.151Z</time></trkpt><trkpt lat="43.8969308" lon="11.2372475"><ele>420.2</ele><time>2026-04-11T07:52:34.15Z</time></trkpt><trkpt lat="43.8969265" lon="11.2373919"><ele>421.59999999999997</ele><time>2026-04-11T07:52:36.15Z</time></trkpt><trkpt lat="43.8969166" lon="11.2375411"><ele>423.0</ele><time>2026-04-11T07:52:38.151Z</time></trkpt><trkpt lat="43.8969196" lon="11.2376286"><ele>426.1666666666667</ele><time>2026-04-11T07:52:39.151Z</time></trkpt><trkpt lat="43.8969169" lon="11.2377201"><ele>429.33333333333337</ele><time>2026-04-11T07:52:40.15Z</time></trkpt><trkpt lat="43.8969101" lon="11.2378726"><ele>432.5</ele><time>2026-04-11T07:52:42.151Z</time></trkpt><trkpt lat="43.8969047" lon="11.2380137"><ele>435.6666666666667</ele><time>2026-04-11T07:52:44.151Z</time></trkpt><trkpt lat="43.8968973" lon="11.2381347"><ele>438.83333333333337</ele><time>2026-04-11T07:52:46.15Z</time></trkpt><trkpt lat="43.8969116" lon="11.2382265"><ele>442.0</ele><time>2026-04-11T07:52:48.15Z</time></trkpt><trkpt lat="43.8969817" lon="11.2382693"><ele>442.0</ele><time>2026-04-11T07:52:50.149Z</time></trkpt><trkpt lat="43.8970628" lon="11.2382275"><ele>442.00000000000006</ele><time>2026-04-11T07:52:52.151Z</time></trkpt><trkpt lat="43.8971637" lon="11.2381595"><ele>442.00000000000006</ele><time>2026-04-11T07:52:54.151Z</time></trkpt><trkpt lat="43.8972249" lon="11.2381357"><ele>442.0</ele><time>2026-04-11T07:52:55.151Z</time></trkpt><trkpt lat="43.8973471" lon="11.2381053"><ele>442.0</ele><time>2026-04-11T07:52:57.151Z</time></trkpt><trkpt lat="43.8974122" lon="11.2381054"><ele>442.0</ele><time>2026-04-11T07:52:58.151Z</time></trkpt><trkpt lat="43.8974777" lon="11.2381127"><ele>442.00000000000006</ele><time>2026-04-11T07:52:59.15Z</time></trkpt><trkpt lat="43.8976008" lon="11.2381521"><ele>442.00000000000006</ele><time>2026-04-11T07:53:01.15Z</time></trkpt><trkpt lat="43.8977128" lon="11.2381914"><ele>442.0</ele><time>2026-04-11T07:53:03.15Z</time></trkpt><trkpt lat="43.8978185" lon="11.2382737"><ele>442.0</ele><time>2026-04-11T07:53:05.15Z</time></trkpt><trkpt lat="43.8979059" lon="11.2383953"><ele>442.75</ele><time>2026-04-11T07:53:07.15Z</time></trkpt><trkpt lat="43.8979742" lon="11.2385342"><ele>443.5</ele><time>2026-04-11T07:53:09.151Z</time></trkpt><trkpt lat="43.8980186" lon="11.2386884"><ele>444.25</ele><time>2026-04-11T07:53:11.151Z</time></trkpt><trkpt lat="43.8980627" lon="11.2388515"><ele>445.0</ele><time>2026-04-11T07:53:13.151Z</time></trkpt><trkpt lat="43.898068" lon="11.2390263"><ele>446.42857142857144</ele><time>2026-04-11T07:53:15.151Z</time></trkpt><trkpt lat="43.8980528" lon="11.2391148"><ele>447.85714285714283</ele><time>2026-04-11T07:53:16.151Z</time></trkpt><trkpt lat="43.8980368" lon="11.2392125"><ele>449.2857142857143</ele><time>2026-04-11T07:53:17.151Z</time></trkpt><trkpt lat="43.8980336" lon="11.2393056"><ele>450.7142857142857</ele><time>2026-04-11T07:53:18.151Z</time></trkpt><trkpt lat="43.8980312" lon="11.2394088"><ele>452.1428571428571</ele><time>2026-04-11T07:53:19.151Z</time></trkpt><trkpt lat="43.8980212" lon="11.2395096"><ele>453.57142857142856</ele><time>2026-04-11T07:53:20.151Z</time></trkpt><trkpt lat="43.8980053" lon="11.2395948"><ele>455.0</ele><time>2026-04-11T07:53:21.151Z</time></trkpt><trkpt lat="43.8979793" lon="11.2396831"><ele>454.6</ele><time>2026-04-11T07:53:22.151Z</time></trkpt><trkpt lat="43.8979223" lon="11.2398404"><ele>454.2</ele><time>2026-04-11T07:53:24.151Z</time></trkpt><trkpt lat="43.8978909" lon="11.2399225"><ele>453.79999999999995</ele><time>2026-04-11T07:53:25.151Z</time></trkpt><trkpt lat="43.8978308" lon="11.2400775"><ele>453.4</ele><time>2026-04-11T07:53:27.151Z</time></trkpt><trkpt lat="43.8978008" lon="11.2401845"><ele>453.0</ele><time>2026-04-11T07:53:28.15Z</time></trkpt><trkpt lat="43.8977648" lon="11.2402688"><ele>452.99999999999994</ele><time>2026-04-11T07:53:29.15Z</time></trkpt><trkpt lat="43.8977242" lon="11.2403516"><ele>453.0</ele><time>2026-04-11T07:53:30.151Z</time></trkpt><trkpt lat="43.8976878" lon="11.2404346"><ele>452.99999999999994</ele><time>2026-04-11T07:53:31.151Z</time></trkpt><trkpt lat="43.8976644" lon="11.2405277"><ele>452.99999999999994</ele><time>2026-04-11T07:53:32.151Z</time></trkpt><trkpt lat="43.8976433" lon="11.2406325"><ele>453.0</ele><time>2026-04-11T07:53:33.15Z</time></trkpt><trkpt lat="43.8976441" lon="11.2407329"><ele>452.99999999999994</ele><time>2026-04-11T07:53:34.15Z</time></trkpt><trkpt lat="43.8976434" lon="11.2408493"><ele>452.99999999999994</ele><time>2026-04-11T07:53:35.151Z</time></trkpt><trkpt lat="43.8976434" lon="11.2409718"><ele>453.2857142857142</ele><time>2026-04-11T07:53:36.15Z</time></trkpt><trkpt lat="43.897646" lon="11.2410825"><ele>453.57142857142856</ele><time>2026-04-11T07:53:37.15Z</time></trkpt><trkpt lat="43.8976526" lon="11.2411979"><ele>453.85714285714283</ele><time>2026-04-11T07:53:38.151Z</time></trkpt><trkpt lat="43.8976569" lon="11.2413035"><ele>454.1428571428571</ele><time>2026-04-11T07:53:39.151Z</time></trkpt><trkpt lat="43.8976613" lon="11.2414037"><ele>454.42857142857144</ele><time>2026-04-11T07:53:40.151Z</time></trkpt><trkpt lat="43.8976657" lon="11.2414984"><ele>454.7142857142857</ele><time>2026-04-11T07:53:41.15Z</time></trkpt><trkpt lat="43.8976655" lon="11.2415944"><ele>455.0</ele><time>2026-04-11T07:53:42.15Z</time></trkpt><trkpt lat="43.897668" lon="11.2416925"><ele>456.4</ele><time>2026-04-11T07:53:43.151Z</time></trkpt><trkpt lat="43.8976694" lon="11.2417866"><ele>457.8</ele><time>2026-04-11T07:53:44.151Z</time></trkpt><trkpt lat="43.8976802" lon="11.2418945"><ele>459.20000000000005</ele><time>2026-04-11T07:53:45.151Z</time></trkpt><trkpt lat="43.8976791" lon="11.2419917"><ele>460.6</ele><time>2026-04-11T07:53:46.151Z</time></trkpt><trkpt lat="43.8976739" lon="11.2421694"><ele>462.0</ele><time>2026-04-11T07:53:48.151Z</time></trkpt><trkpt lat="43.897677" lon="11.2423324"><ele>463.5</ele><time>2026-04-11T07:53:50.15Z</time></trkpt><trkpt lat="43.8977096" lon="11.2424573"><ele>465.0</ele><time>2026-04-11T07:53:52.15Z</time></trkpt><trkpt lat="43.8977677" lon="11.2425004"><ele>466.5</ele><time>2026-04-11T07:53:53.15Z</time></trkpt><trkpt lat="43.8978288" lon="11.2425371"><ele>468.0</ele><time>2026-04-11T07:53:54.15Z</time></trkpt><trkpt lat="43.8978861" lon="11.2425877"><ele>469.5</ele><time>2026-04-11T07:53:55.151Z</time></trkpt><trkpt lat="43.8979786" lon="11.2426883"><ele>471.0</ele><time>2026-04-11T07:53:57.151Z</time></trkpt><trkpt lat="43.8980595" lon="11.2427852"><ele>471.0</ele><time>2026-04-11T07:53:59.151Z</time></trkpt><trkpt lat="43.8981343" lon="11.2428799"><ele>471.0</ele><time>2026-04-11T07:54:01.151Z</time></trkpt><trkpt lat="43.8982174" lon="11.2429857"><ele>471.0</ele><time>2026-04-11T07:54:03.151Z</time></trkpt><trkpt lat="43.8983032" lon="11.2430944"><ele>471.0</ele><time>2026-04-11T07:54:05.151Z</time></trkpt><trkpt lat="43.8983962" lon="11.2432039"><ele>470.5</ele><time>2026-04-11T07:54:07.151Z</time></trkpt><trkpt lat="43.8984412" lon="11.2432712"><ele>470.0</ele><time>2026-04-11T07:54:08.15Z</time></trkpt><trkpt lat="43.8984849" lon="11.2433458"><ele>469.5</ele><time>2026-04-11T07:54:09.151Z</time></trkpt><trkpt lat="43.8985239" lon="11.243423"><ele>469.0</ele><time>2026-04-11T07:54:10.151Z</time></trkpt><trkpt lat="43.898553" lon="11.2435008"><ele>468.5</ele><time>2026-04-11T07:54:11.151Z</time></trkpt><trkpt lat="43.8985737" lon="11.2435849"><ele>468.0</ele><time>2026-04-11T07:54:12.151Z</time></trkpt><trkpt lat="43.8985897" lon="11.2437523"><ele>468.0</ele><time>2026-04-11T07:54:14.151Z</time></trkpt><trkpt lat="43.8985939" lon="11.2439148"><ele>467.99999999999994</ele><time>2026-04-11T07:54:16.151Z</time></trkpt><trkpt lat="43.8985952" lon="11.2440628"><ele>467.99999999999994</ele><time>2026-04-11T07:54:18.151Z</time></trkpt><trkpt lat="43.8985919" lon="11.2442111"><ele>468.0</ele><time>2026-04-11T07:54:20.15Z</time></trkpt><trkpt lat="43.898595" lon="11.2443711"><ele>468.0</ele><time>2026-04-11T07:54:22.151Z</time></trkpt><trkpt lat="43.898631" lon="11.2445286"><ele>469.28571428571433</ele><time>2026-04-11T07:54:24.151Z</time></trkpt><trkpt lat="43.8986672" lon="11.2446043"><ele>470.5714285714286</ele><time>2026-04-11T07:54:25.151Z</time></trkpt><trkpt lat="43.8987105" lon="11.2446744"><ele>471.8571428571429</ele><time>2026-04-11T07:54:26.15Z</time></trkpt><trkpt lat="43.8987602" lon="11.2447489"><ele>473.1428571428571</ele><time>2026-04-11T07:54:27.15Z</time></trkpt><trkpt lat="43.8988074" lon="11.2448302"><ele>474.4285714285714</ele><time>2026-04-11T07:54:28.151Z</time></trkpt><trkpt lat="43.8988506" lon="11.2449145"><ele>475.71428571428567</ele><time>2026-04-11T07:54:29.151Z</time></trkpt><trkpt lat="43.8988932" lon="11.2449973"><ele>477.0</ele><time>2026-04-11T07:54:30.151Z</time></trkpt><trkpt lat="43.8989286" lon="11.2450765"><ele>479.20000000000005</ele><time>2026-04-11T07:54:31.151Z</time></trkpt><trkpt lat="43.8989676" lon="11.2451474"><ele>481.40000000000003</ele><time>2026-04-11T07:54:32.15Z</time></trkpt><trkpt lat="43.8990456" lon="11.245278"><ele>483.59999999999997</ele><time>2026-04-11T07:54:34.151Z</time></trkpt><trkpt lat="43.8991228" lon="11.2453946"><ele>485.79999999999995</ele><time>2026-04-11T07:54:36.15Z</time></trkpt><trkpt lat="43.8991902" lon="11.2455048"><ele>488.0</ele><time>2026-04-11T07:54:38.151Z</time></trkpt><trkpt lat="43.8992278" lon="11.2456342"><ele>489.79999999999995</ele><time>2026-04-11T07:54:40.151Z</time></trkpt><trkpt lat="43.8992732" lon="11.2457576"><ele>491.59999999999997</ele><time>2026-04-11T07:54:42.15Z</time></trkpt><trkpt lat="43.899353" lon="11.2458594"><ele>493.40000000000003</ele><time>2026-04-11T07:54:44.151Z</time></trkpt><trkpt lat="43.8994267" lon="11.2459395"><ele>495.20000000000005</ele><time>2026-04-11T07:54:46.151Z</time></trkpt><trkpt lat="43.8994858" lon="11.24599"><ele>497.0</ele><time>2026-04-11T07:54:48.15Z</time></trkpt><trkpt lat="43.8995699" lon="11.2460419"><ele>496.99999999999994</ele><time>2026-04-11T07:54:50.151Z</time></trkpt><trkpt lat="43.8996771" lon="11.2460925"><ele>497.0</ele><time>2026-04-11T07:54:52.15Z</time></trkpt><trkpt lat="43.8997586" lon="11.2461305"><ele>497.0</ele><time>2026-04-11T07:54:54.151Z</time></trkpt><trkpt lat="43.8998357" lon="11.2461806"><ele>497.0</ele><time>2026-04-11T07:54:56.151Z</time></trkpt><trkpt lat="43.8999132" lon="11.246219"><ele>496.99999999999994</ele><time>2026-04-11T07:54:58.151Z</time></trkpt><trkpt lat="43.8999545" lon="11.2463152"><ele>497.0</ele><time>2026-04-11T07:55:01.15Z</time></trkpt><trkpt lat="43.8999106" lon="11.2463989"><ele>498.3333333333333</ele><time>2026-04-11T07:55:04.151Z</time></trkpt><trkpt lat="43.8998593" lon="11.2464668"><ele>499.66666666666663</ele><time>2026-04-11T07:56:11.151Z</time></trkpt><trkpt lat="43.8998047" lon="11.2465386"><ele>501.0</ele><time>2026-04-11T07:56:26.151Z</time></trkpt><trkpt lat="43.8997578" lon="11.2466149"><ele>502.33333333333337</ele><time>2026-04-11T07:56:28.151Z</time></trkpt><trkpt lat="43.8996926" lon="11.2467169"><ele>503.6666666666667</ele><time>2026-04-11T07:56:31.15Z</time></trkpt><trkpt lat="43.8996486" lon="11.2467908"><ele>505.0</ele><time>2026-04-11T07:56:33.151Z</time></trkpt><trkpt lat="43.8996005" lon="11.2468622"><ele>505.0</ele><time>2026-04-11T07:56:35.151Z</time></trkpt><trkpt lat="43.8995519" lon="11.2469311"><ele>504.99999999999994</ele><time>2026-04-11T07:56:37.151Z</time></trkpt><trkpt lat="43.8994893" lon="11.2469827"><ele>505.0</ele><time>2026-04-11T07:56:39.151Z</time></trkpt><trkpt lat="43.8994206" lon="11.2470439"><ele>505.0</ele><time>2026-04-11T07:56:41.15Z</time></trkpt><trkpt lat="43.8993684" lon="11.2470963"><ele>504.99999999999994</ele><time>2026-04-11T07:56:43.151Z</time></trkpt><trkpt lat="43.8993204" lon="11.2471579"><ele>505.0</ele><time>2026-04-11T07:56:45.151Z</time></trkpt><trkpt lat="43.8992943" lon="11.247277"><ele>505.0</ele><time>2026-04-11T07:56:48.15Z</time></trkpt><trkpt lat="43.8992949" lon="11.2473945"><ele>506.83333333333337</ele><time>2026-04-11T07:56:51.151Z</time></trkpt><trkpt lat="43.8992484" lon="11.2474989"><ele>508.6666666666667</ele><time>2026-04-11T07:56:54.15Z</time></trkpt><trkpt lat="43.8992065" lon="11.2475783"><ele>510.5</ele><time>2026-04-11T07:56:56.151Z</time></trkpt><trkpt lat="43.8991331" lon="11.2476326"><ele>512.3333333333334</ele><time>2026-04-11T07:56:59.15Z</time></trkpt><trkpt lat="43.899046" lon="11.2476052"><ele>514.1666666666666</ele><time>2026-04-11T07:57:02.151Z</time></trkpt><trkpt lat="43.8989739" lon="11.2476069"><ele>516.0</ele><time>2026-04-11T07:57:04.15Z</time></trkpt><trkpt lat="43.8989012" lon="11.2475927"><ele>515.9999999999999</ele><time>2026-04-11T07:57:06.15Z</time></trkpt><trkpt lat="43.8988388" lon="11.24758"><ele>516.0</ele><time>2026-04-11T07:57:08.151Z</time></trkpt><trkpt lat="43.8987786" lon="11.2476189"><ele>516.0</ele><time>2026-04-11T07:57:10.151Z</time></trkpt><trkpt lat="43.8987252" lon="11.2476894"><ele>516.0</ele><time>2026-04-11T07:57:12.151Z</time></trkpt><trkpt lat="43.8986702" lon="11.2477499"><ele>516.0</ele><time>2026-04-11T07:57:14.15Z</time></trkpt><trkpt lat="43.8986108" lon="11.2478087"><ele>515.9999999999999</ele><time>2026-04-11T07:57:16.15Z</time></trkpt><trkpt lat="43.8985417" lon="11.2478715"><ele>516.0</ele><time>2026-04-11T07:57:18.151Z</time></trkpt><trkpt lat="43.8984677" lon="11.2479491"><ele>518.0</ele><time>2026-04-11T07:57:20.151Z</time></trkpt><trkpt lat="43.8984009" lon="11.2479988"><ele>520.0</ele><time>2026-04-11T07:57:22.15Z</time></trkpt><trkpt lat="43.8983281" lon="11.2480507"><ele>522.0</ele><time>2026-04-11T07:57:24.15Z</time></trkpt><trkpt lat="43.8982402" lon="11.2480965"><ele>524.0</ele><time>2026-04-11T07:57:26.151Z</time></trkpt><trkpt lat="43.8981554" lon="11.2481403"><ele>526.0</ele><time>2026-04-11T07:57:28.15Z</time></trkpt><trkpt lat="43.8980687" lon="11.2482083"><ele>528.0</ele><time>2026-04-11T07:57:30.15Z</time></trkpt><trkpt lat="43.8979816" lon="11.2482584"><ele>529.8</ele><time>2026-04-11T07:57:32.15Z</time></trkpt><trkpt lat="43.8978998" lon="11.2483613"><ele>531.5999999999999</ele><time>2026-04-11T07:57:34.151Z</time></trkpt><trkpt lat="43.8978177" lon="11.2484659"><ele>533.4000000000001</ele><time>2026-04-11T07:57:36.15Z</time></trkpt><trkpt lat="43.8977604" lon="11.2485075"><ele>535.2</ele><time>2026-04-11T07:57:37.15Z</time></trkpt><trkpt lat="43.8976607" lon="11.2485626"><ele>537.0</ele><time>2026-04-11T07:57:39.151Z</time></trkpt><trkpt lat="43.8975848" lon="11.2486077"><ele>537.5714285714286</ele><time>2026-04-11T07:57:41.15Z</time></trkpt><trkpt lat="43.8975224" lon="11.2486843"><ele>538.1428571428571</ele><time>2026-04-11T07:57:44.151Z</time></trkpt><trkpt lat="43.8974495" lon="11.2487"><ele>538.7142857142858</ele><time>2026-04-11T08:04:38.15Z</time></trkpt><trkpt lat="43.8973774" lon="11.2486943"><ele>539.2857142857142</ele><time>2026-04-11T08:04:41.148Z</time></trkpt><trkpt lat="43.8973118" lon="11.2486832"><ele>539.8571428571429</ele><time>2026-04-11T08:04:44.15Z</time></trkpt><trkpt lat="43.8972488" lon="11.2486583"><ele>540.4285714285714</ele><time>2026-04-11T08:04:46.149Z</time></trkpt><trkpt lat="43.8971829" lon="11.2485906"><ele>541.0</ele><time>2026-04-11T08:04:48.15Z</time></trkpt><trkpt lat="43.8971197" lon="11.2484962"><ele>541.0</ele><time>2026-04-11T08:04:50.15Z</time></trkpt><trkpt lat="43.8970577" lon="11.2484261"><ele>541.0</ele><time>2026-04-11T08:04:52.15Z</time></trkpt><trkpt lat="43.8969708" lon="11.2483546"><ele>541.0</ele><time>2026-04-11T08:04:54.15Z</time></trkpt><trkpt lat="43.8968875" lon="11.2482901"><ele>541.0</ele><time>2026-04-11T08:04:56.149Z</time></trkpt><trkpt lat="43.8967966" lon="11.2482055"><ele>541.0</ele><time>2026-04-11T08:04:58.149Z</time></trkpt><trkpt lat="43.8967283" lon="11.2481345"><ele>542.0</ele><time>2026-04-11T08:05:00.149Z</time></trkpt><trkpt lat="43.8966476" lon="11.2480622"><ele>543.0</ele><time>2026-04-11T08:05:03.149Z</time></trkpt><trkpt lat="43.8965885" lon="11.2480133"><ele>544.0</ele><time>2026-04-11T08:05:05.15Z</time></trkpt><trkpt lat="43.8965073" lon="11.2479733"><ele>545.0</ele><time>2026-04-11T08:05:08.15Z</time></trkpt><trkpt lat="43.8964357" lon="11.2478918"><ele>546.0</ele><time>2026-04-11T08:05:11.149Z</time></trkpt><trkpt lat="43.8963661" lon="11.2478521"><ele>547.0</ele><time>2026-04-11T08:05:14.149Z</time></trkpt><trkpt lat="43.8962909" lon="11.2478259"><ele>547.0</ele><time>2026-04-11T08:05:17.15Z</time></trkpt><trkpt lat="43.8962126" lon="11.2477919"><ele>547.0</ele><time>2026-04-11T08:05:21.149Z</time></trkpt><trkpt lat="43.8961488" lon="11.2477387"><ele>547.0</ele><time>2026-04-11T08:05:25.15Z</time></trkpt><trkpt lat="43.8960828" lon="11.247692"><ele>547.0</ele><time>2026-04-11T08:05:29.149Z</time></trkpt><trkpt lat="43.8960058" lon="11.2476675"><ele>547.0</ele><time>2026-04-11T08:05:32.149Z</time></trkpt><trkpt lat="43.8959106" lon="11.2476411"><ele>547.0</ele><time>2026-04-11T08:05:35.15Z</time></trkpt><trkpt lat="43.8958294" lon="11.2476239"><ele>547.4285714285714</ele><time>2026-04-11T08:05:38.149Z</time></trkpt><trkpt lat="43.895754" lon="11.247625"><ele>547.8571428571428</ele><time>2026-04-11T08:05:41.149Z</time></trkpt><trkpt lat="43.8956846" lon="11.2476289"><ele>548.2857142857142</ele><time>2026-04-11T08:05:43.15Z</time></trkpt><trkpt lat="43.895616" lon="11.2476333"><ele>548.7142857142857</ele><time>2026-04-11T08:05:45.149Z</time></trkpt><trkpt lat="43.8955432" lon="11.2476333"><ele>549.1428571428571</ele><time>2026-04-11T08:05:47.149Z</time></trkpt><trkpt lat="43.8954725" lon="11.2476374"><ele>549.5714285714286</ele><time>2026-04-11T08:05:49.149Z</time></trkpt><trkpt lat="43.8953894" lon="11.2476641"><ele>550.0</ele><time>2026-04-11T08:05:51.15Z</time></trkpt><trkpt lat="43.8953122" lon="11.2477107"><ele>550.0</ele><time>2026-04-11T08:05:53.15Z</time></trkpt><trkpt lat="43.8952339" lon="11.2477521"><ele>550.0</ele><time>2026-04-11T08:05:55.149Z</time></trkpt><trkpt lat="43.8951684" lon="11.247772"><ele>550.0</ele><time>2026-04-11T08:05:57.15Z</time></trkpt><trkpt lat="43.8951072" lon="11.2478"><ele>550.0</ele><time>2026-04-11T08:06:00.15Z</time></trkpt><trkpt lat="43.8950463" lon="11.247841"><ele>550.0</ele><time>2026-04-11T08:06:25.149Z</time></trkpt><trkpt lat="43.8949956" lon="11.2478998"><ele>550.0</ele><time>2026-04-11T08:06:28.15Z</time></trkpt><trkpt lat="43.8949199" lon="11.2479455"><ele>550.0</ele><time>2026-04-11T08:06:31.149Z</time></trkpt><trkpt lat="43.8948258" lon="11.2479383"><ele>548.2</ele><time>2026-04-11T08:06:34.15Z</time></trkpt><trkpt lat="43.894762" lon="11.2479301"><ele>546.4</ele><time>2026-04-11T08:06:36.15Z</time></trkpt><trkpt lat="43.8946696" lon="11.2479409"><ele>544.6</ele><time>2026-04-11T08:06:39.15Z</time></trkpt><trkpt lat="43.894582" lon="11.2480207"><ele>542.8</ele><time>2026-04-11T08:06:42.15Z</time></trkpt><trkpt lat="43.8945058" lon="11.2481175"><ele>541.0</ele><time>2026-04-11T08:06:44.15Z</time></trkpt><trkpt lat="43.8944417" lon="11.2482337"><ele>539.2</ele><time>2026-04-11T08:06:46.149Z</time></trkpt><trkpt lat="43.8943821" lon="11.2483814"><ele>537.4000000000001</ele><time>2026-04-11T08:06:48.15Z</time></trkpt><trkpt lat="43.8943085" lon="11.2484714"><ele>535.6</ele><time>2026-04-11T08:06:50.149Z</time></trkpt><trkpt lat="43.894233" lon="11.2485576"><ele>533.8000000000001</ele><time>2026-04-11T08:06:52.15Z</time></trkpt><trkpt lat="43.8941853" lon="11.2486158"><ele>532.0</ele><time>2026-04-11T08:06:53.149Z</time></trkpt><trkpt lat="43.8941325" lon="11.2486816"><ele>531.0</ele><time>2026-04-11T08:06:54.149Z</time></trkpt><trkpt lat="43.8940221" lon="11.2487935"><ele>530.0</ele><time>2026-04-11T08:06:56.149Z</time></trkpt><trkpt lat="43.8939521" lon="11.2488282"><ele>529.0</ele><time>2026-04-11T08:06:57.149Z</time></trkpt><trkpt lat="43.8938902" lon="11.2488629"><ele>528.0</ele><time>2026-04-11T08:06:58.15Z</time></trkpt><trkpt lat="43.8938131" lon="11.2489533"><ele>527.0</ele><time>2026-04-11T08:07:00.15Z</time></trkpt><trkpt lat="43.8937615" lon="11.2490405"><ele>526.4285714285714</ele><time>2026-04-11T08:07:02.149Z</time></trkpt><trkpt lat="43.8936885" lon="11.2490927"><ele>525.8571428571429</ele><time>2026-04-11T08:07:05.15Z</time></trkpt><trkpt lat="43.8936266" lon="11.2490649"><ele>525.2857142857142</ele><time>2026-04-11T08:07:07.15Z</time></trkpt><trkpt lat="43.8935716" lon="11.249012"><ele>524.7142857142858</ele><time>2026-04-11T08:07:09.149Z</time></trkpt><trkpt lat="43.8935009" lon="11.2490552"><ele>524.1428571428571</ele><time>2026-04-11T08:07:12.15Z</time></trkpt><trkpt lat="43.8935006" lon="11.2491426"><ele>523.5714285714286</ele><time>2026-04-11T08:07:14.15Z</time></trkpt><trkpt lat="43.8935361" lon="11.2492296"><ele>523.0</ele><time>2026-04-11T08:07:16.149Z</time></trkpt><trkpt lat="43.8935876" lon="11.24931"><ele>523.0</ele><time>2026-04-11T08:07:18.15Z</time></trkpt><trkpt lat="43.8936596" lon="11.2493788"><ele>523.0</ele><time>2026-04-11T08:07:20.15Z</time></trkpt><trkpt lat="43.8937301" lon="11.2493869"><ele>523.0</ele><time>2026-04-11T08:07:21.149Z</time></trkpt><trkpt lat="43.8938432" lon="11.2494619"><ele>523.0</ele><time>2026-04-11T08:07:23.149Z</time></trkpt><trkpt lat="43.8939103" lon="11.2495479"><ele>523.0</ele><time>2026-04-11T08:07:25.149Z</time></trkpt><trkpt lat="43.8939569" lon="11.2496413"><ele>523.0</ele><time>2026-04-11T08:07:27.149Z</time></trkpt><trkpt lat="43.8939987" lon="11.2497381"><ele>523.0</ele><time>2026-04-11T08:07:29.149Z</time></trkpt><trkpt lat="43.8940517" lon="11.2498321"><ele>523.0</ele><time>2026-04-11T08:07:31.15Z</time></trkpt><trkpt lat="43.8941038" lon="11.2499254"><ele>523.0</ele><time>2026-04-11T08:07:33.149Z</time></trkpt><trkpt lat="43.8941789" lon="11.249988"><ele>523.0</ele><time>2026-04-11T08:07:35.149Z</time></trkpt><trkpt lat="43.8942585" lon="11.2500135"><ele>523.0</ele><time>2026-04-11T08:07:37.149Z</time></trkpt><trkpt lat="43.8943363" lon="11.2499947"><ele>521.6</ele><time>2026-04-11T08:07:39.15Z</time></trkpt><trkpt lat="43.894415" lon="11.2499231"><ele>520.1999999999999</ele><time>2026-04-11T08:07:41.15Z</time></trkpt><trkpt lat="43.8944932" lon="11.2498248"><ele>518.8</ele><time>2026-04-11T08:07:43.15Z</time></trkpt><trkpt lat="43.8945714" lon="11.2497576"><ele>517.4</ele><time>2026-04-11T08:07:45.15Z</time></trkpt><trkpt lat="43.8946567" lon="11.2497485"><ele>516.0</ele><time>2026-04-11T08:07:47.149Z</time></trkpt><trkpt lat="43.8947283" lon="11.249782"><ele>513.9999999999999</ele><time>2026-04-11T08:07:49.149Z</time></trkpt><trkpt lat="43.8947844" lon="11.2498309"><ele>512.0</ele><time>2026-04-11T08:07:51.15Z</time></trkpt><trkpt lat="43.8948417" lon="11.249883"><ele>509.99999999999994</ele><time>2026-04-11T08:07:53.149Z</time></trkpt><trkpt lat="43.8949054" lon="11.2499288"><ele>507.99999999999994</ele><time>2026-04-11T08:07:55.149Z</time></trkpt><trkpt lat="43.8949687" lon="11.2499892"><ele>506.0</ele><time>2026-04-11T08:07:57.15Z</time></trkpt><trkpt lat="43.8950261" lon="11.2500751"><ele>503.99999999999994</ele><time>2026-04-11T08:07:59.15Z</time></trkpt><trkpt lat="43.8950597" lon="11.2501601"><ele>501.99999999999994</ele><time>2026-04-11T08:08:01.149Z</time></trkpt><trkpt lat="43.8950316" lon="11.2502871"><ele>502.00000000000006</ele><time>2026-04-11T08:08:03.15Z</time></trkpt><trkpt lat="43.8949694" lon="11.2504191"><ele>502.0</ele><time>2026-04-11T08:08:05.149Z</time></trkpt><trkpt lat="43.8948962" lon="11.2505638"><ele>502.0</ele><time>2026-04-11T08:08:07.15Z</time></trkpt><trkpt lat="43.8948542" lon="11.2506364"><ele>502.0</ele><time>2026-04-11T08:08:08.149Z</time></trkpt><trkpt lat="43.8948134" lon="11.2507091"><ele>502.00000000000006</ele><time>2026-04-11T08:08:09.149Z</time></trkpt><trkpt lat="43.8947744" lon="11.2507866"><ele>502.0</ele><time>2026-04-11T08:08:10.15Z</time></trkpt><trkpt lat="43.8947374" lon="11.2508626"><ele>500.99999999999994</ele><time>2026-04-11T08:08:11.15Z</time></trkpt><trkpt lat="43.8946987" lon="11.2509375"><ele>500.0</ele><time>2026-04-11T08:08:12.149Z</time></trkpt><trkpt lat="43.8946585" lon="11.2510159"><ele>498.99999999999994</ele><time>2026-04-11T08:08:13.149Z</time></trkpt><trkpt lat="43.8946191" lon="11.2510882"><ele>497.99999999999994</ele><time>2026-04-11T08:08:14.15Z</time></trkpt><trkpt lat="43.8945747" lon="11.2511658"><ele>497.0</ele><time>2026-04-11T08:08:15.149Z</time></trkpt><trkpt lat="43.8945369" lon="11.2512417"><ele>495.99999999999994</ele><time>2026-04-11T08:08:16.15Z</time></trkpt><trkpt lat="43.8945027" lon="11.251322"><ele>494.99999999999994</ele><time>2026-04-11T08:08:17.149Z</time></trkpt><trkpt lat="43.8944729" lon="11.2514086"><ele>493.4</ele><time>2026-04-11T08:08:18.15Z</time></trkpt><trkpt lat="43.8944428" lon="11.2514918"><ele>491.8</ele><time>2026-04-11T08:08:19.15Z</time></trkpt><trkpt lat="43.8943829" lon="11.2516398"><ele>490.20000000000005</ele><time>2026-04-11T08:08:21.15Z</time></trkpt><trkpt lat="43.8943313" lon="11.2517829"><ele>488.6</ele><time>2026-04-11T08:08:23.15Z</time></trkpt><trkpt lat="43.894289" lon="11.2519196"><ele>487.0</ele><time>2026-04-11T08:08:25.149Z</time></trkpt><trkpt lat="43.8942383" lon="11.2520511"><ele>484.83333333333337</ele><time>2026-04-11T08:08:27.15Z</time></trkpt><trkpt lat="43.8941761" lon="11.252157"><ele>482.6666666666667</ele><time>2026-04-11T08:08:29.15Z</time></trkpt><trkpt lat="43.8941049" lon="11.25223"><ele>480.5</ele><time>2026-04-11T08:08:31.15Z</time></trkpt><trkpt lat="43.8940458" lon="11.2522751"><ele>478.33333333333337</ele><time>2026-04-11T08:08:33.149Z</time></trkpt><trkpt lat="43.8939895" lon="11.2523575"><ele>476.1666666666667</ele><time>2026-04-11T08:08:35.149Z</time></trkpt><trkpt lat="43.8939334" lon="11.2524599"><ele>474.0</ele><time>2026-04-11T08:08:37.15Z</time></trkpt><trkpt lat="43.8938873" lon="11.2525872"><ele>472.0</ele><time>2026-04-11T08:08:39.15Z</time></trkpt><trkpt lat="43.8938544" lon="11.2527415"><ele>470.0</ele><time>2026-04-11T08:08:41.15Z</time></trkpt><trkpt lat="43.8938359" lon="11.2528907"><ele>468.0</ele><time>2026-04-11T08:08:43.149Z</time></trkpt><trkpt lat="43.8938179" lon="11.2530038"><ele>466.0</ele><time>2026-04-11T08:08:45.15Z</time></trkpt><trkpt lat="43.8937863" lon="11.2530813"><ele>464.0</ele><time>2026-04-11T08:08:47.15Z</time></trkpt><trkpt lat="43.8937211" lon="11.253165"><ele>462.16666666666663</ele><time>2026-04-11T08:08:50.149Z</time></trkpt><trkpt lat="43.8936535" lon="11.2532554"><ele>460.3333333333333</ele><time>2026-04-11T08:08:53.149Z</time></trkpt><trkpt lat="43.8936292" lon="11.2533542"><ele>458.5</ele><time>2026-04-11T08:08:55.15Z</time></trkpt><trkpt lat="43.8936143" lon="11.2534781"><ele>456.66666666666663</ele><time>2026-04-11T08:08:57.149Z</time></trkpt><trkpt lat="43.8935934" lon="11.2535835"><ele>454.8333333333333</ele><time>2026-04-11T08:08:59.15Z</time></trkpt><trkpt lat="43.8935515" lon="11.2536949"><ele>453.0</ele><time>2026-04-11T08:09:01.15Z</time></trkpt><trkpt lat="43.8934688" lon="11.2537876"><ele>451.5</ele><time>2026-04-11T08:09:03.15Z</time></trkpt><trkpt lat="43.8933951" lon="11.2538929"><ele>450.0</ele><time>2026-04-11T08:09:05.15Z</time></trkpt><trkpt lat="43.8933591" lon="11.2539754"><ele>448.5</ele><time>2026-04-11T08:09:07.149Z</time></trkpt><trkpt lat="43.8933577" lon="11.25408"><ele>447.0</ele><time>2026-04-11T08:09:09.149Z</time></trkpt><trkpt lat="43.8933342" lon="11.254216"><ele>445.5</ele><time>2026-04-11T08:09:11.149Z</time></trkpt><trkpt lat="43.8933057" lon="11.2542989"><ele>444.0</ele><time>2026-04-11T08:09:12.149Z</time></trkpt><trkpt lat="43.8932663" lon="11.2543802"><ele>443.6666666666667</ele><time>2026-04-11T08:09:13.15Z</time></trkpt><trkpt lat="43.893213" lon="11.2544746"><ele>443.33333333333337</ele><time>2026-04-11T08:09:14.149Z</time></trkpt><trkpt lat="43.8931435" lon="11.2545574"><ele>443.0</ele><time>2026-04-11T08:09:15.149Z</time></trkpt><trkpt lat="43.893082" lon="11.2546358"><ele>442.6666666666667</ele><time>2026-04-11T08:09:16.149Z</time></trkpt><trkpt lat="43.8930181" lon="11.2547057"><ele>442.33333333333337</ele><time>2026-04-11T08:09:17.15Z</time></trkpt><trkpt lat="43.8929668" lon="11.2547808"><ele>442.0</ele><time>2026-04-11T08:09:18.15Z</time></trkpt><trkpt lat="43.8929144" lon="11.2548537"><ele>440.6666666666667</ele><time>2026-04-11T08:09:19.15Z</time></trkpt><trkpt lat="43.8928642" lon="11.2549224"><ele>439.33333333333337</ele><time>2026-04-11T08:09:20.149Z</time></trkpt><trkpt lat="43.8928175" lon="11.2550869"><ele>438.0</ele><time>2026-04-11T08:09:22.15Z</time></trkpt><trkpt lat="43.8928081" lon="11.2551785"><ele>436.66666666666663</ele><time>2026-04-11T08:09:23.149Z</time></trkpt><trkpt lat="43.8928034" lon="11.2552696"><ele>435.3333333333333</ele><time>2026-04-11T08:09:24.15Z</time></trkpt><trkpt lat="43.8927937" lon="11.2553662"><ele>434.0</ele><time>2026-04-11T08:09:25.15Z</time></trkpt><trkpt lat="43.8927743" lon="11.2554625"><ele>433.99999999999994</ele><time>2026-04-11T08:09:26.15Z</time></trkpt><trkpt lat="43.8927471" lon="11.255555"><ele>434.0</ele><time>2026-04-11T08:09:27.149Z</time></trkpt><trkpt lat="43.8927121" lon="11.2556549"><ele>434.0</ele><time>2026-04-11T08:09:28.148Z</time></trkpt><trkpt lat="43.8926671" lon="11.2557539"><ele>434.0</ele><time>2026-04-11T08:09:29.15Z</time></trkpt><trkpt lat="43.89261" lon="11.2558414"><ele>433.99999999999994</ele><time>2026-04-11T08:09:30.149Z</time></trkpt><trkpt lat="43.8925459" lon="11.2559062"><ele>434.0</ele><time>2026-04-11T08:09:31.15Z</time></trkpt><trkpt lat="43.8924806" lon="11.2559468"><ele>431.6</ele><time>2026-04-11T08:09:32.15Z</time></trkpt><trkpt lat="43.8923753" lon="11.2560032"><ele>429.2</ele><time>2026-04-11T08:09:34.149Z</time></trkpt><trkpt lat="43.8923313" lon="11.2561089"><ele>426.8</ele><time>2026-04-11T08:09:36.149Z</time></trkpt><trkpt lat="43.8924101" lon="11.2562261"><ele>424.40000000000003</ele><time>2026-04-11T08:09:38.15Z</time></trkpt><trkpt lat="43.8924879" lon="11.2562643"><ele>422.0</ele><time>2026-04-11T08:09:39.15Z</time></trkpt><trkpt lat="43.8925765" lon="11.2562773"><ele>421.0</ele><time>2026-04-11T08:09:40.149Z</time></trkpt><trkpt lat="43.8926871" lon="11.2562837"><ele>420.0</ele><time>2026-04-11T08:09:41.149Z</time></trkpt><trkpt lat="43.8928167" lon="11.2562859"><ele>419.0</ele><time>2026-04-11T08:09:42.15Z</time></trkpt><trkpt lat="43.8929444" lon="11.2562861"><ele>418.0</ele><time>2026-04-11T08:09:43.149Z</time></trkpt><trkpt lat="43.8930586" lon="11.256282"><ele>418.0</ele><time>2026-04-11T08:09:44.15Z</time></trkpt><trkpt lat="43.8931599" lon="11.2562801"><ele>418.0</ele><time>2026-04-11T08:09:45.149Z</time></trkpt><trkpt lat="43.8932439" lon="11.2562879"><ele>418.0</ele><time>2026-04-11T08:09:46.149Z</time></trkpt><trkpt lat="43.8933406" lon="11.2563315"><ele>418.0</ele><time>2026-04-11T08:09:48.15Z</time></trkpt><trkpt lat="43.8933288" lon="11.2564549"><ele>418.0</ele><time>2026-04-11T08:09:50.15Z</time></trkpt><trkpt lat="43.893266" lon="11.2565437"><ele>413.0</ele><time>2026-04-11T08:09:51.15Z</time></trkpt><trkpt lat="43.8931746" lon="11.256651"><ele>408.0</ele><time>2026-04-11T08:09:52.15Z</time></trkpt><trkpt lat="43.8930895" lon="11.2567474"><ele>403.0</ele><time>2026-04-11T08:09:53.149Z</time></trkpt><trkpt lat="43.892994" lon="11.2568368"><ele>398.0</ele><time>2026-04-11T08:09:54.149Z</time></trkpt><trkpt lat="43.8928941" lon="11.2569182"><ele>398.0</ele><time>2026-04-11T08:09:55.15Z</time></trkpt><trkpt lat="43.8927923" lon="11.2569852"><ele>398.0</ele><time>2026-04-11T08:09:56.149Z</time></trkpt><trkpt lat="43.8926781" lon="11.2570327"><ele>398.0</ele><time>2026-04-11T08:09:57.149Z</time></trkpt><trkpt lat="43.8925588" lon="11.2570681"><ele>398.0</ele><time>2026-04-11T08:09:58.149Z</time></trkpt><trkpt lat="43.8924382" lon="11.2570982"><ele>398.0</ele><time>2026-04-11T08:09:59.15Z</time></trkpt><trkpt lat="43.8923056" lon="11.2571048"><ele>398.0</ele><time>2026-04-11T08:10:00.149Z</time></trkpt><trkpt lat="43.8921717" lon="11.2571109"><ele>398.0</ele><time>2026-04-11T08:10:01.15Z</time></trkpt><trkpt lat="43.8920373" lon="11.2570687"><ele>398.0</ele><time>2026-04-11T08:10:02.149Z</time></trkpt><trkpt lat="43.8919212" lon="11.2570451"><ele>398.0</ele><time>2026-04-11T08:10:03.15Z</time></trkpt><trkpt lat="43.8918155" lon="11.2570381"><ele>398.0</ele><time>2026-04-11T08:10:04.149Z</time></trkpt><trkpt lat="43.8917005" lon="11.2570396"><ele>398.0</ele><time>2026-04-11T08:10:05.149Z</time></trkpt><trkpt lat="43.8915542" lon="11.2570621"><ele>398.0</ele><time>2026-04-11T08:10:06.15Z</time></trkpt><trkpt lat="43.8914075" lon="11.2570912"><ele>394.75</ele><time>2026-04-11T08:10:07.149Z</time></trkpt><trkpt lat="43.891251" lon="11.2571491"><ele>391.5</ele><time>2026-04-11T08:10:08.149Z</time></trkpt><trkpt lat="43.8911088" lon="11.2571824"><ele>388.25</ele><time>2026-04-11T08:10:09.149Z</time></trkpt><trkpt lat="43.8909716" lon="11.2571758"><ele>385.0</ele><time>2026-04-11T08:10:10.15Z</time></trkpt><trkpt lat="43.8908364" lon="11.2571763"><ele>383.0</ele><time>2026-04-11T08:10:11.149Z</time></trkpt><trkpt lat="43.890713" lon="11.2571983"><ele>381.0</ele><time>2026-04-11T08:10:12.15Z</time></trkpt><trkpt lat="43.8905984" lon="11.2572303"><ele>379.0</ele><time>2026-04-11T08:10:13.15Z</time></trkpt><trkpt lat="43.8904851" lon="11.2572587"><ele>377.0</ele><time>2026-04-11T08:10:14.149Z</time></trkpt><trkpt lat="43.8903731" lon="11.2572876"><ele>377.0</ele><time>2026-04-11T08:10:15.15Z</time></trkpt><trkpt lat="43.8902493" lon="11.2573232"><ele>377.0</ele><time>2026-04-11T08:10:16.15Z</time></trkpt><trkpt lat="43.8901313" lon="11.2573757"><ele>377.0</ele><time>2026-04-11T08:10:17.15Z</time></trkpt><trkpt lat="43.8900204" lon="11.2574454"><ele>377.0</ele><time>2026-04-11T08:10:18.149Z</time></trkpt><trkpt lat="43.8899027" lon="11.2575381"><ele>375.75</ele><time>2026-04-11T08:10:19.149Z</time></trkpt><trkpt lat="43.8897958" lon="11.2576429"><ele>374.5</ele><time>2026-04-11T08:10:20.15Z</time></trkpt><trkpt lat="43.889707" lon="11.2577564"><ele>373.25</ele><time>2026-04-11T08:10:21.15Z</time></trkpt><trkpt lat="43.8896112" lon="11.2578788"><ele>372.0</ele><time>2026-04-11T08:10:22.15Z</time></trkpt><trkpt lat="43.8895051" lon="11.2579917"><ele>372.0</ele><time>2026-04-11T08:10:23.149Z</time></trkpt><trkpt lat="43.8893967" lon="11.2581037"><ele>372.0</ele><time>2026-04-11T08:10:24.149Z</time></trkpt><trkpt lat="43.8892992" lon="11.2582025"><ele>372.0</ele><time>2026-04-11T08:10:25.15Z</time></trkpt><trkpt lat="43.8892117" lon="11.2583038"><ele>372.0</ele><time>2026-04-11T08:10:26.15Z</time></trkpt><trkpt lat="43.889148" lon="11.258404"><ele>371.0</ele><time>2026-04-11T08:10:27.149Z</time></trkpt><trkpt lat="43.8891167" lon="11.2585216"><ele>370.0</ele><time>2026-04-11T08:10:28.149Z</time></trkpt><trkpt lat="43.8890713" lon="11.2586389"><ele>369.0</ele><time>2026-04-11T08:10:29.148Z</time></trkpt><trkpt lat="43.8890322" lon="11.2587688"><ele>368.0</ele><time>2026-04-11T08:10:30.149Z</time></trkpt><trkpt lat="43.8889665" lon="11.2589012"><ele>367.0</ele><time>2026-04-11T08:10:31.149Z</time></trkpt><trkpt lat="43.8888891" lon="11.2590308"><ele>369.5</ele><time>2026-04-11T08:10:32.15Z</time></trkpt><trkpt lat="43.8888017" lon="11.2591602"><ele>372.0</ele><time>2026-04-11T08:10:33.15Z</time></trkpt><trkpt lat="43.8887121" lon="11.2592942"><ele>374.5</ele><time>2026-04-11T08:10:34.15Z</time></trkpt><trkpt lat="43.8886316" lon="11.2594363"><ele>377.0</ele><time>2026-04-11T08:10:35.15Z</time></trkpt><trkpt lat="43.8885502" lon="11.2595643"><ele>377.0</ele><time>2026-04-11T08:10:36.15Z</time></trkpt><trkpt lat="43.8884729" lon="11.2596844"><ele>377.0</ele><time>2026-04-11T08:10:37.15Z</time></trkpt><trkpt lat="43.888406" lon="11.2597904"><ele>377.0</ele><time>2026-04-11T08:10:38.149Z</time></trkpt><trkpt lat="43.88834" lon="11.259874"><ele>377.0</ele><time>2026-04-11T08:10:39.15Z</time></trkpt><trkpt lat="43.8882828" lon="11.2599394"><ele>377.0</ele><time>2026-04-11T08:10:40.149Z</time></trkpt><trkpt lat="43.8882116" lon="11.2599982"><ele>375.0</ele><time>2026-04-11T08:10:41.149Z</time></trkpt><trkpt lat="43.8881569" lon="11.2600623"><ele>373.0</ele><time>2026-04-11T08:10:42.149Z</time></trkpt><trkpt lat="43.8881002" lon="11.2601325"><ele>371.0</ele><time>2026-04-11T08:10:43.149Z</time></trkpt><trkpt lat="43.8880445" lon="11.2602224"><ele>369.0</ele><time>2026-04-11T08:10:44.149Z</time></trkpt><trkpt lat="43.8880093" lon="11.2603349"><ele>367.0</ele><time>2026-04-11T08:10:45.149Z</time></trkpt><trkpt lat="43.8879708" lon="11.260463"><ele>365.0</ele><time>2026-04-11T08:10:46.149Z</time></trkpt><trkpt lat="43.8879367" lon="11.2605963"><ele>368.5</ele><time>2026-04-11T08:10:47.15Z</time></trkpt><trkpt lat="43.8878912" lon="11.2607329"><ele>372.0</ele><time>2026-04-11T08:10:48.149Z</time></trkpt><trkpt lat="43.88784" lon="11.260885"><ele>375.5</ele><time>2026-04-11T08:10:49.149Z</time></trkpt><trkpt lat="43.8878003" lon="11.2610335"><ele>379.0</ele><time>2026-04-11T08:10:50.149Z</time></trkpt><trkpt lat="43.8877444" lon="11.2611845"><ele>379.0</ele><time>2026-04-11T08:10:51.149Z</time></trkpt><trkpt lat="43.8876864" lon="11.261343"><ele>379.0</ele><time>2026-04-11T08:10:52.149Z</time></trkpt><trkpt lat="43.887637" lon="11.2615026"><ele>379.0</ele><time>2026-04-11T08:10:53.149Z</time></trkpt><trkpt lat="43.8875956" lon="11.2616396"><ele>379.0</ele><time>2026-04-11T08:10:54.149Z</time></trkpt><trkpt lat="43.8875706" lon="11.2617223"><ele>379.0</ele><time>2026-04-11T08:10:55.15Z</time></trkpt><trkpt lat="43.8875313" lon="11.2618452"><ele>374.66666666666663</ele><time>2026-04-11T08:10:57.149Z</time></trkpt><trkpt lat="43.8874573" lon="11.2618774"><ele>370.3333333333333</ele><time>2026-04-11T08:10:59.15Z</time></trkpt><trkpt lat="43.887386" lon="11.2618403"><ele>366.0</ele><time>2026-04-11T08:11:01.149Z</time></trkpt><trkpt lat="43.8873112" lon="11.2617914"><ele>361.6666666666667</ele><time>2026-04-11T08:11:03.15Z</time></trkpt><trkpt lat="43.8872513" lon="11.2617628"><ele>357.33333333333337</ele><time>2026-04-11T08:11:05.149Z</time></trkpt><trkpt lat="43.8872224" lon="11.2618697"><ele>353.0</ele><time>2026-04-11T08:11:10.149Z</time></trkpt><trkpt lat="43.8871958" lon="11.2619667"><ele>353.0</ele><time>2026-04-11T08:11:13.149Z</time></trkpt><trkpt lat="43.8871619" lon="11.2620602"><ele>353.0</ele><time>2026-04-11T08:11:17.15Z</time></trkpt><trkpt lat="43.8871579" lon="11.262162"><ele>353.0</ele><time>2026-04-11T08:11:47.15Z</time></trkpt><trkpt lat="43.8871612" lon="11.2620651"><ele>353.0</ele><time>2026-04-11T08:12:43.149Z</time></trkpt><trkpt lat="43.8871943" lon="11.2619725"><ele>353.0</ele><time>2026-04-11T08:12:59.148Z</time></trkpt><trkpt lat="43.8872319" lon="11.2619018"><ele>353.0</ele><time>2026-04-11T08:13:02.149Z</time></trkpt><trkpt lat="43.8872375" lon="11.2617948"><ele>353.0</ele><time>2026-04-11T08:13:05.149Z</time></trkpt><trkpt lat="43.8873035" lon="11.2618001"><ele>353.0</ele><time>2026-04-11T08:15:01.15Z</time></trkpt><trkpt lat="43.8873734" lon="11.2618304"><ele>353.0</ele><time>2026-04-11T08:15:02.149Z</time></trkpt><trkpt lat="43.8874397" lon="11.2618804"><ele>353.0</ele><time>2026-04-11T08:15:04.15Z</time></trkpt><trkpt lat="43.887468" lon="11.2619708"><ele>353.0</ele><time>2026-04-11T08:15:07.15Z</time></trkpt><trkpt lat="43.887463" lon="11.2621099"><ele>353.0</ele><time>2026-04-11T08:15:09.15Z</time></trkpt><trkpt lat="43.8874356" lon="11.2622661"><ele>353.0</ele><time>2026-04-11T08:15:11.149Z</time></trkpt><trkpt lat="43.8874167" lon="11.2623692"><ele>354.0</ele><time>2026-04-11T08:15:12.15Z</time></trkpt><trkpt lat="43.8873958" lon="11.2624917"><ele>355.0</ele><time>2026-04-11T08:15:13.149Z</time></trkpt><trkpt lat="43.8873786" lon="11.2626321"><ele>356.0</ele><time>2026-04-11T08:15:14.148Z</time></trkpt><trkpt lat="43.8873688" lon="11.2627692"><ele>357.0</ele><time>2026-04-11T08:15:15.15Z</time></trkpt><trkpt lat="43.8873593" lon="11.2629336"><ele>358.0</ele><time>2026-04-11T08:15:16.15Z</time></trkpt><trkpt lat="43.887335" lon="11.2631084"><ele>358.5</ele><time>2026-04-11T08:15:17.15Z</time></trkpt><trkpt lat="43.8873078" lon="11.2632892"><ele>359.0</ele><time>2026-04-11T08:15:18.149Z</time></trkpt><trkpt lat="43.8872801" lon="11.2634537"><ele>359.5</ele><time>2026-04-11T08:15:19.15Z</time></trkpt><trkpt lat="43.887252" lon="11.2636103"><ele>360.0</ele><time>2026-04-11T08:15:20.15Z</time></trkpt><trkpt lat="43.8872238" lon="11.2637597"><ele>360.0</ele><time>2026-04-11T08:15:21.15Z</time></trkpt><trkpt lat="43.8871936" lon="11.2639032"><ele>360.0</ele><time>2026-04-11T08:15:22.149Z</time></trkpt><trkpt lat="43.8871593" lon="11.2640505"><ele>360.0</ele><time>2026-04-11T08:15:23.149Z</time></trkpt><trkpt lat="43.8871351" lon="11.2641915"><ele>360.0</ele><time>2026-04-11T08:15:24.149Z</time></trkpt><trkpt lat="43.8871154" lon="11.2643365"><ele>360.0</ele><time>2026-04-11T08:15:25.15Z</time></trkpt><trkpt lat="43.8871005" lon="11.2644748"><ele>360.0</ele><time>2026-04-11T08:15:26.15Z</time></trkpt><trkpt lat="43.8870869" lon="11.2646134"><ele>360.0</ele><time>2026-04-11T08:15:27.148Z</time></trkpt><trkpt lat="43.8870701" lon="11.2647471"><ele>360.0</ele><time>2026-04-11T08:15:28.149Z</time></trkpt><trkpt lat="43.8870569" lon="11.2648734"><ele>360.0</ele><time>2026-04-11T08:15:29.149Z</time></trkpt><trkpt lat="43.8870458" lon="11.2650132"><ele>360.0</ele><time>2026-04-11T08:15:30.148Z</time></trkpt><trkpt lat="43.8870385" lon="11.2651397"><ele>358.0</ele><time>2026-04-11T08:15:31.149Z</time></trkpt><trkpt lat="43.8870461" lon="11.2652616"><ele>356.0</ele><time>2026-04-11T08:15:32.15Z</time></trkpt><trkpt lat="43.8870594" lon="11.2653943"><ele>354.0</ele><time>2026-04-11T08:15:33.149Z</time></trkpt><trkpt lat="43.8870888" lon="11.2655285"><ele>352.0</ele><time>2026-04-11T08:15:34.149Z</time></trkpt><trkpt lat="43.887125" lon="11.2656492"><ele>350.0</ele><time>2026-04-11T08:15:35.15Z</time></trkpt><trkpt lat="43.8871655" lon="11.2657568"><ele>348.6666666666667</ele><time>2026-04-11T08:15:36.15Z</time></trkpt><trkpt lat="43.8872023" lon="11.2658613"><ele>347.33333333333337</ele><time>2026-04-11T08:15:37.15Z</time></trkpt><trkpt lat="43.8872366" lon="11.2659619"><ele>346.0</ele><time>2026-04-11T08:15:38.15Z</time></trkpt><trkpt lat="43.8872714" lon="11.2660643"><ele>344.6666666666667</ele><time>2026-04-11T08:15:39.148Z</time></trkpt><trkpt lat="43.8873019" lon="11.2661661"><ele>343.3333333333333</ele><time>2026-04-11T08:15:40.149Z</time></trkpt><trkpt lat="43.887336" lon="11.266269"><ele>342.0</ele><time>2026-04-11T08:15:41.149Z</time></trkpt><trkpt lat="43.887372" lon="11.2663771"><ele>341.1666666666667</ele><time>2026-04-11T08:15:42.15Z</time></trkpt><trkpt lat="43.8874036" lon="11.2664833"><ele>340.3333333333333</ele><time>2026-04-11T08:15:43.15Z</time></trkpt><trkpt lat="43.8874268" lon="11.266586"><ele>339.5</ele><time>2026-04-11T08:15:44.149Z</time></trkpt><trkpt lat="43.8874462" lon="11.2666808"><ele>338.66666666666663</ele><time>2026-04-11T08:15:45.149Z</time></trkpt><trkpt lat="43.8874642" lon="11.2668151"><ele>337.8333333333333</ele><time>2026-04-11T08:15:47.149Z</time></trkpt><trkpt lat="43.8874468" lon="11.2669119"><ele>337.0</ele><time>2026-04-11T08:15:51.149Z</time></trkpt><trkpt lat="43.8873519" lon="11.2669236"><ele>337.0</ele><time>2026-04-11T08:17:00.149Z</time></trkpt><trkpt lat="43.8872529" lon="11.2668835"><ele>337.0</ele><time>2026-04-11T08:17:02.149Z</time></trkpt><trkpt lat="43.8871197" lon="11.2668246"><ele>337.0</ele><time>2026-04-11T08:17:04.148Z</time></trkpt><trkpt lat="43.8870367" lon="11.2667828"><ele>337.0</ele><time>2026-04-11T08:17:05.149Z</time></trkpt><trkpt lat="43.8869606" lon="11.2667256"><ele>337.0</ele><time>2026-04-11T08:17:06.149Z</time></trkpt><trkpt lat="43.8868928" lon="11.2666849"><ele>337.0</ele><time>2026-04-11T08:17:07.149Z</time></trkpt><trkpt lat="43.8868261" lon="11.2666507"><ele>337.0</ele><time>2026-04-11T08:17:08.149Z</time></trkpt><trkpt lat="43.8867586" lon="11.2666185"><ele>337.0</ele><time>2026-04-11T08:17:09.147Z</time></trkpt><trkpt lat="43.8866927" lon="11.2665829"><ele>337.0</ele><time>2026-04-11T08:17:10.148Z</time></trkpt><trkpt lat="43.8866296" lon="11.2665488"><ele>337.0</ele><time>2026-04-11T08:17:11.148Z</time></trkpt><trkpt lat="43.8865707" lon="11.2665174"><ele>337.0</ele><time>2026-04-11T08:17:12.148Z</time></trkpt><trkpt lat="43.8864554" lon="11.2664535"><ele>336.8333333333333</ele><time>2026-04-11T08:17:14.147Z</time></trkpt><trkpt lat="43.8863409" lon="11.2663822"><ele>336.66666666666663</ele><time>2026-04-11T08:17:16.147Z</time></trkpt><trkpt lat="43.8862834" lon="11.2663431"><ele>336.5</ele><time>2026-04-11T08:17:17.149Z</time></trkpt><trkpt lat="43.8862277" lon="11.2662978"><ele>336.3333333333333</ele><time>2026-04-11T08:17:18.149Z</time></trkpt><trkpt lat="43.886172" lon="11.2662494"><ele>336.1666666666667</ele><time>2026-04-11T08:17:19.149Z</time></trkpt><trkpt lat="43.8861174" lon="11.2661884"><ele>336.0</ele><time>2026-04-11T08:17:20.149Z</time></trkpt><trkpt lat="43.8860583" lon="11.2661256"><ele>336.0</ele><time>2026-04-11T08:17:21.148Z</time></trkpt><trkpt lat="43.8859964" lon="11.2660613"><ele>336.0</ele><time>2026-04-11T08:17:22.148Z</time></trkpt><trkpt lat="43.8859303" lon="11.2659915"><ele>336.0</ele><time>2026-04-11T08:17:23.149Z</time></trkpt><trkpt lat="43.8858613" lon="11.2659205"><ele>336.0</ele><time>2026-04-11T08:17:24.148Z</time></trkpt><trkpt lat="43.8857923" lon="11.2658492"><ele>336.0</ele><time>2026-04-11T08:17:25.149Z</time></trkpt><trkpt lat="43.8857271" lon="11.2657735"><ele>336.0</ele><time>2026-04-11T08:17:26.149Z</time></trkpt><trkpt lat="43.8856686" lon="11.2657021"><ele>337.1666666666667</ele><time>2026-04-11T08:17:27.149Z</time></trkpt><trkpt lat="43.8856201" lon="11.2656412"><ele>338.3333333333333</ele><time>2026-04-11T08:17:28.149Z</time></trkpt><trkpt lat="43.8855681" lon="11.26557"><ele>339.5</ele><time>2026-04-11T08:17:30.148Z</time></trkpt><trkpt lat="43.8855047" lon="11.265486"><ele>340.66666666666663</ele><time>2026-04-11T08:17:38.149Z</time></trkpt><trkpt lat="43.8854257" lon="11.265336"><ele>341.8333333333333</ele><time>2026-04-11T08:17:40.149Z</time></trkpt><trkpt lat="43.8853699" lon="11.2652509"><ele>343.0</ele><time>2026-04-11T08:17:41.149Z</time></trkpt><trkpt lat="43.8853133" lon="11.2651689"><ele>346.4</ele><time>2026-04-11T08:17:42.148Z</time></trkpt><trkpt lat="43.885227" lon="11.2651117"><ele>349.79999999999995</ele><time>2026-04-11T08:17:43.148Z</time></trkpt><trkpt lat="43.8851489" lon="11.2650668"><ele>353.2</ele><time>2026-04-11T08:17:44.148Z</time></trkpt><trkpt lat="43.8850622" lon="11.2650262"><ele>356.6</ele><time>2026-04-11T08:17:45.148Z</time></trkpt><trkpt lat="43.8849723" lon="11.2649911"><ele>360.0</ele><time>2026-04-11T08:17:46.149Z</time></trkpt><trkpt lat="43.8848741" lon="11.264968"><ele>360.0</ele><time>2026-04-11T08:17:47.149Z</time></trkpt><trkpt lat="43.8847653" lon="11.2649428"><ele>360.0</ele><time>2026-04-11T08:17:48.149Z</time></trkpt><trkpt lat="43.8846663" lon="11.2649142"><ele>360.0</ele><time>2026-04-11T08:17:49.149Z</time></trkpt><trkpt lat="43.8845657" lon="11.2648714"><ele>360.0</ele><time>2026-04-11T08:17:50.148Z</time></trkpt><trkpt lat="43.8844596" lon="11.2648171"><ele>360.0</ele><time>2026-04-11T08:17:51.148Z</time></trkpt><trkpt lat="43.8843518" lon="11.2647573"><ele>366.8</ele><time>2026-04-11T08:17:52.149Z</time></trkpt><trkpt lat="43.8842505" lon="11.2646988"><ele>373.6</ele><time>2026-04-11T08:17:53.149Z</time></trkpt><trkpt lat="43.8841589" lon="11.264646"><ele>380.4</ele><time>2026-04-11T08:17:54.149Z</time></trkpt><trkpt lat="43.8840696" lon="11.2646108"><ele>387.2</ele><time>2026-04-11T08:17:55.149Z</time></trkpt><trkpt lat="43.8839729" lon="11.2645767"><ele>394.0</ele><time>2026-04-11T08:17:56.149Z</time></trkpt><trkpt lat="43.8838735" lon="11.2645413"><ele>394.0</ele><time>2026-04-11T08:17:57.148Z</time></trkpt><trkpt lat="43.8837722" lon="11.264512"><ele>394.0</ele><time>2026-04-11T08:17:58.148Z</time></trkpt><trkpt lat="43.883666" lon="11.2644897"><ele>394.0</ele><time>2026-04-11T08:17:59.148Z</time></trkpt><trkpt lat="43.883568" lon="11.2644682"><ele>394.0</ele><time>2026-04-11T08:18:00.149Z</time></trkpt><trkpt lat="43.8834736" lon="11.264455"><ele>394.0</ele><time>2026-04-11T08:18:01.149Z</time></trkpt><trkpt lat="43.8833789" lon="11.2644308"><ele>389.2</ele><time>2026-04-11T08:18:02.149Z</time></trkpt><trkpt lat="43.8832886" lon="11.2643893"><ele>384.4</ele><time>2026-04-11T08:18:03.149Z</time></trkpt><trkpt lat="43.8832058" lon="11.264331"><ele>379.6</ele><time>2026-04-11T08:18:04.148Z</time></trkpt><trkpt lat="43.8831259" lon="11.2642614"><ele>374.8</ele><time>2026-04-11T08:18:05.149Z</time></trkpt><trkpt lat="43.8830455" lon="11.2641963"><ele>370.0</ele><time>2026-04-11T08:18:06.148Z</time></trkpt><trkpt lat="43.882966" lon="11.2641371"><ele>370.0</ele><time>2026-04-11T08:18:07.149Z</time></trkpt><trkpt lat="43.8828749" lon="11.2641196"><ele>370.0</ele><time>2026-04-11T08:18:08.149Z</time></trkpt><trkpt lat="43.882782" lon="11.2640846"><ele>370.0</ele><time>2026-04-11T08:18:09.149Z</time></trkpt><trkpt lat="43.8826792" lon="11.2640385"><ele>370.0</ele><time>2026-04-11T08:18:10.149Z</time></trkpt><trkpt lat="43.8825677" lon="11.2639838"><ele>370.0</ele><time>2026-04-11T08:18:11.149Z</time></trkpt><trkpt lat="43.8824601" lon="11.2639215"><ele>374.6</ele><time>2026-04-11T08:18:12.149Z</time></trkpt><trkpt lat="43.8823603" lon="11.2638542"><ele>379.2</ele><time>2026-04-11T08:18:13.149Z</time></trkpt><trkpt lat="43.8822631" lon="11.2637898"><ele>383.79999999999995</ele><time>2026-04-11T08:18:14.149Z</time></trkpt><trkpt lat="43.8821824" lon="11.2637197"><ele>388.4</ele><time>2026-04-11T08:18:15.148Z</time></trkpt><trkpt lat="43.8821074" lon="11.26364"><ele>393.0</ele><time>2026-04-11T08:18:16.147Z</time></trkpt><trkpt lat="43.8820403" lon="11.2635513"><ele>393.0</ele><time>2026-04-11T08:18:17.148Z</time></trkpt><trkpt lat="43.8819758" lon="11.2634568"><ele>393.0</ele><time>2026-04-11T08:18:18.149Z</time></trkpt><trkpt lat="43.8819131" lon="11.2633689"><ele>393.0</ele><time>2026-04-11T08:18:19.148Z</time></trkpt><trkpt lat="43.8818521" lon="11.2632948"><ele>393.0</ele><time>2026-04-11T08:18:20.148Z</time></trkpt><trkpt lat="43.8817912" lon="11.2632183"><ele>393.0</ele><time>2026-04-11T08:18:21.148Z</time></trkpt><trkpt lat="43.8817332" lon="11.2631551"><ele>393.0</ele><time>2026-04-11T08:18:22.148Z</time></trkpt><trkpt lat="43.8816684" lon="11.2630946"><ele>392.0</ele><time>2026-04-11T08:18:23.149Z</time></trkpt><trkpt lat="43.8815727" lon="11.2631019"><ele>391.0</ele><time>2026-04-11T08:18:24.147Z</time></trkpt><trkpt lat="43.8814784" lon="11.2630926"><ele>390.0</ele><time>2026-04-11T08:18:25.148Z</time></trkpt><trkpt lat="43.8813806" lon="11.2630831"><ele>389.0</ele><time>2026-04-11T08:18:26.148Z</time></trkpt><trkpt lat="43.8812835" lon="11.2630669"><ele>388.0</ele><time>2026-04-11T08:18:27.148Z</time></trkpt><trkpt lat="43.8811933" lon="11.2630565"><ele>388.00000000000006</ele><time>2026-04-11T08:18:28.148Z</time></trkpt><trkpt lat="43.8811072" lon="11.2630371"><ele>388.0</ele><time>2026-04-11T08:18:29.148Z</time></trkpt><trkpt lat="43.8810348" lon="11.2630107"><ele>388.0</ele><time>2026-04-11T08:18:30.149Z</time></trkpt><trkpt lat="43.8809352" lon="11.2629402"><ele>388.0</ele><time>2026-04-11T08:18:32.149Z</time></trkpt><trkpt lat="43.8808414" lon="11.2628897"><ele>388.00000000000006</ele><time>2026-04-11T08:18:34.148Z</time></trkpt><trkpt lat="43.8807794" lon="11.2628594"><ele>388.0</ele><time>2026-04-11T08:18:35.149Z</time></trkpt><trkpt lat="43.8807061" lon="11.2628391"><ele>387.00000000000006</ele><time>2026-04-11T08:18:36.149Z</time></trkpt><trkpt lat="43.8806256" lon="11.2628268"><ele>386.0</ele><time>2026-04-11T08:18:37.149Z</time></trkpt><trkpt lat="43.8805566" lon="11.262828"><ele>385.0</ele><time>2026-04-11T08:18:38.149Z</time></trkpt><trkpt lat="43.8804754" lon="11.2628391"><ele>384.0</ele><time>2026-04-11T08:18:39.149Z</time></trkpt><trkpt lat="43.8803979" lon="11.2628482"><ele>383.0</ele><time>2026-04-11T08:18:40.149Z</time></trkpt><trkpt lat="43.880325" lon="11.26285"><ele>382.0</ele><time>2026-04-11T08:18:41.149Z</time></trkpt><trkpt lat="43.8802527" lon="11.2628314"><ele>382.0</ele><time>2026-04-11T08:18:42.148Z</time></trkpt><trkpt lat="43.880183" lon="11.2627929"><ele>382.0</ele><time>2026-04-11T08:18:43.149Z</time></trkpt><trkpt lat="43.8801082" lon="11.2627335"><ele>382.0</ele><time>2026-04-11T08:18:44.149Z</time></trkpt><trkpt lat="43.8800263" lon="11.2626622"><ele>382.0</ele><time>2026-04-11T08:18:45.148Z</time></trkpt><trkpt lat="43.8799328" lon="11.262593"><ele>382.0</ele><time>2026-04-11T08:18:46.149Z</time></trkpt><trkpt lat="43.8798376" lon="11.2625341"><ele>381.20000000000005</ele><time>2026-04-11T08:18:47.149Z</time></trkpt><trkpt lat="43.8797442" lon="11.262483"><ele>380.4</ele><time>2026-04-11T08:18:48.149Z</time></trkpt><trkpt lat="43.8796419" lon="11.2624376"><ele>379.6</ele><time>2026-04-11T08:18:49.149Z</time></trkpt><trkpt lat="43.8795363" lon="11.2623945"><ele>378.79999999999995</ele><time>2026-04-11T08:18:50.149Z</time></trkpt><trkpt lat="43.8794338" lon="11.2623581"><ele>378.0</ele><time>2026-04-11T08:18:51.149Z</time></trkpt><trkpt lat="43.8793376" lon="11.2623356"><ele>376.2</ele><time>2026-04-11T08:18:52.149Z</time></trkpt><trkpt lat="43.8792385" lon="11.2623207"><ele>374.4</ele><time>2026-04-11T08:18:53.148Z</time></trkpt><trkpt lat="43.8791459" lon="11.2623152"><ele>372.59999999999997</ele><time>2026-04-11T08:18:54.149Z</time></trkpt><trkpt lat="43.8790536" lon="11.2623049"><ele>370.79999999999995</ele><time>2026-04-11T08:18:55.149Z</time></trkpt><trkpt lat="43.8789546" lon="11.2622817"><ele>369.0</ele><time>2026-04-11T08:18:56.148Z</time></trkpt><trkpt lat="43.8788541" lon="11.2622528"><ele>373.2</ele><time>2026-04-11T08:18:57.149Z</time></trkpt><trkpt lat="43.8787556" lon="11.262212"><ele>377.4</ele><time>2026-04-11T08:18:58.149Z</time></trkpt><trkpt lat="43.8786609" lon="11.2621566"><ele>381.6</ele><time>2026-04-11T08:18:59.149Z</time></trkpt><trkpt lat="43.8785622" lon="11.2620965"><ele>385.8</ele><time>2026-04-11T08:19:00.149Z</time></trkpt><trkpt lat="43.8784815" lon="11.2620387"><ele>390.0</ele><time>2026-04-11T08:19:01.149Z</time></trkpt><trkpt lat="43.8784096" lon="11.2620016"><ele>390.0</ele><time>2026-04-11T08:19:02.149Z</time></trkpt><trkpt lat="43.8783462" lon="11.261969"><ele>390.0</ele><time>2026-04-11T08:19:03.149Z</time></trkpt><trkpt lat="43.8782282" lon="11.2619222"><ele>390.0</ele><time>2026-04-11T08:19:05.149Z</time></trkpt><trkpt lat="43.8781111" lon="11.2618734"><ele>390.0</ele><time>2026-04-11T08:19:07.149Z</time></trkpt><trkpt lat="43.8779868" lon="11.2618327"><ele>390.0</ele><time>2026-04-11T08:19:09.149Z</time></trkpt><trkpt lat="43.8779165" lon="11.26181"><ele>390.0</ele><time>2026-04-11T08:19:10.149Z</time></trkpt><trkpt lat="43.8778378" lon="11.2617882"><ele>390.0</ele><time>2026-04-11T08:19:11.148Z</time></trkpt><trkpt lat="43.8777465" lon="11.2617779"><ele>390.0</ele><time>2026-04-11T08:19:12.149Z</time></trkpt><trkpt lat="43.8776482" lon="11.2617788"><ele>390.0</ele><time>2026-04-11T08:19:13.149Z</time></trkpt><trkpt lat="43.8775484" lon="11.261782"><ele>390.0</ele><time>2026-04-11T08:19:14.148Z</time></trkpt><trkpt lat="43.8774395" lon="11.2618154"><ele>388.75</ele><time>2026-04-11T08:19:15.148Z</time></trkpt><trkpt lat="43.8773312" lon="11.2618285"><ele>387.5</ele><time>2026-04-11T08:19:16.148Z</time></trkpt><trkpt lat="43.8772185" lon="11.2618294"><ele>386.25</ele><time>2026-04-11T08:19:17.148Z</time></trkpt><trkpt lat="43.8771031" lon="11.2618214"><ele>385.0</ele><time>2026-04-11T08:19:18.147Z</time></trkpt><trkpt lat="43.8769867" lon="11.2618075"><ele>385.0</ele><time>2026-04-11T08:19:19.148Z</time></trkpt><trkpt lat="43.8768716" lon="11.2617792"><ele>385.0</ele><time>2026-04-11T08:19:20.148Z</time></trkpt><trkpt lat="43.8767627" lon="11.261755"><ele>385.0</ele><time>2026-04-11T08:19:21.148Z</time></trkpt><trkpt lat="43.8766475" lon="11.2617482"><ele>385.0</ele><time>2026-04-11T08:19:22.148Z</time></trkpt><trkpt lat="43.8765412" lon="11.2617488"><ele>385.0</ele><time>2026-04-11T08:19:23.148Z</time></trkpt><trkpt lat="43.8764286" lon="11.2617594"><ele>385.8</ele><time>2026-04-11T08:19:24.148Z</time></trkpt><trkpt lat="43.8763244" lon="11.2617667"><ele>386.6</ele><time>2026-04-11T08:19:25.148Z</time></trkpt><trkpt lat="43.8762283" lon="11.261779"><ele>387.4</ele><time>2026-04-11T08:19:26.148Z</time></trkpt><trkpt lat="43.8761477" lon="11.2618134"><ele>388.2</ele><time>2026-04-11T08:19:27.148Z</time></trkpt><trkpt lat="43.8760728" lon="11.2618685"><ele>389.0</ele><time>2026-04-11T08:19:28.149Z</time></trkpt><trkpt lat="43.8759959" lon="11.2619392"><ele>391.0</ele><time>2026-04-11T08:19:29.149Z</time></trkpt><trkpt lat="43.875914" lon="11.2620047"><ele>393.0</ele><time>2026-04-11T08:19:30.148Z</time></trkpt><trkpt lat="43.8758237" lon="11.262049"><ele>395.0</ele><time>2026-04-11T08:19:31.148Z</time></trkpt><trkpt lat="43.8757308" lon="11.2620857"><ele>397.0</ele><time>2026-04-11T08:19:32.148Z</time></trkpt><trkpt lat="43.8756424" lon="11.2621091"><ele>399.0</ele><time>2026-04-11T08:19:33.148Z</time></trkpt><trkpt lat="43.8755584" lon="11.2621226"><ele>399.0</ele><time>2026-04-11T08:19:34.149Z</time></trkpt><trkpt lat="43.8754671" lon="11.2621311"><ele>399.0</ele><time>2026-04-11T08:19:35.149Z</time></trkpt><trkpt lat="43.8753671" lon="11.2621252"><ele>399.0</ele><time>2026-04-11T08:19:36.149Z</time></trkpt><trkpt lat="43.875269" lon="11.2621219"><ele>399.0</ele><time>2026-04-11T08:19:37.149Z</time></trkpt><trkpt lat="43.8751878" lon="11.2621278"><ele>399.0</ele><time>2026-04-11T08:19:38.149Z</time></trkpt><trkpt lat="43.875108" lon="11.2621376"><ele>399.42857142857144</ele><time>2026-04-11T08:19:39.149Z</time></trkpt><trkpt lat="43.8750381" lon="11.2621282"><ele>399.8571428571429</ele><time>2026-04-11T08:19:40.149Z</time></trkpt><trkpt lat="43.8749715" lon="11.2620964"><ele>400.2857142857143</ele><time>2026-04-11T08:19:41.149Z</time></trkpt><trkpt lat="43.8749116" lon="11.2620506"><ele>400.7142857142857</ele><time>2026-04-11T08:19:42.149Z</time></trkpt><trkpt lat="43.8748618" lon="11.2619896"><ele>401.14285714285717</ele><time>2026-04-11T08:19:43.149Z</time></trkpt><trkpt lat="43.8748236" lon="11.2619177"><ele>401.57142857142856</ele><time>2026-04-11T08:19:44.149Z</time></trkpt><trkpt lat="43.8747919" lon="11.2618372"><ele>402.0</ele><time>2026-04-11T08:19:45.149Z</time></trkpt><trkpt lat="43.8747638" lon="11.2617509"><ele>402.0</ele><time>2026-04-11T08:19:46.149Z</time></trkpt><trkpt lat="43.874737" lon="11.2616556"><ele>402.0</ele><time>2026-04-11T08:19:47.148Z</time></trkpt><trkpt lat="43.8747059" lon="11.2615696"><ele>402.0</ele><time>2026-04-11T08:19:48.148Z</time></trkpt><trkpt lat="43.8746745" lon="11.2614759"><ele>402.0</ele><time>2026-04-11T08:19:49.148Z</time></trkpt><trkpt lat="43.8746404" lon="11.2613835"><ele>402.0</ele><time>2026-04-11T08:19:50.149Z</time></trkpt><trkpt lat="43.8746072" lon="11.2612899"><ele>402.0</ele><time>2026-04-11T08:19:51.148Z</time></trkpt><trkpt lat="43.8745682" lon="11.2611902"><ele>402.0</ele><time>2026-04-11T08:19:52.148Z</time></trkpt><trkpt lat="43.8745189" lon="11.2611035"><ele>402.6666666666667</ele><time>2026-04-11T08:19:53.149Z</time></trkpt><trkpt lat="43.8744751" lon="11.2610212"><ele>403.33333333333337</ele><time>2026-04-11T08:19:54.149Z</time></trkpt><trkpt lat="43.8744309" lon="11.2609365"><ele>404.0</ele><time>2026-04-11T08:19:55.148Z</time></trkpt><trkpt lat="43.8743928" lon="11.260863"><ele>404.6666666666667</ele><time>2026-04-11T08:19:56.147Z</time></trkpt><trkpt lat="43.8743486" lon="11.260789"><ele>405.33333333333337</ele><time>2026-04-11T08:19:57.149Z</time></trkpt><trkpt lat="43.874297" lon="11.2607261"><ele>406.0</ele><time>2026-04-11T08:19:58.148Z</time></trkpt><trkpt lat="43.8741836" lon="11.2606882"><ele>406.0</ele><time>2026-04-11T08:20:00.148Z</time></trkpt><trkpt lat="43.8741202" lon="11.2607156"><ele>406.0</ele><time>2026-04-11T08:20:01.149Z</time></trkpt><trkpt lat="43.8740641" lon="11.2607634"><ele>406.0</ele><time>2026-04-11T08:20:02.149Z</time></trkpt><trkpt lat="43.8740149" lon="11.2608287"><ele>406.0</ele><time>2026-04-11T08:20:03.149Z</time></trkpt><trkpt lat="43.8739678" lon="11.2609033"><ele>406.0</ele><time>2026-04-11T08:20:04.148Z</time></trkpt><trkpt lat="43.8739131" lon="11.2609754"><ele>406.0</ele><time>2026-04-11T08:20:05.148Z</time></trkpt><trkpt lat="43.8738555" lon="11.2610298"><ele>406.0</ele><time>2026-04-11T08:20:06.148Z</time></trkpt><trkpt lat="43.8737441" lon="11.261006"><ele>406.0</ele><time>2026-04-11T08:20:08.149Z</time></trkpt><trkpt lat="43.8737116" lon="11.2608705"><ele>406.0</ele><time>2026-04-11T08:20:10.148Z</time></trkpt><trkpt lat="43.8737597" lon="11.26072"><ele>406.0</ele><time>2026-04-11T08:20:12.147Z</time></trkpt><trkpt lat="43.8737888" lon="11.2606397"><ele>406.0</ele><time>2026-04-11T08:20:13.148Z</time></trkpt><trkpt lat="43.8738051" lon="11.2605456"><ele>406.0</ele><time>2026-04-11T08:20:14.147Z</time></trkpt><trkpt lat="43.8737702" lon="11.2604126"><ele>406.00000000000006</ele><time>2026-04-11T08:20:16.149Z</time></trkpt><trkpt lat="43.8736759" lon="11.2604019"><ele>406.0</ele><time>2026-04-11T08:20:18.148Z</time></trkpt><trkpt lat="43.8736191" lon="11.2604406"><ele>406.0</ele><time>2026-04-11T08:20:19.147Z</time></trkpt><trkpt lat="43.8735245" lon="11.2605552"><ele>406.0</ele><time>2026-04-11T08:20:21.149Z</time></trkpt><trkpt lat="43.873489" lon="11.2606476"><ele>406.00000000000006</ele><time>2026-04-11T08:20:22.149Z</time></trkpt><trkpt lat="43.8734798" lon="11.2607495"><ele>406.0</ele><time>2026-04-11T08:20:23.148Z</time></trkpt><trkpt lat="43.8734807" lon="11.2608681"><ele>406.0</ele><time>2026-04-11T08:20:24.148Z</time></trkpt><trkpt lat="43.8734906" lon="11.2610039"><ele>406.0</ele><time>2026-04-11T08:20:25.148Z</time></trkpt><trkpt lat="43.873521" lon="11.2611399"><ele>406.0</ele><time>2026-04-11T08:20:26.149Z</time></trkpt><trkpt lat="43.8735518" lon="11.2612701"><ele>406.0</ele><time>2026-04-11T08:20:27.149Z</time></trkpt><trkpt lat="43.8735987" lon="11.2613796"><ele>406.0</ele><time>2026-04-11T08:20:28.149Z</time></trkpt><trkpt lat="43.8736591" lon="11.2614845"><ele>405.6666666666667</ele><time>2026-04-11T08:20:29.149Z</time></trkpt><trkpt lat="43.8736986" lon="11.2615638"><ele>405.33333333333337</ele><time>2026-04-11T08:20:30.148Z</time></trkpt><trkpt lat="43.873728" lon="11.2616496"><ele>405.0</ele><time>2026-04-11T08:20:31.148Z</time></trkpt><trkpt lat="43.8737529" lon="11.2617527"><ele>404.66666666666663</ele><time>2026-04-11T08:20:32.148Z</time></trkpt><trkpt lat="43.8737061" lon="11.2618873"><ele>404.3333333333333</ele><time>2026-04-11T08:20:34.148Z</time></trkpt><trkpt lat="43.8736182" lon="11.2618854"><ele>404.0</ele><time>2026-04-11T08:20:36.148Z</time></trkpt><trkpt lat="43.8735478" lon="11.2617983"><ele>403.99999999999994</ele><time>2026-04-11T08:20:38.149Z</time></trkpt><trkpt lat="43.8734847" lon="11.2616539"><ele>404.0</ele><time>2026-04-11T08:20:40.149Z</time></trkpt><trkpt lat="43.873442" lon="11.2615752"><ele>404.0</ele><time>2026-04-11T08:20:41.149Z</time></trkpt><trkpt lat="43.8733969" lon="11.2614863"><ele>404.0</ele><time>2026-04-11T08:20:42.148Z</time></trkpt><trkpt lat="43.8733427" lon="11.2613987"><ele>403.99999999999994</ele><time>2026-04-11T08:20:43.148Z</time></trkpt><trkpt lat="43.8732866" lon="11.2613067"><ele>404.0</ele><time>2026-04-11T08:20:44.149Z</time></trkpt><trkpt lat="43.8732284" lon="11.2612137"><ele>407.99999999999994</ele><time>2026-04-11T08:20:45.149Z</time></trkpt><trkpt lat="43.8731762" lon="11.2611215"><ele>412.0</ele><time>2026-04-11T08:20:46.149Z</time></trkpt><trkpt lat="43.8731257" lon="11.2610249"><ele>416.0</ele><time>2026-04-11T08:20:47.148Z</time></trkpt><trkpt lat="43.8730787" lon="11.2609357"><ele>420.0</ele><time>2026-04-11T08:20:48.148Z</time></trkpt><trkpt lat="43.8730318" lon="11.2608416"><ele>423.99999999999994</ele><time>2026-04-11T08:20:49.148Z</time></trkpt><trkpt lat="43.8729894" lon="11.260743"><ele>428.0</ele><time>2026-04-11T08:20:50.149Z</time></trkpt><trkpt lat="43.8729631" lon="11.2606365"><ele>428.16666666666663</ele><time>2026-04-11T08:20:51.149Z</time></trkpt><trkpt lat="43.8729491" lon="11.2605299"><ele>428.3333333333333</ele><time>2026-04-11T08:20:52.149Z</time></trkpt><trkpt lat="43.872939" lon="11.2604221"><ele>428.5</ele><time>2026-04-11T08:20:53.149Z</time></trkpt><trkpt lat="43.8729336" lon="11.260301"><ele>428.66666666666663</ele><time>2026-04-11T08:20:54.148Z</time></trkpt><trkpt lat="43.8729213" lon="11.2601838"><ele>428.8333333333333</ele><time>2026-04-11T08:20:55.149Z</time></trkpt><trkpt lat="43.8729008" lon="11.2600668"><ele>429.0</ele><time>2026-04-11T08:20:56.148Z</time></trkpt><trkpt lat="43.8728675" lon="11.25996"><ele>429.0</ele><time>2026-04-11T08:20:57.148Z</time></trkpt><trkpt lat="43.8728272" lon="11.2598578"><ele>429.0</ele><time>2026-04-11T08:20:58.149Z</time></trkpt><trkpt lat="43.8727883" lon="11.2597432"><ele>429.0</ele><time>2026-04-11T08:20:59.149Z</time></trkpt><trkpt lat="43.8727611" lon="11.259624"><ele>429.0</ele><time>2026-04-11T08:21:00.149Z</time></trkpt><trkpt lat="43.8727378" lon="11.2595037"><ele>429.0</ele><time>2026-04-11T08:21:01.148Z</time></trkpt><trkpt lat="43.8727221" lon="11.2593804"><ele>429.0</ele><time>2026-04-11T08:21:02.148Z</time></trkpt><trkpt lat="43.872708" lon="11.2592497"><ele>430.1666666666667</ele><time>2026-04-11T08:21:03.149Z</time></trkpt><trkpt lat="43.8726867" lon="11.2591323"><ele>431.33333333333337</ele><time>2026-04-11T08:21:04.148Z</time></trkpt><trkpt lat="43.8726608" lon="11.2590078"><ele>432.5</ele><time>2026-04-11T08:21:05.149Z</time></trkpt><trkpt lat="43.8726244" lon="11.2588897"><ele>433.6666666666667</ele><time>2026-04-11T08:21:06.148Z</time></trkpt><trkpt lat="43.8725801" lon="11.25878"><ele>434.83333333333337</ele><time>2026-04-11T08:21:07.149Z</time></trkpt><trkpt lat="43.8725386" lon="11.2586856"><ele>436.0</ele><time>2026-04-11T08:21:08.149Z</time></trkpt><trkpt lat="43.8724928" lon="11.2585878"><ele>439.33333333333337</ele><time>2026-04-11T08:21:09.148Z</time></trkpt><trkpt lat="43.8724493" lon="11.2584794"><ele>442.6666666666667</ele><time>2026-04-11T08:21:10.149Z</time></trkpt><trkpt lat="43.872407" lon="11.2583701"><ele>446.0</ele><time>2026-04-11T08:21:11.148Z</time></trkpt><trkpt lat="43.872362" lon="11.2582626"><ele>449.33333333333337</ele><time>2026-04-11T08:21:12.148Z</time></trkpt><trkpt lat="43.8723247" lon="11.2581712"><ele>452.6666666666667</ele><time>2026-04-11T08:21:13.149Z</time></trkpt><trkpt lat="43.8722706" lon="11.2580872"><ele>456.0</ele><time>2026-04-11T08:21:14.149Z</time></trkpt><trkpt lat="43.8722042" lon="11.2580022"><ele>456.5</ele><time>2026-04-11T08:21:15.149Z</time></trkpt><trkpt lat="43.8721316" lon="11.2579314"><ele>457.0</ele><time>2026-04-11T08:21:16.148Z</time></trkpt><trkpt lat="43.8720613" lon="11.257885"><ele>457.5</ele><time>2026-04-11T08:21:17.148Z</time></trkpt><trkpt lat="43.8719944" lon="11.2578619"><ele>458.0</ele><time>2026-04-11T08:21:18.148Z</time></trkpt><trkpt lat="43.8718763" lon="11.2579333"><ele>458.5</ele><time>2026-04-11T08:21:20.148Z</time></trkpt><trkpt lat="43.8718301" lon="11.2580081"><ele>459.0</ele><time>2026-04-11T08:21:21.149Z</time></trkpt><trkpt lat="43.8717815" lon="11.2581022"><ele>461.0</ele><time>2026-04-11T08:21:22.148Z</time></trkpt><trkpt lat="43.8717369" lon="11.2581964"><ele>463.0</ele><time>2026-04-11T08:21:23.148Z</time></trkpt><trkpt lat="43.8716928" lon="11.2583135"><ele>465.0</ele><time>2026-04-11T08:21:24.149Z</time></trkpt><trkpt lat="43.871662" lon="11.258418"><ele>467.0</ele><time>2026-04-11T08:21:25.149Z</time></trkpt><trkpt lat="43.8716461" lon="11.2585285"><ele>469.0</ele><time>2026-04-11T08:21:26.149Z</time></trkpt><trkpt lat="43.8716381" lon="11.2586179"><ele>471.0</ele><time>2026-04-11T08:21:27.149Z</time></trkpt><trkpt lat="43.8715962" lon="11.2587194"><ele>471.0</ele><time>2026-04-11T08:21:29.149Z</time></trkpt><trkpt lat="43.8715166" lon="11.2586551"><ele>471.0</ele><time>2026-04-11T08:21:32.148Z</time></trkpt><trkpt lat="43.8714885" lon="11.2584965"><ele>471.0</ele><time>2026-04-11T08:21:34.149Z</time></trkpt><trkpt lat="43.8714775" lon="11.2584031"><ele>471.0</ele><time>2026-04-11T08:21:35.149Z</time></trkpt><trkpt lat="43.871471" lon="11.2583122"><ele>471.0</ele><time>2026-04-11T08:21:36.149Z</time></trkpt><trkpt lat="43.87147" lon="11.2582132"><ele>471.0</ele><time>2026-04-11T08:21:37.148Z</time></trkpt><trkpt lat="43.8714794" lon="11.2581115"><ele>473.0</ele><time>2026-04-11T08:21:38.149Z</time></trkpt><trkpt lat="43.8714856" lon="11.2580019"><ele>475.0</ele><time>2026-04-11T08:21:39.149Z</time></trkpt><trkpt lat="43.8714956" lon="11.2578944"><ele>477.0</ele><time>2026-04-11T08:21:40.149Z</time></trkpt><trkpt lat="43.8714955" lon="11.2577811"><ele>479.0</ele><time>2026-04-11T08:21:41.149Z</time></trkpt><trkpt lat="43.871515" lon="11.2576141"><ele>481.0</ele><time>2026-04-11T08:21:43.149Z</time></trkpt><trkpt lat="43.8715574" lon="11.2574616"><ele>481.0</ele><time>2026-04-11T08:21:45.148Z</time></trkpt><trkpt lat="43.871585" lon="11.2573225"><ele>481.0</ele><time>2026-04-11T08:21:47.149Z</time></trkpt><trkpt lat="43.8715829" lon="11.2572107"><ele>481.0</ele><time>2026-04-11T08:21:49.149Z</time></trkpt><trkpt lat="43.8715588" lon="11.2570828"><ele>481.0</ele><time>2026-04-11T08:21:51.149Z</time></trkpt><trkpt lat="43.8715201" lon="11.256941"><ele>481.0</ele><time>2026-04-11T08:21:53.148Z</time></trkpt><trkpt lat="43.8714825" lon="11.2567768"><ele>483.1666666666667</ele><time>2026-04-11T08:21:55.149Z</time></trkpt><trkpt lat="43.8714629" lon="11.2566884"><ele>485.33333333333337</ele><time>2026-04-11T08:21:56.149Z</time></trkpt><trkpt lat="43.8714444" lon="11.2566015"><ele>487.5</ele><time>2026-04-11T08:21:57.149Z</time></trkpt><trkpt lat="43.8714246" lon="11.2564536"><ele>489.66666666666663</ele><time>2026-04-11T08:21:59.149Z</time></trkpt><trkpt lat="43.8713882" lon="11.256369"><ele>491.8333333333333</ele><time>2026-04-11T08:22:01.148Z</time></trkpt><trkpt lat="43.8713319" lon="11.256327"><ele>494.0</ele><time>2026-04-11T08:22:03.148Z</time></trkpt><trkpt lat="43.8712481" lon="11.2563142"><ele>496.2</ele><time>2026-04-11T08:22:05.149Z</time></trkpt><trkpt lat="43.8711539" lon="11.2562997"><ele>498.4</ele><time>2026-04-11T08:22:07.148Z</time></trkpt><trkpt lat="43.8710588" lon="11.2562978"><ele>500.6</ele><time>2026-04-11T08:22:09.148Z</time></trkpt><trkpt lat="43.8709514" lon="11.2562941"><ele>502.8</ele><time>2026-04-11T08:22:11.149Z</time></trkpt><trkpt lat="43.8708408" lon="11.2563115"><ele>505.0</ele><time>2026-04-11T08:22:13.149Z</time></trkpt><trkpt lat="43.8707397" lon="11.2563449"><ele>503.5</ele><time>2026-04-11T08:22:15.148Z</time></trkpt><trkpt lat="43.8706225" lon="11.2563764"><ele>502.0</ele><time>2026-04-11T08:22:17.149Z</time></trkpt><trkpt lat="43.8705122" lon="11.256398"><ele>500.5</ele><time>2026-04-11T08:22:19.148Z</time></trkpt><trkpt lat="43.8704167" lon="11.2564613"><ele>499.0</ele><time>2026-04-11T08:22:21.149Z</time></trkpt><trkpt lat="43.8703422" lon="11.256589"><ele>499.0</ele><time>2026-04-11T08:22:23.148Z</time></trkpt><trkpt lat="43.8702955" lon="11.2567205"><ele>499.0</ele><time>2026-04-11T08:22:25.149Z</time></trkpt><trkpt lat="43.8702498" lon="11.2568576"><ele>499.0</ele><time>2026-04-11T08:22:27.148Z</time></trkpt><trkpt lat="43.8701813" lon="11.25698"><ele>499.0</ele><time>2026-04-11T08:22:29.149Z</time></trkpt><trkpt lat="43.8700952" lon="11.257055"><ele>499.0</ele><time>2026-04-11T08:22:31.148Z</time></trkpt><trkpt lat="43.8699964" lon="11.2570897"><ele>499.0</ele><time>2026-04-11T08:22:33.149Z</time></trkpt><trkpt lat="43.869893" lon="11.257085"><ele>499.0</ele><time>2026-04-11T08:22:35.149Z</time></trkpt><trkpt lat="43.8697863" lon="11.2570552"><ele>499.0</ele><time>2026-04-11T08:22:37.148Z</time></trkpt><trkpt lat="43.8696777" lon="11.2570523"><ele>499.0</ele><time>2026-04-11T08:22:39.147Z</time></trkpt><trkpt lat="43.8695684" lon="11.2570806"><ele>499.0</ele><time>2026-04-11T08:22:41.149Z</time></trkpt><trkpt lat="43.8694639" lon="11.2571287"><ele>499.0</ele><time>2026-04-11T08:22:43.149Z</time></trkpt><trkpt lat="43.8693697" lon="11.2571647"><ele>499.0</ele><time>2026-04-11T08:22:45.148Z</time></trkpt><trkpt lat="43.8692746" lon="11.2571656"><ele>499.0</ele><time>2026-04-11T08:22:47.149Z</time></trkpt><trkpt lat="43.8691782" lon="11.2571465"><ele>499.0</ele><time>2026-04-11T08:22:49.149Z</time></trkpt><trkpt lat="43.8690962" lon="11.25713"><ele>499.0</ele><time>2026-04-11T08:22:51.149Z</time></trkpt><trkpt lat="43.8690121" lon="11.2571109"><ele>497.50000000000006</ele><time>2026-04-11T08:22:53.149Z</time></trkpt><trkpt lat="43.8689494" lon="11.2571464"><ele>496.0</ele><time>2026-04-11T08:22:55.149Z</time></trkpt><trkpt lat="43.8689215" lon="11.2572483"><ele>494.5</ele><time>2026-04-11T08:22:58.149Z</time></trkpt><trkpt lat="43.8688869" lon="11.2573231"><ele>493.0</ele><time>2026-04-11T08:23:00.149Z</time></trkpt><trkpt lat="43.8688021" lon="11.2572446"><ele>491.50000000000006</ele><time>2026-04-11T08:23:03.149Z</time></trkpt><trkpt lat="43.8687336" lon="11.2571333"><ele>490.0</ele><time>2026-04-11T08:23:05.148Z</time></trkpt><trkpt lat="43.8686393" lon="11.2570313"><ele>490.00000000000006</ele><time>2026-04-11T08:23:07.148Z</time></trkpt><trkpt lat="43.8685837" lon="11.2569775"><ele>490.0</ele><time>2026-04-11T08:23:08.149Z</time></trkpt><trkpt lat="43.8685306" lon="11.2569229"><ele>490.0</ele><time>2026-04-11T08:23:09.148Z</time></trkpt><trkpt lat="43.8684785" lon="11.2568735"><ele>490.0</ele><time>2026-04-11T08:23:10.149Z</time></trkpt><trkpt lat="43.8683864" lon="11.2568003"><ele>490.00000000000006</ele><time>2026-04-11T08:23:12.147Z</time></trkpt><trkpt lat="43.8683121" lon="11.2567857"><ele>490.0</ele><time>2026-04-11T08:23:14.148Z</time></trkpt><trkpt lat="43.868247" lon="11.2568434"><ele>487.50000000000006</ele><time>2026-04-11T08:23:16.149Z</time></trkpt><trkpt lat="43.8682084" lon="11.256964"><ele>485.0</ele><time>2026-04-11T08:23:18.148Z</time></trkpt><trkpt lat="43.8681627" lon="11.2570983"><ele>482.5</ele><time>2026-04-11T08:23:20.148Z</time></trkpt><trkpt lat="43.8681299" lon="11.2571785"><ele>480.0</ele><time>2026-04-11T08:23:21.149Z</time></trkpt><trkpt lat="43.8680961" lon="11.257258"><ele>477.50000000000006</ele><time>2026-04-11T08:23:22.149Z</time></trkpt><trkpt lat="43.8680555" lon="11.2573397"><ele>475.0</ele><time>2026-04-11T08:23:23.148Z</time></trkpt><trkpt lat="43.8680055" lon="11.2574228"><ele>472.5714285714286</ele><time>2026-04-11T08:23:24.149Z</time></trkpt><trkpt lat="43.8679503" lon="11.2574996"><ele>470.1428571428572</ele><time>2026-04-11T08:23:25.149Z</time></trkpt><trkpt lat="43.867895" lon="11.2575821"><ele>467.7142857142857</ele><time>2026-04-11T08:23:26.148Z</time></trkpt><trkpt lat="43.8678422" lon="11.257659"><ele>465.28571428571433</ele><time>2026-04-11T08:23:27.149Z</time></trkpt><trkpt lat="43.8677926" lon="11.2577229"><ele>462.8571428571429</ele><time>2026-04-11T08:23:28.149Z</time></trkpt><trkpt lat="43.8677325" lon="11.2577648"><ele>460.42857142857144</ele><time>2026-04-11T08:23:29.148Z</time></trkpt><trkpt lat="43.867656" lon="11.2577893"><ele>458.0</ele><time>2026-04-11T08:23:30.148Z</time></trkpt><trkpt lat="43.8675755" lon="11.2577892"><ele>457.1428571428571</ele><time>2026-04-11T08:23:31.149Z</time></trkpt><trkpt lat="43.8674946" lon="11.2577797"><ele>456.28571428571433</ele><time>2026-04-11T08:23:32.149Z</time></trkpt><trkpt lat="43.8674192" lon="11.2577763"><ele>455.42857142857144</ele><time>2026-04-11T08:23:33.149Z</time></trkpt><trkpt lat="43.8673476" lon="11.2577655"><ele>454.57142857142856</ele><time>2026-04-11T08:23:34.148Z</time></trkpt><trkpt lat="43.8672828" lon="11.2577524"><ele>453.71428571428567</ele><time>2026-04-11T08:23:35.149Z</time></trkpt><trkpt lat="43.8672151" lon="11.2577275"><ele>452.8571428571429</ele><time>2026-04-11T08:23:36.149Z</time></trkpt><trkpt lat="43.8671423" lon="11.2576991"><ele>452.0</ele><time>2026-04-11T08:23:37.149Z</time></trkpt><trkpt lat="43.8670664" lon="11.2576615"><ele>451.99999999999994</ele><time>2026-04-11T08:23:38.149Z</time></trkpt><trkpt lat="43.8669954" lon="11.2576167"><ele>452.0</ele><time>2026-04-11T08:23:39.149Z</time></trkpt><trkpt lat="43.8669293" lon="11.2575632"><ele>452.0</ele><time>2026-04-11T08:23:40.149Z</time></trkpt><trkpt lat="43.8668664" lon="11.2575056"><ele>452.0</ele><time>2026-04-11T08:23:41.149Z</time></trkpt><trkpt lat="43.8668032" lon="11.2574474"><ele>451.99999999999994</ele><time>2026-04-11T08:23:42.148Z</time></trkpt><trkpt lat="43.866732" lon="11.2573898"><ele>452.0</ele><time>2026-04-11T08:23:43.149Z</time></trkpt><trkpt lat="43.866661" lon="11.2573446"><ele>449.49999999999994</ele><time>2026-04-11T08:23:44.149Z</time></trkpt><trkpt lat="43.8665763" lon="11.2573325"><ele>447.0</ele><time>2026-04-11T08:23:45.149Z</time></trkpt><trkpt lat="43.8664837" lon="11.2573399"><ele>444.5</ele><time>2026-04-11T08:23:46.149Z</time></trkpt><trkpt lat="43.8663883" lon="11.257356"><ele>442.0</ele><time>2026-04-11T08:23:47.149Z</time></trkpt><trkpt lat="43.8662992" lon="11.2573748"><ele>439.49999999999994</ele><time>2026-04-11T08:23:48.148Z</time></trkpt><trkpt lat="43.8662153" lon="11.2573814"><ele>437.0</ele><time>2026-04-11T08:23:49.149Z</time></trkpt><trkpt lat="43.8661347" lon="11.2573778"><ele>437.0</ele><time>2026-04-11T08:23:50.149Z</time></trkpt><trkpt lat="43.866047" lon="11.2573572"><ele>437.00000000000006</ele><time>2026-04-11T08:23:51.147Z</time></trkpt><trkpt lat="43.8659555" lon="11.2573355"><ele>437.00000000000006</ele><time>2026-04-11T08:23:52.147Z</time></trkpt><trkpt lat="43.8658632" lon="11.2573078"><ele>437.0</ele><time>2026-04-11T08:23:53.148Z</time></trkpt><trkpt lat="43.8657656" lon="11.2572676"><ele>437.0</ele><time>2026-04-11T08:23:54.149Z</time></trkpt><trkpt lat="43.8656699" lon="11.2572158"><ele>440.6</ele><time>2026-04-11T08:23:55.149Z</time></trkpt><trkpt lat="43.8655669" lon="11.2571392"><ele>444.20000000000005</ele><time>2026-04-11T08:23:56.148Z</time></trkpt><trkpt lat="43.8654764" lon="11.2570669"><ele>447.8</ele><time>2026-04-11T08:23:57.148Z</time></trkpt><trkpt lat="43.8654006" lon="11.2570194"><ele>451.4</ele><time>2026-04-11T08:23:58.149Z</time></trkpt><trkpt lat="43.8653211" lon="11.2569949"><ele>455.0</ele><time>2026-04-11T08:23:59.149Z</time></trkpt><trkpt lat="43.865231" lon="11.2569832"><ele>454.99999999999994</ele><time>2026-04-11T08:24:00.148Z</time></trkpt><trkpt lat="43.8651313" lon="11.2569881"><ele>455.0</ele><time>2026-04-11T08:24:01.149Z</time></trkpt><trkpt lat="43.8650352" lon="11.2569956"><ele>455.0</ele><time>2026-04-11T08:24:02.149Z</time></trkpt><trkpt lat="43.8649477" lon="11.2569993"><ele>455.0</ele><time>2026-04-11T08:24:03.149Z</time></trkpt><trkpt lat="43.8648671" lon="11.2570043"><ele>454.99999999999994</ele><time>2026-04-11T08:24:04.148Z</time></trkpt><trkpt lat="43.8647937" lon="11.2570073"><ele>455.0</ele><time>2026-04-11T08:24:05.149Z</time></trkpt><trkpt lat="43.8647284" lon="11.2570072"><ele>452.8</ele><time>2026-04-11T08:24:06.148Z</time></trkpt><trkpt lat="43.8646163" lon="11.2570193"><ele>450.6</ele><time>2026-04-11T08:24:08.149Z</time></trkpt><trkpt lat="43.8645195" lon="11.2570759"><ele>448.4</ele><time>2026-04-11T08:24:10.149Z</time></trkpt><trkpt lat="43.8644512" lon="11.2571675"><ele>446.2</ele><time>2026-04-11T08:24:12.149Z</time></trkpt><trkpt lat="43.8643854" lon="11.2572444"><ele>444.0</ele><time>2026-04-11T08:24:14.149Z</time></trkpt><trkpt lat="43.8643088" lon="11.2573146"><ele>441.4</ele><time>2026-04-11T08:24:16.149Z</time></trkpt><trkpt lat="43.8642336" lon="11.2573572"><ele>438.79999999999995</ele><time>2026-04-11T08:24:18.148Z</time></trkpt><trkpt lat="43.8641421" lon="11.2573629"><ele>436.20000000000005</ele><time>2026-04-11T08:24:20.148Z</time></trkpt><trkpt lat="43.8640492" lon="11.2573837"><ele>433.6</ele><time>2026-04-11T08:24:22.149Z</time></trkpt><trkpt lat="43.863942" lon="11.2574045"><ele>431.0</ele><time>2026-04-11T08:24:24.148Z</time></trkpt><trkpt lat="43.8638624" lon="11.2574759"><ele>431.0</ele><time>2026-04-11T08:24:26.148Z</time></trkpt><trkpt lat="43.8638418" lon="11.2575834"><ele>431.0</ele><time>2026-04-11T08:24:28.148Z</time></trkpt><trkpt lat="43.8638709" lon="11.2576742"><ele>431.0</ele><time>2026-04-11T08:24:30.149Z</time></trkpt><trkpt lat="43.86393" lon="11.2577809"><ele>431.0</ele><time>2026-04-11T08:24:32.149Z</time></trkpt><trkpt lat="43.8639835" lon="11.257894"><ele>431.0</ele><time>2026-04-11T08:24:34.148Z</time></trkpt><trkpt lat="43.8640317" lon="11.2580396"><ele>433.66666666666663</ele><time>2026-04-11T08:24:36.149Z</time></trkpt><trkpt lat="43.8640425" lon="11.2581296"><ele>436.3333333333333</ele><time>2026-04-11T08:24:37.148Z</time></trkpt><trkpt lat="43.8640638" lon="11.2582179"><ele>439.0</ele><time>2026-04-11T08:24:38.149Z</time></trkpt><trkpt lat="43.8640866" lon="11.2583018"><ele>441.66666666666663</ele><time>2026-04-11T08:24:39.148Z</time></trkpt><trkpt lat="43.8641356" lon="11.2584369"><ele>444.3333333333333</ele><time>2026-04-11T08:24:41.149Z</time></trkpt><trkpt lat="43.8642161" lon="11.2585122"><ele>447.0</ele><time>2026-04-11T08:24:43.149Z</time></trkpt><trkpt lat="43.8642795" lon="11.258629"><ele>447.0</ele><time>2026-04-11T08:24:45.148Z</time></trkpt><trkpt lat="43.8643063" lon="11.2587573"><ele>447.00000000000006</ele><time>2026-04-11T08:24:47.149Z</time></trkpt><trkpt lat="43.8642488" lon="11.2588443"><ele>447.00000000000006</ele><time>2026-04-11T08:24:50.149Z</time></trkpt><trkpt lat="43.864171" lon="11.2588265"><ele>447.0</ele><time>2026-04-11T08:24:52.148Z</time></trkpt><trkpt lat="43.8640825" lon="11.2587989"><ele>447.0</ele><time>2026-04-11T08:24:54.148Z</time></trkpt><trkpt lat="43.8639833" lon="11.2587597"><ele>447.0</ele><time>2026-04-11T08:24:56.149Z</time></trkpt><trkpt lat="43.8638677" lon="11.2587211"><ele>447.0</ele><time>2026-04-11T08:24:58.148Z</time></trkpt><trkpt lat="43.8637665" lon="11.2587558"><ele>447.0</ele><time>2026-04-11T08:25:00.149Z</time></trkpt><trkpt lat="43.8636633" lon="11.2588085"><ele>447.0</ele><time>2026-04-11T08:25:02.148Z</time></trkpt><trkpt lat="43.8635445" lon="11.2587396"><ele>447.0</ele><time>2026-04-11T08:25:04.148Z</time></trkpt><trkpt lat="43.8634847" lon="11.2587077"><ele>447.0</ele><time>2026-04-11T08:25:05.149Z</time></trkpt><trkpt lat="43.8633608" lon="11.2587292"><ele>447.0</ele><time>2026-04-11T08:25:07.148Z</time></trkpt><trkpt lat="43.8632951" lon="11.2587769"><ele>447.0</ele><time>2026-04-11T08:25:08.148Z</time></trkpt><trkpt lat="43.8632263" lon="11.2588252"><ele>447.0</ele><time>2026-04-11T08:25:09.148Z</time></trkpt><trkpt lat="43.8631637" lon="11.2588506"><ele>447.0</ele><time>2026-04-11T08:25:10.149Z</time></trkpt><trkpt lat="43.8630614" lon="11.2588883"><ele>455.0</ele><time>2026-04-11T08:25:12.149Z</time></trkpt><trkpt lat="43.8630022" lon="11.2589931"><ele>463.0</ele><time>2026-04-11T08:25:14.149Z</time></trkpt><trkpt lat="43.8630802" lon="11.2590822"><ele>471.0</ele><time>2026-04-11T08:25:16.148Z</time></trkpt><trkpt lat="43.8631428" lon="11.2591066"><ele>479.0</ele><time>2026-04-11T08:25:17.149Z</time></trkpt><trkpt lat="43.8632157" lon="11.2591145"><ele>487.0</ele><time>2026-04-11T08:25:18.149Z</time></trkpt><trkpt lat="43.8632825" lon="11.2591334"><ele>495.0</ele><time>2026-04-11T08:25:19.148Z</time></trkpt><trkpt lat="43.863386" lon="11.2591535"><ele>495.0</ele><time>2026-04-11T08:25:21.148Z</time></trkpt><trkpt lat="43.8634352" lon="11.2592446"><ele>495.0</ele><time>2026-04-11T08:25:24.149Z</time></trkpt><trkpt lat="43.8633731" lon="11.2592897"><ele>495.0</ele><time>2026-04-11T08:25:27.149Z</time></trkpt><trkpt lat="43.8632858" lon="11.2592797"><ele>495.0</ele><time>2026-04-11T08:25:29.149Z</time></trkpt><trkpt lat="43.8631925" lon="11.259303"><ele>495.0</ele><time>2026-04-11T08:25:31.149Z</time></trkpt><trkpt lat="43.8631146" lon="11.2593931"><ele>495.0</ele><time>2026-04-11T08:25:33.149Z</time></trkpt><trkpt lat="43.8630688" lon="11.259457"><ele>495.0</ele><time>2026-04-11T08:25:34.149Z</time></trkpt><trkpt lat="43.8629568" lon="11.2595305"><ele>495.0</ele><time>2026-04-11T08:25:36.149Z</time></trkpt><trkpt lat="43.8628654" lon="11.2595416"><ele>495.0</ele><time>2026-04-11T08:25:38.149Z</time></trkpt><trkpt lat="43.8628026" lon="11.2595593"><ele>495.0</ele><time>2026-04-11T08:25:39.148Z</time></trkpt><trkpt lat="43.8626744" lon="11.2596124"><ele>495.0</ele><time>2026-04-11T08:25:41.149Z</time></trkpt><trkpt lat="43.8626129" lon="11.2596623"><ele>498.0</ele><time>2026-04-11T08:25:42.149Z</time></trkpt><trkpt lat="43.8625517" lon="11.2597049"><ele>501.0</ele><time>2026-04-11T08:25:43.148Z</time></trkpt><trkpt lat="43.8624849" lon="11.2597438"><ele>504.0</ele><time>2026-04-11T08:25:44.149Z</time></trkpt><trkpt lat="43.8624164" lon="11.2597843"><ele>507.0</ele><time>2026-04-11T08:25:45.148Z</time></trkpt><trkpt lat="43.8623532" lon="11.2598462"><ele>510.0</ele><time>2026-04-11T08:25:46.148Z</time></trkpt><trkpt lat="43.8622885" lon="11.2599091"><ele>513.0</ele><time>2026-04-11T08:25:47.148Z</time></trkpt><trkpt lat="43.8622179" lon="11.2599802"><ele>513.6</ele><time>2026-04-11T08:25:48.149Z</time></trkpt><trkpt lat="43.8621479" lon="11.2600597"><ele>514.1999999999999</ele><time>2026-04-11T08:25:49.149Z</time></trkpt><trkpt lat="43.8620796" lon="11.260148"><ele>514.8</ele><time>2026-04-11T08:25:50.149Z</time></trkpt><trkpt lat="43.8620194" lon="11.2602335"><ele>515.4</ele><time>2026-04-11T08:25:51.147Z</time></trkpt><trkpt lat="43.8619628" lon="11.2603086"><ele>516.0</ele><time>2026-04-11T08:25:52.148Z</time></trkpt><trkpt lat="43.861846" lon="11.2603899"><ele>516.8571428571428</ele><time>2026-04-11T08:25:54.148Z</time></trkpt><trkpt lat="43.8617753" lon="11.2604094"><ele>517.7142857142857</ele><time>2026-04-11T08:25:55.148Z</time></trkpt><trkpt lat="43.8617064" lon="11.2604283"><ele>518.5714285714286</ele><time>2026-04-11T08:25:56.149Z</time></trkpt><trkpt lat="43.8616275" lon="11.260449"><ele>519.4285714285713</ele><time>2026-04-11T08:25:57.149Z</time></trkpt><trkpt lat="43.8615534" lon="11.2604739"><ele>520.2857142857142</ele><time>2026-04-11T08:25:58.149Z</time></trkpt><trkpt lat="43.8614837" lon="11.2605077"><ele>521.1428571428571</ele><time>2026-04-11T08:25:59.149Z</time></trkpt><trkpt lat="43.8614166" lon="11.2605401"><ele>522.0</ele><time>2026-04-11T08:26:00.149Z</time></trkpt><trkpt lat="43.8613515" lon="11.2605767"><ele>523.5</ele><time>2026-04-11T08:26:01.149Z</time></trkpt><trkpt lat="43.8612875" lon="11.2606325"><ele>525.0</ele><time>2026-04-11T08:26:02.149Z</time></trkpt><trkpt lat="43.8612297" lon="11.2606978"><ele>526.5</ele><time>2026-04-11T08:26:03.149Z</time></trkpt><trkpt lat="43.8611775" lon="11.2607752"><ele>528.0</ele><time>2026-04-11T08:26:04.149Z</time></trkpt><trkpt lat="43.861122" lon="11.2608529"><ele>529.5</ele><time>2026-04-11T08:26:05.149Z</time></trkpt><trkpt lat="43.8610687" lon="11.2609387"><ele>531.0</ele><time>2026-04-11T08:26:06.149Z</time></trkpt><trkpt lat="43.8610118" lon="11.2610369"><ele>531.0</ele><time>2026-04-11T08:26:07.149Z</time></trkpt><trkpt lat="43.8609562" lon="11.2611347"><ele>531.0</ele><time>2026-04-11T08:26:08.154Z</time></trkpt><trkpt lat="43.8608946" lon="11.261229"><ele>531.0</ele><time>2026-04-11T08:26:09.151Z</time></trkpt><trkpt lat="43.8608418" lon="11.2613179"><ele>531.0</ele><time>2026-04-11T08:26:10.151Z</time></trkpt><trkpt lat="43.8607835" lon="11.2614159"><ele>531.0</ele><time>2026-04-11T08:26:11.149Z</time></trkpt><trkpt lat="43.8607121" lon="11.2615126"><ele>533.0</ele><time>2026-04-11T08:26:12.137Z</time></trkpt><trkpt lat="43.8606465" lon="11.2616158"><ele>535.0</ele><time>2026-04-11T08:26:13.149Z</time></trkpt><trkpt lat="43.8605683" lon="11.261699"><ele>537.0</ele><time>2026-04-11T08:26:14.148Z</time></trkpt><trkpt lat="43.8604946" lon="11.2617473"><ele>539.0</ele><time>2026-04-11T08:26:15.149Z</time></trkpt><trkpt lat="43.8604188" lon="11.2618039"><ele>541.0</ele><time>2026-04-11T08:26:16.147Z</time></trkpt><trkpt lat="43.8603442" lon="11.2618396"><ele>543.0</ele><time>2026-04-11T08:26:17.149Z</time></trkpt><trkpt lat="43.8602758" lon="11.2618833"><ele>543.0</ele><time>2026-04-11T08:26:18.148Z</time></trkpt><trkpt lat="43.8602189" lon="11.2619462"><ele>543.0</ele><time>2026-04-11T08:26:19.148Z</time></trkpt><trkpt lat="43.8601642" lon="11.2620141"><ele>543.0</ele><time>2026-04-11T08:26:20.148Z</time></trkpt><trkpt lat="43.8601151" lon="11.2620934"><ele>543.0</ele><time>2026-04-11T08:26:21.148Z</time></trkpt><trkpt lat="43.8600718" lon="11.2621777"><ele>543.0</ele><time>2026-04-11T08:26:22.148Z</time></trkpt><trkpt lat="43.860036" lon="11.2622672"><ele>543.0</ele><time>2026-04-11T08:26:23.147Z</time></trkpt><trkpt lat="43.859998" lon="11.2623639"><ele>543.0</ele><time>2026-04-11T08:26:24.148Z</time></trkpt><trkpt lat="43.8599631" lon="11.2624531"><ele>543.8333333333334</ele><time>2026-04-11T08:26:25.149Z</time></trkpt><trkpt lat="43.8599258" lon="11.2625479"><ele>544.6666666666666</ele><time>2026-04-11T08:26:26.148Z</time></trkpt><trkpt lat="43.8598874" lon="11.2626392"><ele>545.5</ele><time>2026-04-11T08:26:27.149Z</time></trkpt><trkpt lat="43.8598547" lon="11.2627298"><ele>546.3333333333333</ele><time>2026-04-11T08:26:28.149Z</time></trkpt><trkpt lat="43.859822" lon="11.2628124"><ele>547.1666666666666</ele><time>2026-04-11T08:26:29.148Z</time></trkpt><trkpt lat="43.8597546" lon="11.2629045"><ele>548.0</ele><time>2026-04-11T08:26:31.148Z</time></trkpt><trkpt lat="43.859666" lon="11.2629408"><ele>548.0</ele><time>2026-04-11T08:26:33.149Z</time></trkpt><trkpt lat="43.8595357" lon="11.2629323"><ele>548.0</ele><time>2026-04-11T08:26:35.149Z</time></trkpt><trkpt lat="43.8594561" lon="11.2629171"><ele>548.0</ele><time>2026-04-11T08:26:36.148Z</time></trkpt><trkpt lat="43.8593841" lon="11.262917"><ele>548.0</ele><time>2026-04-11T08:26:37.149Z</time></trkpt><trkpt lat="43.8592803" lon="11.262957"><ele>548.0</ele><time>2026-04-11T08:26:39.148Z</time></trkpt><trkpt lat="43.8591518" lon="11.2629957"><ele>549.6666666666666</ele><time>2026-04-11T08:26:41.149Z</time></trkpt><trkpt lat="43.8590461" lon="11.2630127"><ele>551.3333333333333</ele><time>2026-04-11T08:26:43.149Z</time></trkpt><trkpt lat="43.8589716" lon="11.2630144"><ele>553.0</ele><time>2026-04-11T08:26:45.149Z</time></trkpt><trkpt lat="43.8589084" lon="11.2629513"><ele>554.6666666666666</ele><time>2026-04-11T08:26:48.148Z</time></trkpt><trkpt lat="43.8588785" lon="11.2628348"><ele>556.3333333333334</ele><time>2026-04-11T08:26:51.149Z</time></trkpt><trkpt lat="43.8588587" lon="11.2627284"><ele>558.0</ele><time>2026-04-11T08:26:54.149Z</time></trkpt><trkpt lat="43.8588186" lon="11.2626587"><ele>558.0</ele><time>2026-04-11T08:27:05.149Z</time></trkpt><trkpt lat="43.858744" lon="11.2627302"><ele>558.0</ele><time>2026-04-11T08:27:13.148Z</time></trkpt><trkpt lat="43.8587195" lon="11.2628115"><ele>558.0</ele><time>2026-04-11T08:27:15.149Z</time></trkpt><trkpt lat="43.8587066" lon="11.2629062"><ele>558.0</ele><time>2026-04-11T08:27:18.149Z</time></trkpt><trkpt lat="43.8587409" lon="11.2629835"><ele>558.0</ele><time>2026-04-11T08:27:21.148Z</time></trkpt></trkseg><trkseg><trkpt lat="43.8587827" lon="11.2629875"><ele>558.0</ele><time>2026-04-11T08:39:51.148Z</time></trkpt><trkpt lat="43.8589061" lon="11.2630304"><ele>558.0</ele><time>2026-04-11T08:39:54.148Z</time></trkpt><trkpt lat="43.8589751" lon="11.2630357"><ele>558.0</ele><time>2026-04-11T08:39:55.148Z</time></trkpt><trkpt lat="43.859092" lon="11.2630221"><ele>558.0</ele><time>2026-04-11T08:39:57.148Z</time></trkpt><trkpt lat="43.8591552" lon="11.2630147"><ele>558.0</ele><time>2026-04-11T08:39:58.148Z</time></trkpt><trkpt lat="43.8592264" lon="11.2630227"><ele>558.0</ele><time>2026-04-11T08:39:59.148Z</time></trkpt><trkpt lat="43.8593019" lon="11.2630393"><ele>559.3333333333334</ele><time>2026-04-11T08:40:00.147Z</time></trkpt><trkpt lat="43.8593775" lon="11.2630704"><ele>560.6666666666666</ele><time>2026-04-11T08:40:01.148Z</time></trkpt><trkpt lat="43.8594575" lon="11.2631108"><ele>562.0</ele><time>2026-04-11T08:40:02.148Z</time></trkpt><trkpt lat="43.8595379" lon="11.2631607"><ele>563.3333333333333</ele><time>2026-04-11T08:40:03.147Z</time></trkpt><trkpt lat="43.8596097" lon="11.263202"><ele>564.6666666666666</ele><time>2026-04-11T08:40:04.147Z</time></trkpt><trkpt lat="43.8596769" lon="11.2632363"><ele>566.0</ele><time>2026-04-11T08:40:05.147Z</time></trkpt><trkpt lat="43.8597492" lon="11.263259"><ele>566.0</ele><time>2026-04-11T08:40:06.147Z</time></trkpt><trkpt lat="43.8598448" lon="11.2632811"><ele>566.0</ele><time>2026-04-11T08:40:07.147Z</time></trkpt><trkpt lat="43.8599509" lon="11.2632959"><ele>566.0</ele><time>2026-04-11T08:40:08.148Z</time></trkpt><trkpt lat="43.8600554" lon="11.2632581"><ele>566.0</ele><time>2026-04-11T08:40:09.148Z</time></trkpt><trkpt lat="43.8601528" lon="11.263208"><ele>566.0</ele><time>2026-04-11T08:40:10.148Z</time></trkpt><trkpt lat="43.8602351" lon="11.263149"><ele>564.5714285714286</ele><time>2026-04-11T08:40:11.147Z</time></trkpt><trkpt lat="43.8603044" lon="11.2630947"><ele>563.1428571428572</ele><time>2026-04-11T08:40:12.148Z</time></trkpt><trkpt lat="43.8603649" lon="11.2630419"><ele>561.7142857142858</ele><time>2026-04-11T08:40:13.148Z</time></trkpt><trkpt lat="43.8604266" lon="11.2629917"><ele>560.2857142857143</ele><time>2026-04-11T08:40:14.148Z</time></trkpt><trkpt lat="43.8604878" lon="11.2629441"><ele>558.8571428571429</ele><time>2026-04-11T08:40:15.147Z</time></trkpt><trkpt lat="43.8605477" lon="11.2628962"><ele>557.4285714285714</ele><time>2026-04-11T08:40:16.147Z</time></trkpt><trkpt lat="43.8606119" lon="11.2628455"><ele>556.0</ele><time>2026-04-11T08:40:17.148Z</time></trkpt><trkpt lat="43.8606792" lon="11.2627932"><ele>556.0</ele><time>2026-04-11T08:40:18.147Z</time></trkpt><trkpt lat="43.8607604" lon="11.2627349"><ele>556.0</ele><time>2026-04-11T08:40:19.147Z</time></trkpt><trkpt lat="43.8608525" lon="11.262688"><ele>556.0</ele><time>2026-04-11T08:40:20.147Z</time></trkpt><trkpt lat="43.8609395" lon="11.26265"><ele>556.0</ele><time>2026-04-11T08:40:21.147Z</time></trkpt><trkpt lat="43.8610222" lon="11.2626087"><ele>556.0</ele><time>2026-04-11T08:40:22.146Z</time></trkpt><trkpt lat="43.8611131" lon="11.2625813"><ele>556.6</ele><time>2026-04-11T08:40:23.147Z</time></trkpt><trkpt lat="43.8612086" lon="11.2625658"><ele>557.2</ele><time>2026-04-11T08:40:24.147Z</time></trkpt><trkpt lat="43.8613119" lon="11.2625635"><ele>557.8</ele><time>2026-04-11T08:40:25.148Z</time></trkpt><trkpt lat="43.8614139" lon="11.2625775"><ele>558.4</ele><time>2026-04-11T08:40:26.148Z</time></trkpt><trkpt lat="43.8615031" lon="11.2625971"><ele>559.0</ele><time>2026-04-11T08:40:27.148Z</time></trkpt><trkpt lat="43.8615892" lon="11.2626298"><ele>559.0</ele><time>2026-04-11T08:40:28.148Z</time></trkpt><trkpt lat="43.8616759" lon="11.2626773"><ele>559.0</ele><time>2026-04-11T08:40:29.147Z</time></trkpt><trkpt lat="43.8617593" lon="11.2627325"><ele>559.0</ele><time>2026-04-11T08:40:30.147Z</time></trkpt><trkpt lat="43.8618296" lon="11.2627892"><ele>559.0</ele><time>2026-04-11T08:40:31.148Z</time></trkpt><trkpt lat="43.8618992" lon="11.2628527"><ele>559.0</ele><time>2026-04-11T08:40:32.146Z</time></trkpt><trkpt lat="43.8619606" lon="11.2629334"><ele>559.0</ele><time>2026-04-11T08:40:33.148Z</time></trkpt><trkpt lat="43.8620135" lon="11.2630222"><ele>558.4</ele><time>2026-04-11T08:40:34.147Z</time></trkpt><trkpt lat="43.8620692" lon="11.2631431"><ele>557.8</ele><time>2026-04-11T08:40:35.147Z</time></trkpt><trkpt lat="43.8621186" lon="11.2632511"><ele>557.2</ele><time>2026-04-11T08:40:36.148Z</time></trkpt><trkpt lat="43.8621602" lon="11.2633494"><ele>556.6</ele><time>2026-04-11T08:40:37.148Z</time></trkpt><trkpt lat="43.8622096" lon="11.2634625"><ele>556.0</ele><time>2026-04-11T08:40:38.148Z</time></trkpt><trkpt lat="43.8622598" lon="11.2635758"><ele>556.0</ele><time>2026-04-11T08:40:39.148Z</time></trkpt><trkpt lat="43.8623045" lon="11.2636798"><ele>556.0</ele><time>2026-04-11T08:40:40.148Z</time></trkpt><trkpt lat="43.8623412" lon="11.2637619"><ele>556.0</ele><time>2026-04-11T08:40:41.147Z</time></trkpt><trkpt lat="43.8623762" lon="11.2638361"><ele>556.0</ele><time>2026-04-11T08:40:42.147Z</time></trkpt><trkpt lat="43.8624435" lon="11.2639767"><ele>556.0</ele><time>2026-04-11T08:40:44.147Z</time></trkpt><trkpt lat="43.8624532" lon="11.2640704"><ele>556.0</ele><time>2026-04-11T08:40:45.147Z</time></trkpt><trkpt lat="43.8624289" lon="11.2641544"><ele>557.4</ele><time>2026-04-11T08:40:46.147Z</time></trkpt><trkpt lat="43.8623439" lon="11.2642676"><ele>558.8</ele><time>2026-04-11T08:40:48.147Z</time></trkpt><trkpt lat="43.8622521" lon="11.264348"><ele>560.1999999999999</ele><time>2026-04-11T08:40:50.148Z</time></trkpt><trkpt lat="43.8622174" lon="11.2644797"><ele>561.6</ele><time>2026-04-11T08:40:52.148Z</time></trkpt><trkpt lat="43.8622207" lon="11.2645675"><ele>563.0</ele><time>2026-04-11T08:40:53.148Z</time></trkpt><trkpt lat="43.8622444" lon="11.2646645"><ele>563.0</ele><time>2026-04-11T08:40:54.148Z</time></trkpt><trkpt lat="43.8622785" lon="11.2647762"><ele>563.0</ele><time>2026-04-11T08:40:55.148Z</time></trkpt><trkpt lat="43.8623168" lon="11.2648926"><ele>563.0</ele><time>2026-04-11T08:40:56.148Z</time></trkpt><trkpt lat="43.8623512" lon="11.2650085"><ele>563.0</ele><time>2026-04-11T08:40:57.148Z</time></trkpt><trkpt lat="43.8623835" lon="11.2651349"><ele>563.0</ele><time>2026-04-11T08:40:58.148Z</time></trkpt><trkpt lat="43.8624094" lon="11.2652486"><ele>564.1666666666666</ele><time>2026-04-11T08:40:59.147Z</time></trkpt><trkpt lat="43.8624336" lon="11.2653581"><ele>565.3333333333333</ele><time>2026-04-11T08:41:00.148Z</time></trkpt><trkpt lat="43.8624566" lon="11.2654732"><ele>566.5</ele><time>2026-04-11T08:41:01.148Z</time></trkpt><trkpt lat="43.8624804" lon="11.2655765"><ele>567.6666666666666</ele><time>2026-04-11T08:41:02.148Z</time></trkpt><trkpt lat="43.8625175" lon="11.2656661"><ele>568.8333333333334</ele><time>2026-04-11T08:41:03.147Z</time></trkpt><trkpt lat="43.8625692" lon="11.265749"><ele>570.0</ele><time>2026-04-11T08:41:04.147Z</time></trkpt><trkpt lat="43.8626324" lon="11.2658026"><ele>570.1666666666666</ele><time>2026-04-11T08:41:05.147Z</time></trkpt><trkpt lat="43.862698" lon="11.2658681"><ele>570.3333333333334</ele><time>2026-04-11T08:41:06.147Z</time></trkpt><trkpt lat="43.862778" lon="11.2659127"><ele>570.5</ele><time>2026-04-11T08:41:07.148Z</time></trkpt><trkpt lat="43.8628398" lon="11.2659559"><ele>570.6666666666667</ele><time>2026-04-11T08:41:08.148Z</time></trkpt><trkpt lat="43.8629161" lon="11.2660592"><ele>570.8333333333334</ele><time>2026-04-11T08:41:10.148Z</time></trkpt><trkpt lat="43.8629148" lon="11.266199"><ele>571.0</ele><time>2026-04-11T08:41:12.148Z</time></trkpt><trkpt lat="43.8628695" lon="11.2663621"><ele>570.4285714285714</ele><time>2026-04-11T08:41:14.148Z</time></trkpt><trkpt lat="43.8628468" lon="11.2664599"><ele>569.8571428571429</ele><time>2026-04-11T08:41:15.148Z</time></trkpt><trkpt lat="43.8628181" lon="11.2665633"><ele>569.2857142857142</ele><time>2026-04-11T08:41:16.147Z</time></trkpt><trkpt lat="43.862779" lon="11.2666666"><ele>568.7142857142858</ele><time>2026-04-11T08:41:17.148Z</time></trkpt><trkpt lat="43.8627399" lon="11.2667576"><ele>568.1428571428571</ele><time>2026-04-11T08:41:18.147Z</time></trkpt><trkpt lat="43.8627055" lon="11.266837"><ele>567.5714285714286</ele><time>2026-04-11T08:41:19.148Z</time></trkpt><trkpt lat="43.8626717" lon="11.2669178"><ele>567.0</ele><time>2026-04-11T08:41:20.147Z</time></trkpt><trkpt lat="43.8626426" lon="11.2670052"><ele>567.0</ele><time>2026-04-11T08:41:21.147Z</time></trkpt><trkpt lat="43.8626193" lon="11.2671024"><ele>567.0</ele><time>2026-04-11T08:41:22.148Z</time></trkpt><trkpt lat="43.8626018" lon="11.2671993"><ele>567.0</ele><time>2026-04-11T08:41:23.146Z</time></trkpt><trkpt lat="43.8625881" lon="11.2672938"><ele>567.0</ele><time>2026-04-11T08:41:24.147Z</time></trkpt><trkpt lat="43.8626077" lon="11.2673978"><ele>567.0</ele><time>2026-04-11T08:41:25.148Z</time></trkpt><trkpt lat="43.8626423" lon="11.2675028"><ele>567.0</ele><time>2026-04-11T08:41:26.147Z</time></trkpt><trkpt lat="43.8627306" lon="11.2676381"><ele>567.0</ele><time>2026-04-11T08:41:28.148Z</time></trkpt><trkpt lat="43.8628295" lon="11.2676983"><ele>567.0</ele><time>2026-04-11T08:41:30.148Z</time></trkpt><trkpt lat="43.8629392" lon="11.267773"><ele>567.0</ele><time>2026-04-11T08:41:32.147Z</time></trkpt><trkpt lat="43.8629875" lon="11.2678927"><ele>567.0</ele><time>2026-04-11T08:41:34.148Z</time></trkpt><trkpt lat="43.8629448" lon="11.2680082"><ele>567.0</ele><time>2026-04-11T08:41:36.147Z</time></trkpt><trkpt lat="43.8628644" lon="11.2681476"><ele>567.6666666666666</ele><time>2026-04-11T08:41:38.148Z</time></trkpt><trkpt lat="43.8628362" lon="11.2682393"><ele>568.3333333333334</ele><time>2026-04-11T08:41:39.148Z</time></trkpt><trkpt lat="43.8628144" lon="11.2683454"><ele>569.0</ele><time>2026-04-11T08:41:40.148Z</time></trkpt><trkpt lat="43.862806" lon="11.2684563"><ele>569.6666666666667</ele><time>2026-04-11T08:41:41.148Z</time></trkpt><trkpt lat="43.8628002" lon="11.2685679"><ele>570.3333333333334</ele><time>2026-04-11T08:41:42.147Z</time></trkpt><trkpt lat="43.8627997" lon="11.2686755"><ele>571.0</ele><time>2026-04-11T08:41:43.147Z</time></trkpt><trkpt lat="43.8627843" lon="11.2687774"><ele>571.0</ele><time>2026-04-11T08:41:44.147Z</time></trkpt><trkpt lat="43.8627662" lon="11.2688795"><ele>571.0</ele><time>2026-04-11T08:41:45.148Z</time></trkpt><trkpt lat="43.8627529" lon="11.2689972"><ele>571.0</ele><time>2026-04-11T08:41:46.148Z</time></trkpt><trkpt lat="43.8627592" lon="11.269112"><ele>571.0</ele><time>2026-04-11T08:41:47.148Z</time></trkpt><trkpt lat="43.8627728" lon="11.2692261"><ele>571.0</ele><time>2026-04-11T08:41:48.147Z</time></trkpt><trkpt lat="43.8627995" lon="11.2693313"><ele>571.0</ele><time>2026-04-11T08:41:49.147Z</time></trkpt><trkpt lat="43.8628361" lon="11.2694397"><ele>570.6</ele><time>2026-04-11T08:41:50.147Z</time></trkpt><trkpt lat="43.862878" lon="11.2695576"><ele>570.2</ele><time>2026-04-11T08:41:51.146Z</time></trkpt><trkpt lat="43.8629206" lon="11.269683"><ele>569.8</ele><time>2026-04-11T08:41:52.147Z</time></trkpt><trkpt lat="43.8629666" lon="11.2698018"><ele>569.4</ele><time>2026-04-11T08:41:53.147Z</time></trkpt><trkpt lat="43.8630168" lon="11.2699072"><ele>569.0</ele><time>2026-04-11T08:41:54.147Z</time></trkpt><trkpt lat="43.8630653" lon="11.2700009"><ele>570.2857142857143</ele><time>2026-04-11T08:41:55.147Z</time></trkpt><trkpt lat="43.8631036" lon="11.2701002"><ele>571.5714285714286</ele><time>2026-04-11T08:41:56.147Z</time></trkpt><trkpt lat="43.8631318" lon="11.2701962"><ele>572.8571428571429</ele><time>2026-04-11T08:41:57.147Z</time></trkpt><trkpt lat="43.8631532" lon="11.2702931"><ele>574.1428571428571</ele><time>2026-04-11T08:41:58.147Z</time></trkpt><trkpt lat="43.8631709" lon="11.2703913"><ele>575.4285714285714</ele><time>2026-04-11T08:41:59.147Z</time></trkpt><trkpt lat="43.8631871" lon="11.2704788"><ele>576.7142857142858</ele><time>2026-04-11T08:42:00.148Z</time></trkpt><trkpt lat="43.8632023" lon="11.2705687"><ele>578.0</ele><time>2026-04-11T08:42:01.147Z</time></trkpt><trkpt lat="43.8632748" lon="11.2706987"><ele>578.1999999999999</ele><time>2026-04-11T08:42:03.147Z</time></trkpt><trkpt lat="43.8633676" lon="11.2707831"><ele>578.4</ele><time>2026-04-11T08:42:05.148Z</time></trkpt><trkpt lat="43.8634288" lon="11.2708076"><ele>578.5999999999999</ele><time>2026-04-11T08:42:06.148Z</time></trkpt><trkpt lat="43.8635444" lon="11.2708869"><ele>578.8</ele><time>2026-04-11T08:42:08.148Z</time></trkpt><trkpt lat="43.8636078" lon="11.2709413"><ele>579.0</ele><time>2026-04-11T08:42:09.148Z</time></trkpt><trkpt lat="43.8637157" lon="11.2710504"><ele>578.9999999999999</ele><time>2026-04-11T08:42:11.148Z</time></trkpt><trkpt lat="43.8637748" lon="11.2711038"><ele>579.0</ele><time>2026-04-11T08:42:12.147Z</time></trkpt><trkpt lat="43.8638324" lon="11.2711611"><ele>579.0</ele><time>2026-04-11T08:42:13.147Z</time></trkpt><trkpt lat="43.8638892" lon="11.2712143"><ele>579.0</ele><time>2026-04-11T08:42:14.147Z</time></trkpt><trkpt lat="43.8639499" lon="11.2712768"><ele>579.0</ele><time>2026-04-11T08:42:15.146Z</time></trkpt><trkpt lat="43.8640092" lon="11.2713551"><ele>578.9999999999999</ele><time>2026-04-11T08:42:16.148Z</time></trkpt><trkpt lat="43.8640777" lon="11.2714064"><ele>579.0</ele><time>2026-04-11T08:42:17.148Z</time></trkpt><trkpt lat="43.8641457" lon="11.2714564"><ele>579.0</ele><time>2026-04-11T08:42:18.148Z</time></trkpt><trkpt lat="43.8642104" lon="11.2715031"><ele>579.0</ele><time>2026-04-11T08:42:19.147Z</time></trkpt><trkpt lat="43.8642978" lon="11.2715209"><ele>579.0</ele><time>2026-04-11T08:42:20.147Z</time></trkpt><trkpt lat="43.8643889" lon="11.2715589"><ele>579.0</ele><time>2026-04-11T08:42:21.148Z</time></trkpt><trkpt lat="43.8644713" lon="11.2715737"><ele>579.0</ele><time>2026-04-11T08:42:22.148Z</time></trkpt><trkpt lat="43.8645509" lon="11.2716036"><ele>579.0</ele><time>2026-04-11T08:42:23.148Z</time></trkpt><trkpt lat="43.8646236" lon="11.2716087"><ele>579.0</ele><time>2026-04-11T08:42:24.147Z</time></trkpt><trkpt lat="43.8647373" lon="11.2716256"><ele>579.0</ele><time>2026-04-11T08:42:26.148Z</time></trkpt><trkpt lat="43.864851" lon="11.2716394"><ele>579.0</ele><time>2026-04-11T08:42:28.148Z</time></trkpt><trkpt lat="43.8649187" lon="11.2716435"><ele>579.0</ele><time>2026-04-11T08:42:29.147Z</time></trkpt><trkpt lat="43.8649867" lon="11.2716515"><ele>579.0</ele><time>2026-04-11T08:42:30.147Z</time></trkpt><trkpt lat="43.8650638" lon="11.2716754"><ele>579.0</ele><time>2026-04-11T08:42:31.147Z</time></trkpt><trkpt lat="43.8651484" lon="11.2717193"><ele>576.2</ele><time>2026-04-11T08:42:32.148Z</time></trkpt><trkpt lat="43.8652395" lon="11.2717806"><ele>573.4</ele><time>2026-04-11T08:42:33.148Z</time></trkpt><trkpt lat="43.8653307" lon="11.2718501"><ele>570.6</ele><time>2026-04-11T08:42:34.148Z</time></trkpt><trkpt lat="43.8654307" lon="11.2719358"><ele>567.8</ele><time>2026-04-11T08:42:35.148Z</time></trkpt><trkpt lat="43.8655265" lon="11.2720204"><ele>565.0</ele><time>2026-04-11T08:42:36.148Z</time></trkpt><trkpt lat="43.8656258" lon="11.2721095"><ele>565.0</ele><time>2026-04-11T08:42:37.148Z</time></trkpt><trkpt lat="43.8657296" lon="11.2722009"><ele>565.0</ele><time>2026-04-11T08:42:38.147Z</time></trkpt><trkpt lat="43.8658418" lon="11.2723012"><ele>565.0</ele><time>2026-04-11T08:42:39.147Z</time></trkpt><trkpt lat="43.865948" lon="11.2723925"><ele>565.0</ele><time>2026-04-11T08:42:40.147Z</time></trkpt><trkpt lat="43.8660571" lon="11.2724827"><ele>564.25</ele><time>2026-04-11T08:42:41.147Z</time></trkpt><trkpt lat="43.8661743" lon="11.2725751"><ele>563.5</ele><time>2026-04-11T08:42:42.146Z</time></trkpt><trkpt lat="43.8662947" lon="11.272669"><ele>562.75</ele><time>2026-04-11T08:42:43.148Z</time></trkpt><trkpt lat="43.8664203" lon="11.2727616"><ele>562.0</ele><time>2026-04-11T08:42:44.148Z</time></trkpt><trkpt lat="43.8665496" lon="11.2728575"><ele>562.0</ele><time>2026-04-11T08:42:45.148Z</time></trkpt><trkpt lat="43.8666809" lon="11.2729586"><ele>562.0</ele><time>2026-04-11T08:42:46.148Z</time></trkpt><trkpt lat="43.8668153" lon="11.2730481"><ele>562.0</ele><time>2026-04-11T08:42:47.148Z</time></trkpt><trkpt lat="43.8669484" lon="11.2731119"><ele>562.0</ele><time>2026-04-11T08:42:48.147Z</time></trkpt><trkpt lat="43.8670776" lon="11.2731552"><ele>563.0</ele><time>2026-04-11T08:42:49.147Z</time></trkpt><trkpt lat="43.8672038" lon="11.2731842"><ele>564.0</ele><time>2026-04-11T08:42:50.147Z</time></trkpt><trkpt lat="43.8673183" lon="11.2732035"><ele>565.0</ele><time>2026-04-11T08:42:51.148Z</time></trkpt><trkpt lat="43.8674232" lon="11.2732128"><ele>566.0</ele><time>2026-04-11T08:42:52.147Z</time></trkpt><trkpt lat="43.8675231" lon="11.2732153"><ele>567.0</ele><time>2026-04-11T08:42:53.147Z</time></trkpt><trkpt lat="43.8676103" lon="11.2732164"><ele>566.8333333333334</ele><time>2026-04-11T08:42:54.148Z</time></trkpt><trkpt lat="43.867682" lon="11.2732115"><ele>566.6666666666666</ele><time>2026-04-11T08:42:55.147Z</time></trkpt><trkpt lat="43.8677844" lon="11.27317"><ele>566.5</ele><time>2026-04-11T08:42:57.147Z</time></trkpt><trkpt lat="43.8678426" lon="11.2730869"><ele>566.3333333333333</ele><time>2026-04-11T08:42:59.147Z</time></trkpt><trkpt lat="43.8678862" lon="11.273003"><ele>566.1666666666666</ele><time>2026-04-11T08:43:01.147Z</time></trkpt><trkpt lat="43.867935" lon="11.2729169"><ele>566.0</ele><time>2026-04-11T08:43:03.148Z</time></trkpt><trkpt lat="43.8679788" lon="11.2728313"><ele>566.0</ele><time>2026-04-11T08:43:05.147Z</time></trkpt><trkpt lat="43.868021" lon="11.2727519"><ele>566.0</ele><time>2026-04-11T08:43:07.147Z</time></trkpt><trkpt lat="43.868074" lon="11.2726519"><ele>566.0</ele><time>2026-04-11T08:43:09.148Z</time></trkpt><trkpt lat="43.8681334" lon="11.27256"><ele>566.0</ele><time>2026-04-11T08:43:11.146Z</time></trkpt><trkpt lat="43.8681889" lon="11.2724585"><ele>566.0</ele><time>2026-04-11T08:43:13.147Z</time></trkpt><trkpt lat="43.868241" lon="11.272355"><ele>566.0</ele><time>2026-04-11T08:43:15.148Z</time></trkpt><trkpt lat="43.8682944" lon="11.2722448"><ele>564.6</ele><time>2026-04-11T08:43:17.147Z</time></trkpt><trkpt lat="43.8683541" lon="11.2721349"><ele>563.2</ele><time>2026-04-11T08:43:19.148Z</time></trkpt><trkpt lat="43.8684237" lon="11.2720086"><ele>561.8</ele><time>2026-04-11T08:43:21.147Z</time></trkpt><trkpt lat="43.8684962" lon="11.2718861"><ele>560.4</ele><time>2026-04-11T08:43:23.148Z</time></trkpt><trkpt lat="43.8685389" lon="11.271821"><ele>559.0</ele><time>2026-04-11T08:43:24.147Z</time></trkpt><trkpt lat="43.8685903" lon="11.2717472"><ele>559.0</ele><time>2026-04-11T08:43:25.148Z</time></trkpt><trkpt lat="43.8686432" lon="11.2716805"><ele>559.0</ele><time>2026-04-11T08:43:26.148Z</time></trkpt><trkpt lat="43.868702" lon="11.2716064"><ele>559.0</ele><time>2026-04-11T08:43:27.147Z</time></trkpt><trkpt lat="43.868761" lon="11.2715281"><ele>559.0</ele><time>2026-04-11T08:43:28.148Z</time></trkpt><trkpt lat="43.8688199" lon="11.2714509"><ele>559.0</ele><time>2026-04-11T08:43:29.148Z</time></trkpt><trkpt lat="43.8688809" lon="11.271376"><ele>559.0</ele><time>2026-04-11T08:43:30.148Z</time></trkpt><trkpt lat="43.8689383" lon="11.2713116"><ele>557.5</ele><time>2026-04-11T08:43:31.148Z</time></trkpt><trkpt lat="43.8689965" lon="11.271239"><ele>556.0</ele><time>2026-04-11T08:43:32.148Z</time></trkpt><trkpt lat="43.869055" lon="11.2711687"><ele>554.5</ele><time>2026-04-11T08:43:33.148Z</time></trkpt><trkpt lat="43.8691246" lon="11.2710798"><ele>553.0</ele><time>2026-04-11T08:43:34.146Z</time></trkpt><trkpt lat="43.8691839" lon="11.2710031"><ele>551.5</ele><time>2026-04-11T08:43:35.148Z</time></trkpt><trkpt lat="43.8692409" lon="11.2709278"><ele>550.0</ele><time>2026-04-11T08:43:36.148Z</time></trkpt><trkpt lat="43.8693072" lon="11.2708463"><ele>550.0</ele><time>2026-04-11T08:43:37.148Z</time></trkpt><trkpt lat="43.8693682" lon="11.2707721"><ele>550.0</ele><time>2026-04-11T08:43:38.147Z</time></trkpt><trkpt lat="43.8694298" lon="11.2706942"><ele>550.0</ele><time>2026-04-11T08:43:39.147Z</time></trkpt><trkpt lat="43.869487" lon="11.2706179"><ele>550.0</ele><time>2026-04-11T08:43:40.148Z</time></trkpt><trkpt lat="43.8695418" lon="11.2705456"><ele>550.0</ele><time>2026-04-11T08:43:41.148Z</time></trkpt><trkpt lat="43.8695983" lon="11.2704724"><ele>550.0</ele><time>2026-04-11T08:43:42.148Z</time></trkpt><trkpt lat="43.8696493" lon="11.2704056"><ele>547.8333333333334</ele><time>2026-04-11T08:43:43.148Z</time></trkpt><trkpt lat="43.8696966" lon="11.2703358"><ele>545.6666666666667</ele><time>2026-04-11T08:43:44.148Z</time></trkpt><trkpt lat="43.8697442" lon="11.2702678"><ele>543.5</ele><time>2026-04-11T08:43:45.148Z</time></trkpt><trkpt lat="43.8697934" lon="11.2702109"><ele>541.3333333333334</ele><time>2026-04-11T08:43:46.147Z</time></trkpt><trkpt lat="43.8698444" lon="11.2701596"><ele>539.1666666666666</ele><time>2026-04-11T08:43:47.148Z</time></trkpt><trkpt lat="43.869943" lon="11.2700787"><ele>537.0</ele><time>2026-04-11T08:43:49.147Z</time></trkpt><trkpt lat="43.8700418" lon="11.2700094"><ele>536.0</ele><time>2026-04-11T08:43:51.148Z</time></trkpt><trkpt lat="43.8701458" lon="11.2699386"><ele>535.0</ele><time>2026-04-11T08:43:53.148Z</time></trkpt><trkpt lat="43.8702065" lon="11.2698956"><ele>534.0</ele><time>2026-04-11T08:43:54.147Z</time></trkpt><trkpt lat="43.8702634" lon="11.269857"><ele>533.0</ele><time>2026-04-11T08:43:55.148Z</time></trkpt><trkpt lat="43.8703663" lon="11.2697811"><ele>532.0</ele><time>2026-04-11T08:43:57.147Z</time></trkpt><trkpt lat="43.8704496" lon="11.2697093"><ele>530.0</ele><time>2026-04-11T08:43:59.146Z</time></trkpt><trkpt lat="43.8705266" lon="11.2696559"><ele>528.0</ele><time>2026-04-11T08:44:01.146Z</time></trkpt><trkpt lat="43.8706209" lon="11.2696104"><ele>526.0</ele><time>2026-04-11T08:44:03.146Z</time></trkpt><trkpt lat="43.8707404" lon="11.2696018"><ele>524.0</ele><time>2026-04-11T08:44:05.147Z</time></trkpt><trkpt lat="43.8708043" lon="11.2696089"><ele>522.0</ele><time>2026-04-11T08:44:06.147Z</time></trkpt><trkpt lat="43.8709121" lon="11.2696598"><ele>518.6</ele><time>2026-04-11T08:44:08.146Z</time></trkpt><trkpt lat="43.8709957" lon="11.2697624"><ele>515.2</ele><time>2026-04-11T08:44:10.146Z</time></trkpt><trkpt lat="43.8710545" lon="11.2699162"><ele>511.8</ele><time>2026-04-11T08:44:12.147Z</time></trkpt><trkpt lat="43.8710784" lon="11.2700101"><ele>508.4</ele><time>2026-04-11T08:44:13.147Z</time></trkpt><trkpt lat="43.8710963" lon="11.2701217"><ele>505.0</ele><time>2026-04-11T08:44:14.147Z</time></trkpt><trkpt lat="43.8711259" lon="11.2702321"><ele>505.00000000000006</ele><time>2026-04-11T08:44:15.147Z</time></trkpt><trkpt lat="43.8711598" lon="11.2703392"><ele>505.0</ele><time>2026-04-11T08:44:16.147Z</time></trkpt><trkpt lat="43.8711939" lon="11.2704504"><ele>505.0</ele><time>2026-04-11T08:44:17.147Z</time></trkpt><trkpt lat="43.8712229" lon="11.2705642"><ele>505.0</ele><time>2026-04-11T08:44:18.146Z</time></trkpt><trkpt lat="43.8712522" lon="11.2706697"><ele>505.00000000000006</ele><time>2026-04-11T08:44:19.146Z</time></trkpt><trkpt lat="43.8712757" lon="11.2707709"><ele>505.0</ele><time>2026-04-11T08:44:20.146Z</time></trkpt><trkpt lat="43.8712686" lon="11.2708801"><ele>505.4</ele><time>2026-04-11T08:44:21.147Z</time></trkpt><trkpt lat="43.8712657" lon="11.2709888"><ele>505.8</ele><time>2026-04-11T08:44:22.147Z</time></trkpt><trkpt lat="43.871245" lon="11.2711072"><ele>506.20000000000005</ele><time>2026-04-11T08:44:23.147Z</time></trkpt><trkpt lat="43.8712219" lon="11.2712349"><ele>506.6</ele><time>2026-04-11T08:44:24.147Z</time></trkpt><trkpt lat="43.8711932" lon="11.2713641"><ele>507.0</ele><time>2026-04-11T08:44:25.146Z</time></trkpt><trkpt lat="43.8711745" lon="11.2714924"><ele>507.5</ele><time>2026-04-11T08:44:26.146Z</time></trkpt><trkpt lat="43.8711641" lon="11.2716249"><ele>508.0</ele><time>2026-04-11T08:44:27.147Z</time></trkpt><trkpt lat="43.8711403" lon="11.2717545"><ele>508.5</ele><time>2026-04-11T08:44:28.147Z</time></trkpt><trkpt lat="43.8711138" lon="11.2718794"><ele>509.0</ele><time>2026-04-11T08:44:29.147Z</time></trkpt><trkpt lat="43.8711094" lon="11.2719957"><ele>509.5</ele><time>2026-04-11T08:44:30.147Z</time></trkpt><trkpt lat="43.8711019" lon="11.2720914"><ele>510.0</ele><time>2026-04-11T08:44:31.147Z</time></trkpt><trkpt lat="43.871099" lon="11.2722329"><ele>510.0</ele><time>2026-04-11T08:44:33.147Z</time></trkpt><trkpt lat="43.8711261" lon="11.2723178"><ele>510.00000000000006</ele><time>2026-04-11T08:44:36.147Z</time></trkpt><trkpt lat="43.8711383" lon="11.2724041"><ele>510.0</ele><time>2026-04-11T08:44:58.146Z</time></trkpt><trkpt lat="43.8711724" lon="11.272486"><ele>510.0</ele><time>2026-04-11T08:45:00.146Z</time></trkpt><trkpt lat="43.8712374" lon="11.2724678"><ele>510.00000000000006</ele><time>2026-04-11T08:45:04.146Z</time></trkpt><trkpt lat="43.8712918" lon="11.2723919"><ele>510.0</ele><time>2026-04-11T08:45:07.147Z</time></trkpt><trkpt lat="43.8713375" lon="11.2723274"><ele>510.0</ele><time>2026-04-11T08:45:09.146Z</time></trkpt><trkpt lat="43.8713759" lon="11.2722492"><ele>510.0</ele><time>2026-04-11T08:45:11.147Z</time></trkpt><trkpt lat="43.871414" lon="11.2721712"><ele>510.00000000000006</ele><time>2026-04-11T08:45:13.147Z</time></trkpt><trkpt lat="43.8714518" lon="11.2720953"><ele>510.0</ele><time>2026-04-11T08:45:15.146Z</time></trkpt><trkpt lat="43.8714876" lon="11.2720193"><ele>510.0</ele><time>2026-04-11T08:45:17.147Z</time></trkpt><trkpt lat="43.8715261" lon="11.2719465"><ele>510.00000000000006</ele><time>2026-04-11T08:45:19.147Z</time></trkpt><trkpt lat="43.8715771" lon="11.2718379"><ele>510.0</ele><time>2026-04-11T08:45:22.147Z</time></trkpt><trkpt lat="43.871612" lon="11.2717583"><ele>510.0</ele><time>2026-04-11T08:45:24.147Z</time></trkpt><trkpt lat="43.8716596" lon="11.2716462"><ele>510.0</ele><time>2026-04-11T08:45:27.146Z</time></trkpt><trkpt lat="43.8717055" lon="11.2715362"><ele>510.0</ele><time>2026-04-11T08:45:30.147Z</time></trkpt><trkpt lat="43.871742" lon="11.2714631"><ele>510.0</ele><time>2026-04-11T08:45:32.147Z</time></trkpt><trkpt lat="43.8717758" lon="11.2713759"><ele>510.0</ele><time>2026-04-11T08:45:34.146Z</time></trkpt><trkpt lat="43.8718152" lon="11.2712836"><ele>510.0</ele><time>2026-04-11T08:45:36.146Z</time></trkpt><trkpt lat="43.8718423" lon="11.2711934"><ele>510.0</ele><time>2026-04-11T08:45:38.146Z</time></trkpt><trkpt lat="43.8718757" lon="11.27107"><ele>509.5714285714286</ele><time>2026-04-11T08:45:41.147Z</time></trkpt><trkpt lat="43.8718975" lon="11.2709762"><ele>509.1428571428572</ele><time>2026-04-11T08:45:43.147Z</time></trkpt><trkpt lat="43.8719186" lon="11.2708744"><ele>508.7142857142857</ele><time>2026-04-11T08:45:46.146Z</time></trkpt><trkpt lat="43.8719407" lon="11.2707843"><ele>508.28571428571433</ele><time>2026-04-11T08:45:49.146Z</time></trkpt><trkpt lat="43.8720028" lon="11.2707101"><ele>507.8571428571429</ele><time>2026-04-11T08:45:53.146Z</time></trkpt><trkpt lat="43.8720382" lon="11.2706331"><ele>507.42857142857144</ele><time>2026-04-11T08:45:56.147Z</time></trkpt><trkpt lat="43.8720623" lon="11.2705413"><ele>507.0</ele><time>2026-04-11T08:46:03.147Z</time></trkpt><trkpt lat="43.8720884" lon="11.2703897"><ele>505.5</ele><time>2026-04-11T08:46:05.146Z</time></trkpt><trkpt lat="43.8721223" lon="11.2702394"><ele>504.0</ele><time>2026-04-11T08:46:07.147Z</time></trkpt><trkpt lat="43.8721463" lon="11.270148"><ele>502.5</ele><time>2026-04-11T08:46:08.146Z</time></trkpt><trkpt lat="43.8721653" lon="11.2700519"><ele>501.0</ele><time>2026-04-11T08:46:09.147Z</time></trkpt><trkpt lat="43.8721781" lon="11.2699583"><ele>499.5</ele><time>2026-04-11T08:46:10.147Z</time></trkpt><trkpt lat="43.8721866" lon="11.2698613"><ele>498.0</ele><time>2026-04-11T08:46:11.147Z</time></trkpt><trkpt lat="43.872191" lon="11.2697577"><ele>496.57142857142856</ele><time>2026-04-11T08:46:12.147Z</time></trkpt><trkpt lat="43.8721967" lon="11.2696575"><ele>495.1428571428571</ele><time>2026-04-11T08:46:13.147Z</time></trkpt><trkpt lat="43.8722118" lon="11.2695524"><ele>493.71428571428567</ele><time>2026-04-11T08:46:14.147Z</time></trkpt><trkpt lat="43.8722372" lon="11.2694464"><ele>492.2857142857142</ele><time>2026-04-11T08:46:15.147Z</time></trkpt><trkpt lat="43.8722678" lon="11.2693668"><ele>490.85714285714283</ele><time>2026-04-11T08:46:16.147Z</time></trkpt><trkpt lat="43.8722988" lon="11.2692883"><ele>489.42857142857133</ele><time>2026-04-11T08:46:17.147Z</time></trkpt><trkpt lat="43.8723358" lon="11.2692164"><ele>487.99999999999994</ele><time>2026-04-11T08:46:18.146Z</time></trkpt><trkpt lat="43.8723752" lon="11.2691424"><ele>487.99999999999994</ele><time>2026-04-11T08:46:19.147Z</time></trkpt><trkpt lat="43.872417" lon="11.2690667"><ele>488.0</ele><time>2026-04-11T08:46:20.147Z</time></trkpt><trkpt lat="43.872459" lon="11.2689811"><ele>488.0</ele><time>2026-04-11T08:46:21.147Z</time></trkpt><trkpt lat="43.8725079" lon="11.2688948"><ele>488.0</ele><time>2026-04-11T08:46:22.147Z</time></trkpt><trkpt lat="43.8725587" lon="11.268824"><ele>487.99999999999994</ele><time>2026-04-11T08:46:23.147Z</time></trkpt><trkpt lat="43.8726155" lon="11.2687531"><ele>488.0</ele><time>2026-04-11T08:46:24.147Z</time></trkpt><trkpt lat="43.8726767" lon="11.2686797"><ele>488.49999999999994</ele><time>2026-04-11T08:46:25.147Z</time></trkpt><trkpt lat="43.8727431" lon="11.2686115"><ele>489.0</ele><time>2026-04-11T08:46:26.147Z</time></trkpt><trkpt lat="43.8728118" lon="11.2685499"><ele>489.5</ele><time>2026-04-11T08:46:27.147Z</time></trkpt><trkpt lat="43.8728696" lon="11.2685035"><ele>490.0</ele><time>2026-04-11T08:46:28.147Z</time></trkpt><trkpt lat="43.8729361" lon="11.2684557"><ele>490.49999999999994</ele><time>2026-04-11T08:46:29.147Z</time></trkpt><trkpt lat="43.8729941" lon="11.2684199"><ele>491.0</ele><time>2026-04-11T08:46:30.146Z</time></trkpt><trkpt lat="43.8731142" lon="11.2683543"><ele>490.99999999999994</ele><time>2026-04-11T08:46:32.146Z</time></trkpt><trkpt lat="43.87319" lon="11.2683096"><ele>491.0</ele><time>2026-04-11T08:46:33.146Z</time></trkpt><trkpt lat="43.8732681" lon="11.2682575"><ele>491.0</ele><time>2026-04-11T08:46:34.147Z</time></trkpt><trkpt lat="43.8733359" lon="11.2682099"><ele>491.0</ele><time>2026-04-11T08:46:35.147Z</time></trkpt><trkpt lat="43.8734094" lon="11.2681553"><ele>490.99999999999994</ele><time>2026-04-11T08:46:36.147Z</time></trkpt><trkpt lat="43.8734754" lon="11.2680999"><ele>491.0</ele><time>2026-04-11T08:46:37.147Z</time></trkpt><trkpt lat="43.8735413" lon="11.2680446"><ele>490.0</ele><time>2026-04-11T08:46:38.147Z</time></trkpt><trkpt lat="43.8736053" lon="11.2679942"><ele>488.99999999999994</ele><time>2026-04-11T08:46:39.146Z</time></trkpt><trkpt lat="43.873668" lon="11.2679513"><ele>488.0</ele><time>2026-04-11T08:46:40.146Z</time></trkpt><trkpt lat="43.873733" lon="11.2679138"><ele>487.0</ele><time>2026-04-11T08:46:41.147Z</time></trkpt><trkpt lat="43.8737959" lon="11.2678865"><ele>485.99999999999994</ele><time>2026-04-11T08:46:42.147Z</time></trkpt><trkpt lat="43.8738726" lon="11.2678737"><ele>485.0</ele><time>2026-04-11T08:46:43.147Z</time></trkpt><trkpt lat="43.873958" lon="11.2678553"><ele>484.0</ele><time>2026-04-11T08:46:44.147Z</time></trkpt><trkpt lat="43.8740393" lon="11.2678447"><ele>484.00000000000006</ele><time>2026-04-11T08:46:45.146Z</time></trkpt><trkpt lat="43.8741254" lon="11.2678322"><ele>484.0</ele><time>2026-04-11T08:46:46.146Z</time></trkpt><trkpt lat="43.8742056" lon="11.2678256"><ele>484.0</ele><time>2026-04-11T08:46:47.147Z</time></trkpt><trkpt lat="43.8742853" lon="11.2678029"><ele>484.0</ele><time>2026-04-11T08:46:48.147Z</time></trkpt><trkpt lat="43.8743685" lon="11.2677734"><ele>484.00000000000006</ele><time>2026-04-11T08:46:49.146Z</time></trkpt><trkpt lat="43.8744573" lon="11.267738"><ele>484.0</ele><time>2026-04-11T08:46:50.146Z</time></trkpt><trkpt lat="43.8745444" lon="11.2676879"><ele>484.1666666666667</ele><time>2026-04-11T08:46:51.147Z</time></trkpt><trkpt lat="43.8746335" lon="11.2676551"><ele>484.33333333333337</ele><time>2026-04-11T08:46:52.146Z</time></trkpt><trkpt lat="43.8747248" lon="11.2676225"><ele>484.5</ele><time>2026-04-11T08:46:53.147Z</time></trkpt><trkpt lat="43.8748068" lon="11.2675898"><ele>484.66666666666663</ele><time>2026-04-11T08:46:54.147Z</time></trkpt><trkpt lat="43.8748825" lon="11.2675691"><ele>484.8333333333333</ele><time>2026-04-11T08:46:55.146Z</time></trkpt><trkpt lat="43.8749446" lon="11.2675454"><ele>485.0</ele><time>2026-04-11T08:46:56.147Z</time></trkpt><trkpt lat="43.8750238" lon="11.2674955"><ele>485.00000000000006</ele><time>2026-04-11T08:46:58.146Z</time></trkpt><trkpt lat="43.8750803" lon="11.2674551"><ele>485.0</ele><time>2026-04-11T08:47:00.146Z</time></trkpt><trkpt lat="43.8751479" lon="11.2674117"><ele>485.00000000000006</ele><time>2026-04-11T08:47:02.147Z</time></trkpt><trkpt lat="43.875207" lon="11.267378"><ele>485.00000000000006</ele><time>2026-04-11T08:47:04.147Z</time></trkpt><trkpt lat="43.8752688" lon="11.2673365"><ele>485.0</ele><time>2026-04-11T08:47:06.147Z</time></trkpt><trkpt lat="43.8753512" lon="11.2672745"><ele>485.00000000000006</ele><time>2026-04-11T08:47:09.146Z</time></trkpt><trkpt lat="43.875418" lon="11.2672381"><ele>485.00000000000006</ele><time>2026-04-11T08:47:11.146Z</time></trkpt><trkpt lat="43.8754854" lon="11.2672101"><ele>481.99999999999994</ele><time>2026-04-11T08:47:13.147Z</time></trkpt><trkpt lat="43.8755514" lon="11.2671841"><ele>479.0</ele><time>2026-04-11T08:47:15.147Z</time></trkpt><trkpt lat="43.8756128" lon="11.2671219"><ele>476.0</ele><time>2026-04-11T08:47:17.147Z</time></trkpt><trkpt lat="43.8756335" lon="11.2669843"><ele>473.0</ele><time>2026-04-11T08:47:19.146Z</time></trkpt><trkpt lat="43.8756483" lon="11.2668498"><ele>469.99999999999994</ele><time>2026-04-11T08:47:21.147Z</time></trkpt><trkpt lat="43.8756642" lon="11.2667152"><ele>467.0</ele><time>2026-04-11T08:47:23.147Z</time></trkpt><trkpt lat="43.8756941" lon="11.2666134"><ele>467.0</ele><time>2026-04-11T08:47:25.146Z</time></trkpt><trkpt lat="43.875749" lon="11.2665589"><ele>467.00000000000006</ele><time>2026-04-11T08:47:35.147Z</time></trkpt><trkpt lat="43.8758356" lon="11.2665823"><ele>467.00000000000006</ele><time>2026-04-11T08:47:38.146Z</time></trkpt><trkpt lat="43.875925" lon="11.2666185"><ele>467.0</ele><time>2026-04-11T08:47:40.146Z</time></trkpt><trkpt lat="43.8760286" lon="11.2666677"><ele>467.0</ele><time>2026-04-11T08:47:42.147Z</time></trkpt><trkpt lat="43.8761482" lon="11.2667248"><ele>465.49999999999994</ele><time>2026-04-11T08:47:44.147Z</time></trkpt><trkpt lat="43.876212" lon="11.2667619"><ele>464.0</ele><time>2026-04-11T08:47:45.147Z</time></trkpt><trkpt lat="43.8762821" lon="11.2667999"><ele>462.5</ele><time>2026-04-11T08:47:46.147Z</time></trkpt><trkpt lat="43.8763515" lon="11.2668388"><ele>461.0</ele><time>2026-04-11T08:47:47.147Z</time></trkpt><trkpt lat="43.8764102" lon="11.2668737"><ele>459.49999999999994</ele><time>2026-04-11T08:47:48.147Z</time></trkpt><trkpt lat="43.8765218" lon="11.2669527"><ele>458.0</ele><time>2026-04-11T08:47:50.147Z</time></trkpt><trkpt lat="43.8766216" lon="11.2670174"><ele>458.0</ele><time>2026-04-11T08:47:52.147Z</time></trkpt><trkpt lat="43.876709" lon="11.2670334"><ele>457.99999999999994</ele><time>2026-04-11T08:47:54.146Z</time></trkpt><trkpt lat="43.876798" lon="11.267023"><ele>457.99999999999994</ele><time>2026-04-11T08:47:56.145Z</time></trkpt><trkpt lat="43.8768903" lon="11.2670146"><ele>458.0</ele><time>2026-04-11T08:47:58.146Z</time></trkpt><trkpt lat="43.8769544" lon="11.2670073"><ele>458.0</ele><time>2026-04-11T08:47:59.146Z</time></trkpt><trkpt lat="43.8770742" lon="11.2670001"><ele>456.4</ele><time>2026-04-11T08:48:01.147Z</time></trkpt><trkpt lat="43.8771779" lon="11.2670131"><ele>454.79999999999995</ele><time>2026-04-11T08:48:03.146Z</time></trkpt><trkpt lat="43.8772916" lon="11.2670448"><ele>453.2</ele><time>2026-04-11T08:48:05.146Z</time></trkpt><trkpt lat="43.8773938" lon="11.2670893"><ele>451.6</ele><time>2026-04-11T08:48:07.147Z</time></trkpt><trkpt lat="43.8774881" lon="11.2670995"><ele>450.0</ele><time>2026-04-11T08:48:09.146Z</time></trkpt><trkpt lat="43.8775848" lon="11.2671072"><ele>450.4285714285715</ele><time>2026-04-11T08:48:11.147Z</time></trkpt><trkpt lat="43.8776657" lon="11.2671371"><ele>450.8571428571429</ele><time>2026-04-11T08:48:13.145Z</time></trkpt><trkpt lat="43.8777314" lon="11.2671808"><ele>451.2857142857143</ele><time>2026-04-11T08:48:15.147Z</time></trkpt><trkpt lat="43.8778041" lon="11.2672177"><ele>451.7142857142857</ele><time>2026-04-11T08:48:17.147Z</time></trkpt><trkpt lat="43.8778628" lon="11.2672518"><ele>452.1428571428571</ele><time>2026-04-11T08:48:19.147Z</time></trkpt><trkpt lat="43.8779344" lon="11.2672735"><ele>452.5714285714285</ele><time>2026-04-11T08:48:21.146Z</time></trkpt><trkpt lat="43.878007" lon="11.2673013"><ele>452.99999999999994</ele><time>2026-04-11T08:48:23.147Z</time></trkpt><trkpt lat="43.8780813" lon="11.2673579"><ele>453.0</ele><time>2026-04-11T08:48:25.147Z</time></trkpt><trkpt lat="43.8781613" lon="11.2674104"><ele>452.99999999999994</ele><time>2026-04-11T08:48:27.146Z</time></trkpt><trkpt lat="43.8782431" lon="11.267414"><ele>452.99999999999994</ele><time>2026-04-11T08:48:29.147Z</time></trkpt><trkpt lat="43.8783343" lon="11.2674156"><ele>453.0</ele><time>2026-04-11T08:48:31.147Z</time></trkpt><trkpt lat="43.8784479" lon="11.2674324"><ele>453.0</ele><time>2026-04-11T08:48:33.147Z</time></trkpt><trkpt lat="43.8785617" lon="11.2674581"><ele>451.2</ele><time>2026-04-11T08:48:35.147Z</time></trkpt><trkpt lat="43.8786621" lon="11.2674528"><ele>449.4</ele><time>2026-04-11T08:48:37.146Z</time></trkpt><trkpt lat="43.8787637" lon="11.2673602"><ele>447.59999999999997</ele><time>2026-04-11T08:48:39.146Z</time></trkpt><trkpt lat="43.8788661" lon="11.2672689"><ele>445.79999999999995</ele><time>2026-04-11T08:48:41.147Z</time></trkpt><trkpt lat="43.8789295" lon="11.2672258"><ele>444.0</ele><time>2026-04-11T08:48:42.147Z</time></trkpt><trkpt lat="43.8789922" lon="11.2671697"><ele>442.0</ele><time>2026-04-11T08:48:43.146Z</time></trkpt><trkpt lat="43.8790617" lon="11.2671058"><ele>440.0</ele><time>2026-04-11T08:48:44.146Z</time></trkpt><trkpt lat="43.8791269" lon="11.2670406"><ele>438.0</ele><time>2026-04-11T08:48:45.145Z</time></trkpt><trkpt lat="43.8791879" lon="11.2669501"><ele>436.0</ele><time>2026-04-11T08:48:46.146Z</time></trkpt><trkpt lat="43.8792415" lon="11.266865"><ele>434.0</ele><time>2026-04-11T08:48:47.147Z</time></trkpt><trkpt lat="43.8792865" lon="11.2667982"><ele>432.0</ele><time>2026-04-11T08:48:48.147Z</time></trkpt><trkpt lat="43.8793267" lon="11.2667277"><ele>431.85714285714283</ele><time>2026-04-11T08:48:49.147Z</time></trkpt><trkpt lat="43.8793719" lon="11.2666594"><ele>431.71428571428567</ele><time>2026-04-11T08:48:50.147Z</time></trkpt><trkpt lat="43.8794217" lon="11.2665917"><ele>431.57142857142856</ele><time>2026-04-11T08:48:51.147Z</time></trkpt><trkpt lat="43.8794834" lon="11.2665318"><ele>431.42857142857144</ele><time>2026-04-11T08:48:52.146Z</time></trkpt><trkpt lat="43.879546" lon="11.266489"><ele>431.2857142857143</ele><time>2026-04-11T08:48:53.147Z</time></trkpt><trkpt lat="43.8796069" lon="11.266458"><ele>431.14285714285717</ele><time>2026-04-11T08:48:54.147Z</time></trkpt><trkpt lat="43.8796677" lon="11.2664294"><ele>431.0</ele><time>2026-04-11T08:48:55.147Z</time></trkpt><trkpt lat="43.8797908" lon="11.2663878"><ele>429.16666666666663</ele><time>2026-04-11T08:48:57.146Z</time></trkpt><trkpt lat="43.8798656" lon="11.2663805"><ele>427.3333333333333</ele><time>2026-04-11T08:48:58.146Z</time></trkpt><trkpt lat="43.8799328" lon="11.2663683"><ele>425.5</ele><time>2026-04-11T08:48:59.147Z</time></trkpt><trkpt lat="43.8800012" lon="11.2663697"><ele>423.66666666666663</ele><time>2026-04-11T08:49:00.147Z</time></trkpt><trkpt lat="43.8800734" lon="11.266361"><ele>421.8333333333333</ele><time>2026-04-11T08:49:01.147Z</time></trkpt><trkpt lat="43.8801896" lon="11.2663414"><ele>420.0</ele><time>2026-04-11T08:49:03.147Z</time></trkpt><trkpt lat="43.8802915" lon="11.266334"><ele>419.2</ele><time>2026-04-11T08:49:05.147Z</time></trkpt><trkpt lat="43.8804004" lon="11.2663316"><ele>418.4</ele><time>2026-04-11T08:49:07.147Z</time></trkpt><trkpt lat="43.8804898" lon="11.2662758"><ele>417.6</ele><time>2026-04-11T08:49:09.147Z</time></trkpt><trkpt lat="43.880566" lon="11.2662071"><ele>416.8</ele><time>2026-04-11T08:49:11.147Z</time></trkpt><trkpt lat="43.8806377" lon="11.2661431"><ele>416.0</ele><time>2026-04-11T08:49:13.147Z</time></trkpt><trkpt lat="43.880716" lon="11.2660981"><ele>416.0</ele><time>2026-04-11T08:49:15.146Z</time></trkpt><trkpt lat="43.8808101" lon="11.2661076"><ele>416.0</ele><time>2026-04-11T08:49:18.147Z</time></trkpt><trkpt lat="43.880879" lon="11.2661767"><ele>416.0</ele><time>2026-04-11T08:49:20.146Z</time></trkpt><trkpt lat="43.8809182" lon="11.2662617"><ele>416.0</ele><time>2026-04-11T08:49:21.147Z</time></trkpt><trkpt lat="43.8809946" lon="11.2663517"><ele>416.0</ele><time>2026-04-11T08:49:23.146Z</time></trkpt><trkpt lat="43.881081" lon="11.2664179"><ele>414.6</ele><time>2026-04-11T08:49:25.147Z</time></trkpt><trkpt lat="43.881148" lon="11.2663897"><ele>413.20000000000005</ele><time>2026-04-11T08:49:26.146Z</time></trkpt><trkpt lat="43.8812502" lon="11.2663319"><ele>411.79999999999995</ele><time>2026-04-11T08:49:28.146Z</time></trkpt><trkpt lat="43.8813774" lon="11.2662922"><ele>410.4</ele><time>2026-04-11T08:49:30.146Z</time></trkpt><trkpt lat="43.8814487" lon="11.2662732"><ele>409.0</ele><time>2026-04-11T08:49:31.147Z</time></trkpt><trkpt lat="43.8815236" lon="11.2662705"><ele>409.00000000000006</ele><time>2026-04-11T08:49:32.147Z</time></trkpt><trkpt lat="43.8815975" lon="11.2662458"><ele>409.0</ele><time>2026-04-11T08:49:33.147Z</time></trkpt><trkpt lat="43.881671" lon="11.2662217"><ele>409.0</ele><time>2026-04-11T08:49:34.147Z</time></trkpt><trkpt lat="43.8817385" lon="11.2662095"><ele>409.0</ele><time>2026-04-11T08:49:35.147Z</time></trkpt><trkpt lat="43.8818558" lon="11.2662444"><ele>409.00000000000006</ele><time>2026-04-11T08:49:37.146Z</time></trkpt><trkpt lat="43.8819161" lon="11.2662941"><ele>409.0</ele><time>2026-04-11T08:49:38.147Z</time></trkpt><trkpt lat="43.8819757" lon="11.2663462"><ele>410.00000000000006</ele><time>2026-04-11T08:49:39.146Z</time></trkpt><trkpt lat="43.8820291" lon="11.2664013"><ele>411.0</ele><time>2026-04-11T08:49:40.146Z</time></trkpt><trkpt lat="43.8820848" lon="11.2664571"><ele>412.0</ele><time>2026-04-11T08:49:41.147Z</time></trkpt><trkpt lat="43.8821781" lon="11.2665456"><ele>413.0</ele><time>2026-04-11T08:49:43.146Z</time></trkpt><trkpt lat="43.8822541" lon="11.266631"><ele>414.00000000000006</ele><time>2026-04-11T08:49:45.146Z</time></trkpt><trkpt lat="43.8823186" lon="11.2666616"><ele>415.0</ele><time>2026-04-11T08:49:47.146Z</time></trkpt><trkpt lat="43.882409" lon="11.2667087"><ele>415.0</ele><time>2026-04-11T08:49:49.146Z</time></trkpt><trkpt lat="43.8825047" lon="11.2667424"><ele>415.0</ele><time>2026-04-11T08:49:51.147Z</time></trkpt><trkpt lat="43.8826046" lon="11.2667468"><ele>415.0</ele><time>2026-04-11T08:49:53.147Z</time></trkpt><trkpt lat="43.8827026" lon="11.2667306"><ele>415.0</ele><time>2026-04-11T08:49:55.147Z</time></trkpt><trkpt lat="43.8827766" lon="11.2666905"><ele>415.0</ele><time>2026-04-11T08:49:57.147Z</time></trkpt><trkpt lat="43.8828626" lon="11.2666459"><ele>412.4</ele><time>2026-04-11T08:49:59.147Z</time></trkpt><trkpt lat="43.882949" lon="11.2665767"><ele>409.8</ele><time>2026-04-11T08:50:01.146Z</time></trkpt><trkpt lat="43.883039" lon="11.2665249"><ele>407.20000000000005</ele><time>2026-04-11T08:50:03.147Z</time></trkpt><trkpt lat="43.8831533" lon="11.2665042"><ele>404.6</ele><time>2026-04-11T08:50:05.147Z</time></trkpt><trkpt lat="43.8832182" lon="11.2664856"><ele>402.0</ele><time>2026-04-11T08:50:06.146Z</time></trkpt><trkpt lat="43.8833442" lon="11.2664625"><ele>402.0</ele><time>2026-04-11T08:50:08.147Z</time></trkpt><trkpt lat="43.8834124" lon="11.2664538"><ele>402.0</ele><time>2026-04-11T08:50:09.146Z</time></trkpt><trkpt lat="43.8834877" lon="11.2664526"><ele>402.0</ele><time>2026-04-11T08:50:10.147Z</time></trkpt><trkpt lat="43.8835544" lon="11.266455"><ele>402.0</ele><time>2026-04-11T08:50:11.146Z</time></trkpt><trkpt lat="43.8836201" lon="11.2664614"><ele>402.0</ele><time>2026-04-11T08:50:12.147Z</time></trkpt><trkpt lat="43.883732" lon="11.2664841"><ele>402.0</ele><time>2026-04-11T08:50:14.146Z</time></trkpt><trkpt lat="43.8838475" lon="11.2664997"><ele>399.8</ele><time>2026-04-11T08:50:16.146Z</time></trkpt><trkpt lat="43.8839686" lon="11.2665278"><ele>397.6</ele><time>2026-04-11T08:50:18.147Z</time></trkpt><trkpt lat="43.8840853" lon="11.266552"><ele>395.40000000000003</ele><time>2026-04-11T08:50:20.146Z</time></trkpt><trkpt lat="43.8841489" lon="11.2665759"><ele>393.20000000000005</ele><time>2026-04-11T08:50:21.147Z</time></trkpt><trkpt lat="43.8842121" lon="11.2665964"><ele>391.0</ele><time>2026-04-11T08:50:22.147Z</time></trkpt><trkpt lat="43.8843229" lon="11.2666318"><ele>388.0</ele><time>2026-04-11T08:50:24.147Z</time></trkpt><trkpt lat="43.8844201" lon="11.2666659"><ele>385.0</ele><time>2026-04-11T08:50:26.147Z</time></trkpt><trkpt lat="43.8845142" lon="11.2667036"><ele>382.0</ele><time>2026-04-11T08:50:28.146Z</time></trkpt><trkpt lat="43.8846017" lon="11.2667463"><ele>379.0</ele><time>2026-04-11T08:50:30.147Z</time></trkpt><trkpt lat="43.8846781" lon="11.266797"><ele>376.0</ele><time>2026-04-11T08:50:32.147Z</time></trkpt><trkpt lat="43.8847546" lon="11.2668515"><ele>376.0</ele><time>2026-04-11T08:50:34.146Z</time></trkpt><trkpt lat="43.884826" lon="11.2668732"><ele>376.0</ele><time>2026-04-11T08:50:36.146Z</time></trkpt><trkpt lat="43.8849005" lon="11.2668448"><ele>376.0</ele><time>2026-04-11T08:50:38.146Z</time></trkpt><trkpt lat="43.8849125" lon="11.2667493"><ele>376.0</ele><time>2026-04-11T08:50:40.147Z</time></trkpt><trkpt lat="43.8848427" lon="11.266632"><ele>376.0</ele><time>2026-04-11T08:50:42.146Z</time></trkpt><trkpt lat="43.8847336" lon="11.2664435"><ele>373.0</ele><time>2026-04-11T08:50:44.147Z</time></trkpt><trkpt lat="43.8846797" lon="11.2663488"><ele>370.0</ele><time>2026-04-11T08:50:45.146Z</time></trkpt><trkpt lat="43.8846202" lon="11.2662567"><ele>367.0</ele><time>2026-04-11T08:50:46.147Z</time></trkpt><trkpt lat="43.8845613" lon="11.2661717"><ele>364.0</ele><time>2026-04-11T08:50:47.147Z</time></trkpt><trkpt lat="43.8844989" lon="11.2660917"><ele>361.0</ele><time>2026-04-11T08:50:48.147Z</time></trkpt><trkpt lat="43.8844236" lon="11.2660052"><ele>358.0</ele><time>2026-04-11T08:50:49.147Z</time></trkpt><trkpt lat="43.8843481" lon="11.2659278"><ele>358.0</ele><time>2026-04-11T08:50:50.147Z</time></trkpt><trkpt lat="43.8842802" lon="11.265871"><ele>358.0</ele><time>2026-04-11T08:50:51.146Z</time></trkpt><trkpt lat="43.884215" lon="11.2658188"><ele>358.0</ele><time>2026-04-11T08:50:52.145Z</time></trkpt><trkpt lat="43.884151" lon="11.2657842"><ele>358.0</ele><time>2026-04-11T08:50:53.147Z</time></trkpt><trkpt lat="43.8840491" lon="11.2657202"><ele>358.0</ele><time>2026-04-11T08:50:55.147Z</time></trkpt><trkpt lat="43.8840239" lon="11.2656004"><ele>358.0</ele><time>2026-04-11T08:50:57.147Z</time></trkpt><trkpt lat="43.8841288" lon="11.265508"><ele>358.2</ele><time>2026-04-11T08:50:59.147Z</time></trkpt><trkpt lat="43.8842222" lon="11.2655015"><ele>358.4</ele><time>2026-04-11T08:51:00.147Z</time></trkpt><trkpt lat="43.8843252" lon="11.2655007"><ele>358.59999999999997</ele><time>2026-04-11T08:51:01.146Z</time></trkpt><trkpt lat="43.8844296" lon="11.2654938"><ele>358.79999999999995</ele><time>2026-04-11T08:51:02.146Z</time></trkpt><trkpt lat="43.884532" lon="11.2654841"><ele>359.0</ele><time>2026-04-11T08:51:03.147Z</time></trkpt><trkpt lat="43.8846235" lon="11.2654752"><ele>359.1666666666667</ele><time>2026-04-11T08:51:04.147Z</time></trkpt><trkpt lat="43.8847107" lon="11.2654708"><ele>359.33333333333337</ele><time>2026-04-11T08:51:05.147Z</time></trkpt><trkpt lat="43.8848008" lon="11.2654847"><ele>359.5</ele><time>2026-04-11T08:51:06.146Z</time></trkpt><trkpt lat="43.8848838" lon="11.2655033"><ele>359.6666666666667</ele><time>2026-04-11T08:51:07.147Z</time></trkpt><trkpt lat="43.8849635" lon="11.2655216"><ele>359.8333333333333</ele><time>2026-04-11T08:51:08.147Z</time></trkpt><trkpt lat="43.8850439" lon="11.2655438"><ele>360.0</ele><time>2026-04-11T08:51:09.146Z</time></trkpt><trkpt lat="43.8851239" lon="11.2655756"><ele>360.8333333333333</ele><time>2026-04-11T08:51:10.147Z</time></trkpt><trkpt lat="43.8851957" lon="11.2656174"><ele>361.6666666666667</ele><time>2026-04-11T08:51:11.147Z</time></trkpt><trkpt lat="43.8852646" lon="11.2656571"><ele>362.5</ele><time>2026-04-11T08:51:12.146Z</time></trkpt><trkpt lat="43.8853315" lon="11.2656801"><ele>363.33333333333337</ele><time>2026-04-11T08:51:13.146Z</time></trkpt><trkpt lat="43.8854452" lon="11.2656357"><ele>364.1666666666667</ele><time>2026-04-11T08:51:15.147Z</time></trkpt><trkpt lat="43.8855381" lon="11.2655803"><ele>365.0</ele><time>2026-04-11T08:51:17.147Z</time></trkpt><trkpt lat="43.8856456" lon="11.2656731"><ele>361.33333333333337</ele><time>2026-04-11T08:51:19.147Z</time></trkpt><trkpt lat="43.8856993" lon="11.2657426"><ele>357.6666666666667</ele><time>2026-04-11T08:51:20.146Z</time></trkpt><trkpt lat="43.8857601" lon="11.265807"><ele>354.0</ele><time>2026-04-11T08:51:21.146Z</time></trkpt><trkpt lat="43.8858241" lon="11.2658725"><ele>350.3333333333333</ele><time>2026-04-11T08:51:22.146Z</time></trkpt><trkpt lat="43.8858886" lon="11.2659382"><ele>346.66666666666663</ele><time>2026-04-11T08:51:23.146Z</time></trkpt><trkpt lat="43.8859593" lon="11.2660155"><ele>343.0</ele><time>2026-04-11T08:51:24.147Z</time></trkpt><trkpt lat="43.8860356" lon="11.2660964"><ele>341.59999999999997</ele><time>2026-04-11T08:51:25.146Z</time></trkpt><trkpt lat="43.8861162" lon="11.2661819"><ele>340.2</ele><time>2026-04-11T08:51:26.146Z</time></trkpt><trkpt lat="43.8862001" lon="11.2662722"><ele>338.8</ele><time>2026-04-11T08:51:27.146Z</time></trkpt><trkpt lat="43.8863037" lon="11.2663494"><ele>337.4</ele><time>2026-04-11T08:51:28.147Z</time></trkpt><trkpt lat="43.8863941" lon="11.2664177"><ele>336.0</ele><time>2026-04-11T08:51:29.147Z</time></trkpt><trkpt lat="43.886479" lon="11.2664729"><ele>336.0</ele><time>2026-04-11T08:51:30.146Z</time></trkpt><trkpt lat="43.8865516" lon="11.2665183"><ele>336.0</ele><time>2026-04-11T08:51:31.147Z</time></trkpt><trkpt lat="43.886611" lon="11.2665516"><ele>336.0</ele><time>2026-04-11T08:51:32.147Z</time></trkpt><trkpt lat="43.886712" lon="11.2666056"><ele>336.0</ele><time>2026-04-11T08:51:34.146Z</time></trkpt><trkpt lat="43.8867853" lon="11.2666444"><ele>336.0</ele><time>2026-04-11T08:51:36.147Z</time></trkpt><trkpt lat="43.8868588" lon="11.2666777"><ele>336.0</ele><time>2026-04-11T08:51:39.145Z</time></trkpt><trkpt lat="43.8869575" lon="11.2667283"><ele>336.20000000000005</ele><time>2026-04-11T08:51:56.147Z</time></trkpt><trkpt lat="43.8870525" lon="11.266786"><ele>336.40000000000003</ele><time>2026-04-11T08:51:58.145Z</time></trkpt><trkpt lat="43.8871481" lon="11.2668199"><ele>336.6</ele><time>2026-04-11T08:52:00.147Z</time></trkpt><trkpt lat="43.8872514" lon="11.2668781"><ele>336.8</ele><time>2026-04-11T08:52:02.147Z</time></trkpt><trkpt lat="43.8873312" lon="11.266903"><ele>337.0</ele><time>2026-04-11T08:52:04.154Z</time></trkpt><trkpt lat="43.8874494" lon="11.2669207"><ele>337.0</ele><time>2026-04-11T08:52:06.138Z</time></trkpt><trkpt lat="43.8875255" lon="11.2669525"><ele>337.0</ele><time>2026-04-11T08:52:07.142Z</time></trkpt><trkpt lat="43.8876019" lon="11.2670132"><ele>337.0</ele><time>2026-04-11T08:52:08.138Z</time></trkpt><trkpt lat="43.8876767" lon="11.267096"><ele>337.0</ele><time>2026-04-11T08:52:09.142Z</time></trkpt><trkpt lat="43.8877463" lon="11.2671814"><ele>337.0</ele><time>2026-04-11T08:52:10.142Z</time></trkpt><trkpt lat="43.8878127" lon="11.2672625"><ele>337.0</ele><time>2026-04-11T08:52:11.142Z</time></trkpt><trkpt lat="43.8878782" lon="11.2673387"><ele>336.6</ele><time>2026-04-11T08:52:12.142Z</time></trkpt><trkpt lat="43.8879544" lon="11.2674265"><ele>336.20000000000005</ele><time>2026-04-11T08:52:13.141Z</time></trkpt><trkpt lat="43.8880303" lon="11.2675049"><ele>335.8</ele><time>2026-04-11T08:52:14.142Z</time></trkpt><trkpt lat="43.888111" lon="11.2675696"><ele>335.4</ele><time>2026-04-11T08:52:15.142Z</time></trkpt><trkpt lat="43.8882024" lon="11.2676105"><ele>335.0</ele><time>2026-04-11T08:52:16.142Z</time></trkpt><trkpt lat="43.8882956" lon="11.2676194"><ele>335.0</ele><time>2026-04-11T08:52:17.142Z</time></trkpt><trkpt lat="43.8884151" lon="11.2675968"><ele>335.0</ele><time>2026-04-11T08:52:18.142Z</time></trkpt><trkpt lat="43.8885319" lon="11.2675512"><ele>335.0</ele><time>2026-04-11T08:52:19.142Z</time></trkpt><trkpt lat="43.8886474" lon="11.2674689"><ele>335.0</ele><time>2026-04-11T08:52:20.142Z</time></trkpt><trkpt lat="43.8887495" lon="11.2673619"><ele>337.25</ele><time>2026-04-11T08:52:21.142Z</time></trkpt><trkpt lat="43.8888502" lon="11.2672451"><ele>339.5</ele><time>2026-04-11T08:52:22.142Z</time></trkpt><trkpt lat="43.8889526" lon="11.2671239"><ele>341.75</ele><time>2026-04-11T08:52:23.142Z</time></trkpt><trkpt lat="43.8890618" lon="11.2670059"><ele>344.0</ele><time>2026-04-11T08:52:24.142Z</time></trkpt><trkpt lat="43.8891885" lon="11.2669167"><ele>344.75</ele><time>2026-04-11T08:52:25.142Z</time></trkpt><trkpt lat="43.8893301" lon="11.266858"><ele>345.5</ele><time>2026-04-11T08:52:26.142Z</time></trkpt><trkpt lat="43.8894789" lon="11.2668235"><ele>346.25</ele><time>2026-04-11T08:52:27.142Z</time></trkpt><trkpt lat="43.8896261" lon="11.266809"><ele>347.0</ele><time>2026-04-11T08:52:28.142Z</time></trkpt><trkpt lat="43.8897725" lon="11.2668173"><ele>347.0</ele><time>2026-04-11T08:52:29.142Z</time></trkpt><trkpt lat="43.889918" lon="11.2668442"><ele>347.0</ele><time>2026-04-11T08:52:30.142Z</time></trkpt><trkpt lat="43.8900577" lon="11.2668909"><ele>347.0</ele><time>2026-04-11T08:52:31.142Z</time></trkpt><trkpt lat="43.8901854" lon="11.2669418"><ele>347.0</ele><time>2026-04-11T08:52:32.142Z</time></trkpt><trkpt lat="43.890297" lon="11.2669848"><ele>346.25</ele><time>2026-04-11T08:52:33.142Z</time></trkpt><trkpt lat="43.8904152" lon="11.2670273"><ele>345.5</ele><time>2026-04-11T08:52:34.141Z</time></trkpt><trkpt lat="43.8905288" lon="11.2670453"><ele>344.75</ele><time>2026-04-11T08:52:35.142Z</time></trkpt><trkpt lat="43.8906558" lon="11.2670234"><ele>344.0</ele><time>2026-04-11T08:52:36.142Z</time></trkpt><trkpt lat="43.8907918" lon="11.2669618"><ele>343.0</ele><time>2026-04-11T08:52:37.142Z</time></trkpt><trkpt lat="43.8909306" lon="11.2668741"><ele>342.0</ele><time>2026-04-11T08:52:38.142Z</time></trkpt><trkpt lat="43.8910628" lon="11.2667751"><ele>341.0</ele><time>2026-04-11T08:52:39.142Z</time></trkpt><trkpt lat="43.8911866" lon="11.2666741"><ele>340.0</ele><time>2026-04-11T08:52:40.142Z</time></trkpt><trkpt lat="43.8913063" lon="11.2665818"><ele>340.0</ele><time>2026-04-11T08:52:41.142Z</time></trkpt><trkpt lat="43.8914332" lon="11.2664929"><ele>340.0</ele><time>2026-04-11T08:52:42.142Z</time></trkpt><trkpt lat="43.8915695" lon="11.2664157"><ele>340.0</ele><time>2026-04-11T08:52:43.142Z</time></trkpt><trkpt lat="43.8917115" lon="11.2663715"><ele>340.0</ele><time>2026-04-11T08:52:44.142Z</time></trkpt><trkpt lat="43.8918716" lon="11.266364"><ele>338.3333333333333</ele><time>2026-04-11T08:52:45.142Z</time></trkpt><trkpt lat="43.8920211" lon="11.2664096"><ele>336.6666666666667</ele><time>2026-04-11T08:52:46.142Z</time></trkpt><trkpt lat="43.8921558" lon="11.2665011"><ele>335.0</ele><time>2026-04-11T08:52:47.142Z</time></trkpt><trkpt lat="43.892277" lon="11.2666313"><ele>335.0</ele><time>2026-04-11T08:52:48.145Z</time></trkpt><trkpt lat="43.8923825" lon="11.2667827"><ele>335.0</ele><time>2026-04-11T08:52:49.146Z</time></trkpt><trkpt lat="43.8924803" lon="11.2669262"><ele>335.0</ele><time>2026-04-11T08:52:50.145Z</time></trkpt><trkpt lat="43.8925942" lon="11.267062"><ele>335.0</ele><time>2026-04-11T08:52:51.145Z</time></trkpt><trkpt lat="43.8927101" lon="11.2671597"><ele>334.0</ele><time>2026-04-11T08:52:52.145Z</time></trkpt><trkpt lat="43.8928306" lon="11.2672292"><ele>333.0</ele><time>2026-04-11T08:52:53.145Z</time></trkpt><trkpt lat="43.892969" lon="11.2672636"><ele>332.0</ele><time>2026-04-11T08:52:54.145Z</time></trkpt><trkpt lat="43.8931171" lon="11.2672599"><ele>331.0</ele><time>2026-04-11T08:52:55.146Z</time></trkpt><trkpt lat="43.8932556" lon="11.2672238"><ele>331.0</ele><time>2026-04-11T08:52:56.145Z</time></trkpt><trkpt lat="43.893398" lon="11.267167"><ele>331.0</ele><time>2026-04-11T08:52:57.144Z</time></trkpt><trkpt lat="43.8935279" lon="11.2671115"><ele>331.0</ele><time>2026-04-11T08:52:58.145Z</time></trkpt><trkpt lat="43.8936642" lon="11.267071"><ele>331.0</ele><time>2026-04-11T08:52:59.145Z</time></trkpt><trkpt lat="43.8938073" lon="11.2670657"><ele>335.0</ele><time>2026-04-11T08:53:00.146Z</time></trkpt><trkpt lat="43.8939504" lon="11.2670968"><ele>339.0</ele><time>2026-04-11T08:53:01.146Z</time></trkpt><trkpt lat="43.8940886" lon="11.2671634"><ele>343.0</ele><time>2026-04-11T08:53:02.145Z</time></trkpt><trkpt lat="43.8942109" lon="11.2672496"><ele>347.0</ele><time>2026-04-11T08:53:03.146Z</time></trkpt><trkpt lat="43.8943182" lon="11.2673607"><ele>351.0</ele><time>2026-04-11T08:53:04.145Z</time></trkpt><trkpt lat="43.8944035" lon="11.2675069"><ele>355.0</ele><time>2026-04-11T08:53:05.145Z</time></trkpt><trkpt lat="43.894461" lon="11.2676834"><ele>359.0</ele><time>2026-04-11T08:53:06.146Z</time></trkpt><trkpt lat="43.8944683" lon="11.2678887"><ele>363.0</ele><time>2026-04-11T08:53:07.146Z</time></trkpt><trkpt lat="43.8944597" lon="11.2680806"><ele>357.5</ele><time>2026-04-11T08:53:08.145Z</time></trkpt><trkpt lat="43.8944574" lon="11.2682812"><ele>352.0</ele><time>2026-04-11T08:53:09.146Z</time></trkpt><trkpt lat="43.894464" lon="11.268478"><ele>346.5</ele><time>2026-04-11T08:53:10.144Z</time></trkpt><trkpt lat="43.8944799" lon="11.2686806"><ele>341.0</ele><time>2026-04-11T08:53:11.146Z</time></trkpt><trkpt lat="43.8945114" lon="11.268883"><ele>335.33333333333337</ele><time>2026-04-11T08:53:12.145Z</time></trkpt><trkpt lat="43.8945564" lon="11.2690879"><ele>329.6666666666667</ele><time>2026-04-11T08:53:13.145Z</time></trkpt><trkpt lat="43.8946013" lon="11.2692915"><ele>324.0</ele><time>2026-04-11T08:53:14.146Z</time></trkpt><trkpt lat="43.8946422" lon="11.2694989"><ele>324.0</ele><time>2026-04-11T08:53:15.146Z</time></trkpt><trkpt lat="43.8946832" lon="11.2697155"><ele>324.0</ele><time>2026-04-11T08:53:16.146Z</time></trkpt><trkpt lat="43.8947326" lon="11.2699318"><ele>324.0</ele><time>2026-04-11T08:53:17.145Z</time></trkpt><trkpt lat="43.8947904" lon="11.2701455"><ele>322.3333333333333</ele><time>2026-04-11T08:53:18.145Z</time></trkpt><trkpt lat="43.8948604" lon="11.270353"><ele>320.66666666666663</ele><time>2026-04-11T08:53:19.146Z</time></trkpt><trkpt lat="43.894936" lon="11.2705455"><ele>319.0</ele><time>2026-04-11T08:53:20.146Z</time></trkpt><trkpt lat="43.8950104" lon="11.2707307"><ele>318.3333333333333</ele><time>2026-04-11T08:53:21.146Z</time></trkpt><trkpt lat="43.8950851" lon="11.2709066"><ele>317.6666666666667</ele><time>2026-04-11T08:53:22.145Z</time></trkpt><trkpt lat="43.8951664" lon="11.27109"><ele>317.0</ele><time>2026-04-11T08:53:23.145Z</time></trkpt><trkpt lat="43.895244" lon="11.2712811"><ele>323.0</ele><time>2026-04-11T08:53:24.146Z</time></trkpt><trkpt lat="43.895315" lon="11.2714798"><ele>329.0</ele><time>2026-04-11T08:53:25.145Z</time></trkpt><trkpt lat="43.8953789" lon="11.2716704"><ele>335.0</ele><time>2026-04-11T08:53:26.145Z</time></trkpt><trkpt lat="43.8954443" lon="11.2718472"><ele>335.0</ele><time>2026-04-11T08:53:27.146Z</time></trkpt><trkpt lat="43.8955111" lon="11.2720297"><ele>335.0</ele><time>2026-04-11T08:53:28.146Z</time></trkpt><trkpt lat="43.8955763" lon="11.2722136"><ele>335.0</ele><time>2026-04-11T08:53:29.144Z</time></trkpt><trkpt lat="43.8956307" lon="11.2723897"><ele>335.0</ele><time>2026-04-11T08:53:30.146Z</time></trkpt><trkpt lat="43.8956522" lon="11.2725866"><ele>332.33333333333337</ele><time>2026-04-11T08:53:31.146Z</time></trkpt><trkpt lat="43.8956471" lon="11.2727968"><ele>329.6666666666667</ele><time>2026-04-11T08:53:32.146Z</time></trkpt><trkpt lat="43.8956399" lon="11.2730145"><ele>327.0</ele><time>2026-04-11T08:53:33.145Z</time></trkpt><trkpt lat="43.8956355" lon="11.2732331"><ele>324.6666666666667</ele><time>2026-04-11T08:53:34.145Z</time></trkpt><trkpt lat="43.8956416" lon="11.2734595"><ele>322.33333333333337</ele><time>2026-04-11T08:53:35.146Z</time></trkpt><trkpt lat="43.8956766" lon="11.2736869"><ele>320.0</ele><time>2026-04-11T08:53:36.146Z</time></trkpt><trkpt lat="43.8957312" lon="11.273891"><ele>317.33333333333337</ele><time>2026-04-11T08:53:37.145Z</time></trkpt><trkpt lat="43.8958035" lon="11.2740751"><ele>314.6666666666667</ele><time>2026-04-11T08:53:38.146Z</time></trkpt><trkpt lat="43.895897" lon="11.2742493"><ele>312.0</ele><time>2026-04-11T08:53:39.146Z</time></trkpt><trkpt lat="43.8960081" lon="11.2744069"><ele>318.6666666666667</ele><time>2026-04-11T08:53:40.146Z</time></trkpt><trkpt lat="43.8961223" lon="11.2745648"><ele>325.33333333333337</ele><time>2026-04-11T08:53:41.145Z</time></trkpt><trkpt lat="43.896208" lon="11.2747563"><ele>332.0</ele><time>2026-04-11T08:53:42.146Z</time></trkpt><trkpt lat="43.8962689" lon="11.2749669"><ele>332.0</ele><time>2026-04-11T08:53:43.145Z</time></trkpt><trkpt lat="43.8962899" lon="11.2752017"><ele>332.0</ele><time>2026-04-11T08:53:44.145Z</time></trkpt><trkpt lat="43.8962816" lon="11.275444"><ele>332.0</ele><time>2026-04-11T08:53:45.146Z</time></trkpt><trkpt lat="43.896277" lon="11.2756784"><ele>330.33333333333337</ele><time>2026-04-11T08:53:46.145Z</time></trkpt><trkpt lat="43.8962722" lon="11.2759035"><ele>328.6666666666667</ele><time>2026-04-11T08:53:47.145Z</time></trkpt><trkpt lat="43.8962639" lon="11.2761264"><ele>327.0</ele><time>2026-04-11T08:53:48.145Z</time></trkpt><trkpt lat="43.8962558" lon="11.2763554"><ele>326.6666666666667</ele><time>2026-04-11T08:53:49.146Z</time></trkpt><trkpt lat="43.8962495" lon="11.2765887"><ele>326.33333333333337</ele><time>2026-04-11T08:53:50.145Z</time></trkpt><trkpt lat="43.8962453" lon="11.2768225"><ele>326.0</ele><time>2026-04-11T08:53:51.145Z</time></trkpt><trkpt lat="43.8962532" lon="11.2770565"><ele>324.6666666666667</ele><time>2026-04-11T08:53:52.146Z</time></trkpt><trkpt lat="43.896279" lon="11.2772941"><ele>323.3333333333333</ele><time>2026-04-11T08:53:53.145Z</time></trkpt><trkpt lat="43.8963225" lon="11.277527"><ele>322.0</ele><time>2026-04-11T08:53:54.146Z</time></trkpt><trkpt lat="43.8963891" lon="11.2777415"><ele>322.0</ele><time>2026-04-11T08:53:55.146Z</time></trkpt><trkpt lat="43.8964771" lon="11.2779495"><ele>322.0</ele><time>2026-04-11T08:53:56.146Z</time></trkpt><trkpt lat="43.8965782" lon="11.2781482"><ele>322.0</ele><time>2026-04-11T08:53:57.146Z</time></trkpt><trkpt lat="43.8966856" lon="11.278345"><ele>323.0</ele><time>2026-04-11T08:53:58.146Z</time></trkpt><trkpt lat="43.8967921" lon="11.2785424"><ele>324.0</ele><time>2026-04-11T08:53:59.146Z</time></trkpt><trkpt lat="43.8968921" lon="11.278735"><ele>325.0</ele><time>2026-04-11T08:54:00.146Z</time></trkpt><trkpt lat="43.8969902" lon="11.2789382"><ele>325.0</ele><time>2026-04-11T08:54:01.144Z</time></trkpt><trkpt lat="43.897075" lon="11.2791621"><ele>325.0</ele><time>2026-04-11T08:54:02.145Z</time></trkpt><trkpt lat="43.8971389" lon="11.279405"><ele>325.0</ele><time>2026-04-11T08:54:03.145Z</time></trkpt><trkpt lat="43.8971869" lon="11.279659"><ele>323.0</ele><time>2026-04-11T08:54:04.146Z</time></trkpt><trkpt lat="43.8972215" lon="11.2799208"><ele>321.0</ele><time>2026-04-11T08:54:05.145Z</time></trkpt><trkpt lat="43.8972403" lon="11.2801871"><ele>319.0</ele><time>2026-04-11T08:54:06.146Z</time></trkpt><trkpt lat="43.8972543" lon="11.280452"><ele>318.66666666666663</ele><time>2026-04-11T08:54:07.146Z</time></trkpt><trkpt lat="43.8972676" lon="11.2806961"><ele>318.3333333333333</ele><time>2026-04-11T08:54:08.145Z</time></trkpt><trkpt lat="43.8972773" lon="11.2809293"><ele>318.0</ele><time>2026-04-11T08:54:09.146Z</time></trkpt><trkpt lat="43.8972765" lon="11.2811612"><ele>318.0</ele><time>2026-04-11T08:54:10.145Z</time></trkpt><trkpt lat="43.8972656" lon="11.2813786"><ele>318.0</ele><time>2026-04-11T08:54:11.146Z</time></trkpt><trkpt lat="43.8972532" lon="11.2815828"><ele>318.0</ele><time>2026-04-11T08:54:12.145Z</time></trkpt><trkpt lat="43.8972402" lon="11.2817825"><ele>318.0</ele><time>2026-04-11T08:54:13.146Z</time></trkpt><trkpt lat="43.8972283" lon="11.2819795"><ele>318.2</ele><time>2026-04-11T08:54:14.145Z</time></trkpt><trkpt lat="43.897217" lon="11.2821691"><ele>318.4</ele><time>2026-04-11T08:54:15.146Z</time></trkpt><trkpt lat="43.8972062" lon="11.2823368"><ele>318.59999999999997</ele><time>2026-04-11T08:54:16.146Z</time></trkpt><trkpt lat="43.8971999" lon="11.2824782"><ele>318.8</ele><time>2026-04-11T08:54:17.145Z</time></trkpt><trkpt lat="43.8971931" lon="11.2825952"><ele>319.0</ele><time>2026-04-11T08:54:18.146Z</time></trkpt><trkpt lat="43.8971863" lon="11.2826829"><ele>317.8</ele><time>2026-04-11T08:54:19.146Z</time></trkpt><trkpt lat="43.8971853" lon="11.2828026"><ele>316.59999999999997</ele><time>2026-04-11T08:54:21.146Z</time></trkpt><trkpt lat="43.8972183" lon="11.2828842"><ele>315.4</ele><time>2026-04-11T08:54:22.146Z</time></trkpt><trkpt lat="43.8972813" lon="11.2829649"><ele>314.2</ele><time>2026-04-11T08:54:23.145Z</time></trkpt><trkpt lat="43.8973676" lon="11.2830557"><ele>313.0</ele><time>2026-04-11T08:54:24.146Z</time></trkpt><trkpt lat="43.8974611" lon="11.2831526"><ele>312.75</ele><time>2026-04-11T08:54:25.146Z</time></trkpt><trkpt lat="43.8975555" lon="11.2832547"><ele>312.5</ele><time>2026-04-11T08:54:26.146Z</time></trkpt><trkpt lat="43.8976516" lon="11.2833506"><ele>312.25</ele><time>2026-04-11T08:54:27.146Z</time></trkpt><trkpt lat="43.8977549" lon="11.2834377"><ele>312.0</ele><time>2026-04-11T08:54:28.145Z</time></trkpt><trkpt lat="43.8978662" lon="11.2835133"><ele>312.0</ele><time>2026-04-11T08:54:29.146Z</time></trkpt><trkpt lat="43.8979975" lon="11.2835836"><ele>312.0</ele><time>2026-04-11T08:54:30.146Z</time></trkpt><trkpt lat="43.8981477" lon="11.2836229"><ele>312.0</ele><time>2026-04-11T08:54:31.146Z</time></trkpt><trkpt lat="43.8982935" lon="11.2836202"><ele>312.0</ele><time>2026-04-11T08:54:32.146Z</time></trkpt><trkpt lat="43.8984506" lon="11.2835828"><ele>308.0</ele><time>2026-04-11T08:54:33.146Z</time></trkpt><trkpt lat="43.8986103" lon="11.283526"><ele>304.0</ele><time>2026-04-11T08:54:34.145Z</time></trkpt><trkpt lat="43.8987768" lon="11.2834577"><ele>300.0</ele><time>2026-04-11T08:54:35.144Z</time></trkpt><trkpt lat="43.8989523" lon="11.2833906"><ele>300.0</ele><time>2026-04-11T08:54:36.145Z</time></trkpt><trkpt lat="43.8991208" lon="11.2833381"><ele>300.0</ele><time>2026-04-11T08:54:37.145Z</time></trkpt><trkpt lat="43.8992854" lon="11.2832979"><ele>300.0</ele><time>2026-04-11T08:54:38.145Z</time></trkpt><trkpt lat="43.8994506" lon="11.2832624"><ele>297.6666666666667</ele><time>2026-04-11T08:54:39.146Z</time></trkpt><trkpt lat="43.8996185" lon="11.2832293"><ele>295.33333333333337</ele><time>2026-04-11T08:54:40.146Z</time></trkpt><trkpt lat="43.8997862" lon="11.2831981"><ele>293.0</ele><time>2026-04-11T08:54:41.146Z</time></trkpt><trkpt lat="43.8999476" lon="11.2831644"><ele>292.0</ele><time>2026-04-11T08:54:42.146Z</time></trkpt><trkpt lat="43.9001027" lon="11.283105"><ele>291.0</ele><time>2026-04-11T08:54:43.146Z</time></trkpt><trkpt lat="43.9002627" lon="11.2830056"><ele>290.0</ele><time>2026-04-11T08:54:44.146Z</time></trkpt><trkpt lat="43.9004191" lon="11.2828898"><ele>290.33333333333337</ele><time>2026-04-11T08:54:45.146Z</time></trkpt><trkpt lat="43.9005788" lon="11.2827854"><ele>290.6666666666667</ele><time>2026-04-11T08:54:46.145Z</time></trkpt><trkpt lat="43.9007516" lon="11.2826997"><ele>291.0</ele><time>2026-04-11T08:54:47.145Z</time></trkpt><trkpt lat="43.9009351" lon="11.2826535"><ele>291.0</ele><time>2026-04-11T08:54:48.145Z</time></trkpt><trkpt lat="43.901114" lon="11.2826468"><ele>291.0</ele><time>2026-04-11T08:54:49.145Z</time></trkpt><trkpt lat="43.9012818" lon="11.2826743"><ele>291.0</ele><time>2026-04-11T08:54:50.145Z</time></trkpt><trkpt lat="43.9014548" lon="11.282725"><ele>291.0</ele><time>2026-04-11T08:54:51.146Z</time></trkpt><trkpt lat="43.9016302" lon="11.2827883"><ele>291.0</ele><time>2026-04-11T08:54:52.145Z</time></trkpt><trkpt lat="43.9018091" lon="11.2828524"><ele>291.0</ele><time>2026-04-11T08:54:53.145Z</time></trkpt><trkpt lat="43.9019851" lon="11.282918"><ele>292.0</ele><time>2026-04-11T08:54:54.146Z</time></trkpt><trkpt lat="43.9021497" lon="11.2829827"><ele>293.0</ele><time>2026-04-11T08:54:55.145Z</time></trkpt><trkpt lat="43.9023182" lon="11.2830459"><ele>294.0</ele><time>2026-04-11T08:54:56.145Z</time></trkpt><trkpt lat="43.9024869" lon="11.2830984"><ele>292.3333333333333</ele><time>2026-04-11T08:54:57.145Z</time></trkpt><trkpt lat="43.9026639" lon="11.2831346"><ele>290.66666666666663</ele><time>2026-04-11T08:54:58.146Z</time></trkpt><trkpt lat="43.9028479" lon="11.2831533"><ele>289.0</ele><time>2026-04-11T08:54:59.146Z</time></trkpt><trkpt lat="43.90303" lon="11.2831638"><ele>289.0</ele><time>2026-04-11T08:55:00.146Z</time></trkpt><trkpt lat="43.9032139" lon="11.2831671"><ele>289.0</ele><time>2026-04-11T08:55:01.146Z</time></trkpt><trkpt lat="43.9033997" lon="11.2831652"><ele>289.0</ele><time>2026-04-11T08:55:02.146Z</time></trkpt><trkpt lat="43.9035872" lon="11.2831619"><ele>288.0</ele><time>2026-04-11T08:55:03.146Z</time></trkpt><trkpt lat="43.9037753" lon="11.2831621"><ele>287.0</ele><time>2026-04-11T08:55:04.145Z</time></trkpt><trkpt lat="43.9039671" lon="11.2831595"><ele>286.0</ele><time>2026-04-11T08:55:05.145Z</time></trkpt><trkpt lat="43.9041631" lon="11.2831551"><ele>284.66666666666663</ele><time>2026-04-11T08:55:06.146Z</time></trkpt><trkpt lat="43.9043526" lon="11.283142"><ele>283.3333333333333</ele><time>2026-04-11T08:55:07.146Z</time></trkpt><trkpt lat="43.9045325" lon="11.2831132"><ele>282.0</ele><time>2026-04-11T08:55:08.146Z</time></trkpt><trkpt lat="43.9047074" lon="11.2830827"><ele>282.0</ele><time>2026-04-11T08:55:09.145Z</time></trkpt><trkpt lat="43.9048817" lon="11.2830519"><ele>282.0</ele><time>2026-04-11T08:55:10.145Z</time></trkpt><trkpt lat="43.905057" lon="11.2830219"><ele>282.0</ele><time>2026-04-11T08:55:11.146Z</time></trkpt><trkpt lat="43.9056561" lon="11.2827001"><ele>282.6666666666667</ele><time>2026-04-11T08:55:15.146Z</time></trkpt><trkpt lat="43.9057996" lon="11.2825782"><ele>283.33333333333337</ele><time>2026-04-11T08:55:16.145Z</time></trkpt><trkpt lat="43.9059683" lon="11.2825214"><ele>284.0</ele><time>2026-04-11T08:55:17.145Z</time></trkpt><trkpt lat="43.9061381" lon="11.2824874"><ele>284.0</ele><time>2026-04-11T08:55:18.146Z</time></trkpt><trkpt lat="43.9063186" lon="11.2824741"><ele>284.0</ele><time>2026-04-11T08:55:19.146Z</time></trkpt><trkpt lat="43.9065002" lon="11.2824587"><ele>284.0</ele><time>2026-04-11T08:55:20.145Z</time></trkpt><trkpt lat="43.9066753" lon="11.2824401"><ele>283.33333333333337</ele><time>2026-04-11T08:55:21.145Z</time></trkpt><trkpt lat="43.9068412" lon="11.2824277"><ele>282.6666666666667</ele><time>2026-04-11T08:55:22.145Z</time></trkpt><trkpt lat="43.9070024" lon="11.2824179"><ele>282.0</ele><time>2026-04-11T08:55:23.146Z</time></trkpt><trkpt lat="43.907177" lon="11.2824019"><ele>282.0</ele><time>2026-04-11T08:55:24.146Z</time></trkpt><trkpt lat="43.9073602" lon="11.2823842"><ele>282.0</ele><time>2026-04-11T08:55:25.145Z</time></trkpt><trkpt lat="43.9075485" lon="11.2823644"><ele>282.0</ele><time>2026-04-11T08:55:26.146Z</time></trkpt><trkpt lat="43.907736" lon="11.2823512"><ele>282.3333333333333</ele><time>2026-04-11T08:55:27.145Z</time></trkpt><trkpt lat="43.9079249" lon="11.2823394"><ele>282.66666666666663</ele><time>2026-04-11T08:55:28.145Z</time></trkpt><trkpt lat="43.9081168" lon="11.2823246"><ele>283.0</ele><time>2026-04-11T08:55:29.145Z</time></trkpt><trkpt lat="43.9083077" lon="11.2823072"><ele>282.66666666666663</ele><time>2026-04-11T08:55:30.146Z</time></trkpt><trkpt lat="43.908488" lon="11.2822925"><ele>282.3333333333333</ele><time>2026-04-11T08:55:31.144Z</time></trkpt><trkpt lat="43.9086582" lon="11.2822789"><ele>282.0</ele><time>2026-04-11T08:55:32.146Z</time></trkpt><trkpt lat="43.9088317" lon="11.2822653"><ele>280.3333333333333</ele><time>2026-04-11T08:55:33.146Z</time></trkpt><trkpt lat="43.9090125" lon="11.2822499"><ele>278.66666666666663</ele><time>2026-04-11T08:55:34.146Z</time></trkpt><trkpt lat="43.9091981" lon="11.2822259"><ele>277.0</ele><time>2026-04-11T08:55:35.146Z</time></trkpt><trkpt lat="43.9093867" lon="11.2821852"><ele>277.0</ele><time>2026-04-11T08:55:36.145Z</time></trkpt><trkpt lat="43.9095762" lon="11.2821253"><ele>277.0</ele><time>2026-04-11T08:55:37.145Z</time></trkpt><trkpt lat="43.9097607" lon="11.2820626"><ele>277.0</ele><time>2026-04-11T08:55:38.146Z</time></trkpt><trkpt lat="43.9099388" lon="11.2820032"><ele>276.66666666666663</ele><time>2026-04-11T08:55:39.146Z</time></trkpt><trkpt lat="43.9101215" lon="11.2819426"><ele>276.3333333333333</ele><time>2026-04-11T08:55:40.146Z</time></trkpt><trkpt lat="43.9103044" lon="11.2818824"><ele>276.0</ele><time>2026-04-11T08:55:41.146Z</time></trkpt><trkpt lat="43.9104963" lon="11.2818324"><ele>276.0</ele><time>2026-04-11T08:55:42.146Z</time></trkpt><trkpt lat="43.9106963" lon="11.2818224"><ele>276.0</ele><time>2026-04-11T08:55:43.146Z</time></trkpt><trkpt lat="43.9108965" lon="11.2818594"><ele>276.0</ele><time>2026-04-11T08:55:44.146Z</time></trkpt><trkpt lat="43.9110826" lon="11.2819331"><ele>275.3333333333333</ele><time>2026-04-11T08:55:45.146Z</time></trkpt><trkpt lat="43.9112591" lon="11.2820383"><ele>274.66666666666663</ele><time>2026-04-11T08:55:46.145Z</time></trkpt><trkpt lat="43.9114223" lon="11.2821787"><ele>274.0</ele><time>2026-04-11T08:55:47.146Z</time></trkpt><trkpt lat="43.9115684" lon="11.2823475"><ele>275.0</ele><time>2026-04-11T08:55:48.146Z</time></trkpt><trkpt lat="43.9116947" lon="11.2825406"><ele>276.0</ele><time>2026-04-11T08:55:49.146Z</time></trkpt><trkpt lat="43.9118097" lon="11.2827346"><ele>277.0</ele><time>2026-04-11T08:55:50.146Z</time></trkpt><trkpt lat="43.9119325" lon="11.282928"><ele>278.66666666666663</ele><time>2026-04-11T08:55:51.145Z</time></trkpt><trkpt lat="43.9120705" lon="11.2831006"><ele>280.3333333333333</ele><time>2026-04-11T08:55:52.145Z</time></trkpt><trkpt lat="43.9122258" lon="11.2832515"><ele>282.0</ele><time>2026-04-11T08:55:53.145Z</time></trkpt><trkpt lat="43.9123979" lon="11.2833833"><ele>279.6666666666667</ele><time>2026-04-11T08:55:54.146Z</time></trkpt><trkpt lat="43.9125807" lon="11.2834997"><ele>277.33333333333337</ele><time>2026-04-11T08:55:55.146Z</time></trkpt><trkpt lat="43.9127675" lon="11.2836107"><ele>275.0</ele><time>2026-04-11T08:55:56.146Z</time></trkpt><trkpt lat="43.912955" lon="11.2837243"><ele>275.0</ele><time>2026-04-11T08:55:57.146Z</time></trkpt><trkpt lat="43.9131417" lon="11.2838392"><ele>275.0</ele><time>2026-04-11T08:55:58.145Z</time></trkpt><trkpt lat="43.9133196" lon="11.2839412"><ele>275.0</ele><time>2026-04-11T08:55:59.146Z</time></trkpt><trkpt lat="43.9135054" lon="11.2840335"><ele>276.33333333333337</ele><time>2026-04-11T08:56:00.146Z</time></trkpt><trkpt lat="43.9136939" lon="11.2841018"><ele>277.6666666666667</ele><time>2026-04-11T08:56:01.146Z</time></trkpt><trkpt lat="43.9138781" lon="11.2841377"><ele>279.0</ele><time>2026-04-11T08:56:02.146Z</time></trkpt><trkpt lat="43.914067" lon="11.2841487"><ele>277.6666666666667</ele><time>2026-04-11T08:56:03.145Z</time></trkpt><trkpt lat="43.9142547" lon="11.284129"><ele>276.33333333333337</ele><time>2026-04-11T08:56:04.146Z</time></trkpt><trkpt lat="43.9144385" lon="11.2840843"><ele>275.0</ele><time>2026-04-11T08:56:05.146Z</time></trkpt><trkpt lat="43.9146188" lon="11.2840126"><ele>273.0</ele><time>2026-04-11T08:56:06.146Z</time></trkpt><trkpt lat="43.9147951" lon="11.2839135"><ele>271.0</ele><time>2026-04-11T08:56:07.145Z</time></trkpt><trkpt lat="43.9149697" lon="11.2837966"><ele>269.0</ele><time>2026-04-11T08:56:08.145Z</time></trkpt><trkpt lat="43.9151433" lon="11.2836722"><ele>269.0</ele><time>2026-04-11T08:56:09.146Z</time></trkpt><trkpt lat="43.9152974" lon="11.2835549"><ele>269.0</ele><time>2026-04-11T08:56:10.144Z</time></trkpt><trkpt lat="43.9154372" lon="11.2834501"><ele>269.0</ele><time>2026-04-11T08:56:11.145Z</time></trkpt><trkpt lat="43.9155655" lon="11.2833532"><ele>269.0</ele><time>2026-04-11T08:56:12.145Z</time></trkpt><trkpt lat="43.9156814" lon="11.2832668"><ele>269.0</ele><time>2026-04-11T08:56:13.145Z</time></trkpt><trkpt lat="43.9157927" lon="11.2831846"><ele>269.0</ele><time>2026-04-11T08:56:14.146Z</time></trkpt><trkpt lat="43.9158973" lon="11.2831162"><ele>269.0</ele><time>2026-04-11T08:56:15.146Z</time></trkpt><trkpt lat="43.9159977" lon="11.2830615"><ele>273.5</ele><time>2026-04-11T08:56:16.146Z</time></trkpt><trkpt lat="43.9160947" lon="11.2830128"><ele>278.0</ele><time>2026-04-11T08:56:17.146Z</time></trkpt><trkpt lat="43.9161864" lon="11.2829753"><ele>282.5</ele><time>2026-04-11T08:56:18.146Z</time></trkpt><trkpt lat="43.9162669" lon="11.2829529"><ele>287.0</ele><time>2026-04-11T08:56:19.145Z</time></trkpt><trkpt lat="43.9163349" lon="11.2829219"><ele>291.5</ele><time>2026-04-11T08:56:20.145Z</time></trkpt><trkpt lat="43.9163785" lon="11.2828503"><ele>296.0</ele><time>2026-04-11T08:56:21.145Z</time></trkpt><trkpt lat="43.9163712" lon="11.2827169"><ele>296.0</ele><time>2026-04-11T08:56:23.145Z</time></trkpt><trkpt lat="43.9163256" lon="11.2826564"><ele>296.0</ele><time>2026-04-11T08:56:24.145Z</time></trkpt><trkpt lat="43.9162463" lon="11.282613"><ele>296.0</ele><time>2026-04-11T08:56:25.146Z</time></trkpt><trkpt lat="43.9161495" lon="11.2826159"><ele>296.0</ele><time>2026-04-11T08:56:26.146Z</time></trkpt><trkpt lat="43.9160516" lon="11.2826644"><ele>296.0</ele><time>2026-04-11T08:56:27.145Z</time></trkpt><trkpt lat="43.915962" lon="11.2827259"><ele>296.0</ele><time>2026-04-11T08:56:28.145Z</time></trkpt><trkpt lat="43.9158684" lon="11.2827865"><ele>291.75</ele><time>2026-04-11T08:56:29.146Z</time></trkpt><trkpt lat="43.9157647" lon="11.2828474"><ele>287.5</ele><time>2026-04-11T08:56:30.146Z</time></trkpt><trkpt lat="43.9156437" lon="11.2828968"><ele>283.25</ele><time>2026-04-11T08:56:31.146Z</time></trkpt><trkpt lat="43.9155148" lon="11.2829156"><ele>279.0</ele><time>2026-04-11T08:56:32.146Z</time></trkpt><trkpt lat="43.9153724" lon="11.2829234"><ele>279.0</ele><time>2026-04-11T08:56:33.146Z</time></trkpt><trkpt lat="43.9152296" lon="11.282936"><ele>279.0</ele><time>2026-04-11T08:56:34.145Z</time></trkpt><trkpt lat="43.9150767" lon="11.2829484"><ele>279.0</ele><time>2026-04-11T08:56:35.145Z</time></trkpt><trkpt lat="43.9149333" lon="11.2829528"><ele>279.0</ele><time>2026-04-11T08:56:36.146Z</time></trkpt><trkpt lat="43.9147947" lon="11.2829528"><ele>278.5</ele><time>2026-04-11T08:56:37.146Z</time></trkpt><trkpt lat="43.9146567" lon="11.2829422"><ele>278.0</ele><time>2026-04-11T08:56:38.146Z</time></trkpt><trkpt lat="43.9145116" lon="11.2829163"><ele>277.5</ele><time>2026-04-11T08:56:39.146Z</time></trkpt><trkpt lat="43.9143687" lon="11.2828819"><ele>277.0</ele><time>2026-04-11T08:56:40.146Z</time></trkpt><trkpt lat="43.9142355" lon="11.2828482"><ele>277.0</ele><time>2026-04-11T08:56:41.146Z</time></trkpt><trkpt lat="43.9140994" lon="11.2828137"><ele>277.0</ele><time>2026-04-11T08:56:42.146Z</time></trkpt><trkpt lat="43.9139685" lon="11.2827817"><ele>277.0</ele><time>2026-04-11T08:56:43.145Z</time></trkpt><trkpt lat="43.9138326" lon="11.2827605"><ele>277.0</ele><time>2026-04-11T08:56:44.145Z</time></trkpt><trkpt lat="43.9136895" lon="11.2827446"><ele>277.0</ele><time>2026-04-11T08:56:45.146Z</time></trkpt><trkpt lat="43.9135477" lon="11.2827247"><ele>277.0</ele><time>2026-04-11T08:56:46.146Z</time></trkpt><trkpt lat="43.913416" lon="11.2826928"><ele>277.0</ele><time>2026-04-11T08:56:47.146Z</time></trkpt><trkpt lat="43.9132889" lon="11.2826555"><ele>277.0</ele><time>2026-04-11T08:56:48.146Z</time></trkpt><trkpt lat="43.9131591" lon="11.2826131"><ele>277.0</ele><time>2026-04-11T08:56:49.145Z</time></trkpt><trkpt lat="43.913027" lon="11.2825666"><ele>277.0</ele><time>2026-04-11T08:56:50.145Z</time></trkpt><trkpt lat="43.9128957" lon="11.2824994"><ele>277.0</ele><time>2026-04-11T08:56:51.146Z</time></trkpt><trkpt lat="43.9127744" lon="11.2823921"><ele>277.0</ele><time>2026-04-11T08:56:52.145Z</time></trkpt><trkpt lat="43.9126665" lon="11.2822468"><ele>277.75</ele><time>2026-04-11T08:56:53.145Z</time></trkpt><trkpt lat="43.9125795" lon="11.2820879"><ele>278.5</ele><time>2026-04-11T08:56:54.146Z</time></trkpt><trkpt lat="43.9125018" lon="11.2819277"><ele>279.25</ele><time>2026-04-11T08:56:55.145Z</time></trkpt><trkpt lat="43.9124279" lon="11.281776"><ele>280.0</ele><time>2026-04-11T08:56:56.146Z</time></trkpt><trkpt lat="43.912354" lon="11.2816236"><ele>280.0</ele><time>2026-04-11T08:56:57.145Z</time></trkpt><trkpt lat="43.9122807" lon="11.2814779"><ele>280.0</ele><time>2026-04-11T08:56:58.146Z</time></trkpt><trkpt lat="43.9122062" lon="11.2813215"><ele>280.0</ele><time>2026-04-11T08:56:59.146Z</time></trkpt><trkpt lat="43.9121315" lon="11.2811577"><ele>280.0</ele><time>2026-04-11T08:57:00.146Z</time></trkpt><trkpt lat="43.9120528" lon="11.2809915"><ele>281.0</ele><time>2026-04-11T08:57:01.146Z</time></trkpt><trkpt lat="43.9119665" lon="11.2808563"><ele>282.0</ele><time>2026-04-11T08:57:02.146Z</time></trkpt><trkpt lat="43.9118651" lon="11.2807378"><ele>283.0</ele><time>2026-04-11T08:57:03.145Z</time></trkpt><trkpt lat="43.9117552" lon="11.2806394"><ele>284.0</ele><time>2026-04-11T08:57:04.146Z</time></trkpt><trkpt lat="43.9116532" lon="11.2805644"><ele>284.33333333333337</ele><time>2026-04-11T08:57:05.146Z</time></trkpt><trkpt lat="43.9115638" lon="11.2805029"><ele>284.6666666666667</ele><time>2026-04-11T08:57:06.146Z</time></trkpt><trkpt lat="43.9114846" lon="11.2804471"><ele>285.0</ele><time>2026-04-11T08:57:07.146Z</time></trkpt><trkpt lat="43.9114094" lon="11.280398"><ele>285.3333333333333</ele><time>2026-04-11T08:57:08.145Z</time></trkpt><trkpt lat="43.911329" lon="11.2803498"><ele>285.66666666666663</ele><time>2026-04-11T08:57:09.146Z</time></trkpt><trkpt lat="43.9112545" lon="11.2803044"><ele>286.0</ele><time>2026-04-11T08:57:10.145Z</time></trkpt><trkpt lat="43.9111903" lon="11.2802652"><ele>286.0</ele><time>2026-04-11T08:57:11.145Z</time></trkpt><trkpt lat="43.9111227" lon="11.2802281"><ele>286.0</ele><time>2026-04-11T08:57:12.146Z</time></trkpt><trkpt lat="43.9110618" lon="11.2801949"><ele>286.0</ele><time>2026-04-11T08:57:13.146Z</time></trkpt><trkpt lat="43.9109683" lon="11.280142"><ele>286.0</ele><time>2026-04-11T08:57:15.145Z</time></trkpt><trkpt lat="43.9108796" lon="11.2800937"><ele>286.0</ele><time>2026-04-11T08:57:17.146Z</time></trkpt><trkpt lat="43.9108333" lon="11.2800242"><ele>286.0</ele><time>2026-04-11T08:57:19.146Z</time></trkpt><trkpt lat="43.9109066" lon="11.2799537"><ele>286.0</ele><time>2026-04-11T08:57:22.145Z</time></trkpt><trkpt lat="43.9109717" lon="11.2799489"><ele>286.0</ele><time>2026-04-11T08:57:23.145Z</time></trkpt><trkpt lat="43.9110445" lon="11.2799349"><ele>286.0</ele><time>2026-04-11T08:57:24.145Z</time></trkpt><trkpt lat="43.9111148" lon="11.2798901"><ele>286.0</ele><time>2026-04-11T08:57:25.146Z</time></trkpt><trkpt lat="43.9111721" lon="11.2798122"><ele>286.0</ele><time>2026-04-11T08:57:26.146Z</time></trkpt><trkpt lat="43.9112146" lon="11.2797139"><ele>286.0</ele><time>2026-04-11T08:57:27.146Z</time></trkpt><trkpt lat="43.9112522" lon="11.2795994"><ele>287.66666666666663</ele><time>2026-04-11T08:57:28.145Z</time></trkpt><trkpt lat="43.9112877" lon="11.2794885"><ele>289.3333333333333</ele><time>2026-04-11T08:57:29.146Z</time></trkpt><trkpt lat="43.9113234" lon="11.2793824"><ele>291.0</ele><time>2026-04-11T08:57:30.146Z</time></trkpt><trkpt lat="43.9113606" lon="11.2792784"><ele>292.6666666666667</ele><time>2026-04-11T08:57:31.145Z</time></trkpt><trkpt lat="43.9113988" lon="11.279178"><ele>294.33333333333337</ele><time>2026-04-11T08:57:32.146Z</time></trkpt><trkpt lat="43.9114392" lon="11.2790739"><ele>296.0</ele><time>2026-04-11T08:57:33.145Z</time></trkpt><trkpt lat="43.9114786" lon="11.2789682"><ele>297.6</ele><time>2026-04-11T08:57:34.145Z</time></trkpt><trkpt lat="43.9115025" lon="11.278859"><ele>299.20000000000005</ele><time>2026-04-11T08:57:35.145Z</time></trkpt><trkpt lat="43.9115007" lon="11.2787473"><ele>300.79999999999995</ele><time>2026-04-11T08:57:36.146Z</time></trkpt><trkpt lat="43.9114688" lon="11.2786364"><ele>302.4</ele><time>2026-04-11T08:57:37.146Z</time></trkpt><trkpt lat="43.9114163" lon="11.2785241"><ele>304.0</ele><time>2026-04-11T08:57:38.145Z</time></trkpt><trkpt lat="43.9113554" lon="11.2783976"><ele>304.0</ele><time>2026-04-11T08:57:39.145Z</time></trkpt><trkpt lat="43.9112953" lon="11.2782607"><ele>304.0</ele><time>2026-04-11T08:57:40.145Z</time></trkpt><trkpt lat="43.9112346" lon="11.2781265"><ele>304.0</ele><time>2026-04-11T08:57:41.146Z</time></trkpt><trkpt lat="43.9111726" lon="11.277994"><ele>304.0</ele><time>2026-04-11T08:57:42.146Z</time></trkpt><trkpt lat="43.9111119" lon="11.2778616"><ele>305.59999999999997</ele><time>2026-04-11T08:57:43.145Z</time></trkpt><trkpt lat="43.9110609" lon="11.2777351"><ele>307.2</ele><time>2026-04-11T08:57:44.145Z</time></trkpt><trkpt lat="43.9110166" lon="11.277617"><ele>308.79999999999995</ele><time>2026-04-11T08:57:45.145Z</time></trkpt><trkpt lat="43.910972" lon="11.2775045"><ele>310.4</ele><time>2026-04-11T08:57:46.145Z</time></trkpt><trkpt lat="43.9109203" lon="11.2773863"><ele>312.0</ele><time>2026-04-11T08:57:47.146Z</time></trkpt><trkpt lat="43.9108654" lon="11.2772608"><ele>314.4</ele><time>2026-04-11T08:57:48.146Z</time></trkpt><trkpt lat="43.9107958" lon="11.2771439"><ele>316.79999999999995</ele><time>2026-04-11T08:57:49.145Z</time></trkpt><trkpt lat="43.9107211" lon="11.2770251"><ele>319.2</ele><time>2026-04-11T08:57:50.145Z</time></trkpt><trkpt lat="43.9106385" lon="11.2769273"><ele>321.59999999999997</ele><time>2026-04-11T08:57:51.144Z</time></trkpt><trkpt lat="43.9105599" lon="11.2768438"><ele>324.0</ele><time>2026-04-11T08:57:52.146Z</time></trkpt><trkpt lat="43.9104753" lon="11.2767681"><ele>324.0</ele><time>2026-04-11T08:57:53.146Z</time></trkpt><trkpt lat="43.9103922" lon="11.2767037"><ele>324.0</ele><time>2026-04-11T08:57:54.145Z</time></trkpt><trkpt lat="43.9103145" lon="11.2766213"><ele>324.0</ele><time>2026-04-11T08:57:55.146Z</time></trkpt><trkpt lat="43.9102543" lon="11.2765099"><ele>324.0</ele><time>2026-04-11T08:57:56.146Z</time></trkpt><trkpt lat="43.9102192" lon="11.2763734"><ele>324.0</ele><time>2026-04-11T08:57:57.145Z</time></trkpt><trkpt lat="43.9102047" lon="11.2762224"><ele>326.2</ele><time>2026-04-11T08:57:58.146Z</time></trkpt><trkpt lat="43.9101902" lon="11.27606"><ele>328.4</ele><time>2026-04-11T08:57:59.146Z</time></trkpt><trkpt lat="43.9101751" lon="11.2759166"><ele>330.6</ele><time>2026-04-11T08:58:00.145Z</time></trkpt><trkpt lat="43.9101675" lon="11.2757688"><ele>332.8</ele><time>2026-04-11T08:58:01.146Z</time></trkpt><trkpt lat="43.9101636" lon="11.2756307"><ele>335.0</ele><time>2026-04-11T08:58:02.146Z</time></trkpt><trkpt lat="43.910186" lon="11.275523"><ele>337.33333333333337</ele><time>2026-04-11T08:58:03.146Z</time></trkpt><trkpt lat="43.9102108" lon="11.2754356"><ele>339.6666666666667</ele><time>2026-04-11T08:58:04.146Z</time></trkpt><trkpt lat="43.9102447" lon="11.2753609"><ele>342.0</ele><time>2026-04-11T08:58:05.145Z</time></trkpt><trkpt lat="43.9103464" lon="11.2752681"><ele>344.3333333333333</ele><time>2026-04-11T08:58:07.145Z</time></trkpt><trkpt lat="43.9104103" lon="11.2752446"><ele>346.66666666666663</ele><time>2026-04-11T08:58:08.146Z</time></trkpt><trkpt lat="43.9104826" lon="11.2752386"><ele>349.0</ele><time>2026-04-11T08:58:09.146Z</time></trkpt><trkpt lat="43.9105596" lon="11.2752215"><ele>349.0</ele><time>2026-04-11T08:58:10.145Z</time></trkpt><trkpt lat="43.9106375" lon="11.2752058"><ele>349.0</ele><time>2026-04-11T08:58:11.146Z</time></trkpt><trkpt lat="43.9107375" lon="11.2751856"><ele>349.0</ele><time>2026-04-11T08:58:13.145Z</time></trkpt><trkpt lat="43.9108394" lon="11.2751695"><ele>349.0</ele><time>2026-04-11T08:58:15.146Z</time></trkpt><trkpt lat="43.9109594" lon="11.2751599"><ele>349.0</ele><time>2026-04-11T08:58:17.145Z</time></trkpt><trkpt lat="43.9110477" lon="11.2751413"><ele>350.79999999999995</ele><time>2026-04-11T08:58:19.146Z</time></trkpt><trkpt lat="43.9111422" lon="11.2751263"><ele>352.59999999999997</ele><time>2026-04-11T08:58:21.145Z</time></trkpt><trkpt lat="43.9112478" lon="11.2751089"><ele>354.4</ele><time>2026-04-11T08:58:23.146Z</time></trkpt><trkpt lat="43.911375" lon="11.2751101"><ele>356.2</ele><time>2026-04-11T08:58:25.145Z</time></trkpt><trkpt lat="43.9114474" lon="11.2751183"><ele>358.0</ele><time>2026-04-11T08:58:26.146Z</time></trkpt><trkpt lat="43.9115214" lon="11.2751383"><ele>358.0</ele><time>2026-04-11T08:58:27.146Z</time></trkpt><trkpt lat="43.9115942" lon="11.2751653"><ele>358.0</ele><time>2026-04-11T08:58:28.146Z</time></trkpt><trkpt lat="43.9116681" lon="11.2751873"><ele>358.0</ele><time>2026-04-11T08:58:29.146Z</time></trkpt><trkpt lat="43.9117531" lon="11.2752068"><ele>358.0</ele><time>2026-04-11T08:58:30.146Z</time></trkpt><trkpt lat="43.9118388" lon="11.2752137"><ele>358.0</ele><time>2026-04-11T08:58:31.146Z</time></trkpt><trkpt lat="43.9119206" lon="11.2752122"><ele>358.0</ele><time>2026-04-11T08:58:32.146Z</time></trkpt><trkpt lat="43.9120061" lon="11.2752135"><ele>359.2</ele><time>2026-04-11T08:58:33.146Z</time></trkpt><trkpt lat="43.9120941" lon="11.2752064"><ele>360.4</ele><time>2026-04-11T08:58:34.146Z</time></trkpt><trkpt lat="43.9121685" lon="11.2751932"><ele>361.59999999999997</ele><time>2026-04-11T08:58:35.146Z</time></trkpt><trkpt lat="43.9122456" lon="11.2751811"><ele>362.79999999999995</ele><time>2026-04-11T08:58:36.145Z</time></trkpt><trkpt lat="43.9123459" lon="11.2751077"><ele>364.0</ele><time>2026-04-11T08:58:38.146Z</time></trkpt><trkpt lat="43.9123881" lon="11.2749747"><ele>364.0</ele><time>2026-04-11T08:58:40.146Z</time></trkpt><trkpt lat="43.9123829" lon="11.2748109"><ele>364.0</ele><time>2026-04-11T08:58:42.145Z</time></trkpt><trkpt lat="43.9123701" lon="11.2746368"><ele>364.0</ele><time>2026-04-11T08:58:44.145Z</time></trkpt><trkpt lat="43.9123645" lon="11.274548"><ele>364.0</ele><time>2026-04-11T08:58:45.146Z</time></trkpt><trkpt lat="43.9123569" lon="11.2744498"><ele>364.0</ele><time>2026-04-11T08:58:46.146Z</time></trkpt><trkpt lat="43.9123552" lon="11.2743556"><ele>364.0</ele><time>2026-04-11T08:58:47.145Z</time></trkpt><trkpt lat="43.9123512" lon="11.2742624"><ele>364.8333333333333</ele><time>2026-04-11T08:58:48.146Z</time></trkpt><trkpt lat="43.9123496" lon="11.2741711"><ele>365.66666666666663</ele><time>2026-04-11T08:58:49.146Z</time></trkpt><trkpt lat="43.912345" lon="11.2740825"><ele>366.5</ele><time>2026-04-11T08:58:50.145Z</time></trkpt><trkpt lat="43.9123407" lon="11.2739951"><ele>367.3333333333333</ele><time>2026-04-11T08:58:51.146Z</time></trkpt><trkpt lat="43.9123012" lon="11.2738427"><ele>368.1666666666667</ele><time>2026-04-11T08:58:53.146Z</time></trkpt><trkpt lat="43.912203" lon="11.2737279"><ele>369.0</ele><time>2026-04-11T08:58:55.146Z</time></trkpt><trkpt lat="43.9121481" lon="11.2736741"><ele>370.3333333333333</ele><time>2026-04-11T08:58:56.146Z</time></trkpt><trkpt lat="43.9120846" lon="11.2736142"><ele>371.6666666666667</ele><time>2026-04-11T08:58:57.145Z</time></trkpt><trkpt lat="43.912022" lon="11.2735475"><ele>373.0</ele><time>2026-04-11T08:58:58.145Z</time></trkpt><trkpt lat="43.9119537" lon="11.2734762"><ele>374.33333333333337</ele><time>2026-04-11T08:58:59.146Z</time></trkpt><trkpt lat="43.9118887" lon="11.2734064"><ele>375.6666666666667</ele><time>2026-04-11T08:59:00.145Z</time></trkpt><trkpt lat="43.9118255" lon="11.2733337"><ele>377.0</ele><time>2026-04-11T08:59:01.146Z</time></trkpt><trkpt lat="43.9117647" lon="11.2732533"><ele>376.5</ele><time>2026-04-11T08:59:02.144Z</time></trkpt><trkpt lat="43.9117104" lon="11.2731662"><ele>376.0</ele><time>2026-04-11T08:59:03.146Z</time></trkpt><trkpt lat="43.9116632" lon="11.2730735"><ele>375.5</ele><time>2026-04-11T08:59:04.146Z</time></trkpt><trkpt lat="43.9116226" lon="11.2729801"><ele>375.0</ele><time>2026-04-11T08:59:05.145Z</time></trkpt><trkpt lat="43.9115894" lon="11.2728952"><ele>374.5</ele><time>2026-04-11T08:59:06.146Z</time></trkpt><trkpt lat="43.9115546" lon="11.2728057"><ele>374.0</ele><time>2026-04-11T08:59:07.146Z</time></trkpt><trkpt lat="43.9115231" lon="11.2727225"><ele>375.7142857142857</ele><time>2026-04-11T08:59:08.146Z</time></trkpt><trkpt lat="43.9114933" lon="11.2726305"><ele>377.42857142857144</ele><time>2026-04-11T08:59:09.146Z</time></trkpt><trkpt lat="43.9114569" lon="11.2725382"><ele>379.14285714285717</ele><time>2026-04-11T08:59:10.145Z</time></trkpt><trkpt lat="43.91142" lon="11.272443"><ele>380.8571428571429</ele><time>2026-04-11T08:59:11.146Z</time></trkpt><trkpt lat="43.9113772" lon="11.2723545"><ele>382.57142857142856</ele><time>2026-04-11T08:59:12.145Z</time></trkpt><trkpt lat="43.9113346" lon="11.2722714"><ele>384.28571428571433</ele><time>2026-04-11T08:59:13.146Z</time></trkpt><trkpt lat="43.9113108" lon="11.2721881"><ele>386.0</ele><time>2026-04-11T08:59:14.145Z</time></trkpt><trkpt lat="43.9113291" lon="11.2720286"><ele>389.0</ele><time>2026-04-11T08:59:16.145Z</time></trkpt><trkpt lat="43.9113758" lon="11.271949"><ele>392.0</ele><time>2026-04-11T08:59:17.146Z</time></trkpt><trkpt lat="43.9114135" lon="11.2718502"><ele>395.0</ele><time>2026-04-11T08:59:18.145Z</time></trkpt><trkpt lat="43.9114644" lon="11.2717393"><ele>398.0</ele><time>2026-04-11T08:59:19.146Z</time></trkpt><trkpt lat="43.9115223" lon="11.2716249"><ele>401.0</ele><time>2026-04-11T08:59:20.146Z</time></trkpt><trkpt lat="43.9115844" lon="11.2715155"><ele>401.4</ele><time>2026-04-11T08:59:21.145Z</time></trkpt><trkpt lat="43.9116485" lon="11.2714047"><ele>401.8</ele><time>2026-04-11T08:59:22.146Z</time></trkpt><trkpt lat="43.9117004" lon="11.2713005"><ele>402.2</ele><time>2026-04-11T08:59:23.146Z</time></trkpt><trkpt lat="43.9117633" lon="11.271201"><ele>402.59999999999997</ele><time>2026-04-11T08:59:24.146Z</time></trkpt><trkpt lat="43.9118383" lon="11.2711196"><ele>403.0</ele><time>2026-04-11T08:59:25.146Z</time></trkpt><trkpt lat="43.9118967" lon="11.2710324"><ele>403.0</ele><time>2026-04-11T08:59:26.146Z</time></trkpt><trkpt lat="43.9119598" lon="11.2709346"><ele>403.0</ele><time>2026-04-11T08:59:27.145Z</time></trkpt><trkpt lat="43.912023" lon="11.2708442"><ele>403.0</ele><time>2026-04-11T08:59:28.146Z</time></trkpt><trkpt lat="43.91209" lon="11.2707524"><ele>403.0</ele><time>2026-04-11T08:59:29.145Z</time></trkpt><trkpt lat="43.9121525" lon="11.2706648"><ele>403.0</ele><time>2026-04-11T08:59:30.146Z</time></trkpt><trkpt lat="43.9122153" lon="11.2705742"><ele>406.83333333333337</ele><time>2026-04-11T08:59:31.146Z</time></trkpt><trkpt lat="43.9122743" lon="11.270495"><ele>410.6666666666667</ele><time>2026-04-11T08:59:32.146Z</time></trkpt><trkpt lat="43.9123429" lon="11.270425"><ele>414.5</ele><time>2026-04-11T08:59:33.145Z</time></trkpt><trkpt lat="43.9124159" lon="11.2703508"><ele>418.33333333333337</ele><time>2026-04-11T08:59:34.146Z</time></trkpt><trkpt lat="43.9124878" lon="11.2702931"><ele>422.1666666666667</ele><time>2026-04-11T08:59:35.146Z</time></trkpt><trkpt lat="43.9125719" lon="11.2702416"><ele>426.0</ele><time>2026-04-11T08:59:36.145Z</time></trkpt><trkpt lat="43.912651" lon="11.2701808"><ele>426.0</ele><time>2026-04-11T08:59:37.145Z</time></trkpt><trkpt lat="43.9127356" lon="11.2701189"><ele>426.0</ele><time>2026-04-11T08:59:38.145Z</time></trkpt><trkpt lat="43.9128108" lon="11.2700595"><ele>426.0</ele><time>2026-04-11T08:59:39.146Z</time></trkpt><trkpt lat="43.9128975" lon="11.2700084"><ele>426.0</ele><time>2026-04-11T08:59:40.146Z</time></trkpt><trkpt lat="43.9129828" lon="11.2699585"><ele>426.0</ele><time>2026-04-11T08:59:41.145Z</time></trkpt><trkpt lat="43.9130606" lon="11.269911"><ele>426.0</ele><time>2026-04-11T08:59:42.146Z</time></trkpt><trkpt lat="43.9131406" lon="11.2698554"><ele>426.0</ele><time>2026-04-11T08:59:43.146Z</time></trkpt><trkpt lat="43.9132197" lon="11.2698003"><ele>426.0</ele><time>2026-04-11T08:59:44.145Z</time></trkpt><trkpt lat="43.9132796" lon="11.2697346"><ele>426.0</ele><time>2026-04-11T08:59:45.146Z</time></trkpt><trkpt lat="43.9133438" lon="11.2696322"><ele>426.0</ele><time>2026-04-11T08:59:46.145Z</time></trkpt><trkpt lat="43.9133991" lon="11.2695402"><ele>426.0</ele><time>2026-04-11T08:59:47.146Z</time></trkpt><trkpt lat="43.9134466" lon="11.2694388"><ele>428.3333333333333</ele><time>2026-04-11T08:59:48.145Z</time></trkpt><trkpt lat="43.9134804" lon="11.2693335"><ele>430.66666666666663</ele><time>2026-04-11T08:59:49.146Z</time></trkpt><trkpt lat="43.9134892" lon="11.2692102"><ele>433.0</ele><time>2026-04-11T08:59:50.146Z</time></trkpt><trkpt lat="43.9134671" lon="11.2691082"><ele>435.3333333333333</ele><time>2026-04-11T08:59:51.145Z</time></trkpt><trkpt lat="43.9134668" lon="11.2689697"><ele>437.66666666666663</ele><time>2026-04-11T08:59:53.145Z</time></trkpt><trkpt lat="43.9135189" lon="11.2689065"><ele>440.0</ele><time>2026-04-11T08:59:55.145Z</time></trkpt><trkpt lat="43.9135916" lon="11.2689123"><ele>440.0</ele><time>2026-04-11T09:00:03.145Z</time></trkpt><trkpt lat="43.913672" lon="11.268923"><ele>440.0</ele><time>2026-04-11T09:00:05.146Z</time></trkpt><trkpt lat="43.9137714" lon="11.2689274"><ele>440.0</ele><time>2026-04-11T09:00:07.146Z</time></trkpt><trkpt lat="43.9138883" lon="11.2689388"><ele>440.0</ele><time>2026-04-11T09:00:09.146Z</time></trkpt><trkpt lat="43.9139512" lon="11.2689457"><ele>440.0</ele><time>2026-04-11T09:00:10.146Z</time></trkpt><trkpt lat="43.9140674" lon="11.2689525"><ele>440.0</ele><time>2026-04-11T09:00:12.146Z</time></trkpt><trkpt lat="43.9141905" lon="11.2689543"><ele>440.0</ele><time>2026-04-11T09:00:14.145Z</time></trkpt><trkpt lat="43.9142605" lon="11.2689612"><ele>440.0</ele><time>2026-04-11T09:00:15.146Z</time></trkpt><trkpt lat="43.9143354" lon="11.2689712"><ele>440.0</ele><time>2026-04-11T09:00:16.146Z</time></trkpt><trkpt lat="43.9144018" lon="11.268976"><ele>440.0</ele><time>2026-04-11T09:00:17.146Z</time></trkpt><trkpt lat="43.9145339" lon="11.2689862"><ele>439.71428571428567</ele><time>2026-04-11T09:00:19.145Z</time></trkpt><trkpt lat="43.9146" lon="11.2689918"><ele>439.42857142857144</ele><time>2026-04-11T09:00:20.145Z</time></trkpt><trkpt lat="43.9146669" lon="11.2689911"><ele>439.1428571428571</ele><time>2026-04-11T09:00:21.146Z</time></trkpt><trkpt lat="43.9147359" lon="11.2689788"><ele>438.85714285714283</ele><time>2026-04-11T09:00:22.146Z</time></trkpt><trkpt lat="43.9148119" lon="11.2689557"><ele>438.57142857142856</ele><time>2026-04-11T09:00:23.145Z</time></trkpt><trkpt lat="43.9148782" lon="11.2689321"><ele>438.2857142857143</ele><time>2026-04-11T09:00:24.145Z</time></trkpt><trkpt lat="43.9149492" lon="11.2689035"><ele>438.0</ele><time>2026-04-11T09:00:25.146Z</time></trkpt><trkpt lat="43.9150196" lon="11.2688745"><ele>437.8333333333333</ele><time>2026-04-11T09:00:26.145Z</time></trkpt><trkpt lat="43.9151003" lon="11.2688675"><ele>437.66666666666663</ele><time>2026-04-11T09:00:27.146Z</time></trkpt><trkpt lat="43.9151799" lon="11.2688586"><ele>437.5</ele><time>2026-04-11T09:00:28.145Z</time></trkpt><trkpt lat="43.9152673" lon="11.2688986"><ele>437.3333333333333</ele><time>2026-04-11T09:00:29.146Z</time></trkpt><trkpt lat="43.9153432" lon="11.2689215"><ele>437.16666666666663</ele><time>2026-04-11T09:00:30.145Z</time></trkpt><trkpt lat="43.9154138" lon="11.2689496"><ele>437.0</ele><time>2026-04-11T09:00:31.146Z</time></trkpt><trkpt lat="43.915487" lon="11.2689756"><ele>436.99999999999994</ele><time>2026-04-11T09:00:32.145Z</time></trkpt><trkpt lat="43.9155655" lon="11.2690056"><ele>437.0</ele><time>2026-04-11T09:00:33.145Z</time></trkpt><trkpt lat="43.9156458" lon="11.2690319"><ele>437.0</ele><time>2026-04-11T09:00:34.146Z</time></trkpt><trkpt lat="43.9157207" lon="11.2690553"><ele>437.0</ele><time>2026-04-11T09:00:35.144Z</time></trkpt><trkpt lat="43.915791" lon="11.2690779"><ele>436.99999999999994</ele><time>2026-04-11T09:00:36.145Z</time></trkpt><trkpt lat="43.9158609" lon="11.2691021"><ele>437.0</ele><time>2026-04-11T09:00:37.146Z</time></trkpt><trkpt lat="43.9159409" lon="11.2691227"><ele>438.99999999999994</ele><time>2026-04-11T09:00:38.146Z</time></trkpt><trkpt lat="43.9160194" lon="11.2691487"><ele>441.0</ele><time>2026-04-11T09:00:39.145Z</time></trkpt><trkpt lat="43.9161029" lon="11.2691716"><ele>443.0</ele><time>2026-04-11T09:00:40.146Z</time></trkpt><trkpt lat="43.9161754" lon="11.2691924"><ele>445.0</ele><time>2026-04-11T09:00:41.145Z</time></trkpt><trkpt lat="43.9162504" lon="11.2692148"><ele>446.99999999999994</ele><time>2026-04-11T09:00:42.146Z</time></trkpt><trkpt lat="43.9163264" lon="11.2692431"><ele>449.0</ele><time>2026-04-11T09:00:43.146Z</time></trkpt><trkpt lat="43.9164109" lon="11.2692732"><ele>448.99999999999994</ele><time>2026-04-11T09:00:44.145Z</time></trkpt><trkpt lat="43.9164974" lon="11.2692991"><ele>449.0</ele><time>2026-04-11T09:00:45.146Z</time></trkpt><trkpt lat="43.9165872" lon="11.269323"><ele>449.0</ele><time>2026-04-11T09:00:46.146Z</time></trkpt><trkpt lat="43.91667" lon="11.2693447"><ele>449.0</ele><time>2026-04-11T09:00:47.145Z</time></trkpt><trkpt lat="43.9167593" lon="11.2693585"><ele>448.99999999999994</ele><time>2026-04-11T09:00:48.146Z</time></trkpt><trkpt lat="43.9168507" lon="11.269358"><ele>449.0</ele><time>2026-04-11T09:00:49.145Z</time></trkpt><trkpt lat="43.9169363" lon="11.2693551"><ele>450.3333333333333</ele><time>2026-04-11T09:00:50.146Z</time></trkpt><trkpt lat="43.9170257" lon="11.269313"><ele>451.66666666666663</ele><time>2026-04-11T09:00:51.145Z</time></trkpt><trkpt lat="43.9171067" lon="11.2692705"><ele>453.0</ele><time>2026-04-11T09:00:52.145Z</time></trkpt><trkpt lat="43.917194" lon="11.2692345"><ele>454.33333333333337</ele><time>2026-04-11T09:00:53.146Z</time></trkpt><trkpt lat="43.9172776" lon="11.2692117"><ele>455.6666666666667</ele><time>2026-04-11T09:00:54.146Z</time></trkpt><trkpt lat="43.9173662" lon="11.2691896"><ele>457.0</ele><time>2026-04-11T09:00:55.146Z</time></trkpt><trkpt lat="43.9174609" lon="11.2691762"><ele>457.00000000000006</ele><time>2026-04-11T09:00:56.145Z</time></trkpt><trkpt lat="43.9175518" lon="11.2691757"><ele>457.0</ele><time>2026-04-11T09:00:57.146Z</time></trkpt><trkpt lat="43.9176368" lon="11.2691685"><ele>457.0</ele><time>2026-04-11T09:00:58.146Z</time></trkpt><trkpt lat="43.9177268" lon="11.2691658"><ele>457.0</ele><time>2026-04-11T09:00:59.145Z</time></trkpt><trkpt lat="43.9178123" lon="11.2691538"><ele>457.00000000000006</ele><time>2026-04-11T09:01:00.145Z</time></trkpt><trkpt lat="43.9178965" lon="11.2691491"><ele>457.0</ele><time>2026-04-11T09:01:01.145Z</time></trkpt><trkpt lat="43.9179811" lon="11.2691385"><ele>459.00000000000006</ele><time>2026-04-11T09:01:02.145Z</time></trkpt><trkpt lat="43.9180646" lon="11.2691602"><ele>461.0</ele><time>2026-04-11T09:01:03.143Z</time></trkpt><trkpt lat="43.918134" lon="11.2691572"><ele>463.0</ele><time>2026-04-11T09:01:04.145Z</time></trkpt><trkpt lat="43.9181988" lon="11.2691881"><ele>465.0</ele><time>2026-04-11T09:01:05.145Z</time></trkpt><trkpt lat="43.9182744" lon="11.2692196"><ele>467.00000000000006</ele><time>2026-04-11T09:01:06.144Z</time></trkpt><trkpt lat="43.9183445" lon="11.2692461"><ele>469.0</ele><time>2026-04-11T09:01:07.144Z</time></trkpt><trkpt lat="43.9184258" lon="11.2692962"><ele>471.6666666666667</ele><time>2026-04-11T09:01:08.145Z</time></trkpt><trkpt lat="43.9185051" lon="11.2692892"><ele>474.33333333333337</ele><time>2026-04-11T09:01:09.145Z</time></trkpt><trkpt lat="43.9185962" lon="11.2692986"><ele>477.0</ele><time>2026-04-11T09:01:10.144Z</time></trkpt><trkpt lat="43.9186869" lon="11.2693065"><ele>479.66666666666663</ele><time>2026-04-11T09:01:11.145Z</time></trkpt><trkpt lat="43.9187557" lon="11.2693045"><ele>482.3333333333333</ele><time>2026-04-11T09:01:12.144Z</time></trkpt><trkpt lat="43.9188175" lon="11.2692816"><ele>485.0</ele><time>2026-04-11T09:01:13.144Z</time></trkpt><trkpt lat="43.918878" lon="11.2693071"><ele>485.0</ele><time>2026-04-11T09:01:14.144Z</time></trkpt><trkpt lat="43.9189622" lon="11.2694081"><ele>485.0</ele><time>2026-04-11T09:01:16.145Z</time></trkpt><trkpt lat="43.9189447" lon="11.2695303"><ele>485.0</ele><time>2026-04-11T09:01:17.145Z</time></trkpt><trkpt lat="43.9189463" lon="11.2696406"><ele>485.0</ele><time>2026-04-11T09:01:18.144Z</time></trkpt><trkpt lat="43.9189626" lon="11.2697555"><ele>485.0</ele><time>2026-04-11T09:01:19.144Z</time></trkpt><trkpt lat="43.9189977" lon="11.2698711"><ele>486.0</ele><time>2026-04-11T09:01:20.145Z</time></trkpt><trkpt lat="43.9190474" lon="11.2699743"><ele>487.0</ele><time>2026-04-11T09:01:21.145Z</time></trkpt><trkpt lat="43.9191035" lon="11.2700829"><ele>488.0</ele><time>2026-04-11T09:01:22.144Z</time></trkpt><trkpt lat="43.9191603" lon="11.2701925"><ele>489.0</ele><time>2026-04-11T09:01:23.144Z</time></trkpt><trkpt lat="43.9192051" lon="11.2702952"><ele>490.0</ele><time>2026-04-11T09:01:24.145Z</time></trkpt><trkpt lat="43.9192568" lon="11.2704024"><ele>490.0</ele><time>2026-04-11T09:01:25.145Z</time></trkpt><trkpt lat="43.9193065" lon="11.270518"><ele>490.0</ele><time>2026-04-11T09:01:26.145Z</time></trkpt><trkpt lat="43.9193553" lon="11.2706256"><ele>490.0</ele><time>2026-04-11T09:01:27.144Z</time></trkpt><trkpt lat="43.9194064" lon="11.2707435"><ele>490.0</ele><time>2026-04-11T09:01:28.144Z</time></trkpt><trkpt lat="43.9194547" lon="11.2708416"><ele>490.0</ele><time>2026-04-11T09:01:29.145Z</time></trkpt><trkpt lat="43.9195123" lon="11.2709315"><ele>489.00000000000006</ele><time>2026-04-11T09:01:30.145Z</time></trkpt><trkpt lat="43.919577" lon="11.2709977"><ele>488.0</ele><time>2026-04-11T09:01:31.144Z</time></trkpt><trkpt lat="43.9196504" lon="11.2710457"><ele>487.0</ele><time>2026-04-11T09:01:32.145Z</time></trkpt><trkpt lat="43.9197273" lon="11.2710691"><ele>486.0</ele><time>2026-04-11T09:01:33.145Z</time></trkpt><trkpt lat="43.9198097" lon="11.2710604"><ele>485.00000000000006</ele><time>2026-04-11T09:01:34.144Z</time></trkpt><trkpt lat="43.9198966" lon="11.2710372"><ele>484.0</ele><time>2026-04-11T09:01:35.144Z</time></trkpt><trkpt lat="43.9199761" lon="11.2710099"><ele>484.0</ele><time>2026-04-11T09:01:36.144Z</time></trkpt><trkpt lat="43.9200543" lon="11.2709734"><ele>483.99999999999994</ele><time>2026-04-11T09:01:37.145Z</time></trkpt><trkpt lat="43.9201365" lon="11.2709341"><ele>484.0</ele><time>2026-04-11T09:01:38.145Z</time></trkpt><trkpt lat="43.9202079" lon="11.2709204"><ele>484.0</ele><time>2026-04-11T09:01:39.145Z</time></trkpt><trkpt lat="43.920274" lon="11.2709342"><ele>483.99999999999994</ele><time>2026-04-11T09:01:40.145Z</time></trkpt><trkpt lat="43.9203346" lon="11.2709706"><ele>484.0</ele><time>2026-04-11T09:01:41.145Z</time></trkpt><trkpt lat="43.9203945" lon="11.2710163"><ele>484.0</ele><time>2026-04-11T09:01:42.144Z</time></trkpt><trkpt lat="43.920459" lon="11.2710562"><ele>486.71428571428567</ele><time>2026-04-11T09:01:43.144Z</time></trkpt><trkpt lat="43.9205433" lon="11.2710731"><ele>489.4285714285714</ele><time>2026-04-11T09:01:44.144Z</time></trkpt><trkpt lat="43.9206195" lon="11.2710948"><ele>492.1428571428571</ele><time>2026-04-11T09:01:45.145Z</time></trkpt><trkpt lat="43.9206837" lon="11.271098"><ele>494.8571428571429</ele><time>2026-04-11T09:01:46.145Z</time></trkpt><trkpt lat="43.9207515" lon="11.2711038"><ele>497.5714285714286</ele><time>2026-04-11T09:01:47.144Z</time></trkpt><trkpt lat="43.9208209" lon="11.2711149"><ele>500.28571428571433</ele><time>2026-04-11T09:01:48.145Z</time></trkpt><trkpt lat="43.9208906" lon="11.2711207"><ele>503.0</ele><time>2026-04-11T09:01:49.145Z</time></trkpt><trkpt lat="43.9209664" lon="11.27114"><ele>504.42857142857144</ele><time>2026-04-11T09:01:50.145Z</time></trkpt><trkpt lat="43.9210467" lon="11.2711364"><ele>505.8571428571429</ele><time>2026-04-11T09:01:51.143Z</time></trkpt><trkpt lat="43.9211117" lon="11.2711474"><ele>507.28571428571433</ele><time>2026-04-11T09:01:52.144Z</time></trkpt><trkpt lat="43.9211851" lon="11.2711677"><ele>508.7142857142858</ele><time>2026-04-11T09:01:53.145Z</time></trkpt><trkpt lat="43.9212682" lon="11.2711946"><ele>510.14285714285717</ele><time>2026-04-11T09:01:54.144Z</time></trkpt><trkpt lat="43.9213362" lon="11.2712372"><ele>511.57142857142867</ele><time>2026-04-11T09:01:55.144Z</time></trkpt><trkpt lat="43.9213933" lon="11.2712873"><ele>513.0</ele><time>2026-04-11T09:01:56.144Z</time></trkpt><trkpt lat="43.9214541" lon="11.2713138"><ele>513.0</ele><time>2026-04-11T09:01:57.145Z</time></trkpt><trkpt lat="43.921521" lon="11.2713304"><ele>513.0</ele><time>2026-04-11T09:01:58.145Z</time></trkpt><trkpt lat="43.9215916" lon="11.2713513"><ele>513.0</ele><time>2026-04-11T09:01:59.145Z</time></trkpt><trkpt lat="43.9216686" lon="11.2713606"><ele>513.0</ele><time>2026-04-11T09:02:00.145Z</time></trkpt><trkpt lat="43.9217334" lon="11.2713446"><ele>513.0</ele><time>2026-04-11T09:02:01.144Z</time></trkpt><trkpt lat="43.9218437" lon="11.2712765"><ele>513.0</ele><time>2026-04-11T09:02:03.145Z</time></trkpt><trkpt lat="43.9219032" lon="11.2712322"><ele>512.1999999999999</ele><time>2026-04-11T09:02:04.145Z</time></trkpt><trkpt lat="43.9219877" lon="11.2711502"><ele>511.4</ele><time>2026-04-11T09:02:06.144Z</time></trkpt><trkpt lat="43.9220813" lon="11.2710733"><ele>510.59999999999997</ele><time>2026-04-11T09:02:08.145Z</time></trkpt><trkpt lat="43.9221767" lon="11.2709991"><ele>509.79999999999995</ele><time>2026-04-11T09:02:10.145Z</time></trkpt><trkpt lat="43.9222818" lon="11.2709414"><ele>509.0</ele><time>2026-04-11T09:02:12.145Z</time></trkpt><trkpt lat="43.9223837" lon="11.2708733"><ele>509.0</ele><time>2026-04-11T09:02:14.144Z</time></trkpt><trkpt lat="43.922473" lon="11.2708055"><ele>509.0</ele><time>2026-04-11T09:02:16.145Z</time></trkpt><trkpt lat="43.9225766" lon="11.2707599"><ele>509.0</ele><time>2026-04-11T09:02:18.145Z</time></trkpt><trkpt lat="43.9226733" lon="11.2706718"><ele>509.0</ele><time>2026-04-11T09:02:20.144Z</time></trkpt><trkpt lat="43.9227339" lon="11.2706459"><ele>509.0</ele><time>2026-04-11T09:02:21.144Z</time></trkpt><trkpt lat="43.9228624" lon="11.2706673"><ele>505.2</ele><time>2026-04-11T09:02:23.144Z</time></trkpt><trkpt lat="43.9229266" lon="11.2706668"><ele>501.4</ele><time>2026-04-11T09:02:24.145Z</time></trkpt><trkpt lat="43.9230656" lon="11.2706912"><ele>497.6</ele><time>2026-04-11T09:02:26.145Z</time></trkpt><trkpt lat="43.9231405" lon="11.27068"><ele>493.8</ele><time>2026-04-11T09:02:27.145Z</time></trkpt><trkpt lat="43.9232045" lon="11.2706899"><ele>490.0</ele><time>2026-04-11T09:02:28.145Z</time></trkpt><trkpt lat="43.9233123" lon="11.2706388"><ele>487.00000000000006</ele><time>2026-04-11T09:02:30.144Z</time></trkpt><trkpt lat="43.9234063" lon="11.270592"><ele>484.0</ele><time>2026-04-11T09:02:32.144Z</time></trkpt><trkpt lat="43.9234725" lon="11.2705541"><ele>481.0</ele><time>2026-04-11T09:02:33.144Z</time></trkpt><trkpt lat="43.923513" lon="11.270482"><ele>478.0</ele><time>2026-04-11T09:02:34.145Z</time></trkpt><trkpt lat="43.9235574" lon="11.2704184"><ele>475.00000000000006</ele><time>2026-04-11T09:02:35.145Z</time></trkpt><trkpt lat="43.9236453" lon="11.2702852"><ele>472.0</ele><time>2026-04-11T09:02:37.144Z</time></trkpt><trkpt lat="43.9236956" lon="11.2702165"><ele>472.00000000000006</ele><time>2026-04-11T09:02:38.144Z</time></trkpt><trkpt lat="43.9237441" lon="11.2701532"><ele>472.0</ele><time>2026-04-11T09:02:39.145Z</time></trkpt><trkpt lat="43.923803" lon="11.2700459"><ele>472.0</ele><time>2026-04-11T09:02:41.145Z</time></trkpt><trkpt lat="43.9238463" lon="11.2699102"><ele>472.0</ele><time>2026-04-11T09:02:43.145Z</time></trkpt><trkpt lat="43.9238671" lon="11.2698104"><ele>472.00000000000006</ele><time>2026-04-11T09:02:44.145Z</time></trkpt><trkpt lat="43.9238675" lon="11.2697062"><ele>472.0</ele><time>2026-04-11T09:02:45.145Z</time></trkpt><trkpt lat="43.9238562" lon="11.2696149"><ele>471.0</ele><time>2026-04-11T09:02:46.144Z</time></trkpt><trkpt lat="43.9238419" lon="11.2694761"><ele>470.00000000000006</ele><time>2026-04-11T09:02:48.143Z</time></trkpt><trkpt lat="43.9238302" lon="11.2693769"><ele>469.00000000000006</ele><time>2026-04-11T09:02:49.145Z</time></trkpt><trkpt lat="43.9237951" lon="11.2691854"><ele>468.0</ele><time>2026-04-11T09:02:51.145Z</time></trkpt><trkpt lat="43.923788" lon="11.2690758"><ele>467.0</ele><time>2026-04-11T09:02:52.143Z</time></trkpt><trkpt lat="43.92378" lon="11.2689746"><ele>465.71428571428567</ele><time>2026-04-11T09:02:53.145Z</time></trkpt><trkpt lat="43.9237751" lon="11.2688564"><ele>464.42857142857144</ele><time>2026-04-11T09:02:54.144Z</time></trkpt><trkpt lat="43.9237804" lon="11.2687576"><ele>463.1428571428571</ele><time>2026-04-11T09:02:55.144Z</time></trkpt><trkpt lat="43.9237909" lon="11.2686434"><ele>461.85714285714283</ele><time>2026-04-11T09:02:56.145Z</time></trkpt><trkpt lat="43.9238069" lon="11.2685531"><ele>460.57142857142856</ele><time>2026-04-11T09:02:57.144Z</time></trkpt><trkpt lat="43.9238288" lon="11.2684697"><ele>459.2857142857143</ele><time>2026-04-11T09:02:58.145Z</time></trkpt><trkpt lat="43.9238651" lon="11.2683749"><ele>458.0</ele><time>2026-04-11T09:02:59.144Z</time></trkpt><trkpt lat="43.9239065" lon="11.268294"><ele>457.99999999999994</ele><time>2026-04-11T09:03:00.145Z</time></trkpt><trkpt lat="43.9239595" lon="11.2682175"><ele>458.0</ele><time>2026-04-11T09:03:01.145Z</time></trkpt><trkpt lat="43.9240136" lon="11.2681591"><ele>458.0</ele><time>2026-04-11T09:03:02.145Z</time></trkpt><trkpt lat="43.9240772" lon="11.2680961"><ele>458.0</ele><time>2026-04-11T09:03:03.144Z</time></trkpt><trkpt lat="43.9241442" lon="11.2680303"><ele>457.99999999999994</ele><time>2026-04-11T09:03:04.144Z</time></trkpt><trkpt lat="43.9242181" lon="11.2679574"><ele>458.0</ele><time>2026-04-11T09:03:05.145Z</time></trkpt><trkpt lat="43.9242813" lon="11.2678983"><ele>458.4</ele><time>2026-04-11T09:03:06.145Z</time></trkpt><trkpt lat="43.9243508" lon="11.2678275"><ele>458.79999999999995</ele><time>2026-04-11T09:03:07.145Z</time></trkpt><trkpt lat="43.9244315" lon="11.2677559"><ele>459.2</ele><time>2026-04-11T09:03:08.145Z</time></trkpt><trkpt lat="43.9245157" lon="11.2676904"><ele>459.6</ele><time>2026-04-11T09:03:09.145Z</time></trkpt><trkpt lat="43.9246001" lon="11.267625"><ele>460.0</ele><time>2026-04-11T09:03:10.145Z</time></trkpt><trkpt lat="43.9246826" lon="11.2675648"><ele>460.00000000000006</ele><time>2026-04-11T09:03:11.145Z</time></trkpt><trkpt lat="43.9247606" lon="11.2675174"><ele>460.0</ele><time>2026-04-11T09:03:12.144Z</time></trkpt><trkpt lat="43.924838" lon="11.2674833"><ele>460.0</ele><time>2026-04-11T09:03:13.144Z</time></trkpt><trkpt lat="43.9249184" lon="11.2674318"><ele>460.0</ele><time>2026-04-11T09:03:14.143Z</time></trkpt><trkpt lat="43.9249755" lon="11.2673594"><ele>460.00000000000006</ele><time>2026-04-11T09:03:15.144Z</time></trkpt><trkpt lat="43.9250347" lon="11.2672711"><ele>460.0</ele><time>2026-04-11T09:03:16.145Z</time></trkpt><trkpt lat="43.9250848" lon="11.2671802"><ele>460.00000000000006</ele><time>2026-04-11T09:03:17.144Z</time></trkpt><trkpt lat="43.9251235" lon="11.2670849"><ele>460.0</ele><time>2026-04-11T09:03:18.145Z</time></trkpt><trkpt lat="43.9251655" lon="11.2669879"><ele>460.0</ele><time>2026-04-11T09:03:19.145Z</time></trkpt><trkpt lat="43.9252014" lon="11.2668619"><ele>460.0</ele><time>2026-04-11T09:03:20.144Z</time></trkpt><trkpt lat="43.9252491" lon="11.2667717"><ele>460.00000000000006</ele><time>2026-04-11T09:03:21.145Z</time></trkpt><trkpt lat="43.9252999" lon="11.2666934"><ele>460.0</ele><time>2026-04-11T09:03:22.145Z</time></trkpt><trkpt lat="43.9253573" lon="11.2666211"><ele>460.00000000000006</ele><time>2026-04-11T09:03:23.144Z</time></trkpt><trkpt lat="43.9254318" lon="11.2665538"><ele>460.0</ele><time>2026-04-11T09:03:24.145Z</time></trkpt><trkpt lat="43.9254798" lon="11.2664968"><ele>460.0</ele><time>2026-04-11T09:03:25.145Z</time></trkpt><trkpt lat="43.9255481" lon="11.2664444"><ele>460.0</ele><time>2026-04-11T09:03:26.144Z</time></trkpt><trkpt lat="43.925638" lon="11.2663946"><ele>460.00000000000006</ele><time>2026-04-11T09:03:27.144Z</time></trkpt><trkpt lat="43.9257077" lon="11.2663561"><ele>460.0</ele><time>2026-04-11T09:03:28.144Z</time></trkpt><trkpt lat="43.9257748" lon="11.2663315"><ele>460.33333333333337</ele><time>2026-04-11T09:03:29.145Z</time></trkpt><trkpt lat="43.9258498" lon="11.2663132"><ele>460.6666666666667</ele><time>2026-04-11T09:03:30.144Z</time></trkpt><trkpt lat="43.9259338" lon="11.2663293"><ele>461.0</ele><time>2026-04-11T09:03:31.145Z</time></trkpt><trkpt lat="43.9260159" lon="11.2663629"><ele>461.33333333333337</ele><time>2026-04-11T09:03:32.145Z</time></trkpt><trkpt lat="43.9260965" lon="11.2663983"><ele>461.6666666666667</ele><time>2026-04-11T09:03:33.145Z</time></trkpt><trkpt lat="43.9261644" lon="11.2664295"><ele>462.0</ele><time>2026-04-11T09:03:34.145Z</time></trkpt><trkpt lat="43.9262334" lon="11.2664508"><ele>462.0</ele><time>2026-04-11T09:03:35.144Z</time></trkpt><trkpt lat="43.9263535" lon="11.2664883"><ele>462.00000000000006</ele><time>2026-04-11T09:03:37.144Z</time></trkpt><trkpt lat="43.9264528" lon="11.2665374"><ele>462.00000000000006</ele><time>2026-04-11T09:03:39.144Z</time></trkpt><trkpt lat="43.9265517" lon="11.2665259"><ele>462.0</ele><time>2026-04-11T09:03:41.144Z</time></trkpt><trkpt lat="43.9266465" lon="11.2664292"><ele>462.0</ele><time>2026-04-11T09:03:43.145Z</time></trkpt><trkpt lat="43.9266987" lon="11.2663688"><ele>463.0</ele><time>2026-04-11T09:03:44.145Z</time></trkpt><trkpt lat="43.9267536" lon="11.2663219"><ele>464.0</ele><time>2026-04-11T09:03:45.145Z</time></trkpt><trkpt lat="43.9268779" lon="11.2662669"><ele>465.0</ele><time>2026-04-11T09:03:47.144Z</time></trkpt><trkpt lat="43.9269491" lon="11.2662555"><ele>466.0</ele><time>2026-04-11T09:03:48.144Z</time></trkpt><trkpt lat="43.927024" lon="11.2662526"><ele>467.0</ele><time>2026-04-11T09:03:49.144Z</time></trkpt><trkpt lat="43.9270987" lon="11.2662582"><ele>468.0</ele><time>2026-04-11T09:03:50.144Z</time></trkpt><trkpt lat="43.9271682" lon="11.2662601"><ele>468.0</ele><time>2026-04-11T09:03:51.145Z</time></trkpt><trkpt lat="43.927239" lon="11.2662592"><ele>468.00000000000006</ele><time>2026-04-11T09:03:52.144Z</time></trkpt><trkpt lat="43.9273106" lon="11.2662396"><ele>468.0</ele><time>2026-04-11T09:03:53.144Z</time></trkpt><trkpt lat="43.9273809" lon="11.2662104"><ele>468.0</ele><time>2026-04-11T09:03:54.145Z</time></trkpt><trkpt lat="43.9274497" lon="11.2661824"><ele>468.00000000000006</ele><time>2026-04-11T09:03:55.145Z</time></trkpt><trkpt lat="43.9275202" lon="11.266165"><ele>468.0</ele><time>2026-04-11T09:03:56.145Z</time></trkpt><trkpt lat="43.9275956" lon="11.2661714"><ele>468.0</ele><time>2026-04-11T09:03:57.144Z</time></trkpt><trkpt lat="43.9277189" lon="11.266238"><ele>469.8333333333333</ele><time>2026-04-11T09:03:59.144Z</time></trkpt><trkpt lat="43.9277756" lon="11.2662864"><ele>471.66666666666663</ele><time>2026-04-11T09:04:00.144Z</time></trkpt><trkpt lat="43.9278803" lon="11.2663865"><ele>473.5</ele><time>2026-04-11T09:04:02.145Z</time></trkpt><trkpt lat="43.9279573" lon="11.2664074"><ele>475.3333333333333</ele><time>2026-04-11T09:04:03.144Z</time></trkpt><trkpt lat="43.9280283" lon="11.2664061"><ele>477.16666666666663</ele><time>2026-04-11T09:04:04.144Z</time></trkpt><trkpt lat="43.9280994" lon="11.2663707"><ele>479.0</ele><time>2026-04-11T09:04:05.145Z</time></trkpt><trkpt lat="43.9281646" lon="11.2663306"><ele>479.0</ele><time>2026-04-11T09:04:06.145Z</time></trkpt><trkpt lat="43.9282316" lon="11.2662887"><ele>479.0</ele><time>2026-04-11T09:04:07.144Z</time></trkpt><trkpt lat="43.928325" lon="11.2661938"><ele>479.0</ele><time>2026-04-11T09:04:09.145Z</time></trkpt><trkpt lat="43.928405" lon="11.2660897"><ele>479.0</ele><time>2026-04-11T09:04:11.145Z</time></trkpt><trkpt lat="43.9284947" lon="11.266007"><ele>479.0</ele><time>2026-04-11T09:04:13.144Z</time></trkpt><trkpt lat="43.9285948" lon="11.2659428"><ele>478.8333333333333</ele><time>2026-04-11T09:04:15.145Z</time></trkpt><trkpt lat="43.9286606" lon="11.265912"><ele>478.66666666666663</ele><time>2026-04-11T09:04:16.145Z</time></trkpt><trkpt lat="43.9287859" lon="11.2659024"><ele>478.5</ele><time>2026-04-11T09:04:18.144Z</time></trkpt><trkpt lat="43.9288502" lon="11.2659366"><ele>478.33333333333337</ele><time>2026-04-11T09:04:19.145Z</time></trkpt><trkpt lat="43.9289076" lon="11.2659765"><ele>478.1666666666667</ele><time>2026-04-11T09:04:20.145Z</time></trkpt><trkpt lat="43.9290111" lon="11.2660648"><ele>478.0</ele><time>2026-04-11T09:04:22.145Z</time></trkpt><trkpt lat="43.9291124" lon="11.2661466"><ele>478.00000000000006</ele><time>2026-04-11T09:04:24.144Z</time></trkpt><trkpt lat="43.9292004" lon="11.2662021"><ele>478.0</ele><time>2026-04-11T09:04:26.145Z</time></trkpt><trkpt lat="43.9292794" lon="11.2662509"><ele>478.0</ele><time>2026-04-11T09:04:28.144Z</time></trkpt><trkpt lat="43.9293613" lon="11.2662727"><ele>478.0</ele><time>2026-04-11T09:04:30.145Z</time></trkpt><trkpt lat="43.9294384" lon="11.2662754"><ele>478.00000000000006</ele><time>2026-04-11T09:04:32.144Z</time></trkpt><trkpt lat="43.929501" lon="11.2662012"><ele>478.0</ele><time>2026-04-11T09:04:34.145Z</time></trkpt><trkpt lat="43.929522" lon="11.2660993"><ele>472.79999999999995</ele><time>2026-04-11T09:04:36.145Z</time></trkpt><trkpt lat="43.929519" lon="11.2659823"><ele>467.59999999999997</ele><time>2026-04-11T09:04:38.145Z</time></trkpt><trkpt lat="43.929519" lon="11.2658904"><ele>462.40000000000003</ele><time>2026-04-11T09:04:39.145Z</time></trkpt><trkpt lat="43.9295366" lon="11.2657495"><ele>457.20000000000005</ele><time>2026-04-11T09:04:41.145Z</time></trkpt><trkpt lat="43.9295546" lon="11.2655848"><ele>452.0</ele><time>2026-04-11T09:04:43.144Z</time></trkpt><trkpt lat="43.9295541" lon="11.2654143"><ele>450.0</ele><time>2026-04-11T09:04:45.144Z</time></trkpt><trkpt lat="43.9295189" lon="11.2652654"><ele>448.00000000000006</ele><time>2026-04-11T09:04:47.145Z</time></trkpt><trkpt lat="43.9294821" lon="11.2651878"><ele>446.00000000000006</ele><time>2026-04-11T09:04:48.145Z</time></trkpt><trkpt lat="43.9294232" lon="11.2650287"><ele>444.0</ele><time>2026-04-11T09:04:50.144Z</time></trkpt><trkpt lat="43.9293813" lon="11.2649263"><ele>442.0</ele><time>2026-04-11T09:04:51.145Z</time></trkpt><trkpt lat="43.9293438" lon="11.2648368"><ele>441.6666666666667</ele><time>2026-04-11T09:04:52.144Z</time></trkpt><trkpt lat="43.9292917" lon="11.2646669"><ele>441.33333333333337</ele><time>2026-04-11T09:04:54.145Z</time></trkpt><trkpt lat="43.92927" lon="11.2645779"><ele>441.0</ele><time>2026-04-11T09:04:55.144Z</time></trkpt><trkpt lat="43.9292601" lon="11.2644876"><ele>440.66666666666663</ele><time>2026-04-11T09:04:56.144Z</time></trkpt><trkpt lat="43.9292728" lon="11.26438"><ele>440.3333333333333</ele><time>2026-04-11T09:04:57.145Z</time></trkpt><trkpt lat="43.9293064" lon="11.2642929"><ele>440.0</ele><time>2026-04-11T09:04:58.145Z</time></trkpt><trkpt lat="43.9293476" lon="11.2642155"><ele>439.99999999999994</ele><time>2026-04-11T09:04:59.145Z</time></trkpt><trkpt lat="43.929426" lon="11.2641672"><ele>440.0</ele><time>2026-04-11T09:05:00.145Z</time></trkpt><trkpt lat="43.9294881" lon="11.2640898"><ele>440.0</ele><time>2026-04-11T09:05:01.144Z</time></trkpt><trkpt lat="43.9295327" lon="11.2640082"><ele>440.0</ele><time>2026-04-11T09:05:02.145Z</time></trkpt><trkpt lat="43.9295848" lon="11.2639197"><ele>439.99999999999994</ele><time>2026-04-11T09:05:03.145Z</time></trkpt><trkpt lat="43.929613" lon="11.2638348"><ele>440.0</ele><time>2026-04-11T09:05:04.144Z</time></trkpt><trkpt lat="43.9296329" lon="11.2637332"><ele>441.66666666666663</ele><time>2026-04-11T09:05:05.145Z</time></trkpt><trkpt lat="43.9296364" lon="11.2636384"><ele>443.3333333333333</ele><time>2026-04-11T09:05:06.145Z</time></trkpt><trkpt lat="43.9296469" lon="11.2635328"><ele>445.0</ele><time>2026-04-11T09:05:07.144Z</time></trkpt><trkpt lat="43.9297071" lon="11.2633693"><ele>446.66666666666663</ele><time>2026-04-11T09:05:09.145Z</time></trkpt><trkpt lat="43.9297564" lon="11.2633052"><ele>448.3333333333333</ele><time>2026-04-11T09:05:10.144Z</time></trkpt><trkpt lat="43.9298093" lon="11.2632504"><ele>450.0</ele><time>2026-04-11T09:05:11.145Z</time></trkpt><trkpt lat="43.9298626" lon="11.263188"><ele>450.00000000000006</ele><time>2026-04-11T09:05:12.144Z</time></trkpt><trkpt lat="43.9299179" lon="11.2631283"><ele>450.0</ele><time>2026-04-11T09:05:13.144Z</time></trkpt><trkpt lat="43.9299702" lon="11.2630783"><ele>450.00000000000006</ele><time>2026-04-11T09:05:14.145Z</time></trkpt><trkpt lat="43.930036" lon="11.26302"><ele>450.00000000000006</ele><time>2026-04-11T09:05:15.144Z</time></trkpt><trkpt lat="43.9300937" lon="11.2629621"><ele>450.0</ele><time>2026-04-11T09:05:16.145Z</time></trkpt><trkpt lat="43.9301479" lon="11.2628979"><ele>450.00000000000006</ele><time>2026-04-11T09:05:17.145Z</time></trkpt><trkpt lat="43.9302012" lon="11.262841"><ele>450.00000000000006</ele><time>2026-04-11T09:05:18.145Z</time></trkpt><trkpt lat="43.9302903" lon="11.2627574"><ele>447.6</ele><time>2026-04-11T09:05:20.145Z</time></trkpt><trkpt lat="43.9303694" lon="11.2626854"><ele>445.2</ele><time>2026-04-11T09:05:22.144Z</time></trkpt><trkpt lat="43.9304414" lon="11.2626274"><ele>442.79999999999995</ele><time>2026-04-11T09:05:24.145Z</time></trkpt><trkpt lat="43.9305206" lon="11.262567"><ele>440.4</ele><time>2026-04-11T09:05:26.144Z</time></trkpt><trkpt lat="43.9306383" lon="11.2624797"><ele>438.0</ele><time>2026-04-11T09:05:28.145Z</time></trkpt><trkpt lat="43.9306946" lon="11.262432"><ele>438.0</ele><time>2026-04-11T09:05:29.144Z</time></trkpt><trkpt lat="43.9307531" lon="11.2623807"><ele>438.0</ele><time>2026-04-11T09:05:30.145Z</time></trkpt><trkpt lat="43.9308082" lon="11.2623344"><ele>438.0</ele><time>2026-04-11T09:05:31.144Z</time></trkpt><trkpt lat="43.9308671" lon="11.2622932"><ele>438.0</ele><time>2026-04-11T09:05:32.144Z</time></trkpt><trkpt lat="43.930927" lon="11.2622661"><ele>438.0</ele><time>2026-04-11T09:05:33.145Z</time></trkpt><trkpt lat="43.9309887" lon="11.2622476"><ele>438.0</ele><time>2026-04-11T09:05:34.144Z</time></trkpt><trkpt lat="43.931121" lon="11.2621851"><ele>437.0</ele><time>2026-04-11T09:05:36.144Z</time></trkpt><trkpt lat="43.9311971" lon="11.2621162"><ele>435.99999999999994</ele><time>2026-04-11T09:05:37.144Z</time></trkpt><trkpt lat="43.9312706" lon="11.262023"><ele>434.99999999999994</ele><time>2026-04-11T09:05:38.145Z</time></trkpt><trkpt lat="43.931338" lon="11.2619375"><ele>434.0</ele><time>2026-04-11T09:05:39.144Z</time></trkpt><trkpt lat="43.9314172" lon="11.2618374"><ele>433.0</ele><time>2026-04-11T09:05:40.144Z</time></trkpt><trkpt lat="43.9314847" lon="11.2617423"><ele>433.0</ele><time>2026-04-11T09:05:41.145Z</time></trkpt><trkpt lat="43.9315521" lon="11.2616423"><ele>432.99999999999994</ele><time>2026-04-11T09:05:42.145Z</time></trkpt><trkpt lat="43.931616" lon="11.26153"><ele>432.99999999999994</ele><time>2026-04-11T09:05:43.144Z</time></trkpt><trkpt lat="43.9316743" lon="11.2614259"><ele>433.0</ele><time>2026-04-11T09:05:44.144Z</time></trkpt><trkpt lat="43.9317273" lon="11.261314"><ele>433.0</ele><time>2026-04-11T09:05:45.144Z</time></trkpt><trkpt lat="43.9317753" lon="11.2611974"><ele>428.6666666666667</ele><time>2026-04-11T09:05:46.145Z</time></trkpt><trkpt lat="43.9318117" lon="11.2610871"><ele>424.33333333333337</ele><time>2026-04-11T09:05:47.144Z</time></trkpt><trkpt lat="43.9318352" lon="11.2609522"><ele>420.0</ele><time>2026-04-11T09:05:48.144Z</time></trkpt><trkpt lat="43.9318522" lon="11.2608347"><ele>415.66666666666663</ele><time>2026-04-11T09:05:49.145Z</time></trkpt><trkpt lat="43.9318537" lon="11.2607217"><ele>411.3333333333333</ele><time>2026-04-11T09:05:50.145Z</time></trkpt><trkpt lat="43.9318455" lon="11.2606132"><ele>407.0</ele><time>2026-04-11T09:05:51.144Z</time></trkpt><trkpt lat="43.9318084" lon="11.2605041"><ele>406.20000000000005</ele><time>2026-04-11T09:05:52.145Z</time></trkpt><trkpt lat="43.9317701" lon="11.2603945"><ele>405.4</ele><time>2026-04-11T09:05:53.144Z</time></trkpt><trkpt lat="43.9317215" lon="11.2602695"><ele>404.6</ele><time>2026-04-11T09:05:54.144Z</time></trkpt><trkpt lat="43.9316888" lon="11.2601444"><ele>403.79999999999995</ele><time>2026-04-11T09:05:55.145Z</time></trkpt><trkpt lat="43.9316651" lon="11.2600277"><ele>403.0</ele><time>2026-04-11T09:05:56.144Z</time></trkpt><trkpt lat="43.9316422" lon="11.2599165"><ele>407.00000000000006</ele><time>2026-04-11T09:05:57.145Z</time></trkpt><trkpt lat="43.9316159" lon="11.2598208"><ele>411.0</ele><time>2026-04-11T09:05:58.144Z</time></trkpt><trkpt lat="43.9315988" lon="11.2597173"><ele>415.0</ele><time>2026-04-11T09:05:59.144Z</time></trkpt><trkpt lat="43.9315767" lon="11.2595477"><ele>419.0</ele><time>2026-04-11T09:06:01.145Z</time></trkpt><trkpt lat="43.9315584" lon="11.2594549"><ele>423.00000000000006</ele><time>2026-04-11T09:06:02.145Z</time></trkpt><trkpt lat="43.9315357" lon="11.2593504"><ele>427.0</ele><time>2026-04-11T09:06:03.145Z</time></trkpt><trkpt lat="43.9315139" lon="11.2592498"><ele>427.0</ele><time>2026-04-11T09:06:04.145Z</time></trkpt><trkpt lat="43.9314948" lon="11.2591562"><ele>427.00000000000006</ele><time>2026-04-11T09:06:05.145Z</time></trkpt><trkpt lat="43.9314808" lon="11.2590416"><ele>427.00000000000006</ele><time>2026-04-11T09:06:06.145Z</time></trkpt><trkpt lat="43.931473" lon="11.2589391"><ele>427.0</ele><time>2026-04-11T09:06:07.144Z</time></trkpt><trkpt lat="43.9314878" lon="11.2587759"><ele>427.0</ele><time>2026-04-11T09:06:09.145Z</time></trkpt><trkpt lat="43.9315133" lon="11.258627"><ele>427.50000000000006</ele><time>2026-04-11T09:06:11.145Z</time></trkpt><trkpt lat="43.9315481" lon="11.2584744"><ele>428.0</ele><time>2026-04-11T09:06:13.145Z</time></trkpt><trkpt lat="43.9316125" lon="11.2583381"><ele>428.5</ele><time>2026-04-11T09:06:15.145Z</time></trkpt><trkpt lat="43.9316566" lon="11.2582698"><ele>429.0</ele><time>2026-04-11T09:06:16.145Z</time></trkpt><trkpt lat="43.9317065" lon="11.2582046"><ele>429.50000000000006</ele><time>2026-04-11T09:06:17.144Z</time></trkpt><trkpt lat="43.9317536" lon="11.2581378"><ele>430.0</ele><time>2026-04-11T09:06:18.145Z</time></trkpt><trkpt lat="43.9318087" lon="11.2580702"><ele>425.33333333333337</ele><time>2026-04-11T09:06:19.145Z</time></trkpt><trkpt lat="43.9318672" lon="11.2579882"><ele>420.6666666666667</ele><time>2026-04-11T09:06:20.144Z</time></trkpt><trkpt lat="43.9319257" lon="11.2579109"><ele>416.0</ele><time>2026-04-11T09:06:21.145Z</time></trkpt><trkpt lat="43.9319845" lon="11.257821"><ele>411.33333333333337</ele><time>2026-04-11T09:06:22.145Z</time></trkpt><trkpt lat="43.9320439" lon="11.2577373"><ele>406.6666666666667</ele><time>2026-04-11T09:06:23.144Z</time></trkpt><trkpt lat="43.9321002" lon="11.257655"><ele>402.0</ele><time>2026-04-11T09:06:24.145Z</time></trkpt><trkpt lat="43.9321544" lon="11.2575716"><ele>402.0</ele><time>2026-04-11T09:06:25.145Z</time></trkpt><trkpt lat="43.9322052" lon="11.2574891"><ele>402.0</ele><time>2026-04-11T09:06:26.144Z</time></trkpt><trkpt lat="43.9322582" lon="11.2574046"><ele>402.0</ele><time>2026-04-11T09:06:27.144Z</time></trkpt><trkpt lat="43.932308" lon="11.257308"><ele>402.0</ele><time>2026-04-11T09:06:28.144Z</time></trkpt><trkpt lat="43.9323503" lon="11.2572167"><ele>402.0</ele><time>2026-04-11T09:06:29.145Z</time></trkpt><trkpt lat="43.9323914" lon="11.257133"><ele>402.0</ele><time>2026-04-11T09:06:30.145Z</time></trkpt><trkpt lat="43.9324271" lon="11.2570502"><ele>403.0</ele><time>2026-04-11T09:06:31.144Z</time></trkpt><trkpt lat="43.9324941" lon="11.2569112"><ele>404.0</ele><time>2026-04-11T09:06:33.144Z</time></trkpt><trkpt lat="43.9325555" lon="11.2567884"><ele>405.0</ele><time>2026-04-11T09:06:35.144Z</time></trkpt><trkpt lat="43.9326218" lon="11.2566655"><ele>406.0</ele><time>2026-04-11T09:06:37.145Z</time></trkpt><trkpt lat="43.93268" lon="11.25657"><ele>407.0</ele><time>2026-04-11T09:06:39.144Z</time></trkpt><trkpt lat="43.9327389" lon="11.256481"><ele>398.20000000000005</ele><time>2026-04-11T09:06:41.145Z</time></trkpt><trkpt lat="43.9327992" lon="11.2563818"><ele>389.4</ele><time>2026-04-11T09:06:43.144Z</time></trkpt><trkpt lat="43.9328379" lon="11.2562471"><ele>380.6</ele><time>2026-04-11T09:06:45.145Z</time></trkpt><trkpt lat="43.9328325" lon="11.2560696"><ele>371.79999999999995</ele><time>2026-04-11T09:06:47.145Z</time></trkpt><trkpt lat="43.9328083" lon="11.2559707"><ele>363.0</ele><time>2026-04-11T09:06:48.145Z</time></trkpt><trkpt lat="43.932777" lon="11.2558745"><ele>363.0</ele><time>2026-04-11T09:06:49.144Z</time></trkpt><trkpt lat="43.9327402" lon="11.2557775"><ele>363.0</ele><time>2026-04-11T09:06:50.145Z</time></trkpt><trkpt lat="43.932694" lon="11.2556568"><ele>363.0</ele><time>2026-04-11T09:06:51.145Z</time></trkpt><trkpt lat="43.9326493" lon="11.2555236"><ele>363.0</ele><time>2026-04-11T09:06:52.145Z</time></trkpt><trkpt lat="43.9326046" lon="11.255381"><ele>363.0</ele><time>2026-04-11T09:06:53.144Z</time></trkpt><trkpt lat="43.9325607" lon="11.2552633"><ele>365.1666666666667</ele><time>2026-04-11T09:06:54.144Z</time></trkpt><trkpt lat="43.9325128" lon="11.2551377"><ele>367.3333333333333</ele><time>2026-04-11T09:06:55.145Z</time></trkpt><trkpt lat="43.932473" lon="11.2550257"><ele>369.5</ele><time>2026-04-11T09:06:56.144Z</time></trkpt><trkpt lat="43.9324365" lon="11.2549193"><ele>371.66666666666663</ele><time>2026-04-11T09:06:57.145Z</time></trkpt><trkpt lat="43.9324073" lon="11.2548261"><ele>373.8333333333333</ele><time>2026-04-11T09:06:58.145Z</time></trkpt><trkpt lat="43.9323813" lon="11.2547251"><ele>376.0</ele><time>2026-04-11T09:06:59.145Z</time></trkpt><trkpt lat="43.9323642" lon="11.2546344"><ele>376.0</ele><time>2026-04-11T09:07:00.144Z</time></trkpt><trkpt lat="43.9323529" lon="11.2544774"><ele>376.0</ele><time>2026-04-11T09:07:02.145Z</time></trkpt><trkpt lat="43.9323441" lon="11.254311"><ele>376.0</ele><time>2026-04-11T09:07:04.145Z</time></trkpt><trkpt lat="43.9323081" lon="11.25415"><ele>376.0</ele><time>2026-04-11T09:07:06.145Z</time></trkpt><trkpt lat="43.9322828" lon="11.2540695"><ele>376.0</ele><time>2026-04-11T09:07:07.145Z</time></trkpt><trkpt lat="43.9322647" lon="11.2539846"><ele>374.85714285714283</ele><time>2026-04-11T09:07:08.144Z</time></trkpt><trkpt lat="43.932253" lon="11.2538976"><ele>373.71428571428567</ele><time>2026-04-11T09:07:09.145Z</time></trkpt><trkpt lat="43.9322421" lon="11.2538109"><ele>372.57142857142856</ele><time>2026-04-11T09:07:10.145Z</time></trkpt><trkpt lat="43.9322214" lon="11.2537142"><ele>371.42857142857144</ele><time>2026-04-11T09:07:11.145Z</time></trkpt><trkpt lat="43.9321891" lon="11.2536364"><ele>370.2857142857143</ele><time>2026-04-11T09:07:12.145Z</time></trkpt><trkpt lat="43.93215" lon="11.2535563"><ele>369.14285714285717</ele><time>2026-04-11T09:07:13.145Z</time></trkpt><trkpt lat="43.9321023" lon="11.253472"><ele>368.0</ele><time>2026-04-11T09:07:14.145Z</time></trkpt><trkpt lat="43.9320599" lon="11.2534001"><ele>368.0</ele><time>2026-04-11T09:07:15.143Z</time></trkpt><trkpt lat="43.9320201" lon="11.2533274"><ele>368.0</ele><time>2026-04-11T09:07:16.145Z</time></trkpt><trkpt lat="43.9319776" lon="11.2532469"><ele>368.0</ele><time>2026-04-11T09:07:17.145Z</time></trkpt><trkpt lat="43.9319324" lon="11.2531568"><ele>368.0</ele><time>2026-04-11T09:07:18.145Z</time></trkpt><trkpt lat="43.9318807" lon="11.2530645"><ele>368.0</ele><time>2026-04-11T09:07:19.145Z</time></trkpt><trkpt lat="43.9318335" lon="11.2529702"><ele>368.0</ele><time>2026-04-11T09:07:20.145Z</time></trkpt><trkpt lat="43.9317793" lon="11.2528639"><ele>367.5</ele><time>2026-04-11T09:07:21.143Z</time></trkpt><trkpt lat="43.931732" lon="11.2527731"><ele>367.0</ele><time>2026-04-11T09:07:22.145Z</time></trkpt><trkpt lat="43.9316803" lon="11.2526643"><ele>366.5</ele><time>2026-04-11T09:07:23.144Z</time></trkpt><trkpt lat="43.9316399" lon="11.2525664"><ele>366.0</ele><time>2026-04-11T09:07:24.145Z</time></trkpt><trkpt lat="43.9316096" lon="11.2524809"><ele>365.5</ele><time>2026-04-11T09:07:25.144Z</time></trkpt><trkpt lat="43.931566" lon="11.2523318"><ele>365.0</ele><time>2026-04-11T09:07:27.144Z</time></trkpt><trkpt lat="43.9315437" lon="11.2522463"><ele>366.33333333333337</ele><time>2026-04-11T09:07:28.145Z</time></trkpt><trkpt lat="43.9315111" lon="11.2521662"><ele>367.6666666666667</ele><time>2026-04-11T09:07:29.144Z</time></trkpt><trkpt lat="43.9314731" lon="11.2520691"><ele>369.0</ele><time>2026-04-11T09:07:30.145Z</time></trkpt><trkpt lat="43.9314439" lon="11.2519697"><ele>370.3333333333333</ele><time>2026-04-11T09:07:31.145Z</time></trkpt><trkpt lat="43.9314197" lon="11.2518731"><ele>371.66666666666663</ele><time>2026-04-11T09:07:32.144Z</time></trkpt><trkpt lat="43.9313993" lon="11.2517643"><ele>373.0</ele><time>2026-04-11T09:07:33.145Z</time></trkpt><trkpt lat="43.9313829" lon="11.2516663"><ele>373.0</ele><time>2026-04-11T09:07:34.145Z</time></trkpt><trkpt lat="43.9313593" lon="11.251519"><ele>373.0</ele><time>2026-04-11T09:07:36.144Z</time></trkpt><trkpt lat="43.9313404" lon="11.2514205"><ele>373.0</ele><time>2026-04-11T09:07:38.145Z</time></trkpt><trkpt lat="43.9313179" lon="11.2513322"><ele>373.0</ele><time>2026-04-11T09:07:42.144Z</time></trkpt><trkpt lat="43.931288" lon="11.2512552"><ele>373.0</ele><time>2026-04-11T09:07:52.144Z</time></trkpt><trkpt lat="43.9312761" lon="11.2511431"><ele>373.0</ele><time>2026-04-11T09:07:55.144Z</time></trkpt><trkpt lat="43.93129" lon="11.251057"><ele>376.0</ele><time>2026-04-11T09:07:57.145Z</time></trkpt><trkpt lat="43.9312548" lon="11.2509454"><ele>379.0</ele><time>2026-04-11T09:08:00.145Z</time></trkpt><trkpt lat="43.9312123" lon="11.2508622"><ele>382.0</ele><time>2026-04-11T09:08:04.145Z</time></trkpt><trkpt lat="43.9312683" lon="11.2508136"><ele>385.0</ele><time>2026-04-11T09:08:09.144Z</time></trkpt><trkpt lat="43.9313133" lon="11.250914"><ele>388.00000000000006</ele><time>2026-04-11T09:08:32.144Z</time></trkpt><trkpt lat="43.9313676" lon="11.2510146"><ele>391.0</ele><time>2026-04-11T09:08:34.145Z</time></trkpt><trkpt lat="43.9314163" lon="11.2510702"><ele>391.0</ele><time>2026-04-11T09:08:35.145Z</time></trkpt><trkpt lat="43.9314842" lon="11.25119"><ele>391.0</ele><time>2026-04-11T09:08:37.145Z</time></trkpt><trkpt lat="43.9315717" lon="11.2513196"><ele>391.0</ele><time>2026-04-11T09:08:39.145Z</time></trkpt><trkpt lat="43.9316497" lon="11.2514435"><ele>391.0</ele><time>2026-04-11T09:08:41.144Z</time></trkpt><trkpt lat="43.9316946" lon="11.2515069"><ele>391.0</ele><time>2026-04-11T09:08:42.145Z</time></trkpt><trkpt lat="43.9317412" lon="11.2515792"><ele>390.1666666666667</ele><time>2026-04-11T09:08:43.145Z</time></trkpt><trkpt lat="43.9317913" lon="11.2516619"><ele>389.33333333333337</ele><time>2026-04-11T09:08:44.145Z</time></trkpt><trkpt lat="43.9318526" lon="11.2517526"><ele>388.5</ele><time>2026-04-11T09:08:45.144Z</time></trkpt><trkpt lat="43.9319163" lon="11.2518337"><ele>387.66666666666663</ele><time>2026-04-11T09:08:46.144Z</time></trkpt><trkpt lat="43.9319835" lon="11.2519157"><ele>386.8333333333333</ele><time>2026-04-11T09:08:47.145Z</time></trkpt><trkpt lat="43.9320506" lon="11.2519963"><ele>386.0</ele><time>2026-04-11T09:08:48.144Z</time></trkpt><trkpt lat="43.9321113" lon="11.2520698"><ele>386.00000000000006</ele><time>2026-04-11T09:08:49.144Z</time></trkpt><trkpt lat="43.9321752" lon="11.2521355"><ele>386.0</ele><time>2026-04-11T09:08:50.145Z</time></trkpt><trkpt lat="43.9322434" lon="11.2521953"><ele>386.0</ele><time>2026-04-11T09:08:51.145Z</time></trkpt><trkpt lat="43.9323044" lon="11.2522467"><ele>386.0</ele><time>2026-04-11T09:08:52.145Z</time></trkpt><trkpt lat="43.9323617" lon="11.2522975"><ele>386.0</ele><time>2026-04-11T09:08:53.144Z</time></trkpt><trkpt lat="43.9324183" lon="11.2523448"><ele>386.00000000000006</ele><time>2026-04-11T09:08:54.144Z</time></trkpt><trkpt lat="43.9324781" lon="11.2524003"><ele>386.0</ele><time>2026-04-11T09:08:55.145Z</time></trkpt><trkpt lat="43.9325257" lon="11.2524632"><ele>385.6</ele><time>2026-04-11T09:08:56.144Z</time></trkpt><trkpt lat="43.9325808" lon="11.2525943"><ele>385.20000000000005</ele><time>2026-04-11T09:08:58.145Z</time></trkpt><trkpt lat="43.9326141" lon="11.2527424"><ele>384.79999999999995</ele><time>2026-04-11T09:09:00.144Z</time></trkpt><trkpt lat="43.932655" lon="11.2528893"><ele>384.4</ele><time>2026-04-11T09:09:02.145Z</time></trkpt><trkpt lat="43.9326749" lon="11.2529773"><ele>384.0</ele><time>2026-04-11T09:09:03.145Z</time></trkpt><trkpt lat="43.9327148" lon="11.2530531"><ele>382.6666666666667</ele><time>2026-04-11T09:09:04.144Z</time></trkpt><trkpt lat="43.9327562" lon="11.253133"><ele>381.3333333333333</ele><time>2026-04-11T09:09:05.145Z</time></trkpt><trkpt lat="43.9328583" lon="11.253241"><ele>380.0</ele><time>2026-04-11T09:09:07.145Z</time></trkpt><trkpt lat="43.9329146" lon="11.2533152"><ele>378.66666666666663</ele><time>2026-04-11T09:09:08.144Z</time></trkpt><trkpt lat="43.9329639" lon="11.2533883"><ele>377.3333333333333</ele><time>2026-04-11T09:09:09.144Z</time></trkpt><trkpt lat="43.933016" lon="11.2534568"><ele>376.0</ele><time>2026-04-11T09:09:10.145Z</time></trkpt><trkpt lat="43.9330693" lon="11.2535215"><ele>376.0</ele><time>2026-04-11T09:09:11.145Z</time></trkpt><trkpt lat="43.9331192" lon="11.2535969"><ele>376.0</ele><time>2026-04-11T09:09:12.145Z</time></trkpt><trkpt lat="43.9331605" lon="11.2536854"><ele>376.0</ele><time>2026-04-11T09:09:13.144Z</time></trkpt><trkpt lat="43.9332007" lon="11.2537948"><ele>376.0</ele><time>2026-04-11T09:09:14.144Z</time></trkpt><trkpt lat="43.9332385" lon="11.2539189"><ele>376.0</ele><time>2026-04-11T09:09:15.144Z</time></trkpt><trkpt lat="43.9332677" lon="11.2540299"><ele>376.0</ele><time>2026-04-11T09:09:16.145Z</time></trkpt><trkpt lat="43.933306" lon="11.2541435"><ele>374.0</ele><time>2026-04-11T09:09:17.144Z</time></trkpt><trkpt lat="43.9333442" lon="11.2542532"><ele>372.0</ele><time>2026-04-11T09:09:18.145Z</time></trkpt><trkpt lat="43.9333904" lon="11.2543651"><ele>370.0</ele><time>2026-04-11T09:09:19.144Z</time></trkpt><trkpt lat="43.9334468" lon="11.25447"><ele>368.0</ele><time>2026-04-11T09:09:20.145Z</time></trkpt><trkpt lat="43.9335132" lon="11.2545703"><ele>366.0</ele><time>2026-04-11T09:09:21.144Z</time></trkpt><trkpt lat="43.9335787" lon="11.2546637"><ele>369.0</ele><time>2026-04-11T09:09:22.145Z</time></trkpt><trkpt lat="43.9336508" lon="11.2547558"><ele>372.0</ele><time>2026-04-11T09:09:23.145Z</time></trkpt><trkpt lat="43.9337178" lon="11.254839"><ele>375.0</ele><time>2026-04-11T09:09:24.144Z</time></trkpt><trkpt lat="43.9337825" lon="11.254924"><ele>378.0</ele><time>2026-04-11T09:09:25.145Z</time></trkpt><trkpt lat="43.9338431" lon="11.2550076"><ele>381.0</ele><time>2026-04-11T09:09:26.145Z</time></trkpt><trkpt lat="43.9339006" lon="11.255091"><ele>384.0</ele><time>2026-04-11T09:09:27.145Z</time></trkpt><trkpt lat="43.9339622" lon="11.2551791"><ele>384.0</ele><time>2026-04-11T09:09:28.145Z</time></trkpt><trkpt lat="43.9340232" lon="11.2552627"><ele>384.0</ele><time>2026-04-11T09:09:29.145Z</time></trkpt><trkpt lat="43.9340918" lon="11.2553447"><ele>384.0</ele><time>2026-04-11T09:09:30.145Z</time></trkpt><trkpt lat="43.9341612" lon="11.2554274"><ele>384.0</ele><time>2026-04-11T09:09:31.145Z</time></trkpt><trkpt lat="43.9342321" lon="11.255513"><ele>384.0</ele><time>2026-04-11T09:09:32.145Z</time></trkpt><trkpt lat="43.9342993" lon="11.2556038"><ele>386.6</ele><time>2026-04-11T09:09:33.145Z</time></trkpt><trkpt lat="43.9343676" lon="11.2557055"><ele>389.2</ele><time>2026-04-11T09:09:34.144Z</time></trkpt><trkpt lat="43.9344387" lon="11.255816"><ele>391.8</ele><time>2026-04-11T09:09:35.145Z</time></trkpt><trkpt lat="43.9345046" lon="11.2559238"><ele>394.40000000000003</ele><time>2026-04-11T09:09:36.144Z</time></trkpt><trkpt lat="43.934572" lon="11.2560404"><ele>397.0</ele><time>2026-04-11T09:09:37.145Z</time></trkpt><trkpt lat="43.9346337" lon="11.2561538"><ele>397.0</ele><time>2026-04-11T09:09:38.145Z</time></trkpt><trkpt lat="43.9346833" lon="11.2562538"><ele>397.0</ele><time>2026-04-11T09:09:39.144Z</time></trkpt><trkpt lat="43.9347266" lon="11.2563551"><ele>397.0</ele><time>2026-04-11T09:09:40.145Z</time></trkpt><trkpt lat="43.9347729" lon="11.2564642"><ele>397.0</ele><time>2026-04-11T09:09:41.145Z</time></trkpt><trkpt lat="43.9348184" lon="11.2565831"><ele>397.0</ele><time>2026-04-11T09:09:42.145Z</time></trkpt><trkpt lat="43.9348553" lon="11.2567069"><ele>399.33333333333337</ele><time>2026-04-11T09:09:43.145Z</time></trkpt><trkpt lat="43.9348863" lon="11.2568178"><ele>401.6666666666667</ele><time>2026-04-11T09:09:44.145Z</time></trkpt><trkpt lat="43.9349213" lon="11.2569204"><ele>404.0</ele><time>2026-04-11T09:09:45.144Z</time></trkpt><trkpt lat="43.9349526" lon="11.2570217"><ele>406.33333333333337</ele><time>2026-04-11T09:09:46.145Z</time></trkpt><trkpt lat="43.9349871" lon="11.2571189"><ele>408.6666666666667</ele><time>2026-04-11T09:09:47.145Z</time></trkpt><trkpt lat="43.9350256" lon="11.2572272"><ele>411.0</ele><time>2026-04-11T09:09:48.145Z</time></trkpt><trkpt lat="43.935063" lon="11.2573411"><ele>411.0</ele><time>2026-04-11T09:09:49.144Z</time></trkpt><trkpt lat="43.9350989" lon="11.2574584"><ele>411.0</ele><time>2026-04-11T09:09:50.144Z</time></trkpt><trkpt lat="43.9351312" lon="11.2575785"><ele>411.0</ele><time>2026-04-11T09:09:51.145Z</time></trkpt><trkpt lat="43.9351616" lon="11.257708"><ele>411.0</ele><time>2026-04-11T09:09:52.145Z</time></trkpt><trkpt lat="43.9351907" lon="11.2578342"><ele>411.0</ele><time>2026-04-11T09:09:53.145Z</time></trkpt><trkpt lat="43.935223" lon="11.2579498"><ele>411.0</ele><time>2026-04-11T09:09:54.145Z</time></trkpt><trkpt lat="43.9352556" lon="11.2580591"><ele>411.0</ele><time>2026-04-11T09:09:55.145Z</time></trkpt><trkpt lat="43.9352771" lon="11.2581696"><ele>411.0</ele><time>2026-04-11T09:09:56.145Z</time></trkpt><trkpt lat="43.9352911" lon="11.2582706"><ele>411.0</ele><time>2026-04-11T09:09:57.145Z</time></trkpt><trkpt lat="43.9353002" lon="11.2583829"><ele>411.0</ele><time>2026-04-11T09:09:59.145Z</time></trkpt><trkpt lat="43.9352911" lon="11.2585299"><ele>411.0</ele><time>2026-04-11T09:10:09.145Z</time></trkpt><trkpt lat="43.9352865" lon="11.2586285"><ele>408.8333333333333</ele><time>2026-04-11T09:10:10.145Z</time></trkpt><trkpt lat="43.9352829" lon="11.2587426"><ele>406.66666666666663</ele><time>2026-04-11T09:10:11.145Z</time></trkpt><trkpt lat="43.93528" lon="11.2588605"><ele>404.5</ele><time>2026-04-11T09:10:12.145Z</time></trkpt><trkpt lat="43.9352812" lon="11.2589693"><ele>402.3333333333333</ele><time>2026-04-11T09:10:13.145Z</time></trkpt><trkpt lat="43.9352874" lon="11.2590668"><ele>400.16666666666663</ele><time>2026-04-11T09:10:14.145Z</time></trkpt><trkpt lat="43.9352957" lon="11.2592363"><ele>398.0</ele><time>2026-04-11T09:10:16.144Z</time></trkpt><trkpt lat="43.9352907" lon="11.2593259"><ele>396.66666666666663</ele><time>2026-04-11T09:10:17.144Z</time></trkpt><trkpt lat="43.935284" lon="11.2594223"><ele>395.3333333333333</ele><time>2026-04-11T09:10:18.144Z</time></trkpt><trkpt lat="43.9352821" lon="11.2595241"><ele>394.0</ele><time>2026-04-11T09:10:19.145Z</time></trkpt><trkpt lat="43.9352798" lon="11.2596337"><ele>392.66666666666663</ele><time>2026-04-11T09:10:20.145Z</time></trkpt><trkpt lat="43.9352764" lon="11.2597428"><ele>391.3333333333333</ele><time>2026-04-11T09:10:21.144Z</time></trkpt><trkpt lat="43.9352732" lon="11.2598509"><ele>390.0</ele><time>2026-04-11T09:10:22.145Z</time></trkpt><trkpt lat="43.9352662" lon="11.2599628"><ele>389.3333333333333</ele><time>2026-04-11T09:10:23.144Z</time></trkpt><trkpt lat="43.9352564" lon="11.2600753"><ele>388.66666666666663</ele><time>2026-04-11T09:10:24.145Z</time></trkpt><trkpt lat="43.93525" lon="11.2601852"><ele>388.0</ele><time>2026-04-11T09:10:25.144Z</time></trkpt><trkpt lat="43.9352443" lon="11.2603013"><ele>387.3333333333333</ele><time>2026-04-11T09:10:26.145Z</time></trkpt><trkpt lat="43.9352387" lon="11.2604226"><ele>386.66666666666663</ele><time>2026-04-11T09:10:27.145Z</time></trkpt><trkpt lat="43.9352304" lon="11.2605524"><ele>386.0</ele><time>2026-04-11T09:10:28.145Z</time></trkpt><trkpt lat="43.9352229" lon="11.2606796"><ele>384.99999999999994</ele><time>2026-04-11T09:10:29.145Z</time></trkpt><trkpt lat="43.9352152" lon="11.2608093"><ele>384.0</ele><time>2026-04-11T09:10:30.144Z</time></trkpt><trkpt lat="43.9352083" lon="11.2609303"><ele>383.0</ele><time>2026-04-11T09:10:31.143Z</time></trkpt><trkpt lat="43.9352009" lon="11.2610471"><ele>382.0</ele><time>2026-04-11T09:10:32.144Z</time></trkpt><trkpt lat="43.9351933" lon="11.2611571"><ele>381.0</ele><time>2026-04-11T09:10:33.143Z</time></trkpt><trkpt lat="43.9351805" lon="11.2612632"><ele>380.0</ele><time>2026-04-11T09:10:34.145Z</time></trkpt><trkpt lat="43.9351647" lon="11.261367"><ele>379.6666666666667</ele><time>2026-04-11T09:10:35.145Z</time></trkpt><trkpt lat="43.9351472" lon="11.2614794"><ele>379.33333333333337</ele><time>2026-04-11T09:10:36.144Z</time></trkpt><trkpt lat="43.9351302" lon="11.2615871"><ele>379.0</ele><time>2026-04-11T09:10:37.144Z</time></trkpt><trkpt lat="43.935116" lon="11.2617005"><ele>378.6666666666667</ele><time>2026-04-11T09:10:38.144Z</time></trkpt><trkpt lat="43.9351066" lon="11.2618134"><ele>378.3333333333333</ele><time>2026-04-11T09:10:39.145Z</time></trkpt><trkpt lat="43.9351008" lon="11.2619238"><ele>378.0</ele><time>2026-04-11T09:10:40.144Z</time></trkpt><trkpt lat="43.935107" lon="11.2620149"><ele>378.0</ele><time>2026-04-11T09:10:41.145Z</time></trkpt><trkpt lat="43.9351039" lon="11.2621043"><ele>378.0</ele><time>2026-04-11T09:10:42.144Z</time></trkpt><trkpt lat="43.9350818" lon="11.2622046"><ele>378.0</ele><time>2026-04-11T09:10:43.145Z</time></trkpt><trkpt lat="43.9350558" lon="11.2623295"><ele>378.0</ele><time>2026-04-11T09:10:44.145Z</time></trkpt><trkpt lat="43.9350324" lon="11.2624557"><ele>378.0</ele><time>2026-04-11T09:10:45.144Z</time></trkpt><trkpt lat="43.9350134" lon="11.2625865"><ele>378.0</ele><time>2026-04-11T09:10:46.145Z</time></trkpt><trkpt lat="43.9349964" lon="11.262724"><ele>373.3333333333333</ele><time>2026-04-11T09:10:47.145Z</time></trkpt><trkpt lat="43.9349829" lon="11.2628606"><ele>368.6666666666667</ele><time>2026-04-11T09:10:48.145Z</time></trkpt><trkpt lat="43.9349702" lon="11.2629886"><ele>364.0</ele><time>2026-04-11T09:10:49.144Z</time></trkpt><trkpt lat="43.9349559" lon="11.2631138"><ele>359.33333333333337</ele><time>2026-04-11T09:10:50.144Z</time></trkpt><trkpt lat="43.9349431" lon="11.2632279"><ele>354.6666666666667</ele><time>2026-04-11T09:10:51.145Z</time></trkpt><trkpt lat="43.9349283" lon="11.2633394"><ele>350.0</ele><time>2026-04-11T09:10:52.143Z</time></trkpt><trkpt lat="43.9349149" lon="11.2634541"><ele>349.33333333333337</ele><time>2026-04-11T09:10:53.144Z</time></trkpt><trkpt lat="43.9349014" lon="11.2635645"><ele>348.6666666666667</ele><time>2026-04-11T09:10:54.145Z</time></trkpt><trkpt lat="43.9348864" lon="11.2636888"><ele>348.0</ele><time>2026-04-11T09:10:55.145Z</time></trkpt><trkpt lat="43.9348702" lon="11.2638004"><ele>347.3333333333333</ele><time>2026-04-11T09:10:56.144Z</time></trkpt><trkpt lat="43.9348545" lon="11.263913"><ele>346.66666666666663</ele><time>2026-04-11T09:10:57.145Z</time></trkpt><trkpt lat="43.9348328" lon="11.264038"><ele>346.0</ele><time>2026-04-11T09:10:58.145Z</time></trkpt><trkpt lat="43.9348119" lon="11.2641605"><ele>346.0</ele><time>2026-04-11T09:10:59.145Z</time></trkpt><trkpt lat="43.9347961" lon="11.2642794"><ele>346.0</ele><time>2026-04-11T09:11:00.144Z</time></trkpt><trkpt lat="43.9347786" lon="11.2644009"><ele>346.0</ele><time>2026-04-11T09:11:01.144Z</time></trkpt><trkpt lat="43.9347558" lon="11.2645146"><ele>346.0</ele><time>2026-04-11T09:11:02.144Z</time></trkpt><trkpt lat="43.9347288" lon="11.2646248"><ele>346.0</ele><time>2026-04-11T09:11:03.145Z</time></trkpt><trkpt lat="43.9346973" lon="11.2647317"><ele>346.0</ele><time>2026-04-11T09:11:04.144Z</time></trkpt><trkpt lat="43.9346594" lon="11.2648385"><ele>346.5</ele><time>2026-04-11T09:11:05.145Z</time></trkpt><trkpt lat="43.93462" lon="11.2649458"><ele>347.0</ele><time>2026-04-11T09:11:06.144Z</time></trkpt><trkpt lat="43.9345868" lon="11.2650499"><ele>347.5</ele><time>2026-04-11T09:11:07.145Z</time></trkpt><trkpt lat="43.9345525" lon="11.2651541"><ele>348.0</ele><time>2026-04-11T09:11:08.145Z</time></trkpt><trkpt lat="43.9345179" lon="11.2652596"><ele>348.5</ele><time>2026-04-11T09:11:09.144Z</time></trkpt><trkpt lat="43.9344844" lon="11.2653606"><ele>349.0</ele><time>2026-04-11T09:11:10.145Z</time></trkpt><trkpt lat="43.9344504" lon="11.2654616"><ele>349.0</ele><time>2026-04-11T09:11:11.145Z</time></trkpt><trkpt lat="43.9344154" lon="11.2655686"><ele>349.0</ele><time>2026-04-11T09:11:12.145Z</time></trkpt><trkpt lat="43.934377" lon="11.2656824"><ele>349.0</ele><time>2026-04-11T09:11:13.145Z</time></trkpt><trkpt lat="43.9343426" lon="11.2657912"><ele>349.0</ele><time>2026-04-11T09:11:14.145Z</time></trkpt><trkpt lat="43.9343029" lon="11.2658875"><ele>349.0</ele><time>2026-04-11T09:11:15.145Z</time></trkpt><trkpt lat="43.9342621" lon="11.2659898"><ele>349.0</ele><time>2026-04-11T09:11:16.143Z</time></trkpt><trkpt lat="43.9342175" lon="11.2660996"><ele>343.79999999999995</ele><time>2026-04-11T09:11:17.144Z</time></trkpt><trkpt lat="43.9341746" lon="11.2662133"><ele>338.59999999999997</ele><time>2026-04-11T09:11:18.144Z</time></trkpt><trkpt lat="43.9341375" lon="11.2663387"><ele>333.4</ele><time>2026-04-11T09:11:19.144Z</time></trkpt><trkpt lat="43.9341072" lon="11.2664634"><ele>328.2</ele><time>2026-04-11T09:11:20.144Z</time></trkpt><trkpt lat="43.9340808" lon="11.2665848"><ele>323.0</ele><time>2026-04-11T09:11:21.143Z</time></trkpt><trkpt lat="43.934063" lon="11.2667115"><ele>323.0</ele><time>2026-04-11T09:11:22.144Z</time></trkpt><trkpt lat="43.9340563" lon="11.2668235"><ele>323.0</ele><time>2026-04-11T09:11:23.144Z</time></trkpt><trkpt lat="43.9340591" lon="11.2669435"><ele>323.0</ele><time>2026-04-11T09:11:24.142Z</time></trkpt><trkpt lat="43.9340774" lon="11.2670627"><ele>323.0</ele><time>2026-04-11T09:11:25.144Z</time></trkpt><trkpt lat="43.934106" lon="11.2671868"><ele>323.0</ele><time>2026-04-11T09:11:26.143Z</time></trkpt><trkpt lat="43.9341457" lon="11.2673015"><ele>323.0</ele><time>2026-04-11T09:11:27.144Z</time></trkpt><trkpt lat="43.934193" lon="11.2674295"><ele>327.59999999999997</ele><time>2026-04-11T09:11:28.143Z</time></trkpt><trkpt lat="43.9342477" lon="11.2675627"><ele>332.2</ele><time>2026-04-11T09:11:29.144Z</time></trkpt><trkpt lat="43.9343046" lon="11.2676929"><ele>336.8</ele><time>2026-04-11T09:11:30.144Z</time></trkpt><trkpt lat="43.9343588" lon="11.2678182"><ele>341.4</ele><time>2026-04-11T09:11:31.144Z</time></trkpt><trkpt lat="43.9344069" lon="11.2679422"><ele>346.0</ele><time>2026-04-11T09:11:32.144Z</time></trkpt><trkpt lat="43.9344517" lon="11.2680657"><ele>341.0</ele><time>2026-04-11T09:11:33.143Z</time></trkpt><trkpt lat="43.934494" lon="11.2681817"><ele>336.0</ele><time>2026-04-11T09:11:34.143Z</time></trkpt><trkpt lat="43.9345405" lon="11.2683002"><ele>331.0</ele><time>2026-04-11T09:11:35.144Z</time></trkpt><trkpt lat="43.934594" lon="11.2684286"><ele>326.0</ele><time>2026-04-11T09:11:36.143Z</time></trkpt><trkpt lat="43.9346496" lon="11.268559"><ele>321.0</ele><time>2026-04-11T09:11:37.143Z</time></trkpt><trkpt lat="43.9347049" lon="11.2686822"><ele>321.0</ele><time>2026-04-11T09:11:38.144Z</time></trkpt><trkpt lat="43.9347598" lon="11.2688109"><ele>321.0</ele><time>2026-04-11T09:11:39.144Z</time></trkpt><trkpt lat="43.9348104" lon="11.2689396"><ele>321.0</ele><time>2026-04-11T09:11:40.144Z</time></trkpt><trkpt lat="43.9348554" lon="11.2690731"><ele>321.0</ele><time>2026-04-11T09:11:41.143Z</time></trkpt><trkpt lat="43.9348804" lon="11.2691916"><ele>321.0</ele><time>2026-04-11T09:11:42.143Z</time></trkpt><trkpt lat="43.9348812" lon="11.2693068"><ele>319.40000000000003</ele><time>2026-04-11T09:11:43.143Z</time></trkpt><trkpt lat="43.9348594" lon="11.2694327"><ele>317.8</ele><time>2026-04-11T09:11:44.144Z</time></trkpt><trkpt lat="43.9348196" lon="11.2695633"><ele>316.20000000000005</ele><time>2026-04-11T09:11:45.143Z</time></trkpt><trkpt lat="43.934777" lon="11.2696707"><ele>314.6</ele><time>2026-04-11T09:11:46.143Z</time></trkpt><trkpt lat="43.9347333" lon="11.2697736"><ele>313.0</ele><time>2026-04-11T09:11:47.144Z</time></trkpt><trkpt lat="43.9346866" lon="11.2698798"><ele>313.0</ele><time>2026-04-11T09:11:48.143Z</time></trkpt><trkpt lat="43.9346387" lon="11.2699779"><ele>313.0</ele><time>2026-04-11T09:11:49.143Z</time></trkpt><trkpt lat="43.9345927" lon="11.2700921"><ele>313.0</ele><time>2026-04-11T09:11:50.143Z</time></trkpt><trkpt lat="43.9345553" lon="11.2702187"><ele>313.0</ele><time>2026-04-11T09:11:51.143Z</time></trkpt><trkpt lat="43.9345226" lon="11.2703497"><ele>313.0</ele><time>2026-04-11T09:11:52.143Z</time></trkpt><trkpt lat="43.9345019" lon="11.2704866"><ele>315.0</ele><time>2026-04-11T09:11:53.143Z</time></trkpt><trkpt lat="43.9344772" lon="11.2706211"><ele>317.0</ele><time>2026-04-11T09:11:54.143Z</time></trkpt><trkpt lat="43.9344483" lon="11.2707541"><ele>319.0</ele><time>2026-04-11T09:11:55.143Z</time></trkpt><trkpt lat="43.9344188" lon="11.2708872"><ele>321.0</ele><time>2026-04-11T09:11:56.143Z</time></trkpt><trkpt lat="43.9343877" lon="11.2710173"><ele>323.0</ele><time>2026-04-11T09:11:57.143Z</time></trkpt><trkpt lat="43.9343574" lon="11.2711625"><ele>323.0</ele><time>2026-04-11T09:11:58.144Z</time></trkpt><trkpt lat="43.9343279" lon="11.2713127"><ele>323.0</ele><time>2026-04-11T09:11:59.144Z</time></trkpt><trkpt lat="43.9342928" lon="11.2714683"><ele>323.0</ele><time>2026-04-11T09:12:00.144Z</time></trkpt><trkpt lat="43.9342565" lon="11.271627"><ele>323.0</ele><time>2026-04-11T09:12:01.143Z</time></trkpt><trkpt lat="43.9342182" lon="11.2717824"><ele>321.4</ele><time>2026-04-11T09:12:02.144Z</time></trkpt><trkpt lat="43.9341792" lon="11.2719434"><ele>319.79999999999995</ele><time>2026-04-11T09:12:03.143Z</time></trkpt><trkpt lat="43.9341432" lon="11.2720899"><ele>318.2</ele><time>2026-04-11T09:12:04.143Z</time></trkpt><trkpt lat="43.9341113" lon="11.2722331"><ele>316.6</ele><time>2026-04-11T09:12:05.143Z</time></trkpt><trkpt lat="43.9340766" lon="11.272366"><ele>315.0</ele><time>2026-04-11T09:12:06.144Z</time></trkpt><trkpt lat="43.9340435" lon="11.2724946"><ele>315.0</ele><time>2026-04-11T09:12:07.144Z</time></trkpt><trkpt lat="43.9340135" lon="11.272619"><ele>315.0</ele><time>2026-04-11T09:12:08.144Z</time></trkpt><trkpt lat="43.9339844" lon="11.2727565"><ele>315.0</ele><time>2026-04-11T09:12:09.143Z</time></trkpt><trkpt lat="43.9339614" lon="11.2728967"><ele>315.0</ele><time>2026-04-11T09:12:10.144Z</time></trkpt><trkpt lat="43.9339383" lon="11.273044"><ele>315.0</ele><time>2026-04-11T09:12:11.144Z</time></trkpt><trkpt lat="43.9339154" lon="11.2731883"><ele>314.5</ele><time>2026-04-11T09:12:12.144Z</time></trkpt><trkpt lat="43.9338794" lon="11.2733574"><ele>314.0</ele><time>2026-04-11T09:12:13.144Z</time></trkpt><trkpt lat="43.933839" lon="11.273505"><ele>313.5</ele><time>2026-04-11T09:12:14.144Z</time></trkpt><trkpt lat="43.9338059" lon="11.2736586"><ele>313.0</ele><time>2026-04-11T09:12:15.143Z</time></trkpt><trkpt lat="43.9337706" lon="11.2738176"><ele>313.25</ele><time>2026-04-11T09:12:16.144Z</time></trkpt><trkpt lat="43.9337254" lon="11.2739757"><ele>313.5</ele><time>2026-04-11T09:12:17.144Z</time></trkpt><trkpt lat="43.9336766" lon="11.2741283"><ele>313.75</ele><time>2026-04-11T09:12:18.144Z</time></trkpt><trkpt lat="43.9336423" lon="11.2742831"><ele>314.0</ele><time>2026-04-11T09:12:19.144Z</time></trkpt><trkpt lat="43.9336047" lon="11.2744466"><ele>314.0</ele><time>2026-04-11T09:12:20.142Z</time></trkpt><trkpt lat="43.9335667" lon="11.2746111"><ele>314.0</ele><time>2026-04-11T09:12:21.144Z</time></trkpt><trkpt lat="43.9335361" lon="11.2747659"><ele>314.0</ele><time>2026-04-11T09:12:22.144Z</time></trkpt><trkpt lat="43.933504" lon="11.2749235"><ele>314.0</ele><time>2026-04-11T09:12:23.143Z</time></trkpt><trkpt lat="43.9334657" lon="11.2750849"><ele>315.0</ele><time>2026-04-11T09:12:24.144Z</time></trkpt><trkpt lat="43.9334279" lon="11.2752481"><ele>316.0</ele><time>2026-04-11T09:12:25.143Z</time></trkpt><trkpt lat="43.9333925" lon="11.2754205"><ele>317.0</ele><time>2026-04-11T09:12:26.143Z</time></trkpt><trkpt lat="43.9333471" lon="11.2756032"><ele>318.0</ele><time>2026-04-11T09:12:27.144Z</time></trkpt><trkpt lat="43.9333016" lon="11.2757906"><ele>311.75</ele><time>2026-04-11T09:12:28.144Z</time></trkpt><trkpt lat="43.9332549" lon="11.2759825"><ele>305.5</ele><time>2026-04-11T09:12:29.143Z</time></trkpt><trkpt lat="43.9332033" lon="11.2761828"><ele>299.25</ele><time>2026-04-11T09:12:30.143Z</time></trkpt><trkpt lat="43.9331548" lon="11.2763571"><ele>293.0</ele><time>2026-04-11T09:12:31.142Z</time></trkpt><trkpt lat="43.9331005" lon="11.276519"><ele>292.75</ele><time>2026-04-11T09:12:32.144Z</time></trkpt><trkpt lat="43.933043" lon="11.2766678"><ele>292.5</ele><time>2026-04-11T09:12:33.143Z</time></trkpt><trkpt lat="43.9329762" lon="11.2768128"><ele>292.25</ele><time>2026-04-11T09:12:34.143Z</time></trkpt><trkpt lat="43.9329052" lon="11.2769495"><ele>292.0</ele><time>2026-04-11T09:12:35.143Z</time></trkpt><trkpt lat="43.9328313" lon="11.2770694"><ele>292.0</ele><time>2026-04-11T09:12:36.144Z</time></trkpt><trkpt lat="43.9327546" lon="11.2771812"><ele>292.0</ele><time>2026-04-11T09:12:37.144Z</time></trkpt><trkpt lat="43.9326849" lon="11.2772805"><ele>292.0</ele><time>2026-04-11T09:12:38.143Z</time></trkpt><trkpt lat="43.9326236" lon="11.277369"><ele>292.0</ele><time>2026-04-11T09:12:39.143Z</time></trkpt><trkpt lat="43.9325672" lon="11.2774427"><ele>292.0</ele><time>2026-04-11T09:12:40.142Z</time></trkpt><trkpt lat="43.9324976" lon="11.2775097"><ele>292.5</ele><time>2026-04-11T09:12:41.144Z</time></trkpt><trkpt lat="43.9324378" lon="11.2775669"><ele>293.0</ele><time>2026-04-11T09:12:42.143Z</time></trkpt><trkpt lat="43.9323915" lon="11.2776424"><ele>293.5</ele><time>2026-04-11T09:12:43.143Z</time></trkpt><trkpt lat="43.9323413" lon="11.2778076"><ele>294.0</ele><time>2026-04-11T09:12:45.144Z</time></trkpt><trkpt lat="43.9323121" lon="11.2779148"><ele>294.5</ele><time>2026-04-11T09:12:46.144Z</time></trkpt><trkpt lat="43.932266" lon="11.2780239"><ele>295.0</ele><time>2026-04-11T09:12:47.144Z</time></trkpt><trkpt lat="43.9322043" lon="11.2781353"><ele>295.0</ele><time>2026-04-11T09:12:48.144Z</time></trkpt><trkpt lat="43.9321381" lon="11.2782462"><ele>295.0</ele><time>2026-04-11T09:12:49.144Z</time></trkpt><trkpt lat="43.9320703" lon="11.2783385"><ele>295.0</ele><time>2026-04-11T09:12:50.144Z</time></trkpt><trkpt lat="43.9319858" lon="11.2784467"><ele>295.0</ele><time>2026-04-11T09:12:51.144Z</time></trkpt><trkpt lat="43.9318909" lon="11.2785554"><ele>295.0</ele><time>2026-04-11T09:12:52.143Z</time></trkpt><trkpt lat="43.9317899" lon="11.2786679"><ele>293.0</ele><time>2026-04-11T09:12:53.144Z</time></trkpt><trkpt lat="43.9317014" lon="11.2788006"><ele>291.0</ele><time>2026-04-11T09:12:54.144Z</time></trkpt><trkpt lat="43.9316179" lon="11.2789385"><ele>289.0</ele><time>2026-04-11T09:12:55.143Z</time></trkpt><trkpt lat="43.9315327" lon="11.2790381"><ele>287.0</ele><time>2026-04-11T09:12:56.144Z</time></trkpt><trkpt lat="43.9314377" lon="11.2791206"><ele>286.25</ele><time>2026-04-11T09:12:57.144Z</time></trkpt><trkpt lat="43.9313296" lon="11.2791835"><ele>285.5</ele><time>2026-04-11T09:12:58.144Z</time></trkpt><trkpt lat="43.9312155" lon="11.2792506"><ele>284.75</ele><time>2026-04-11T09:12:59.142Z</time></trkpt><trkpt lat="43.9310939" lon="11.279332"><ele>284.0</ele><time>2026-04-11T09:13:00.143Z</time></trkpt><trkpt lat="43.930972" lon="11.2794224"><ele>283.5</ele><time>2026-04-11T09:13:01.144Z</time></trkpt><trkpt lat="43.9308626" lon="11.27952"><ele>283.0</ele><time>2026-04-11T09:13:02.144Z</time></trkpt><trkpt lat="43.9307573" lon="11.2796233"><ele>282.5</ele><time>2026-04-11T09:13:03.144Z</time></trkpt><trkpt lat="43.9306738" lon="11.2797333"><ele>282.0</ele><time>2026-04-11T09:13:04.143Z</time></trkpt><trkpt lat="43.9306098" lon="11.2798509"><ele>282.0</ele><time>2026-04-11T09:13:05.144Z</time></trkpt><trkpt lat="43.930548" lon="11.2799712"><ele>282.0</ele><time>2026-04-11T09:13:06.144Z</time></trkpt><trkpt lat="43.9304817" lon="11.2800645"><ele>282.0</ele><time>2026-04-11T09:13:07.143Z</time></trkpt><trkpt lat="43.9303971" lon="11.2801484"><ele>282.0</ele><time>2026-04-11T09:13:08.143Z</time></trkpt><trkpt lat="43.9303051" lon="11.2802019"><ele>282.0</ele><time>2026-04-11T09:13:09.144Z</time></trkpt><trkpt lat="43.9302107" lon="11.2802416"><ele>282.0</ele><time>2026-04-11T09:13:10.144Z</time></trkpt><trkpt lat="43.9301134" lon="11.2802983"><ele>282.0</ele><time>2026-04-11T09:13:11.143Z</time></trkpt><trkpt lat="43.9300138" lon="11.2803754"><ele>282.0</ele><time>2026-04-11T09:13:12.144Z</time></trkpt><trkpt lat="43.9299118" lon="11.2804733"><ele>282.0</ele><time>2026-04-11T09:13:13.143Z</time></trkpt><trkpt lat="43.9298121" lon="11.2805931"><ele>280.75</ele><time>2026-04-11T09:13:14.144Z</time></trkpt><trkpt lat="43.9297147" lon="11.280728"><ele>279.5</ele><time>2026-04-11T09:13:15.144Z</time></trkpt><trkpt lat="43.9296284" lon="11.2808562"><ele>278.25</ele><time>2026-04-11T09:13:16.144Z</time></trkpt><trkpt lat="43.9295453" lon="11.2809878"><ele>277.0</ele><time>2026-04-11T09:13:17.143Z</time></trkpt><trkpt lat="43.929462" lon="11.2811124"><ele>277.0</ele><time>2026-04-11T09:13:18.144Z</time></trkpt><trkpt lat="43.9293812" lon="11.281235"><ele>277.0</ele><time>2026-04-11T09:13:19.144Z</time></trkpt><trkpt lat="43.9293102" lon="11.2813432"><ele>277.0</ele><time>2026-04-11T09:13:20.144Z</time></trkpt><trkpt lat="43.9292456" lon="11.2814419"><ele>277.0</ele><time>2026-04-11T09:13:21.143Z</time></trkpt><trkpt lat="43.9291863" lon="11.2815423"><ele>277.0</ele><time>2026-04-11T09:13:22.144Z</time></trkpt><trkpt lat="43.9291117" lon="11.2816603"><ele>276.75</ele><time>2026-04-11T09:13:23.144Z</time></trkpt><trkpt lat="43.9290399" lon="11.2817772"><ele>276.5</ele><time>2026-04-11T09:13:24.143Z</time></trkpt><trkpt lat="43.9289562" lon="11.2819082"><ele>276.25</ele><time>2026-04-11T09:13:25.144Z</time></trkpt><trkpt lat="43.9288673" lon="11.2820456"><ele>276.0</ele><time>2026-04-11T09:13:26.144Z</time></trkpt><trkpt lat="43.9287746" lon="11.2821945"><ele>275.75</ele><time>2026-04-11T09:13:27.143Z</time></trkpt><trkpt lat="43.9286807" lon="11.2823451"><ele>275.5</ele><time>2026-04-11T09:13:28.144Z</time></trkpt><trkpt lat="43.9285824" lon="11.2825003"><ele>275.25</ele><time>2026-04-11T09:13:29.143Z</time></trkpt><trkpt lat="43.9284889" lon="11.2826488"><ele>275.0</ele><time>2026-04-11T09:13:30.143Z</time></trkpt><trkpt lat="43.9283946" lon="11.2828022"><ele>274.25</ele><time>2026-04-11T09:13:31.144Z</time></trkpt><trkpt lat="43.9283052" lon="11.2829573"><ele>273.5</ele><time>2026-04-11T09:13:32.142Z</time></trkpt><trkpt lat="43.9282134" lon="11.2831076"><ele>272.75</ele><time>2026-04-11T09:13:33.144Z</time></trkpt><trkpt lat="43.9281167" lon="11.2832629"><ele>272.0</ele><time>2026-04-11T09:13:34.143Z</time></trkpt><trkpt lat="43.928021" lon="11.2834182"><ele>272.0</ele><time>2026-04-11T09:13:35.143Z</time></trkpt><trkpt lat="43.9279308" lon="11.2835898"><ele>272.0</ele><time>2026-04-11T09:13:36.144Z</time></trkpt><trkpt lat="43.9278517" lon="11.2837353"><ele>272.0</ele><time>2026-04-11T09:13:37.143Z</time></trkpt><trkpt lat="43.9277752" lon="11.2838718"><ele>272.0</ele><time>2026-04-11T09:13:38.142Z</time></trkpt><trkpt lat="43.9276989" lon="11.284011"><ele>272.25</ele><time>2026-04-11T09:13:39.144Z</time></trkpt><trkpt lat="43.9276169" lon="11.2841621"><ele>272.5</ele><time>2026-04-11T09:13:40.143Z</time></trkpt><trkpt lat="43.9275356" lon="11.2843106"><ele>272.75</ele><time>2026-04-11T09:13:41.144Z</time></trkpt><trkpt lat="43.9274557" lon="11.2844673"><ele>273.0</ele><time>2026-04-11T09:13:42.144Z</time></trkpt><trkpt lat="43.9273668" lon="11.2846242"><ele>271.5</ele><time>2026-04-11T09:13:43.144Z</time></trkpt><trkpt lat="43.9272732" lon="11.2847841"><ele>270.0</ele><time>2026-04-11T09:13:44.143Z</time></trkpt><trkpt lat="43.9271815" lon="11.2849423"><ele>268.5</ele><time>2026-04-11T09:13:45.142Z</time></trkpt><trkpt lat="43.9271031" lon="11.2850721"><ele>267.0</ele><time>2026-04-11T09:13:46.143Z</time></trkpt><trkpt lat="43.9270305" lon="11.285196"><ele>267.0</ele><time>2026-04-11T09:13:47.143Z</time></trkpt><trkpt lat="43.9269553" lon="11.2853239"><ele>267.0</ele><time>2026-04-11T09:13:48.144Z</time></trkpt><trkpt lat="43.9268737" lon="11.2854505"><ele>267.0</ele><time>2026-04-11T09:13:49.144Z</time></trkpt><trkpt lat="43.9267872" lon="11.2855776"><ele>267.0</ele><time>2026-04-11T09:13:50.143Z</time></trkpt><trkpt lat="43.9266974" lon="11.2857085"><ele>266.75</ele><time>2026-04-11T09:13:51.144Z</time></trkpt><trkpt lat="43.9266006" lon="11.2858464"><ele>266.5</ele><time>2026-04-11T09:13:52.143Z</time></trkpt><trkpt lat="43.9265122" lon="11.2859571"><ele>266.25</ele><time>2026-04-11T09:13:53.144Z</time></trkpt><trkpt lat="43.9264217" lon="11.2860536"><ele>266.0</ele><time>2026-04-11T09:13:54.144Z</time></trkpt><trkpt lat="43.9263345" lon="11.2861475"><ele>266.0</ele><time>2026-04-11T09:13:55.144Z</time></trkpt><trkpt lat="43.9262561" lon="11.286238"><ele>266.0</ele><time>2026-04-11T09:13:56.143Z</time></trkpt><trkpt lat="43.9261794" lon="11.2863248"><ele>266.0</ele><time>2026-04-11T09:13:57.144Z</time></trkpt><trkpt lat="43.9261239" lon="11.2864033"><ele>266.0</ele><time>2026-04-11T09:13:58.144Z</time></trkpt><trkpt lat="43.9260772" lon="11.2864984"><ele>266.0</ele><time>2026-04-11T09:13:59.144Z</time></trkpt><trkpt lat="43.9260485" lon="11.2866097"><ele>266.0</ele><time>2026-04-11T09:14:00.144Z</time></trkpt><trkpt lat="43.926043" lon="11.2867506"><ele>266.0</ele><time>2026-04-11T09:14:01.144Z</time></trkpt><trkpt lat="43.92606" lon="11.2869041"><ele>266.0</ele><time>2026-04-11T09:14:02.144Z</time></trkpt><trkpt lat="43.9260916" lon="11.2870673"><ele>266.0</ele><time>2026-04-11T09:14:03.144Z</time></trkpt><trkpt lat="43.9261301" lon="11.2872395"><ele>266.0</ele><time>2026-04-11T09:14:04.144Z</time></trkpt><trkpt lat="43.9261721" lon="11.2873992"><ele>266.8</ele><time>2026-04-11T09:14:05.144Z</time></trkpt><trkpt lat="43.9262062" lon="11.2875315"><ele>267.6</ele><time>2026-04-11T09:14:06.144Z</time></trkpt><trkpt lat="43.9262401" lon="11.2876541"><ele>268.4</ele><time>2026-04-11T09:14:07.144Z</time></trkpt><trkpt lat="43.9262748" lon="11.2877673"><ele>269.2</ele><time>2026-04-11T09:14:08.144Z</time></trkpt><trkpt lat="43.9263127" lon="11.2878768"><ele>270.0</ele><time>2026-04-11T09:14:09.144Z</time></trkpt><trkpt lat="43.9263571" lon="11.2879992"><ele>271.0</ele><time>2026-04-11T09:14:10.143Z</time></trkpt><trkpt lat="43.9263878" lon="11.2881497"><ele>272.0</ele><time>2026-04-11T09:14:11.143Z</time></trkpt><trkpt lat="43.9264107" lon="11.288323"><ele>273.0</ele><time>2026-04-11T09:14:12.144Z</time></trkpt><trkpt lat="43.9264382" lon="11.2885029"><ele>274.0</ele><time>2026-04-11T09:14:13.143Z</time></trkpt><trkpt lat="43.92646" lon="11.2886933"><ele>274.0</ele><time>2026-04-11T09:14:14.144Z</time></trkpt><trkpt lat="43.9264689" lon="11.2888868"><ele>274.0</ele><time>2026-04-11T09:14:15.144Z</time></trkpt><trkpt lat="43.9264626" lon="11.2890488"><ele>274.0</ele><time>2026-04-11T09:14:16.144Z</time></trkpt><trkpt lat="43.9264507" lon="11.2891912"><ele>274.0</ele><time>2026-04-11T09:14:17.144Z</time></trkpt><trkpt lat="43.9264089" lon="11.2893067"><ele>273.5</ele><time>2026-04-11T09:14:18.144Z</time></trkpt><trkpt lat="43.9263446" lon="11.2893967"><ele>273.0</ele><time>2026-04-11T09:14:19.144Z</time></trkpt><trkpt lat="43.9262914" lon="11.2894613"><ele>272.5</ele><time>2026-04-11T09:14:20.143Z</time></trkpt><trkpt lat="43.9262175" lon="11.2895584"><ele>272.0</ele><time>2026-04-11T09:14:22.144Z</time></trkpt><trkpt lat="43.926179" lon="11.2896293"><ele>271.5</ele><time>2026-04-11T09:14:25.142Z</time></trkpt><trkpt lat="43.9261219" lon="11.289722"><ele>271.0</ele><time>2026-04-11T09:14:51.144Z</time></trkpt><trkpt lat="43.9260822" lon="11.2897916"><ele>269.0</ele><time>2026-04-11T09:14:57.143Z</time></trkpt><trkpt lat="43.9261425" lon="11.2899297"><ele>267.0</ele><time>2026-04-11T09:15:00.144Z</time></trkpt><trkpt lat="43.9261999" lon="11.2899947"><ele>265.0</ele><time>2026-04-11T09:15:01.144Z</time></trkpt><trkpt lat="43.9262787" lon="11.2900695"><ele>263.0</ele><time>2026-04-11T09:15:02.143Z</time></trkpt><trkpt lat="43.9263653" lon="11.2901532"><ele>261.0</ele><time>2026-04-11T09:15:03.143Z</time></trkpt><trkpt lat="43.9264563" lon="11.2902387"><ele>261.0</ele><time>2026-04-11T09:15:04.144Z</time></trkpt><trkpt lat="43.9265543" lon="11.2903313"><ele>261.0</ele><time>2026-04-11T09:15:05.143Z</time></trkpt><trkpt lat="43.9266594" lon="11.2904287"><ele>261.0</ele><time>2026-04-11T09:15:06.143Z</time></trkpt><trkpt lat="43.9267572" lon="11.2905177"><ele>261.0</ele><time>2026-04-11T09:15:07.143Z</time></trkpt><trkpt lat="43.9268616" lon="11.290602"><ele>259.0</ele><time>2026-04-11T09:15:08.143Z</time></trkpt><trkpt lat="43.9269801" lon="11.2906709"><ele>257.0</ele><time>2026-04-11T09:15:09.143Z</time></trkpt><trkpt lat="43.9271179" lon="11.2907218"><ele>255.0</ele><time>2026-04-11T09:15:10.144Z</time></trkpt><trkpt lat="43.9272707" lon="11.2907458"><ele>253.0</ele><time>2026-04-11T09:15:11.144Z</time></trkpt><trkpt lat="43.9274232" lon="11.2907374"><ele>253.0</ele><time>2026-04-11T09:15:12.144Z</time></trkpt><trkpt lat="43.9275759" lon="11.2906981"><ele>253.0</ele><time>2026-04-11T09:15:13.144Z</time></trkpt><trkpt lat="43.9277326" lon="11.2906343"><ele>253.0</ele><time>2026-04-11T09:15:14.144Z</time></trkpt><trkpt lat="43.9278822" lon="11.2905655"><ele>256.66666666666663</ele><time>2026-04-11T09:15:15.143Z</time></trkpt><trkpt lat="43.9280325" lon="11.290494"><ele>260.3333333333333</ele><time>2026-04-11T09:15:16.144Z</time></trkpt><trkpt lat="43.928185" lon="11.290424"><ele>264.0</ele><time>2026-04-11T09:15:17.144Z</time></trkpt><trkpt lat="43.9283379" lon="11.2903523"><ele>267.3333333333333</ele><time>2026-04-11T09:15:18.144Z</time></trkpt><trkpt lat="43.9284911" lon="11.2902762"><ele>270.66666666666663</ele><time>2026-04-11T09:15:19.144Z</time></trkpt><trkpt lat="43.9286509" lon="11.2901986"><ele>274.0</ele><time>2026-04-11T09:15:20.144Z</time></trkpt><trkpt lat="43.9288028" lon="11.290137"><ele>274.0</ele><time>2026-04-11T09:15:21.144Z</time></trkpt><trkpt lat="43.9289467" lon="11.2901023"><ele>274.0</ele><time>2026-04-11T09:15:22.144Z</time></trkpt><trkpt lat="43.9290865" lon="11.2901093"><ele>274.0</ele><time>2026-04-11T09:15:23.143Z</time></trkpt><trkpt lat="43.9292361" lon="11.2901468"><ele>274.0</ele><time>2026-04-11T09:15:24.144Z</time></trkpt><trkpt lat="43.9293943" lon="11.2902152"><ele>276.0</ele><time>2026-04-11T09:15:25.144Z</time></trkpt><trkpt lat="43.9295578" lon="11.2903076"><ele>278.0</ele><time>2026-04-11T09:15:26.143Z</time></trkpt><trkpt lat="43.929716" lon="11.2904013"><ele>280.0</ele><time>2026-04-11T09:15:27.144Z</time></trkpt><trkpt lat="43.9298718" lon="11.2904881"><ele>280.0</ele><time>2026-04-11T09:15:28.143Z</time></trkpt><trkpt lat="43.9300293" lon="11.2905746"><ele>280.0</ele><time>2026-04-11T09:15:29.144Z</time></trkpt><trkpt lat="43.9301766" lon="11.2906606"><ele>280.0</ele><time>2026-04-11T09:15:30.144Z</time></trkpt><trkpt lat="43.9303185" lon="11.2907624"><ele>275.3333333333333</ele><time>2026-04-11T09:15:31.144Z</time></trkpt><trkpt lat="43.9304571" lon="11.2908796"><ele>270.6666666666667</ele><time>2026-04-11T09:15:32.144Z</time></trkpt><trkpt lat="43.9305982" lon="11.2910099"><ele>266.0</ele><time>2026-04-11T09:15:33.144Z</time></trkpt><trkpt lat="43.9307355" lon="11.2911522"><ele>266.0</ele><time>2026-04-11T09:15:34.143Z</time></trkpt><trkpt lat="43.9308621" lon="11.2912963"><ele>266.0</ele><time>2026-04-11T09:15:35.142Z</time></trkpt><trkpt lat="43.9309802" lon="11.2914357"><ele>266.0</ele><time>2026-04-11T09:15:36.143Z</time></trkpt><trkpt lat="43.9310837" lon="11.2915738"><ele>266.5</ele><time>2026-04-11T09:15:37.144Z</time></trkpt><trkpt lat="43.9311725" lon="11.291708"><ele>267.0</ele><time>2026-04-11T09:15:38.143Z</time></trkpt><trkpt lat="43.9312609" lon="11.2918367"><ele>267.5</ele><time>2026-04-11T09:15:39.143Z</time></trkpt><trkpt lat="43.9313529" lon="11.2919596"><ele>268.0</ele><time>2026-04-11T09:15:40.143Z</time></trkpt><trkpt lat="43.9314459" lon="11.2920895"><ele>268.0</ele><time>2026-04-11T09:15:41.144Z</time></trkpt><trkpt lat="43.9315462" lon="11.2922245"><ele>268.0</ele><time>2026-04-11T09:15:42.144Z</time></trkpt><trkpt lat="43.931651" lon="11.2923658"><ele>268.0</ele><time>2026-04-11T09:15:43.143Z</time></trkpt><trkpt lat="43.9317605" lon="11.2925072"><ele>268.0</ele><time>2026-04-11T09:15:44.144Z</time></trkpt><trkpt lat="43.9318733" lon="11.2926543"><ele>270.66666666666663</ele><time>2026-04-11T09:15:45.143Z</time></trkpt><trkpt lat="43.9319844" lon="11.2928037"><ele>273.3333333333333</ele><time>2026-04-11T09:15:46.144Z</time></trkpt><trkpt lat="43.9320923" lon="11.2929435"><ele>276.0</ele><time>2026-04-11T09:15:47.144Z</time></trkpt><trkpt lat="43.9322001" lon="11.2930846"><ele>273.3333333333333</ele><time>2026-04-11T09:15:48.143Z</time></trkpt><trkpt lat="43.9323159" lon="11.2932292"><ele>270.66666666666663</ele><time>2026-04-11T09:15:49.144Z</time></trkpt><trkpt lat="43.9324334" lon="11.293377"><ele>268.0</ele><time>2026-04-11T09:15:50.143Z</time></trkpt><trkpt lat="43.93255" lon="11.2935284"><ele>268.3333333333333</ele><time>2026-04-11T09:15:51.143Z</time></trkpt><trkpt lat="43.9326591" lon="11.2936731"><ele>268.6666666666667</ele><time>2026-04-11T09:15:52.143Z</time></trkpt><trkpt lat="43.932768" lon="11.2938168"><ele>269.0</ele><time>2026-04-11T09:15:53.143Z</time></trkpt><trkpt lat="43.9328786" lon="11.2939622"><ele>269.0</ele><time>2026-04-11T09:15:54.143Z</time></trkpt><trkpt lat="43.9329789" lon="11.2941021"><ele>269.0</ele><time>2026-04-11T09:15:55.143Z</time></trkpt><trkpt lat="43.9330752" lon="11.2942466"><ele>269.0</ele><time>2026-04-11T09:15:56.144Z</time></trkpt><trkpt lat="43.9331737" lon="11.2943986"><ele>269.0</ele><time>2026-04-11T09:15:57.144Z</time></trkpt><trkpt lat="43.9332725" lon="11.2945522"><ele>269.0</ele><time>2026-04-11T09:15:58.143Z</time></trkpt><trkpt lat="43.9333666" lon="11.2946985"><ele>269.0</ele><time>2026-04-11T09:15:59.143Z</time></trkpt><trkpt lat="43.9334553" lon="11.2948377"><ele>269.0</ele><time>2026-04-11T09:16:00.142Z</time></trkpt><trkpt lat="43.9335375" lon="11.2949709"><ele>269.0</ele><time>2026-04-11T09:16:01.143Z</time></trkpt><trkpt lat="43.9336116" lon="11.2950999"><ele>269.2</ele><time>2026-04-11T09:16:02.143Z</time></trkpt><trkpt lat="43.9336846" lon="11.2952287"><ele>269.4</ele><time>2026-04-11T09:16:03.144Z</time></trkpt><trkpt lat="43.9337522" lon="11.295347"><ele>269.6</ele><time>2026-04-11T09:16:04.142Z</time></trkpt><trkpt lat="43.9338132" lon="11.2954511"><ele>269.8</ele><time>2026-04-11T09:16:05.144Z</time></trkpt><trkpt lat="43.9338662" lon="11.2955464"><ele>270.0</ele><time>2026-04-11T09:16:06.144Z</time></trkpt><trkpt lat="43.933909" lon="11.2956259"><ele>270.0</ele><time>2026-04-11T09:16:07.144Z</time></trkpt><trkpt lat="43.9339757" lon="11.2957398"><ele>270.0</ele><time>2026-04-11T09:16:09.143Z</time></trkpt><trkpt lat="43.9340587" lon="11.2957265"><ele>270.0</ele><time>2026-04-11T09:16:12.144Z</time></trkpt><trkpt lat="43.9340865" lon="11.2956253"><ele>270.0</ele><time>2026-04-11T09:16:14.144Z</time></trkpt><trkpt lat="43.9340583" lon="11.2954706"><ele>270.0</ele><time>2026-04-11T09:16:16.144Z</time></trkpt><trkpt lat="43.9340599" lon="11.2953135"><ele>270.0</ele><time>2026-04-11T09:16:18.143Z</time></trkpt><trkpt lat="43.9340953" lon="11.2952358"><ele>270.0</ele><time>2026-04-11T09:16:19.143Z</time></trkpt><trkpt lat="43.9341428" lon="11.295165"><ele>270.0</ele><time>2026-04-11T09:16:20.143Z</time></trkpt><trkpt lat="43.9341933" lon="11.2950923"><ele>270.0</ele><time>2026-04-11T09:16:21.144Z</time></trkpt><trkpt lat="43.9342459" lon="11.2950199"><ele>270.0</ele><time>2026-04-11T09:16:22.144Z</time></trkpt><trkpt lat="43.9343003" lon="11.2949433"><ele>270.0</ele><time>2026-04-11T09:16:23.144Z</time></trkpt><trkpt lat="43.9343503" lon="11.2948683"><ele>270.0</ele><time>2026-04-11T09:16:24.143Z</time></trkpt><trkpt lat="43.9343908" lon="11.294787"><ele>273.0</ele><time>2026-04-11T09:16:25.143Z</time></trkpt><trkpt lat="43.9344195" lon="11.2947054"><ele>276.0</ele><time>2026-04-11T09:16:26.144Z</time></trkpt><trkpt lat="43.9344446" lon="11.2946108"><ele>279.0</ele><time>2026-04-11T09:16:27.144Z</time></trkpt><trkpt lat="43.9344666" lon="11.2945076"><ele>282.0</ele><time>2026-04-11T09:16:28.143Z</time></trkpt><trkpt lat="43.9344911" lon="11.2944078"><ele>285.0</ele><time>2026-04-11T09:16:29.143Z</time></trkpt><trkpt lat="43.9345168" lon="11.2942945"><ele>288.0</ele><time>2026-04-11T09:16:30.144Z</time></trkpt><trkpt lat="43.934541" lon="11.2941712"><ele>288.0</ele><time>2026-04-11T09:16:31.144Z</time></trkpt><trkpt lat="43.9345721" lon="11.2940467"><ele>288.0</ele><time>2026-04-11T09:16:32.144Z</time></trkpt><trkpt lat="43.934603" lon="11.2939201"><ele>288.0</ele><time>2026-04-11T09:16:33.143Z</time></trkpt><trkpt lat="43.9346341" lon="11.2937872"><ele>288.0</ele><time>2026-04-11T09:16:34.143Z</time></trkpt><trkpt lat="43.9346631" lon="11.2936626"><ele>288.0</ele><time>2026-04-11T09:16:35.144Z</time></trkpt><trkpt lat="43.9346892" lon="11.2935431"><ele>288.6666666666667</ele><time>2026-04-11T09:16:36.143Z</time></trkpt><trkpt lat="43.9347144" lon="11.2934222"><ele>289.3333333333333</ele><time>2026-04-11T09:16:37.144Z</time></trkpt><trkpt lat="43.9347441" lon="11.2933017"><ele>290.0</ele><time>2026-04-11T09:16:38.144Z</time></trkpt><trkpt lat="43.9347759" lon="11.2931941"><ele>290.66666666666663</ele><time>2026-04-11T09:16:39.144Z</time></trkpt><trkpt lat="43.9348135" lon="11.2931149"><ele>291.3333333333333</ele><time>2026-04-11T09:16:40.144Z</time></trkpt><trkpt lat="43.9348622" lon="11.2930583"><ele>292.0</ele><time>2026-04-11T09:16:41.144Z</time></trkpt><trkpt lat="43.9349821" lon="11.2929957"><ele>295.16666666666663</ele><time>2026-04-11T09:16:43.144Z</time></trkpt><trkpt lat="43.9350551" lon="11.2929725"><ele>298.3333333333333</ele><time>2026-04-11T09:16:44.144Z</time></trkpt><trkpt lat="43.9351322" lon="11.2929484"><ele>301.5</ele><time>2026-04-11T09:16:45.144Z</time></trkpt><trkpt lat="43.9352088" lon="11.2929168"><ele>304.6666666666667</ele><time>2026-04-11T09:16:46.142Z</time></trkpt><trkpt lat="43.9352901" lon="11.2928791"><ele>307.83333333333337</ele><time>2026-04-11T09:16:47.143Z</time></trkpt><trkpt lat="43.9353775" lon="11.2928398"><ele>311.0</ele><time>2026-04-11T09:16:48.143Z</time></trkpt><trkpt lat="43.9354674" lon="11.2927942"><ele>311.0</ele><time>2026-04-11T09:16:49.144Z</time></trkpt><trkpt lat="43.9355502" lon="11.2927448"><ele>311.0</ele><time>2026-04-11T09:16:50.144Z</time></trkpt><trkpt lat="43.935636" lon="11.2927022"><ele>311.0</ele><time>2026-04-11T09:16:51.143Z</time></trkpt><trkpt lat="43.9357265" lon="11.2926689"><ele>311.0</ele><time>2026-04-11T09:16:52.143Z</time></trkpt><trkpt lat="43.9358148" lon="11.2926387"><ele>311.0</ele><time>2026-04-11T09:16:53.144Z</time></trkpt><trkpt lat="43.9358967" lon="11.2926204"><ele>311.0</ele><time>2026-04-11T09:16:54.143Z</time></trkpt><trkpt lat="43.935981" lon="11.2926043"><ele>312.0</ele><time>2026-04-11T09:16:55.143Z</time></trkpt><trkpt lat="43.9360466" lon="11.2925822"><ele>313.0</ele><time>2026-04-11T09:16:56.144Z</time></trkpt><trkpt lat="43.9361022" lon="11.2925332"><ele>314.0</ele><time>2026-04-11T09:16:57.144Z</time></trkpt><trkpt lat="43.9361369" lon="11.2924598"><ele>315.0</ele><time>2026-04-11T09:16:58.143Z</time></trkpt><trkpt lat="43.9361594" lon="11.2922834"><ele>316.0</ele><time>2026-04-11T09:17:00.144Z</time></trkpt><trkpt lat="43.9361836" lon="11.2921982"><ele>317.0</ele><time>2026-04-11T09:17:01.143Z</time></trkpt><trkpt lat="43.9362714" lon="11.2920978"><ele>320.0</ele><time>2026-04-11T09:17:03.144Z</time></trkpt><trkpt lat="43.9363882" lon="11.2920337"><ele>323.0</ele><time>2026-04-11T09:17:05.143Z</time></trkpt><trkpt lat="43.9364722" lon="11.2919867"><ele>326.0</ele><time>2026-04-11T09:17:06.144Z</time></trkpt><trkpt lat="43.9365498" lon="11.2919454"><ele>329.0</ele><time>2026-04-11T09:17:07.144Z</time></trkpt><trkpt lat="43.936634" lon="11.2919061"><ele>332.0</ele><time>2026-04-11T09:17:08.144Z</time></trkpt><trkpt lat="43.9367185" lon="11.2918695"><ele>332.5</ele><time>2026-04-11T09:17:09.144Z</time></trkpt><trkpt lat="43.9367995" lon="11.291857"><ele>333.0</ele><time>2026-04-11T09:17:10.144Z</time></trkpt><trkpt lat="43.9368748" lon="11.2918767"><ele>333.5</ele><time>2026-04-11T09:17:11.144Z</time></trkpt><trkpt lat="43.9369363" lon="11.2919212"><ele>334.0</ele><time>2026-04-11T09:17:12.144Z</time></trkpt><trkpt lat="43.9369936" lon="11.2919771"><ele>334.5</ele><time>2026-04-11T09:17:13.144Z</time></trkpt><trkpt lat="43.9371055" lon="11.2920276"><ele>335.0</ele><time>2026-04-11T09:17:15.144Z</time></trkpt><trkpt lat="43.9371998" lon="11.2919484"><ele>335.0</ele><time>2026-04-11T09:17:17.143Z</time></trkpt><trkpt lat="43.9372249" lon="11.2918667"><ele>335.0</ele><time>2026-04-11T09:17:18.143Z</time></trkpt><trkpt lat="43.9372441" lon="11.2917724"><ele>335.0</ele><time>2026-04-11T09:17:19.143Z</time></trkpt><trkpt lat="43.9372566" lon="11.2916724"><ele>335.0</ele><time>2026-04-11T09:17:20.143Z</time></trkpt><trkpt lat="43.9372676" lon="11.2915542"><ele>335.0</ele><time>2026-04-11T09:17:21.143Z</time></trkpt><trkpt lat="43.9372808" lon="11.2914276"><ele>335.0</ele><time>2026-04-11T09:17:22.143Z</time></trkpt><trkpt lat="43.9372723" lon="11.2912971"><ele>336.2</ele><time>2026-04-11T09:17:23.143Z</time></trkpt><trkpt lat="43.9372441" lon="11.2911578"><ele>337.4</ele><time>2026-04-11T09:17:24.144Z</time></trkpt><trkpt lat="43.9372173" lon="11.291028"><ele>338.6</ele><time>2026-04-11T09:17:25.144Z</time></trkpt><trkpt lat="43.9371883" lon="11.2909005"><ele>339.8</ele><time>2026-04-11T09:17:26.144Z</time></trkpt><trkpt lat="43.9371509" lon="11.2907865"><ele>341.0</ele><time>2026-04-11T09:17:27.144Z</time></trkpt><trkpt lat="43.937112" lon="11.2906547"><ele>342.4</ele><time>2026-04-11T09:17:28.144Z</time></trkpt><trkpt lat="43.937066" lon="11.2905498"><ele>343.8</ele><time>2026-04-11T09:17:29.144Z</time></trkpt><trkpt lat="43.9370283" lon="11.2904117"><ele>345.2</ele><time>2026-04-11T09:17:30.143Z</time></trkpt><trkpt lat="43.9370031" lon="11.2902871"><ele>346.59999999999997</ele><time>2026-04-11T09:17:31.144Z</time></trkpt><trkpt lat="43.9369615" lon="11.29016"><ele>348.0</ele><time>2026-04-11T09:17:32.144Z</time></trkpt><trkpt lat="43.9369183" lon="11.2900325"><ele>348.0</ele><time>2026-04-11T09:17:33.144Z</time></trkpt><trkpt lat="43.9368971" lon="11.2899244"><ele>348.0</ele><time>2026-04-11T09:17:34.143Z</time></trkpt><trkpt lat="43.9369724" lon="11.289792"><ele>348.0</ele><time>2026-04-11T09:17:36.144Z</time></trkpt><trkpt lat="43.9370338" lon="11.2897469"><ele>348.0</ele><time>2026-04-11T09:17:37.144Z</time></trkpt><trkpt lat="43.9371047" lon="11.2897243"><ele>348.0</ele><time>2026-04-11T09:17:38.144Z</time></trkpt><trkpt lat="43.9371848" lon="11.2897155"><ele>348.0</ele><time>2026-04-11T09:17:39.143Z</time></trkpt><trkpt lat="43.937264" lon="11.2897205"><ele>349.1666666666667</ele><time>2026-04-11T09:17:40.143Z</time></trkpt><trkpt lat="43.9373504" lon="11.289725"><ele>350.3333333333333</ele><time>2026-04-11T09:17:41.144Z</time></trkpt><trkpt lat="43.9374358" lon="11.2897195"><ele>351.5</ele><time>2026-04-11T09:17:42.143Z</time></trkpt><trkpt lat="43.9375219" lon="11.2896929"><ele>352.66666666666663</ele><time>2026-04-11T09:17:43.144Z</time></trkpt><trkpt lat="43.937602" lon="11.2896427"><ele>353.8333333333333</ele><time>2026-04-11T09:17:44.143Z</time></trkpt><trkpt lat="43.9376733" lon="11.2895694"><ele>355.0</ele><time>2026-04-11T09:17:45.143Z</time></trkpt><trkpt lat="43.9377378" lon="11.2894821"><ele>357.0</ele><time>2026-04-11T09:17:46.143Z</time></trkpt><trkpt lat="43.9378062" lon="11.2893971"><ele>359.0</ele><time>2026-04-11T09:17:47.143Z</time></trkpt><trkpt lat="43.9378773" lon="11.289327"><ele>361.0</ele><time>2026-04-11T09:17:48.144Z</time></trkpt><trkpt lat="43.9379464" lon="11.2892767"><ele>363.0</ele><time>2026-04-11T09:17:49.143Z</time></trkpt><trkpt lat="43.9380093" lon="11.289258"><ele>365.0</ele><time>2026-04-11T09:17:50.143Z</time></trkpt><trkpt lat="43.938075" lon="11.2892644"><ele>367.0</ele><time>2026-04-11T09:17:51.144Z</time></trkpt><trkpt lat="43.9381945" lon="11.289331"><ele>367.0</ele><time>2026-04-11T09:17:53.144Z</time></trkpt><trkpt lat="43.9382638" lon="11.2893727"><ele>367.0</ele><time>2026-04-11T09:17:54.143Z</time></trkpt><trkpt lat="43.9383375" lon="11.2894164"><ele>367.0</ele><time>2026-04-11T09:17:55.143Z</time></trkpt><trkpt lat="43.9384001" lon="11.2894567"><ele>367.0</ele><time>2026-04-11T09:17:56.143Z</time></trkpt><trkpt lat="43.9384692" lon="11.2894974"><ele>367.0</ele><time>2026-04-11T09:17:57.143Z</time></trkpt><trkpt lat="43.9385472" lon="11.2895631"><ele>367.0</ele><time>2026-04-11T09:17:58.143Z</time></trkpt><trkpt lat="43.9386276" lon="11.2896326"><ele>367.40000000000003</ele><time>2026-04-11T09:17:59.143Z</time></trkpt><trkpt lat="43.9387031" lon="11.289721"><ele>367.8</ele><time>2026-04-11T09:18:00.144Z</time></trkpt><trkpt lat="43.9387714" lon="11.2898087"><ele>368.2</ele><time>2026-04-11T09:18:01.144Z</time></trkpt><trkpt lat="43.9388433" lon="11.2898875"><ele>368.6</ele><time>2026-04-11T09:18:02.143Z</time></trkpt><trkpt lat="43.938928" lon="11.2899427"><ele>369.0</ele><time>2026-04-11T09:18:03.144Z</time></trkpt><trkpt lat="43.9390172" lon="11.2899773"><ele>369.0</ele><time>2026-04-11T09:18:04.144Z</time></trkpt><trkpt lat="43.939098" lon="11.2899778"><ele>369.0</ele><time>2026-04-11T09:18:05.144Z</time></trkpt><trkpt lat="43.9391691" lon="11.2899376"><ele>369.0</ele><time>2026-04-11T09:18:06.143Z</time></trkpt><trkpt lat="43.9392219" lon="11.2898624"><ele>369.0</ele><time>2026-04-11T09:18:07.143Z</time></trkpt><trkpt lat="43.9392767" lon="11.2897683"><ele>369.0</ele><time>2026-04-11T09:18:08.144Z</time></trkpt><trkpt lat="43.9393307" lon="11.2896788"><ele>369.0</ele><time>2026-04-11T09:18:09.144Z</time></trkpt><trkpt lat="43.9393886" lon="11.2895866"><ele>371.8333333333333</ele><time>2026-04-11T09:18:10.143Z</time></trkpt><trkpt lat="43.9394511" lon="11.2894988"><ele>374.66666666666663</ele><time>2026-04-11T09:18:11.144Z</time></trkpt><trkpt lat="43.939518" lon="11.2894235"><ele>377.5</ele><time>2026-04-11T09:18:12.144Z</time></trkpt><trkpt lat="43.9395933" lon="11.2893619"><ele>380.3333333333333</ele><time>2026-04-11T09:18:13.144Z</time></trkpt><trkpt lat="43.9396688" lon="11.2893048"><ele>383.16666666666663</ele><time>2026-04-11T09:18:14.144Z</time></trkpt><trkpt lat="43.9397467" lon="11.2892521"><ele>386.0</ele><time>2026-04-11T09:18:15.144Z</time></trkpt><trkpt lat="43.939834" lon="11.2892097"><ele>386.0</ele><time>2026-04-11T09:18:16.143Z</time></trkpt><trkpt lat="43.9399203" lon="11.289188"><ele>386.0</ele><time>2026-04-11T09:18:17.143Z</time></trkpt><trkpt lat="43.9400165" lon="11.2891689"><ele>386.0</ele><time>2026-04-11T09:18:18.143Z</time></trkpt><trkpt lat="43.9401034" lon="11.2891878"><ele>386.0</ele><time>2026-04-11T09:18:19.142Z</time></trkpt><trkpt lat="43.9402081" lon="11.2892063"><ele>386.0</ele><time>2026-04-11T09:18:20.143Z</time></trkpt><trkpt lat="43.9403084" lon="11.2892353"><ele>388.20000000000005</ele><time>2026-04-11T09:18:21.143Z</time></trkpt><trkpt lat="43.9404137" lon="11.2892738"><ele>390.40000000000003</ele><time>2026-04-11T09:18:22.143Z</time></trkpt><trkpt lat="43.9405134" lon="11.2893034"><ele>392.6</ele><time>2026-04-11T09:18:23.144Z</time></trkpt><trkpt lat="43.9406172" lon="11.2893317"><ele>394.8</ele><time>2026-04-11T09:18:24.144Z</time></trkpt><trkpt lat="43.9407228" lon="11.28937"><ele>397.0</ele><time>2026-04-11T09:18:25.144Z</time></trkpt><trkpt lat="43.9408329" lon="11.2894041"><ele>397.6</ele><time>2026-04-11T09:18:26.144Z</time></trkpt><trkpt lat="43.9409394" lon="11.2894348"><ele>398.20000000000005</ele><time>2026-04-11T09:18:27.144Z</time></trkpt><trkpt lat="43.9410339" lon="11.289461"><ele>398.8</ele><time>2026-04-11T09:18:28.144Z</time></trkpt><trkpt lat="43.9411353" lon="11.2894793"><ele>399.4</ele><time>2026-04-11T09:18:29.144Z</time></trkpt><trkpt lat="43.9412404" lon="11.2894946"><ele>400.0</ele><time>2026-04-11T09:18:30.144Z</time></trkpt><trkpt lat="43.9413394" lon="11.2894924"><ele>400.0</ele><time>2026-04-11T09:18:31.144Z</time></trkpt><trkpt lat="43.9414323" lon="11.2895077"><ele>400.0</ele><time>2026-04-11T09:18:32.144Z</time></trkpt><trkpt lat="43.9415303" lon="11.2895038"><ele>400.0</ele><time>2026-04-11T09:18:33.144Z</time></trkpt><trkpt lat="43.9416179" lon="11.2894944"><ele>400.0</ele><time>2026-04-11T09:18:34.143Z</time></trkpt><trkpt lat="43.9417126" lon="11.2894787"><ele>400.0</ele><time>2026-04-11T09:18:35.144Z</time></trkpt><trkpt lat="43.9418075" lon="11.2894575"><ele>401.8</ele><time>2026-04-11T09:18:36.143Z</time></trkpt><trkpt lat="43.9419116" lon="11.2894304"><ele>403.6</ele><time>2026-04-11T09:18:37.144Z</time></trkpt><trkpt lat="43.9420092" lon="11.2894097"><ele>405.4</ele><time>2026-04-11T09:18:38.144Z</time></trkpt><trkpt lat="43.9421106" lon="11.2893894"><ele>407.2</ele><time>2026-04-11T09:18:39.144Z</time></trkpt><trkpt lat="43.942196" lon="11.2893967"><ele>409.0</ele><time>2026-04-11T09:18:40.143Z</time></trkpt><trkpt lat="43.9422608" lon="11.2894165"><ele>409.0</ele><time>2026-04-11T09:18:41.144Z</time></trkpt><trkpt lat="43.9423187" lon="11.289458"><ele>409.0</ele><time>2026-04-11T09:18:42.144Z</time></trkpt><trkpt lat="43.9423684" lon="11.2895218"><ele>409.0</ele><time>2026-04-11T09:18:43.143Z</time></trkpt><trkpt lat="43.9424026" lon="11.2895969"><ele>409.0</ele><time>2026-04-11T09:18:44.143Z</time></trkpt><trkpt lat="43.9424332" lon="11.2896874"><ele>409.0</ele><time>2026-04-11T09:18:45.143Z</time></trkpt><trkpt lat="43.9424571" lon="11.2897733"><ele>409.0</ele><time>2026-04-11T09:18:46.143Z</time></trkpt><trkpt lat="43.9425026" lon="11.2898486"><ele>409.0</ele><time>2026-04-11T09:18:47.143Z</time></trkpt><trkpt lat="43.9425628" lon="11.2899"><ele>408.83333333333337</ele><time>2026-04-11T09:18:48.144Z</time></trkpt><trkpt lat="43.9426414" lon="11.2899393"><ele>408.6666666666667</ele><time>2026-04-11T09:18:49.144Z</time></trkpt><trkpt lat="43.9427232" lon="11.2899802"><ele>408.5</ele><time>2026-04-11T09:18:50.144Z</time></trkpt><trkpt lat="43.9427993" lon="11.2900473"><ele>408.33333333333337</ele><time>2026-04-11T09:18:51.144Z</time></trkpt><trkpt lat="43.9428653" lon="11.2901301"><ele>408.1666666666667</ele><time>2026-04-11T09:18:52.144Z</time></trkpt><trkpt lat="43.9429199" lon="11.2902354"><ele>408.0</ele><time>2026-04-11T09:18:53.143Z</time></trkpt><trkpt lat="43.9429648" lon="11.2903643"><ele>408.0</ele><time>2026-04-11T09:18:54.143Z</time></trkpt><trkpt lat="43.9430116" lon="11.2905025"><ele>408.0</ele><time>2026-04-11T09:18:55.144Z</time></trkpt><trkpt lat="43.9430668" lon="11.2906355"><ele>408.0</ele><time>2026-04-11T09:18:56.144Z</time></trkpt><trkpt lat="43.9431191" lon="11.2907526"><ele>408.0</ele><time>2026-04-11T09:18:57.143Z</time></trkpt><trkpt lat="43.9431673" lon="11.290856"><ele>408.0</ele><time>2026-04-11T09:18:58.143Z</time></trkpt><trkpt lat="43.9432218" lon="11.2909403"><ele>406.4</ele><time>2026-04-11T09:18:59.143Z</time></trkpt><trkpt lat="43.9432726" lon="11.2910046"><ele>404.79999999999995</ele><time>2026-04-11T09:19:00.143Z</time></trkpt><trkpt lat="43.9433694" lon="11.2910672"><ele>403.2</ele><time>2026-04-11T09:19:02.144Z</time></trkpt><trkpt lat="43.9434656" lon="11.2910391"><ele>401.6</ele><time>2026-04-11T09:19:04.143Z</time></trkpt><trkpt lat="43.9435596" lon="11.2909689"><ele>400.0</ele><time>2026-04-11T09:19:06.143Z</time></trkpt><trkpt lat="43.9436665" lon="11.2908785"><ele>440.0</ele><time>2026-04-11T09:19:08.144Z</time></trkpt><trkpt lat="43.9511842" lon="11.2854496"><ele>440.0</ele><time>2026-04-11T09:21:24.143Z</time></trkpt><trkpt lat="43.951267" lon="11.2854517"><ele>440.0</ele><time>2026-04-11T09:21:25.144Z</time></trkpt><trkpt lat="43.9513537" lon="11.2854587"><ele>440.0</ele><time>2026-04-11T09:21:26.143Z</time></trkpt><trkpt lat="43.9514421" lon="11.2854748"><ele>440.0</ele><time>2026-04-11T09:21:27.144Z</time></trkpt><trkpt lat="43.9515375" lon="11.2854957"><ele>440.0</ele><time>2026-04-11T09:21:28.143Z</time></trkpt><trkpt lat="43.9516411" lon="11.2855106"><ele>438.8333333333333</ele><time>2026-04-11T09:21:29.143Z</time></trkpt><trkpt lat="43.9517344" lon="11.285515"><ele>437.66666666666663</ele><time>2026-04-11T09:21:30.143Z</time></trkpt><trkpt lat="43.9518214" lon="11.2855272"><ele>436.5</ele><time>2026-04-11T09:21:31.144Z</time></trkpt><trkpt lat="43.9519086" lon="11.2855274"><ele>435.33333333333337</ele><time>2026-04-11T09:21:32.144Z</time></trkpt><trkpt lat="43.9519902" lon="11.2855241"><ele>434.1666666666667</ele><time>2026-04-11T09:21:33.143Z</time></trkpt><trkpt lat="43.9520694" lon="11.2855161"><ele>433.0</ele><time>2026-04-11T09:21:34.143Z</time></trkpt><trkpt lat="43.952146" lon="11.2854996"><ele>433.0</ele><time>2026-04-11T09:21:35.144Z</time></trkpt><trkpt lat="43.9522166" lon="11.2854847"><ele>433.0</ele><time>2026-04-11T09:21:36.143Z</time></trkpt><trkpt lat="43.9523051" lon="11.2854515"><ele>433.0</ele><time>2026-04-11T09:21:38.144Z</time></trkpt></trkseg><trkseg><trkpt lat="43.9524215" lon="11.285526"><ele>433.50000000000006</ele><time>2026-04-11T09:35:00.14Z</time></trkpt><trkpt lat="43.9524242" lon="11.2856442"><ele>434.0</ele><time>2026-04-11T09:35:03.141Z</time></trkpt><trkpt lat="43.9524295" lon="11.2857733"><ele>434.5</ele><time>2026-04-11T09:35:06.141Z</time></trkpt><trkpt lat="43.9524403" lon="11.28588"><ele>435.0</ele><time>2026-04-11T09:35:08.14Z</time></trkpt><trkpt lat="43.9524525" lon="11.2859707"><ele>435.50000000000006</ele><time>2026-04-11T09:35:10.141Z</time></trkpt><trkpt lat="43.9524668" lon="11.2860965"><ele>436.0</ele><time>2026-04-11T09:35:12.14Z</time></trkpt><trkpt lat="43.9524822" lon="11.2862437"><ele>436.00000000000006</ele><time>2026-04-11T09:35:14.14Z</time></trkpt><trkpt lat="43.952487" lon="11.2863609"><ele>436.0</ele><time>2026-04-11T09:35:16.141Z</time></trkpt><trkpt lat="43.9524931" lon="11.2864805"><ele>436.0</ele><time>2026-04-11T09:35:18.141Z</time></trkpt><trkpt lat="43.9524949" lon="11.286602"><ele>436.0</ele><time>2026-04-11T09:35:20.14Z</time></trkpt><trkpt lat="43.9524886" lon="11.2867343"><ele>436.00000000000006</ele><time>2026-04-11T09:35:22.141Z</time></trkpt><trkpt lat="43.95249" lon="11.2868471"><ele>436.0</ele><time>2026-04-11T09:35:24.141Z</time></trkpt><trkpt lat="43.9525161" lon="11.2869653"><ele>436.6</ele><time>2026-04-11T09:35:27.14Z</time></trkpt><trkpt lat="43.9525314" lon="11.2870941"><ele>437.20000000000005</ele><time>2026-04-11T09:35:29.141Z</time></trkpt><trkpt lat="43.9525474" lon="11.2872308"><ele>437.79999999999995</ele><time>2026-04-11T09:35:31.14Z</time></trkpt><trkpt lat="43.9525763" lon="11.2873788"><ele>438.4</ele><time>2026-04-11T09:35:33.141Z</time></trkpt><trkpt lat="43.9526082" lon="11.2875158"><ele>439.0</ele><time>2026-04-11T09:35:35.141Z</time></trkpt><trkpt lat="43.9526227" lon="11.2876021"><ele>439.6</ele><time>2026-04-11T09:35:36.141Z</time></trkpt><trkpt lat="43.9526534" lon="11.287727"><ele>440.2</ele><time>2026-04-11T09:35:38.141Z</time></trkpt><trkpt lat="43.9526981" lon="11.2878433"><ele>440.80000000000007</ele><time>2026-04-11T09:35:40.14Z</time></trkpt><trkpt lat="43.9527613" lon="11.2879465"><ele>441.40000000000003</ele><time>2026-04-11T09:35:42.141Z</time></trkpt><trkpt lat="43.9528606" lon="11.2880184"><ele>442.0</ele><time>2026-04-11T09:35:44.14Z</time></trkpt><trkpt lat="43.9529608" lon="11.2880861"><ele>438.6</ele><time>2026-04-11T09:35:46.141Z</time></trkpt><trkpt lat="43.9530551" lon="11.2881236"><ele>435.20000000000005</ele><time>2026-04-11T09:35:48.14Z</time></trkpt><trkpt lat="43.9531332" lon="11.2881706"><ele>431.8</ele><time>2026-04-11T09:35:50.139Z</time></trkpt><trkpt lat="43.9532272" lon="11.2882287"><ele>428.4</ele><time>2026-04-11T09:35:52.14Z</time></trkpt><trkpt lat="43.9533162" lon="11.2882931"><ele>425.0</ele><time>2026-04-11T09:35:54.141Z</time></trkpt><trkpt lat="43.953412" lon="11.2883678"><ele>420.6</ele><time>2026-04-11T09:35:56.141Z</time></trkpt><trkpt lat="43.9534828" lon="11.2884644"><ele>416.2</ele><time>2026-04-11T09:35:58.141Z</time></trkpt><trkpt lat="43.9535645" lon="11.2885641"><ele>411.79999999999995</ele><time>2026-04-11T09:36:00.14Z</time></trkpt><trkpt lat="43.9536442" lon="11.2886567"><ele>407.4</ele><time>2026-04-11T09:36:02.14Z</time></trkpt><trkpt lat="43.9537131" lon="11.2887622"><ele>403.0</ele><time>2026-04-11T09:36:04.14Z</time></trkpt><trkpt lat="43.9537471" lon="11.2888401"><ele>402.83333333333337</ele><time>2026-04-11T09:36:05.14Z</time></trkpt><trkpt lat="43.9538106" lon="11.2889867"><ele>402.6666666666667</ele><time>2026-04-11T09:36:07.141Z</time></trkpt><trkpt lat="43.953844" lon="11.2890894"><ele>402.5</ele><time>2026-04-11T09:36:08.141Z</time></trkpt><trkpt lat="43.9538737" lon="11.2891948"><ele>402.33333333333337</ele><time>2026-04-11T09:36:09.14Z</time></trkpt><trkpt lat="43.9539018" lon="11.2892865"><ele>402.1666666666667</ele><time>2026-04-11T09:36:10.141Z</time></trkpt><trkpt lat="43.9539352" lon="11.2893821"><ele>402.0</ele><time>2026-04-11T09:36:11.141Z</time></trkpt><trkpt lat="43.9539706" lon="11.2894699"><ele>402.0</ele><time>2026-04-11T09:36:12.14Z</time></trkpt><trkpt lat="43.9540042" lon="11.2895682"><ele>402.0</ele><time>2026-04-11T09:36:13.141Z</time></trkpt><trkpt lat="43.9540468" lon="11.289661"><ele>402.0</ele><time>2026-04-11T09:36:14.141Z</time></trkpt><trkpt lat="43.954079" lon="11.2897562"><ele>402.0</ele><time>2026-04-11T09:36:15.141Z</time></trkpt><trkpt lat="43.9541146" lon="11.2898435"><ele>402.0</ele><time>2026-04-11T09:36:16.14Z</time></trkpt><trkpt lat="43.9541474" lon="11.2899334"><ele>402.0</ele><time>2026-04-11T09:36:17.14Z</time></trkpt><trkpt lat="43.9541975" lon="11.2900321"><ele>401.1666666666667</ele><time>2026-04-11T09:36:18.141Z</time></trkpt><trkpt lat="43.95423" lon="11.2901231"><ele>400.33333333333337</ele><time>2026-04-11T09:36:19.141Z</time></trkpt><trkpt lat="43.9542616" lon="11.290211"><ele>399.5</ele><time>2026-04-11T09:36:20.14Z</time></trkpt><trkpt lat="43.9543091" lon="11.2903829"><ele>398.6666666666667</ele><time>2026-04-11T09:36:22.14Z</time></trkpt><trkpt lat="43.9543264" lon="11.2904879"><ele>397.83333333333337</ele><time>2026-04-11T09:36:23.139Z</time></trkpt><trkpt lat="43.9543337" lon="11.2905831"><ele>397.0</ele><time>2026-04-11T09:36:24.14Z</time></trkpt><trkpt lat="43.9543344" lon="11.2906803"><ele>397.0</ele><time>2026-04-11T09:36:25.14Z</time></trkpt><trkpt lat="43.9543336" lon="11.2907758"><ele>397.0</ele><time>2026-04-11T09:36:26.139Z</time></trkpt><trkpt lat="43.9543329" lon="11.2908739"><ele>397.0</ele><time>2026-04-11T09:36:27.139Z</time></trkpt><trkpt lat="43.9543297" lon="11.2909753"><ele>397.0</ele><time>2026-04-11T09:36:28.14Z</time></trkpt><trkpt lat="43.9543348" lon="11.2910752"><ele>397.0</ele><time>2026-04-11T09:36:29.14Z</time></trkpt><trkpt lat="43.9543455" lon="11.291169"><ele>397.0</ele><time>2026-04-11T09:36:30.139Z</time></trkpt><trkpt lat="43.9543496" lon="11.2912806"><ele>397.0</ele><time>2026-04-11T09:36:31.139Z</time></trkpt><trkpt lat="43.9543482" lon="11.2913911"><ele>395.6666666666667</ele><time>2026-04-11T09:36:32.14Z</time></trkpt><trkpt lat="43.954349" lon="11.2914867"><ele>394.33333333333337</ele><time>2026-04-11T09:36:33.14Z</time></trkpt><trkpt lat="43.9543438" lon="11.2916"><ele>393.0</ele><time>2026-04-11T09:36:34.139Z</time></trkpt><trkpt lat="43.9543394" lon="11.2917022"><ele>391.66666666666663</ele><time>2026-04-11T09:36:35.14Z</time></trkpt><trkpt lat="43.95434" lon="11.2918146"><ele>390.3333333333333</ele><time>2026-04-11T09:36:36.14Z</time></trkpt><trkpt lat="43.9543355" lon="11.2919231"><ele>389.0</ele><time>2026-04-11T09:36:37.139Z</time></trkpt><trkpt lat="43.9543315" lon="11.2920196"><ele>389.0</ele><time>2026-04-11T09:36:38.14Z</time></trkpt><trkpt lat="43.954334" lon="11.2921166"><ele>389.0</ele><time>2026-04-11T09:36:39.139Z</time></trkpt><trkpt lat="43.9543328" lon="11.2922541"><ele>389.0</ele><time>2026-04-11T09:36:41.14Z</time></trkpt><trkpt lat="43.9543396" lon="11.2923991"><ele>389.0</ele><time>2026-04-11T09:36:43.14Z</time></trkpt><trkpt lat="43.9543232" lon="11.2925436"><ele>389.0</ele><time>2026-04-11T09:36:45.139Z</time></trkpt><trkpt lat="43.9543209" lon="11.2926684"><ele>389.4</ele><time>2026-04-11T09:36:47.14Z</time></trkpt><trkpt lat="43.9543599" lon="11.292796"><ele>389.79999999999995</ele><time>2026-04-11T09:36:49.14Z</time></trkpt><trkpt lat="43.9543864" lon="11.2929433"><ele>390.20000000000005</ele><time>2026-04-11T09:36:51.139Z</time></trkpt><trkpt lat="43.9544333" lon="11.2930945"><ele>390.6</ele><time>2026-04-11T09:36:53.139Z</time></trkpt><trkpt lat="43.9544576" lon="11.2932506"><ele>391.0</ele><time>2026-04-11T09:36:55.139Z</time></trkpt><trkpt lat="43.954492" lon="11.2934099"><ele>391.75</ele><time>2026-04-11T09:36:57.139Z</time></trkpt><trkpt lat="43.954481" lon="11.2935646"><ele>392.5</ele><time>2026-04-11T09:36:59.138Z</time></trkpt><trkpt lat="43.9544386" lon="11.2937051"><ele>393.25</ele><time>2026-04-11T09:37:01.14Z</time></trkpt><trkpt lat="43.9544126" lon="11.2938697"><ele>394.0</ele><time>2026-04-11T09:37:03.14Z</time></trkpt><trkpt lat="43.9543975" lon="11.2940429"><ele>395.25</ele><time>2026-04-11T09:37:05.14Z</time></trkpt><trkpt lat="43.9543983" lon="11.2942142"><ele>396.5</ele><time>2026-04-11T09:37:07.14Z</time></trkpt><trkpt lat="43.954406" lon="11.294374"><ele>397.75</ele><time>2026-04-11T09:37:09.139Z</time></trkpt><trkpt lat="43.9544044" lon="11.2945354"><ele>399.0</ele><time>2026-04-11T09:37:11.14Z</time></trkpt><trkpt lat="43.9544001" lon="11.2946767"><ele>396.8333333333333</ele><time>2026-04-11T09:37:13.14Z</time></trkpt><trkpt lat="43.9544295" lon="11.2948103"><ele>394.66666666666663</ele><time>2026-04-11T09:37:15.14Z</time></trkpt><trkpt lat="43.9544966" lon="11.2949495"><ele>392.5</ele><time>2026-04-11T09:37:17.139Z</time></trkpt><trkpt lat="43.9545442" lon="11.2950176"><ele>390.3333333333333</ele><time>2026-04-11T09:37:18.139Z</time></trkpt><trkpt lat="43.9545938" lon="11.295089"><ele>388.16666666666663</ele><time>2026-04-11T09:37:19.139Z</time></trkpt><trkpt lat="43.9546397" lon="11.2951593"><ele>386.0</ele><time>2026-04-11T09:37:20.138Z</time></trkpt><trkpt lat="43.9546887" lon="11.2952312"><ele>386.00000000000006</ele><time>2026-04-11T09:37:21.14Z</time></trkpt><trkpt lat="43.9547398" lon="11.2952997"><ele>386.0</ele><time>2026-04-11T09:37:22.14Z</time></trkpt><trkpt lat="43.9547862" lon="11.2953716"><ele>386.0</ele><time>2026-04-11T09:37:23.14Z</time></trkpt><trkpt lat="43.9548311" lon="11.29544"><ele>386.0</ele><time>2026-04-11T09:37:24.14Z</time></trkpt><trkpt lat="43.9548729" lon="11.2955084"><ele>386.0</ele><time>2026-04-11T09:37:25.14Z</time></trkpt><trkpt lat="43.9549169" lon="11.2955774"><ele>386.00000000000006</ele><time>2026-04-11T09:37:26.139Z</time></trkpt><trkpt lat="43.9549634" lon="11.2956458"><ele>386.0</ele><time>2026-04-11T09:37:27.138Z</time></trkpt><trkpt lat="43.9550078" lon="11.2957161"><ele>384.0</ele><time>2026-04-11T09:37:28.139Z</time></trkpt><trkpt lat="43.955065" lon="11.295857"><ele>382.0</ele><time>2026-04-11T09:37:30.139Z</time></trkpt><trkpt lat="43.9551027" lon="11.2960059"><ele>380.0</ele><time>2026-04-11T09:37:32.139Z</time></trkpt><trkpt lat="43.9550989" lon="11.2960981"><ele>378.0</ele><time>2026-04-11T09:37:33.139Z</time></trkpt><trkpt lat="43.9550964" lon="11.2961904"><ele>376.0</ele><time>2026-04-11T09:37:34.14Z</time></trkpt><trkpt lat="43.9550582" lon="11.2963246"><ele>374.8</ele><time>2026-04-11T09:37:36.139Z</time></trkpt><trkpt lat="43.9550401" lon="11.2964688"><ele>373.6</ele><time>2026-04-11T09:37:38.14Z</time></trkpt><trkpt lat="43.9550397" lon="11.2965576"><ele>372.4</ele><time>2026-04-11T09:37:39.14Z</time></trkpt><trkpt lat="43.9550614" lon="11.2967108"><ele>371.2</ele><time>2026-04-11T09:37:41.14Z</time></trkpt><trkpt lat="43.9551074" lon="11.29685"><ele>370.0</ele><time>2026-04-11T09:37:43.139Z</time></trkpt><trkpt lat="43.9551481" lon="11.2970085"><ele>369.99999999999994</ele><time>2026-04-11T09:37:45.139Z</time></trkpt><trkpt lat="43.9551616" lon="11.2971137"><ele>370.0</ele><time>2026-04-11T09:37:46.139Z</time></trkpt><trkpt lat="43.9551734" lon="11.297221"><ele>370.0</ele><time>2026-04-11T09:37:47.14Z</time></trkpt><trkpt lat="43.955185" lon="11.2973206"><ele>370.0</ele><time>2026-04-11T09:37:48.139Z</time></trkpt><trkpt lat="43.955194" lon="11.2974213"><ele>370.0</ele><time>2026-04-11T09:37:49.14Z</time></trkpt><trkpt lat="43.9552051" lon="11.2975141"><ele>369.99999999999994</ele><time>2026-04-11T09:37:50.139Z</time></trkpt><trkpt lat="43.9552085" lon="11.2976104"><ele>370.0</ele><time>2026-04-11T09:37:51.14Z</time></trkpt><trkpt lat="43.9552177" lon="11.2976994"><ele>369.2</ele><time>2026-04-11T09:37:52.14Z</time></trkpt><trkpt lat="43.9552432" lon="11.2978689"><ele>368.4</ele><time>2026-04-11T09:37:54.14Z</time></trkpt><trkpt lat="43.9552684" lon="11.2980381"><ele>367.6</ele><time>2026-04-11T09:37:56.14Z</time></trkpt><trkpt lat="43.955276" lon="11.2981876"><ele>366.8</ele><time>2026-04-11T09:37:58.139Z</time></trkpt><trkpt lat="43.9552564" lon="11.2982797"><ele>366.0</ele><time>2026-04-11T09:37:59.14Z</time></trkpt><trkpt lat="43.955224" lon="11.2983616"><ele>363.6</ele><time>2026-04-11T09:38:00.14Z</time></trkpt><trkpt lat="43.9551961" lon="11.2984564"><ele>361.20000000000005</ele><time>2026-04-11T09:38:01.14Z</time></trkpt><trkpt lat="43.9551456" lon="11.2986214"><ele>358.79999999999995</ele><time>2026-04-11T09:38:03.138Z</time></trkpt><trkpt lat="43.9551063" lon="11.2986935"><ele>356.4</ele><time>2026-04-11T09:38:04.139Z</time></trkpt><trkpt lat="43.9550859" lon="11.2987764"><ele>354.0</ele><time>2026-04-11T09:38:05.139Z</time></trkpt><trkpt lat="43.9550427" lon="11.298946"><ele>349.0</ele><time>2026-04-11T09:38:07.14Z</time></trkpt><trkpt lat="43.9550085" lon="11.2990216"><ele>344.0</ele><time>2026-04-11T09:38:08.139Z</time></trkpt><trkpt lat="43.9549752" lon="11.2991036"><ele>339.0</ele><time>2026-04-11T09:38:09.14Z</time></trkpt><trkpt lat="43.9549425" lon="11.2991839"><ele>334.0</ele><time>2026-04-11T09:38:10.139Z</time></trkpt><trkpt lat="43.9548731" lon="11.2993119"><ele>329.0</ele><time>2026-04-11T09:38:12.14Z</time></trkpt><trkpt lat="43.954807" lon="11.2994567"><ele>324.0</ele><time>2026-04-11T09:38:14.14Z</time></trkpt><trkpt lat="43.9548183" lon="11.2996123"><ele>324.0</ele><time>2026-04-11T09:38:16.14Z</time></trkpt><trkpt lat="43.9549065" lon="11.2996806"><ele>324.0</ele><time>2026-04-11T09:38:17.14Z</time></trkpt><trkpt lat="43.9549686" lon="11.2996983"><ele>324.0</ele><time>2026-04-11T09:38:18.139Z</time></trkpt><trkpt lat="43.955077" lon="11.2996299"><ele>324.0</ele><time>2026-04-11T09:38:20.139Z</time></trkpt><trkpt lat="43.9551859" lon="11.2995596"><ele>324.0</ele><time>2026-04-11T09:38:22.139Z</time></trkpt><trkpt lat="43.9553002" lon="11.2995034"><ele>325.5</ele><time>2026-04-11T09:38:24.14Z</time></trkpt><trkpt lat="43.9554038" lon="11.2994901"><ele>327.0</ele><time>2026-04-11T09:38:26.139Z</time></trkpt><trkpt lat="43.9555161" lon="11.2995098"><ele>328.5</ele><time>2026-04-11T09:38:28.14Z</time></trkpt><trkpt lat="43.9555751" lon="11.2995587"><ele>330.0</ele><time>2026-04-11T09:38:29.14Z</time></trkpt><trkpt lat="43.9556416" lon="11.2996417"><ele>331.5</ele><time>2026-04-11T09:38:30.14Z</time></trkpt><trkpt lat="43.9556764" lon="11.2997241"><ele>333.0</ele><time>2026-04-11T09:38:31.14Z</time></trkpt><trkpt lat="43.9557092" lon="11.2998001"><ele>329.8571428571429</ele><time>2026-04-11T09:38:32.139Z</time></trkpt><trkpt lat="43.9557103" lon="11.2998884"><ele>326.71428571428567</ele><time>2026-04-11T09:38:33.14Z</time></trkpt><trkpt lat="43.955693" lon="11.2999901"><ele>323.57142857142856</ele><time>2026-04-11T09:38:34.14Z</time></trkpt><trkpt lat="43.9556702" lon="11.3000792"><ele>320.42857142857144</ele><time>2026-04-11T09:38:35.139Z</time></trkpt><trkpt lat="43.9556649" lon="11.3001673"><ele>317.28571428571433</ele><time>2026-04-11T09:38:36.139Z</time></trkpt><trkpt lat="43.9556765" lon="11.3002562"><ele>314.1428571428571</ele><time>2026-04-11T09:38:37.14Z</time></trkpt><trkpt lat="43.9556974" lon="11.3003403"><ele>311.0</ele><time>2026-04-11T09:38:38.139Z</time></trkpt><trkpt lat="43.95571" lon="11.3004455"><ele>311.0</ele><time>2026-04-11T09:38:39.14Z</time></trkpt><trkpt lat="43.9557052" lon="11.3005381"><ele>311.0</ele><time>2026-04-11T09:38:40.139Z</time></trkpt><trkpt lat="43.9557119" lon="11.3006267"><ele>311.0</ele><time>2026-04-11T09:38:41.14Z</time></trkpt><trkpt lat="43.9556988" lon="11.300796"><ele>311.0</ele><time>2026-04-11T09:38:43.139Z</time></trkpt><trkpt lat="43.9556355" lon="11.3009336"><ele>311.0</ele><time>2026-04-11T09:38:45.139Z</time></trkpt><trkpt lat="43.9555735" lon="11.3009671"><ele>311.0</ele><time>2026-04-11T09:38:46.14Z</time></trkpt><trkpt lat="43.9554442" lon="11.3009499"><ele>308.5</ele><time>2026-04-11T09:38:48.139Z</time></trkpt><trkpt lat="43.9553811" lon="11.3009663"><ele>306.0</ele><time>2026-04-11T09:38:49.14Z</time></trkpt><trkpt lat="43.9553237" lon="11.3010195"><ele>303.5</ele><time>2026-04-11T09:38:50.139Z</time></trkpt><trkpt lat="43.9552889" lon="11.301103"><ele>301.0</ele><time>2026-04-11T09:38:51.14Z</time></trkpt><trkpt lat="43.9552126" lon="11.3012458"><ele>298.5</ele><time>2026-04-11T09:38:53.14Z</time></trkpt><trkpt lat="43.9551696" lon="11.3013182"><ele>296.0</ele><time>2026-04-11T09:38:54.138Z</time></trkpt><trkpt lat="43.9551256" lon="11.3013922"><ele>293.6</ele><time>2026-04-11T09:38:55.14Z</time></trkpt><trkpt lat="43.9550806" lon="11.3014535"><ele>291.20000000000005</ele><time>2026-04-11T09:38:56.139Z</time></trkpt><trkpt lat="43.9550334" lon="11.3015117"><ele>288.79999999999995</ele><time>2026-04-11T09:38:57.14Z</time></trkpt><trkpt lat="43.9549371" lon="11.3015844"><ele>286.4</ele><time>2026-04-11T09:38:59.14Z</time></trkpt><trkpt lat="43.9548474" lon="11.3016835"><ele>284.0</ele><time>2026-04-11T09:39:01.139Z</time></trkpt><trkpt lat="43.9547416" lon="11.3017676"><ele>284.0</ele><time>2026-04-11T09:39:03.14Z</time></trkpt><trkpt lat="43.9546784" lon="11.3017935"><ele>284.0</ele><time>2026-04-11T09:39:04.14Z</time></trkpt><trkpt lat="43.9546126" lon="11.3018183"><ele>284.0</ele><time>2026-04-11T09:39:05.14Z</time></trkpt><trkpt lat="43.9544969" lon="11.3018688"><ele>284.0</ele><time>2026-04-11T09:39:07.14Z</time></trkpt><trkpt lat="43.9544327" lon="11.3019147"><ele>284.0</ele><time>2026-04-11T09:39:08.14Z</time></trkpt><trkpt lat="43.9543733" lon="11.3019632"><ele>284.0</ele><time>2026-04-11T09:39:09.14Z</time></trkpt><trkpt lat="43.9542794" lon="11.3020666"><ele>284.0</ele><time>2026-04-11T09:39:11.14Z</time></trkpt><trkpt lat="43.954253" lon="11.30221"><ele>284.0</ele><time>2026-04-11T09:39:13.14Z</time></trkpt><trkpt lat="43.9542867" lon="11.302366"><ele>284.0</ele><time>2026-04-11T09:39:15.138Z</time></trkpt><trkpt lat="43.9543003" lon="11.3024699"><ele>284.0</ele><time>2026-04-11T09:39:16.139Z</time></trkpt><trkpt lat="43.9543285" lon="11.3025658"><ele>284.0</ele><time>2026-04-11T09:39:17.14Z</time></trkpt><trkpt lat="43.9543434" lon="11.3026536"><ele>284.0</ele><time>2026-04-11T09:39:18.14Z</time></trkpt><trkpt lat="43.9543694" lon="11.3027924"><ele>282.2</ele><time>2026-04-11T09:39:20.14Z</time></trkpt><trkpt lat="43.954403" lon="11.3029329"><ele>280.4</ele><time>2026-04-11T09:39:22.14Z</time></trkpt><trkpt lat="43.9544398" lon="11.3030566"><ele>278.6</ele><time>2026-04-11T09:39:24.139Z</time></trkpt><trkpt lat="43.9544803" lon="11.3031504"><ele>276.8</ele><time>2026-04-11T09:40:03.139Z</time></trkpt><trkpt lat="43.9545177" lon="11.3032699"><ele>275.0</ele><time>2026-04-11T09:40:05.139Z</time></trkpt><trkpt lat="43.9545666" lon="11.3034025"><ele>272.75</ele><time>2026-04-11T09:40:07.139Z</time></trkpt><trkpt lat="43.9546283" lon="11.3035402"><ele>270.5</ele><time>2026-04-11T09:40:09.139Z</time></trkpt><trkpt lat="43.9546785" lon="11.3036795"><ele>268.25</ele><time>2026-04-11T09:40:11.14Z</time></trkpt><trkpt lat="43.9547336" lon="11.3038193"><ele>266.0</ele><time>2026-04-11T09:40:13.14Z</time></trkpt><trkpt lat="43.9547508" lon="11.303995"><ele>265.5</ele><time>2026-04-11T09:40:15.14Z</time></trkpt><trkpt lat="43.9547442" lon="11.3040879"><ele>265.0</ele><time>2026-04-11T09:40:16.14Z</time></trkpt><trkpt lat="43.9547483" lon="11.3041845"><ele>264.5</ele><time>2026-04-11T09:40:17.138Z</time></trkpt><trkpt lat="43.9547685" lon="11.3043428"><ele>264.0</ele><time>2026-04-11T09:40:19.14Z</time></trkpt><trkpt lat="43.9548006" lon="11.3044265"><ele>263.5</ele><time>2026-04-11T09:40:20.136Z</time></trkpt><trkpt lat="43.9548286" lon="11.3045198"><ele>263.0</ele><time>2026-04-11T09:40:21.132Z</time></trkpt><trkpt lat="43.9548615" lon="11.3046182"><ele>263.0</ele><time>2026-04-11T09:40:22.128Z</time></trkpt><trkpt lat="43.9548901" lon="11.3047148"><ele>263.0</ele><time>2026-04-11T09:40:23.133Z</time></trkpt><trkpt lat="43.9549193" lon="11.3048245"><ele>263.0</ele><time>2026-04-11T09:40:24.129Z</time></trkpt><trkpt lat="43.9549446" lon="11.3049296"><ele>263.0</ele><time>2026-04-11T09:40:25.132Z</time></trkpt><trkpt lat="43.9549646" lon="11.3050256"><ele>263.0</ele><time>2026-04-11T09:40:26.132Z</time></trkpt><trkpt lat="43.9549769" lon="11.3051317"><ele>263.0</ele><time>2026-04-11T09:40:27.132Z</time></trkpt><trkpt lat="43.9549821" lon="11.3052238"><ele>262.33333333333337</ele><time>2026-04-11T09:40:28.132Z</time></trkpt><trkpt lat="43.9549794" lon="11.3053283"><ele>261.6666666666667</ele><time>2026-04-11T09:40:29.132Z</time></trkpt><trkpt lat="43.9549707" lon="11.3054188"><ele>261.0</ele><time>2026-04-11T09:40:30.132Z</time></trkpt><trkpt lat="43.9549887" lon="11.3055925"><ele>260.3333333333333</ele><time>2026-04-11T09:40:32.132Z</time></trkpt><trkpt lat="43.9550301" lon="11.3056648"><ele>259.66666666666663</ele><time>2026-04-11T09:40:33.131Z</time></trkpt><trkpt lat="43.9551004" lon="11.3057143"><ele>259.0</ele><time>2026-04-11T09:40:34.132Z</time></trkpt><trkpt lat="43.9551676" lon="11.305709"><ele>257.5</ele><time>2026-04-11T09:40:35.132Z</time></trkpt><trkpt lat="43.9552293" lon="11.3056868"><ele>256.0</ele><time>2026-04-11T09:40:36.132Z</time></trkpt><trkpt lat="43.955289" lon="11.3056561"><ele>254.5</ele><time>2026-04-11T09:40:37.132Z</time></trkpt><trkpt lat="43.9553845" lon="11.3055954"><ele>253.0</ele><time>2026-04-11T09:40:39.132Z</time></trkpt><trkpt lat="43.9554455" lon="11.3055737"><ele>251.49999999999997</ele><time>2026-04-11T09:40:41.132Z</time></trkpt><trkpt lat="43.9555185" lon="11.3056195"><ele>250.0</ele><time>2026-04-11T09:40:45.132Z</time></trkpt><trkpt lat="43.955462" lon="11.3057067"><ele>250.0</ele><time>2026-04-11T09:40:48.131Z</time></trkpt><trkpt lat="43.9553469" lon="11.3057511"><ele>250.0</ele><time>2026-04-11T09:40:50.131Z</time></trkpt><trkpt lat="43.9552509" lon="11.3057911"><ele>250.0</ele><time>2026-04-11T09:40:52.132Z</time></trkpt><trkpt lat="43.9551886" lon="11.3058177"><ele>250.0</ele><time>2026-04-11T09:40:54.132Z</time></trkpt><trkpt lat="43.9551365" lon="11.3059163"><ele>250.0</ele><time>2026-04-11T09:40:57.132Z</time></trkpt><trkpt lat="43.9551674" lon="11.3060299"><ele>249.99999999999997</ele><time>2026-04-11T09:40:59.132Z</time></trkpt><trkpt lat="43.9551972" lon="11.3061085"><ele>250.0</ele><time>2026-04-11T09:41:00.132Z</time></trkpt><trkpt lat="43.9552331" lon="11.3062042"><ele>250.0</ele><time>2026-04-11T09:41:01.132Z</time></trkpt><trkpt lat="43.9552687" lon="11.3062984"><ele>250.0</ele><time>2026-04-11T09:41:02.132Z</time></trkpt><trkpt lat="43.9553062" lon="11.3063885"><ele>249.99999999999997</ele><time>2026-04-11T09:41:03.132Z</time></trkpt><trkpt lat="43.9553448" lon="11.3065136"><ele>250.0</ele><time>2026-04-11T09:41:04.14Z</time></trkpt><trkpt lat="43.9553915" lon="11.3066241"><ele>251.0</ele><time>2026-04-11T09:41:05.14Z</time></trkpt><trkpt lat="43.9554406" lon="11.3067424"><ele>252.0</ele><time>2026-04-11T09:41:06.14Z</time></trkpt><trkpt lat="43.9554898" lon="11.3068624"><ele>253.0</ele><time>2026-04-11T09:41:07.14Z</time></trkpt><trkpt lat="43.9555391" lon="11.3069875"><ele>254.0</ele><time>2026-04-11T09:41:08.14Z</time></trkpt><trkpt lat="43.9555865" lon="11.3071141"><ele>255.0</ele><time>2026-04-11T09:41:09.139Z</time></trkpt><trkpt lat="43.9556374" lon="11.3072312"><ele>257.1666666666667</ele><time>2026-04-11T09:41:10.14Z</time></trkpt><trkpt lat="43.9556936" lon="11.307338"><ele>259.3333333333333</ele><time>2026-04-11T09:41:11.14Z</time></trkpt><trkpt lat="43.9557451" lon="11.3074324"><ele>261.5</ele><time>2026-04-11T09:41:12.139Z</time></trkpt><trkpt lat="43.9558065" lon="11.3075186"><ele>263.66666666666663</ele><time>2026-04-11T09:41:13.139Z</time></trkpt><trkpt lat="43.9558762" lon="11.3075979"><ele>265.8333333333333</ele><time>2026-04-11T09:41:14.139Z</time></trkpt><trkpt lat="43.9559508" lon="11.3076716"><ele>268.0</ele><time>2026-04-11T09:41:15.139Z</time></trkpt><trkpt lat="43.9560216" lon="11.3077564"><ele>268.3333333333333</ele><time>2026-04-11T09:41:16.138Z</time></trkpt><trkpt lat="43.9560914" lon="11.3078351"><ele>268.66666666666663</ele><time>2026-04-11T09:41:17.138Z</time></trkpt><trkpt lat="43.9561664" lon="11.3079036"><ele>269.0</ele><time>2026-04-11T09:41:18.139Z</time></trkpt><trkpt lat="43.9562358" lon="11.3079608"><ele>269.3333333333333</ele><time>2026-04-11T09:41:19.138Z</time></trkpt><trkpt lat="43.9563027" lon="11.3080198"><ele>269.6666666666667</ele><time>2026-04-11T09:41:20.139Z</time></trkpt><trkpt lat="43.9563723" lon="11.3080639"><ele>270.0</ele><time>2026-04-11T09:41:21.139Z</time></trkpt><trkpt lat="43.9564381" lon="11.3080828"><ele>270.0</ele><time>2026-04-11T09:41:22.139Z</time></trkpt><trkpt lat="43.9565498" lon="11.3080801"><ele>270.0</ele><time>2026-04-11T09:41:24.138Z</time></trkpt><trkpt lat="43.9566619" lon="11.3080719"><ele>270.0</ele><time>2026-04-11T09:41:26.139Z</time></trkpt><trkpt lat="43.9567831" lon="11.3080873"><ele>270.0</ele><time>2026-04-11T09:41:28.139Z</time></trkpt><trkpt lat="43.956908" lon="11.3081019"><ele>271.2</ele><time>2026-04-11T09:41:30.139Z</time></trkpt><trkpt lat="43.9569811" lon="11.3081248"><ele>272.4</ele><time>2026-04-11T09:41:31.138Z</time></trkpt><trkpt lat="43.9570471" lon="11.3081754"><ele>273.6</ele><time>2026-04-11T09:41:32.138Z</time></trkpt><trkpt lat="43.9571765" lon="11.3082176"><ele>274.8</ele><time>2026-04-11T09:41:34.138Z</time></trkpt><trkpt lat="43.9572376" lon="11.3082619"><ele>276.0</ele><time>2026-04-11T09:41:35.137Z</time></trkpt><trkpt lat="43.9573357" lon="11.3083733"><ele>276.0</ele><time>2026-04-11T09:41:37.138Z</time></trkpt><trkpt lat="43.9574256" lon="11.3085061"><ele>276.0</ele><time>2026-04-11T09:41:39.139Z</time></trkpt><trkpt lat="43.9574801" lon="11.308567"><ele>276.0</ele><time>2026-04-11T09:41:40.138Z</time></trkpt><trkpt lat="43.9575685" lon="11.3086762"><ele>276.0</ele><time>2026-04-11T09:41:42.139Z</time></trkpt><trkpt lat="43.9576506" lon="11.3087921"><ele>276.0</ele><time>2026-04-11T09:41:44.139Z</time></trkpt><trkpt lat="43.9577306" lon="11.3088175"><ele>274.40000000000003</ele><time>2026-04-11T09:41:46.139Z</time></trkpt><trkpt lat="43.9578216" lon="11.3087335"><ele>272.8</ele><time>2026-04-11T09:41:48.139Z</time></trkpt><trkpt lat="43.9579028" lon="11.3086523"><ele>271.20000000000005</ele><time>2026-04-11T09:41:50.138Z</time></trkpt><trkpt lat="43.9580018" lon="11.3086188"><ele>269.6</ele><time>2026-04-11T09:41:52.138Z</time></trkpt><trkpt lat="43.958111" lon="11.3086907"><ele>268.0</ele><time>2026-04-11T09:41:54.138Z</time></trkpt><trkpt lat="43.958171" lon="11.3087647"><ele>268.0</ele><time>2026-04-11T09:41:55.138Z</time></trkpt><trkpt lat="43.9582277" lon="11.3088261"><ele>268.0</ele><time>2026-04-11T09:41:56.139Z</time></trkpt><trkpt lat="43.9582896" lon="11.308873"><ele>268.0</ele><time>2026-04-11T09:41:57.139Z</time></trkpt><trkpt lat="43.958351" lon="11.3089162"><ele>268.0</ele><time>2026-04-11T09:41:58.139Z</time></trkpt><trkpt lat="43.9584063" lon="11.3089673"><ele>268.0</ele><time>2026-04-11T09:41:59.139Z</time></trkpt><trkpt lat="43.9584621" lon="11.3090162"><ele>268.0</ele><time>2026-04-11T09:42:00.139Z</time></trkpt><trkpt lat="43.9585186" lon="11.3091345"><ele>268.0</ele><time>2026-04-11T09:42:02.139Z</time></trkpt><trkpt lat="43.9584874" lon="11.309291"><ele>268.0</ele><time>2026-04-11T09:42:04.138Z</time></trkpt><trkpt lat="43.9584456" lon="11.3093654"><ele>268.0</ele><time>2026-04-11T09:42:05.138Z</time></trkpt><trkpt lat="43.9583824" lon="11.3094919"><ele>268.0</ele><time>2026-04-11T09:42:07.139Z</time></trkpt><trkpt lat="43.9583587" lon="11.3096118"><ele>268.0</ele><time>2026-04-11T09:42:09.139Z</time></trkpt><trkpt lat="43.9583544" lon="11.3097816"><ele>268.0</ele><time>2026-04-11T09:42:11.138Z</time></trkpt><trkpt lat="43.9583759" lon="11.3099259"><ele>268.0</ele><time>2026-04-11T09:42:13.139Z</time></trkpt><trkpt lat="43.9584207" lon="11.309998"><ele>268.0</ele><time>2026-04-11T09:42:14.139Z</time></trkpt><trkpt lat="43.9584607" lon="11.3100779"><ele>268.0</ele><time>2026-04-11T09:42:15.139Z</time></trkpt><trkpt lat="43.958508" lon="11.3101494"><ele>268.0</ele><time>2026-04-11T09:42:16.138Z</time></trkpt><trkpt lat="43.9585888" lon="11.3102535"><ele>268.0</ele><time>2026-04-11T09:42:18.138Z</time></trkpt><trkpt lat="43.9586495" lon="11.3103023"><ele>268.0</ele><time>2026-04-11T09:42:19.138Z</time></trkpt><trkpt lat="43.9587265" lon="11.3103635"><ele>268.0</ele><time>2026-04-11T09:42:20.138Z</time></trkpt><trkpt lat="43.9587967" lon="11.3104109"><ele>268.0</ele><time>2026-04-11T09:42:21.138Z</time></trkpt><trkpt lat="43.9588486" lon="11.3104659"><ele>268.0</ele><time>2026-04-11T09:42:22.139Z</time></trkpt><trkpt lat="43.9589309" lon="11.3106116"><ele>268.0</ele><time>2026-04-11T09:42:24.139Z</time></trkpt><trkpt lat="43.9589708" lon="11.3106939"><ele>268.0</ele><time>2026-04-11T09:42:25.138Z</time></trkpt><trkpt lat="43.9590431" lon="11.3108118"><ele>266.4</ele><time>2026-04-11T09:42:27.139Z</time></trkpt><trkpt lat="43.9591196" lon="11.310952"><ele>264.8</ele><time>2026-04-11T09:42:29.138Z</time></trkpt><trkpt lat="43.959164" lon="11.3110329"><ele>263.2</ele><time>2026-04-11T09:42:30.139Z</time></trkpt><trkpt lat="43.9592168" lon="11.3111795"><ele>261.6</ele><time>2026-04-11T09:42:32.139Z</time></trkpt><trkpt lat="43.9592536" lon="11.3112626"><ele>260.0</ele><time>2026-04-11T09:42:33.139Z</time></trkpt><trkpt lat="43.9593053" lon="11.3113655"><ele>261.2</ele><time>2026-04-11T09:42:34.137Z</time></trkpt><trkpt lat="43.9593496" lon="11.3114649"><ele>262.4</ele><time>2026-04-11T09:42:35.138Z</time></trkpt><trkpt lat="43.959398" lon="11.3115737"><ele>263.6</ele><time>2026-04-11T09:42:36.139Z</time></trkpt><trkpt lat="43.9594486" lon="11.3116748"><ele>264.8</ele><time>2026-04-11T09:42:37.138Z</time></trkpt><trkpt lat="43.9595023" lon="11.311778"><ele>266.0</ele><time>2026-04-11T09:42:38.139Z</time></trkpt><trkpt lat="43.9595538" lon="11.3118901"><ele>266.0</ele><time>2026-04-11T09:42:39.139Z</time></trkpt><trkpt lat="43.9596028" lon="11.3119884"><ele>266.0</ele><time>2026-04-11T09:42:40.139Z</time></trkpt><trkpt lat="43.9596518" lon="11.3120865"><ele>266.0</ele><time>2026-04-11T09:42:41.139Z</time></trkpt><trkpt lat="43.9596845" lon="11.312188"><ele>266.0</ele><time>2026-04-11T09:42:42.139Z</time></trkpt><trkpt lat="43.9597235" lon="11.3122993"><ele>266.0</ele><time>2026-04-11T09:42:43.139Z</time></trkpt><trkpt lat="43.9597627" lon="11.3124173"><ele>266.0</ele><time>2026-04-11T09:42:44.138Z</time></trkpt><trkpt lat="43.9598065" lon="11.312537"><ele>268.0</ele><time>2026-04-11T09:42:45.139Z</time></trkpt><trkpt lat="43.9598617" lon="11.3126707"><ele>270.0</ele><time>2026-04-11T09:42:46.138Z</time></trkpt><trkpt lat="43.9599074" lon="11.312785"><ele>272.0</ele><time>2026-04-11T09:42:47.139Z</time></trkpt><trkpt lat="43.95996" lon="11.3129013"><ele>274.0</ele><time>2026-04-11T09:42:48.139Z</time></trkpt><trkpt lat="43.9600059" lon="11.3130228"><ele>276.0</ele><time>2026-04-11T09:42:49.138Z</time></trkpt><trkpt lat="43.9600505" lon="11.3131414"><ele>276.0</ele><time>2026-04-11T09:42:50.139Z</time></trkpt><trkpt lat="43.9600824" lon="11.3132538"><ele>276.0</ele><time>2026-04-11T09:42:51.139Z</time></trkpt><trkpt lat="43.9601169" lon="11.3133788"><ele>276.0</ele><time>2026-04-11T09:42:52.139Z</time></trkpt><trkpt lat="43.9601406" lon="11.3134995"><ele>276.0</ele><time>2026-04-11T09:42:53.139Z</time></trkpt><trkpt lat="43.9601838" lon="11.3136385"><ele>276.0</ele><time>2026-04-11T09:42:54.139Z</time></trkpt><trkpt lat="43.960221" lon="11.3137571"><ele>276.0</ele><time>2026-04-11T09:42:55.138Z</time></trkpt><trkpt lat="43.9602552" lon="11.3138414"><ele>276.0</ele><time>2026-04-11T09:42:56.139Z</time></trkpt><trkpt lat="43.9603126" lon="11.3139736"><ele>276.0</ele><time>2026-04-11T09:42:58.139Z</time></trkpt><trkpt lat="43.9604247" lon="11.3140338"><ele>276.0</ele><time>2026-04-11T09:43:00.139Z</time></trkpt><trkpt lat="43.9604869" lon="11.3140549"><ele>276.0</ele><time>2026-04-11T09:43:01.139Z</time></trkpt><trkpt lat="43.9605631" lon="11.3140295"><ele>276.0</ele><time>2026-04-11T09:43:02.138Z</time></trkpt><trkpt lat="43.9606481" lon="11.3140188"><ele>277.0</ele><time>2026-04-11T09:43:03.138Z</time></trkpt><trkpt lat="43.9607322" lon="11.3140065"><ele>278.0</ele><time>2026-04-11T09:43:04.138Z</time></trkpt><trkpt lat="43.9607979" lon="11.313993"><ele>279.0</ele><time>2026-04-11T09:43:05.138Z</time></trkpt><trkpt lat="43.9608769" lon="11.3139849"><ele>280.0</ele><time>2026-04-11T09:43:06.138Z</time></trkpt><trkpt lat="43.9609511" lon="11.3139842"><ele>281.0</ele><time>2026-04-11T09:43:07.138Z</time></trkpt><trkpt lat="43.9610203" lon="11.313996"><ele>282.0</ele><time>2026-04-11T09:43:08.139Z</time></trkpt><trkpt lat="43.9610907" lon="11.3140331"><ele>283.0</ele><time>2026-04-11T09:43:09.139Z</time></trkpt><trkpt lat="43.9611571" lon="11.3140759"><ele>283.0</ele><time>2026-04-11T09:43:10.139Z</time></trkpt><trkpt lat="43.9612222" lon="11.3141218"><ele>283.0</ele><time>2026-04-11T09:43:11.139Z</time></trkpt><trkpt lat="43.9612811" lon="11.3141656"><ele>283.0</ele><time>2026-04-11T09:43:12.139Z</time></trkpt><trkpt lat="43.9613429" lon="11.3141868"><ele>283.0</ele><time>2026-04-11T09:43:13.139Z</time></trkpt><trkpt lat="43.9614565" lon="11.3142044"><ele>283.0</ele><time>2026-04-11T09:43:15.139Z</time></trkpt><trkpt lat="43.9615462" lon="11.3142273"><ele>283.0</ele><time>2026-04-11T09:43:17.139Z</time></trkpt><trkpt lat="43.961624" lon="11.3142262"><ele>281.6</ele><time>2026-04-11T09:44:15.138Z</time></trkpt><trkpt lat="43.9616986" lon="11.3142822"><ele>280.20000000000005</ele><time>2026-04-11T09:44:18.139Z</time></trkpt><trkpt lat="43.9617693" lon="11.3143411"><ele>278.8</ele><time>2026-04-11T09:44:20.139Z</time></trkpt><trkpt lat="43.9618313" lon="11.3144151"><ele>277.40000000000003</ele><time>2026-04-11T09:44:22.139Z</time></trkpt><trkpt lat="43.9619005" lon="11.3145266"><ele>276.0</ele><time>2026-04-11T09:44:24.139Z</time></trkpt><trkpt lat="43.9619741" lon="11.3146515"><ele>278.40000000000003</ele><time>2026-04-11T09:44:26.139Z</time></trkpt><trkpt lat="43.9620259" lon="11.3147464"><ele>280.8</ele><time>2026-04-11T09:44:28.139Z</time></trkpt><trkpt lat="43.9620886" lon="11.31486"><ele>283.20000000000005</ele><time>2026-04-11T09:44:30.138Z</time></trkpt><trkpt lat="43.9621481" lon="11.3149919"><ele>285.6</ele><time>2026-04-11T09:44:32.138Z</time></trkpt><trkpt lat="43.9621985" lon="11.3151291"><ele>288.0</ele><time>2026-04-11T09:44:34.138Z</time></trkpt><trkpt lat="43.9622251" lon="11.3152899"><ele>288.0</ele><time>2026-04-11T09:44:36.139Z</time></trkpt><trkpt lat="43.9622729" lon="11.3154368"><ele>288.0</ele><time>2026-04-11T09:44:38.138Z</time></trkpt><trkpt lat="43.9623657" lon="11.3155173"><ele>288.0</ele><time>2026-04-11T09:44:40.139Z</time></trkpt><trkpt lat="43.9624488" lon="11.315565"><ele>288.0</ele><time>2026-04-11T09:44:42.139Z</time></trkpt><trkpt lat="43.9625458" lon="11.3156045"><ele>288.0</ele><time>2026-04-11T09:44:44.139Z</time></trkpt><trkpt lat="43.9626478" lon="11.3156669"><ele>293.0</ele><time>2026-04-11T09:44:46.138Z</time></trkpt><trkpt lat="43.9627583" lon="11.3157196"><ele>298.0</ele><time>2026-04-11T09:44:48.137Z</time></trkpt><trkpt lat="43.9628652" lon="11.3157611"><ele>303.0</ele><time>2026-04-11T09:44:50.139Z</time></trkpt><trkpt lat="43.9629492" lon="11.3158259"><ele>308.0</ele><time>2026-04-11T09:44:52.139Z</time></trkpt><trkpt lat="43.9630349" lon="11.3158875"><ele>313.0</ele><time>2026-04-11T09:44:54.139Z</time></trkpt><trkpt lat="43.9631235" lon="11.3159632"><ele>313.0</ele><time>2026-04-11T09:44:56.139Z</time></trkpt><trkpt lat="43.9631809" lon="11.3160047"><ele>313.0</ele><time>2026-04-11T09:44:57.139Z</time></trkpt><trkpt lat="43.9632384" lon="11.3160445"><ele>313.0</ele><time>2026-04-11T09:44:58.138Z</time></trkpt><trkpt lat="43.9633148" lon="11.3160805"><ele>313.0</ele><time>2026-04-11T09:45:00.139Z</time></trkpt><trkpt lat="43.9633918" lon="11.3160773"><ele>313.0</ele><time>2026-04-11T09:45:03.138Z</time></trkpt><trkpt lat="43.9634302" lon="11.3159886"><ele>313.0</ele><time>2026-04-11T09:45:31.139Z</time></trkpt><trkpt lat="43.9633669" lon="11.3160088"><ele>313.0</ele><time>2026-04-11T09:45:39.139Z</time></trkpt><trkpt lat="43.9633101" lon="11.3160991"><ele>313.0</ele><time>2026-04-11T09:45:50.139Z</time></trkpt><trkpt lat="43.9632321" lon="11.3161953"><ele>313.0</ele><time>2026-04-11T09:45:52.138Z</time></trkpt><trkpt lat="43.9631367" lon="11.3162757"><ele>313.0</ele><time>2026-04-11T09:45:54.138Z</time></trkpt><trkpt lat="43.9630391" lon="11.3163602"><ele>313.0</ele><time>2026-04-11T09:45:56.138Z</time></trkpt><trkpt lat="43.96295" lon="11.3164301"><ele>313.0</ele><time>2026-04-11T09:45:58.138Z</time></trkpt><trkpt lat="43.9628749" lon="11.3164817"><ele>315.0</ele><time>2026-04-11T09:46:00.138Z</time></trkpt><trkpt lat="43.9628165" lon="11.3165551"><ele>317.0</ele><time>2026-04-11T09:46:02.138Z</time></trkpt><trkpt lat="43.9627812" lon="11.3166779"><ele>319.0</ele><time>2026-04-11T09:46:04.138Z</time></trkpt><trkpt lat="43.9627482" lon="11.3167892"><ele>321.0</ele><time>2026-04-11T09:46:06.138Z</time></trkpt><trkpt lat="43.962716" lon="11.3168709"><ele>323.0</ele><time>2026-04-11T09:46:08.137Z</time></trkpt><trkpt lat="43.9626909" lon="11.3169628"><ele>325.0</ele><time>2026-04-11T09:46:11.137Z</time></trkpt><trkpt lat="43.9626594" lon="11.3170616"><ele>325.0</ele><time>2026-04-11T09:46:13.138Z</time></trkpt><trkpt lat="43.9626108" lon="11.3171728"><ele>325.0</ele><time>2026-04-11T09:46:15.139Z</time></trkpt><trkpt lat="43.9626119" lon="11.3172819"><ele>325.0</ele><time>2026-04-11T09:46:17.139Z</time></trkpt><trkpt lat="43.9626694" lon="11.3173603"><ele>325.0</ele><time>2026-04-11T09:46:19.139Z</time></trkpt><trkpt lat="43.9627773" lon="11.3174218"><ele>325.0</ele><time>2026-04-11T09:46:21.138Z</time></trkpt><trkpt lat="43.9628979" lon="11.3174801"><ele>324.0</ele><time>2026-04-11T09:46:23.138Z</time></trkpt><trkpt lat="43.9629573" lon="11.3175099"><ele>323.0</ele><time>2026-04-11T09:46:24.138Z</time></trkpt><trkpt lat="43.9630725" lon="11.3175894"><ele>322.0</ele><time>2026-04-11T09:46:26.137Z</time></trkpt><trkpt lat="43.963131" lon="11.3176386"><ele>321.0</ele><time>2026-04-11T09:46:27.138Z</time></trkpt><trkpt lat="43.9631754" lon="11.3177013"><ele>320.0</ele><time>2026-04-11T09:46:28.137Z</time></trkpt><trkpt lat="43.9632139" lon="11.3177725"><ele>319.0</ele><time>2026-04-11T09:46:29.138Z</time></trkpt><trkpt lat="43.9632783" lon="11.3178829"><ele>319.0</ele><time>2026-04-11T09:46:31.138Z</time></trkpt><trkpt lat="43.9633454" lon="11.3179781"><ele>319.0</ele><time>2026-04-11T09:46:33.138Z</time></trkpt><trkpt lat="43.9634165" lon="11.3180577"><ele>319.0</ele><time>2026-04-11T09:46:35.138Z</time></trkpt><trkpt lat="43.9634809" lon="11.3181355"><ele>319.0</ele><time>2026-04-11T09:46:37.137Z</time></trkpt><trkpt lat="43.9635475" lon="11.3182041"><ele>319.0</ele><time>2026-04-11T09:46:39.137Z</time></trkpt><trkpt lat="43.9636139" lon="11.3182714"><ele>319.0</ele><time>2026-04-11T09:46:41.137Z</time></trkpt><trkpt lat="43.9636715" lon="11.3183695"><ele>315.5</ele><time>2026-04-11T09:46:43.137Z</time></trkpt><trkpt lat="43.9637158" lon="11.3184775"><ele>312.0</ele><time>2026-04-11T09:46:45.137Z</time></trkpt><trkpt lat="43.9637637" lon="11.3185771"><ele>308.5</ele><time>2026-04-11T09:46:47.137Z</time></trkpt><trkpt lat="43.9638093" lon="11.3186701"><ele>305.0</ele><time>2026-04-11T09:46:49.138Z</time></trkpt><trkpt lat="43.9638516" lon="11.3187613"><ele>301.5</ele><time>2026-04-11T09:46:51.138Z</time></trkpt><trkpt lat="43.9638896" lon="11.3188698"><ele>298.0</ele><time>2026-04-11T09:46:53.138Z</time></trkpt><trkpt lat="43.9639307" lon="11.3189407"><ele>298.0</ele><time>2026-04-11T09:46:55.137Z</time></trkpt><trkpt lat="43.9639732" lon="11.3190121"><ele>298.0</ele><time>2026-04-11T09:46:57.138Z</time></trkpt><trkpt lat="43.964035" lon="11.3190432"><ele>298.0</ele><time>2026-04-11T09:46:59.137Z</time></trkpt><trkpt lat="43.964103" lon="11.3189832"><ele>298.0</ele><time>2026-04-11T09:47:01.138Z</time></trkpt><trkpt lat="43.9641468" lon="11.3188578"><ele>298.0</ele><time>2026-04-11T09:47:03.137Z</time></trkpt><trkpt lat="43.9642048" lon="11.3187334"><ele>298.0</ele><time>2026-04-11T09:47:05.138Z</time></trkpt><trkpt lat="43.9642638" lon="11.3185917"><ele>294.2</ele><time>2026-04-11T09:47:07.137Z</time></trkpt><trkpt lat="43.9642946" lon="11.3185146"><ele>290.4</ele><time>2026-04-11T09:47:08.138Z</time></trkpt><trkpt lat="43.9643479" lon="11.3183615"><ele>286.59999999999997</ele><time>2026-04-11T09:47:10.138Z</time></trkpt><trkpt lat="43.9644169" lon="11.3182323"><ele>282.8</ele><time>2026-04-11T09:47:12.138Z</time></trkpt><trkpt lat="43.9645125" lon="11.3181484"><ele>279.0</ele><time>2026-04-11T09:47:14.138Z</time></trkpt><trkpt lat="43.9645746" lon="11.3181216"><ele>279.0</ele><time>2026-04-11T09:47:15.138Z</time></trkpt><trkpt lat="43.9646972" lon="11.3180996"><ele>279.0</ele><time>2026-04-11T09:47:17.138Z</time></trkpt><trkpt lat="43.964761" lon="11.3180818"><ele>279.0</ele><time>2026-04-11T09:47:18.137Z</time></trkpt><trkpt lat="43.964876" lon="11.3180349"><ele>279.0</ele><time>2026-04-11T09:47:20.138Z</time></trkpt><trkpt lat="43.9649676" lon="11.3179514"><ele>279.0</ele><time>2026-04-11T09:47:22.138Z</time></trkpt><trkpt lat="43.9650064" lon="11.3178366"><ele>279.85714285714283</ele><time>2026-04-11T09:47:24.137Z</time></trkpt><trkpt lat="43.9650279" lon="11.3177309"><ele>280.7142857142857</ele><time>2026-04-11T09:47:26.137Z</time></trkpt><trkpt lat="43.9650381" lon="11.3176297"><ele>281.57142857142856</ele><time>2026-04-11T09:47:28.137Z</time></trkpt><trkpt lat="43.9650412" lon="11.3175338"><ele>282.42857142857144</ele><time>2026-04-11T09:47:30.138Z</time></trkpt><trkpt lat="43.9650447" lon="11.3174395"><ele>283.2857142857143</ele><time>2026-04-11T09:47:32.138Z</time></trkpt><trkpt lat="43.9650417" lon="11.3173513"><ele>284.1428571428571</ele><time>2026-04-11T09:47:34.138Z</time></trkpt><trkpt lat="43.9650385" lon="11.317258"><ele>285.0</ele><time>2026-04-11T09:47:36.138Z</time></trkpt><trkpt lat="43.9650347" lon="11.3171384"><ele>285.1666666666667</ele><time>2026-04-11T09:47:39.137Z</time></trkpt><trkpt lat="43.9650255" lon="11.3170355"><ele>285.3333333333333</ele><time>2026-04-11T09:48:07.138Z</time></trkpt><trkpt lat="43.9650389" lon="11.3169017"><ele>285.5</ele><time>2026-04-11T09:48:09.138Z</time></trkpt><trkpt lat="43.9650549" lon="11.3167588"><ele>285.66666666666663</ele><time>2026-04-11T09:48:11.138Z</time></trkpt><trkpt lat="43.9650738" lon="11.3166322"><ele>285.8333333333333</ele><time>2026-04-11T09:48:13.138Z</time></trkpt><trkpt lat="43.9651139" lon="11.3165404"><ele>286.0</ele><time>2026-04-11T09:48:15.137Z</time></trkpt><trkpt lat="43.9651816" lon="11.3165231"><ele>281.8333333333333</ele><time>2026-04-11T09:48:17.137Z</time></trkpt><trkpt lat="43.965261" lon="11.3165452"><ele>277.66666666666663</ele><time>2026-04-11T09:48:19.138Z</time></trkpt><trkpt lat="43.9653099" lon="11.3166086"><ele>273.5</ele><time>2026-04-11T09:48:21.137Z</time></trkpt><trkpt lat="43.9653498" lon="11.3167422"><ele>269.3333333333333</ele><time>2026-04-11T09:48:24.138Z</time></trkpt><trkpt lat="43.9653897" lon="11.3168292"><ele>265.1666666666667</ele><time>2026-04-11T09:48:25.137Z</time></trkpt><trkpt lat="43.9654361" lon="11.3169767"><ele>261.0</ele><time>2026-04-11T09:48:27.138Z</time></trkpt><trkpt lat="43.9654946" lon="11.3171236"><ele>260.0</ele><time>2026-04-11T09:48:29.137Z</time></trkpt><trkpt lat="43.9655351" lon="11.3172527"><ele>259.0</ele><time>2026-04-11T09:48:31.138Z</time></trkpt><trkpt lat="43.965601" lon="11.3173845"><ele>258.0</ele><time>2026-04-11T09:48:33.138Z</time></trkpt><trkpt lat="43.9656281" lon="11.317489"><ele>257.0</ele><time>2026-04-11T09:48:35.136Z</time></trkpt><trkpt lat="43.9656747" lon="11.31761"><ele>256.0</ele><time>2026-04-11T09:48:37.138Z</time></trkpt><trkpt lat="43.9657131" lon="11.3177109"><ele>255.99999999999997</ele><time>2026-04-11T09:48:39.138Z</time></trkpt><trkpt lat="43.9657508" lon="11.3178398"><ele>256.0</ele><time>2026-04-11T09:48:41.137Z</time></trkpt><trkpt lat="43.9657882" lon="11.3179634"><ele>256.0</ele><time>2026-04-11T09:48:43.137Z</time></trkpt><trkpt lat="43.9658278" lon="11.3180735"><ele>256.0</ele><time>2026-04-11T09:48:45.138Z</time></trkpt><trkpt lat="43.9658556" lon="11.3181661"><ele>255.99999999999997</ele><time>2026-04-11T09:48:47.138Z</time></trkpt><trkpt lat="43.9658844" lon="11.3182624"><ele>256.0</ele><time>2026-04-11T09:48:49.138Z</time></trkpt><trkpt lat="43.9659067" lon="11.3183714"><ele>250.66666666666666</ele><time>2026-04-11T09:48:51.137Z</time></trkpt><trkpt lat="43.9659262" lon="11.318466"><ele>245.33333333333331</ele><time>2026-04-11T09:48:53.137Z</time></trkpt><trkpt lat="43.9659518" lon="11.3185602"><ele>240.0</ele><time>2026-04-11T09:48:55.138Z</time></trkpt><trkpt lat="43.9659615" lon="11.3186867"><ele>234.66666666666669</ele><time>2026-04-11T09:48:58.138Z</time></trkpt><trkpt lat="43.9659864" lon="11.3187991"><ele>229.33333333333334</ele><time>2026-04-11T09:49:01.137Z</time></trkpt><trkpt lat="43.9660209" lon="11.3188958"><ele>224.0</ele><time>2026-04-11T09:49:03.137Z</time></trkpt><trkpt lat="43.9660816" lon="11.3189515"><ele>224.0</ele><time>2026-04-11T09:49:05.138Z</time></trkpt><trkpt lat="43.9661628" lon="11.3188771"><ele>223.99999999999997</ele><time>2026-04-11T09:49:07.137Z</time></trkpt><trkpt lat="43.9662585" lon="11.3187576"><ele>223.99999999999997</ele><time>2026-04-11T09:49:09.138Z</time></trkpt><trkpt lat="43.9663361" lon="11.3186419"><ele>224.0</ele><time>2026-04-11T09:49:11.138Z</time></trkpt><trkpt lat="43.9664042" lon="11.3186752"><ele>224.0</ele><time>2026-04-11T09:49:13.138Z</time></trkpt><trkpt lat="43.9663937" lon="11.3188139"><ele>223.00000000000003</ele><time>2026-04-11T09:49:15.137Z</time></trkpt><trkpt lat="43.9663687" lon="11.3189016"><ele>222.0</ele><time>2026-04-11T09:49:16.138Z</time></trkpt><trkpt lat="43.9663513" lon="11.3189998"><ele>221.0</ele><time>2026-04-11T09:49:17.138Z</time></trkpt><trkpt lat="43.9663246" lon="11.3190984"><ele>220.0</ele><time>2026-04-11T09:49:18.138Z</time></trkpt><trkpt lat="43.966289" lon="11.3191968"><ele>219.00000000000003</ele><time>2026-04-11T09:49:19.138Z</time></trkpt><trkpt lat="43.9662598" lon="11.3192816"><ele>218.0</ele><time>2026-04-11T09:49:20.138Z</time></trkpt><trkpt lat="43.9662329" lon="11.3194227"><ele>218.00000000000003</ele><time>2026-04-11T09:49:22.138Z</time></trkpt><trkpt lat="43.966287" lon="11.3194903"><ele>218.0</ele><time>2026-04-11T09:49:24.137Z</time></trkpt><trkpt lat="43.9663679" lon="11.3194163"><ele>218.0</ele><time>2026-04-11T09:49:26.137Z</time></trkpt><trkpt lat="43.9664145" lon="11.3193244"><ele>218.0</ele><time>2026-04-11T09:49:27.138Z</time></trkpt><trkpt lat="43.9664671" lon="11.3192451"><ele>218.00000000000003</ele><time>2026-04-11T09:49:28.138Z</time></trkpt><trkpt lat="43.9665223" lon="11.3191571"><ele>218.0</ele><time>2026-04-11T09:49:29.138Z</time></trkpt><trkpt lat="43.9665804" lon="11.3190869"><ele>218.0</ele><time>2026-04-11T09:49:30.138Z</time></trkpt><trkpt lat="43.9666417" lon="11.3190216"><ele>218.0</ele><time>2026-04-11T09:49:31.138Z</time></trkpt><trkpt lat="43.9666987" lon="11.3189551"><ele>218.0</ele><time>2026-04-11T09:49:32.137Z</time></trkpt><trkpt lat="43.9667626" lon="11.3188822"><ele>218.0</ele><time>2026-04-11T09:49:33.138Z</time></trkpt><trkpt lat="43.966822" lon="11.318816"><ele>218.0</ele><time>2026-04-11T09:49:34.138Z</time></trkpt><trkpt lat="43.9668755" lon="11.3187533"><ele>218.0</ele><time>2026-04-11T09:49:35.137Z</time></trkpt><trkpt lat="43.9669254" lon="11.3186884"><ele>218.0</ele><time>2026-04-11T09:49:36.138Z</time></trkpt><trkpt lat="43.9669707" lon="11.3186264"><ele>216.33333333333334</ele><time>2026-04-11T09:49:37.138Z</time></trkpt><trkpt lat="43.9670545" lon="11.3185745"><ele>214.66666666666669</ele><time>2026-04-11T09:49:39.138Z</time></trkpt><trkpt lat="43.9671244" lon="11.3185599"><ele>213.0</ele><time>2026-04-11T09:49:42.137Z</time></trkpt><trkpt lat="43.967199" lon="11.318571"><ele>211.33333333333331</ele><time>2026-04-11T09:49:45.137Z</time></trkpt><trkpt lat="43.9672115" lon="11.318659"><ele>209.66666666666666</ele><time>2026-04-11T09:49:47.137Z</time></trkpt><trkpt lat="43.967179" lon="11.3187457"><ele>208.0</ele><time>2026-04-11T09:49:48.137Z</time></trkpt><trkpt lat="43.967139" lon="11.3188463"><ele>207.8</ele><time>2026-04-11T09:49:49.137Z</time></trkpt><trkpt lat="43.9670926" lon="11.3189638"><ele>207.60000000000002</ele><time>2026-04-11T09:49:50.137Z</time></trkpt><trkpt lat="43.9670458" lon="11.3190842"><ele>207.39999999999998</ele><time>2026-04-11T09:49:51.138Z</time></trkpt><trkpt lat="43.9670042" lon="11.3191868"><ele>207.2</ele><time>2026-04-11T09:49:52.137Z</time></trkpt><trkpt lat="43.9669651" lon="11.3192873"><ele>207.0</ele><time>2026-04-11T09:49:53.137Z</time></trkpt><trkpt lat="43.9669247" lon="11.3193958"><ele>207.0</ele><time>2026-04-11T09:49:54.137Z</time></trkpt><trkpt lat="43.9668797" lon="11.3195117"><ele>207.0</ele><time>2026-04-11T09:49:55.138Z</time></trkpt><trkpt lat="43.9668345" lon="11.3196371"><ele>207.0</ele><time>2026-04-11T09:49:56.138Z</time></trkpt><trkpt lat="43.9667935" lon="11.3197514"><ele>207.0</ele><time>2026-04-11T09:49:57.138Z</time></trkpt><trkpt lat="43.9667642" lon="11.3198688"><ele>207.0</ele><time>2026-04-11T09:49:58.138Z</time></trkpt><trkpt lat="43.9667296" lon="11.3200052"><ele>207.0</ele><time>2026-04-11T09:49:59.138Z</time></trkpt><trkpt lat="43.9666951" lon="11.3201518"><ele>207.0</ele><time>2026-04-11T09:50:00.138Z</time></trkpt><trkpt lat="43.9666499" lon="11.3203087"><ele>207.0</ele><time>2026-04-11T09:50:01.138Z</time></trkpt><trkpt lat="43.9665992" lon="11.3204614"><ele>207.0</ele><time>2026-04-11T09:50:02.138Z</time></trkpt><trkpt lat="43.9665443" lon="11.3206072"><ele>207.5</ele><time>2026-04-11T09:50:03.137Z</time></trkpt><trkpt lat="43.9664832" lon="11.3207393"><ele>208.0</ele><time>2026-04-11T09:50:04.137Z</time></trkpt><trkpt lat="43.9664145" lon="11.320874"><ele>208.5</ele><time>2026-04-11T09:50:05.138Z</time></trkpt><trkpt lat="43.9663425" lon="11.321009"><ele>209.0</ele><time>2026-04-11T09:50:06.137Z</time></trkpt><trkpt lat="43.96627" lon="11.3211458"><ele>209.0</ele><time>2026-04-11T09:50:07.138Z</time></trkpt><trkpt lat="43.9661987" lon="11.321283"><ele>209.0</ele><time>2026-04-11T09:50:08.138Z</time></trkpt><trkpt lat="43.9661288" lon="11.3214177"><ele>209.0</ele><time>2026-04-11T09:50:09.138Z</time></trkpt><trkpt lat="43.9660581" lon="11.3215371"><ele>209.0</ele><time>2026-04-11T09:50:10.138Z</time></trkpt><trkpt lat="43.9659942" lon="11.321655"><ele>208.25</ele><time>2026-04-11T09:50:11.136Z</time></trkpt><trkpt lat="43.9659262" lon="11.3217762"><ele>207.5</ele><time>2026-04-11T09:50:12.137Z</time></trkpt><trkpt lat="43.9658562" lon="11.3219127"><ele>206.75</ele><time>2026-04-11T09:50:13.138Z</time></trkpt><trkpt lat="43.9657832" lon="11.3220457"><ele>206.0</ele><time>2026-04-11T09:50:14.138Z</time></trkpt><trkpt lat="43.9657096" lon="11.3221617"><ele>205.8</ele><time>2026-04-11T09:50:15.137Z</time></trkpt><trkpt lat="43.9656288" lon="11.3222651"><ele>205.60000000000002</ele><time>2026-04-11T09:50:16.137Z</time></trkpt><trkpt lat="43.9655471" lon="11.3223596"><ele>205.4</ele><time>2026-04-11T09:50:17.138Z</time></trkpt><trkpt lat="43.9654699" lon="11.3224569"><ele>205.2</ele><time>2026-04-11T09:50:18.138Z</time></trkpt><trkpt lat="43.9653978" lon="11.3225589"><ele>205.0</ele><time>2026-04-11T09:50:19.137Z</time></trkpt><trkpt lat="43.965336" lon="11.3226713"><ele>205.0</ele><time>2026-04-11T09:50:20.137Z</time></trkpt><trkpt lat="43.965285" lon="11.3227925"><ele>205.0</ele><time>2026-04-11T09:50:21.137Z</time></trkpt><trkpt lat="43.9652424" lon="11.3229125"><ele>205.0</ele><time>2026-04-11T09:50:22.138Z</time></trkpt><trkpt lat="43.965205" lon="11.3230294"><ele>205.0</ele><time>2026-04-11T09:50:23.138Z</time></trkpt><trkpt lat="43.9651709" lon="11.3231484"><ele>205.0</ele><time>2026-04-11T09:50:24.138Z</time></trkpt><trkpt lat="43.9651412" lon="11.3232717"><ele>204.8</ele><time>2026-04-11T09:50:25.138Z</time></trkpt><trkpt lat="43.9651113" lon="11.3234049"><ele>204.6</ele><time>2026-04-11T09:50:26.138Z</time></trkpt><trkpt lat="43.9650781" lon="11.3235389"><ele>204.39999999999998</ele><time>2026-04-11T09:50:27.138Z</time></trkpt><trkpt lat="43.9650432" lon="11.3236692"><ele>204.2</ele><time>2026-04-11T09:50:28.137Z</time></trkpt><trkpt lat="43.9650148" lon="11.3237901"><ele>204.0</ele><time>2026-04-11T09:50:29.138Z</time></trkpt><trkpt lat="43.9649902" lon="11.323903"><ele>203.66666666666666</ele><time>2026-04-11T09:50:30.138Z</time></trkpt><trkpt lat="43.9649675" lon="11.3240051"><ele>203.33333333333331</ele><time>2026-04-11T09:50:31.138Z</time></trkpt><trkpt lat="43.9649492" lon="11.3240976"><ele>203.0</ele><time>2026-04-11T09:50:32.138Z</time></trkpt><trkpt lat="43.9649351" lon="11.3241845"><ele>202.66666666666666</ele><time>2026-04-11T09:50:33.138Z</time></trkpt><trkpt lat="43.9649136" lon="11.3243244"><ele>202.33333333333331</ele><time>2026-04-11T09:50:35.138Z</time></trkpt><trkpt lat="43.9648713" lon="11.3244425"><ele>202.0</ele><time>2026-04-11T09:50:37.138Z</time></trkpt><trkpt lat="43.9647568" lon="11.3244722"><ele>202.0</ele><time>2026-04-11T09:50:39.138Z</time></trkpt><trkpt lat="43.9646477" lon="11.324388"><ele>202.0</ele><time>2026-04-11T09:50:41.138Z</time></trkpt><trkpt lat="43.9645567" lon="11.3243374"><ele>202.0</ele><time>2026-04-11T09:50:43.138Z</time></trkpt><trkpt lat="43.9644665" lon="11.3243157"><ele>202.0</ele><time>2026-04-11T09:50:45.137Z</time></trkpt><trkpt lat="43.9643776" lon="11.3242948"><ele>202.0</ele><time>2026-04-11T09:50:47.137Z</time></trkpt><trkpt lat="43.9643056" lon="11.3243731"><ele>202.0</ele><time>2026-04-11T09:50:49.138Z</time></trkpt><trkpt lat="43.964265" lon="11.3245329"><ele>202.0</ele><time>2026-04-11T09:50:51.137Z</time></trkpt><trkpt lat="43.9642443" lon="11.3247001"><ele>202.0</ele><time>2026-04-11T09:50:53.138Z</time></trkpt><trkpt lat="43.9642534" lon="11.3248024"><ele>202.0</ele><time>2026-04-11T09:50:54.137Z</time></trkpt><trkpt lat="43.9642637" lon="11.3248951"><ele>202.0</ele><time>2026-04-11T09:50:55.137Z</time></trkpt><trkpt lat="43.9642778" lon="11.3249917"><ele>201.83333333333331</ele><time>2026-04-11T09:50:56.137Z</time></trkpt><trkpt lat="43.9642923" lon="11.3251077"><ele>201.66666666666666</ele><time>2026-04-11T09:50:57.138Z</time></trkpt><trkpt lat="43.9643027" lon="11.3252111"><ele>201.5</ele><time>2026-04-11T09:50:58.138Z</time></trkpt><trkpt lat="43.9643155" lon="11.3253247"><ele>201.33333333333331</ele><time>2026-04-11T09:50:59.137Z</time></trkpt><trkpt lat="43.9643312" lon="11.3254418"><ele>201.16666666666666</ele><time>2026-04-11T09:51:00.138Z</time></trkpt><trkpt lat="43.9643416" lon="11.3255535"><ele>201.0</ele><time>2026-04-11T09:51:01.138Z</time></trkpt><trkpt lat="43.9643552" lon="11.3256692"><ele>201.0</ele><time>2026-04-11T09:51:02.137Z</time></trkpt><trkpt lat="43.9643706" lon="11.3257776"><ele>201.0</ele><time>2026-04-11T09:51:03.138Z</time></trkpt><trkpt lat="43.9643815" lon="11.32588"><ele>201.0</ele><time>2026-04-11T09:51:04.138Z</time></trkpt><trkpt lat="43.9643899" lon="11.3259678"><ele>201.0</ele><time>2026-04-11T09:51:05.138Z</time></trkpt><trkpt lat="43.9643951" lon="11.3260642"><ele>201.0</ele><time>2026-04-11T09:51:06.137Z</time></trkpt><trkpt lat="43.9644055" lon="11.3261647"><ele>201.0</ele><time>2026-04-11T09:51:07.137Z</time></trkpt><trkpt lat="43.9644195" lon="11.3262579"><ele>201.0</ele><time>2026-04-11T09:51:08.138Z</time></trkpt><trkpt lat="43.9644332" lon="11.3263484"><ele>201.16666666666666</ele><time>2026-04-11T09:51:09.138Z</time></trkpt><trkpt lat="43.9644555" lon="11.3265187"><ele>201.33333333333331</ele><time>2026-04-11T09:51:11.137Z</time></trkpt><trkpt lat="43.9644653" lon="11.3266124"><ele>201.5</ele><time>2026-04-11T09:51:12.137Z</time></trkpt><trkpt lat="43.9644714" lon="11.3267052"><ele>201.66666666666666</ele><time>2026-04-11T09:51:13.137Z</time></trkpt><trkpt lat="43.964482" lon="11.3268662"><ele>201.83333333333331</ele><time>2026-04-11T09:51:15.137Z</time></trkpt><trkpt lat="43.9644662" lon="11.3269638"><ele>202.0</ele><time>2026-04-11T09:51:18.137Z</time></trkpt><trkpt lat="43.9644069" lon="11.3270879"><ele>201.83333333333331</ele><time>2026-04-11T09:51:24.137Z</time></trkpt><trkpt lat="43.9644192" lon="11.3272434"><ele>201.66666666666666</ele><time>2026-04-11T09:51:26.138Z</time></trkpt><trkpt lat="43.9644745" lon="11.3273068"><ele>201.5</ele><time>2026-04-11T09:51:27.137Z</time></trkpt><trkpt lat="43.9645368" lon="11.3273673"><ele>201.33333333333331</ele><time>2026-04-11T09:51:28.137Z</time></trkpt><trkpt lat="43.9645962" lon="11.3274354"><ele>201.16666666666666</ele><time>2026-04-11T09:51:29.137Z</time></trkpt><trkpt lat="43.96466" lon="11.3275193"><ele>201.0</ele><time>2026-04-11T09:51:30.137Z</time></trkpt><trkpt lat="43.9647221" lon="11.3276157"><ele>201.0</ele><time>2026-04-11T09:51:31.138Z</time></trkpt><trkpt lat="43.9647976" lon="11.3277088"><ele>201.0</ele><time>2026-04-11T09:51:32.137Z</time></trkpt><trkpt lat="43.9648735" lon="11.3277965"><ele>201.0</ele><time>2026-04-11T09:51:33.137Z</time></trkpt><trkpt lat="43.9649371" lon="11.327876"><ele>201.0</ele><time>2026-04-11T09:51:34.138Z</time></trkpt><trkpt lat="43.9650015" lon="11.3279545"><ele>201.0</ele><time>2026-04-11T09:51:35.138Z</time></trkpt><trkpt lat="43.9650592" lon="11.3280215"><ele>201.0</ele><time>2026-04-11T09:51:36.138Z</time></trkpt><trkpt lat="43.9651097" lon="11.3280812"><ele>201.5</ele><time>2026-04-11T09:51:37.137Z</time></trkpt><trkpt lat="43.9651583" lon="11.328141"><ele>202.0</ele><time>2026-04-11T09:51:38.135Z</time></trkpt><trkpt lat="43.9652059" lon="11.3281983"><ele>202.5</ele><time>2026-04-11T09:51:39.137Z</time></trkpt><trkpt lat="43.9653005" lon="11.3283146"><ele>203.0</ele><time>2026-04-11T09:51:41.136Z</time></trkpt><trkpt lat="43.9653598" lon="11.3283866"><ele>203.5</ele><time>2026-04-11T09:51:42.135Z</time></trkpt><trkpt lat="43.9654199" lon="11.3284574"><ele>204.0</ele><time>2026-04-11T09:51:43.136Z</time></trkpt><trkpt lat="43.9654746" lon="11.3285224"><ele>204.0</ele><time>2026-04-11T09:51:44.137Z</time></trkpt><trkpt lat="43.9655253" lon="11.3285905"><ele>204.0</ele><time>2026-04-11T09:51:45.136Z</time></trkpt><trkpt lat="43.9655755" lon="11.328672"><ele>204.0</ele><time>2026-04-11T09:51:46.137Z</time></trkpt><trkpt lat="43.9656164" lon="11.3287587"><ele>204.0</ele><time>2026-04-11T09:51:47.137Z</time></trkpt><trkpt lat="43.9656537" lon="11.3288544"><ele>204.0</ele><time>2026-04-11T09:51:48.136Z</time></trkpt><trkpt lat="43.9656828" lon="11.3289551"><ele>204.0</ele><time>2026-04-11T09:51:49.136Z</time></trkpt><trkpt lat="43.9657049" lon="11.3290557"><ele>204.16666666666666</ele><time>2026-04-11T09:51:50.136Z</time></trkpt><trkpt lat="43.9657126" lon="11.3291514"><ele>204.33333333333331</ele><time>2026-04-11T09:51:51.136Z</time></trkpt><trkpt lat="43.9657007" lon="11.3292586"><ele>204.5</ele><time>2026-04-11T09:51:52.136Z</time></trkpt><trkpt lat="43.965657" lon="11.3293724"><ele>204.66666666666666</ele><time>2026-04-11T09:51:53.136Z</time></trkpt><trkpt lat="43.9656379" lon="11.3294914"><ele>204.83333333333331</ele><time>2026-04-11T09:51:54.137Z</time></trkpt><trkpt lat="43.9656574" lon="11.3296052"><ele>205.0</ele><time>2026-04-11T09:51:55.137Z</time></trkpt><trkpt lat="43.9657079" lon="11.3296959"><ele>205.8</ele><time>2026-04-11T09:51:56.137Z</time></trkpt><trkpt lat="43.9657479" lon="11.3298222"><ele>206.6</ele><time>2026-04-11T09:51:57.137Z</time></trkpt><trkpt lat="43.9657576" lon="11.3299548"><ele>207.39999999999998</ele><time>2026-04-11T09:51:58.136Z</time></trkpt><trkpt lat="43.9657656" lon="11.3301035"><ele>208.2</ele><time>2026-04-11T09:51:59.137Z</time></trkpt><trkpt lat="43.9657766" lon="11.3302621"><ele>209.0</ele><time>2026-04-11T09:52:00.137Z</time></trkpt><trkpt lat="43.9657835" lon="11.3304302"><ele>209.5</ele><time>2026-04-11T09:52:01.137Z</time></trkpt><trkpt lat="43.9657901" lon="11.3306011"><ele>210.0</ele><time>2026-04-11T09:52:02.137Z</time></trkpt><trkpt lat="43.9658001" lon="11.3307586"><ele>210.5</ele><time>2026-04-11T09:52:03.137Z</time></trkpt><trkpt lat="43.9658128" lon="11.330924"><ele>211.0</ele><time>2026-04-11T09:52:04.137Z</time></trkpt><trkpt lat="43.9658262" lon="11.3310926"><ele>211.0</ele><time>2026-04-11T09:52:05.137Z</time></trkpt><trkpt lat="43.9658347" lon="11.3312524"><ele>211.0</ele><time>2026-04-11T09:52:06.136Z</time></trkpt><trkpt lat="43.9658365" lon="11.3314158"><ele>211.0</ele><time>2026-04-11T09:52:07.136Z</time></trkpt><trkpt lat="43.9658288" lon="11.3315824"><ele>211.0</ele><time>2026-04-11T09:52:08.137Z</time></trkpt><trkpt lat="43.9658109" lon="11.3317519"><ele>211.5</ele><time>2026-04-11T09:52:09.137Z</time></trkpt><trkpt lat="43.9657878" lon="11.3319244"><ele>212.0</ele><time>2026-04-11T09:52:10.136Z</time></trkpt><trkpt lat="43.9657543" lon="11.3320891"><ele>212.5</ele><time>2026-04-11T09:52:11.137Z</time></trkpt><trkpt lat="43.9657171" lon="11.3322344"><ele>213.0</ele><time>2026-04-11T09:52:12.137Z</time></trkpt><trkpt lat="43.9656783" lon="11.3323746"><ele>213.0</ele><time>2026-04-11T09:52:13.137Z</time></trkpt><trkpt lat="43.9656394" lon="11.3325047"><ele>213.0</ele><time>2026-04-11T09:52:14.136Z</time></trkpt><trkpt lat="43.9655993" lon="11.332637"><ele>213.0</ele><time>2026-04-11T09:52:15.137Z</time></trkpt><trkpt lat="43.9655543" lon="11.3327826"><ele>213.0</ele><time>2026-04-11T09:52:16.137Z</time></trkpt><trkpt lat="43.9655064" lon="11.3329359"><ele>213.0</ele><time>2026-04-11T09:52:17.137Z</time></trkpt><trkpt lat="43.9654605" lon="11.3330954"><ele>212.4</ele><time>2026-04-11T09:52:18.137Z</time></trkpt><trkpt lat="43.9654181" lon="11.3332367"><ele>211.8</ele><time>2026-04-11T09:52:19.136Z</time></trkpt><trkpt lat="43.9653772" lon="11.3333709"><ele>211.2</ele><time>2026-04-11T09:52:20.136Z</time></trkpt><trkpt lat="43.9653318" lon="11.3335146"><ele>210.6</ele><time>2026-04-11T09:52:21.137Z</time></trkpt><trkpt lat="43.9652879" lon="11.3336492"><ele>210.0</ele><time>2026-04-11T09:52:22.137Z</time></trkpt><trkpt lat="43.9652432" lon="11.3337811"><ele>208.8</ele><time>2026-04-11T09:52:23.137Z</time></trkpt><trkpt lat="43.9652047" lon="11.3339056"><ele>207.6</ele><time>2026-04-11T09:52:24.137Z</time></trkpt><trkpt lat="43.9651634" lon="11.3340281"><ele>206.39999999999998</ele><time>2026-04-11T09:52:25.136Z</time></trkpt><trkpt lat="43.9651219" lon="11.334155"><ele>205.2</ele><time>2026-04-11T09:52:26.137Z</time></trkpt><trkpt lat="43.9650802" lon="11.3342891"><ele>204.0</ele><time>2026-04-11T09:52:27.137Z</time></trkpt><trkpt lat="43.9650401" lon="11.334418"><ele>204.0</ele><time>2026-04-11T09:52:28.137Z</time></trkpt><trkpt lat="43.9649982" lon="11.3345516"><ele>204.0</ele><time>2026-04-11T09:52:29.137Z</time></trkpt><trkpt lat="43.9649561" lon="11.3346876"><ele>204.0</ele><time>2026-04-11T09:52:30.137Z</time></trkpt><trkpt lat="43.9649106" lon="11.3348289"><ele>204.0</ele><time>2026-04-11T09:52:31.137Z</time></trkpt><trkpt lat="43.9648641" lon="11.3349747"><ele>204.0</ele><time>2026-04-11T09:52:32.137Z</time></trkpt><trkpt lat="43.9648198" lon="11.3351122"><ele>204.0</ele><time>2026-04-11T09:52:33.136Z</time></trkpt><trkpt lat="43.9647748" lon="11.3352586"><ele>204.0</ele><time>2026-04-11T09:52:34.137Z</time></trkpt><trkpt lat="43.9647296" lon="11.3354007"><ele>204.0</ele><time>2026-04-11T09:52:35.137Z</time></trkpt><trkpt lat="43.9646849" lon="11.3355413"><ele>204.0</ele><time>2026-04-11T09:52:36.136Z</time></trkpt><trkpt lat="43.9646417" lon="11.3356819"><ele>204.0</ele><time>2026-04-11T09:52:37.137Z</time></trkpt><trkpt lat="43.9646021" lon="11.3358201"><ele>204.0</ele><time>2026-04-11T09:52:38.137Z</time></trkpt><trkpt lat="43.9645611" lon="11.3359498"><ele>204.0</ele><time>2026-04-11T09:52:39.137Z</time></trkpt><trkpt lat="43.9645204" lon="11.3360757"><ele>204.0</ele><time>2026-04-11T09:52:40.137Z</time></trkpt><trkpt lat="43.9644817" lon="11.3362001"><ele>204.0</ele><time>2026-04-11T09:52:41.136Z</time></trkpt><trkpt lat="43.9644426" lon="11.3363304"><ele>204.0</ele><time>2026-04-11T09:52:42.136Z</time></trkpt><trkpt lat="43.9643999" lon="11.3364636"><ele>204.16666666666666</ele><time>2026-04-11T09:52:43.137Z</time></trkpt><trkpt lat="43.9643578" lon="11.3365828"><ele>204.33333333333331</ele><time>2026-04-11T09:52:44.137Z</time></trkpt><trkpt lat="43.9643208" lon="11.3366963"><ele>204.5</ele><time>2026-04-11T09:52:45.137Z</time></trkpt><trkpt lat="43.9642884" lon="11.3368029"><ele>204.66666666666666</ele><time>2026-04-11T09:52:46.137Z</time></trkpt><trkpt lat="43.9642551" lon="11.3369034"><ele>204.83333333333331</ele><time>2026-04-11T09:52:47.136Z</time></trkpt><trkpt lat="43.964223" lon="11.3369954"><ele>205.0</ele><time>2026-04-11T09:52:48.135Z</time></trkpt><trkpt lat="43.964201" lon="11.3370853"><ele>205.75</ele><time>2026-04-11T09:52:49.135Z</time></trkpt><trkpt lat="43.9642118" lon="11.3372483"><ele>206.5</ele><time>2026-04-11T09:52:51.137Z</time></trkpt><trkpt lat="43.9643107" lon="11.3373512"><ele>207.25</ele><time>2026-04-11T09:52:53.137Z</time></trkpt><trkpt lat="43.9644264" lon="11.3374281"><ele>208.0</ele><time>2026-04-11T09:52:55.137Z</time></trkpt><trkpt lat="43.9645159" lon="11.3374927"><ele>208.0</ele><time>2026-04-11T09:52:57.136Z</time></trkpt><trkpt lat="43.9646006" lon="11.3375535"><ele>208.0</ele><time>2026-04-11T09:52:59.136Z</time></trkpt><trkpt lat="43.9646541" lon="11.337601"><ele>208.0</ele><time>2026-04-11T09:53:01.137Z</time></trkpt><trkpt lat="43.9647478" lon="11.3376243"><ele>208.0</ele><time>2026-04-11T09:53:18.136Z</time></trkpt><trkpt lat="43.9648137" lon="11.3376746"><ele>208.0</ele><time>2026-04-11T09:53:20.137Z</time></trkpt><trkpt lat="43.964925" lon="11.3377643"><ele>207.99999999999997</ele><time>2026-04-11T09:53:22.137Z</time></trkpt><trkpt lat="43.9649924" lon="11.3378207"><ele>208.0</ele><time>2026-04-11T09:53:23.136Z</time></trkpt><trkpt lat="43.9650696" lon="11.3378735"><ele>208.0</ele><time>2026-04-11T09:53:24.136Z</time></trkpt><trkpt lat="43.965151" lon="11.337928"><ele>208.0</ele><time>2026-04-11T09:53:25.137Z</time></trkpt><trkpt lat="43.9652294" lon="11.3379833"><ele>207.99999999999997</ele><time>2026-04-11T09:53:26.137Z</time></trkpt><trkpt lat="43.9653075" lon="11.3380439"><ele>208.0</ele><time>2026-04-11T09:53:27.137Z</time></trkpt><trkpt lat="43.9653946" lon="11.3380985"><ele>208.33333333333331</ele><time>2026-04-11T09:53:28.136Z</time></trkpt><trkpt lat="43.9654776" lon="11.338157"><ele>208.66666666666666</ele><time>2026-04-11T09:53:29.137Z</time></trkpt><trkpt lat="43.9655539" lon="11.3382113"><ele>209.0</ele><time>2026-04-11T09:53:30.137Z</time></trkpt><trkpt lat="43.9656309" lon="11.3382617"><ele>209.33333333333331</ele><time>2026-04-11T09:53:31.137Z</time></trkpt><trkpt lat="43.9657069" lon="11.3383152"><ele>209.66666666666666</ele><time>2026-04-11T09:53:32.137Z</time></trkpt><trkpt lat="43.9657843" lon="11.3383711"><ele>210.0</ele><time>2026-04-11T09:53:33.136Z</time></trkpt><trkpt lat="43.9658642" lon="11.3384284"><ele>211.6</ele><time>2026-04-11T09:53:34.136Z</time></trkpt><trkpt lat="43.965945" lon="11.3384826"><ele>213.2</ele><time>2026-04-11T09:53:35.136Z</time></trkpt><trkpt lat="43.9660261" lon="11.3385404"><ele>214.8</ele><time>2026-04-11T09:53:36.137Z</time></trkpt><trkpt lat="43.9661093" lon="11.3385994"><ele>216.4</ele><time>2026-04-11T09:53:37.137Z</time></trkpt><trkpt lat="43.9661975" lon="11.3386578"><ele>218.0</ele><time>2026-04-11T09:53:38.137Z</time></trkpt><trkpt lat="43.9662842" lon="11.3387192"><ele>218.0</ele><time>2026-04-11T09:53:39.137Z</time></trkpt><trkpt lat="43.9663731" lon="11.338779"><ele>218.0</ele><time>2026-04-11T09:53:40.136Z</time></trkpt><trkpt lat="43.9664644" lon="11.3388376"><ele>218.0</ele><time>2026-04-11T09:53:41.136Z</time></trkpt><trkpt lat="43.966555" lon="11.3389035"><ele>218.0</ele><time>2026-04-11T09:53:42.136Z</time></trkpt><trkpt lat="43.9666514" lon="11.3389777"><ele>218.0</ele><time>2026-04-11T09:53:43.136Z</time></trkpt><trkpt lat="43.9667453" lon="11.3390418"><ele>218.50000000000003</ele><time>2026-04-11T09:53:44.137Z</time></trkpt><trkpt lat="43.9668333" lon="11.3390793"><ele>219.0</ele><time>2026-04-11T09:53:45.137Z</time></trkpt><trkpt lat="43.9669199" lon="11.3390727"><ele>219.5</ele><time>2026-04-11T09:53:46.136Z</time></trkpt><trkpt lat="43.9669939" lon="11.3390335"><ele>220.0</ele><time>2026-04-11T09:53:47.136Z</time></trkpt><trkpt lat="43.9670588" lon="11.3389849"><ele>220.50000000000003</ele><time>2026-04-11T09:53:48.137Z</time></trkpt><trkpt lat="43.9670887" lon="11.3388477"><ele>221.0</ele><time>2026-04-11T09:53:49.137Z</time></trkpt><trkpt lat="43.96713" lon="11.3387561"><ele>221.66666666666669</ele><time>2026-04-11T09:53:50.136Z</time></trkpt><trkpt lat="43.9671666" lon="11.3386476"><ele>222.33333333333334</ele><time>2026-04-11T09:53:51.137Z</time></trkpt><trkpt lat="43.9672127" lon="11.3385598"><ele>223.0</ele><time>2026-04-11T09:53:52.137Z</time></trkpt><trkpt lat="43.9672539" lon="11.3384706"><ele>223.66666666666669</ele><time>2026-04-11T09:53:53.136Z</time></trkpt><trkpt lat="43.9672973" lon="11.33838"><ele>224.33333333333334</ele><time>2026-04-11T09:53:54.136Z</time></trkpt><trkpt lat="43.967345" lon="11.3382876"><ele>225.0</ele><time>2026-04-11T09:53:55.137Z</time></trkpt><trkpt lat="43.9673956" lon="11.3381995"><ele>225.0</ele><time>2026-04-11T09:53:56.136Z</time></trkpt><trkpt lat="43.9674523" lon="11.3381159"><ele>225.0</ele><time>2026-04-11T09:53:57.137Z</time></trkpt><trkpt lat="43.9675121" lon="11.3380313"><ele>225.0</ele><time>2026-04-11T09:53:58.137Z</time></trkpt><trkpt lat="43.9675775" lon="11.337943"><ele>225.0</ele><time>2026-04-11T09:53:59.135Z</time></trkpt><trkpt lat="43.9676391" lon="11.3378679"><ele>225.0</ele><time>2026-04-11T09:54:00.137Z</time></trkpt><trkpt lat="43.9677122" lon="11.3378091"><ele>225.0</ele><time>2026-04-11T09:54:01.137Z</time></trkpt><trkpt lat="43.9677838" lon="11.3377962"><ele>225.5</ele><time>2026-04-11T09:54:02.137Z</time></trkpt><trkpt lat="43.9678612" lon="11.3378306"><ele>226.0</ele><time>2026-04-11T09:54:03.136Z</time></trkpt><trkpt lat="43.9679318" lon="11.3378809"><ele>226.5</ele><time>2026-04-11T09:54:04.137Z</time></trkpt><trkpt lat="43.9680085" lon="11.3379389"><ele>227.0</ele><time>2026-04-11T09:54:05.136Z</time></trkpt><trkpt lat="43.9680775" lon="11.3379941"><ele>227.5</ele><time>2026-04-11T09:54:06.135Z</time></trkpt><trkpt lat="43.9681532" lon="11.3380564"><ele>228.0</ele><time>2026-04-11T09:54:07.136Z</time></trkpt><trkpt lat="43.9682305" lon="11.3381198"><ele>228.0</ele><time>2026-04-11T09:54:08.136Z</time></trkpt><trkpt lat="43.9683131" lon="11.3381838"><ele>228.0</ele><time>2026-04-11T09:54:09.137Z</time></trkpt><trkpt lat="43.9683976" lon="11.3382507"><ele>228.0</ele><time>2026-04-11T09:54:10.136Z</time></trkpt><trkpt lat="43.9684765" lon="11.3383122"><ele>228.0</ele><time>2026-04-11T09:54:11.136Z</time></trkpt><trkpt lat="43.9685598" lon="11.3383726"><ele>228.0</ele><time>2026-04-11T09:54:12.137Z</time></trkpt><trkpt lat="43.9686452" lon="11.3384392"><ele>228.4</ele><time>2026-04-11T09:54:13.137Z</time></trkpt><trkpt lat="43.9687322" lon="11.3385069"><ele>228.8</ele><time>2026-04-11T09:54:14.137Z</time></trkpt><trkpt lat="43.9688135" lon="11.3385703"><ele>229.2</ele><time>2026-04-11T09:54:15.137Z</time></trkpt><trkpt lat="43.9689024" lon="11.3386383"><ele>229.6</ele><time>2026-04-11T09:54:16.136Z</time></trkpt><trkpt lat="43.9689871" lon="11.3387066"><ele>230.0</ele><time>2026-04-11T09:54:17.136Z</time></trkpt><trkpt lat="43.9690738" lon="11.3387735"><ele>230.0</ele><time>2026-04-11T09:54:18.136Z</time></trkpt><trkpt lat="43.9691566" lon="11.3388406"><ele>230.0</ele><time>2026-04-11T09:54:19.136Z</time></trkpt><trkpt lat="43.9692352" lon="11.3389089"><ele>230.0</ele><time>2026-04-11T09:54:20.136Z</time></trkpt><trkpt lat="43.9693183" lon="11.3389746"><ele>230.0</ele><time>2026-04-11T09:54:21.137Z</time></trkpt><trkpt lat="43.9693989" lon="11.3390373"><ele>230.0</ele><time>2026-04-11T09:54:22.136Z</time></trkpt><trkpt lat="43.9694845" lon="11.3390884"><ele>230.6</ele><time>2026-04-11T09:54:23.137Z</time></trkpt><trkpt lat="43.9695543" lon="11.3391528"><ele>231.2</ele><time>2026-04-11T09:54:24.136Z</time></trkpt><trkpt lat="43.9696233" lon="11.3392307"><ele>231.8</ele><time>2026-04-11T09:54:25.136Z</time></trkpt><trkpt lat="43.9696912" lon="11.3393056"><ele>232.4</ele><time>2026-04-11T09:54:26.137Z</time></trkpt><trkpt lat="43.9697716" lon="11.3393625"><ele>233.0</ele><time>2026-04-11T09:54:27.137Z</time></trkpt><trkpt lat="43.9698643" lon="11.3394149"><ele>233.00000000000003</ele><time>2026-04-11T09:54:28.136Z</time></trkpt><trkpt lat="43.9699476" lon="11.3394782"><ele>233.0</ele><time>2026-04-11T09:54:29.136Z</time></trkpt><trkpt lat="43.9700305" lon="11.3395382"><ele>233.0</ele><time>2026-04-11T09:54:30.137Z</time></trkpt><trkpt lat="43.9701117" lon="11.339596"><ele>233.0</ele><time>2026-04-11T09:54:31.137Z</time></trkpt><trkpt lat="43.9701886" lon="11.3396563"><ele>233.00000000000003</ele><time>2026-04-11T09:54:32.136Z</time></trkpt><trkpt lat="43.9702574" lon="11.3397086"><ele>233.0</ele><time>2026-04-11T09:54:33.136Z</time></trkpt><trkpt lat="43.970321" lon="11.3397549"><ele>234.0</ele><time>2026-04-11T09:54:34.137Z</time></trkpt><trkpt lat="43.9703851" lon="11.3398041"><ele>235.0</ele><time>2026-04-11T09:54:35.137Z</time></trkpt><trkpt lat="43.970444" lon="11.339854"><ele>236.0</ele><time>2026-04-11T09:54:36.137Z</time></trkpt><trkpt lat="43.9705024" lon="11.3399022"><ele>237.0</ele><time>2026-04-11T09:54:37.137Z</time></trkpt><trkpt lat="43.9705695" lon="11.3399374"><ele>238.0</ele><time>2026-04-11T09:54:38.137Z</time></trkpt><trkpt lat="43.9706406" lon="11.3399498"><ele>239.0</ele><time>2026-04-11T09:54:39.136Z</time></trkpt><trkpt lat="43.9707094" lon="11.3399526"><ele>240.0</ele><time>2026-04-11T09:54:40.136Z</time></trkpt><trkpt lat="43.9707922" lon="11.339958"><ele>239.83333333333334</ele><time>2026-04-11T09:54:41.136Z</time></trkpt><trkpt lat="43.9708791" lon="11.3399574"><ele>239.66666666666669</ele><time>2026-04-11T09:54:42.136Z</time></trkpt><trkpt lat="43.9709702" lon="11.3399712"><ele>239.5</ele><time>2026-04-11T09:54:43.136Z</time></trkpt><trkpt lat="43.9710559" lon="11.3399832"><ele>239.33333333333334</ele><time>2026-04-11T09:54:44.136Z</time></trkpt><trkpt lat="43.9711469" lon="11.3399926"><ele>239.16666666666669</ele><time>2026-04-11T09:54:45.137Z</time></trkpt><trkpt lat="43.9712278" lon="11.3399839"><ele>239.0</ele><time>2026-04-11T09:54:46.136Z</time></trkpt><trkpt lat="43.9713187" lon="11.3400016"><ele>239.0</ele><time>2026-04-11T09:54:47.137Z</time></trkpt><trkpt lat="43.9714119" lon="11.3400097"><ele>238.99999999999997</ele><time>2026-04-11T09:54:48.137Z</time></trkpt><trkpt lat="43.9715042" lon="11.3400302"><ele>238.99999999999997</ele><time>2026-04-11T09:54:49.137Z</time></trkpt><trkpt lat="43.9715956" lon="11.3400557"><ele>239.0</ele><time>2026-04-11T09:54:50.137Z</time></trkpt><trkpt lat="43.9716869" lon="11.340094"><ele>239.0</ele><time>2026-04-11T09:54:51.136Z</time></trkpt><trkpt lat="43.9717697" lon="11.3401411"><ele>236.79999999999998</ele><time>2026-04-11T09:54:52.136Z</time></trkpt><trkpt lat="43.9718601" lon="11.3401953"><ele>234.59999999999997</ele><time>2026-04-11T09:54:53.137Z</time></trkpt><trkpt lat="43.9719494" lon="11.3402577"><ele>232.4</ele><time>2026-04-11T09:54:54.137Z</time></trkpt><trkpt lat="43.9720327" lon="11.3403137"><ele>230.2</ele><time>2026-04-11T09:54:55.137Z</time></trkpt><trkpt lat="43.9721166" lon="11.3403597"><ele>228.0</ele><time>2026-04-11T09:54:56.136Z</time></trkpt><trkpt lat="43.9722022" lon="11.3404118"><ele>228.0</ele><time>2026-04-11T09:54:57.136Z</time></trkpt><trkpt lat="43.9722845" lon="11.3404574"><ele>228.0</ele><time>2026-04-11T09:54:58.136Z</time></trkpt><trkpt lat="43.9723713" lon="11.340511"><ele>228.0</ele><time>2026-04-11T09:54:59.137Z</time></trkpt><trkpt lat="43.972462" lon="11.3405728"><ele>228.0</ele><time>2026-04-11T09:55:00.137Z</time></trkpt><trkpt lat="43.9725554" lon="11.3406308"><ele>228.0</ele><time>2026-04-11T09:55:01.137Z</time></trkpt><trkpt lat="43.9726521" lon="11.340692"><ele>228.8</ele><time>2026-04-11T09:55:02.136Z</time></trkpt><trkpt lat="43.9727458" lon="11.3407561"><ele>229.60000000000002</ele><time>2026-04-11T09:55:03.136Z</time></trkpt><trkpt lat="43.9728349" lon="11.3408187"><ele>230.39999999999998</ele><time>2026-04-11T09:55:04.136Z</time></trkpt><trkpt lat="43.9729163" lon="11.3408728"><ele>231.2</ele><time>2026-04-11T09:55:05.136Z</time></trkpt><trkpt lat="43.9730017" lon="11.3409209"><ele>232.0</ele><time>2026-04-11T09:55:06.136Z</time></trkpt><trkpt lat="43.9730883" lon="11.3409767"><ele>232.0</ele><time>2026-04-11T09:55:07.137Z</time></trkpt><trkpt lat="43.9731635" lon="11.3410374"><ele>232.0</ele><time>2026-04-11T09:55:08.137Z</time></trkpt><trkpt lat="43.973253" lon="11.341088"><ele>232.0</ele><time>2026-04-11T09:55:09.137Z</time></trkpt><trkpt lat="43.9733418" lon="11.3411142"><ele>232.0</ele><time>2026-04-11T09:55:10.137Z</time></trkpt><trkpt lat="43.9734385" lon="11.3411058"><ele>232.0</ele><time>2026-04-11T09:55:11.137Z</time></trkpt><trkpt lat="43.9735402" lon="11.3410951"><ele>232.6</ele><time>2026-04-11T09:55:12.137Z</time></trkpt><trkpt lat="43.9736481" lon="11.3410792"><ele>233.2</ele><time>2026-04-11T09:55:13.137Z</time></trkpt><trkpt lat="43.9737546" lon="11.3410807"><ele>233.8</ele><time>2026-04-11T09:55:14.136Z</time></trkpt><trkpt lat="43.9738569" lon="11.3410921"><ele>234.4</ele><time>2026-04-11T09:55:15.136Z</time></trkpt><trkpt lat="43.9739645" lon="11.3411165"><ele>235.0</ele><time>2026-04-11T09:55:16.137Z</time></trkpt><trkpt lat="43.9740646" lon="11.3411464"><ele>235.0</ele><time>2026-04-11T09:55:17.136Z</time></trkpt><trkpt lat="43.9741528" lon="11.3411815"><ele>235.0</ele><time>2026-04-11T09:55:18.137Z</time></trkpt><trkpt lat="43.9742439" lon="11.3412237"><ele>235.0</ele><time>2026-04-11T09:55:19.137Z</time></trkpt><trkpt lat="43.9743387" lon="11.3412729"><ele>235.0</ele><time>2026-04-11T09:55:20.137Z</time></trkpt><trkpt lat="43.9744365" lon="11.341321"><ele>235.0</ele><time>2026-04-11T09:55:21.137Z</time></trkpt><trkpt lat="43.9745278" lon="11.3413692"><ele>234.99999999999997</ele><time>2026-04-11T09:55:22.136Z</time></trkpt><trkpt lat="43.9746066" lon="11.3414082"><ele>235.0</ele><time>2026-04-11T09:55:23.137Z</time></trkpt><trkpt lat="43.9746876" lon="11.3414505"><ele>235.0</ele><time>2026-04-11T09:55:24.137Z</time></trkpt><trkpt lat="43.9747677" lon="11.3414968"><ele>235.0</ele><time>2026-04-11T09:55:25.137Z</time></trkpt><trkpt lat="43.9748438" lon="11.3415373"><ele>234.99999999999997</ele><time>2026-04-11T09:55:26.136Z</time></trkpt><trkpt lat="43.9749213" lon="11.3415844"><ele>235.0</ele><time>2026-04-11T09:55:27.136Z</time></trkpt><trkpt lat="43.9749978" lon="11.3416385"><ele>234.0</ele><time>2026-04-11T09:55:28.137Z</time></trkpt><trkpt lat="43.9750784" lon="11.3416909"><ele>233.0</ele><time>2026-04-11T09:55:29.135Z</time></trkpt><trkpt lat="43.9751657" lon="11.3417488"><ele>232.0</ele><time>2026-04-11T09:55:30.136Z</time></trkpt><trkpt lat="43.9752445" lon="11.3418349"><ele>231.0</ele><time>2026-04-11T09:55:31.137Z</time></trkpt><trkpt lat="43.9753157" lon="11.3419292"><ele>230.0</ele><time>2026-04-11T09:55:32.137Z</time></trkpt><trkpt lat="43.9753808" lon="11.3420292"><ele>230.0</ele><time>2026-04-11T09:55:33.137Z</time></trkpt><trkpt lat="43.9754452" lon="11.3421349"><ele>230.0</ele><time>2026-04-11T09:55:34.136Z</time></trkpt><trkpt lat="43.9755076" lon="11.3422235"><ele>230.0</ele><time>2026-04-11T09:55:35.137Z</time></trkpt><trkpt lat="43.9755824" lon="11.3423036"><ele>230.0</ele><time>2026-04-11T09:55:36.136Z</time></trkpt><trkpt lat="43.9756607" lon="11.3423825"><ele>230.0</ele><time>2026-04-11T09:55:37.137Z</time></trkpt><trkpt lat="43.9757307" lon="11.3424571"><ele>231.0</ele><time>2026-04-11T09:55:38.136Z</time></trkpt><trkpt lat="43.9758027" lon="11.3425393"><ele>232.0</ele><time>2026-04-11T09:55:39.137Z</time></trkpt><trkpt lat="43.9758759" lon="11.3426252"><ele>233.0</ele><time>2026-04-11T09:55:40.137Z</time></trkpt><trkpt lat="43.9759497" lon="11.3427116"><ele>234.0</ele><time>2026-04-11T09:55:41.135Z</time></trkpt><trkpt lat="43.9760175" lon="11.3427953"><ele>235.0</ele><time>2026-04-11T09:55:42.136Z</time></trkpt><trkpt lat="43.9760827" lon="11.3428515"><ele>234.99999999999997</ele><time>2026-04-11T09:55:43.137Z</time></trkpt><trkpt lat="43.9761541" lon="11.3428846"><ele>235.0</ele><time>2026-04-11T09:55:44.136Z</time></trkpt><trkpt lat="43.9762307" lon="11.3428988"><ele>235.0</ele><time>2026-04-11T09:55:45.136Z</time></trkpt><trkpt lat="43.9763084" lon="11.3429127"><ele>235.0</ele><time>2026-04-11T09:55:46.137Z</time></trkpt><trkpt lat="43.9763915" lon="11.3429208"><ele>234.99999999999997</ele><time>2026-04-11T09:55:47.137Z</time></trkpt><trkpt lat="43.9764887" lon="11.3429398"><ele>235.0</ele><time>2026-04-11T09:55:48.136Z</time></trkpt><trkpt lat="43.9765729" lon="11.3429729"><ele>234.99999999999997</ele><time>2026-04-11T09:55:49.136Z</time></trkpt><trkpt lat="43.9766522" lon="11.3429904"><ele>235.0</ele><time>2026-04-11T09:55:50.136Z</time></trkpt><trkpt lat="43.9767299" lon="11.3430162"><ele>235.0</ele><time>2026-04-11T09:55:51.136Z</time></trkpt><trkpt lat="43.9768103" lon="11.3430369"><ele>235.0</ele><time>2026-04-11T09:55:52.136Z</time></trkpt><trkpt lat="43.9768889" lon="11.3430544"><ele>234.99999999999997</ele><time>2026-04-11T09:55:53.136Z</time></trkpt><trkpt lat="43.9769629" lon="11.3430796"><ele>235.0</ele><time>2026-04-11T09:55:54.137Z</time></trkpt><trkpt lat="43.9770351" lon="11.3431122"><ele>236.49999999999997</ele><time>2026-04-11T09:55:55.137Z</time></trkpt><trkpt lat="43.9771063" lon="11.3431609"><ele>238.0</ele><time>2026-04-11T09:55:56.135Z</time></trkpt><trkpt lat="43.9771728" lon="11.3432186"><ele>239.5</ele><time>2026-04-11T09:55:57.136Z</time></trkpt><trkpt lat="43.9772358" lon="11.3432803"><ele>241.0</ele><time>2026-04-11T09:55:58.136Z</time></trkpt><trkpt lat="43.9773016" lon="11.3433399"><ele>242.49999999999997</ele><time>2026-04-11T09:55:59.135Z</time></trkpt><trkpt lat="43.9773682" lon="11.343403"><ele>244.0</ele><time>2026-04-11T09:56:00.136Z</time></trkpt><trkpt lat="43.9774288" lon="11.3434635"><ele>243.99999999999997</ele><time>2026-04-11T09:56:01.137Z</time></trkpt><trkpt lat="43.9774868" lon="11.3435229"><ele>244.0</ele><time>2026-04-11T09:56:02.137Z</time></trkpt><trkpt lat="43.9775536" lon="11.3435896"><ele>244.0</ele><time>2026-04-11T09:56:03.137Z</time></trkpt><trkpt lat="43.9776288" lon="11.343661"><ele>244.0</ele><time>2026-04-11T09:56:04.136Z</time></trkpt><trkpt lat="43.9776981" lon="11.3437471"><ele>243.99999999999997</ele><time>2026-04-11T09:56:05.137Z</time></trkpt><trkpt lat="43.977784" lon="11.3438164"><ele>244.0</ele><time>2026-04-11T09:56:06.137Z</time></trkpt><trkpt lat="43.9778749" lon="11.343904"><ele>244.0</ele><time>2026-04-11T09:56:07.137Z</time></trkpt><trkpt lat="43.9779681" lon="11.3440026"><ele>244.0</ele><time>2026-04-11T09:56:08.137Z</time></trkpt><trkpt lat="43.9780771" lon="11.3441067"><ele>244.0</ele><time>2026-04-11T09:56:09.137Z</time></trkpt><trkpt lat="43.978184" lon="11.3441818"><ele>244.0</ele><time>2026-04-11T09:56:10.136Z</time></trkpt><trkpt lat="43.9782905" lon="11.3442346"><ele>243.0</ele><time>2026-04-11T09:56:11.136Z</time></trkpt><trkpt lat="43.9783946" lon="11.3442714"><ele>241.99999999999997</ele><time>2026-04-11T09:56:12.137Z</time></trkpt><trkpt lat="43.9784891" lon="11.3442998"><ele>240.99999999999997</ele><time>2026-04-11T09:56:13.137Z</time></trkpt><trkpt lat="43.9785828" lon="11.3443197"><ele>240.0</ele><time>2026-04-11T09:56:14.136Z</time></trkpt><trkpt lat="43.9786662" lon="11.3443442"><ele>239.0</ele><time>2026-04-11T09:56:15.136Z</time></trkpt><trkpt lat="43.9787451" lon="11.3443668"><ele>239.00000000000003</ele><time>2026-04-11T09:56:16.137Z</time></trkpt><trkpt lat="43.9788346" lon="11.3443765"><ele>239.0</ele><time>2026-04-11T09:56:17.136Z</time></trkpt><trkpt lat="43.9789181" lon="11.3444024"><ele>239.0</ele><time>2026-04-11T09:56:18.137Z</time></trkpt><trkpt lat="43.9789933" lon="11.3444429"><ele>239.0</ele><time>2026-04-11T09:56:19.137Z</time></trkpt><trkpt lat="43.9790725" lon="11.34449"><ele>239.00000000000003</ele><time>2026-04-11T09:56:20.136Z</time></trkpt><trkpt lat="43.9791407" lon="11.3445616"><ele>239.0</ele><time>2026-04-11T09:56:21.137Z</time></trkpt><trkpt lat="43.9792088" lon="11.3446174"><ele>239.33333333333334</ele><time>2026-04-11T09:56:22.137Z</time></trkpt><trkpt lat="43.9792786" lon="11.3446773"><ele>239.66666666666669</ele><time>2026-04-11T09:56:23.137Z</time></trkpt><trkpt lat="43.9793404" lon="11.3447348"><ele>240.0</ele><time>2026-04-11T09:56:24.137Z</time></trkpt><trkpt lat="43.9794085" lon="11.3447909"><ele>240.33333333333331</ele><time>2026-04-11T09:56:25.136Z</time></trkpt><trkpt lat="43.9794803" lon="11.344846"><ele>240.66666666666666</ele><time>2026-04-11T09:56:26.137Z</time></trkpt><trkpt lat="43.9795528" lon="11.3449042"><ele>241.0</ele><time>2026-04-11T09:56:27.137Z</time></trkpt><trkpt lat="43.9796242" lon="11.3449593"><ele>240.99999999999997</ele><time>2026-04-11T09:56:28.137Z</time></trkpt><trkpt lat="43.9797002" lon="11.3450213"><ele>241.0</ele><time>2026-04-11T09:56:29.137Z</time></trkpt><trkpt lat="43.9797762" lon="11.345079"><ele>241.0</ele><time>2026-04-11T09:56:30.137Z</time></trkpt><trkpt lat="43.9798559" lon="11.3451339"><ele>241.0</ele><time>2026-04-11T09:56:31.137Z</time></trkpt><trkpt lat="43.9799311" lon="11.3451823"><ele>240.99999999999997</ele><time>2026-04-11T09:56:32.137Z</time></trkpt><trkpt lat="43.9800077" lon="11.3452106"><ele>241.0</ele><time>2026-04-11T09:56:33.137Z</time></trkpt><trkpt lat="43.9800807" lon="11.3452327"><ele>240.33333333333331</ele><time>2026-04-11T09:56:34.137Z</time></trkpt><trkpt lat="43.9801535" lon="11.3452658"><ele>239.66666666666666</ele><time>2026-04-11T09:56:35.137Z</time></trkpt><trkpt lat="43.9802269" lon="11.3452964"><ele>239.0</ele><time>2026-04-11T09:56:36.137Z</time></trkpt><trkpt lat="43.9803034" lon="11.3453241"><ele>238.33333333333331</ele><time>2026-04-11T09:56:37.136Z</time></trkpt><trkpt lat="43.98039" lon="11.3453684"><ele>237.66666666666666</ele><time>2026-04-11T09:56:38.136Z</time></trkpt><trkpt lat="43.9804896" lon="11.3454306"><ele>237.0</ele><time>2026-04-11T09:56:39.136Z</time></trkpt><trkpt lat="43.9806052" lon="11.3454863"><ele>237.0</ele><time>2026-04-11T09:56:40.136Z</time></trkpt><trkpt lat="43.9807241" lon="11.3455396"><ele>237.0</ele><time>2026-04-11T09:56:41.137Z</time></trkpt><trkpt lat="43.9808366" lon="11.3455854"><ele>237.0</ele><time>2026-04-11T09:56:42.136Z</time></trkpt><trkpt lat="43.9809562" lon="11.3456349"><ele>237.0</ele><time>2026-04-11T09:56:43.137Z</time></trkpt><trkpt lat="43.981081" lon="11.3456789"><ele>238.25</ele><time>2026-04-11T09:56:44.137Z</time></trkpt><trkpt lat="43.9812028" lon="11.3457152"><ele>239.5</ele><time>2026-04-11T09:56:45.136Z</time></trkpt><trkpt lat="43.981312" lon="11.3457448"><ele>240.75</ele><time>2026-04-11T09:56:46.136Z</time></trkpt><trkpt lat="43.9814208" lon="11.3457636"><ele>242.0</ele><time>2026-04-11T09:56:47.136Z</time></trkpt><trkpt lat="43.9815238" lon="11.3457991"><ele>242.0</ele><time>2026-04-11T09:56:48.137Z</time></trkpt><trkpt lat="43.9816306" lon="11.3458468"><ele>242.0</ele><time>2026-04-11T09:56:49.137Z</time></trkpt><trkpt lat="43.9817287" lon="11.345908"><ele>242.0</ele><time>2026-04-11T09:56:50.137Z</time></trkpt><trkpt lat="43.9818267" lon="11.3459729"><ele>242.0</ele><time>2026-04-11T09:56:51.137Z</time></trkpt><trkpt lat="43.9819256" lon="11.3460303"><ele>242.0</ele><time>2026-04-11T09:56:52.137Z</time></trkpt><trkpt lat="43.9820355" lon="11.3460764"><ele>242.0</ele><time>2026-04-11T09:56:53.137Z</time></trkpt><trkpt lat="43.9821551" lon="11.3461196"><ele>242.0</ele><time>2026-04-11T09:56:54.136Z</time></trkpt><trkpt lat="43.9822716" lon="11.3461462"><ele>242.0</ele><time>2026-04-11T09:56:55.136Z</time></trkpt><trkpt lat="43.9823958" lon="11.3461685"><ele>242.0</ele><time>2026-04-11T09:56:56.137Z</time></trkpt><trkpt lat="43.9825178" lon="11.3461792"><ele>242.0</ele><time>2026-04-11T09:56:57.137Z</time></trkpt><trkpt lat="43.9826405" lon="11.3461773"><ele>242.0</ele><time>2026-04-11T09:56:58.137Z</time></trkpt><trkpt lat="43.9827567" lon="11.346177"><ele>242.0</ele><time>2026-04-11T09:56:59.137Z</time></trkpt><trkpt lat="43.9828536" lon="11.3461922"><ele>242.0</ele><time>2026-04-11T09:57:00.137Z</time></trkpt><trkpt lat="43.9829416" lon="11.346216"><ele>242.0</ele><time>2026-04-11T09:57:01.136Z</time></trkpt><trkpt lat="43.9830261" lon="11.3462351"><ele>242.00000000000003</ele><time>2026-04-11T09:57:02.137Z</time></trkpt><trkpt lat="43.9830892" lon="11.3462496"><ele>242.0</ele><time>2026-04-11T09:57:03.137Z</time></trkpt><trkpt lat="43.9831504" lon="11.3462993"><ele>242.0</ele><time>2026-04-11T09:57:04.137Z</time></trkpt><trkpt lat="43.9832123" lon="11.3463622"><ele>242.0</ele><time>2026-04-11T09:57:05.137Z</time></trkpt><trkpt lat="43.9832781" lon="11.3464417"><ele>242.00000000000003</ele><time>2026-04-11T09:57:06.136Z</time></trkpt><trkpt lat="43.9833393" lon="11.3465381"><ele>242.0</ele><time>2026-04-11T09:57:07.136Z</time></trkpt><trkpt lat="43.9833973" lon="11.3466492"><ele>244.16666666666669</ele><time>2026-04-11T09:57:08.135Z</time></trkpt><trkpt lat="43.983437" lon="11.3467388"><ele>246.33333333333334</ele><time>2026-04-11T09:57:09.136Z</time></trkpt><trkpt lat="43.9834981" lon="11.3468694"><ele>248.5</ele><time>2026-04-11T09:57:11.136Z</time></trkpt><trkpt lat="43.9835736" lon="11.3469776"><ele>250.66666666666669</ele><time>2026-04-11T09:57:13.135Z</time></trkpt><trkpt lat="43.9836392" lon="11.3470217"><ele>252.83333333333334</ele><time>2026-04-11T09:57:14.136Z</time></trkpt><trkpt lat="43.9836973" lon="11.3470631"><ele>255.0</ele><time>2026-04-11T09:57:15.136Z</time></trkpt><trkpt lat="43.9837569" lon="11.3471027"><ele>255.0</ele><time>2026-04-11T09:57:16.135Z</time></trkpt><trkpt lat="43.9838634" lon="11.3471625"><ele>255.0</ele><time>2026-04-11T09:57:18.135Z</time></trkpt><trkpt lat="43.9839319" lon="11.3472092"><ele>255.0</ele><time>2026-04-11T09:57:20.136Z</time></trkpt><trkpt lat="43.9839991" lon="11.347239"><ele>255.0</ele><time>2026-04-11T09:57:42.136Z</time></trkpt><trkpt lat="43.9840679" lon="11.3472873"><ele>255.0</ele><time>2026-04-11T09:57:44.136Z</time></trkpt><trkpt lat="43.9841826" lon="11.3473633"><ele>254.42857142857144</ele><time>2026-04-11T09:57:46.134Z</time></trkpt><trkpt lat="43.9842415" lon="11.3474029"><ele>253.8571428571429</ele><time>2026-04-11T09:57:47.135Z</time></trkpt><trkpt lat="43.9843048" lon="11.3474418"><ele>253.28571428571428</ele><time>2026-04-11T09:57:48.135Z</time></trkpt><trkpt lat="43.9843733" lon="11.3474832"><ele>252.71428571428572</ele><time>2026-04-11T09:57:49.135Z</time></trkpt><trkpt lat="43.9844416" lon="11.3475276"><ele>252.14285714285714</ele><time>2026-04-11T09:57:50.136Z</time></trkpt><trkpt lat="43.9845142" lon="11.347573"><ele>251.57142857142856</ele><time>2026-04-11T09:57:51.136Z</time></trkpt><trkpt lat="43.9845846" lon="11.3476186"><ele>250.99999999999997</ele><time>2026-04-11T09:57:52.136Z</time></trkpt><trkpt lat="43.9846587" lon="11.3476657"><ele>251.00000000000003</ele><time>2026-04-11T09:57:53.136Z</time></trkpt><trkpt lat="43.9847301" lon="11.3477267"><ele>251.0</ele><time>2026-04-11T09:57:54.136Z</time></trkpt><trkpt lat="43.984799" lon="11.3477981"><ele>251.0</ele><time>2026-04-11T09:57:55.134Z</time></trkpt><trkpt lat="43.9848682" lon="11.3478736"><ele>251.0</ele><time>2026-04-11T09:57:56.136Z</time></trkpt><trkpt lat="43.9849435" lon="11.3479608"><ele>251.00000000000003</ele><time>2026-04-11T09:57:57.136Z</time></trkpt><trkpt lat="43.9850128" lon="11.3480457"><ele>251.0</ele><time>2026-04-11T09:57:58.136Z</time></trkpt><trkpt lat="43.9850827" lon="11.3481412"><ele>252.20000000000002</ele><time>2026-04-11T09:57:59.135Z</time></trkpt><trkpt lat="43.9851559" lon="11.34824"><ele>253.40000000000003</ele><time>2026-04-11T09:58:00.135Z</time></trkpt><trkpt lat="43.9852272" lon="11.3483481"><ele>254.6</ele><time>2026-04-11T09:58:01.135Z</time></trkpt><trkpt lat="43.9852984" lon="11.3484588"><ele>255.8</ele><time>2026-04-11T09:58:02.135Z</time></trkpt><trkpt lat="43.9853689" lon="11.348568"><ele>257.0</ele><time>2026-04-11T09:58:03.135Z</time></trkpt><trkpt lat="43.9854522" lon="11.3486658"><ele>257.0</ele><time>2026-04-11T09:58:04.135Z</time></trkpt><trkpt lat="43.9855606" lon="11.348771"><ele>257.0</ele><time>2026-04-11T09:58:05.135Z</time></trkpt><trkpt lat="43.985661" lon="11.348853"><ele>257.0</ele><time>2026-04-11T09:58:06.135Z</time></trkpt><trkpt lat="43.9857682" lon="11.3489155"><ele>257.0</ele><time>2026-04-11T09:58:07.135Z</time></trkpt><trkpt lat="43.9858743" lon="11.3489734"><ele>257.8</ele><time>2026-04-11T09:58:08.135Z</time></trkpt><trkpt lat="43.9859777" lon="11.3490009"><ele>258.6</ele><time>2026-04-11T09:58:09.135Z</time></trkpt><trkpt lat="43.986086" lon="11.3490054"><ele>259.40000000000003</ele><time>2026-04-11T09:58:10.135Z</time></trkpt><trkpt lat="43.9861901" lon="11.3489806"><ele>260.2</ele><time>2026-04-11T09:58:11.136Z</time></trkpt><trkpt lat="43.9862925" lon="11.3489502"><ele>261.0</ele><time>2026-04-11T09:58:12.135Z</time></trkpt><trkpt lat="43.986398" lon="11.348918"><ele>261.6</ele><time>2026-04-11T09:58:13.136Z</time></trkpt><trkpt lat="43.986493" lon="11.3488511"><ele>262.20000000000005</ele><time>2026-04-11T09:58:14.135Z</time></trkpt><trkpt lat="43.9865599" lon="11.3487441"><ele>262.79999999999995</ele><time>2026-04-11T09:58:15.135Z</time></trkpt><trkpt lat="43.9866088" lon="11.3486019"><ele>263.4</ele><time>2026-04-11T09:58:16.136Z</time></trkpt><trkpt lat="43.9866368" lon="11.3484611"><ele>264.0</ele><time>2026-04-11T09:58:17.136Z</time></trkpt><trkpt lat="43.9866604" lon="11.3483353"><ele>263.5</ele><time>2026-04-11T09:58:18.136Z</time></trkpt><trkpt lat="43.9866965" lon="11.3482488"><ele>263.0</ele><time>2026-04-11T09:58:19.135Z</time></trkpt><trkpt lat="43.9867621" lon="11.3481542"><ele>262.5</ele><time>2026-04-11T09:58:21.136Z</time></trkpt><trkpt lat="43.9868244" lon="11.348091"><ele>262.0</ele><time>2026-04-11T09:58:24.136Z</time></trkpt><trkpt lat="43.9868621" lon="11.3480177"><ele>261.5</ele><time>2026-04-11T09:58:28.135Z</time></trkpt><trkpt lat="43.986833" lon="11.347893"><ele>261.0</ele><time>2026-04-11T09:58:30.136Z</time></trkpt><trkpt lat="43.9867979" lon="11.3478169"><ele>260.40000000000003</ele><time>2026-04-11T09:58:31.136Z</time></trkpt><trkpt lat="43.9867405" lon="11.3477158"><ele>259.8</ele><time>2026-04-11T09:58:32.136Z</time></trkpt><trkpt lat="43.9866928" lon="11.3475986"><ele>259.20000000000005</ele><time>2026-04-11T09:58:33.135Z</time></trkpt><trkpt lat="43.9866486" lon="11.3474702"><ele>258.6</ele><time>2026-04-11T09:58:34.136Z</time></trkpt><trkpt lat="43.9866051" lon="11.3473523"><ele>258.0</ele><time>2026-04-11T09:58:35.135Z</time></trkpt><trkpt lat="43.9865617" lon="11.3472374"><ele>256.4</ele><time>2026-04-11T09:58:36.135Z</time></trkpt><trkpt lat="43.9865122" lon="11.3471117"><ele>254.8</ele><time>2026-04-11T09:58:37.134Z</time></trkpt><trkpt lat="43.9864615" lon="11.3469755"><ele>253.2</ele><time>2026-04-11T09:58:38.135Z</time></trkpt><trkpt lat="43.9864104" lon="11.3468316"><ele>251.6</ele><time>2026-04-11T09:58:39.136Z</time></trkpt><trkpt lat="43.9863575" lon="11.3466949"><ele>250.0</ele><time>2026-04-11T09:58:40.136Z</time></trkpt><trkpt lat="43.9863029" lon="11.3465572"><ele>250.0</ele><time>2026-04-11T09:58:41.135Z</time></trkpt><trkpt lat="43.9862423" lon="11.346406"><ele>250.0</ele><time>2026-04-11T09:58:42.136Z</time></trkpt><trkpt lat="43.9861817" lon="11.346243"><ele>250.0</ele><time>2026-04-11T09:58:43.134Z</time></trkpt><trkpt lat="43.9861166" lon="11.3460638"><ele>250.0</ele><time>2026-04-11T09:58:44.135Z</time></trkpt><trkpt lat="43.9860503" lon="11.3458889"><ele>248.25</ele><time>2026-04-11T09:58:45.136Z</time></trkpt><trkpt lat="43.9859852" lon="11.3457185"><ele>246.5</ele><time>2026-04-11T09:58:46.136Z</time></trkpt><trkpt lat="43.9859218" lon="11.3455588"><ele>244.75</ele><time>2026-04-11T09:58:47.136Z</time></trkpt><trkpt lat="43.9858603" lon="11.345404"><ele>243.0</ele><time>2026-04-11T09:58:48.136Z</time></trkpt><trkpt lat="43.9857979" lon="11.3452397"><ele>243.0</ele><time>2026-04-11T09:58:49.136Z</time></trkpt><trkpt lat="43.9857299" lon="11.3450658"><ele>243.0</ele><time>2026-04-11T09:58:50.136Z</time></trkpt><trkpt lat="43.9856618" lon="11.3448939"><ele>243.0</ele><time>2026-04-11T09:58:51.136Z</time></trkpt><trkpt lat="43.9855943" lon="11.3447278"><ele>243.0</ele><time>2026-04-11T09:58:52.136Z</time></trkpt><trkpt lat="43.9855285" lon="11.3445642"><ele>241.25</ele><time>2026-04-11T09:58:53.135Z</time></trkpt><trkpt lat="43.9854591" lon="11.3443967"><ele>239.5</ele><time>2026-04-11T09:58:54.135Z</time></trkpt><trkpt lat="43.9853862" lon="11.3442231"><ele>237.75</ele><time>2026-04-11T09:58:55.135Z</time></trkpt><trkpt lat="43.9853155" lon="11.3440491"><ele>236.0</ele><time>2026-04-11T09:58:56.136Z</time></trkpt><trkpt lat="43.985246" lon="11.3438729"><ele>234.5</ele><time>2026-04-11T09:58:57.136Z</time></trkpt><trkpt lat="43.9851742" lon="11.3436865"><ele>233.0</ele><time>2026-04-11T09:58:58.136Z</time></trkpt><trkpt lat="43.9850994" lon="11.3435055"><ele>231.5</ele><time>2026-04-11T09:58:59.136Z</time></trkpt><trkpt lat="43.9850256" lon="11.343333"><ele>230.0</ele><time>2026-04-11T09:59:00.136Z</time></trkpt><trkpt lat="43.9849611" lon="11.3431614"><ele>229.0</ele><time>2026-04-11T09:59:01.136Z</time></trkpt><trkpt lat="43.984936" lon="11.3429582"><ele>228.0</ele><time>2026-04-11T09:59:02.136Z</time></trkpt><trkpt lat="43.9849509" lon="11.3427292"><ele>227.0</ele><time>2026-04-11T09:59:03.136Z</time></trkpt><trkpt lat="43.9849821" lon="11.342492"><ele>226.66666666666669</ele><time>2026-04-11T09:59:04.136Z</time></trkpt><trkpt lat="43.9850202" lon="11.3422494"><ele>226.33333333333331</ele><time>2026-04-11T09:59:05.136Z</time></trkpt><trkpt lat="43.9850558" lon="11.3420214"><ele>226.0</ele><time>2026-04-11T09:59:06.136Z</time></trkpt><trkpt lat="43.9850892" lon="11.3417981"><ele>226.0</ele><time>2026-04-11T09:59:07.136Z</time></trkpt><trkpt lat="43.9851274" lon="11.3415768"><ele>226.0</ele><time>2026-04-11T09:59:08.136Z</time></trkpt><trkpt lat="43.9851673" lon="11.3413568"><ele>226.0</ele><time>2026-04-11T09:59:09.136Z</time></trkpt><trkpt lat="43.985208" lon="11.3411369"><ele>226.66666666666666</ele><time>2026-04-11T09:59:10.136Z</time></trkpt><trkpt lat="43.9852488" lon="11.3409121"><ele>227.33333333333331</ele><time>2026-04-11T09:59:11.136Z</time></trkpt><trkpt lat="43.9852849" lon="11.3406948"><ele>228.0</ele><time>2026-04-11T09:59:12.135Z</time></trkpt><trkpt lat="43.9853132" lon="11.3404965"><ele>229.0</ele><time>2026-04-11T09:59:13.135Z</time></trkpt><trkpt lat="43.9853372" lon="11.340323"><ele>230.0</ele><time>2026-04-11T09:59:14.135Z</time></trkpt><trkpt lat="43.9853735" lon="11.3401817"><ele>231.0</ele><time>2026-04-11T09:59:15.136Z</time></trkpt><trkpt lat="43.985435" lon="11.3400549"><ele>232.0</ele><time>2026-04-11T09:59:16.136Z</time></trkpt><trkpt lat="43.9855016" lon="11.3399415"><ele>232.0</ele><time>2026-04-11T09:59:17.135Z</time></trkpt><trkpt lat="43.9855333" lon="11.3398052"><ele>232.0</ele><time>2026-04-11T09:59:18.135Z</time></trkpt><trkpt lat="43.9855261" lon="11.3396568"><ele>232.0</ele><time>2026-04-11T09:59:19.136Z</time></trkpt><trkpt lat="43.9854883" lon="11.3395068"><ele>232.0</ele><time>2026-04-11T09:59:20.136Z</time></trkpt><trkpt lat="43.9854749" lon="11.3393652"><ele>232.0</ele><time>2026-04-11T09:59:21.136Z</time></trkpt><trkpt lat="43.9854829" lon="11.3392504"><ele>232.66666666666666</ele><time>2026-04-11T09:59:22.136Z</time></trkpt><trkpt lat="43.9854934" lon="11.3391608"><ele>233.33333333333331</ele><time>2026-04-11T09:59:23.136Z</time></trkpt><trkpt lat="43.9855072" lon="11.339067"><ele>234.0</ele><time>2026-04-11T09:59:24.136Z</time></trkpt><trkpt lat="43.9855284" lon="11.3389627"><ele>234.66666666666669</ele><time>2026-04-11T09:59:25.135Z</time></trkpt><trkpt lat="43.9855571" lon="11.3388614"><ele>235.33333333333334</ele><time>2026-04-11T09:59:26.135Z</time></trkpt><trkpt lat="43.9855907" lon="11.3387722"><ele>236.0</ele><time>2026-04-11T09:59:27.135Z</time></trkpt><trkpt lat="43.9856554" lon="11.3386274"><ele>236.57142857142856</ele><time>2026-04-11T09:59:29.135Z</time></trkpt><trkpt lat="43.9856958" lon="11.3385531"><ele>237.14285714285717</ele><time>2026-04-11T09:59:30.135Z</time></trkpt><trkpt lat="43.9857446" lon="11.3384782"><ele>237.71428571428572</ele><time>2026-04-11T09:59:31.136Z</time></trkpt><trkpt lat="43.9857781" lon="11.338402"><ele>238.28571428571428</ele><time>2026-04-11T09:59:32.135Z</time></trkpt><trkpt lat="43.9858021" lon="11.3383168"><ele>238.85714285714283</ele><time>2026-04-11T09:59:33.135Z</time></trkpt><trkpt lat="43.9858187" lon="11.3382317"><ele>239.42857142857144</ele><time>2026-04-11T09:59:34.136Z</time></trkpt><trkpt lat="43.9858398" lon="11.3381441"><ele>240.0</ele><time>2026-04-11T09:59:35.136Z</time></trkpt><trkpt lat="43.985863" lon="11.3380579"><ele>240.5</ele><time>2026-04-11T09:59:36.136Z</time></trkpt><trkpt lat="43.9858902" lon="11.3379666"><ele>241.0</ele><time>2026-04-11T09:59:37.135Z</time></trkpt><trkpt lat="43.9859177" lon="11.3378708"><ele>241.5</ele><time>2026-04-11T09:59:38.135Z</time></trkpt><trkpt lat="43.9859482" lon="11.3377729"><ele>242.0</ele><time>2026-04-11T09:59:39.135Z</time></trkpt><trkpt lat="43.9859795" lon="11.3376772"><ele>242.5</ele><time>2026-04-11T09:59:40.135Z</time></trkpt><trkpt lat="43.9860092" lon="11.3375762"><ele>243.0</ele><time>2026-04-11T09:59:41.135Z</time></trkpt><trkpt lat="43.9860401" lon="11.3374768"><ele>243.0</ele><time>2026-04-11T09:59:42.135Z</time></trkpt><trkpt lat="43.9860715" lon="11.3373879"><ele>243.0</ele><time>2026-04-11T09:59:43.135Z</time></trkpt><trkpt lat="43.9861024" lon="11.3372902"><ele>243.0</ele><time>2026-04-11T09:59:44.135Z</time></trkpt><trkpt lat="43.98613" lon="11.3371874"><ele>243.0</ele><time>2026-04-11T09:59:45.136Z</time></trkpt><trkpt lat="43.9861571" lon="11.3370807"><ele>243.0</ele><time>2026-04-11T09:59:46.136Z</time></trkpt><trkpt lat="43.9861894" lon="11.3369765"><ele>243.0</ele><time>2026-04-11T09:59:47.136Z</time></trkpt><trkpt lat="43.9862244" lon="11.3368807"><ele>243.0</ele><time>2026-04-11T09:59:48.136Z</time></trkpt><trkpt lat="43.9862564" lon="11.3367875"><ele>243.0</ele><time>2026-04-11T09:59:49.136Z</time></trkpt><trkpt lat="43.9862822" lon="11.3367017"><ele>243.0</ele><time>2026-04-11T09:59:50.136Z</time></trkpt><trkpt lat="43.9863047" lon="11.3366166"><ele>243.0</ele><time>2026-04-11T09:59:51.136Z</time></trkpt><trkpt lat="43.9863257" lon="11.3365311"><ele>243.0</ele><time>2026-04-11T09:59:52.136Z</time></trkpt><trkpt lat="43.9864113" lon="11.3364513"><ele>243.0</ele><time>2026-04-11T09:59:54.135Z</time></trkpt><trkpt lat="43.9865119" lon="11.3364746"><ele>243.0</ele><time>2026-04-11T09:59:56.136Z</time></trkpt><trkpt lat="43.9865751" lon="11.3364879"><ele>243.0</ele><time>2026-04-11T09:59:57.135Z</time></trkpt><trkpt lat="43.9866529" lon="11.336505"><ele>243.0</ele><time>2026-04-11T09:59:58.136Z</time></trkpt><trkpt lat="43.9867426" lon="11.3365185"><ele>243.0</ele><time>2026-04-11T09:59:59.136Z</time></trkpt><trkpt lat="43.9868375" lon="11.3365317"><ele>243.0</ele><time>2026-04-11T10:00:00.135Z</time></trkpt><trkpt lat="43.9869155" lon="11.3365504"><ele>243.0</ele><time>2026-04-11T10:00:01.135Z</time></trkpt><trkpt lat="43.9870305" lon="11.3365374"><ele>243.4</ele><time>2026-04-11T10:00:03.136Z</time></trkpt><trkpt lat="43.9870643" lon="11.3364197"><ele>243.8</ele><time>2026-04-11T10:00:05.136Z</time></trkpt><trkpt lat="43.9870138" lon="11.3362581"><ele>244.2</ele><time>2026-04-11T10:00:07.135Z</time></trkpt><trkpt lat="43.9869764" lon="11.3361613"><ele>244.6</ele><time>2026-04-11T10:00:08.136Z</time></trkpt><trkpt lat="43.9869482" lon="11.3360435"><ele>245.0</ele><time>2026-04-11T10:00:09.136Z</time></trkpt><trkpt lat="43.9869262" lon="11.3359147"><ele>245.6</ele><time>2026-04-11T10:00:10.136Z</time></trkpt><trkpt lat="43.9869071" lon="11.3357783"><ele>246.2</ele><time>2026-04-11T10:00:11.135Z</time></trkpt><trkpt lat="43.9868916" lon="11.3356318"><ele>246.8</ele><time>2026-04-11T10:00:12.135Z</time></trkpt><trkpt lat="43.9868786" lon="11.3354895"><ele>247.4</ele><time>2026-04-11T10:00:13.136Z</time></trkpt><trkpt lat="43.9868679" lon="11.3353438"><ele>248.0</ele><time>2026-04-11T10:00:14.136Z</time></trkpt><trkpt lat="43.9868638" lon="11.3351864"><ele>247.8</ele><time>2026-04-11T10:00:15.136Z</time></trkpt><trkpt lat="43.9868594" lon="11.3350263"><ele>247.60000000000002</ele><time>2026-04-11T10:00:16.136Z</time></trkpt><trkpt lat="43.9868504" lon="11.3348916"><ele>247.39999999999998</ele><time>2026-04-11T10:00:17.135Z</time></trkpt><trkpt lat="43.9868182" lon="11.3347523"><ele>247.2</ele><time>2026-04-11T10:00:18.135Z</time></trkpt><trkpt lat="43.9867613" lon="11.3346162"><ele>247.0</ele><time>2026-04-11T10:00:19.135Z</time></trkpt><trkpt lat="43.9866924" lon="11.3345089"><ele>247.16666666666666</ele><time>2026-04-11T10:00:20.136Z</time></trkpt><trkpt lat="43.9866132" lon="11.334416"><ele>247.33333333333331</ele><time>2026-04-11T10:00:21.136Z</time></trkpt><trkpt lat="43.9865508" lon="11.3343267"><ele>247.5</ele><time>2026-04-11T10:00:22.134Z</time></trkpt><trkpt lat="43.9865099" lon="11.3342455"><ele>247.66666666666669</ele><time>2026-04-11T10:00:23.135Z</time></trkpt><trkpt lat="43.98649" lon="11.3341617"><ele>247.83333333333334</ele><time>2026-04-11T10:00:24.135Z</time></trkpt><trkpt lat="43.9864855" lon="11.3340666"><ele>248.0</ele><time>2026-04-11T10:00:25.135Z</time></trkpt><trkpt lat="43.9864976" lon="11.3339763"><ele>247.00000000000003</ele><time>2026-04-11T10:00:26.135Z</time></trkpt><trkpt lat="43.9865167" lon="11.3338813"><ele>246.0</ele><time>2026-04-11T10:00:27.135Z</time></trkpt><trkpt lat="43.9865393" lon="11.3337827"><ele>245.0</ele><time>2026-04-11T10:00:28.136Z</time></trkpt><trkpt lat="43.9865697" lon="11.3336829"><ele>244.0</ele><time>2026-04-11T10:00:29.136Z</time></trkpt><trkpt lat="43.9866008" lon="11.333583"><ele>243.00000000000003</ele><time>2026-04-11T10:00:30.136Z</time></trkpt><trkpt lat="43.9866336" lon="11.3334652"><ele>242.0</ele><time>2026-04-11T10:00:31.136Z</time></trkpt><trkpt lat="43.9866731" lon="11.3333401"><ele>242.0</ele><time>2026-04-11T10:00:32.135Z</time></trkpt><trkpt lat="43.9867172" lon="11.3332149"><ele>242.0</ele><time>2026-04-11T10:00:33.135Z</time></trkpt><trkpt lat="43.9867653" lon="11.3330837"><ele>242.0</ele><time>2026-04-11T10:00:34.135Z</time></trkpt><trkpt lat="43.9868093" lon="11.3329167"><ele>242.0</ele><time>2026-04-11T10:00:35.135Z</time></trkpt><trkpt lat="43.9868468" lon="11.3327329"><ele>240.5</ele><time>2026-04-11T10:00:36.136Z</time></trkpt><trkpt lat="43.9868815" lon="11.3325607"><ele>239.0</ele><time>2026-04-11T10:00:37.136Z</time></trkpt><trkpt lat="43.9869117" lon="11.332385"><ele>237.5</ele><time>2026-04-11T10:00:38.136Z</time></trkpt><trkpt lat="43.9869456" lon="11.3322048"><ele>236.0</ele><time>2026-04-11T10:00:39.135Z</time></trkpt><trkpt lat="43.986983" lon="11.3320269"><ele>234.5</ele><time>2026-04-11T10:00:40.135Z</time></trkpt><trkpt lat="43.9870218" lon="11.3318527"><ele>233.0</ele><time>2026-04-11T10:00:41.135Z</time></trkpt><trkpt lat="43.9870613" lon="11.3316808"><ele>231.5</ele><time>2026-04-11T10:00:42.136Z</time></trkpt><trkpt lat="43.987099" lon="11.3315045"><ele>230.0</ele><time>2026-04-11T10:00:43.136Z</time></trkpt><trkpt lat="43.9871331" lon="11.3313351"><ele>229.25</ele><time>2026-04-11T10:00:44.136Z</time></trkpt><trkpt lat="43.9871718" lon="11.3311539"><ele>228.5</ele><time>2026-04-11T10:00:45.136Z</time></trkpt><trkpt lat="43.9872101" lon="11.3309864"><ele>227.75</ele><time>2026-04-11T10:00:46.136Z</time></trkpt><trkpt lat="43.9872479" lon="11.3308157"><ele>227.0</ele><time>2026-04-11T10:00:47.135Z</time></trkpt><trkpt lat="43.9872793" lon="11.3306536"><ele>227.25</ele><time>2026-04-11T10:00:48.136Z</time></trkpt><trkpt lat="43.9872972" lon="11.3304864"><ele>227.5</ele><time>2026-04-11T10:00:49.136Z</time></trkpt><trkpt lat="43.9872989" lon="11.3303116"><ele>227.75</ele><time>2026-04-11T10:00:50.135Z</time></trkpt><trkpt lat="43.9872942" lon="11.3301355"><ele>228.0</ele><time>2026-04-11T10:00:51.135Z</time></trkpt><trkpt lat="43.9872884" lon="11.3299542"><ele>228.0</ele><time>2026-04-11T10:00:52.136Z</time></trkpt><trkpt lat="43.9872807" lon="11.3297685"><ele>228.0</ele><time>2026-04-11T10:00:53.135Z</time></trkpt><trkpt lat="43.9872762" lon="11.329587"><ele>228.0</ele><time>2026-04-11T10:00:54.135Z</time></trkpt><trkpt lat="43.9872802" lon="11.3294113"><ele>228.0</ele><time>2026-04-11T10:00:55.135Z</time></trkpt><trkpt lat="43.9872962" lon="11.3292371"><ele>229.0</ele><time>2026-04-11T10:00:56.135Z</time></trkpt><trkpt lat="43.9873062" lon="11.3290687"><ele>230.0</ele><time>2026-04-11T10:00:57.136Z</time></trkpt><trkpt lat="43.987302" lon="11.3289"><ele>231.0</ele><time>2026-04-11T10:00:58.135Z</time></trkpt><trkpt lat="43.9872872" lon="11.3287352"><ele>232.0</ele><time>2026-04-11T10:00:59.135Z</time></trkpt><trkpt lat="43.9872683" lon="11.3285691"><ele>233.25</ele><time>2026-04-11T10:01:00.136Z</time></trkpt><trkpt lat="43.9872483" lon="11.3284013"><ele>234.5</ele><time>2026-04-11T10:01:01.136Z</time></trkpt><trkpt lat="43.98723" lon="11.3282337"><ele>235.75</ele><time>2026-04-11T10:01:02.136Z</time></trkpt><trkpt lat="43.9872112" lon="11.3280653"><ele>237.0</ele><time>2026-04-11T10:01:03.136Z</time></trkpt><trkpt lat="43.9871936" lon="11.3278955"><ele>238.25</ele><time>2026-04-11T10:01:04.136Z</time></trkpt><trkpt lat="43.9871772" lon="11.3277275"><ele>239.5</ele><time>2026-04-11T10:01:05.136Z</time></trkpt><trkpt lat="43.9871639" lon="11.3275699"><ele>240.75</ele><time>2026-04-11T10:01:06.136Z</time></trkpt><trkpt lat="43.9871507" lon="11.3274136"><ele>242.0</ele><time>2026-04-11T10:01:07.136Z</time></trkpt><trkpt lat="43.9871387" lon="11.3272623"><ele>244.2</ele><time>2026-04-11T10:01:08.136Z</time></trkpt><trkpt lat="43.9871319" lon="11.3271132"><ele>246.39999999999998</ele><time>2026-04-11T10:01:09.136Z</time></trkpt><trkpt lat="43.9871274" lon="11.3269647"><ele>248.60000000000002</ele><time>2026-04-11T10:01:10.136Z</time></trkpt><trkpt lat="43.9871179" lon="11.326817"><ele>250.8</ele><time>2026-04-11T10:01:11.136Z</time></trkpt><trkpt lat="43.9870903" lon="11.3266847"><ele>253.0</ele><time>2026-04-11T10:01:12.135Z</time></trkpt><trkpt lat="43.9870341" lon="11.3265831"><ele>252.99999999999997</ele><time>2026-04-11T10:01:13.135Z</time></trkpt><trkpt lat="43.9869601" lon="11.3265175"><ele>253.0</ele><time>2026-04-11T10:01:14.135Z</time></trkpt><trkpt lat="43.9868832" lon="11.3264928"><ele>253.0</ele><time>2026-04-11T10:01:15.136Z</time></trkpt><trkpt lat="43.9867964" lon="11.32649"><ele>253.0</ele><time>2026-04-11T10:01:16.136Z</time></trkpt><trkpt lat="43.9867265" lon="11.3264828"><ele>252.99999999999997</ele><time>2026-04-11T10:01:17.135Z</time></trkpt><trkpt lat="43.9866589" lon="11.3264602"><ele>253.0</ele><time>2026-04-11T10:01:18.135Z</time></trkpt><trkpt lat="43.9865926" lon="11.3264292"><ele>253.66666666666666</ele><time>2026-04-11T10:01:19.134Z</time></trkpt><trkpt lat="43.9865322" lon="11.3263832"><ele>254.33333333333331</ele><time>2026-04-11T10:01:20.136Z</time></trkpt><trkpt lat="43.9864889" lon="11.3262938"><ele>255.0</ele><time>2026-04-11T10:01:21.135Z</time></trkpt><trkpt lat="43.9864699" lon="11.3261773"><ele>255.66666666666669</ele><time>2026-04-11T10:01:22.136Z</time></trkpt><trkpt lat="43.9864578" lon="11.3260424"><ele>256.33333333333337</ele><time>2026-04-11T10:01:23.136Z</time></trkpt><trkpt lat="43.9864447" lon="11.3258935"><ele>257.0</ele><time>2026-04-11T10:01:24.135Z</time></trkpt><trkpt lat="43.9864384" lon="11.3257267"><ele>257.5</ele><time>2026-04-11T10:01:25.135Z</time></trkpt><trkpt lat="43.9864349" lon="11.3255539"><ele>258.0</ele><time>2026-04-11T10:01:26.135Z</time></trkpt><trkpt lat="43.9864264" lon="11.3253953"><ele>258.5</ele><time>2026-04-11T10:01:27.135Z</time></trkpt><trkpt lat="43.9864128" lon="11.3252263"><ele>259.0</ele><time>2026-04-11T10:01:28.135Z</time></trkpt><trkpt lat="43.9864023" lon="11.325056"><ele>259.0</ele><time>2026-04-11T10:01:29.136Z</time></trkpt><trkpt lat="43.9863875" lon="11.3248874"><ele>259.0</ele><time>2026-04-11T10:01:30.135Z</time></trkpt><trkpt lat="43.98637" lon="11.3247166"><ele>259.0</ele><time>2026-04-11T10:01:31.135Z</time></trkpt><trkpt lat="43.9863546" lon="11.3245444"><ele>259.0</ele><time>2026-04-11T10:01:32.136Z</time></trkpt><trkpt lat="43.9863436" lon="11.3243715"><ele>260.25</ele><time>2026-04-11T10:01:33.135Z</time></trkpt><trkpt lat="43.986336" lon="11.3241928"><ele>261.5</ele><time>2026-04-11T10:01:34.135Z</time></trkpt><trkpt lat="43.9863332" lon="11.3240076"><ele>262.75</ele><time>2026-04-11T10:01:35.135Z</time></trkpt><trkpt lat="43.9863245" lon="11.323824"><ele>264.0</ele><time>2026-04-11T10:01:36.136Z</time></trkpt><trkpt lat="43.9863198" lon="11.3236511"><ele>264.0</ele><time>2026-04-11T10:01:37.136Z</time></trkpt><trkpt lat="43.9863112" lon="11.3234805"><ele>264.0</ele><time>2026-04-11T10:01:38.135Z</time></trkpt><trkpt lat="43.9862987" lon="11.3233135"><ele>264.0</ele><time>2026-04-11T10:01:39.134Z</time></trkpt><trkpt lat="43.986286" lon="11.3231379"><ele>264.0</ele><time>2026-04-11T10:01:40.135Z</time></trkpt><trkpt lat="43.9862768" lon="11.3229739"><ele>264.0</ele><time>2026-04-11T10:01:41.135Z</time></trkpt><trkpt lat="43.9862719" lon="11.3228296"><ele>264.0</ele><time>2026-04-11T10:01:42.136Z</time></trkpt><trkpt lat="43.9862633" lon="11.3226975"><ele>264.0</ele><time>2026-04-11T10:01:43.136Z</time></trkpt><trkpt lat="43.9862582" lon="11.3225896"><ele>264.0</ele><time>2026-04-11T10:01:44.135Z</time></trkpt><trkpt lat="43.9862765" lon="11.3224456"><ele>264.0</ele><time>2026-04-11T10:01:46.136Z</time></trkpt><trkpt lat="43.986348" lon="11.3223915"><ele>264.0</ele><time>2026-04-11T10:01:48.136Z</time></trkpt><trkpt lat="43.9864754" lon="11.322408"><ele>264.0</ele><time>2026-04-11T10:01:50.136Z</time></trkpt><trkpt lat="43.9865636" lon="11.3223969"><ele>264.0</ele><time>2026-04-11T10:01:51.135Z</time></trkpt><trkpt lat="43.9866575" lon="11.3223721"><ele>264.0</ele><time>2026-04-11T10:01:52.135Z</time></trkpt><trkpt lat="43.9867578" lon="11.3223354"><ele>264.0</ele><time>2026-04-11T10:01:53.136Z</time></trkpt><trkpt lat="43.9868557" lon="11.3223037"><ele>264.0</ele><time>2026-04-11T10:01:54.136Z</time></trkpt><trkpt lat="43.9869394" lon="11.3222782"><ele>264.0</ele><time>2026-04-11T10:01:55.136Z</time></trkpt><trkpt lat="43.9870197" lon="11.3222582"><ele>264.0</ele><time>2026-04-11T10:01:56.136Z</time></trkpt><trkpt lat="43.987114" lon="11.3222334"><ele>264.0</ele><time>2026-04-11T10:01:57.135Z</time></trkpt><trkpt lat="43.9872218" lon="11.3222088"><ele>264.0</ele><time>2026-04-11T10:01:58.135Z</time></trkpt><trkpt lat="43.9873416" lon="11.3221842"><ele>264.0</ele><time>2026-04-11T10:01:59.135Z</time></trkpt><trkpt lat="43.9874618" lon="11.3221748"><ele>264.0</ele><time>2026-04-11T10:02:00.135Z</time></trkpt><trkpt lat="43.9875931" lon="11.3221791"><ele>264.0</ele><time>2026-04-11T10:02:01.135Z</time></trkpt><trkpt lat="43.9877339" lon="11.3221805"><ele>264.0</ele><time>2026-04-11T10:02:02.135Z</time></trkpt><trkpt lat="43.9878817" lon="11.3221653"><ele>262.3333333333333</ele><time>2026-04-11T10:02:03.135Z</time></trkpt><trkpt lat="43.9880386" lon="11.322147"><ele>260.66666666666663</ele><time>2026-04-11T10:02:04.136Z</time></trkpt><trkpt lat="43.9881864" lon="11.322133"><ele>259.0</ele><time>2026-04-11T10:02:05.136Z</time></trkpt><trkpt lat="43.9883438" lon="11.3221367"><ele>258.0</ele><time>2026-04-11T10:02:06.135Z</time></trkpt><trkpt lat="43.9885024" lon="11.3221623"><ele>257.0</ele><time>2026-04-11T10:02:07.135Z</time></trkpt><trkpt lat="43.9886597" lon="11.3221954"><ele>256.0</ele><time>2026-04-11T10:02:08.135Z</time></trkpt><trkpt lat="43.9888195" lon="11.3222469"><ele>258.3333333333333</ele><time>2026-04-11T10:02:09.135Z</time></trkpt><trkpt lat="43.9889817" lon="11.3223001"><ele>260.6666666666667</ele><time>2026-04-11T10:02:10.135Z</time></trkpt><trkpt lat="43.9891333" lon="11.3223464"><ele>263.0</ele><time>2026-04-11T10:02:11.136Z</time></trkpt><trkpt lat="43.9892887" lon="11.3223934"><ele>263.0</ele><time>2026-04-11T10:02:12.136Z</time></trkpt><trkpt lat="43.9894468" lon="11.3224382"><ele>263.0</ele><time>2026-04-11T10:02:13.135Z</time></trkpt><trkpt lat="43.9895979" lon="11.3224847"><ele>263.0</ele><time>2026-04-11T10:02:14.135Z</time></trkpt><trkpt lat="43.9897375" lon="11.3225301"><ele>263.0</ele><time>2026-04-11T10:02:15.135Z</time></trkpt><trkpt lat="43.9898662" lon="11.3225653"><ele>263.0</ele><time>2026-04-11T10:02:16.135Z</time></trkpt><trkpt lat="43.9899985" lon="11.3225849"><ele>263.0</ele><time>2026-04-11T10:02:17.136Z</time></trkpt><trkpt lat="43.9901243" lon="11.3225893"><ele>263.0</ele><time>2026-04-11T10:02:18.135Z</time></trkpt><trkpt lat="43.9902518" lon="11.3225728"><ele>262.0</ele><time>2026-04-11T10:02:19.135Z</time></trkpt><trkpt lat="43.9903909" lon="11.3225438"><ele>261.0</ele><time>2026-04-11T10:02:20.135Z</time></trkpt><trkpt lat="43.9905216" lon="11.3225243"><ele>260.0</ele><time>2026-04-11T10:02:21.135Z</time></trkpt><trkpt lat="43.9906439" lon="11.3225174"><ele>259.0</ele><time>2026-04-11T10:02:22.135Z</time></trkpt><trkpt lat="43.9907606" lon="11.3225192"><ele>258.75</ele><time>2026-04-11T10:02:23.135Z</time></trkpt><trkpt lat="43.9908707" lon="11.322523"><ele>258.5</ele><time>2026-04-11T10:02:24.134Z</time></trkpt><trkpt lat="43.9909824" lon="11.3225333"><ele>258.25</ele><time>2026-04-11T10:02:25.135Z</time></trkpt><trkpt lat="43.9910993" lon="11.3225474"><ele>258.0</ele><time>2026-04-11T10:02:26.135Z</time></trkpt><trkpt lat="43.9912187" lon="11.3225611"><ele>258.0</ele><time>2026-04-11T10:02:27.134Z</time></trkpt><trkpt lat="43.9913341" lon="11.3225783"><ele>258.0</ele><time>2026-04-11T10:02:28.134Z</time></trkpt><trkpt lat="43.9914571" lon="11.3225926"><ele>258.0</ele><time>2026-04-11T10:02:29.134Z</time></trkpt><trkpt lat="43.9915845" lon="11.3226048"><ele>258.0</ele><time>2026-04-11T10:02:30.135Z</time></trkpt><trkpt lat="43.9917059" lon="11.3226188"><ele>257.5</ele><time>2026-04-11T10:02:31.135Z</time></trkpt><trkpt lat="43.9918336" lon="11.3226406"><ele>257.0</ele><time>2026-04-11T10:02:32.135Z</time></trkpt><trkpt lat="43.991964" lon="11.3226626"><ele>256.5</ele><time>2026-04-11T10:02:33.134Z</time></trkpt><trkpt lat="43.9920986" lon="11.3226778"><ele>256.0</ele><time>2026-04-11T10:02:34.134Z</time></trkpt><trkpt lat="43.9922344" lon="11.3226925"><ele>256.0</ele><time>2026-04-11T10:02:35.134Z</time></trkpt><trkpt lat="43.9923733" lon="11.3227088"><ele>256.0</ele><time>2026-04-11T10:02:36.135Z</time></trkpt><trkpt lat="43.9925089" lon="11.3227132"><ele>256.0</ele><time>2026-04-11T10:02:37.135Z</time></trkpt><trkpt lat="43.9926468" lon="11.3227091"><ele>256.0</ele><time>2026-04-11T10:02:38.135Z</time></trkpt><trkpt lat="43.9927847" lon="11.3226978"><ele>255.75</ele><time>2026-04-11T10:02:39.135Z</time></trkpt><trkpt lat="43.9929225" lon="11.3226774"><ele>255.5</ele><time>2026-04-11T10:02:40.135Z</time></trkpt><trkpt lat="43.9930612" lon="11.3226549"><ele>255.25</ele><time>2026-04-11T10:02:41.135Z</time></trkpt><trkpt lat="43.9931907" lon="11.3226343"><ele>255.0</ele><time>2026-04-11T10:02:42.135Z</time></trkpt><trkpt lat="43.993318" lon="11.3226152"><ele>255.5</ele><time>2026-04-11T10:02:43.134Z</time></trkpt><trkpt lat="43.9934464" lon="11.3225925"><ele>256.0</ele><time>2026-04-11T10:02:44.134Z</time></trkpt><trkpt lat="43.9935634" lon="11.3225666"><ele>256.5</ele><time>2026-04-11T10:02:45.134Z</time></trkpt><trkpt lat="43.9936738" lon="11.3225398"><ele>257.0</ele><time>2026-04-11T10:02:46.135Z</time></trkpt><trkpt lat="43.9937762" lon="11.3225142"><ele>257.0</ele><time>2026-04-11T10:02:47.134Z</time></trkpt><trkpt lat="43.9938853" lon="11.3224922"><ele>257.0</ele><time>2026-04-11T10:02:48.135Z</time></trkpt><trkpt lat="43.9940042" lon="11.3224756"><ele>257.0</ele><time>2026-04-11T10:02:49.135Z</time></trkpt><trkpt lat="43.9941172" lon="11.3224674"><ele>257.0</ele><time>2026-04-11T10:02:50.135Z</time></trkpt><trkpt lat="43.9942263" lon="11.3224546"><ele>257.4</ele><time>2026-04-11T10:02:51.134Z</time></trkpt><trkpt lat="43.9943421" lon="11.3224416"><ele>257.79999999999995</ele><time>2026-04-11T10:02:52.135Z</time></trkpt><trkpt lat="43.9944487" lon="11.3224184"><ele>258.2</ele><time>2026-04-11T10:02:53.134Z</time></trkpt><trkpt lat="43.9945489" lon="11.3223873"><ele>258.59999999999997</ele><time>2026-04-11T10:02:54.133Z</time></trkpt><trkpt lat="43.9946408" lon="11.3223555"><ele>259.0</ele><time>2026-04-11T10:02:55.135Z</time></trkpt><trkpt lat="43.9947422" lon="11.3223242"><ele>259.0</ele><time>2026-04-11T10:02:56.134Z</time></trkpt><trkpt lat="43.9948533" lon="11.322291"><ele>259.0</ele><time>2026-04-11T10:02:57.135Z</time></trkpt><trkpt lat="43.9949727" lon="11.3222595"><ele>259.0</ele><time>2026-04-11T10:02:58.134Z</time></trkpt><trkpt lat="43.9950907" lon="11.3222157"><ele>259.0</ele><time>2026-04-11T10:02:59.134Z</time></trkpt><trkpt lat="43.9952116" lon="11.3221653"><ele>259.5</ele><time>2026-04-11T10:03:00.135Z</time></trkpt><trkpt lat="43.9953186" lon="11.3221273"><ele>260.0</ele><time>2026-04-11T10:03:01.134Z</time></trkpt><trkpt lat="43.9954278" lon="11.3220949"><ele>260.5</ele><time>2026-04-11T10:03:02.134Z</time></trkpt><trkpt lat="43.9955444" lon="11.322066"><ele>261.0</ele><time>2026-04-11T10:03:03.135Z</time></trkpt><trkpt lat="43.995668" lon="11.3220347"><ele>261.0</ele><time>2026-04-11T10:03:04.135Z</time></trkpt><trkpt lat="43.9957928" lon="11.3219841"><ele>261.0</ele><time>2026-04-11T10:03:05.135Z</time></trkpt><trkpt lat="43.995916" lon="11.3218967"><ele>261.0</ele><time>2026-04-11T10:03:06.135Z</time></trkpt><trkpt lat="43.9960379" lon="11.3217805"><ele>261.0</ele><time>2026-04-11T10:03:07.134Z</time></trkpt><trkpt lat="43.9961486" lon="11.3216821"><ele>262.0</ele><time>2026-04-11T10:03:08.133Z</time></trkpt><trkpt lat="43.9962668" lon="11.3215906"><ele>263.0</ele><time>2026-04-11T10:03:09.135Z</time></trkpt><trkpt lat="43.9963936" lon="11.3215119"><ele>264.0</ele><time>2026-04-11T10:03:10.135Z</time></trkpt><trkpt lat="43.9965147" lon="11.3214562"><ele>265.0</ele><time>2026-04-11T10:03:11.133Z</time></trkpt><trkpt lat="43.9966362" lon="11.3214105"><ele>267.25</ele><time>2026-04-11T10:03:12.134Z</time></trkpt><trkpt lat="43.9967618" lon="11.321379"><ele>269.5</ele><time>2026-04-11T10:03:13.134Z</time></trkpt><trkpt lat="43.9968746" lon="11.3213552"><ele>271.75</ele><time>2026-04-11T10:03:14.135Z</time></trkpt><trkpt lat="43.9969877" lon="11.3213109"><ele>274.0</ele><time>2026-04-11T10:03:15.134Z</time></trkpt><trkpt lat="43.9971069" lon="11.3212595"><ele>274.0</ele><time>2026-04-11T10:03:16.134Z</time></trkpt><trkpt lat="43.9972099" lon="11.3211948"><ele>274.0</ele><time>2026-04-11T10:03:17.135Z</time></trkpt><trkpt lat="43.9973118" lon="11.3211255"><ele>274.0</ele><time>2026-04-11T10:03:18.134Z</time></trkpt><trkpt lat="43.9974194" lon="11.3210639"><ele>274.0</ele><time>2026-04-11T10:03:19.134Z</time></trkpt><trkpt lat="43.9975262" lon="11.3210024"><ele>274.25</ele><time>2026-04-11T10:03:20.134Z</time></trkpt><trkpt lat="43.9976355" lon="11.3209396"><ele>274.5</ele><time>2026-04-11T10:03:21.135Z</time></trkpt><trkpt lat="43.9977589" lon="11.3208844"><ele>274.75</ele><time>2026-04-11T10:03:22.135Z</time></trkpt><trkpt lat="43.9978837" lon="11.3208216"><ele>275.0</ele><time>2026-04-11T10:03:23.135Z</time></trkpt><trkpt lat="43.9980126" lon="11.3207665"><ele>275.0</ele><time>2026-04-11T10:03:24.135Z</time></trkpt><trkpt lat="43.9981522" lon="11.3207146"><ele>275.0</ele><time>2026-04-11T10:03:25.135Z</time></trkpt><trkpt lat="43.9982849" lon="11.3206713"><ele>275.0</ele><time>2026-04-11T10:03:26.133Z</time></trkpt><trkpt lat="43.9984151" lon="11.3206389"><ele>275.0</ele><time>2026-04-11T10:03:27.135Z</time></trkpt><trkpt lat="43.9985434" lon="11.3206082"><ele>275.4</ele><time>2026-04-11T10:03:28.135Z</time></trkpt><trkpt lat="43.9986668" lon="11.3205769"><ele>275.8</ele><time>2026-04-11T10:03:29.135Z</time></trkpt><trkpt lat="43.9987756" lon="11.320557"><ele>276.2</ele><time>2026-04-11T10:03:30.135Z</time></trkpt><trkpt lat="43.9988721" lon="11.3205528"><ele>276.6</ele><time>2026-04-11T10:03:31.135Z</time></trkpt><trkpt lat="43.9989553" lon="11.3205453"><ele>277.0</ele><time>2026-04-11T10:03:32.134Z</time></trkpt><trkpt lat="43.999041" lon="11.3205379"><ele>277.4</ele><time>2026-04-11T10:03:33.135Z</time></trkpt><trkpt lat="43.999124" lon="11.3205258"><ele>277.79999999999995</ele><time>2026-04-11T10:03:34.135Z</time></trkpt><trkpt lat="43.9992185" lon="11.3205146"><ele>278.2</ele><time>2026-04-11T10:03:35.134Z</time></trkpt><trkpt lat="43.999314" lon="11.320497"><ele>278.59999999999997</ele><time>2026-04-11T10:03:36.135Z</time></trkpt><trkpt lat="43.9994036" lon="11.3204765"><ele>279.0</ele><time>2026-04-11T10:03:37.134Z</time></trkpt><trkpt lat="43.9995009" lon="11.3204457"><ele>279.4</ele><time>2026-04-11T10:03:38.134Z</time></trkpt><trkpt lat="43.9996052" lon="11.3203961"><ele>279.79999999999995</ele><time>2026-04-11T10:03:39.135Z</time></trkpt><trkpt lat="43.999714" lon="11.3203342"><ele>280.20000000000005</ele><time>2026-04-11T10:03:40.135Z</time></trkpt><trkpt lat="43.9998198" lon="11.3202807"><ele>280.6</ele><time>2026-04-11T10:03:41.134Z</time></trkpt><trkpt lat="43.9999207" lon="11.3202477"><ele>281.0</ele><time>2026-04-11T10:03:42.134Z</time></trkpt><trkpt lat="44.0000104" lon="11.3202231"><ele>281.0</ele><time>2026-04-11T10:03:43.135Z</time></trkpt><trkpt lat="44.0001029" lon="11.3201984"><ele>281.0</ele><time>2026-04-11T10:03:44.135Z</time></trkpt><trkpt lat="44.0001875" lon="11.3201706"><ele>281.0</ele><time>2026-04-11T10:03:45.134Z</time></trkpt><trkpt lat="44.0002946" lon="11.3201584"><ele>281.0</ele><time>2026-04-11T10:03:46.134Z</time></trkpt><trkpt lat="44.0004022" lon="11.3201531"><ele>281.0</ele><time>2026-04-11T10:03:47.135Z</time></trkpt><trkpt lat="44.0005141" lon="11.3201557"><ele>281.0</ele><time>2026-04-11T10:03:48.135Z</time></trkpt><trkpt lat="44.0006243" lon="11.320149"><ele>281.0</ele><time>2026-04-11T10:03:49.134Z</time></trkpt><trkpt lat="44.0007436" lon="11.3201416"><ele>281.0</ele><time>2026-04-11T10:03:50.135Z</time></trkpt><trkpt lat="44.0008591" lon="11.320107"><ele>281.0</ele><time>2026-04-11T10:03:51.135Z</time></trkpt><trkpt lat="44.0009695" lon="11.3200446"><ele>281.5</ele><time>2026-04-11T10:03:52.135Z</time></trkpt><trkpt lat="44.0010837" lon="11.3199597"><ele>282.0</ele><time>2026-04-11T10:03:53.134Z</time></trkpt><trkpt lat="44.0011983" lon="11.319868"><ele>282.5</ele><time>2026-04-11T10:03:54.135Z</time></trkpt><trkpt lat="44.0013098" lon="11.3197774"><ele>283.0</ele><time>2026-04-11T10:03:55.135Z</time></trkpt><trkpt lat="44.0014235" lon="11.3196912"><ele>284.25</ele><time>2026-04-11T10:03:56.134Z</time></trkpt><trkpt lat="44.0015324" lon="11.3195974"><ele>285.5</ele><time>2026-04-11T10:03:57.134Z</time></trkpt><trkpt lat="44.001629" lon="11.3194951"><ele>286.75</ele><time>2026-04-11T10:03:58.134Z</time></trkpt><trkpt lat="44.0017157" lon="11.3193755"><ele>288.0</ele><time>2026-04-11T10:03:59.135Z</time></trkpt><trkpt lat="44.0017968" lon="11.3192459"><ele>289.0</ele><time>2026-04-11T10:04:00.135Z</time></trkpt><trkpt lat="44.001868" lon="11.3191117"><ele>290.0</ele><time>2026-04-11T10:04:01.135Z</time></trkpt><trkpt lat="44.0019303" lon="11.3189784"><ele>291.0</ele><time>2026-04-11T10:04:02.134Z</time></trkpt><trkpt lat="44.0020014" lon="11.3188407"><ele>292.0</ele><time>2026-04-11T10:04:03.133Z</time></trkpt><trkpt lat="44.0020916" lon="11.3187185"><ele>293.0</ele><time>2026-04-11T10:04:04.134Z</time></trkpt><trkpt lat="44.0021862" lon="11.3186238"><ele>294.0</ele><time>2026-04-11T10:04:05.134Z</time></trkpt><trkpt lat="44.0022854" lon="11.3185642"><ele>295.0</ele><time>2026-04-11T10:04:06.135Z</time></trkpt><trkpt lat="44.0023981" lon="11.3185431"><ele>296.0</ele><time>2026-04-11T10:04:07.135Z</time></trkpt><trkpt lat="44.0025122" lon="11.3185353"><ele>296.0</ele><time>2026-04-11T10:04:08.135Z</time></trkpt><trkpt lat="44.0026138" lon="11.3185258"><ele>296.0</ele><time>2026-04-11T10:04:09.135Z</time></trkpt><trkpt lat="44.0027179" lon="11.3185059"><ele>296.0</ele><time>2026-04-11T10:04:10.135Z</time></trkpt><trkpt lat="44.0028275" lon="11.3184776"><ele>296.0</ele><time>2026-04-11T10:04:11.135Z</time></trkpt><trkpt lat="44.0029372" lon="11.3184525"><ele>296.0</ele><time>2026-04-11T10:04:12.134Z</time></trkpt><trkpt lat="44.0030354" lon="11.3184297"><ele>296.0</ele><time>2026-04-11T10:04:13.134Z</time></trkpt><trkpt lat="44.0031391" lon="11.3184032"><ele>296.0</ele><time>2026-04-11T10:04:14.135Z</time></trkpt><trkpt lat="44.0032454" lon="11.3183823"><ele>296.0</ele><time>2026-04-11T10:04:15.135Z</time></trkpt><trkpt lat="44.0033442" lon="11.3183599"><ele>296.0</ele><time>2026-04-11T10:04:16.135Z</time></trkpt><trkpt lat="44.0034464" lon="11.3183254"><ele>296.0</ele><time>2026-04-11T10:04:17.135Z</time></trkpt><trkpt lat="44.0035504" lon="11.3182834"><ele>296.0</ele><time>2026-04-11T10:04:18.134Z</time></trkpt><trkpt lat="44.0036509" lon="11.3182419"><ele>296.0</ele><time>2026-04-11T10:04:19.134Z</time></trkpt><trkpt lat="44.0037414" lon="11.3182128"><ele>296.0</ele><time>2026-04-11T10:04:20.135Z</time></trkpt><trkpt lat="44.0038374" lon="11.3181873"><ele>296.0</ele><time>2026-04-11T10:04:21.135Z</time></trkpt><trkpt lat="44.003939" lon="11.3181805"><ele>296.0</ele><time>2026-04-11T10:04:22.135Z</time></trkpt><trkpt lat="44.0040484" lon="11.3181843"><ele>297.0</ele><time>2026-04-11T10:04:23.135Z</time></trkpt><trkpt lat="44.0041637" lon="11.3181962"><ele>298.0</ele><time>2026-04-11T10:04:24.133Z</time></trkpt><trkpt lat="44.0042838" lon="11.3182107"><ele>299.0</ele><time>2026-04-11T10:04:25.134Z</time></trkpt><trkpt lat="44.0044092" lon="11.3182226"><ele>300.0</ele><time>2026-04-11T10:04:26.135Z</time></trkpt><trkpt lat="44.0045322" lon="11.3182393"><ele>300.0</ele><time>2026-04-11T10:04:27.135Z</time></trkpt><trkpt lat="44.0046528" lon="11.318256"><ele>300.0</ele><time>2026-04-11T10:04:28.135Z</time></trkpt><trkpt lat="44.0047762" lon="11.3182756"><ele>300.0</ele><time>2026-04-11T10:04:29.134Z</time></trkpt><trkpt lat="44.0049022" lon="11.3182912"><ele>300.0</ele><time>2026-04-11T10:04:30.133Z</time></trkpt><trkpt lat="44.0050267" lon="11.3183016"><ele>301.0</ele><time>2026-04-11T10:04:31.134Z</time></trkpt><trkpt lat="44.0051443" lon="11.3182995"><ele>302.0</ele><time>2026-04-11T10:04:32.135Z</time></trkpt><trkpt lat="44.0052563" lon="11.3182759"><ele>303.0</ele><time>2026-04-11T10:04:33.135Z</time></trkpt><trkpt lat="44.0053577" lon="11.3182156"><ele>304.0</ele><time>2026-04-11T10:04:34.135Z</time></trkpt><trkpt lat="44.0054539" lon="11.3181208"><ele>303.25</ele><time>2026-04-11T10:04:35.135Z</time></trkpt><trkpt lat="44.0055437" lon="11.3180092"><ele>302.5</ele><time>2026-04-11T10:04:36.134Z</time></trkpt><trkpt lat="44.0056214" lon="11.3179055"><ele>301.75</ele><time>2026-04-11T10:04:37.135Z</time></trkpt><trkpt lat="44.0057059" lon="11.3178059"><ele>301.0</ele><time>2026-04-11T10:04:38.134Z</time></trkpt><trkpt lat="44.0057998" lon="11.3177182"><ele>303.5</ele><time>2026-04-11T10:04:39.135Z</time></trkpt><trkpt lat="44.0059029" lon="11.3176345"><ele>306.0</ele><time>2026-04-11T10:04:40.134Z</time></trkpt><trkpt lat="44.0060149" lon="11.3175531"><ele>308.5</ele><time>2026-04-11T10:04:41.135Z</time></trkpt><trkpt lat="44.006122" lon="11.3174844"><ele>311.0</ele><time>2026-04-11T10:04:42.135Z</time></trkpt><trkpt lat="44.0062181" lon="11.3174287"><ele>311.0</ele><time>2026-04-11T10:04:43.135Z</time></trkpt><trkpt lat="44.0063168" lon="11.3173914"><ele>311.0</ele><time>2026-04-11T10:04:44.135Z</time></trkpt><trkpt lat="44.0064257" lon="11.3173722"><ele>311.0</ele><time>2026-04-11T10:04:45.134Z</time></trkpt><trkpt lat="44.0065385" lon="11.3173772"><ele>311.0</ele><time>2026-04-11T10:04:46.134Z</time></trkpt><trkpt lat="44.0066535" lon="11.3174131"><ele>311.0</ele><time>2026-04-11T10:04:47.135Z</time></trkpt><trkpt lat="44.0067602" lon="11.3174597"><ele>311.8</ele><time>2026-04-11T10:04:48.134Z</time></trkpt><trkpt lat="44.006845" lon="11.3175112"><ele>312.6</ele><time>2026-04-11T10:04:49.135Z</time></trkpt><trkpt lat="44.0069199" lon="11.3175707"><ele>313.4</ele><time>2026-04-11T10:04:50.134Z</time></trkpt><trkpt lat="44.0069972" lon="11.3176584"><ele>314.2</ele><time>2026-04-11T10:04:51.134Z</time></trkpt><trkpt lat="44.0070732" lon="11.3177572"><ele>315.0</ele><time>2026-04-11T10:04:52.135Z</time></trkpt><trkpt lat="44.0071503" lon="11.3178633"><ele>315.0</ele><time>2026-04-11T10:04:53.135Z</time></trkpt><trkpt lat="44.0072327" lon="11.3179837"><ele>315.0</ele><time>2026-04-11T10:04:54.135Z</time></trkpt><trkpt lat="44.0073153" lon="11.3181083"><ele>315.0</ele><time>2026-04-11T10:04:55.135Z</time></trkpt><trkpt lat="44.0073905" lon="11.3182308"><ele>315.0</ele><time>2026-04-11T10:04:56.134Z</time></trkpt><trkpt lat="44.0074594" lon="11.3183412"><ele>315.0</ele><time>2026-04-11T10:04:57.134Z</time></trkpt><trkpt lat="44.0075263" lon="11.3184449"><ele>315.0</ele><time>2026-04-11T10:04:58.135Z</time></trkpt><trkpt lat="44.0075973" lon="11.3185536"><ele>315.0</ele><time>2026-04-11T10:04:59.134Z</time></trkpt><trkpt lat="44.0076714" lon="11.3186636"><ele>315.0</ele><time>2026-04-11T10:05:00.134Z</time></trkpt><trkpt lat="44.0077544" lon="11.318759"><ele>315.0</ele><time>2026-04-11T10:05:01.134Z</time></trkpt><trkpt lat="44.0078382" lon="11.3188411"><ele>315.0</ele><time>2026-04-11T10:05:02.134Z</time></trkpt><trkpt lat="44.0079201" lon="11.3189225"><ele>315.0</ele><time>2026-04-11T10:05:03.134Z</time></trkpt><trkpt lat="44.0079945" lon="11.3189956"><ele>315.0</ele><time>2026-04-11T10:05:04.134Z</time></trkpt><trkpt lat="44.0080761" lon="11.3190688"><ele>315.0</ele><time>2026-04-11T10:05:05.134Z</time></trkpt><trkpt lat="44.0081602" lon="11.3191378"><ele>315.0</ele><time>2026-04-11T10:05:06.135Z</time></trkpt><trkpt lat="44.0082423" lon="11.3192083"><ele>315.0</ele><time>2026-04-11T10:05:07.135Z</time></trkpt><trkpt lat="44.0083157" lon="11.3192765"><ele>315.0</ele><time>2026-04-11T10:05:08.134Z</time></trkpt><trkpt lat="44.0083943" lon="11.3193367"><ele>315.0</ele><time>2026-04-11T10:05:09.135Z</time></trkpt><trkpt lat="44.0084715" lon="11.3193986"><ele>315.0</ele><time>2026-04-11T10:05:10.135Z</time></trkpt><trkpt lat="44.0085416" lon="11.3194644"><ele>315.0</ele><time>2026-04-11T10:05:11.134Z</time></trkpt><trkpt lat="44.0086167" lon="11.3195261"><ele>315.0</ele><time>2026-04-11T10:05:12.134Z</time></trkpt><trkpt lat="44.0086899" lon="11.319588"><ele>315.0</ele><time>2026-04-11T10:05:13.135Z</time></trkpt><trkpt lat="44.0087641" lon="11.3196541"><ele>315.0</ele><time>2026-04-11T10:05:14.135Z</time></trkpt><trkpt lat="44.0088402" lon="11.3197215"><ele>315.0</ele><time>2026-04-11T10:05:15.135Z</time></trkpt><trkpt lat="44.0089202" lon="11.3197882"><ele>315.0</ele><time>2026-04-11T10:05:16.134Z</time></trkpt><trkpt lat="44.0090023" lon="11.3198588"><ele>315.0</ele><time>2026-04-11T10:05:17.135Z</time></trkpt><trkpt lat="44.0090914" lon="11.3199361"><ele>315.4</ele><time>2026-04-11T10:05:18.135Z</time></trkpt><trkpt lat="44.0091855" lon="11.3200161"><ele>315.8</ele><time>2026-04-11T10:05:19.134Z</time></trkpt><trkpt lat="44.0092847" lon="11.3200954"><ele>316.2</ele><time>2026-04-11T10:05:20.135Z</time></trkpt><trkpt lat="44.0093851" lon="11.3201703"><ele>316.6</ele><time>2026-04-11T10:05:21.135Z</time></trkpt><trkpt lat="44.0094741" lon="11.3202377"><ele>317.0</ele><time>2026-04-11T10:05:22.133Z</time></trkpt><trkpt lat="44.0095678" lon="11.3203033"><ele>317.0</ele><time>2026-04-11T10:05:23.135Z</time></trkpt><trkpt lat="44.0096601" lon="11.3203698"><ele>317.0</ele><time>2026-04-11T10:05:24.134Z</time></trkpt><trkpt lat="44.0097541" lon="11.320437"><ele>317.0</ele><time>2026-04-11T10:05:25.135Z</time></trkpt><trkpt lat="44.0098505" lon="11.3205076"><ele>317.0</ele><time>2026-04-11T10:05:26.135Z</time></trkpt><trkpt lat="44.0099472" lon="11.3205869"><ele>317.0</ele><time>2026-04-11T10:05:27.135Z</time></trkpt><trkpt lat="44.0100559" lon="11.3206543"><ele>318.4</ele><time>2026-04-11T10:05:28.133Z</time></trkpt><trkpt lat="44.0101572" lon="11.3207222"><ele>319.79999999999995</ele><time>2026-04-11T10:05:29.133Z</time></trkpt><trkpt lat="44.0102541" lon="11.3207987"><ele>321.2</ele><time>2026-04-11T10:05:30.134Z</time></trkpt><trkpt lat="44.0103557" lon="11.3208662"><ele>322.59999999999997</ele><time>2026-04-11T10:05:31.134Z</time></trkpt><trkpt lat="44.0104562" lon="11.3209309"><ele>324.0</ele><time>2026-04-11T10:05:32.135Z</time></trkpt><trkpt lat="44.0105534" lon="11.3209936"><ele>324.0</ele><time>2026-04-11T10:05:33.134Z</time></trkpt><trkpt lat="44.0106574" lon="11.321036"><ele>324.0</ele><time>2026-04-11T10:05:34.135Z</time></trkpt><trkpt lat="44.0107667" lon="11.3210702"><ele>324.0</ele><time>2026-04-11T10:05:35.135Z</time></trkpt><trkpt lat="44.0108805" lon="11.3210982"><ele>324.0</ele><time>2026-04-11T10:05:36.134Z</time></trkpt><trkpt lat="44.0109976" lon="11.3211202"><ele>324.0</ele><time>2026-04-11T10:05:37.134Z</time></trkpt><trkpt lat="44.0111173" lon="11.3211355"><ele>324.0</ele><time>2026-04-11T10:05:38.135Z</time></trkpt><trkpt lat="44.011226" lon="11.3211423"><ele>324.0</ele><time>2026-04-11T10:05:39.135Z</time></trkpt><trkpt lat="44.0113348" lon="11.3211498"><ele>324.0</ele><time>2026-04-11T10:05:40.135Z</time></trkpt><trkpt lat="44.0114362" lon="11.3211654"><ele>324.0</ele><time>2026-04-11T10:05:41.135Z</time></trkpt><trkpt lat="44.0115371" lon="11.3211716"><ele>324.0</ele><time>2026-04-11T10:05:42.135Z</time></trkpt><trkpt lat="44.0116375" lon="11.3211642"><ele>324.0</ele><time>2026-04-11T10:05:43.135Z</time></trkpt><trkpt lat="44.0117401" lon="11.3211554"><ele>324.0</ele><time>2026-04-11T10:05:44.134Z</time></trkpt><trkpt lat="44.0118419" lon="11.321143"><ele>324.0</ele><time>2026-04-11T10:05:45.134Z</time></trkpt><trkpt lat="44.011943" lon="11.3211313"><ele>324.0</ele><time>2026-04-11T10:05:46.134Z</time></trkpt><trkpt lat="44.0120453" lon="11.3211351"><ele>325.0</ele><time>2026-04-11T10:05:47.135Z</time></trkpt><trkpt lat="44.0121303" lon="11.3211737"><ele>326.0</ele><time>2026-04-11T10:05:48.135Z</time></trkpt><trkpt lat="44.0122106" lon="11.3212403"><ele>327.0</ele><time>2026-04-11T10:05:49.135Z</time></trkpt><trkpt lat="44.0122907" lon="11.3213163"><ele>328.0</ele><time>2026-04-11T10:05:50.135Z</time></trkpt><trkpt lat="44.0123766" lon="11.3213956"><ele>329.0</ele><time>2026-04-11T10:05:51.134Z</time></trkpt><trkpt lat="44.012465" lon="11.3214822"><ele>330.4</ele><time>2026-04-11T10:05:52.134Z</time></trkpt><trkpt lat="44.0125497" lon="11.3215578"><ele>331.79999999999995</ele><time>2026-04-11T10:05:53.135Z</time></trkpt><trkpt lat="44.0126306" lon="11.321628"><ele>333.20000000000005</ele><time>2026-04-11T10:05:54.135Z</time></trkpt><trkpt lat="44.0127088" lon="11.3216951"><ele>334.6</ele><time>2026-04-11T10:05:55.135Z</time></trkpt><trkpt lat="44.0127875" lon="11.321771"><ele>336.0</ele><time>2026-04-11T10:05:56.135Z</time></trkpt><trkpt lat="44.0128594" lon="11.321848"><ele>336.0</ele><time>2026-04-11T10:05:57.135Z</time></trkpt><trkpt lat="44.0129203" lon="11.3219168"><ele>336.0</ele><time>2026-04-11T10:05:58.134Z</time></trkpt><trkpt lat="44.0129745" lon="11.3219755"><ele>336.0</ele><time>2026-04-11T10:05:59.134Z</time></trkpt><trkpt lat="44.0130507" lon="11.3220502"><ele>336.0</ele><time>2026-04-11T10:06:01.135Z</time></trkpt><trkpt lat="44.0131077" lon="11.3221166"><ele>336.0</ele><time>2026-04-11T10:06:20.134Z</time></trkpt><trkpt lat="44.0131483" lon="11.3221931"><ele>336.0</ele><time>2026-04-11T10:06:22.135Z</time></trkpt><trkpt lat="44.0131389" lon="11.322299"><ele>336.1666666666667</ele><time>2026-04-11T10:06:24.133Z</time></trkpt><trkpt lat="44.0131013" lon="11.3223984"><ele>336.3333333333333</ele><time>2026-04-11T10:06:26.134Z</time></trkpt><trkpt lat="44.0130681" lon="11.3224763"><ele>336.5</ele><time>2026-04-11T10:06:28.134Z</time></trkpt><trkpt lat="44.0130178" lon="11.3225692"><ele>336.66666666666663</ele><time>2026-04-11T10:06:31.134Z</time></trkpt><trkpt lat="44.0129601" lon="11.3226692"><ele>336.8333333333333</ele><time>2026-04-11T10:06:34.134Z</time></trkpt><trkpt lat="44.0129137" lon="11.3227366"><ele>337.0</ele><time>2026-04-11T10:06:36.135Z</time></trkpt><trkpt lat="44.0128577" lon="11.3228063"><ele>337.0</ele><time>2026-04-11T10:06:38.134Z</time></trkpt><trkpt lat="44.0127853" lon="11.3228754"><ele>337.0</ele><time>2026-04-11T10:06:40.134Z</time></trkpt><trkpt lat="44.0127023" lon="11.3229228"><ele>337.0</ele><time>2026-04-11T10:06:42.134Z</time></trkpt><trkpt lat="44.0125989" lon="11.3229592"><ele>337.0</ele><time>2026-04-11T10:06:44.134Z</time></trkpt><trkpt lat="44.0124823" lon="11.3229843"><ele>337.0</ele><time>2026-04-11T10:06:46.135Z</time></trkpt><trkpt lat="44.0123761" lon="11.3230189"><ele>336.5</ele><time>2026-04-11T10:06:48.134Z</time></trkpt><trkpt lat="44.0122641" lon="11.3230698"><ele>336.0</ele><time>2026-04-11T10:06:50.134Z</time></trkpt><trkpt lat="44.012179" lon="11.3231624"><ele>335.5</ele><time>2026-04-11T10:06:52.134Z</time></trkpt><trkpt lat="44.0121384" lon="11.3232998"><ele>335.0</ele><time>2026-04-11T10:06:54.135Z</time></trkpt><trkpt lat="44.0121045" lon="11.3234629"><ele>335.0</ele><time>2026-04-11T10:06:56.135Z</time></trkpt><trkpt lat="44.0120846" lon="11.323555"><ele>335.0</ele><time>2026-04-11T10:06:57.135Z</time></trkpt><trkpt lat="44.0120638" lon="11.3236526"><ele>335.0</ele><time>2026-04-11T10:06:58.134Z</time></trkpt><trkpt lat="44.0120374" lon="11.3237636"><ele>335.0</ele><time>2026-04-11T10:06:59.134Z</time></trkpt><trkpt lat="44.0120082" lon="11.3238811"><ele>335.0</ele><time>2026-04-11T10:07:00.135Z</time></trkpt><trkpt lat="44.0119818" lon="11.323995"><ele>335.0</ele><time>2026-04-11T10:07:01.133Z</time></trkpt><trkpt lat="44.0119559" lon="11.3241007"><ele>333.83333333333337</ele><time>2026-04-11T10:07:02.134Z</time></trkpt><trkpt lat="44.0119306" lon="11.3242022"><ele>332.6666666666667</ele><time>2026-04-11T10:07:03.134Z</time></trkpt><trkpt lat="44.0119024" lon="11.3243127"><ele>331.5</ele><time>2026-04-11T10:07:04.134Z</time></trkpt><trkpt lat="44.0118776" lon="11.3244092"><ele>330.3333333333333</ele><time>2026-04-11T10:07:05.134Z</time></trkpt><trkpt lat="44.0118465" lon="11.3245168"><ele>329.16666666666663</ele><time>2026-04-11T10:07:06.135Z</time></trkpt><trkpt lat="44.0118187" lon="11.3246245"><ele>328.0</ele><time>2026-04-11T10:07:07.135Z</time></trkpt><trkpt lat="44.0117902" lon="11.3247385"><ele>327.16666666666663</ele><time>2026-04-11T10:07:08.135Z</time></trkpt><trkpt lat="44.0117604" lon="11.3248618"><ele>326.3333333333333</ele><time>2026-04-11T10:07:09.134Z</time></trkpt><trkpt lat="44.0117341" lon="11.3249777"><ele>325.5</ele><time>2026-04-11T10:07:10.134Z</time></trkpt><trkpt lat="44.0117032" lon="11.3250792"><ele>324.6666666666667</ele><time>2026-04-11T10:07:11.135Z</time></trkpt><trkpt lat="44.0116645" lon="11.3251767"><ele>323.83333333333337</ele><time>2026-04-11T10:07:12.134Z</time></trkpt><trkpt lat="44.0116211" lon="11.3252436"><ele>323.0</ele><time>2026-04-11T10:07:13.134Z</time></trkpt><trkpt lat="44.0115606" lon="11.3253054"><ele>322.6666666666667</ele><time>2026-04-11T10:07:14.134Z</time></trkpt><trkpt lat="44.0114957" lon="11.3253517"><ele>322.33333333333337</ele><time>2026-04-11T10:07:15.135Z</time></trkpt><trkpt lat="44.0114195" lon="11.3253817"><ele>322.0</ele><time>2026-04-11T10:07:16.134Z</time></trkpt><trkpt lat="44.0113323" lon="11.3254064"><ele>321.6666666666667</ele><time>2026-04-11T10:07:17.133Z</time></trkpt><trkpt lat="44.0112454" lon="11.3254259"><ele>321.3333333333333</ele><time>2026-04-11T10:07:18.134Z</time></trkpt><trkpt lat="44.0111562" lon="11.3254456"><ele>321.0</ele><time>2026-04-11T10:07:19.134Z</time></trkpt><trkpt lat="44.011066" lon="11.3254671"><ele>321.0</ele><time>2026-04-11T10:07:20.135Z</time></trkpt><trkpt lat="44.010974" lon="11.3254902"><ele>321.0</ele><time>2026-04-11T10:07:21.135Z</time></trkpt><trkpt lat="44.0108766" lon="11.3255085"><ele>321.0</ele><time>2026-04-11T10:07:22.134Z</time></trkpt><trkpt lat="44.0107802" lon="11.325528"><ele>321.0</ele><time>2026-04-11T10:07:23.134Z</time></trkpt><trkpt lat="44.0106847" lon="11.325546"><ele>321.0</ele><time>2026-04-11T10:07:24.135Z</time></trkpt><trkpt lat="44.0105933" lon="11.3255641"><ele>321.20000000000005</ele><time>2026-04-11T10:07:25.134Z</time></trkpt><trkpt lat="44.0105024" lon="11.3255841"><ele>321.40000000000003</ele><time>2026-04-11T10:07:26.133Z</time></trkpt><trkpt lat="44.0104257" lon="11.3256021"><ele>321.6</ele><time>2026-04-11T10:07:27.134Z</time></trkpt><trkpt lat="44.0103535" lon="11.3256273"><ele>321.8</ele><time>2026-04-11T10:07:28.134Z</time></trkpt><trkpt lat="44.0102674" lon="11.3257303"><ele>322.0</ele><time>2026-04-11T10:07:30.133Z</time></trkpt><trkpt lat="44.0102649" lon="11.3259094"><ele>322.0</ele><time>2026-04-11T10:07:32.134Z</time></trkpt><trkpt lat="44.0102845" lon="11.3260181"><ele>322.0</ele><time>2026-04-11T10:07:33.134Z</time></trkpt><trkpt lat="44.0103054" lon="11.3261317"><ele>322.0</ele><time>2026-04-11T10:07:34.134Z</time></trkpt><trkpt lat="44.0103201" lon="11.3262409"><ele>322.0</ele><time>2026-04-11T10:07:35.134Z</time></trkpt><trkpt lat="44.0103394" lon="11.3263679"><ele>322.0</ele><time>2026-04-11T10:07:36.134Z</time></trkpt><trkpt lat="44.0103601" lon="11.3264944"><ele>322.0</ele><time>2026-04-11T10:07:37.133Z</time></trkpt><trkpt lat="44.0103784" lon="11.3266129"><ele>321.6</ele><time>2026-04-11T10:07:38.133Z</time></trkpt><trkpt lat="44.010402" lon="11.3267324"><ele>321.20000000000005</ele><time>2026-04-11T10:07:39.133Z</time></trkpt><trkpt lat="44.0104265" lon="11.3268466"><ele>320.8</ele><time>2026-04-11T10:07:40.133Z</time></trkpt><trkpt lat="44.0104583" lon="11.3269653"><ele>320.4</ele><time>2026-04-11T10:07:41.134Z</time></trkpt><trkpt lat="44.010494" lon="11.3270955"><ele>320.0</ele><time>2026-04-11T10:07:42.133Z</time></trkpt><trkpt lat="44.0105171" lon="11.3272127"><ele>319.6666666666667</ele><time>2026-04-11T10:07:43.134Z</time></trkpt><trkpt lat="44.0105374" lon="11.3273257"><ele>319.33333333333337</ele><time>2026-04-11T10:07:44.134Z</time></trkpt><trkpt lat="44.0105468" lon="11.3274268"><ele>319.0</ele><time>2026-04-11T10:07:45.134Z</time></trkpt><trkpt lat="44.0105075" lon="11.3275989"><ele>318.6666666666667</ele><time>2026-04-11T10:07:47.134Z</time></trkpt><trkpt lat="44.0104617" lon="11.3276729"><ele>318.3333333333333</ele><time>2026-04-11T10:07:48.133Z</time></trkpt><trkpt lat="44.0104076" lon="11.3277341"><ele>318.0</ele><time>2026-04-11T10:07:49.134Z</time></trkpt><trkpt lat="44.0103514" lon="11.3277818"><ele>318.0</ele><time>2026-04-11T10:07:50.133Z</time></trkpt><trkpt lat="44.0102427" lon="11.3277946"><ele>318.0</ele><time>2026-04-11T10:07:52.134Z</time></trkpt><trkpt lat="44.0101644" lon="11.3277637"><ele>318.0</ele><time>2026-04-11T10:07:53.134Z</time></trkpt><trkpt lat="44.0100869" lon="11.3277481"><ele>318.0</ele><time>2026-04-11T10:07:54.134Z</time></trkpt><trkpt lat="44.0100136" lon="11.3277615"><ele>318.0</ele><time>2026-04-11T10:07:55.133Z</time></trkpt><trkpt lat="44.0099349" lon="11.3277963"><ele>318.0</ele><time>2026-04-11T10:07:56.133Z</time></trkpt><trkpt lat="44.0098521" lon="11.3278342"><ele>316.8</ele><time>2026-04-11T10:07:57.134Z</time></trkpt><trkpt lat="44.0097694" lon="11.3278865"><ele>315.6</ele><time>2026-04-11T10:07:58.134Z</time></trkpt><trkpt lat="44.0096831" lon="11.3279403"><ele>314.4</ele><time>2026-04-11T10:07:59.134Z</time></trkpt><trkpt lat="44.0096035" lon="11.327983"><ele>313.2</ele><time>2026-04-11T10:08:00.134Z</time></trkpt><trkpt lat="44.0095127" lon="11.3280166"><ele>312.0</ele><time>2026-04-11T10:08:01.134Z</time></trkpt><trkpt lat="44.0094169" lon="11.3280338"><ele>312.0</ele><time>2026-04-11T10:08:02.134Z</time></trkpt><trkpt lat="44.0093246" lon="11.3280505"><ele>312.0</ele><time>2026-04-11T10:08:03.134Z</time></trkpt><trkpt lat="44.0092224" lon="11.3280689"><ele>312.0</ele><time>2026-04-11T10:08:04.134Z</time></trkpt><trkpt lat="44.0091229" lon="11.3280886"><ele>312.0</ele><time>2026-04-11T10:08:05.133Z</time></trkpt><trkpt lat="44.0090197" lon="11.3281182"><ele>312.0</ele><time>2026-04-11T10:08:06.133Z</time></trkpt><trkpt lat="44.0089152" lon="11.3281532"><ele>311.8</ele><time>2026-04-11T10:08:07.133Z</time></trkpt><trkpt lat="44.0088123" lon="11.3281782"><ele>311.6</ele><time>2026-04-11T10:08:08.133Z</time></trkpt><trkpt lat="44.0087185" lon="11.3281968"><ele>311.40000000000003</ele><time>2026-04-11T10:08:09.133Z</time></trkpt><trkpt lat="44.0086304" lon="11.3282185"><ele>311.2</ele><time>2026-04-11T10:08:10.134Z</time></trkpt><trkpt lat="44.0085435" lon="11.3282342"><ele>311.0</ele><time>2026-04-11T10:08:11.134Z</time></trkpt><trkpt lat="44.0084617" lon="11.3282456"><ele>311.0</ele><time>2026-04-11T10:08:12.134Z</time></trkpt><trkpt lat="44.0083883" lon="11.3282471"><ele>311.0</ele><time>2026-04-11T10:08:13.134Z</time></trkpt><trkpt lat="44.0082676" lon="11.3282542"><ele>311.0</ele><time>2026-04-11T10:08:15.133Z</time></trkpt><trkpt lat="44.0081811" lon="11.3282645"><ele>311.0</ele><time>2026-04-11T10:08:17.133Z</time></trkpt><trkpt lat="44.0080914" lon="11.3282813"><ele>311.0</ele><time>2026-04-11T10:08:19.134Z</time></trkpt><trkpt lat="44.007993" lon="11.3283256"><ele>311.33333333333337</ele><time>2026-04-11T10:08:21.133Z</time></trkpt><trkpt lat="44.0079356" lon="11.3283777"><ele>311.6666666666667</ele><time>2026-04-11T10:08:22.133Z</time></trkpt><trkpt lat="44.0078834" lon="11.3284375"><ele>312.0</ele><time>2026-04-11T10:08:23.133Z</time></trkpt><trkpt lat="44.0078173" lon="11.3284998"><ele>312.3333333333333</ele><time>2026-04-11T10:08:24.133Z</time></trkpt><trkpt lat="44.0077464" lon="11.3285564"><ele>312.66666666666663</ele><time>2026-04-11T10:08:25.134Z</time></trkpt><trkpt lat="44.0076724" lon="11.3286062"><ele>313.0</ele><time>2026-04-11T10:08:26.134Z</time></trkpt><trkpt lat="44.0075921" lon="11.3286556"><ele>313.0</ele><time>2026-04-11T10:08:27.134Z</time></trkpt><trkpt lat="44.0075106" lon="11.3287088"><ele>313.0</ele><time>2026-04-11T10:08:28.134Z</time></trkpt><trkpt lat="44.0074275" lon="11.3287387"><ele>313.0</ele><time>2026-04-11T10:08:29.134Z</time></trkpt><trkpt lat="44.0073324" lon="11.32875"><ele>313.0</ele><time>2026-04-11T10:08:30.134Z</time></trkpt><trkpt lat="44.0072354" lon="11.3287554"><ele>313.0</ele><time>2026-04-11T10:08:31.134Z</time></trkpt><trkpt lat="44.0071329" lon="11.3287644"><ele>311.4</ele><time>2026-04-11T10:08:32.133Z</time></trkpt><trkpt lat="44.0070222" lon="11.3287809"><ele>309.8</ele><time>2026-04-11T10:08:33.134Z</time></trkpt><trkpt lat="44.0069208" lon="11.3287908"><ele>308.2</ele><time>2026-04-11T10:08:34.133Z</time></trkpt><trkpt lat="44.0068177" lon="11.3288038"><ele>306.6</ele><time>2026-04-11T10:08:35.133Z</time></trkpt><trkpt lat="44.0067084" lon="11.3288096"><ele>305.0</ele><time>2026-04-11T10:08:36.134Z</time></trkpt><trkpt lat="44.0066051" lon="11.3288005"><ele>304.6</ele><time>2026-04-11T10:08:37.134Z</time></trkpt><trkpt lat="44.0064994" lon="11.3288041"><ele>304.2</ele><time>2026-04-11T10:08:38.134Z</time></trkpt><trkpt lat="44.006393" lon="11.3288241"><ele>303.8</ele><time>2026-04-11T10:08:39.133Z</time></trkpt><trkpt lat="44.0062826" lon="11.3288455"><ele>303.4</ele><time>2026-04-11T10:08:40.133Z</time></trkpt><trkpt lat="44.0061709" lon="11.3288732"><ele>303.0</ele><time>2026-04-11T10:08:41.134Z</time></trkpt><trkpt lat="44.0060557" lon="11.3289017"><ele>303.0</ele><time>2026-04-11T10:08:42.133Z</time></trkpt><trkpt lat="44.0059364" lon="11.3289258"><ele>303.0</ele><time>2026-04-11T10:08:43.133Z</time></trkpt><trkpt lat="44.0058142" lon="11.3289461"><ele>303.0</ele><time>2026-04-11T10:08:44.134Z</time></trkpt><trkpt lat="44.0056913" lon="11.328966"><ele>303.0</ele><time>2026-04-11T10:08:45.134Z</time></trkpt><trkpt lat="44.0055687" lon="11.3289846"><ele>302.25</ele><time>2026-04-11T10:08:46.133Z</time></trkpt><trkpt lat="44.005446" lon="11.3289981"><ele>301.5</ele><time>2026-04-11T10:08:47.133Z</time></trkpt><trkpt lat="44.005324" lon="11.3290135"><ele>300.75</ele><time>2026-04-11T10:08:48.134Z</time></trkpt><trkpt lat="44.0052025" lon="11.3290312"><ele>300.0</ele><time>2026-04-11T10:08:49.134Z</time></trkpt><trkpt lat="44.0050779" lon="11.3290464"><ele>299.25</ele><time>2026-04-11T10:08:50.134Z</time></trkpt><trkpt lat="44.0049559" lon="11.3290552"><ele>298.5</ele><time>2026-04-11T10:08:51.134Z</time></trkpt><trkpt lat="44.0048333" lon="11.3290611"><ele>297.75</ele><time>2026-04-11T10:08:52.134Z</time></trkpt><trkpt lat="44.0047066" lon="11.3290648"><ele>297.0</ele><time>2026-04-11T10:08:53.134Z</time></trkpt><trkpt lat="44.0045835" lon="11.3290678"><ele>297.0</ele><time>2026-04-11T10:08:54.133Z</time></trkpt><trkpt lat="44.0044573" lon="11.329073"><ele>297.0</ele><time>2026-04-11T10:08:55.133Z</time></trkpt><trkpt lat="44.0043308" lon="11.3290899"><ele>297.0</ele><time>2026-04-11T10:08:56.134Z</time></trkpt><trkpt lat="44.0042057" lon="11.3291105"><ele>297.0</ele><time>2026-04-11T10:08:57.134Z</time></trkpt><trkpt lat="44.0040823" lon="11.3291197"><ele>296.25</ele><time>2026-04-11T10:08:58.133Z</time></trkpt><trkpt lat="44.0039564" lon="11.329127"><ele>295.5</ele><time>2026-04-11T10:08:59.133Z</time></trkpt><trkpt lat="44.0038292" lon="11.3291329"><ele>294.75</ele><time>2026-04-11T10:09:00.134Z</time></trkpt><trkpt lat="44.0037048" lon="11.3291365"><ele>294.0</ele><time>2026-04-11T10:09:01.134Z</time></trkpt><trkpt lat="44.0035852" lon="11.3291425"><ele>294.0</ele><time>2026-04-11T10:09:02.134Z</time></trkpt><trkpt lat="44.0034631" lon="11.3291548"><ele>294.0</ele><time>2026-04-11T10:09:03.134Z</time></trkpt><trkpt lat="44.0033536" lon="11.3291729"><ele>294.0</ele><time>2026-04-11T10:09:04.134Z</time></trkpt><trkpt lat="44.0032474" lon="11.3291884"><ele>294.0</ele><time>2026-04-11T10:09:05.134Z</time></trkpt><trkpt lat="44.0031382" lon="11.3291984"><ele>294.0</ele><time>2026-04-11T10:09:06.133Z</time></trkpt><trkpt lat="44.0030339" lon="11.32923"><ele>293.5</ele><time>2026-04-11T10:09:07.133Z</time></trkpt><trkpt lat="44.0029319" lon="11.3292873"><ele>293.0</ele><time>2026-04-11T10:09:08.133Z</time></trkpt><trkpt lat="44.0028273" lon="11.3293163"><ele>292.5</ele><time>2026-04-11T10:09:09.133Z</time></trkpt><trkpt lat="44.0027114" lon="11.329329"><ele>292.0</ele><time>2026-04-11T10:09:10.133Z</time></trkpt><trkpt lat="44.0025928" lon="11.3293461"><ele>290.5</ele><time>2026-04-11T10:09:11.134Z</time></trkpt><trkpt lat="44.0024662" lon="11.3293628"><ele>289.0</ele><time>2026-04-11T10:09:12.133Z</time></trkpt><trkpt lat="44.0023357" lon="11.3293777"><ele>287.5</ele><time>2026-04-11T10:09:13.133Z</time></trkpt><trkpt lat="44.0022035" lon="11.3293894"><ele>286.0</ele><time>2026-04-11T10:09:14.133Z</time></trkpt><trkpt lat="44.0020692" lon="11.329402"><ele>286.0</ele><time>2026-04-11T10:09:15.132Z</time></trkpt><trkpt lat="44.0019391" lon="11.3294155"><ele>286.0</ele><time>2026-04-11T10:09:16.134Z</time></trkpt><trkpt lat="44.0018135" lon="11.3294318"><ele>286.0</ele><time>2026-04-11T10:09:17.132Z</time></trkpt><trkpt lat="44.0016862" lon="11.3294441"><ele>286.0</ele><time>2026-04-11T10:09:18.133Z</time></trkpt><trkpt lat="44.0015719" lon="11.3294567"><ele>286.0</ele><time>2026-04-11T10:09:19.134Z</time></trkpt><trkpt lat="44.001465" lon="11.329472"><ele>286.0</ele><time>2026-04-11T10:09:20.134Z</time></trkpt><trkpt lat="44.0013627" lon="11.3294809"><ele>286.0</ele><time>2026-04-11T10:09:21.134Z</time></trkpt><trkpt lat="44.0012666" lon="11.3294811"><ele>286.0</ele><time>2026-04-11T10:09:22.133Z</time></trkpt><trkpt lat="44.0011704" lon="11.3294712"><ele>286.0</ele><time>2026-04-11T10:09:23.134Z</time></trkpt><trkpt lat="44.0010779" lon="11.3294342"><ele>286.0</ele><time>2026-04-11T10:09:24.134Z</time></trkpt><trkpt lat="44.0009868" lon="11.3293716"><ele>286.0</ele><time>2026-04-11T10:09:25.133Z</time></trkpt><trkpt lat="44.0008912" lon="11.329307"><ele>286.0</ele><time>2026-04-11T10:09:26.133Z</time></trkpt><trkpt lat="44.0007835" lon="11.3292561"><ele>286.0</ele><time>2026-04-11T10:09:27.133Z</time></trkpt><trkpt lat="44.0006657" lon="11.3292183"><ele>286.0</ele><time>2026-04-11T10:09:28.134Z</time></trkpt><trkpt lat="44.0005489" lon="11.3291987"><ele>286.0</ele><time>2026-04-11T10:09:29.134Z</time></trkpt><trkpt lat="44.0004299" lon="11.3291758"><ele>286.0</ele><time>2026-04-11T10:09:30.134Z</time></trkpt><trkpt lat="44.0003113" lon="11.3291432"><ele>286.0</ele><time>2026-04-11T10:09:31.134Z</time></trkpt><trkpt lat="44.0001962" lon="11.3291093"><ele>286.0</ele><time>2026-04-11T10:09:32.134Z</time></trkpt><trkpt lat="44.0000872" lon="11.329081"><ele>286.0</ele><time>2026-04-11T10:09:33.134Z</time></trkpt><trkpt lat="43.9999732" lon="11.329049"><ele>286.0</ele><time>2026-04-11T10:09:34.134Z</time></trkpt><trkpt lat="43.9998616" lon="11.3290138"><ele>286.0</ele><time>2026-04-11T10:09:35.133Z</time></trkpt><trkpt lat="43.999743" lon="11.3289795"><ele>286.0</ele><time>2026-04-11T10:09:36.134Z</time></trkpt><trkpt lat="43.9996231" lon="11.3289475"><ele>286.0</ele><time>2026-04-11T10:09:37.134Z</time></trkpt><trkpt lat="43.9995041" lon="11.3289197"><ele>286.0</ele><time>2026-04-11T10:09:38.134Z</time></trkpt><trkpt lat="43.9993844" lon="11.3288874"><ele>286.0</ele><time>2026-04-11T10:09:39.134Z</time></trkpt><trkpt lat="43.9992714" lon="11.3288565"><ele>286.0</ele><time>2026-04-11T10:09:40.133Z</time></trkpt><trkpt lat="43.9991547" lon="11.3288223"><ele>284.5</ele><time>2026-04-11T10:09:41.133Z</time></trkpt><trkpt lat="43.9990398" lon="11.3287903"><ele>283.0</ele><time>2026-04-11T10:09:42.134Z</time></trkpt><trkpt lat="43.998928" lon="11.3287566"><ele>281.5</ele><time>2026-04-11T10:09:43.134Z</time></trkpt><trkpt lat="43.9988198" lon="11.3287247"><ele>280.0</ele><time>2026-04-11T10:09:44.134Z</time></trkpt><trkpt lat="43.9987055" lon="11.3286975"><ele>280.0</ele><time>2026-04-11T10:09:45.134Z</time></trkpt><trkpt lat="43.9985915" lon="11.3286745"><ele>280.0</ele><time>2026-04-11T10:09:46.134Z</time></trkpt><trkpt lat="43.998475" lon="11.3286537"><ele>280.0</ele><time>2026-04-11T10:09:47.133Z</time></trkpt><trkpt lat="43.9983611" lon="11.3286244"><ele>280.0</ele><time>2026-04-11T10:09:48.133Z</time></trkpt><trkpt lat="43.9982486" lon="11.3285921"><ele>279.4</ele><time>2026-04-11T10:09:49.133Z</time></trkpt><trkpt lat="43.9981378" lon="11.3285551"><ele>278.8</ele><time>2026-04-11T10:09:50.133Z</time></trkpt><trkpt lat="43.9980359" lon="11.3285171"><ele>278.2</ele><time>2026-04-11T10:09:51.133Z</time></trkpt><trkpt lat="43.9979253" lon="11.3284893"><ele>277.6</ele><time>2026-04-11T10:09:52.133Z</time></trkpt><trkpt lat="43.9978182" lon="11.3284628"><ele>277.0</ele><time>2026-04-11T10:09:53.133Z</time></trkpt><trkpt lat="43.9977157" lon="11.3284363"><ele>277.0</ele><time>2026-04-11T10:09:54.133Z</time></trkpt><trkpt lat="43.9976199" lon="11.3284151"><ele>277.0</ele><time>2026-04-11T10:09:55.133Z</time></trkpt><trkpt lat="43.9975299" lon="11.3284072"><ele>277.0</ele><time>2026-04-11T10:09:56.134Z</time></trkpt><trkpt lat="43.9974381" lon="11.3283969"><ele>277.0</ele><time>2026-04-11T10:09:57.133Z</time></trkpt><trkpt lat="43.9973436" lon="11.3283885"><ele>277.0</ele><time>2026-04-11T10:09:58.134Z</time></trkpt><trkpt lat="43.9972462" lon="11.3283857"><ele>277.2</ele><time>2026-04-11T10:09:59.133Z</time></trkpt><trkpt lat="43.9971438" lon="11.3283803"><ele>277.4</ele><time>2026-04-11T10:10:00.134Z</time></trkpt><trkpt lat="43.9970399" lon="11.3283762"><ele>277.6</ele><time>2026-04-11T10:10:01.133Z</time></trkpt><trkpt lat="43.9969424" lon="11.3283716"><ele>277.8</ele><time>2026-04-11T10:10:02.134Z</time></trkpt><trkpt lat="43.9968533" lon="11.3283655"><ele>278.0</ele><time>2026-04-11T10:10:03.133Z</time></trkpt><trkpt lat="43.9967679" lon="11.3283676"><ele>278.0</ele><time>2026-04-11T10:10:04.133Z</time></trkpt><trkpt lat="43.9966824" lon="11.3283719"><ele>278.0</ele><time>2026-04-11T10:10:05.134Z</time></trkpt><trkpt lat="43.9966028" lon="11.3283715"><ele>278.0</ele><time>2026-04-11T10:10:06.134Z</time></trkpt><trkpt lat="43.9965288" lon="11.3283657"><ele>278.0</ele><time>2026-04-11T10:10:07.134Z</time></trkpt><trkpt lat="43.9964592" lon="11.3283684"><ele>278.0</ele><time>2026-04-11T10:10:08.134Z</time></trkpt><trkpt lat="43.9963339" lon="11.3284189"><ele>278.0</ele><time>2026-04-11T10:10:10.134Z</time></trkpt><trkpt lat="43.9962688" lon="11.328456"><ele>277.6666666666667</ele><time>2026-04-11T10:10:11.134Z</time></trkpt><trkpt lat="43.9962075" lon="11.3284884"><ele>277.33333333333337</ele><time>2026-04-11T10:10:12.133Z</time></trkpt><trkpt lat="43.9961481" lon="11.3285284"><ele>277.0</ele><time>2026-04-11T10:10:13.134Z</time></trkpt><trkpt lat="43.996093" lon="11.3285988"><ele>276.6666666666667</ele><time>2026-04-11T10:10:14.134Z</time></trkpt><trkpt lat="43.9960592" lon="11.3286923"><ele>276.3333333333333</ele><time>2026-04-11T10:10:15.134Z</time></trkpt><trkpt lat="43.9960308" lon="11.3288071"><ele>276.0</ele><time>2026-04-11T10:10:16.134Z</time></trkpt><trkpt lat="43.9960033" lon="11.3289398"><ele>276.8</ele><time>2026-04-11T10:10:17.134Z</time></trkpt><trkpt lat="43.9959735" lon="11.3290762"><ele>277.6</ele><time>2026-04-11T10:10:18.133Z</time></trkpt><trkpt lat="43.995942" lon="11.3292087"><ele>278.4</ele><time>2026-04-11T10:10:19.134Z</time></trkpt><trkpt lat="43.9959082" lon="11.3293461"><ele>279.2</ele><time>2026-04-11T10:10:20.134Z</time></trkpt><trkpt lat="43.9958719" lon="11.3294746"><ele>280.0</ele><time>2026-04-11T10:10:21.133Z</time></trkpt><trkpt lat="43.9958513" lon="11.3295828"><ele>279.6</ele><time>2026-04-11T10:10:22.133Z</time></trkpt><trkpt lat="43.995815" lon="11.3297186"><ele>279.2</ele><time>2026-04-11T10:10:24.134Z</time></trkpt><trkpt lat="43.995809" lon="11.3298522"><ele>278.8</ele><time>2026-04-11T10:10:26.134Z</time></trkpt><trkpt lat="43.9958375" lon="11.3299462"><ele>278.4</ele><time>2026-04-11T10:10:27.133Z</time></trkpt><trkpt lat="43.9958754" lon="11.3300613"><ele>278.0</ele><time>2026-04-11T10:10:28.133Z</time></trkpt><trkpt lat="43.9959151" lon="11.3301961"><ele>278.0</ele><time>2026-04-11T10:10:29.134Z</time></trkpt><trkpt lat="43.9959595" lon="11.330335"><ele>278.0</ele><time>2026-04-11T10:10:30.134Z</time></trkpt><trkpt lat="43.996008" lon="11.3304706"><ele>278.0</ele><time>2026-04-11T10:10:31.134Z</time></trkpt><trkpt lat="43.9960657" lon="11.3305905"><ele>278.0</ele><time>2026-04-11T10:10:32.134Z</time></trkpt><trkpt lat="43.9961416" lon="11.3307013"><ele>278.0</ele><time>2026-04-11T10:10:33.134Z</time></trkpt><trkpt lat="43.9962394" lon="11.330773"><ele>278.0</ele><time>2026-04-11T10:10:34.134Z</time></trkpt><trkpt lat="43.9963534" lon="11.3308218"><ele>278.0</ele><time>2026-04-11T10:10:35.134Z</time></trkpt><trkpt lat="43.996469" lon="11.3308638"><ele>278.0</ele><time>2026-04-11T10:10:36.133Z</time></trkpt><trkpt lat="43.9965825" lon="11.3309043"><ele>278.0</ele><time>2026-04-11T10:10:37.133Z</time></trkpt><trkpt lat="43.9966854" lon="11.3309456"><ele>278.8</ele><time>2026-04-11T10:10:38.133Z</time></trkpt><trkpt lat="43.9967771" lon="11.3309974"><ele>279.6</ele><time>2026-04-11T10:10:39.134Z</time></trkpt><trkpt lat="43.9968615" lon="11.3310858"><ele>280.4</ele><time>2026-04-11T10:10:40.133Z</time></trkpt><trkpt lat="43.9969465" lon="11.3311995"><ele>281.2</ele><time>2026-04-11T10:10:41.133Z</time></trkpt><trkpt lat="43.9970314" lon="11.3313227"><ele>282.0</ele><time>2026-04-11T10:10:42.133Z</time></trkpt><trkpt lat="43.9971115" lon="11.3314384"><ele>282.0</ele><time>2026-04-11T10:10:43.133Z</time></trkpt><trkpt lat="43.9971932" lon="11.3315434"><ele>282.0</ele><time>2026-04-11T10:10:44.133Z</time></trkpt><trkpt lat="43.9972893" lon="11.3316363"><ele>282.0</ele><time>2026-04-11T10:10:45.133Z</time></trkpt><trkpt lat="43.9973974" lon="11.3317073"><ele>282.0</ele><time>2026-04-11T10:10:46.134Z</time></trkpt><trkpt lat="43.9975014" lon="11.3317826"><ele>281.8</ele><time>2026-04-11T10:10:47.134Z</time></trkpt><trkpt lat="43.9975937" lon="11.3318749"><ele>281.6</ele><time>2026-04-11T10:10:48.133Z</time></trkpt><trkpt lat="43.9976726" lon="11.331981"><ele>281.40000000000003</ele><time>2026-04-11T10:10:49.133Z</time></trkpt><trkpt lat="43.9977363" lon="11.3320906"><ele>281.2</ele><time>2026-04-11T10:10:50.134Z</time></trkpt><trkpt lat="43.9977966" lon="11.3322031"><ele>281.0</ele><time>2026-04-11T10:10:51.134Z</time></trkpt><trkpt lat="43.9978541" lon="11.3323069"><ele>281.0</ele><time>2026-04-11T10:10:52.133Z</time></trkpt><trkpt lat="43.9979142" lon="11.3324132"><ele>281.0</ele><time>2026-04-11T10:10:53.134Z</time></trkpt><trkpt lat="43.9979767" lon="11.3325161"><ele>281.0</ele><time>2026-04-11T10:10:54.134Z</time></trkpt><trkpt lat="43.9980662" lon="11.332606"><ele>281.0</ele><time>2026-04-11T10:10:55.133Z</time></trkpt><trkpt lat="43.9981519" lon="11.3326844"><ele>281.0</ele><time>2026-04-11T10:10:56.134Z</time></trkpt><trkpt lat="43.9982478" lon="11.3327396"><ele>281.8</ele><time>2026-04-11T10:10:57.132Z</time></trkpt><trkpt lat="43.9983467" lon="11.3327701"><ele>282.6</ele><time>2026-04-11T10:10:58.133Z</time></trkpt><trkpt lat="43.9984569" lon="11.3327745"><ele>283.4</ele><time>2026-04-11T10:10:59.133Z</time></trkpt><trkpt lat="43.9985663" lon="11.3327829"><ele>284.2</ele><time>2026-04-11T10:11:00.134Z</time></trkpt><trkpt lat="43.9986782" lon="11.3327778"><ele>285.0</ele><time>2026-04-11T10:11:01.133Z</time></trkpt><trkpt lat="43.9987937" lon="11.3327504"><ele>285.0</ele><time>2026-04-11T10:11:02.133Z</time></trkpt><trkpt lat="43.9989039" lon="11.3327251"><ele>285.0</ele><time>2026-04-11T10:11:03.134Z</time></trkpt><trkpt lat="43.9990232" lon="11.3327183"><ele>285.0</ele><time>2026-04-11T10:11:04.134Z</time></trkpt><trkpt lat="43.9991334" lon="11.332742"><ele>285.0</ele><time>2026-04-11T10:11:05.134Z</time></trkpt><trkpt lat="43.999241" lon="11.3327676"><ele>283.75</ele><time>2026-04-11T10:11:06.134Z</time></trkpt><trkpt lat="43.9993369" lon="11.3328206"><ele>282.5</ele><time>2026-04-11T10:11:07.134Z</time></trkpt><trkpt lat="43.999438" lon="11.3328896"><ele>281.25</ele><time>2026-04-11T10:11:08.132Z</time></trkpt><trkpt lat="43.9995428" lon="11.3329742"><ele>280.0</ele><time>2026-04-11T10:11:09.133Z</time></trkpt><trkpt lat="43.9996443" lon="11.3330594"><ele>280.0</ele><time>2026-04-11T10:11:10.133Z</time></trkpt><trkpt lat="43.9997452" lon="11.3331394"><ele>280.0</ele><time>2026-04-11T10:11:11.133Z</time></trkpt><trkpt lat="43.999842" lon="11.3332169"><ele>280.0</ele><time>2026-04-11T10:11:12.134Z</time></trkpt><trkpt lat="43.9999352" lon="11.3332917"><ele>280.0</ele><time>2026-04-11T10:11:13.134Z</time></trkpt><trkpt lat="44.0000232" lon="11.3333808"><ele>280.0</ele><time>2026-04-11T10:11:14.134Z</time></trkpt><trkpt lat="44.0000972" lon="11.3334764"><ele>280.0</ele><time>2026-04-11T10:11:15.133Z</time></trkpt><trkpt lat="44.0001432" lon="11.3336044"><ele>280.0</ele><time>2026-04-11T10:11:16.134Z</time></trkpt><trkpt lat="44.0001642" lon="11.3337518"><ele>280.0</ele><time>2026-04-11T10:11:17.134Z</time></trkpt><trkpt lat="44.0001512" lon="11.3339021"><ele>280.0</ele><time>2026-04-11T10:11:18.134Z</time></trkpt><trkpt lat="44.0001013" lon="11.3340311"><ele>280.0</ele><time>2026-04-11T10:11:19.134Z</time></trkpt><trkpt lat="44.0000109" lon="11.3341262"><ele>279.0</ele><time>2026-04-11T10:11:20.134Z</time></trkpt><trkpt lat="43.9999109" lon="11.3341835"><ele>278.0</ele><time>2026-04-11T10:11:21.133Z</time></trkpt><trkpt lat="43.9997937" lon="11.3342259"><ele>277.0</ele><time>2026-04-11T10:11:22.132Z</time></trkpt><trkpt lat="43.9996676" lon="11.3342755"><ele>276.0</ele><time>2026-04-11T10:11:23.133Z</time></trkpt><trkpt lat="43.9995366" lon="11.3343441"><ele>276.0</ele><time>2026-04-11T10:11:24.133Z</time></trkpt><trkpt lat="43.9993935" lon="11.33441"><ele>276.0</ele><time>2026-04-11T10:11:25.133Z</time></trkpt><trkpt lat="43.999257" lon="11.334438"><ele>276.0</ele><time>2026-04-11T10:11:26.134Z</time></trkpt><trkpt lat="43.999125" lon="11.3344595"><ele>276.0</ele><time>2026-04-11T10:11:27.134Z</time></trkpt><trkpt lat="43.9989969" lon="11.334489"><ele>274.75</ele><time>2026-04-11T10:11:28.134Z</time></trkpt><trkpt lat="43.9988657" lon="11.3345063"><ele>273.5</ele><time>2026-04-11T10:11:29.134Z</time></trkpt><trkpt lat="43.9987389" lon="11.3345316"><ele>272.25</ele><time>2026-04-11T10:11:30.133Z</time></trkpt><trkpt lat="43.9986104" lon="11.334566"><ele>271.0</ele><time>2026-04-11T10:11:31.133Z</time></trkpt><trkpt lat="43.9984769" lon="11.334586"><ele>271.0</ele><time>2026-04-11T10:11:32.134Z</time></trkpt><trkpt lat="43.9983577" lon="11.3346104"><ele>271.0</ele><time>2026-04-11T10:11:33.134Z</time></trkpt><trkpt lat="43.9982553" lon="11.3346443"><ele>271.0</ele><time>2026-04-11T10:11:34.134Z</time></trkpt><trkpt lat="43.9981761" lon="11.334695"><ele>271.0</ele><time>2026-04-11T10:11:35.134Z</time></trkpt><trkpt lat="43.9981222" lon="11.3347676"><ele>271.0</ele><time>2026-04-11T10:11:36.133Z</time></trkpt><trkpt lat="43.9980957" lon="11.3348534"><ele>272.2</ele><time>2026-04-11T10:11:37.133Z</time></trkpt><trkpt lat="43.9981356" lon="11.3350238"><ele>273.40000000000003</ele><time>2026-04-11T10:11:39.133Z</time></trkpt><trkpt lat="43.9981932" lon="11.3351004"><ele>274.6</ele><time>2026-04-11T10:11:40.133Z</time></trkpt><trkpt lat="43.998267" lon="11.3351626"><ele>275.8</ele><time>2026-04-11T10:11:41.134Z</time></trkpt><trkpt lat="43.9983601" lon="11.3352177"><ele>277.0</ele><time>2026-04-11T10:11:42.134Z</time></trkpt><trkpt lat="43.9984467" lon="11.3352773"><ele>277.8</ele><time>2026-04-11T10:11:43.133Z</time></trkpt><trkpt lat="43.9985395" lon="11.3353379"><ele>278.6</ele><time>2026-04-11T10:11:44.134Z</time></trkpt><trkpt lat="43.9986334" lon="11.3353943"><ele>279.40000000000003</ele><time>2026-04-11T10:11:45.134Z</time></trkpt><trkpt lat="43.9987256" lon="11.3354495"><ele>280.2</ele><time>2026-04-11T10:11:46.134Z</time></trkpt><trkpt lat="43.9988168" lon="11.3355087"><ele>281.0</ele><time>2026-04-11T10:11:47.134Z</time></trkpt><trkpt lat="43.9989045" lon="11.3355729"><ele>279.6666666666667</ele><time>2026-04-11T10:11:48.134Z</time></trkpt><trkpt lat="43.9989914" lon="11.3356367"><ele>278.33333333333337</ele><time>2026-04-11T10:11:49.134Z</time></trkpt><trkpt lat="43.9990761" lon="11.335696"><ele>277.0</ele><time>2026-04-11T10:11:50.133Z</time></trkpt><trkpt lat="43.9991567" lon="11.335756"><ele>275.6666666666667</ele><time>2026-04-11T10:11:51.133Z</time></trkpt><trkpt lat="43.9992231" lon="11.335829"><ele>274.3333333333333</ele><time>2026-04-11T10:11:52.132Z</time></trkpt><trkpt lat="43.9992734" lon="11.335903"><ele>273.0</ele><time>2026-04-11T10:11:53.134Z</time></trkpt><trkpt lat="43.9993168" lon="11.3359766"><ele>272.8333333333333</ele><time>2026-04-11T10:11:54.133Z</time></trkpt><trkpt lat="43.9993731" lon="11.3361212"><ele>272.6666666666667</ele><time>2026-04-11T10:11:56.133Z</time></trkpt><trkpt lat="43.9994042" lon="11.3362439"><ele>272.5</ele><time>2026-04-11T10:11:58.134Z</time></trkpt><trkpt lat="43.99941" lon="11.3363432"><ele>272.33333333333337</ele><time>2026-04-11T10:12:00.133Z</time></trkpt><trkpt lat="43.9994503" lon="11.3364186"><ele>272.1666666666667</ele><time>2026-04-11T10:12:03.133Z</time></trkpt><trkpt lat="43.999514" lon="11.3363695"><ele>272.0</ele><time>2026-04-11T10:12:07.134Z</time></trkpt><trkpt lat="43.9996072" lon="11.33632"><ele>271.99999999999994</ele><time>2026-04-11T10:12:09.133Z</time></trkpt><trkpt lat="43.9996758" lon="11.336317"><ele>272.0</ele><time>2026-04-11T10:12:10.133Z</time></trkpt><trkpt lat="43.9997448" lon="11.3363221"><ele>272.0</ele><time>2026-04-11T10:12:11.133Z</time></trkpt><trkpt lat="43.9998155" lon="11.3363292"><ele>272.0</ele><time>2026-04-11T10:12:12.134Z</time></trkpt><trkpt lat="43.9998877" lon="11.3363373"><ele>272.0</ele><time>2026-04-11T10:12:13.134Z</time></trkpt><trkpt lat="43.9999589" lon="11.336347"><ele>271.99999999999994</ele><time>2026-04-11T10:12:14.133Z</time></trkpt><trkpt lat="44.0000287" lon="11.3363555"><ele>272.0</ele><time>2026-04-11T10:12:15.133Z</time></trkpt><trkpt lat="44.0000977" lon="11.3363619"><ele>271.99999999999994</ele><time>2026-04-11T10:12:16.133Z</time></trkpt><trkpt lat="44.0001656" lon="11.3363701"><ele>272.0</ele><time>2026-04-11T10:12:17.134Z</time></trkpt><trkpt lat="44.0002327" lon="11.33638"><ele>272.0</ele><time>2026-04-11T10:12:18.133Z</time></trkpt><trkpt lat="44.0003004" lon="11.3363878"><ele>272.0</ele><time>2026-04-11T10:12:19.133Z</time></trkpt><trkpt lat="44.000372" lon="11.3363974"><ele>272.0</ele><time>2026-04-11T10:12:20.134Z</time></trkpt><trkpt lat="44.0004454" lon="11.3364077"><ele>271.99999999999994</ele><time>2026-04-11T10:12:21.133Z</time></trkpt><trkpt lat="44.0005218" lon="11.3364191"><ele>272.0</ele><time>2026-04-11T10:12:22.133Z</time></trkpt><trkpt lat="44.0006005" lon="11.336429"><ele>271.6666666666667</ele><time>2026-04-11T10:12:23.133Z</time></trkpt><trkpt lat="44.0006828" lon="11.3364447"><ele>271.33333333333337</ele><time>2026-04-11T10:12:24.133Z</time></trkpt><trkpt lat="44.0007713" lon="11.3364615"><ele>271.0</ele><time>2026-04-11T10:12:25.133Z</time></trkpt><trkpt lat="44.0008604" lon="11.3364723"><ele>270.6666666666667</ele><time>2026-04-11T10:12:26.133Z</time></trkpt><trkpt lat="44.0009512" lon="11.3364832"><ele>270.3333333333333</ele><time>2026-04-11T10:12:27.133Z</time></trkpt><trkpt lat="44.0010391" lon="11.336491"><ele>270.0</ele><time>2026-04-11T10:12:28.132Z</time></trkpt><trkpt lat="44.0011264" lon="11.3364998"><ele>270.0</ele><time>2026-04-11T10:12:29.134Z</time></trkpt><trkpt lat="44.0012076" lon="11.3365156"><ele>270.0</ele><time>2026-04-11T10:12:30.133Z</time></trkpt><trkpt lat="44.0012848" lon="11.3365408"><ele>270.0</ele><time>2026-04-11T10:12:31.133Z</time></trkpt><trkpt lat="44.0013517" lon="11.3365559"><ele>270.0</ele><time>2026-04-11T10:12:32.133Z</time></trkpt><trkpt lat="44.0014148" lon="11.3365476"><ele>270.0</ele><time>2026-04-11T10:12:33.133Z</time></trkpt><trkpt lat="44.0014808" lon="11.3365222"><ele>270.0</ele><time>2026-04-11T10:12:34.133Z</time></trkpt><trkpt lat="44.0015942" lon="11.3364302"><ele>271.0</ele><time>2026-04-11T10:12:36.133Z</time></trkpt><trkpt lat="44.0016513" lon="11.3363733"><ele>272.0</ele><time>2026-04-11T10:12:37.134Z</time></trkpt><trkpt lat="44.0017189" lon="11.3363356"><ele>273.0</ele><time>2026-04-11T10:12:38.132Z</time></trkpt><trkpt lat="44.0018121" lon="11.3363511"><ele>274.0</ele><time>2026-04-11T10:12:40.133Z</time></trkpt><trkpt lat="44.0018908" lon="11.3364436"><ele>275.0</ele><time>2026-04-11T10:12:42.134Z</time></trkpt><trkpt lat="44.0019311" lon="11.3365114"><ele>276.0</ele><time>2026-04-11T10:12:43.134Z</time></trkpt><trkpt lat="44.0019833" lon="11.3365769"><ele>278.25</ele><time>2026-04-11T10:12:44.134Z</time></trkpt><trkpt lat="44.0020365" lon="11.336647"><ele>280.5</ele><time>2026-04-11T10:12:45.133Z</time></trkpt><trkpt lat="44.0021336" lon="11.3367674"><ele>282.75</ele><time>2026-04-11T10:12:47.134Z</time></trkpt><trkpt lat="44.0022317" lon="11.3368417"><ele>285.0</ele><time>2026-04-11T10:12:49.134Z</time></trkpt><trkpt lat="44.002372" lon="11.3368535"><ele>285.0</ele><time>2026-04-11T10:12:51.133Z</time></trkpt><trkpt lat="44.0024572" lon="11.3368507"><ele>285.0</ele><time>2026-04-11T10:12:52.132Z</time></trkpt><trkpt lat="44.0025524" lon="11.336846"><ele>285.0</ele><time>2026-04-11T10:12:53.133Z</time></trkpt><trkpt lat="44.0026507" lon="11.3368366"><ele>285.0</ele><time>2026-04-11T10:12:54.133Z</time></trkpt><trkpt lat="44.0027467" lon="11.3368311"><ele>285.0</ele><time>2026-04-11T10:12:55.133Z</time></trkpt><trkpt lat="44.0028408" lon="11.3368349"><ele>285.6666666666667</ele><time>2026-04-11T10:12:56.133Z</time></trkpt><trkpt lat="44.0029315" lon="11.3368458"><ele>286.3333333333333</ele><time>2026-04-11T10:12:57.133Z</time></trkpt><trkpt lat="44.0030088" lon="11.3368583"><ele>287.0</ele><time>2026-04-11T10:12:58.133Z</time></trkpt><trkpt lat="44.0030859" lon="11.3368563"><ele>287.66666666666663</ele><time>2026-04-11T10:12:59.133Z</time></trkpt><trkpt lat="44.0031721" lon="11.336848"><ele>288.3333333333333</ele><time>2026-04-11T10:13:00.133Z</time></trkpt><trkpt lat="44.0032557" lon="11.3368365"><ele>289.0</ele><time>2026-04-11T10:13:01.133Z</time></trkpt><trkpt lat="44.003354" lon="11.3368035"><ele>289.0</ele><time>2026-04-11T10:13:02.134Z</time></trkpt><trkpt lat="44.0034435" lon="11.3367769"><ele>289.0</ele><time>2026-04-11T10:13:03.134Z</time></trkpt><trkpt lat="44.0035262" lon="11.3367466"><ele>289.0</ele><time>2026-04-11T10:13:04.133Z</time></trkpt><trkpt lat="44.003616" lon="11.3367181"><ele>289.0</ele><time>2026-04-11T10:13:05.133Z</time></trkpt><trkpt lat="44.0037027" lon="11.3366963"><ele>289.0</ele><time>2026-04-11T10:13:06.133Z</time></trkpt><trkpt lat="44.0037931" lon="11.3366701"><ele>289.0</ele><time>2026-04-11T10:13:07.134Z</time></trkpt><trkpt lat="44.003882" lon="11.3366367"><ele>289.0</ele><time>2026-04-11T10:13:08.134Z</time></trkpt><trkpt lat="44.0039778" lon="11.3366129"><ele>289.0</ele><time>2026-04-11T10:13:09.134Z</time></trkpt><trkpt lat="44.0040704" lon="11.3366091"><ele>289.0</ele><time>2026-04-11T10:13:10.134Z</time></trkpt><trkpt lat="44.004163" lon="11.3366163"><ele>289.0</ele><time>2026-04-11T10:13:12.134Z</time></trkpt><trkpt lat="44.0042418" lon="11.3366193"><ele>288.8</ele><time>2026-04-11T10:13:25.133Z</time></trkpt><trkpt lat="44.0043118" lon="11.3366317"><ele>288.59999999999997</ele><time>2026-04-11T10:13:30.134Z</time></trkpt><trkpt lat="44.0043878" lon="11.3366418"><ele>288.4</ele><time>2026-04-11T10:13:32.133Z</time></trkpt><trkpt lat="44.0044836" lon="11.3366531"><ele>288.2</ele><time>2026-04-11T10:13:34.134Z</time></trkpt><trkpt lat="44.0045902" lon="11.3366652"><ele>288.0</ele><time>2026-04-11T10:13:36.134Z</time></trkpt><trkpt lat="44.0047319" lon="11.3366543"><ele>288.0</ele><time>2026-04-11T10:13:38.134Z</time></trkpt><trkpt lat="44.0047952" lon="11.3366248"><ele>288.0</ele><time>2026-04-11T10:13:39.133Z</time></trkpt><trkpt lat="44.0048553" lon="11.3365379"><ele>288.0</ele><time>2026-04-11T10:13:40.133Z</time></trkpt><trkpt lat="44.0049042" lon="11.3364647"><ele>288.0</ele><time>2026-04-11T10:13:41.133Z</time></trkpt><trkpt lat="44.0049439" lon="11.3363608"><ele>288.0</ele><time>2026-04-11T10:13:42.132Z</time></trkpt><trkpt lat="44.0049953" lon="11.3362566"><ele>288.0</ele><time>2026-04-11T10:13:43.132Z</time></trkpt><trkpt lat="44.0050456" lon="11.3361548"><ele>288.6666666666667</ele><time>2026-04-11T10:13:44.133Z</time></trkpt><trkpt lat="44.0050923" lon="11.3360547"><ele>289.3333333333333</ele><time>2026-04-11T10:13:45.132Z</time></trkpt><trkpt lat="44.0051271" lon="11.3359566"><ele>290.0</ele><time>2026-04-11T10:13:46.132Z</time></trkpt><trkpt lat="44.0051635" lon="11.3358518"><ele>290.66666666666663</ele><time>2026-04-11T10:13:47.131Z</time></trkpt><trkpt lat="44.0051954" lon="11.3357428"><ele>291.3333333333333</ele><time>2026-04-11T10:13:48.132Z</time></trkpt><trkpt lat="44.0052277" lon="11.3356327"><ele>292.0</ele><time>2026-04-11T10:13:49.133Z</time></trkpt><trkpt lat="44.0052644" lon="11.3355157"><ele>293.8</ele><time>2026-04-11T10:13:50.133Z</time></trkpt><trkpt lat="44.0052997" lon="11.3353965"><ele>295.6</ele><time>2026-04-11T10:13:51.133Z</time></trkpt><trkpt lat="44.005334" lon="11.3352744"><ele>297.40000000000003</ele><time>2026-04-11T10:13:52.133Z</time></trkpt><trkpt lat="44.0053707" lon="11.3351505"><ele>299.2</ele><time>2026-04-11T10:13:53.133Z</time></trkpt><trkpt lat="44.0054056" lon="11.3350283"><ele>301.0</ele><time>2026-04-11T10:13:54.133Z</time></trkpt><trkpt lat="44.0054377" lon="11.3349049"><ele>301.0</ele><time>2026-04-11T10:13:55.132Z</time></trkpt><trkpt lat="44.0054659" lon="11.3347791"><ele>301.0</ele><time>2026-04-11T10:13:56.132Z</time></trkpt><trkpt lat="44.0054889" lon="11.3346487"><ele>301.0</ele><time>2026-04-11T10:13:57.132Z</time></trkpt><trkpt lat="44.0055086" lon="11.3345186"><ele>301.0</ele><time>2026-04-11T10:13:58.133Z</time></trkpt><trkpt lat="44.0055343" lon="11.3344079"><ele>301.0</ele><time>2026-04-11T10:13:59.133Z</time></trkpt><trkpt lat="44.0055451" lon="11.3343082"><ele>301.0</ele><time>2026-04-11T10:14:00.132Z</time></trkpt><trkpt lat="44.0055283" lon="11.3342218"><ele>301.5</ele><time>2026-04-11T10:14:01.133Z</time></trkpt><trkpt lat="44.0054843" lon="11.3341376"><ele>302.0</ele><time>2026-04-11T10:14:02.133Z</time></trkpt><trkpt lat="44.005429" lon="11.3340667"><ele>302.5</ele><time>2026-04-11T10:14:03.132Z</time></trkpt><trkpt lat="44.0053759" lon="11.3340027"><ele>303.0</ele><time>2026-04-11T10:14:04.132Z</time></trkpt><trkpt lat="44.005295" lon="11.3338589"><ele>303.5</ele><time>2026-04-11T10:14:06.133Z</time></trkpt><trkpt lat="44.0052572" lon="11.333765"><ele>304.0</ele><time>2026-04-11T10:14:07.133Z</time></trkpt><trkpt lat="44.0052188" lon="11.3336705"><ele>302.5</ele><time>2026-04-11T10:14:08.132Z</time></trkpt><trkpt lat="44.0051679" lon="11.333593"><ele>301.0</ele><time>2026-04-11T10:14:09.132Z</time></trkpt><trkpt lat="44.0051132" lon="11.3335301"><ele>299.5</ele><time>2026-04-11T10:14:10.133Z</time></trkpt><trkpt lat="44.0050694" lon="11.3334642"><ele>298.0</ele><time>2026-04-11T10:14:11.133Z</time></trkpt><trkpt lat="44.0050341" lon="11.3333237"><ele>296.5</ele><time>2026-04-11T10:14:13.133Z</time></trkpt><trkpt lat="44.0050899" lon="11.3332132"><ele>295.0</ele><time>2026-04-11T10:14:15.132Z</time></trkpt><trkpt lat="44.0052153" lon="11.3331593"><ele>295.0</ele><time>2026-04-11T10:14:17.133Z</time></trkpt><trkpt lat="44.0052973" lon="11.3331367"><ele>295.0</ele><time>2026-04-11T10:14:18.132Z</time></trkpt><trkpt lat="44.0053771" lon="11.3331157"><ele>295.0</ele><time>2026-04-11T10:14:19.133Z</time></trkpt><trkpt lat="44.005454" lon="11.3330916"><ele>295.0</ele><time>2026-04-11T10:14:20.133Z</time></trkpt><trkpt lat="44.0055377" lon="11.3330658"><ele>295.0</ele><time>2026-04-11T10:14:21.132Z</time></trkpt><trkpt lat="44.0056232" lon="11.3330465"><ele>295.0</ele><time>2026-04-11T10:14:22.133Z</time></trkpt><trkpt lat="44.00571" lon="11.3330175"><ele>295.3333333333333</ele><time>2026-04-11T10:14:23.133Z</time></trkpt><trkpt lat="44.0057952" lon="11.3329924"><ele>295.66666666666663</ele><time>2026-04-11T10:14:24.132Z</time></trkpt><trkpt lat="44.0058746" lon="11.3329667"><ele>296.0</ele><time>2026-04-11T10:14:25.132Z</time></trkpt><trkpt lat="44.0059464" lon="11.3329358"><ele>296.3333333333333</ele><time>2026-04-11T10:14:26.133Z</time></trkpt><trkpt lat="44.0060176" lon="11.3328961"><ele>296.6666666666667</ele><time>2026-04-11T10:14:27.132Z</time></trkpt><trkpt lat="44.0060927" lon="11.3328579"><ele>297.0</ele><time>2026-04-11T10:14:28.133Z</time></trkpt><trkpt lat="44.006173" lon="11.3328255"><ele>297.0</ele><time>2026-04-11T10:14:29.133Z</time></trkpt><trkpt lat="44.0062442" lon="11.3327881"><ele>297.0</ele><time>2026-04-11T10:14:30.132Z</time></trkpt><trkpt lat="44.0063157" lon="11.3327646"><ele>297.0</ele><time>2026-04-11T10:14:31.133Z</time></trkpt><trkpt lat="44.0063914" lon="11.3327692"><ele>297.0</ele><time>2026-04-11T10:14:32.133Z</time></trkpt><trkpt lat="44.0064642" lon="11.3328011"><ele>297.0</ele><time>2026-04-11T10:14:33.133Z</time></trkpt><trkpt lat="44.0065324" lon="11.3328523"><ele>297.0</ele><time>2026-04-11T10:14:34.132Z</time></trkpt><trkpt lat="44.0065989" lon="11.3329027"><ele>298.14285714285717</ele><time>2026-04-11T10:14:35.133Z</time></trkpt><trkpt lat="44.0066635" lon="11.3329466"><ele>299.28571428571433</ele><time>2026-04-11T10:14:36.132Z</time></trkpt><trkpt lat="44.0067284" lon="11.3329772"><ele>300.42857142857144</ele><time>2026-04-11T10:14:37.133Z</time></trkpt><trkpt lat="44.006796" lon="11.3329817"><ele>301.57142857142856</ele><time>2026-04-11T10:14:38.133Z</time></trkpt><trkpt lat="44.0068697" lon="11.3329705"><ele>302.71428571428567</ele><time>2026-04-11T10:14:39.131Z</time></trkpt><trkpt lat="44.0069504" lon="11.332943"><ele>303.8571428571429</ele><time>2026-04-11T10:14:40.133Z</time></trkpt><trkpt lat="44.0070294" lon="11.3329074"><ele>305.0</ele><time>2026-04-11T10:14:41.133Z</time></trkpt><trkpt lat="44.0071086" lon="11.3328725"><ele>305.0</ele><time>2026-04-11T10:14:42.132Z</time></trkpt><trkpt lat="44.0071934" lon="11.3328337"><ele>305.0</ele><time>2026-04-11T10:14:43.132Z</time></trkpt><trkpt lat="44.0072833" lon="11.332798"><ele>305.0</ele><time>2026-04-11T10:14:44.133Z</time></trkpt><trkpt lat="44.0073795" lon="11.3327461"><ele>305.0</ele><time>2026-04-11T10:14:45.133Z</time></trkpt><trkpt lat="44.007481" lon="11.3327006"><ele>305.0</ele><time>2026-04-11T10:14:46.133Z</time></trkpt><trkpt lat="44.0075933" lon="11.3326559"><ele>305.25</ele><time>2026-04-11T10:14:47.132Z</time></trkpt><trkpt lat="44.0077072" lon="11.3326076"><ele>305.5</ele><time>2026-04-11T10:14:48.133Z</time></trkpt><trkpt lat="44.0078249" lon="11.3325619"><ele>305.75</ele><time>2026-04-11T10:14:49.133Z</time></trkpt><trkpt lat="44.0079466" lon="11.3325156"><ele>306.0</ele><time>2026-04-11T10:14:50.133Z</time></trkpt><trkpt lat="44.0080673" lon="11.3324675"><ele>306.0</ele><time>2026-04-11T10:14:51.133Z</time></trkpt><trkpt lat="44.0081898" lon="11.3324233"><ele>306.0</ele><time>2026-04-11T10:14:52.133Z</time></trkpt><trkpt lat="44.0083137" lon="11.3323768"><ele>306.0</ele><time>2026-04-11T10:14:53.132Z</time></trkpt><trkpt lat="44.0084368" lon="11.3323307"><ele>306.0</ele><time>2026-04-11T10:14:54.132Z</time></trkpt><trkpt lat="44.0085576" lon="11.3322791"><ele>306.25</ele><time>2026-04-11T10:14:55.133Z</time></trkpt><trkpt lat="44.0086756" lon="11.3322286"><ele>306.5</ele><time>2026-04-11T10:14:56.133Z</time></trkpt><trkpt lat="44.0087833" lon="11.3321804"><ele>306.75</ele><time>2026-04-11T10:14:57.133Z</time></trkpt><trkpt lat="44.0088851" lon="11.3321273"><ele>307.0</ele><time>2026-04-11T10:14:58.132Z</time></trkpt><trkpt lat="44.0089886" lon="11.3320742"><ele>307.6</ele><time>2026-04-11T10:14:59.133Z</time></trkpt><trkpt lat="44.0090847" lon="11.3320452"><ele>308.2</ele><time>2026-04-11T10:15:00.133Z</time></trkpt><trkpt lat="44.0091794" lon="11.3320331"><ele>308.8</ele><time>2026-04-11T10:15:01.133Z</time></trkpt><trkpt lat="44.0092779" lon="11.3320354"><ele>309.4</ele><time>2026-04-11T10:15:02.132Z</time></trkpt><trkpt lat="44.0093779" lon="11.3320273"><ele>310.0</ele><time>2026-04-11T10:15:03.132Z</time></trkpt><trkpt lat="44.0094768" lon="11.3320002"><ele>311.0</ele><time>2026-04-11T10:15:04.133Z</time></trkpt><trkpt lat="44.0095792" lon="11.3319642"><ele>312.0</ele><time>2026-04-11T10:15:05.133Z</time></trkpt><trkpt lat="44.0096735" lon="11.331925"><ele>313.0</ele><time>2026-04-11T10:15:06.132Z</time></trkpt><trkpt lat="44.0097649" lon="11.331893"><ele>314.0</ele><time>2026-04-11T10:15:07.132Z</time></trkpt><trkpt lat="44.0098639" lon="11.3318605"><ele>315.0</ele><time>2026-04-11T10:15:08.132Z</time></trkpt><trkpt lat="44.0099643" lon="11.3318392"><ele>315.1666666666667</ele><time>2026-04-11T10:15:09.132Z</time></trkpt><trkpt lat="44.0100473" lon="11.331836"><ele>315.3333333333333</ele><time>2026-04-11T10:15:10.133Z</time></trkpt><trkpt lat="44.0101236" lon="11.3318334"><ele>315.5</ele><time>2026-04-11T10:15:11.133Z</time></trkpt><trkpt lat="44.0101917" lon="11.3318447"><ele>315.66666666666663</ele><time>2026-04-11T10:15:12.132Z</time></trkpt><trkpt lat="44.0102519" lon="11.3318704"><ele>315.8333333333333</ele><time>2026-04-11T10:15:13.132Z</time></trkpt><trkpt lat="44.010351" lon="11.3319266"><ele>316.0</ele><time>2026-04-11T10:15:15.132Z</time></trkpt><trkpt lat="44.0104168" lon="11.3318787"><ele>316.0</ele><time>2026-04-11T10:15:17.133Z</time></trkpt><trkpt lat="44.0104685" lon="11.3317374"><ele>316.0</ele><time>2026-04-11T10:15:19.132Z</time></trkpt><trkpt lat="44.0104984" lon="11.3316463"><ele>316.0</ele><time>2026-04-11T10:15:20.132Z</time></trkpt><trkpt lat="44.0105094" lon="11.3315493"><ele>316.0</ele><time>2026-04-11T10:15:21.133Z</time></trkpt><trkpt lat="44.0105066" lon="11.3314496"><ele>316.0</ele><time>2026-04-11T10:15:22.133Z</time></trkpt><trkpt lat="44.0104948" lon="11.3313469"><ele>316.0</ele><time>2026-04-11T10:15:23.133Z</time></trkpt><trkpt lat="44.0104779" lon="11.3312359"><ele>316.16666666666663</ele><time>2026-04-11T10:15:24.133Z</time></trkpt><trkpt lat="44.0104537" lon="11.3311214"><ele>316.3333333333333</ele><time>2026-04-11T10:15:25.133Z</time></trkpt><trkpt lat="44.0104204" lon="11.3310157"><ele>316.5</ele><time>2026-04-11T10:15:26.133Z</time></trkpt><trkpt lat="44.0103899" lon="11.3309237"><ele>316.6666666666667</ele><time>2026-04-11T10:15:27.133Z</time></trkpt><trkpt lat="44.0103669" lon="11.330835"><ele>316.83333333333337</ele><time>2026-04-11T10:15:28.133Z</time></trkpt><trkpt lat="44.01037" lon="11.3307185"><ele>317.0</ele><time>2026-04-11T10:15:30.132Z</time></trkpt><trkpt lat="44.0104282" lon="11.3306326"><ele>317.0</ele><time>2026-04-11T10:15:32.132Z</time></trkpt><trkpt lat="44.0105251" lon="11.3306149"><ele>317.0</ele><time>2026-04-11T10:15:34.133Z</time></trkpt><trkpt lat="44.0106401" lon="11.3306131"><ele>317.0</ele><time>2026-04-11T10:15:36.133Z</time></trkpt><trkpt lat="44.0107572" lon="11.3306007"><ele>317.0</ele><time>2026-04-11T10:15:38.133Z</time></trkpt><trkpt lat="44.0108522" lon="11.3305931"><ele>317.0</ele><time>2026-04-11T10:15:40.133Z</time></trkpt><trkpt lat="44.0109822" lon="11.3305772"><ele>317.0</ele><time>2026-04-11T10:15:42.133Z</time></trkpt><trkpt lat="44.0110503" lon="11.3305721"><ele>317.0</ele><time>2026-04-11T10:15:43.132Z</time></trkpt><trkpt lat="44.0111277" lon="11.3305689"><ele>317.0</ele><time>2026-04-11T10:15:44.132Z</time></trkpt><trkpt lat="44.0111947" lon="11.3305631"><ele>317.0</ele><time>2026-04-11T10:15:45.133Z</time></trkpt><trkpt lat="44.0113187" lon="11.3305575"><ele>317.0</ele><time>2026-04-11T10:15:47.132Z</time></trkpt><trkpt lat="44.0113823" lon="11.3305556"><ele>317.0</ele><time>2026-04-11T10:15:48.133Z</time></trkpt><trkpt lat="44.0115205" lon="11.3305596"><ele>317.6666666666667</ele><time>2026-04-11T10:15:50.133Z</time></trkpt><trkpt lat="44.0116111" lon="11.3305551"><ele>318.33333333333337</ele><time>2026-04-11T10:15:51.132Z</time></trkpt><trkpt lat="44.0116972" lon="11.3305455"><ele>319.0</ele><time>2026-04-11T10:15:52.133Z</time></trkpt><trkpt lat="44.0117848" lon="11.3305392"><ele>319.6666666666667</ele><time>2026-04-11T10:15:53.132Z</time></trkpt><trkpt lat="44.0118698" lon="11.3305288"><ele>320.3333333333333</ele><time>2026-04-11T10:15:54.133Z</time></trkpt><trkpt lat="44.0119517" lon="11.3305199"><ele>321.0</ele><time>2026-04-11T10:15:55.133Z</time></trkpt><trkpt lat="44.0120288" lon="11.330517"><ele>321.1666666666667</ele><time>2026-04-11T10:15:56.133Z</time></trkpt><trkpt lat="44.0121053" lon="11.3305082"><ele>321.3333333333333</ele><time>2026-04-11T10:15:57.133Z</time></trkpt><trkpt lat="44.0121767" lon="11.3304997"><ele>321.5</ele><time>2026-04-11T10:15:58.132Z</time></trkpt><trkpt lat="44.0122542" lon="11.3304933"><ele>321.66666666666663</ele><time>2026-04-11T10:15:59.132Z</time></trkpt><trkpt lat="44.0123339" lon="11.330484"><ele>321.8333333333333</ele><time>2026-04-11T10:16:00.131Z</time></trkpt><trkpt lat="44.0124142" lon="11.3304764"><ele>322.0</ele><time>2026-04-11T10:16:01.133Z</time></trkpt><trkpt lat="44.012497" lon="11.3304689"><ele>322.0</ele><time>2026-04-11T10:16:02.133Z</time></trkpt><trkpt lat="44.0125818" lon="11.3304614"><ele>322.0</ele><time>2026-04-11T10:16:03.133Z</time></trkpt><trkpt lat="44.0126647" lon="11.3304546"><ele>322.0</ele><time>2026-04-11T10:16:04.132Z</time></trkpt><trkpt lat="44.0127492" lon="11.3304567"><ele>322.0</ele><time>2026-04-11T10:16:05.133Z</time></trkpt><trkpt lat="44.0128381" lon="11.330479"><ele>322.0</ele><time>2026-04-11T10:16:06.132Z</time></trkpt><trkpt lat="44.012916" lon="11.3305216"><ele>322.0</ele><time>2026-04-11T10:16:07.133Z</time></trkpt><trkpt lat="44.0129889" lon="11.33054"><ele>322.0</ele><time>2026-04-11T10:16:08.132Z</time></trkpt><trkpt lat="44.0130797" lon="11.3305412"><ele>322.0</ele><time>2026-04-11T10:16:09.133Z</time></trkpt><trkpt lat="44.0131791" lon="11.3305381"><ele>322.0</ele><time>2026-04-11T10:16:10.133Z</time></trkpt><trkpt lat="44.013269" lon="11.3305282"><ele>322.0</ele><time>2026-04-11T10:16:11.133Z</time></trkpt><trkpt lat="44.0133618" lon="11.3305226"><ele>322.0</ele><time>2026-04-11T10:16:12.133Z</time></trkpt><trkpt lat="44.0134553" lon="11.3305186"><ele>322.16666666666663</ele><time>2026-04-11T10:16:13.133Z</time></trkpt><trkpt lat="44.0135488" lon="11.3305326"><ele>322.3333333333333</ele><time>2026-04-11T10:16:14.133Z</time></trkpt><trkpt lat="44.0136319" lon="11.3305754"><ele>322.5</ele><time>2026-04-11T10:16:15.132Z</time></trkpt><trkpt lat="44.0137107" lon="11.3306333"><ele>322.6666666666667</ele><time>2026-04-11T10:16:16.132Z</time></trkpt><trkpt lat="44.0137808" lon="11.3306683"><ele>322.83333333333337</ele><time>2026-04-11T10:16:17.133Z</time></trkpt><trkpt lat="44.0138654" lon="11.3306673"><ele>323.0</ele><time>2026-04-11T10:16:18.133Z</time></trkpt><trkpt lat="44.0139344" lon="11.3306263"><ele>323.0</ele><time>2026-04-11T10:16:19.133Z</time></trkpt><trkpt lat="44.014004" lon="11.330552"><ele>323.0</ele><time>2026-04-11T10:16:20.133Z</time></trkpt><trkpt lat="44.014073" lon="11.3304558"><ele>323.0</ele><time>2026-04-11T10:16:21.132Z</time></trkpt><trkpt lat="44.0141397" lon="11.3303673"><ele>323.0</ele><time>2026-04-11T10:16:22.132Z</time></trkpt><trkpt lat="44.0142131" lon="11.3302912"><ele>323.0</ele><time>2026-04-11T10:16:23.132Z</time></trkpt><trkpt lat="44.0142933" lon="11.3302126"><ele>323.4</ele><time>2026-04-11T10:16:24.133Z</time></trkpt><trkpt lat="44.014375" lon="11.3301326"><ele>323.79999999999995</ele><time>2026-04-11T10:16:25.133Z</time></trkpt><trkpt lat="44.0144487" lon="11.3300457"><ele>324.2</ele><time>2026-04-11T10:16:26.132Z</time></trkpt><trkpt lat="44.0145233" lon="11.3299551"><ele>324.6</ele><time>2026-04-11T10:16:27.133Z</time></trkpt><trkpt lat="44.0145874" lon="11.3298726"><ele>325.0</ele><time>2026-04-11T10:16:28.132Z</time></trkpt><trkpt lat="44.0146497" lon="11.3297965"><ele>324.85714285714283</ele><time>2026-04-11T10:16:29.132Z</time></trkpt><trkpt lat="44.0147001" lon="11.3297241"><ele>324.7142857142857</ele><time>2026-04-11T10:16:30.133Z</time></trkpt><trkpt lat="44.0147539" lon="11.3296536"><ele>324.57142857142856</ele><time>2026-04-11T10:16:31.133Z</time></trkpt><trkpt lat="44.014814" lon="11.3295843"><ele>324.42857142857144</ele><time>2026-04-11T10:16:32.132Z</time></trkpt><trkpt lat="44.0148708" lon="11.3295331"><ele>324.2857142857143</ele><time>2026-04-11T10:16:33.133Z</time></trkpt><trkpt lat="44.0149338" lon="11.329493"><ele>324.14285714285717</ele><time>2026-04-11T10:16:34.133Z</time></trkpt><trkpt lat="44.0150009" lon="11.3294657"><ele>324.0</ele><time>2026-04-11T10:16:35.133Z</time></trkpt><trkpt lat="44.0150705" lon="11.3294571"><ele>324.0</ele><time>2026-04-11T10:16:36.131Z</time></trkpt><trkpt lat="44.0151412" lon="11.3294488"><ele>324.0</ele><time>2026-04-11T10:16:37.131Z</time></trkpt><trkpt lat="44.0152067" lon="11.3294569"><ele>324.0</ele><time>2026-04-11T10:16:38.133Z</time></trkpt><trkpt lat="44.0153206" lon="11.329498"><ele>324.0</ele><time>2026-04-11T10:16:40.133Z</time></trkpt><trkpt lat="44.0154431" lon="11.3295158"><ele>324.0</ele><time>2026-04-11T10:16:42.132Z</time></trkpt><trkpt lat="44.0155692" lon="11.3295046"><ele>324.0</ele><time>2026-04-11T10:16:44.132Z</time></trkpt><trkpt lat="44.0156379" lon="11.3294897"><ele>324.0</ele><time>2026-04-11T10:16:45.132Z</time></trkpt><trkpt lat="44.0157187" lon="11.3294407"><ele>324.0</ele><time>2026-04-11T10:16:46.133Z</time></trkpt><trkpt lat="44.0158042" lon="11.3293973"><ele>324.0</ele><time>2026-04-11T10:16:47.133Z</time></trkpt><trkpt lat="44.0158906" lon="11.3293481"><ele>324.0</ele><time>2026-04-11T10:16:48.132Z</time></trkpt><trkpt lat="44.0159781" lon="11.3293263"><ele>324.0</ele><time>2026-04-11T10:16:49.132Z</time></trkpt><trkpt lat="44.0160594" lon="11.3292947"><ele>324.6666666666667</ele><time>2026-04-11T10:16:50.133Z</time></trkpt><trkpt lat="44.0161394" lon="11.3292835"><ele>325.3333333333333</ele><time>2026-04-11T10:16:51.132Z</time></trkpt><trkpt lat="44.0162261" lon="11.32927"><ele>326.0</ele><time>2026-04-11T10:16:52.133Z</time></trkpt><trkpt lat="44.0163199" lon="11.3292477"><ele>326.66666666666663</ele><time>2026-04-11T10:16:53.133Z</time></trkpt><trkpt lat="44.0164081" lon="11.3292291"><ele>327.3333333333333</ele><time>2026-04-11T10:16:54.133Z</time></trkpt><trkpt lat="44.0165005" lon="11.3292065"><ele>328.0</ele><time>2026-04-11T10:16:55.131Z</time></trkpt><trkpt lat="44.0166014" lon="11.3291887"><ele>328.3333333333333</ele><time>2026-04-11T10:16:56.132Z</time></trkpt><trkpt lat="44.0166987" lon="11.3291674"><ele>328.66666666666663</ele><time>2026-04-11T10:16:57.133Z</time></trkpt><trkpt lat="44.0167921" lon="11.3291523"><ele>329.0</ele><time>2026-04-11T10:16:58.133Z</time></trkpt><trkpt lat="44.0168768" lon="11.3291623"><ele>329.3333333333333</ele><time>2026-04-11T10:16:59.133Z</time></trkpt><trkpt lat="44.0169539" lon="11.3291208"><ele>329.6666666666667</ele><time>2026-04-11T10:17:00.132Z</time></trkpt><trkpt lat="44.0170236" lon="11.3290571"><ele>330.0</ele><time>2026-04-11T10:17:01.132Z</time></trkpt><trkpt lat="44.0170848" lon="11.3289767"><ele>330.8</ele><time>2026-04-11T10:17:02.133Z</time></trkpt><trkpt lat="44.0171429" lon="11.3288724"><ele>331.6</ele><time>2026-04-11T10:17:03.133Z</time></trkpt><trkpt lat="44.0171919" lon="11.3287535"><ele>332.4</ele><time>2026-04-11T10:17:04.132Z</time></trkpt><trkpt lat="44.0172354" lon="11.3286254"><ele>333.2</ele><time>2026-04-11T10:17:05.132Z</time></trkpt><trkpt lat="44.0172732" lon="11.328492"><ele>334.0</ele><time>2026-04-11T10:17:06.132Z</time></trkpt><trkpt lat="44.0173082" lon="11.3283451"><ele>334.0</ele><time>2026-04-11T10:17:07.132Z</time></trkpt><trkpt lat="44.0173432" lon="11.3281949"><ele>334.0</ele><time>2026-04-11T10:17:08.132Z</time></trkpt><trkpt lat="44.0173852" lon="11.3280474"><ele>334.0</ele><time>2026-04-11T10:17:09.132Z</time></trkpt><trkpt lat="44.0174131" lon="11.327925"><ele>334.0</ele><time>2026-04-11T10:17:10.133Z</time></trkpt><trkpt lat="44.0174386" lon="11.3278258"><ele>334.0</ele><time>2026-04-11T10:17:11.133Z</time></trkpt><trkpt lat="44.0175265" lon="11.3277428"><ele>334.0</ele><time>2026-04-11T10:17:13.133Z</time></trkpt><trkpt lat="44.0176372" lon="11.3277982"><ele>334.0</ele><time>2026-04-11T10:17:15.132Z</time></trkpt><trkpt lat="44.0177001" lon="11.3278594"><ele>334.0</ele><time>2026-04-11T10:17:16.133Z</time></trkpt><trkpt lat="44.0177586" lon="11.3279097"><ele>334.0</ele><time>2026-04-11T10:17:17.133Z</time></trkpt><trkpt lat="44.0178139" lon="11.3279552"><ele>334.0</ele><time>2026-04-11T10:17:18.133Z</time></trkpt><trkpt lat="44.017902" lon="11.3280174"><ele>334.0</ele><time>2026-04-11T10:17:20.133Z</time></trkpt><trkpt lat="44.0179857" lon="11.3280519"><ele>334.6</ele><time>2026-04-11T10:17:22.133Z</time></trkpt><trkpt lat="44.0180758" lon="11.328101"><ele>335.2</ele><time>2026-04-11T10:17:24.133Z</time></trkpt><trkpt lat="44.018153" lon="11.3281926"><ele>335.8</ele><time>2026-04-11T10:17:26.133Z</time></trkpt><trkpt lat="44.0182551" lon="11.3282609"><ele>336.40000000000003</ele><time>2026-04-11T10:17:28.133Z</time></trkpt><trkpt lat="44.0183213" lon="11.328287"><ele>337.0</ele><time>2026-04-11T10:17:29.133Z</time></trkpt><trkpt lat="44.0184018" lon="11.3283143"><ele>337.40000000000003</ele><time>2026-04-11T10:17:30.133Z</time></trkpt><trkpt lat="44.0184891" lon="11.3283418"><ele>337.8</ele><time>2026-04-11T10:17:31.132Z</time></trkpt><trkpt lat="44.018598" lon="11.3283687"><ele>338.2</ele><time>2026-04-11T10:17:32.133Z</time></trkpt><trkpt lat="44.0187146" lon="11.3284006"><ele>338.6</ele><time>2026-04-11T10:17:33.133Z</time></trkpt><trkpt lat="44.0188367" lon="11.3284368"><ele>339.0</ele><time>2026-04-11T10:17:34.133Z</time></trkpt><trkpt lat="44.018951" lon="11.3284677"><ele>339.0</ele><time>2026-04-11T10:17:35.132Z</time></trkpt><trkpt lat="44.0190582" lon="11.3284987"><ele>339.0</ele><time>2026-04-11T10:17:36.132Z</time></trkpt><trkpt lat="44.019166" lon="11.32854"><ele>339.0</ele><time>2026-04-11T10:17:37.132Z</time></trkpt><trkpt lat="44.0192717" lon="11.3285928"><ele>339.0</ele><time>2026-04-11T10:17:38.133Z</time></trkpt><trkpt lat="44.0193769" lon="11.3286505"><ele>339.0</ele><time>2026-04-11T10:17:39.133Z</time></trkpt><trkpt lat="44.0194676" lon="11.3286985"><ele>339.3333333333333</ele><time>2026-04-11T10:17:40.133Z</time></trkpt><trkpt lat="44.019543" lon="11.328737"><ele>339.6666666666667</ele><time>2026-04-11T10:17:41.132Z</time></trkpt><trkpt lat="44.0196107" lon="11.3287757"><ele>340.0</ele><time>2026-04-11T10:17:42.133Z</time></trkpt><trkpt lat="44.0196647" lon="11.3288264"><ele>340.33333333333337</ele><time>2026-04-11T10:17:43.132Z</time></trkpt><trkpt lat="44.0197041" lon="11.3289416"><ele>340.6666666666667</ele><time>2026-04-11T10:17:45.133Z</time></trkpt><trkpt lat="44.0196915" lon="11.3290993"><ele>341.0</ele><time>2026-04-11T10:17:47.132Z</time></trkpt><trkpt lat="44.0196805" lon="11.3292362"><ele>341.0</ele><time>2026-04-11T10:17:49.132Z</time></trkpt><trkpt lat="44.0196768" lon="11.3293253"><ele>341.0</ele><time>2026-04-11T10:17:51.132Z</time></trkpt><trkpt lat="44.0196862" lon="11.3294212"><ele>341.0</ele><time>2026-04-11T10:17:55.133Z</time></trkpt></trkseg><trkseg><trkpt lat="44.0209488" lon="11.3351838"><ele>344.0</ele><time>2026-04-11T11:23:32.117Z</time></trkpt><trkpt lat="44.0210063" lon="11.3351285"><ele>344.0</ele><time>2026-04-11T11:24:24.116Z</time></trkpt><trkpt lat="44.0210713" lon="11.3351367"><ele>344.0</ele><time>2026-04-11T11:25:14.125Z</time></trkpt><trkpt lat="44.0211189" lon="11.3350777"><ele>344.0</ele><time>2026-04-11T11:25:28.115Z</time></trkpt><trkpt lat="44.0211662" lon="11.3349639"><ele>344.0</ele><time>2026-04-11T11:25:31.116Z</time></trkpt><trkpt lat="44.0212236" lon="11.3348136"><ele>344.0</ele><time>2026-04-11T11:25:33.115Z</time></trkpt><trkpt lat="44.0212497" lon="11.3346526"><ele>343.0</ele><time>2026-04-11T11:25:35.116Z</time></trkpt><trkpt lat="44.0212807" lon="11.3345389"><ele>342.0</ele><time>2026-04-11T11:25:37.115Z</time></trkpt><trkpt lat="44.0213036" lon="11.334453"><ele>341.0</ele><time>2026-04-11T11:25:39.116Z</time></trkpt><trkpt lat="44.0213355" lon="11.334367"><ele>340.0</ele><time>2026-04-11T11:25:41.116Z</time></trkpt><trkpt lat="44.021301" lon="11.3342879"><ele>339.0</ele><time>2026-04-11T11:25:44.116Z</time></trkpt><trkpt lat="44.0212216" lon="11.3342363"><ele>338.0</ele><time>2026-04-11T11:25:47.115Z</time></trkpt><trkpt lat="44.0211885" lon="11.3341425"><ele>338.0</ele><time>2026-04-11T11:25:49.116Z</time></trkpt><trkpt lat="44.0212031" lon="11.3340033"><ele>338.0</ele><time>2026-04-11T11:25:51.115Z</time></trkpt><trkpt lat="44.0212101" lon="11.3338676"><ele>338.0</ele><time>2026-04-11T11:25:53.115Z</time></trkpt><trkpt lat="44.0212152" lon="11.333744"><ele>338.0</ele><time>2026-04-11T11:25:55.116Z</time></trkpt><trkpt lat="44.0212412" lon="11.3336178"><ele>338.0</ele><time>2026-04-11T11:25:57.116Z</time></trkpt><trkpt lat="44.0212697" lon="11.3335354"><ele>338.0</ele><time>2026-04-11T11:25:58.116Z</time></trkpt><trkpt lat="44.0213023" lon="11.3333968"><ele>336.0</ele><time>2026-04-11T11:26:00.114Z</time></trkpt><trkpt lat="44.0213519" lon="11.3332094"><ele>334.0</ele><time>2026-04-11T11:26:02.115Z</time></trkpt><trkpt lat="44.0213713" lon="11.3331256"><ele>332.0</ele><time>2026-04-11T11:26:03.115Z</time></trkpt><trkpt lat="44.0213776" lon="11.3329805"><ele>330.0</ele><time>2026-04-11T11:26:05.115Z</time></trkpt><trkpt lat="44.0212842" lon="11.3328485"><ele>328.0</ele><time>2026-04-11T11:26:07.116Z</time></trkpt><trkpt lat="44.021217" lon="11.3327992"><ele>327.8333333333333</ele><time>2026-04-11T11:26:08.116Z</time></trkpt><trkpt lat="44.0211478" lon="11.3327471"><ele>327.66666666666663</ele><time>2026-04-11T11:26:09.116Z</time></trkpt><trkpt lat="44.0210766" lon="11.33268"><ele>327.5</ele><time>2026-04-11T11:26:10.116Z</time></trkpt><trkpt lat="44.0210096" lon="11.3326042"><ele>327.3333333333333</ele><time>2026-04-11T11:26:11.116Z</time></trkpt><trkpt lat="44.0209568" lon="11.3325357"><ele>327.1666666666667</ele><time>2026-04-11T11:26:12.116Z</time></trkpt><trkpt lat="44.0208779" lon="11.3324345"><ele>327.0</ele><time>2026-04-11T11:26:14.115Z</time></trkpt><trkpt lat="44.0208166" lon="11.3323516"><ele>326.3333333333333</ele><time>2026-04-11T11:26:16.116Z</time></trkpt><trkpt lat="44.0207482" lon="11.3322794"><ele>325.6666666666667</ele><time>2026-04-11T11:26:19.116Z</time></trkpt><trkpt lat="44.0206826" lon="11.3322444"><ele>325.0</ele><time>2026-04-11T11:26:46.116Z</time></trkpt><trkpt lat="44.0206152" lon="11.3322047"><ele>324.33333333333337</ele><time>2026-04-11T11:26:48.116Z</time></trkpt><trkpt lat="44.0205403" lon="11.332155"><ele>323.6666666666667</ele><time>2026-04-11T11:26:50.116Z</time></trkpt><trkpt lat="44.0204723" lon="11.332092"><ele>323.0</ele><time>2026-04-11T11:26:52.116Z</time></trkpt><trkpt lat="44.0204053" lon="11.3319525"><ele>323.0</ele><time>2026-04-11T11:26:54.116Z</time></trkpt><trkpt lat="44.0203436" lon="11.3318089"><ele>323.0</ele><time>2026-04-11T11:26:56.116Z</time></trkpt><trkpt lat="44.0203129" lon="11.3317252"><ele>323.0</ele><time>2026-04-11T11:26:57.116Z</time></trkpt><trkpt lat="44.020283" lon="11.331638"><ele>323.0</ele><time>2026-04-11T11:26:58.115Z</time></trkpt><trkpt lat="44.0202588" lon="11.3315428"><ele>323.0</ele><time>2026-04-11T11:26:59.116Z</time></trkpt><trkpt lat="44.0202309" lon="11.3314293"><ele>323.0</ele><time>2026-04-11T11:27:00.116Z</time></trkpt><trkpt lat="44.0202036" lon="11.3313145"><ele>324.4</ele><time>2026-04-11T11:27:01.116Z</time></trkpt><trkpt lat="44.0201758" lon="11.3311984"><ele>325.79999999999995</ele><time>2026-04-11T11:27:02.116Z</time></trkpt><trkpt lat="44.0201477" lon="11.3310802"><ele>327.2</ele><time>2026-04-11T11:27:03.116Z</time></trkpt><trkpt lat="44.0201181" lon="11.3309537"><ele>328.6</ele><time>2026-04-11T11:27:04.116Z</time></trkpt><trkpt lat="44.0200836" lon="11.3308251"><ele>330.0</ele><time>2026-04-11T11:27:05.115Z</time></trkpt><trkpt lat="44.0200504" lon="11.3306983"><ele>330.0</ele><time>2026-04-11T11:27:06.116Z</time></trkpt><trkpt lat="44.0200176" lon="11.3305716"><ele>330.0</ele><time>2026-04-11T11:27:07.116Z</time></trkpt><trkpt lat="44.0199836" lon="11.3304486"><ele>330.0</ele><time>2026-04-11T11:27:08.115Z</time></trkpt><trkpt lat="44.0199546" lon="11.3303383"><ele>330.0</ele><time>2026-04-11T11:27:09.115Z</time></trkpt><trkpt lat="44.0199274" lon="11.3302328"><ele>330.0</ele><time>2026-04-11T11:27:10.115Z</time></trkpt><trkpt lat="44.019913" lon="11.3301134"><ele>330.0</ele><time>2026-04-11T11:27:11.115Z</time></trkpt><trkpt lat="44.0199428" lon="11.329987"><ele>332.0</ele><time>2026-04-11T11:27:12.115Z</time></trkpt><trkpt lat="44.0200164" lon="11.3298922"><ele>334.0</ele><time>2026-04-11T11:27:13.116Z</time></trkpt><trkpt lat="44.0201147" lon="11.3298448"><ele>336.0</ele><time>2026-04-11T11:27:14.116Z</time></trkpt><trkpt lat="44.0202098" lon="11.3298379"><ele>338.0</ele><time>2026-04-11T11:27:15.116Z</time></trkpt><trkpt lat="44.020311" lon="11.3298286"><ele>340.0</ele><time>2026-04-11T11:27:16.115Z</time></trkpt><trkpt lat="44.0203961" lon="11.3298247"><ele>340.0</ele><time>2026-04-11T11:27:17.115Z</time></trkpt><trkpt lat="44.0204915" lon="11.3298147"><ele>340.0</ele><time>2026-04-11T11:27:18.116Z</time></trkpt><trkpt lat="44.0205857" lon="11.3297814"><ele>340.0</ele><time>2026-04-11T11:27:19.115Z</time></trkpt><trkpt lat="44.0206777" lon="11.329705"><ele>340.0</ele><time>2026-04-11T11:27:20.116Z</time></trkpt><trkpt lat="44.0207732" lon="11.3296034"><ele>340.0</ele><time>2026-04-11T11:27:21.116Z</time></trkpt><trkpt lat="44.0208645" lon="11.3294746"><ele>342.5</ele><time>2026-04-11T11:27:22.116Z</time></trkpt><trkpt lat="44.0209452" lon="11.3293255"><ele>345.0</ele><time>2026-04-11T11:27:23.115Z</time></trkpt><trkpt lat="44.0210252" lon="11.3291556"><ele>347.5</ele><time>2026-04-11T11:27:24.116Z</time></trkpt><trkpt lat="44.0210868" lon="11.3289856"><ele>350.0</ele><time>2026-04-11T11:27:25.115Z</time></trkpt><trkpt lat="44.0211325" lon="11.3288354"><ele>350.0</ele><time>2026-04-11T11:27:26.116Z</time></trkpt><trkpt lat="44.021167" lon="11.3286992"><ele>350.0</ele><time>2026-04-11T11:27:27.115Z</time></trkpt><trkpt lat="44.0211898" lon="11.3285778"><ele>350.0</ele><time>2026-04-11T11:27:28.116Z</time></trkpt><trkpt lat="44.0212079" lon="11.3284579"><ele>350.0</ele><time>2026-04-11T11:27:29.115Z</time></trkpt><trkpt lat="44.021228" lon="11.3283431"><ele>350.0</ele><time>2026-04-11T11:27:30.116Z</time></trkpt><trkpt lat="44.0212629" lon="11.3282568"><ele>350.0</ele><time>2026-04-11T11:27:31.116Z</time></trkpt><trkpt lat="44.0213115" lon="11.3281728"><ele>350.0</ele><time>2026-04-11T11:27:32.116Z</time></trkpt><trkpt lat="44.0213648" lon="11.3280962"><ele>350.0</ele><time>2026-04-11T11:27:33.116Z</time></trkpt><trkpt lat="44.0214203" lon="11.3280244"><ele>350.0</ele><time>2026-04-11T11:27:34.116Z</time></trkpt><trkpt lat="44.0214936" lon="11.3279861"><ele>350.0</ele><time>2026-04-11T11:27:35.116Z</time></trkpt><trkpt lat="44.0215735" lon="11.3279845"><ele>350.0</ele><time>2026-04-11T11:27:36.115Z</time></trkpt><trkpt lat="44.0216557" lon="11.3280246"><ele>350.0</ele><time>2026-04-11T11:27:37.114Z</time></trkpt><trkpt lat="44.0217254" lon="11.3280685"><ele>350.6666666666667</ele><time>2026-04-11T11:27:38.115Z</time></trkpt><trkpt lat="44.0217866" lon="11.3281049"><ele>351.33333333333337</ele><time>2026-04-11T11:27:39.116Z</time></trkpt><trkpt lat="44.0218583" lon="11.3281394"><ele>352.0</ele><time>2026-04-11T11:27:40.116Z</time></trkpt><trkpt lat="44.0219304" lon="11.3281461"><ele>352.6666666666667</ele><time>2026-04-11T11:27:41.116Z</time></trkpt><trkpt lat="44.0220052" lon="11.3281162"><ele>353.3333333333333</ele><time>2026-04-11T11:27:42.116Z</time></trkpt><trkpt lat="44.0220877" lon="11.3280725"><ele>354.0</ele><time>2026-04-11T11:27:43.115Z</time></trkpt><trkpt lat="44.0221829" lon="11.3279915"><ele>354.0</ele><time>2026-04-11T11:27:44.116Z</time></trkpt><trkpt lat="44.0222699" lon="11.3279376"><ele>354.0</ele><time>2026-04-11T11:27:45.116Z</time></trkpt><trkpt lat="44.0223473" lon="11.3278853"><ele>354.0</ele><time>2026-04-11T11:27:46.116Z</time></trkpt><trkpt lat="44.0224241" lon="11.3278278"><ele>354.0</ele><time>2026-04-11T11:27:47.116Z</time></trkpt><trkpt lat="44.0225098" lon="11.3277777"><ele>354.0</ele><time>2026-04-11T11:27:48.116Z</time></trkpt><trkpt lat="44.0226" lon="11.3277377"><ele>355.1666666666667</ele><time>2026-04-11T11:27:49.116Z</time></trkpt><trkpt lat="44.0227016" lon="11.3277205"><ele>356.3333333333333</ele><time>2026-04-11T11:27:50.116Z</time></trkpt><trkpt lat="44.022805" lon="11.3277223"><ele>357.5</ele><time>2026-04-11T11:27:51.116Z</time></trkpt><trkpt lat="44.0228865" lon="11.3277115"><ele>358.66666666666663</ele><time>2026-04-11T11:27:52.116Z</time></trkpt><trkpt lat="44.0229615" lon="11.327672"><ele>359.8333333333333</ele><time>2026-04-11T11:27:53.116Z</time></trkpt><trkpt lat="44.0230154" lon="11.3275926"><ele>361.0</ele><time>2026-04-11T11:27:54.116Z</time></trkpt><trkpt lat="44.0230379" lon="11.327483"><ele>361.0</ele><time>2026-04-11T11:27:55.116Z</time></trkpt><trkpt lat="44.0230468" lon="11.3273525"><ele>361.0</ele><time>2026-04-11T11:27:56.116Z</time></trkpt><trkpt lat="44.02306" lon="11.3272261"><ele>361.0</ele><time>2026-04-11T11:27:57.116Z</time></trkpt><trkpt lat="44.0230793" lon="11.3270947"><ele>361.0</ele><time>2026-04-11T11:27:58.116Z</time></trkpt><trkpt lat="44.0231063" lon="11.3269634"><ele>361.0</ele><time>2026-04-11T11:27:59.115Z</time></trkpt><trkpt lat="44.0231465" lon="11.3268347"><ele>360.6</ele><time>2026-04-11T11:28:00.115Z</time></trkpt><trkpt lat="44.0231977" lon="11.3267085"><ele>360.20000000000005</ele><time>2026-04-11T11:28:01.115Z</time></trkpt><trkpt lat="44.0232517" lon="11.3265816"><ele>359.79999999999995</ele><time>2026-04-11T11:28:02.116Z</time></trkpt><trkpt lat="44.0233092" lon="11.3264536"><ele>359.4</ele><time>2026-04-11T11:28:03.116Z</time></trkpt><trkpt lat="44.0233679" lon="11.3263274"><ele>359.0</ele><time>2026-04-11T11:28:04.116Z</time></trkpt><trkpt lat="44.023426" lon="11.3261993"><ele>362.4</ele><time>2026-04-11T11:28:05.116Z</time></trkpt><trkpt lat="44.0234848" lon="11.3260754"><ele>365.79999999999995</ele><time>2026-04-11T11:28:06.116Z</time></trkpt><trkpt lat="44.0235408" lon="11.3259533"><ele>369.20000000000005</ele><time>2026-04-11T11:28:07.116Z</time></trkpt><trkpt lat="44.0235835" lon="11.3258429"><ele>372.6</ele><time>2026-04-11T11:28:08.116Z</time></trkpt><trkpt lat="44.0236339" lon="11.3257304"><ele>376.0</ele><time>2026-04-11T11:28:09.115Z</time></trkpt><trkpt lat="44.0236844" lon="11.3256168"><ele>376.6</ele><time>2026-04-11T11:28:10.116Z</time></trkpt><trkpt lat="44.0237358" lon="11.3255023"><ele>377.20000000000005</ele><time>2026-04-11T11:28:11.116Z</time></trkpt><trkpt lat="44.0237876" lon="11.3253792"><ele>377.79999999999995</ele><time>2026-04-11T11:28:12.116Z</time></trkpt><trkpt lat="44.0238429" lon="11.325254"><ele>378.4</ele><time>2026-04-11T11:28:13.116Z</time></trkpt><trkpt lat="44.0238977" lon="11.3251209"><ele>379.0</ele><time>2026-04-11T11:28:14.116Z</time></trkpt><trkpt lat="44.0239539" lon="11.3249856"><ele>379.0</ele><time>2026-04-11T11:28:15.115Z</time></trkpt><trkpt lat="44.0240062" lon="11.324866"><ele>379.0</ele><time>2026-04-11T11:28:16.115Z</time></trkpt><trkpt lat="44.0240555" lon="11.3247539"><ele>379.0</ele><time>2026-04-11T11:28:17.115Z</time></trkpt><trkpt lat="44.0241072" lon="11.324647"><ele>379.0</ele><time>2026-04-11T11:28:18.116Z</time></trkpt><trkpt lat="44.0241581" lon="11.324552"><ele>379.0</ele><time>2026-04-11T11:28:19.116Z</time></trkpt><trkpt lat="44.0242133" lon="11.3244567"><ele>382.2</ele><time>2026-04-11T11:28:20.115Z</time></trkpt><trkpt lat="44.0242619" lon="11.3243895"><ele>385.4</ele><time>2026-04-11T11:28:21.114Z</time></trkpt><trkpt lat="44.0243601" lon="11.3242693"><ele>388.6</ele><time>2026-04-11T11:28:23.114Z</time></trkpt><trkpt lat="44.0244205" lon="11.3242021"><ele>391.8</ele><time>2026-04-11T11:28:24.115Z</time></trkpt><trkpt lat="44.0244917" lon="11.3241205"><ele>395.0</ele><time>2026-04-11T11:28:25.115Z</time></trkpt><trkpt lat="44.0245681" lon="11.3240334"><ele>395.0</ele><time>2026-04-11T11:28:26.115Z</time></trkpt><trkpt lat="44.0246587" lon="11.323964"><ele>395.0</ele><time>2026-04-11T11:28:27.115Z</time></trkpt><trkpt lat="44.024758" lon="11.3239177"><ele>395.0</ele><time>2026-04-11T11:28:28.115Z</time></trkpt><trkpt lat="44.0248612" lon="11.3238859"><ele>395.0</ele><time>2026-04-11T11:28:29.115Z</time></trkpt><trkpt lat="44.0249716" lon="11.3238575"><ele>395.0</ele><time>2026-04-11T11:28:30.115Z</time></trkpt><trkpt lat="44.0250855" lon="11.323836"><ele>395.0</ele><time>2026-04-11T11:28:31.114Z</time></trkpt><trkpt lat="44.0251946" lon="11.3238238"><ele>395.0</ele><time>2026-04-11T11:28:32.114Z</time></trkpt><trkpt lat="44.0253001" lon="11.3238289"><ele>395.0</ele><time>2026-04-11T11:28:33.115Z</time></trkpt><trkpt lat="44.0254045" lon="11.3238503"><ele>395.0</ele><time>2026-04-11T11:28:34.114Z</time></trkpt><trkpt lat="44.0254989" lon="11.3238765"><ele>395.0</ele><time>2026-04-11T11:28:35.114Z</time></trkpt><trkpt lat="44.0255885" lon="11.3239084"><ele>395.0</ele><time>2026-04-11T11:28:36.114Z</time></trkpt><trkpt lat="44.0256794" lon="11.3239348"><ele>395.0</ele><time>2026-04-11T11:28:37.114Z</time></trkpt><trkpt lat="44.0257613" lon="11.323962"><ele>395.0</ele><time>2026-04-11T11:28:38.114Z</time></trkpt><trkpt lat="44.0258479" lon="11.3240188"><ele>395.0</ele><time>2026-04-11T11:28:39.114Z</time></trkpt><trkpt lat="44.0259335" lon="11.3240692"><ele>395.0</ele><time>2026-04-11T11:28:40.114Z</time></trkpt><trkpt lat="44.0260204" lon="11.3241222"><ele>393.6</ele><time>2026-04-11T11:28:41.114Z</time></trkpt><trkpt lat="44.0260978" lon="11.324158"><ele>392.2</ele><time>2026-04-11T11:28:42.114Z</time></trkpt><trkpt lat="44.0261774" lon="11.3241542"><ele>390.79999999999995</ele><time>2026-04-11T11:28:43.115Z</time></trkpt><trkpt lat="44.0262488" lon="11.3240982"><ele>389.4</ele><time>2026-04-11T11:28:44.114Z</time></trkpt><trkpt lat="44.0263114" lon="11.3239957"><ele>388.0</ele><time>2026-04-11T11:28:45.114Z</time></trkpt><trkpt lat="44.0263616" lon="11.3238594"><ele>383.25</ele><time>2026-04-11T11:28:46.115Z</time></trkpt><trkpt lat="44.0264004" lon="11.3237175"><ele>378.5</ele><time>2026-04-11T11:28:47.114Z</time></trkpt><trkpt lat="44.0264286" lon="11.3235468"><ele>373.75</ele><time>2026-04-11T11:28:48.115Z</time></trkpt><trkpt lat="44.0264444" lon="11.3233673"><ele>369.0</ele><time>2026-04-11T11:28:49.115Z</time></trkpt><trkpt lat="44.026452" lon="11.3232029"><ele>367.6</ele><time>2026-04-11T11:28:50.114Z</time></trkpt><trkpt lat="44.0264557" lon="11.3230509"><ele>366.2</ele><time>2026-04-11T11:28:51.115Z</time></trkpt><trkpt lat="44.0264593" lon="11.3229093"><ele>364.8</ele><time>2026-04-11T11:28:52.114Z</time></trkpt><trkpt lat="44.0264672" lon="11.3227665"><ele>363.40000000000003</ele><time>2026-04-11T11:28:53.114Z</time></trkpt><trkpt lat="44.0264871" lon="11.3226281"><ele>362.0</ele><time>2026-04-11T11:28:54.113Z</time></trkpt><trkpt lat="44.0265249" lon="11.3224878"><ele>362.0</ele><time>2026-04-11T11:28:55.114Z</time></trkpt><trkpt lat="44.0265788" lon="11.3223546"><ele>362.0</ele><time>2026-04-11T11:28:56.115Z</time></trkpt><trkpt lat="44.0266412" lon="11.3222239"><ele>362.0</ele><time>2026-04-11T11:28:57.115Z</time></trkpt><trkpt lat="44.0267107" lon="11.3220992"><ele>362.0</ele><time>2026-04-11T11:28:58.114Z</time></trkpt><trkpt lat="44.0267779" lon="11.3219764"><ele>362.0</ele><time>2026-04-11T11:28:59.115Z</time></trkpt><trkpt lat="44.0268217" lon="11.3218694"><ele>364.6666666666667</ele><time>2026-04-11T11:29:00.115Z</time></trkpt><trkpt lat="44.0268526" lon="11.3217866"><ele>367.33333333333337</ele><time>2026-04-11T11:29:01.115Z</time></trkpt><trkpt lat="44.026938" lon="11.3216902"><ele>370.0</ele><time>2026-04-11T11:29:03.115Z</time></trkpt><trkpt lat="44.0270001" lon="11.3216487"><ele>372.6666666666667</ele><time>2026-04-11T11:29:04.115Z</time></trkpt><trkpt lat="44.027065" lon="11.3216161"><ele>375.3333333333333</ele><time>2026-04-11T11:29:05.115Z</time></trkpt><trkpt lat="44.027143" lon="11.3215844"><ele>378.0</ele><time>2026-04-11T11:29:06.115Z</time></trkpt><trkpt lat="44.0272237" lon="11.3215573"><ele>378.0</ele><time>2026-04-11T11:29:07.114Z</time></trkpt><trkpt lat="44.027296" lon="11.3215289"><ele>378.0</ele><time>2026-04-11T11:29:08.115Z</time></trkpt><trkpt lat="44.0273638" lon="11.3214815"><ele>378.0</ele><time>2026-04-11T11:29:09.114Z</time></trkpt><trkpt lat="44.0274232" lon="11.321414"><ele>378.0</ele><time>2026-04-11T11:29:10.115Z</time></trkpt><trkpt lat="44.0274694" lon="11.3212548"><ele>378.0</ele><time>2026-04-11T11:29:12.115Z</time></trkpt><trkpt lat="44.0274634" lon="11.3211615"><ele>378.0</ele><time>2026-04-11T11:29:13.115Z</time></trkpt><trkpt lat="44.0274467" lon="11.3210616"><ele>376.3333333333333</ele><time>2026-04-11T11:29:14.115Z</time></trkpt><trkpt lat="44.027432" lon="11.3209563"><ele>374.6666666666667</ele><time>2026-04-11T11:29:15.114Z</time></trkpt><trkpt lat="44.0274181" lon="11.3208551"><ele>373.0</ele><time>2026-04-11T11:29:16.114Z</time></trkpt><trkpt lat="44.0274054" lon="11.3207484"><ele>371.33333333333337</ele><time>2026-04-11T11:29:17.115Z</time></trkpt><trkpt lat="44.0273969" lon="11.320643"><ele>369.6666666666667</ele><time>2026-04-11T11:29:18.115Z</time></trkpt><trkpt lat="44.0273981" lon="11.3205252"><ele>368.0</ele><time>2026-04-11T11:29:19.114Z</time></trkpt><trkpt lat="44.0274115" lon="11.3203993"><ele>366.5</ele><time>2026-04-11T11:29:20.115Z</time></trkpt><trkpt lat="44.0274279" lon="11.3202724"><ele>365.0</ele><time>2026-04-11T11:29:21.115Z</time></trkpt><trkpt lat="44.0274341" lon="11.3201575"><ele>363.5</ele><time>2026-04-11T11:29:22.115Z</time></trkpt><trkpt lat="44.027436" lon="11.3200459"><ele>362.0</ele><time>2026-04-11T11:29:23.115Z</time></trkpt><trkpt lat="44.027438" lon="11.3199244"><ele>360.5</ele><time>2026-04-11T11:29:24.114Z</time></trkpt><trkpt lat="44.0274381" lon="11.3198"><ele>359.0</ele><time>2026-04-11T11:29:25.115Z</time></trkpt><trkpt lat="44.0274383" lon="11.319677"><ele>359.0</ele><time>2026-04-11T11:29:26.115Z</time></trkpt><trkpt lat="44.0274406" lon="11.3195711"><ele>359.0</ele><time>2026-04-11T11:29:27.114Z</time></trkpt><trkpt lat="44.0274463" lon="11.31947"><ele>359.0</ele><time>2026-04-11T11:29:28.114Z</time></trkpt><trkpt lat="44.0274604" lon="11.3193604"><ele>359.0</ele><time>2026-04-11T11:29:29.114Z</time></trkpt><trkpt lat="44.0274793" lon="11.31926"><ele>359.0</ele><time>2026-04-11T11:29:30.114Z</time></trkpt><trkpt lat="44.0274997" lon="11.3191686"><ele>359.0</ele><time>2026-04-11T11:29:31.115Z</time></trkpt><trkpt lat="44.0275204" lon="11.3190846"><ele>359.0</ele><time>2026-04-11T11:29:32.114Z</time></trkpt><trkpt lat="44.0275459" lon="11.3190017"><ele>361.5</ele><time>2026-04-11T11:29:33.114Z</time></trkpt><trkpt lat="44.0275817" lon="11.3189107"><ele>364.0</ele><time>2026-04-11T11:29:34.114Z</time></trkpt><trkpt lat="44.027618" lon="11.3188315"><ele>366.5</ele><time>2026-04-11T11:29:35.114Z</time></trkpt><trkpt lat="44.027651" lon="11.3187536"><ele>369.0</ele><time>2026-04-11T11:29:36.115Z</time></trkpt><trkpt lat="44.0276908" lon="11.3186756"><ele>371.5</ele><time>2026-04-11T11:29:37.115Z</time></trkpt><trkpt lat="44.0277285" lon="11.318605"><ele>374.0</ele><time>2026-04-11T11:29:38.115Z</time></trkpt><trkpt lat="44.0278151" lon="11.3184924"><ele>374.0</ele><time>2026-04-11T11:29:40.114Z</time></trkpt><trkpt lat="44.0278749" lon="11.3183672"><ele>374.0</ele><time>2026-04-11T11:29:42.115Z</time></trkpt><trkpt lat="44.0278516" lon="11.3182658"><ele>374.0</ele><time>2026-04-11T11:29:44.115Z</time></trkpt><trkpt lat="44.0277592" lon="11.3182099"><ele>374.0</ele><time>2026-04-11T11:29:46.115Z</time></trkpt><trkpt lat="44.027654" lon="11.3182001"><ele>374.0</ele><time>2026-04-11T11:29:48.115Z</time></trkpt><trkpt lat="44.027582" lon="11.3181291"><ele>375.4</ele><time>2026-04-11T11:29:50.115Z</time></trkpt><trkpt lat="44.0275251" lon="11.3180343"><ele>376.79999999999995</ele><time>2026-04-11T11:29:52.114Z</time></trkpt><trkpt lat="44.0274489" lon="11.3179325"><ele>378.20000000000005</ele><time>2026-04-11T11:29:54.115Z</time></trkpt><trkpt lat="44.0273712" lon="11.3178224"><ele>379.6</ele><time>2026-04-11T11:29:56.115Z</time></trkpt><trkpt lat="44.027328" lon="11.3176837"><ele>381.0</ele><time>2026-04-11T11:29:58.115Z</time></trkpt><trkpt lat="44.0273047" lon="11.3175544"><ele>379.0</ele><time>2026-04-11T11:30:00.114Z</time></trkpt><trkpt lat="44.0272679" lon="11.3174043"><ele>377.0</ele><time>2026-04-11T11:30:02.115Z</time></trkpt><trkpt lat="44.027232" lon="11.3172641"><ele>375.0</ele><time>2026-04-11T11:30:04.114Z</time></trkpt><trkpt lat="44.0271749" lon="11.3171605"><ele>373.0</ele><time>2026-04-11T11:30:06.114Z</time></trkpt><trkpt lat="44.0271063" lon="11.3170941"><ele>371.0</ele><time>2026-04-11T11:30:08.114Z</time></trkpt><trkpt lat="44.0270309" lon="11.3170386"><ele>371.0</ele><time>2026-04-11T11:30:10.114Z</time></trkpt><trkpt lat="44.0269428" lon="11.3170051"><ele>371.0</ele><time>2026-04-11T11:30:12.115Z</time></trkpt><trkpt lat="44.0268308" lon="11.3169526"><ele>371.0</ele><time>2026-04-11T11:30:14.114Z</time></trkpt><trkpt lat="44.0267342" lon="11.3168787"><ele>371.0</ele><time>2026-04-11T11:30:16.115Z</time></trkpt><trkpt lat="44.0266771" lon="11.3168276"><ele>371.0</ele><time>2026-04-11T11:30:17.115Z</time></trkpt><trkpt lat="44.0266293" lon="11.3167551"><ele>368.0</ele><time>2026-04-11T11:30:18.114Z</time></trkpt><trkpt lat="44.0265658" lon="11.3166105"><ele>365.0</ele><time>2026-04-11T11:30:20.115Z</time></trkpt><trkpt lat="44.0265251" lon="11.3164784"><ele>362.0</ele><time>2026-04-11T11:30:22.115Z</time></trkpt><trkpt lat="44.0264874" lon="11.3163405"><ele>359.0</ele><time>2026-04-11T11:30:24.115Z</time></trkpt><trkpt lat="44.0264662" lon="11.3162334"><ele>356.0</ele><time>2026-04-11T11:30:26.115Z</time></trkpt><trkpt lat="44.0264543" lon="11.3161175"><ele>356.0</ele><time>2026-04-11T11:30:28.115Z</time></trkpt><trkpt lat="44.0264404" lon="11.3160188"><ele>356.0</ele><time>2026-04-11T11:30:30.114Z</time></trkpt><trkpt lat="44.0264588" lon="11.3158796"><ele>356.0</ele><time>2026-04-11T11:30:33.115Z</time></trkpt><trkpt lat="44.0264865" lon="11.3157547"><ele>356.0</ele><time>2026-04-11T11:30:35.115Z</time></trkpt><trkpt lat="44.0264678" lon="11.3156299"><ele>356.0</ele><time>2026-04-11T11:30:37.115Z</time></trkpt><trkpt lat="44.0264235" lon="11.3155288"><ele>356.0</ele><time>2026-04-11T11:30:39.115Z</time></trkpt><trkpt lat="44.0263791" lon="11.3154375"><ele>356.20000000000005</ele><time>2026-04-11T11:30:41.115Z</time></trkpt><trkpt lat="44.0263433" lon="11.3153377"><ele>356.40000000000003</ele><time>2026-04-11T11:30:43.115Z</time></trkpt><trkpt lat="44.0263066" lon="11.3152266"><ele>356.6</ele><time>2026-04-11T11:30:45.115Z</time></trkpt><trkpt lat="44.0263152" lon="11.3151126"><ele>356.8</ele><time>2026-04-11T11:30:47.115Z</time></trkpt><trkpt lat="44.0263535" lon="11.3149751"><ele>357.0</ele><time>2026-04-11T11:30:49.115Z</time></trkpt><trkpt lat="44.0263844" lon="11.3148193"><ele>358.5</ele><time>2026-04-11T11:30:51.115Z</time></trkpt><trkpt lat="44.026407" lon="11.3146542"><ele>360.0</ele><time>2026-04-11T11:30:53.114Z</time></trkpt><trkpt lat="44.0264083" lon="11.3145621"><ele>361.5</ele><time>2026-04-11T11:30:54.114Z</time></trkpt><trkpt lat="44.0264128" lon="11.3144654"><ele>363.0</ele><time>2026-04-11T11:30:55.114Z</time></trkpt><trkpt lat="44.0264212" lon="11.3143674"><ele>364.5</ele><time>2026-04-11T11:30:56.115Z</time></trkpt><trkpt lat="44.0264273" lon="11.3142712"><ele>366.0</ele><time>2026-04-11T11:30:57.115Z</time></trkpt><trkpt lat="44.026438" lon="11.3141761"><ele>366.0</ele><time>2026-04-11T11:30:58.114Z</time></trkpt><trkpt lat="44.0264494" lon="11.3140779"><ele>366.0</ele><time>2026-04-11T11:30:59.114Z</time></trkpt><trkpt lat="44.0264567" lon="11.3139813"><ele>366.0</ele><time>2026-04-11T11:31:00.114Z</time></trkpt><trkpt lat="44.026469" lon="11.3138847"><ele>366.0</ele><time>2026-04-11T11:31:01.115Z</time></trkpt><trkpt lat="44.026481" lon="11.3137875"><ele>366.0</ele><time>2026-04-11T11:31:02.115Z</time></trkpt><trkpt lat="44.026496" lon="11.3136345"><ele>366.0</ele><time>2026-04-11T11:31:04.114Z</time></trkpt><trkpt lat="44.02652" lon="11.3134771"><ele>365.8333333333333</ele><time>2026-04-11T11:31:06.115Z</time></trkpt><trkpt lat="44.0265417" lon="11.3133712"><ele>365.6666666666667</ele><time>2026-04-11T11:31:07.115Z</time></trkpt><trkpt lat="44.02655" lon="11.3132413"><ele>365.5</ele><time>2026-04-11T11:31:08.115Z</time></trkpt><trkpt lat="44.0265501" lon="11.3131167"><ele>365.33333333333337</ele><time>2026-04-11T11:31:09.115Z</time></trkpt><trkpt lat="44.0265518" lon="11.3130082"><ele>365.1666666666667</ele><time>2026-04-11T11:31:10.115Z</time></trkpt><trkpt lat="44.0265551" lon="11.3129068"><ele>365.0</ele><time>2026-04-11T11:31:11.115Z</time></trkpt><trkpt lat="44.0265555" lon="11.3128117"><ele>364.5</ele><time>2026-04-11T11:31:12.115Z</time></trkpt><trkpt lat="44.026554" lon="11.3127181"><ele>364.0</ele><time>2026-04-11T11:31:13.115Z</time></trkpt><trkpt lat="44.026548" lon="11.3125778"><ele>363.5</ele><time>2026-04-11T11:31:15.114Z</time></trkpt><trkpt lat="44.0265533" lon="11.3124781"><ele>363.0</ele><time>2026-04-11T11:31:43.115Z</time></trkpt><trkpt lat="44.0265528" lon="11.3123686"><ele>362.5</ele><time>2026-04-11T11:31:46.115Z</time></trkpt><trkpt lat="44.0265591" lon="11.3122655"><ele>362.0</ele><time>2026-04-11T11:31:50.115Z</time></trkpt><trkpt lat="44.0265702" lon="11.3121713"><ele>362.0</ele><time>2026-04-11T11:31:53.114Z</time></trkpt><trkpt lat="44.0265906" lon="11.3120323"><ele>362.0</ele><time>2026-04-11T11:31:55.114Z</time></trkpt><trkpt lat="44.0266332" lon="11.3118705"><ele>362.0</ele><time>2026-04-11T11:31:57.115Z</time></trkpt><trkpt lat="44.0266934" lon="11.3117245"><ele>362.0</ele><time>2026-04-11T11:31:59.114Z</time></trkpt><trkpt lat="44.0267326" lon="11.3116499"><ele>362.0</ele><time>2026-04-11T11:32:00.115Z</time></trkpt><trkpt lat="44.0267754" lon="11.3115683"><ele>363.5</ele><time>2026-04-11T11:32:01.115Z</time></trkpt><trkpt lat="44.0268188" lon="11.3114909"><ele>365.0</ele><time>2026-04-11T11:32:02.115Z</time></trkpt><trkpt lat="44.0268643" lon="11.3114168"><ele>366.5</ele><time>2026-04-11T11:32:03.115Z</time></trkpt><trkpt lat="44.0269039" lon="11.3113319"><ele>368.0</ele><time>2026-04-11T11:32:04.114Z</time></trkpt><trkpt lat="44.0269373" lon="11.3112232"><ele>369.5</ele><time>2026-04-11T11:32:05.115Z</time></trkpt><trkpt lat="44.0269729" lon="11.3111094"><ele>371.0</ele><time>2026-04-11T11:32:06.115Z</time></trkpt><trkpt lat="44.0270056" lon="11.3109923"><ele>371.0</ele><time>2026-04-11T11:32:07.115Z</time></trkpt><trkpt lat="44.027039" lon="11.3108695"><ele>371.0</ele><time>2026-04-11T11:32:08.113Z</time></trkpt><trkpt lat="44.0270781" lon="11.3107433"><ele>371.0</ele><time>2026-04-11T11:32:09.115Z</time></trkpt><trkpt lat="44.0271219" lon="11.3106091"><ele>371.0</ele><time>2026-04-11T11:32:10.115Z</time></trkpt><trkpt lat="44.0271573" lon="11.3104829"><ele>371.0</ele><time>2026-04-11T11:32:11.115Z</time></trkpt><trkpt lat="44.0271743" lon="11.3103427"><ele>371.4</ele><time>2026-04-11T11:32:12.115Z</time></trkpt><trkpt lat="44.0271706" lon="11.3101919"><ele>371.8</ele><time>2026-04-11T11:32:13.115Z</time></trkpt><trkpt lat="44.02714" lon="11.31004"><ele>372.2</ele><time>2026-04-11T11:32:14.113Z</time></trkpt><trkpt lat="44.027097" lon="11.3098939"><ele>372.59999999999997</ele><time>2026-04-11T11:32:15.114Z</time></trkpt><trkpt lat="44.0270496" lon="11.3097561"><ele>373.0</ele><time>2026-04-11T11:32:16.113Z</time></trkpt><trkpt lat="44.0269956" lon="11.3096171"><ele>374.2</ele><time>2026-04-11T11:32:17.114Z</time></trkpt><trkpt lat="44.0269447" lon="11.30948"><ele>375.4</ele><time>2026-04-11T11:32:18.113Z</time></trkpt><trkpt lat="44.0269012" lon="11.3093581"><ele>376.59999999999997</ele><time>2026-04-11T11:32:19.113Z</time></trkpt><trkpt lat="44.0268575" lon="11.3092449"><ele>377.79999999999995</ele><time>2026-04-11T11:32:20.113Z</time></trkpt><trkpt lat="44.0268089" lon="11.3091234"><ele>379.0</ele><time>2026-04-11T11:32:21.113Z</time></trkpt><trkpt lat="44.02676" lon="11.3090075"><ele>379.4</ele><time>2026-04-11T11:32:22.113Z</time></trkpt><trkpt lat="44.0267042" lon="11.3088766"><ele>379.79999999999995</ele><time>2026-04-11T11:32:23.114Z</time></trkpt><trkpt lat="44.0266492" lon="11.3087393"><ele>380.20000000000005</ele><time>2026-04-11T11:32:24.114Z</time></trkpt><trkpt lat="44.0266001" lon="11.3086029"><ele>380.6</ele><time>2026-04-11T11:32:25.114Z</time></trkpt><trkpt lat="44.0265588" lon="11.308465"><ele>381.0</ele><time>2026-04-11T11:32:26.114Z</time></trkpt><trkpt lat="44.0265313" lon="11.3083193"><ele>380.25</ele><time>2026-04-11T11:32:27.114Z</time></trkpt><trkpt lat="44.0265199" lon="11.3081588"><ele>379.5</ele><time>2026-04-11T11:32:28.114Z</time></trkpt><trkpt lat="44.0265011" lon="11.3079976"><ele>378.75</ele><time>2026-04-11T11:32:29.114Z</time></trkpt><trkpt lat="44.0264574" lon="11.3078574"><ele>378.0</ele><time>2026-04-11T11:32:30.114Z</time></trkpt><trkpt lat="44.0263862" lon="11.3077191"><ele>378.0</ele><time>2026-04-11T11:32:31.113Z</time></trkpt><trkpt lat="44.0262899" lon="11.3075924"><ele>378.0</ele><time>2026-04-11T11:32:32.114Z</time></trkpt><trkpt lat="44.0261868" lon="11.3075093"><ele>378.0</ele><time>2026-04-11T11:32:33.113Z</time></trkpt><trkpt lat="44.0260952" lon="11.3074522"><ele>378.0</ele><time>2026-04-11T11:32:34.114Z</time></trkpt><trkpt lat="44.0260128" lon="11.3073881"><ele>378.0</ele><time>2026-04-11T11:32:35.113Z</time></trkpt><trkpt lat="44.02593" lon="11.3073091"><ele>378.79999999999995</ele><time>2026-04-11T11:32:36.113Z</time></trkpt><trkpt lat="44.025851" lon="11.3072292"><ele>379.6</ele><time>2026-04-11T11:32:37.114Z</time></trkpt><trkpt lat="44.0257682" lon="11.3071414"><ele>380.4</ele><time>2026-04-11T11:32:38.114Z</time></trkpt><trkpt lat="44.0256819" lon="11.3070483"><ele>381.20000000000005</ele><time>2026-04-11T11:32:39.114Z</time></trkpt><trkpt lat="44.0256221" lon="11.306942"><ele>382.0</ele><time>2026-04-11T11:32:40.114Z</time></trkpt><trkpt lat="44.0255901" lon="11.3068151"><ele>380.8</ele><time>2026-04-11T11:32:41.113Z</time></trkpt><trkpt lat="44.025584" lon="11.3066629"><ele>379.6</ele><time>2026-04-11T11:32:42.114Z</time></trkpt><trkpt lat="44.0255829" lon="11.3065119"><ele>378.40000000000003</ele><time>2026-04-11T11:32:43.114Z</time></trkpt><trkpt lat="44.0255748" lon="11.3063694"><ele>377.20000000000005</ele><time>2026-04-11T11:32:44.114Z</time></trkpt><trkpt lat="44.0255432" lon="11.3062241"><ele>376.0</ele><time>2026-04-11T11:32:45.114Z</time></trkpt><trkpt lat="44.0254777" lon="11.3060843"><ele>376.0</ele><time>2026-04-11T11:32:46.114Z</time></trkpt><trkpt lat="44.0253875" lon="11.3059586"><ele>376.0</ele><time>2026-04-11T11:32:47.114Z</time></trkpt><trkpt lat="44.0252841" lon="11.3058391"><ele>376.0</ele><time>2026-04-11T11:32:48.114Z</time></trkpt><trkpt lat="44.0251941" lon="11.3057297"><ele>376.0</ele><time>2026-04-11T11:32:49.114Z</time></trkpt><trkpt lat="44.025113" lon="11.3056273"><ele>375.4</ele><time>2026-04-11T11:32:50.114Z</time></trkpt><trkpt lat="44.0250424" lon="11.3055176"><ele>374.8</ele><time>2026-04-11T11:32:51.114Z</time></trkpt><trkpt lat="44.024983" lon="11.3053879"><ele>374.2</ele><time>2026-04-11T11:32:52.113Z</time></trkpt><trkpt lat="44.0249393" lon="11.3052393"><ele>373.59999999999997</ele><time>2026-04-11T11:32:53.114Z</time></trkpt><trkpt lat="44.0249093" lon="11.3050825"><ele>373.0</ele><time>2026-04-11T11:32:54.114Z</time></trkpt><trkpt lat="44.0249029" lon="11.3049268"><ele>373.0</ele><time>2026-04-11T11:32:55.114Z</time></trkpt><trkpt lat="44.0249149" lon="11.3047608"><ele>373.0</ele><time>2026-04-11T11:32:56.114Z</time></trkpt><trkpt lat="44.0249315" lon="11.304591"><ele>373.0</ele><time>2026-04-11T11:32:57.114Z</time></trkpt><trkpt lat="44.0249509" lon="11.3044174"><ele>373.0</ele><time>2026-04-11T11:32:58.114Z</time></trkpt><trkpt lat="44.0249727" lon="11.3042446"><ele>374.66666666666663</ele><time>2026-04-11T11:32:59.113Z</time></trkpt><trkpt lat="44.0249899" lon="11.3040936"><ele>376.3333333333333</ele><time>2026-04-11T11:33:00.112Z</time></trkpt><trkpt lat="44.0250036" lon="11.3039633"><ele>378.0</ele><time>2026-04-11T11:33:01.113Z</time></trkpt><trkpt lat="44.0250109" lon="11.3038534"><ele>379.6666666666667</ele><time>2026-04-11T11:33:02.114Z</time></trkpt><trkpt lat="44.0250112" lon="11.3037605"><ele>381.33333333333337</ele><time>2026-04-11T11:33:03.113Z</time></trkpt><trkpt lat="44.0250087" lon="11.303663"><ele>383.0</ele><time>2026-04-11T11:33:04.113Z</time></trkpt><trkpt lat="44.0249967" lon="11.3035766"><ele>382.1666666666667</ele><time>2026-04-11T11:33:05.113Z</time></trkpt><trkpt lat="44.0249041" lon="11.3034574"><ele>381.33333333333337</ele><time>2026-04-11T11:33:07.114Z</time></trkpt><trkpt lat="44.0248277" lon="11.3034262"><ele>380.5</ele><time>2026-04-11T11:33:08.114Z</time></trkpt><trkpt lat="44.0247556" lon="11.3034128"><ele>379.6666666666667</ele><time>2026-04-11T11:33:09.114Z</time></trkpt><trkpt lat="44.0246873" lon="11.3034051"><ele>378.8333333333333</ele><time>2026-04-11T11:33:10.114Z</time></trkpt><trkpt lat="44.0246161" lon="11.3033938"><ele>378.0</ele><time>2026-04-11T11:33:11.114Z</time></trkpt><trkpt lat="44.0245399" lon="11.3033793"><ele>378.0</ele><time>2026-04-11T11:33:12.113Z</time></trkpt><trkpt lat="44.024461" lon="11.3033642"><ele>378.0</ele><time>2026-04-11T11:33:13.114Z</time></trkpt><trkpt lat="44.0243783" lon="11.3033466"><ele>378.0</ele><time>2026-04-11T11:33:14.114Z</time></trkpt><trkpt lat="44.0243026" lon="11.3033271"><ele>378.0</ele><time>2026-04-11T11:33:15.114Z</time></trkpt><trkpt lat="44.0242256" lon="11.3033017"><ele>378.0</ele><time>2026-04-11T11:33:16.114Z</time></trkpt><trkpt lat="44.0241449" lon="11.3032645"><ele>378.0</ele><time>2026-04-11T11:33:17.114Z</time></trkpt><trkpt lat="44.0240704" lon="11.3032314"><ele>377.5</ele><time>2026-04-11T11:33:18.113Z</time></trkpt><trkpt lat="44.0239896" lon="11.3032003"><ele>377.0</ele><time>2026-04-11T11:33:19.114Z</time></trkpt><trkpt lat="44.0239089" lon="11.3031744"><ele>376.5</ele><time>2026-04-11T11:33:20.114Z</time></trkpt><trkpt lat="44.0238279" lon="11.3031524"><ele>376.0</ele><time>2026-04-11T11:33:21.113Z</time></trkpt><trkpt lat="44.0237515" lon="11.303144"><ele>375.5</ele><time>2026-04-11T11:33:22.114Z</time></trkpt><trkpt lat="44.0236718" lon="11.3031507"><ele>375.0</ele><time>2026-04-11T11:33:23.114Z</time></trkpt><trkpt lat="44.0235898" lon="11.303171"><ele>375.0</ele><time>2026-04-11T11:33:24.114Z</time></trkpt><trkpt lat="44.0235177" lon="11.3031904"><ele>375.0</ele><time>2026-04-11T11:33:25.113Z</time></trkpt><trkpt lat="44.0234414" lon="11.3032137"><ele>375.0</ele><time>2026-04-11T11:33:26.113Z</time></trkpt><trkpt lat="44.0233856" lon="11.3032557"><ele>375.0</ele><time>2026-04-11T11:33:27.114Z</time></trkpt><trkpt lat="44.0233348" lon="11.3033092"><ele>375.0</ele><time>2026-04-11T11:33:28.113Z</time></trkpt><trkpt lat="44.023281" lon="11.3033608"><ele>375.0</ele><time>2026-04-11T11:33:29.113Z</time></trkpt><trkpt lat="44.0232236" lon="11.3033994"><ele>375.0</ele><time>2026-04-11T11:33:30.113Z</time></trkpt><trkpt lat="44.0231246" lon="11.3034526"><ele>373.5</ele><time>2026-04-11T11:33:32.113Z</time></trkpt><trkpt lat="44.0230185" lon="11.3035232"><ele>372.0</ele><time>2026-04-11T11:33:34.114Z</time></trkpt><trkpt lat="44.0229126" lon="11.3035718"><ele>370.5</ele><time>2026-04-11T11:33:36.114Z</time></trkpt><trkpt lat="44.0228071" lon="11.3036008"><ele>369.0</ele><time>2026-04-11T11:33:38.114Z</time></trkpt><trkpt lat="44.0226959" lon="11.3035719"><ele>369.0</ele><time>2026-04-11T11:33:40.113Z</time></trkpt><trkpt lat="44.0226055" lon="11.3035079"><ele>369.0</ele><time>2026-04-11T11:33:42.114Z</time></trkpt><trkpt lat="44.0225048" lon="11.3034316"><ele>369.0</ele><time>2026-04-11T11:33:44.113Z</time></trkpt><trkpt lat="44.02241" lon="11.3033602"><ele>369.0</ele><time>2026-04-11T11:33:46.114Z</time></trkpt><trkpt lat="44.0223105" lon="11.303287"><ele>369.0</ele><time>2026-04-11T11:33:48.114Z</time></trkpt><trkpt lat="44.0222552" lon="11.3032431"><ele>366.6</ele><time>2026-04-11T11:33:49.113Z</time></trkpt><trkpt lat="44.0221407" lon="11.3031576"><ele>364.2</ele><time>2026-04-11T11:33:51.113Z</time></trkpt><trkpt lat="44.0220805" lon="11.3031136"><ele>361.8</ele><time>2026-04-11T11:33:52.113Z</time></trkpt><trkpt lat="44.0219749" lon="11.3030337"><ele>359.40000000000003</ele><time>2026-04-11T11:33:54.114Z</time></trkpt><trkpt lat="44.0218775" lon="11.3029429"><ele>357.0</ele><time>2026-04-11T11:33:56.113Z</time></trkpt><trkpt lat="44.0217834" lon="11.3028495"><ele>356.40000000000003</ele><time>2026-04-11T11:33:58.113Z</time></trkpt><trkpt lat="44.0217016" lon="11.3027398"><ele>355.8</ele><time>2026-04-11T11:34:00.114Z</time></trkpt><trkpt lat="44.0216383" lon="11.3026486"><ele>355.2</ele><time>2026-04-11T11:34:02.113Z</time></trkpt><trkpt lat="44.0215676" lon="11.302555"><ele>354.6</ele><time>2026-04-11T11:34:04.113Z</time></trkpt><trkpt lat="44.0214955" lon="11.3024515"><ele>354.0</ele><time>2026-04-11T11:34:06.113Z</time></trkpt><trkpt lat="44.0214245" lon="11.3023439"><ele>350.6</ele><time>2026-04-11T11:34:08.113Z</time></trkpt><trkpt lat="44.0213407" lon="11.3022442"><ele>347.2</ele><time>2026-04-11T11:34:10.114Z</time></trkpt><trkpt lat="44.0212552" lon="11.3021533"><ele>343.8</ele><time>2026-04-11T11:34:12.114Z</time></trkpt><trkpt lat="44.021154" lon="11.3020944"><ele>340.40000000000003</ele><time>2026-04-11T11:34:14.113Z</time></trkpt><trkpt lat="44.0210409" lon="11.3020394"><ele>337.0</ele><time>2026-04-11T11:34:16.113Z</time></trkpt><trkpt lat="44.0209338" lon="11.3020009"><ele>337.0</ele><time>2026-04-11T11:34:18.114Z</time></trkpt><trkpt lat="44.0208629" lon="11.3020027"><ele>337.0</ele><time>2026-04-11T11:34:20.113Z</time></trkpt><trkpt lat="44.0207879" lon="11.302032"><ele>337.0</ele><time>2026-04-11T11:34:22.113Z</time></trkpt><trkpt lat="44.0207037" lon="11.3020625"><ele>337.0</ele><time>2026-04-11T11:34:24.114Z</time></trkpt><trkpt lat="44.0206144" lon="11.302087"><ele>337.0</ele><time>2026-04-11T11:34:26.113Z</time></trkpt><trkpt lat="44.0205272" lon="11.3021116"><ele>337.0</ele><time>2026-04-11T11:34:28.113Z</time></trkpt><trkpt lat="44.0204404" lon="11.3021795"><ele>335.16666666666663</ele><time>2026-04-11T11:34:30.114Z</time></trkpt><trkpt lat="44.0203906" lon="11.3023059"><ele>333.3333333333333</ele><time>2026-04-11T11:34:32.113Z</time></trkpt><trkpt lat="44.0203643" lon="11.3024655"><ele>331.5</ele><time>2026-04-11T11:34:34.114Z</time></trkpt><trkpt lat="44.0203589" lon="11.3025666"><ele>329.6666666666667</ele><time>2026-04-11T11:34:35.114Z</time></trkpt><trkpt lat="44.020353" lon="11.3026571"><ele>327.83333333333337</ele><time>2026-04-11T11:34:36.113Z</time></trkpt><trkpt lat="44.0203437" lon="11.3027571"><ele>326.0</ele><time>2026-04-11T11:34:37.112Z</time></trkpt><trkpt lat="44.0203384" lon="11.3028498"><ele>326.0</ele><time>2026-04-11T11:34:38.114Z</time></trkpt><trkpt lat="44.0203078" lon="11.3029929"><ele>326.0</ele><time>2026-04-11T11:34:40.113Z</time></trkpt><trkpt lat="44.0202353" lon="11.303103"><ele>326.0</ele><time>2026-04-11T11:34:42.114Z</time></trkpt><trkpt lat="44.0201416" lon="11.3031678"><ele>326.0</ele><time>2026-04-11T11:34:44.114Z</time></trkpt><trkpt lat="44.0200547" lon="11.3031728"><ele>326.0</ele><time>2026-04-11T11:34:46.114Z</time></trkpt><trkpt lat="44.0199947" lon="11.3031395"><ele>324.40000000000003</ele><time>2026-04-11T11:34:47.114Z</time></trkpt><trkpt lat="44.0199196" lon="11.3030802"><ele>322.8</ele><time>2026-04-11T11:34:48.114Z</time></trkpt><trkpt lat="44.0198185" lon="11.3030333"><ele>321.20000000000005</ele><time>2026-04-11T11:34:49.114Z</time></trkpt><trkpt lat="44.0197015" lon="11.3030087"><ele>319.6</ele><time>2026-04-11T11:34:50.114Z</time></trkpt><trkpt lat="44.0195716" lon="11.302997"><ele>318.0</ele><time>2026-04-11T11:34:51.114Z</time></trkpt><trkpt lat="44.0194492" lon="11.3029888"><ele>318.0</ele><time>2026-04-11T11:34:52.114Z</time></trkpt><trkpt lat="44.0193178" lon="11.3029799"><ele>318.0</ele><time>2026-04-11T11:34:53.113Z</time></trkpt><trkpt lat="44.0191958" lon="11.3029686"><ele>318.0</ele><time>2026-04-11T11:34:54.114Z</time></trkpt><trkpt lat="44.0190774" lon="11.3029567"><ele>318.0</ele><time>2026-04-11T11:34:55.113Z</time></trkpt><trkpt lat="44.0189608" lon="11.3029483"><ele>317.25</ele><time>2026-04-11T11:34:56.113Z</time></trkpt><trkpt lat="44.0188347" lon="11.30294"><ele>316.5</ele><time>2026-04-11T11:34:57.114Z</time></trkpt><trkpt lat="44.0186996" lon="11.3029204"><ele>315.75</ele><time>2026-04-11T11:34:58.114Z</time></trkpt><trkpt lat="44.0185674" lon="11.3028753"><ele>315.0</ele><time>2026-04-11T11:34:59.114Z</time></trkpt><trkpt lat="44.0184376" lon="11.3027965"><ele>314.0</ele><time>2026-04-11T11:35:00.113Z</time></trkpt><trkpt lat="44.0183144" lon="11.3026942"><ele>313.0</ele><time>2026-04-11T11:35:01.112Z</time></trkpt><trkpt lat="44.0182001" lon="11.3025713"><ele>312.0</ele><time>2026-04-11T11:35:02.113Z</time></trkpt><trkpt lat="44.018091" lon="11.3024283"><ele>311.0</ele><time>2026-04-11T11:35:03.114Z</time></trkpt><trkpt lat="44.0180054" lon="11.3022615"><ele>310.0</ele><time>2026-04-11T11:35:04.114Z</time></trkpt><trkpt lat="44.0179397" lon="11.3020643"><ele>309.0</ele><time>2026-04-11T11:35:05.113Z</time></trkpt><trkpt lat="44.0178968" lon="11.3018454"><ele>308.0</ele><time>2026-04-11T11:35:06.113Z</time></trkpt><trkpt lat="44.0178583" lon="11.3016149"><ele>306.6666666666667</ele><time>2026-04-11T11:35:07.114Z</time></trkpt><trkpt lat="44.0178172" lon="11.3013781"><ele>305.3333333333333</ele><time>2026-04-11T11:35:08.114Z</time></trkpt><trkpt lat="44.0177772" lon="11.3011446"><ele>304.0</ele><time>2026-04-11T11:35:09.113Z</time></trkpt><trkpt lat="44.0177358" lon="11.3009024"><ele>304.0</ele><time>2026-04-11T11:35:10.114Z</time></trkpt><trkpt lat="44.0176944" lon="11.3006589"><ele>304.0</ele><time>2026-04-11T11:35:11.114Z</time></trkpt><trkpt lat="44.0176528" lon="11.3004116"><ele>304.0</ele><time>2026-04-11T11:35:12.114Z</time></trkpt><trkpt lat="44.0176123" lon="11.3001625"><ele>302.3333333333333</ele><time>2026-04-11T11:35:13.113Z</time></trkpt><trkpt lat="44.0175716" lon="11.2999117"><ele>300.6666666666667</ele><time>2026-04-11T11:35:14.114Z</time></trkpt><trkpt lat="44.0175301" lon="11.2996614"><ele>299.0</ele><time>2026-04-11T11:35:15.114Z</time></trkpt><trkpt lat="44.0174871" lon="11.2994083"><ele>297.6666666666667</ele><time>2026-04-11T11:35:16.113Z</time></trkpt><trkpt lat="44.017444" lon="11.299151"><ele>296.3333333333333</ele><time>2026-04-11T11:35:17.112Z</time></trkpt><trkpt lat="44.0174003" lon="11.2988863"><ele>295.0</ele><time>2026-04-11T11:35:18.113Z</time></trkpt><trkpt lat="44.0173619" lon="11.2986259"><ele>295.0</ele><time>2026-04-11T11:35:19.113Z</time></trkpt><trkpt lat="44.0173511" lon="11.2983559"><ele>295.0</ele><time>2026-04-11T11:35:20.112Z</time></trkpt><trkpt lat="44.0173876" lon="11.2980919"><ele>295.0</ele><time>2026-04-11T11:35:21.114Z</time></trkpt><trkpt lat="44.017456" lon="11.2978426"><ele>300.0</ele><time>2026-04-11T11:35:22.114Z</time></trkpt><trkpt lat="44.0175265" lon="11.2976075"><ele>305.0</ele><time>2026-04-11T11:35:23.114Z</time></trkpt><trkpt lat="44.0175848" lon="11.2973977"><ele>310.0</ele><time>2026-04-11T11:35:24.114Z</time></trkpt><trkpt lat="44.017641" lon="11.2971998"><ele>310.75</ele><time>2026-04-11T11:35:25.114Z</time></trkpt><trkpt lat="44.0176669" lon="11.2970059"><ele>311.5</ele><time>2026-04-11T11:35:26.113Z</time></trkpt><trkpt lat="44.0176484" lon="11.2968092"><ele>312.25</ele><time>2026-04-11T11:35:27.113Z</time></trkpt><trkpt lat="44.0175952" lon="11.2966287"><ele>313.0</ele><time>2026-04-11T11:35:28.114Z</time></trkpt><trkpt lat="44.017522" lon="11.296455"><ele>312.5</ele><time>2026-04-11T11:35:29.114Z</time></trkpt><trkpt lat="44.0174429" lon="11.2962953"><ele>312.0</ele><time>2026-04-11T11:35:30.113Z</time></trkpt><trkpt lat="44.0173576" lon="11.2961369"><ele>311.5</ele><time>2026-04-11T11:35:31.114Z</time></trkpt><trkpt lat="44.0172612" lon="11.2959816"><ele>311.0</ele><time>2026-04-11T11:35:32.114Z</time></trkpt><trkpt lat="44.017153" lon="11.2958311"><ele>311.0</ele><time>2026-04-11T11:35:33.113Z</time></trkpt><trkpt lat="44.0170347" lon="11.2956874"><ele>311.0</ele><time>2026-04-11T11:35:34.114Z</time></trkpt><trkpt lat="44.0169089" lon="11.2955462"><ele>311.0</ele><time>2026-04-11T11:35:35.114Z</time></trkpt><trkpt lat="44.0167784" lon="11.295405"><ele>308.6666666666667</ele><time>2026-04-11T11:35:36.113Z</time></trkpt><trkpt lat="44.016643" lon="11.2952664"><ele>306.3333333333333</ele><time>2026-04-11T11:35:37.114Z</time></trkpt><trkpt lat="44.016505" lon="11.295125"><ele>304.0</ele><time>2026-04-11T11:35:38.113Z</time></trkpt><trkpt lat="44.0163651" lon="11.2949803"><ele>304.0</ele><time>2026-04-11T11:35:39.113Z</time></trkpt><trkpt lat="44.0162233" lon="11.2948335"><ele>304.0</ele><time>2026-04-11T11:35:40.114Z</time></trkpt><trkpt lat="44.0160777" lon="11.2946898"><ele>304.0</ele><time>2026-04-11T11:35:41.114Z</time></trkpt><trkpt lat="44.0159373" lon="11.2945531"><ele>301.66666666666663</ele><time>2026-04-11T11:35:42.114Z</time></trkpt><trkpt lat="44.0157981" lon="11.2944156"><ele>299.3333333333333</ele><time>2026-04-11T11:35:43.114Z</time></trkpt><trkpt lat="44.0156687" lon="11.2942815"><ele>297.0</ele><time>2026-04-11T11:35:44.113Z</time></trkpt><trkpt lat="44.0155428" lon="11.2941508"><ele>297.0</ele><time>2026-04-11T11:35:45.113Z</time></trkpt><trkpt lat="44.0154204" lon="11.2940256"><ele>297.0</ele><time>2026-04-11T11:35:46.114Z</time></trkpt><trkpt lat="44.0153024" lon="11.2939067"><ele>297.0</ele><time>2026-04-11T11:35:47.113Z</time></trkpt><trkpt lat="44.0151914" lon="11.2937881"><ele>297.0</ele><time>2026-04-11T11:35:48.114Z</time></trkpt><trkpt lat="44.0150804" lon="11.2936577"><ele>296.6666666666667</ele><time>2026-04-11T11:35:49.114Z</time></trkpt><trkpt lat="44.0149787" lon="11.2935044"><ele>296.33333333333337</ele><time>2026-04-11T11:35:50.114Z</time></trkpt><trkpt lat="44.0148904" lon="11.2933288"><ele>296.0</ele><time>2026-04-11T11:35:51.113Z</time></trkpt><trkpt lat="44.0148204" lon="11.2931319"><ele>295.0</ele><time>2026-04-11T11:35:52.114Z</time></trkpt><trkpt lat="44.0147722" lon="11.2929192"><ele>294.0</ele><time>2026-04-11T11:35:53.114Z</time></trkpt><trkpt lat="44.0147469" lon="11.2927108"><ele>293.0</ele><time>2026-04-11T11:35:54.114Z</time></trkpt><trkpt lat="44.0147306" lon="11.2925082"><ele>293.0</ele><time>2026-04-11T11:35:55.113Z</time></trkpt><trkpt lat="44.0147194" lon="11.2923165"><ele>293.0</ele><time>2026-04-11T11:35:56.114Z</time></trkpt><trkpt lat="44.0147118" lon="11.2921407"><ele>293.0</ele><time>2026-04-11T11:35:57.113Z</time></trkpt><trkpt lat="44.0147055" lon="11.2919819"><ele>293.0</ele><time>2026-04-11T11:35:58.114Z</time></trkpt><trkpt lat="44.0147018" lon="11.2918268"><ele>292.6</ele><time>2026-04-11T11:35:59.113Z</time></trkpt><trkpt lat="44.0146973" lon="11.2916912"><ele>292.20000000000005</ele><time>2026-04-11T11:36:00.114Z</time></trkpt><trkpt lat="44.0146911" lon="11.2915736"><ele>291.8</ele><time>2026-04-11T11:36:01.114Z</time></trkpt><trkpt lat="44.0146789" lon="11.2914831"><ele>291.40000000000003</ele><time>2026-04-11T11:36:02.114Z</time></trkpt><trkpt lat="44.014642" lon="11.2913335"><ele>291.0</ele><time>2026-04-11T11:36:04.114Z</time></trkpt><trkpt lat="44.0145909" lon="11.2911969"><ele>290.5</ele><time>2026-04-11T11:36:06.114Z</time></trkpt><trkpt lat="44.0145266" lon="11.2910849"><ele>290.0</ele><time>2026-04-11T11:36:08.114Z</time></trkpt><trkpt lat="44.0144423" lon="11.2910854"><ele>289.5</ele><time>2026-04-11T11:36:10.114Z</time></trkpt><trkpt lat="44.0143476" lon="11.2911339"><ele>289.0</ele><time>2026-04-11T11:36:12.114Z</time></trkpt><trkpt lat="44.0142813" lon="11.2911496"><ele>288.5</ele><time>2026-04-11T11:36:13.114Z</time></trkpt><trkpt lat="44.0142024" lon="11.2911581"><ele>288.0</ele><time>2026-04-11T11:36:14.114Z</time></trkpt><trkpt lat="44.0141141" lon="11.2911675"><ele>287.8</ele><time>2026-04-11T11:36:15.114Z</time></trkpt><trkpt lat="44.0140185" lon="11.2911818"><ele>287.6</ele><time>2026-04-11T11:36:16.114Z</time></trkpt><trkpt lat="44.0139146" lon="11.2911994"><ele>287.4</ele><time>2026-04-11T11:36:17.113Z</time></trkpt><trkpt lat="44.0138028" lon="11.2912121"><ele>287.2</ele><time>2026-04-11T11:36:18.113Z</time></trkpt><trkpt lat="44.0136853" lon="11.2912291"><ele>287.0</ele><time>2026-04-11T11:36:19.112Z</time></trkpt><trkpt lat="44.0135631" lon="11.2912581"><ele>287.0</ele><time>2026-04-11T11:36:20.113Z</time></trkpt><trkpt lat="44.0134292" lon="11.2912913"><ele>287.0</ele><time>2026-04-11T11:36:21.113Z</time></trkpt><trkpt lat="44.0132949" lon="11.2913106"><ele>287.0</ele><time>2026-04-11T11:36:22.114Z</time></trkpt><trkpt lat="44.0131706" lon="11.2913302"><ele>287.0</ele><time>2026-04-11T11:36:23.114Z</time></trkpt><trkpt lat="44.0130544" lon="11.2913483"><ele>287.25</ele><time>2026-04-11T11:36:24.114Z</time></trkpt><trkpt lat="44.0129424" lon="11.2913727"><ele>287.5</ele><time>2026-04-11T11:36:25.113Z</time></trkpt><trkpt lat="44.0128266" lon="11.2914009"><ele>287.75</ele><time>2026-04-11T11:36:26.113Z</time></trkpt><trkpt lat="44.0127116" lon="11.2914393"><ele>288.0</ele><time>2026-04-11T11:36:27.114Z</time></trkpt><trkpt lat="44.0126067" lon="11.2914841"><ele>288.0</ele><time>2026-04-11T11:36:28.114Z</time></trkpt><trkpt lat="44.0125033" lon="11.2915358"><ele>288.0</ele><time>2026-04-11T11:36:29.113Z</time></trkpt><trkpt lat="44.0123991" lon="11.2915943"><ele>288.0</ele><time>2026-04-11T11:36:30.113Z</time></trkpt><trkpt lat="44.0122953" lon="11.2916629"><ele>288.0</ele><time>2026-04-11T11:36:31.114Z</time></trkpt><trkpt lat="44.0121976" lon="11.291726"><ele>288.0</ele><time>2026-04-11T11:36:32.114Z</time></trkpt><trkpt lat="44.0121069" lon="11.2917815"><ele>287.6</ele><time>2026-04-11T11:36:33.113Z</time></trkpt><trkpt lat="44.0120224" lon="11.2918333"><ele>287.20000000000005</ele><time>2026-04-11T11:36:34.113Z</time></trkpt><trkpt lat="44.011942" lon="11.2918864"><ele>286.8</ele><time>2026-04-11T11:36:35.113Z</time></trkpt><trkpt lat="44.0118647" lon="11.2919442"><ele>286.40000000000003</ele><time>2026-04-11T11:36:36.111Z</time></trkpt><trkpt lat="44.0117837" lon="11.2920023"><ele>286.0</ele><time>2026-04-11T11:36:37.112Z</time></trkpt><trkpt lat="44.0116934" lon="11.2920494"><ele>285.40000000000003</ele><time>2026-04-11T11:36:38.112Z</time></trkpt><trkpt lat="44.0115928" lon="11.2920722"><ele>284.8</ele><time>2026-04-11T11:36:39.113Z</time></trkpt><trkpt lat="44.0114867" lon="11.2920909"><ele>284.20000000000005</ele><time>2026-04-11T11:36:40.113Z</time></trkpt><trkpt lat="44.011379" lon="11.2921063"><ele>283.6</ele><time>2026-04-11T11:36:41.113Z</time></trkpt><trkpt lat="44.0112696" lon="11.2921176"><ele>283.0</ele><time>2026-04-11T11:36:42.113Z</time></trkpt><trkpt lat="44.0111539" lon="11.2921171"><ele>283.0</ele><time>2026-04-11T11:36:43.112Z</time></trkpt><trkpt lat="44.0110345" lon="11.2921059"><ele>283.0</ele><time>2026-04-11T11:36:44.113Z</time></trkpt><trkpt lat="44.0109226" lon="11.2920896"><ele>283.0</ele><time>2026-04-11T11:36:45.112Z</time></trkpt><trkpt lat="44.0108248" lon="11.2920727"><ele>283.0</ele><time>2026-04-11T11:36:46.113Z</time></trkpt><trkpt lat="44.0107377" lon="11.2920572"><ele>283.0</ele><time>2026-04-11T11:36:47.112Z</time></trkpt><trkpt lat="44.0106567" lon="11.2920468"><ele>282.66666666666663</ele><time>2026-04-11T11:36:48.113Z</time></trkpt><trkpt lat="44.0105867" lon="11.2920508"><ele>282.3333333333333</ele><time>2026-04-11T11:36:49.112Z</time></trkpt><trkpt lat="44.0105229" lon="11.2920587"><ele>282.0</ele><time>2026-04-11T11:36:50.113Z</time></trkpt><trkpt lat="44.0104129" lon="11.2920808"><ele>281.6666666666667</ele><time>2026-04-11T11:36:52.112Z</time></trkpt><trkpt lat="44.0103359" lon="11.2920986"><ele>281.33333333333337</ele><time>2026-04-11T11:36:53.112Z</time></trkpt><trkpt lat="44.0102406" lon="11.2921348"><ele>281.0</ele><time>2026-04-11T11:36:54.113Z</time></trkpt><trkpt lat="44.0101344" lon="11.292192"><ele>281.0</ele><time>2026-04-11T11:36:55.113Z</time></trkpt><trkpt lat="44.0100269" lon="11.2922641"><ele>281.0</ele><time>2026-04-11T11:36:56.112Z</time></trkpt><trkpt lat="44.0099289" lon="11.2923498"><ele>281.0</ele><time>2026-04-11T11:36:57.113Z</time></trkpt><trkpt lat="44.0098375" lon="11.2924322"><ele>281.0</ele><time>2026-04-11T11:36:58.113Z</time></trkpt><trkpt lat="44.0097278" lon="11.2925005"><ele>281.0</ele><time>2026-04-11T11:36:59.112Z</time></trkpt><trkpt lat="44.0096177" lon="11.2925362"><ele>281.0</ele><time>2026-04-11T11:37:00.112Z</time></trkpt><trkpt lat="44.0095009" lon="11.2925619"><ele>281.0</ele><time>2026-04-11T11:37:01.112Z</time></trkpt><trkpt lat="44.009388" lon="11.2925948"><ele>281.0</ele><time>2026-04-11T11:37:02.112Z</time></trkpt><trkpt lat="44.0093011" lon="11.2926292"><ele>281.0</ele><time>2026-04-11T11:37:03.113Z</time></trkpt><trkpt lat="44.0091904" lon="11.2926599"><ele>281.1666666666667</ele><time>2026-04-11T11:37:05.112Z</time></trkpt><trkpt lat="44.0091002" lon="11.2926889"><ele>281.33333333333337</ele><time>2026-04-11T11:37:07.112Z</time></trkpt><trkpt lat="44.0090154" lon="11.2927162"><ele>281.5</ele><time>2026-04-11T11:37:09.112Z</time></trkpt><trkpt lat="44.00894" lon="11.2927367"><ele>281.6666666666667</ele><time>2026-04-11T11:37:11.112Z</time></trkpt><trkpt lat="44.0088697" lon="11.2927614"><ele>281.8333333333333</ele><time>2026-04-11T11:37:14.112Z</time></trkpt><trkpt lat="44.008785" lon="11.2928054"><ele>282.0</ele><time>2026-04-11T11:38:52.112Z</time></trkpt><trkpt lat="44.0087076" lon="11.2928158"><ele>282.0</ele><time>2026-04-11T11:38:54.113Z</time></trkpt><trkpt lat="44.0086458" lon="11.2928371"><ele>282.0</ele><time>2026-04-11T11:39:00.112Z</time></trkpt><trkpt lat="44.0085654" lon="11.2928535"><ele>282.0</ele><time>2026-04-11T11:39:03.113Z</time></trkpt><trkpt lat="44.0084969" lon="11.2928427"><ele>282.0</ele><time>2026-04-11T11:39:06.112Z</time></trkpt><trkpt lat="44.0084439" lon="11.2927852"><ele>282.0</ele><time>2026-04-11T11:39:09.113Z</time></trkpt><trkpt lat="44.0084093" lon="11.2927118"><ele>282.0</ele><time>2026-04-11T11:39:11.112Z</time></trkpt><trkpt lat="44.0083812" lon="11.2925942"><ele>282.0</ele><time>2026-04-11T11:39:14.113Z</time></trkpt><trkpt lat="44.0083665" lon="11.2925025"><ele>282.0</ele><time>2026-04-11T11:39:17.112Z</time></trkpt><trkpt lat="44.0083484" lon="11.2923912"><ele>282.0</ele><time>2026-04-11T11:39:20.113Z</time></trkpt><trkpt lat="44.008334" lon="11.2923032"><ele>282.0</ele><time>2026-04-11T11:39:24.113Z</time></trkpt><trkpt lat="44.008311" lon="11.2922143"><ele>282.0</ele><time>2026-04-11T11:39:27.113Z</time></trkpt><trkpt lat="44.0082969" lon="11.2921215"><ele>282.0</ele><time>2026-04-11T11:39:30.112Z</time></trkpt><trkpt lat="44.0082853" lon="11.2920299"><ele>282.0</ele><time>2026-04-11T11:39:34.113Z</time></trkpt><trkpt lat="44.0082699" lon="11.2919286"><ele>282.0</ele><time>2026-04-11T11:39:38.113Z</time></trkpt><trkpt lat="44.0082511" lon="11.2918312"><ele>281.0</ele><time>2026-04-11T11:39:41.113Z</time></trkpt><trkpt lat="44.0082262" lon="11.2917206"><ele>280.0</ele><time>2026-04-11T11:39:43.112Z</time></trkpt><trkpt lat="44.008194" lon="11.2915913"><ele>279.0</ele><time>2026-04-11T11:39:45.113Z</time></trkpt><trkpt lat="44.0081851" lon="11.2914474"><ele>278.0</ele><time>2026-04-11T11:39:47.112Z</time></trkpt><trkpt lat="44.008203" lon="11.2913243"><ele>277.0</ele><time>2026-04-11T11:39:49.113Z</time></trkpt><trkpt lat="44.0082036" lon="11.2911685"><ele>277.0</ele><time>2026-04-11T11:39:51.112Z</time></trkpt><trkpt lat="44.0081895" lon="11.2910532"><ele>277.0</ele><time>2026-04-11T11:39:53.113Z</time></trkpt><trkpt lat="44.0081849" lon="11.290936"><ele>277.0</ele><time>2026-04-11T11:40:36.113Z</time></trkpt><trkpt lat="44.0081755" lon="11.2908376"><ele>277.0</ele><time>2026-04-11T11:40:39.113Z</time></trkpt><trkpt lat="44.0081597" lon="11.290713"><ele>277.0</ele><time>2026-04-11T11:41:20.111Z</time></trkpt><trkpt lat="44.0081398" lon="11.2905959"><ele>277.0</ele><time>2026-04-11T11:41:22.112Z</time></trkpt><trkpt lat="44.0081264" lon="11.2904422"><ele>277.0</ele><time>2026-04-11T11:41:24.111Z</time></trkpt><trkpt lat="44.0081152" lon="11.290319"><ele>277.0</ele><time>2026-04-11T11:41:26.111Z</time></trkpt><trkpt lat="44.0080969" lon="11.2902019"><ele>277.0</ele><time>2026-04-11T11:41:28.111Z</time></trkpt><trkpt lat="44.0080817" lon="11.2900903"><ele>277.0</ele><time>2026-04-11T11:41:30.112Z</time></trkpt><trkpt lat="44.0080694" lon="11.289989"><ele>277.0</ele><time>2026-04-11T11:41:32.112Z</time></trkpt><trkpt lat="44.0080623" lon="11.2898666"><ele>277.0</ele><time>2026-04-11T11:41:34.112Z</time></trkpt><trkpt lat="44.0080704" lon="11.2897289"><ele>277.16666666666663</ele><time>2026-04-11T11:41:36.111Z</time></trkpt><trkpt lat="44.0080886" lon="11.2895977"><ele>277.3333333333333</ele><time>2026-04-11T11:41:38.112Z</time></trkpt><trkpt lat="44.0081159" lon="11.2894396"><ele>277.5</ele><time>2026-04-11T11:41:40.112Z</time></trkpt><trkpt lat="44.0081315" lon="11.2893477"><ele>277.6666666666667</ele><time>2026-04-11T11:41:41.111Z</time></trkpt><trkpt lat="44.0081479" lon="11.2892404"><ele>277.83333333333337</ele><time>2026-04-11T11:41:42.111Z</time></trkpt><trkpt lat="44.0081642" lon="11.2891463"><ele>278.0</ele><time>2026-04-11T11:41:43.111Z</time></trkpt><trkpt lat="44.0081849" lon="11.2889815"><ele>278.0</ele><time>2026-04-11T11:41:45.112Z</time></trkpt><trkpt lat="44.0082055" lon="11.2888484"><ele>278.0</ele><time>2026-04-11T11:41:47.111Z</time></trkpt><trkpt lat="44.008243" lon="11.2887031"><ele>278.0</ele><time>2026-04-11T11:41:49.112Z</time></trkpt><trkpt lat="44.008261" lon="11.2885723"><ele>278.0</ele><time>2026-04-11T11:41:51.112Z</time></trkpt><trkpt lat="44.0082797" lon="11.2884308"><ele>278.0</ele><time>2026-04-11T11:41:53.112Z</time></trkpt><trkpt lat="44.0083084" lon="11.2882836"><ele>278.0</ele><time>2026-04-11T11:41:55.112Z</time></trkpt><trkpt lat="44.0083476" lon="11.2881349"><ele>278.0</ele><time>2026-04-11T11:41:57.11Z</time></trkpt><trkpt lat="44.0083821" lon="11.2880094"><ele>278.0</ele><time>2026-04-11T11:41:59.112Z</time></trkpt><trkpt lat="44.0084252" lon="11.2878854"><ele>278.0</ele><time>2026-04-11T11:42:01.112Z</time></trkpt><trkpt lat="44.0084689" lon="11.2877663"><ele>278.0</ele><time>2026-04-11T11:42:03.111Z</time></trkpt><trkpt lat="44.0084932" lon="11.2876757"><ele>278.0</ele><time>2026-04-11T11:42:05.112Z</time></trkpt><trkpt lat="44.008522" lon="11.2875799"><ele>278.0</ele><time>2026-04-11T11:42:15.112Z</time></trkpt><trkpt lat="44.0085059" lon="11.2874882"><ele>278.0</ele><time>2026-04-11T11:42:21.111Z</time></trkpt><trkpt lat="44.0083992" lon="11.2874271"><ele>278.0</ele><time>2026-04-11T11:42:23.112Z</time></trkpt><trkpt lat="44.0083135" lon="11.2873906"><ele>278.0</ele><time>2026-04-11T11:42:24.112Z</time></trkpt><trkpt lat="44.0082209" lon="11.2873486"><ele>278.0</ele><time>2026-04-11T11:42:25.111Z</time></trkpt><trkpt lat="44.0081149" lon="11.2872952"><ele>277.75</ele><time>2026-04-11T11:42:26.111Z</time></trkpt><trkpt lat="44.0079974" lon="11.2872334"><ele>277.5</ele><time>2026-04-11T11:42:27.112Z</time></trkpt><trkpt lat="44.0078704" lon="11.287163"><ele>277.25</ele><time>2026-04-11T11:42:28.112Z</time></trkpt><trkpt lat="44.0077329" lon="11.2870838"><ele>277.0</ele><time>2026-04-11T11:42:29.112Z</time></trkpt><trkpt lat="44.0075869" lon="11.2869825"><ele>276.3333333333333</ele><time>2026-04-11T11:42:30.112Z</time></trkpt><trkpt lat="44.0074348" lon="11.2868654"><ele>275.6666666666667</ele><time>2026-04-11T11:42:31.111Z</time></trkpt><trkpt lat="44.0072887" lon="11.2867568"><ele>275.0</ele><time>2026-04-11T11:42:32.112Z</time></trkpt><trkpt lat="44.0071541" lon="11.2866552"><ele>275.0</ele><time>2026-04-11T11:42:33.111Z</time></trkpt><trkpt lat="44.0070166" lon="11.286558"><ele>275.0</ele><time>2026-04-11T11:42:34.111Z</time></trkpt><trkpt lat="44.0068666" lon="11.2864621"><ele>275.0</ele><time>2026-04-11T11:42:35.112Z</time></trkpt><trkpt lat="44.0067115" lon="11.2863659"><ele>273.33333333333337</ele><time>2026-04-11T11:42:36.112Z</time></trkpt><trkpt lat="44.0065523" lon="11.2862672"><ele>271.6666666666667</ele><time>2026-04-11T11:42:37.111Z</time></trkpt><trkpt lat="44.0063861" lon="11.2861661"><ele>270.0</ele><time>2026-04-11T11:42:38.11Z</time></trkpt><trkpt lat="44.006215" lon="11.2860676"><ele>270.0</ele><time>2026-04-11T11:42:39.111Z</time></trkpt><trkpt lat="44.0060412" lon="11.2859646"><ele>270.0</ele><time>2026-04-11T11:42:40.11Z</time></trkpt><trkpt lat="44.0058675" lon="11.2858582"><ele>270.0</ele><time>2026-04-11T11:42:41.111Z</time></trkpt><trkpt lat="44.0056924" lon="11.2857559"><ele>270.0</ele><time>2026-04-11T11:42:42.112Z</time></trkpt><trkpt lat="44.005518" lon="11.285657"><ele>270.0</ele><time>2026-04-11T11:42:43.112Z</time></trkpt><trkpt lat="44.0053438" lon="11.2855576"><ele>270.0</ele><time>2026-04-11T11:42:44.111Z</time></trkpt><trkpt lat="44.0051704" lon="11.2854565"><ele>269.0</ele><time>2026-04-11T11:42:45.11Z</time></trkpt><trkpt lat="44.004995" lon="11.2853529"><ele>268.0</ele><time>2026-04-11T11:42:46.112Z</time></trkpt><trkpt lat="44.0048183" lon="11.2852499"><ele>267.0</ele><time>2026-04-11T11:42:47.112Z</time></trkpt><trkpt lat="44.0046419" lon="11.2851459"><ele>267.0</ele><time>2026-04-11T11:42:48.112Z</time></trkpt><trkpt lat="44.0044625" lon="11.2850451"><ele>267.0</ele><time>2026-04-11T11:42:49.112Z</time></trkpt><trkpt lat="44.0042843" lon="11.2849418"><ele>267.0</ele><time>2026-04-11T11:42:50.112Z</time></trkpt><trkpt lat="44.004101" lon="11.2848345"><ele>266.3333333333333</ele><time>2026-04-11T11:42:51.111Z</time></trkpt><trkpt lat="44.0039098" lon="11.2847285"><ele>265.66666666666663</ele><time>2026-04-11T11:42:52.111Z</time></trkpt><trkpt lat="44.0037159" lon="11.2846399"><ele>265.0</ele><time>2026-04-11T11:42:53.112Z</time></trkpt><trkpt lat="44.0035298" lon="11.2845767"><ele>265.0</ele><time>2026-04-11T11:42:54.111Z</time></trkpt><trkpt lat="44.003352" lon="11.284534"><ele>265.0</ele><time>2026-04-11T11:42:55.112Z</time></trkpt><trkpt lat="44.0031817" lon="11.284513"><ele>265.0</ele><time>2026-04-11T11:42:56.112Z</time></trkpt><trkpt lat="44.0030239" lon="11.2845077"><ele>265.0</ele><time>2026-04-11T11:42:57.112Z</time></trkpt><trkpt lat="44.0028836" lon="11.2845213"><ele>265.0</ele><time>2026-04-11T11:42:58.111Z</time></trkpt><trkpt lat="44.0027644" lon="11.2845449"><ele>265.0</ele><time>2026-04-11T11:42:59.111Z</time></trkpt><trkpt lat="44.0026723" lon="11.2845697"><ele>265.0</ele><time>2026-04-11T11:43:00.111Z</time></trkpt><trkpt lat="44.0026016" lon="11.284587"><ele>265.0</ele><time>2026-04-11T11:43:01.111Z</time></trkpt><trkpt lat="44.0025204" lon="11.2846023"><ele>264.5</ele><time>2026-04-11T11:43:03.112Z</time></trkpt><trkpt lat="44.0024501" lon="11.2846111"><ele>264.0</ele><time>2026-04-11T11:43:13.111Z</time></trkpt><trkpt lat="44.0023753" lon="11.284627"><ele>263.5</ele><time>2026-04-11T11:43:17.111Z</time></trkpt><trkpt lat="44.0023018" lon="11.2846088"><ele>263.0</ele><time>2026-04-11T11:43:22.111Z</time></trkpt><trkpt lat="44.002276" lon="11.2844673"><ele>262.5</ele><time>2026-04-11T11:43:25.112Z</time></trkpt><trkpt lat="44.0022763" lon="11.2843177"><ele>262.0</ele><time>2026-04-11T11:43:27.111Z</time></trkpt><trkpt lat="44.0022734" lon="11.2841539"><ele>262.0</ele><time>2026-04-11T11:43:29.112Z</time></trkpt><trkpt lat="44.0022746" lon="11.2839874"><ele>262.0</ele><time>2026-04-11T11:43:31.112Z</time></trkpt><trkpt lat="44.0022707" lon="11.2838108"><ele>262.0</ele><time>2026-04-11T11:43:33.111Z</time></trkpt><trkpt lat="44.0022674" lon="11.2837136"><ele>262.0</ele><time>2026-04-11T11:43:34.111Z</time></trkpt><trkpt lat="44.0022628" lon="11.2835479"><ele>262.0</ele><time>2026-04-11T11:43:36.111Z</time></trkpt><trkpt lat="44.0022641" lon="11.2833814"><ele>262.0</ele><time>2026-04-11T11:43:38.111Z</time></trkpt><trkpt lat="44.0022655" lon="11.2832882"><ele>262.0</ele><time>2026-04-11T11:43:39.111Z</time></trkpt><trkpt lat="44.0022655" lon="11.2831876"><ele>262.0</ele><time>2026-04-11T11:43:40.111Z</time></trkpt><trkpt lat="44.0022673" lon="11.2830793"><ele>262.0</ele><time>2026-04-11T11:43:41.112Z</time></trkpt><trkpt lat="44.0022658" lon="11.2829592"><ele>262.0</ele><time>2026-04-11T11:43:42.112Z</time></trkpt><trkpt lat="44.0022665" lon="11.282831"><ele>262.0</ele><time>2026-04-11T11:43:43.112Z</time></trkpt><trkpt lat="44.0022619" lon="11.2827067"><ele>261.7142857142857</ele><time>2026-04-11T11:43:44.112Z</time></trkpt><trkpt lat="44.0022588" lon="11.2825975"><ele>261.42857142857144</ele><time>2026-04-11T11:43:45.112Z</time></trkpt><trkpt lat="44.0022597" lon="11.2824951"><ele>261.14285714285717</ele><time>2026-04-11T11:43:46.11Z</time></trkpt><trkpt lat="44.0022577" lon="11.282393"><ele>260.8571428571429</ele><time>2026-04-11T11:43:47.112Z</time></trkpt><trkpt lat="44.0022534" lon="11.2823044"><ele>260.57142857142856</ele><time>2026-04-11T11:43:48.111Z</time></trkpt><trkpt lat="44.0022581" lon="11.2822109"><ele>260.28571428571433</ele><time>2026-04-11T11:43:49.111Z</time></trkpt><trkpt lat="44.0022714" lon="11.2821187"><ele>260.0</ele><time>2026-04-11T11:43:50.112Z</time></trkpt><trkpt lat="44.002296" lon="11.282028"><ele>259.5</ele><time>2026-04-11T11:43:51.111Z</time></trkpt><trkpt lat="44.0023577" lon="11.2818936"><ele>259.0</ele><time>2026-04-11T11:43:53.111Z</time></trkpt><trkpt lat="44.0024216" lon="11.2817848"><ele>258.5</ele><time>2026-04-11T11:43:55.111Z</time></trkpt><trkpt lat="44.0024717" lon="11.2816895"><ele>258.0</ele><time>2026-04-11T11:43:57.112Z</time></trkpt><trkpt lat="44.0025137" lon="11.2816129"><ele>257.5</ele><time>2026-04-11T11:43:59.112Z</time></trkpt><trkpt lat="44.0025536" lon="11.2815238"><ele>257.0</ele><time>2026-04-11T11:44:02.112Z</time></trkpt><trkpt lat="44.0025423" lon="11.2814342"><ele>257.0</ele><time>2026-04-11T11:44:05.111Z</time></trkpt><trkpt lat="44.0024817" lon="11.2814053"><ele>257.0</ele><time>2026-04-11T11:44:08.112Z</time></trkpt><trkpt lat="44.0024139" lon="11.2814128"><ele>257.0</ele><time>2026-04-11T11:44:10.112Z</time></trkpt><trkpt lat="44.002334" lon="11.2814253"><ele>257.0</ele><time>2026-04-11T11:44:12.112Z</time></trkpt><trkpt lat="44.0022544" lon="11.2813925"><ele>257.0</ele><time>2026-04-11T11:44:14.112Z</time></trkpt><trkpt lat="44.0021578" lon="11.2813852"><ele>257.0</ele><time>2026-04-11T11:44:16.112Z</time></trkpt><trkpt lat="44.0020428" lon="11.2813985"><ele>257.0</ele><time>2026-04-11T11:44:18.111Z</time></trkpt><trkpt lat="44.001976" lon="11.2814003"><ele>257.0</ele><time>2026-04-11T11:44:19.111Z</time></trkpt><trkpt lat="44.0019078" lon="11.2814032"><ele>257.0</ele><time>2026-04-11T11:44:20.112Z</time></trkpt><trkpt lat="44.0017993" lon="11.2814211"><ele>257.0</ele><time>2026-04-11T11:44:22.11Z</time></trkpt><trkpt lat="44.0016978" lon="11.2814379"><ele>257.0</ele><time>2026-04-11T11:44:24.111Z</time></trkpt><trkpt lat="44.0016171" lon="11.2814734"><ele>257.0</ele><time>2026-04-11T11:44:26.112Z</time></trkpt><trkpt lat="44.0015649" lon="11.2815622"><ele>256.33333333333337</ele><time>2026-04-11T11:44:28.112Z</time></trkpt><trkpt lat="44.0014995" lon="11.2816395"><ele>255.66666666666669</ele><time>2026-04-11T11:44:30.112Z</time></trkpt><trkpt lat="44.001425" lon="11.2816836"><ele>255.0</ele><time>2026-04-11T11:44:32.112Z</time></trkpt><trkpt lat="44.0013407" lon="11.2817322"><ele>254.33333333333331</ele><time>2026-04-11T11:44:34.112Z</time></trkpt><trkpt lat="44.0012579" lon="11.2817537"><ele>253.66666666666666</ele><time>2026-04-11T11:44:36.112Z</time></trkpt><trkpt lat="44.0011684" lon="11.281794"><ele>253.0</ele><time>2026-04-11T11:44:38.112Z</time></trkpt><trkpt lat="44.0010709" lon="11.2817977"><ele>253.0</ele><time>2026-04-11T11:44:40.111Z</time></trkpt><trkpt lat="44.0009787" lon="11.2817742"><ele>253.0</ele><time>2026-04-11T11:44:42.112Z</time></trkpt><trkpt lat="44.0008822" lon="11.2817755"><ele>253.0</ele><time>2026-04-11T11:44:44.112Z</time></trkpt><trkpt lat="44.0007684" lon="11.2817872"><ele>253.0</ele><time>2026-04-11T11:44:46.112Z</time></trkpt><trkpt lat="44.0007051" lon="11.2817837"><ele>253.0</ele><time>2026-04-11T11:44:47.112Z</time></trkpt><trkpt lat="44.0005959" lon="11.2817464"><ele>252.83333333333331</ele><time>2026-04-11T11:44:49.112Z</time></trkpt><trkpt lat="44.0005307" lon="11.2817082"><ele>252.66666666666666</ele><time>2026-04-11T11:44:50.112Z</time></trkpt><trkpt lat="44.0004692" lon="11.2816561"><ele>252.5</ele><time>2026-04-11T11:44:51.112Z</time></trkpt><trkpt lat="44.0003707" lon="11.281546"><ele>252.33333333333331</ele><time>2026-04-11T11:44:53.112Z</time></trkpt><trkpt lat="44.0003218" lon="11.2814903"><ele>252.16666666666666</ele><time>2026-04-11T11:44:54.112Z</time></trkpt><trkpt lat="44.0002633" lon="11.2814273"><ele>252.0</ele><time>2026-04-11T11:44:55.112Z</time></trkpt><trkpt lat="44.0002108" lon="11.2813754"><ele>252.39999999999998</ele><time>2026-04-11T11:44:56.112Z</time></trkpt><trkpt lat="44.0001018" lon="11.2812961"><ele>252.79999999999998</ele><time>2026-04-11T11:44:58.111Z</time></trkpt><trkpt lat="44.0000431" lon="11.2812528"><ele>253.2</ele><time>2026-04-11T11:44:59.111Z</time></trkpt><trkpt lat="43.9999426" lon="11.2811796"><ele>253.6</ele><time>2026-04-11T11:45:01.112Z</time></trkpt><trkpt lat="43.9998363" lon="11.2810769"><ele>254.0</ele><time>2026-04-11T11:45:03.112Z</time></trkpt><trkpt lat="43.9997755" lon="11.2810114"><ele>254.0</ele><time>2026-04-11T11:45:04.112Z</time></trkpt><trkpt lat="43.9997004" lon="11.2809632"><ele>253.99999999999997</ele><time>2026-04-11T11:45:05.111Z</time></trkpt><trkpt lat="43.9996185" lon="11.2809155"><ele>253.99999999999997</ele><time>2026-04-11T11:45:06.11Z</time></trkpt><trkpt lat="43.9995267" lon="11.2808799"><ele>254.0</ele><time>2026-04-11T11:45:07.112Z</time></trkpt><trkpt lat="43.9994281" lon="11.2808572"><ele>254.0</ele><time>2026-04-11T11:45:08.112Z</time></trkpt><trkpt lat="43.9993225" lon="11.2808398"><ele>254.0</ele><time>2026-04-11T11:45:09.111Z</time></trkpt><trkpt lat="43.99922" lon="11.2808295"><ele>253.99999999999997</ele><time>2026-04-11T11:45:10.112Z</time></trkpt><trkpt lat="43.9991156" lon="11.2808154"><ele>253.99999999999997</ele><time>2026-04-11T11:45:11.111Z</time></trkpt><trkpt lat="43.9990145" lon="11.2807962"><ele>254.0</ele><time>2026-04-11T11:45:12.112Z</time></trkpt><trkpt lat="43.9989221" lon="11.2807656"><ele>254.0</ele><time>2026-04-11T11:45:13.112Z</time></trkpt><trkpt lat="43.9988267" lon="11.2807342"><ele>254.2</ele><time>2026-04-11T11:45:14.111Z</time></trkpt><trkpt lat="43.9987345" lon="11.2807074"><ele>254.39999999999998</ele><time>2026-04-11T11:45:15.111Z</time></trkpt><trkpt lat="43.9986393" lon="11.2806751"><ele>254.6</ele><time>2026-04-11T11:45:16.112Z</time></trkpt><trkpt lat="43.9985424" lon="11.2806413"><ele>254.8</ele><time>2026-04-11T11:45:17.112Z</time></trkpt><trkpt lat="43.9984534" lon="11.2806118"><ele>255.0</ele><time>2026-04-11T11:45:18.111Z</time></trkpt><trkpt lat="43.9983647" lon="11.2805868"><ele>255.16666666666666</ele><time>2026-04-11T11:45:19.11Z</time></trkpt><trkpt lat="43.9982808" lon="11.2805626"><ele>255.33333333333331</ele><time>2026-04-11T11:45:20.112Z</time></trkpt><trkpt lat="43.9981893" lon="11.2805384"><ele>255.5</ele><time>2026-04-11T11:45:21.111Z</time></trkpt><trkpt lat="43.998096" lon="11.2805251"><ele>255.66666666666666</ele><time>2026-04-11T11:45:22.112Z</time></trkpt><trkpt lat="43.9980154" lon="11.2805146"><ele>255.83333333333331</ele><time>2026-04-11T11:45:23.112Z</time></trkpt><trkpt lat="43.9979333" lon="11.2804982"><ele>256.0</ele><time>2026-04-11T11:45:24.112Z</time></trkpt><trkpt lat="43.9978682" lon="11.2804722"><ele>255.99999999999997</ele><time>2026-04-11T11:45:25.111Z</time></trkpt><trkpt lat="43.9978102" lon="11.2804273"><ele>256.0</ele><time>2026-04-11T11:45:26.111Z</time></trkpt><trkpt lat="43.9977581" lon="11.2803522"><ele>256.0</ele><time>2026-04-11T11:45:27.112Z</time></trkpt><trkpt lat="43.997711" lon="11.2802625"><ele>256.0</ele><time>2026-04-11T11:45:28.111Z</time></trkpt><trkpt lat="43.9976626" lon="11.2801584"><ele>255.99999999999997</ele><time>2026-04-11T11:45:29.112Z</time></trkpt><trkpt lat="43.9976118" lon="11.2800479"><ele>256.0</ele><time>2026-04-11T11:45:30.112Z</time></trkpt><trkpt lat="43.9975573" lon="11.2799338"><ele>255.8</ele><time>2026-04-11T11:45:31.111Z</time></trkpt><trkpt lat="43.9974996" lon="11.2798345"><ele>255.60000000000002</ele><time>2026-04-11T11:45:32.112Z</time></trkpt><trkpt lat="43.9974307" lon="11.2797499"><ele>255.4</ele><time>2026-04-11T11:45:33.111Z</time></trkpt><trkpt lat="43.9973663" lon="11.2796774"><ele>255.2</ele><time>2026-04-11T11:45:34.112Z</time></trkpt><trkpt lat="43.9972905" lon="11.2795977"><ele>255.0</ele><time>2026-04-11T11:45:35.112Z</time></trkpt><trkpt lat="43.9972067" lon="11.2795243"><ele>255.0</ele><time>2026-04-11T11:45:36.112Z</time></trkpt><trkpt lat="43.9971183" lon="11.2794542"><ele>255.0</ele><time>2026-04-11T11:45:37.111Z</time></trkpt><trkpt lat="43.997024" lon="11.2793908"><ele>255.0</ele><time>2026-04-11T11:45:38.111Z</time></trkpt><trkpt lat="43.99692" lon="11.2793245"><ele>255.0</ele><time>2026-04-11T11:45:39.112Z</time></trkpt><trkpt lat="43.996813" lon="11.2792564"><ele>255.0</ele><time>2026-04-11T11:45:40.111Z</time></trkpt><trkpt lat="43.9967187" lon="11.2791953"><ele>255.0</ele><time>2026-04-11T11:45:41.111Z</time></trkpt><trkpt lat="43.996624" lon="11.2791358"><ele>255.0</ele><time>2026-04-11T11:45:42.11Z</time></trkpt><trkpt lat="43.9965286" lon="11.2790762"><ele>255.0</ele><time>2026-04-11T11:45:43.112Z</time></trkpt><trkpt lat="43.9964429" lon="11.2790203"><ele>255.0</ele><time>2026-04-11T11:45:44.112Z</time></trkpt><trkpt lat="43.996366" lon="11.278974"><ele>255.0</ele><time>2026-04-11T11:45:45.112Z</time></trkpt><trkpt lat="43.9963069" lon="11.2789363"><ele>255.0</ele><time>2026-04-11T11:45:46.111Z</time></trkpt><trkpt lat="43.9962148" lon="11.278863"><ele>255.0</ele><time>2026-04-11T11:45:48.112Z</time></trkpt><trkpt lat="43.996209" lon="11.2787529"><ele>255.0</ele><time>2026-04-11T11:45:50.111Z</time></trkpt><trkpt lat="43.9962562" lon="11.2786242"><ele>255.0</ele><time>2026-04-11T11:45:52.112Z</time></trkpt><trkpt lat="43.9963048" lon="11.2784771"><ele>255.0</ele><time>2026-04-11T11:45:54.111Z</time></trkpt><trkpt lat="43.9963515" lon="11.2783299"><ele>255.0</ele><time>2026-04-11T11:45:56.111Z</time></trkpt><trkpt lat="43.9964016" lon="11.2781801"><ele>255.0</ele><time>2026-04-11T11:45:58.111Z</time></trkpt><trkpt lat="43.9964446" lon="11.2780397"><ele>255.0</ele><time>2026-04-11T11:46:00.11Z</time></trkpt><trkpt lat="43.9964716" lon="11.2779539"><ele>255.0</ele><time>2026-04-11T11:46:01.111Z</time></trkpt><trkpt lat="43.9965149" lon="11.2778032"><ele>255.0</ele><time>2026-04-11T11:46:03.11Z</time></trkpt><trkpt lat="43.9965743" lon="11.2776812"><ele>255.2</ele><time>2026-04-11T11:46:05.11Z</time></trkpt><trkpt lat="43.9966385" lon="11.277591"><ele>255.4</ele><time>2026-04-11T11:46:07.11Z</time></trkpt><trkpt lat="43.996697" lon="11.2774914"><ele>255.60000000000002</ele><time>2026-04-11T11:46:09.111Z</time></trkpt><trkpt lat="43.9967322" lon="11.2773792"><ele>255.8</ele><time>2026-04-11T11:46:11.111Z</time></trkpt><trkpt lat="43.9967857" lon="11.2772759"><ele>256.0</ele><time>2026-04-11T11:46:13.11Z</time></trkpt><trkpt lat="43.9968397" lon="11.2771753"><ele>256.8</ele><time>2026-04-11T11:46:15.11Z</time></trkpt><trkpt lat="43.9968757" lon="11.2770589"><ele>257.6</ele><time>2026-04-11T11:46:17.111Z</time></trkpt><trkpt lat="43.9968978" lon="11.2769444"><ele>258.4</ele><time>2026-04-11T11:46:19.111Z</time></trkpt><trkpt lat="43.9969133" lon="11.2768211"><ele>259.2</ele><time>2026-04-11T11:46:21.11Z</time></trkpt><trkpt lat="43.996924" lon="11.2766894"><ele>260.0</ele><time>2026-04-11T11:46:23.11Z</time></trkpt><trkpt lat="43.9969409" lon="11.2765551"><ele>261.0</ele><time>2026-04-11T11:46:25.111Z</time></trkpt><trkpt lat="43.9969518" lon="11.2764127"><ele>262.0</ele><time>2026-04-11T11:46:27.11Z</time></trkpt><trkpt lat="43.9969677" lon="11.2762706"><ele>263.0</ele><time>2026-04-11T11:46:29.111Z</time></trkpt><trkpt lat="43.9969865" lon="11.2761156"><ele>264.0</ele><time>2026-04-11T11:46:31.111Z</time></trkpt><trkpt lat="43.9970053" lon="11.2759656"><ele>265.0</ele><time>2026-04-11T11:46:33.111Z</time></trkpt><trkpt lat="43.9970202" lon="11.2758165"><ele>265.0</ele><time>2026-04-11T11:46:35.111Z</time></trkpt><trkpt lat="43.9970291" lon="11.2756573"><ele>265.0</ele><time>2026-04-11T11:46:37.111Z</time></trkpt><trkpt lat="43.9970429" lon="11.2755044"><ele>265.0</ele><time>2026-04-11T11:46:39.111Z</time></trkpt><trkpt lat="43.9970507" lon="11.2753556"><ele>265.0</ele><time>2026-04-11T11:46:41.111Z</time></trkpt><trkpt lat="43.9970559" lon="11.2751909"><ele>266.2</ele><time>2026-04-11T11:46:43.111Z</time></trkpt><trkpt lat="43.9970583" lon="11.2750307"><ele>267.4</ele><time>2026-04-11T11:46:45.111Z</time></trkpt><trkpt lat="43.9970639" lon="11.2749061"><ele>268.6</ele><time>2026-04-11T11:46:47.11Z</time></trkpt><trkpt lat="43.9970768" lon="11.2747889"><ele>269.8</ele><time>2026-04-11T11:46:49.111Z</time></trkpt><trkpt lat="43.9970845" lon="11.2746555"><ele>271.0</ele><time>2026-04-11T11:46:51.11Z</time></trkpt><trkpt lat="43.997075" lon="11.2744923"><ele>272.8</ele><time>2026-04-11T11:46:53.11Z</time></trkpt><trkpt lat="43.9970444" lon="11.27436"><ele>274.6</ele><time>2026-04-11T11:46:55.11Z</time></trkpt><trkpt lat="43.9970479" lon="11.2742575"><ele>276.4</ele><time>2026-04-11T11:46:57.111Z</time></trkpt><trkpt lat="43.9971255" lon="11.2741795"><ele>278.2</ele><time>2026-04-11T11:46:59.111Z</time></trkpt><trkpt lat="43.9972003" lon="11.2741177"><ele>280.0</ele><time>2026-04-11T11:47:01.11Z</time></trkpt><trkpt lat="43.9972997" lon="11.2740576"><ele>280.0</ele><time>2026-04-11T11:47:03.11Z</time></trkpt><trkpt lat="43.9974071" lon="11.2740037"><ele>280.0</ele><time>2026-04-11T11:47:05.11Z</time></trkpt><trkpt lat="43.9974685" lon="11.2739718"><ele>280.0</ele><time>2026-04-11T11:47:06.11Z</time></trkpt><trkpt lat="43.9975368" lon="11.2739277"><ele>280.0</ele><time>2026-04-11T11:47:07.11Z</time></trkpt><trkpt lat="43.9976674" lon="11.273869"><ele>280.0</ele><time>2026-04-11T11:47:09.11Z</time></trkpt><trkpt lat="43.9977472" lon="11.2738518"><ele>282.14285714285717</ele><time>2026-04-11T11:47:10.111Z</time></trkpt><trkpt lat="43.9978282" lon="11.2738229"><ele>284.2857142857143</ele><time>2026-04-11T11:47:11.111Z</time></trkpt><trkpt lat="43.9979021" lon="11.2737961"><ele>286.42857142857144</ele><time>2026-04-11T11:47:12.111Z</time></trkpt><trkpt lat="43.997972" lon="11.2737728"><ele>288.57142857142856</ele><time>2026-04-11T11:47:13.111Z</time></trkpt><trkpt lat="43.9980368" lon="11.273738"><ele>290.7142857142857</ele><time>2026-04-11T11:47:14.11Z</time></trkpt><trkpt lat="43.9981097" lon="11.2737168"><ele>292.8571428571429</ele><time>2026-04-11T11:47:15.11Z</time></trkpt><trkpt lat="43.9981824" lon="11.2737075"><ele>295.0</ele><time>2026-04-11T11:47:16.111Z</time></trkpt><trkpt lat="43.9982533" lon="11.2736813"><ele>295.0</ele><time>2026-04-11T11:47:17.111Z</time></trkpt><trkpt lat="43.9983189" lon="11.2736569"><ele>295.0</ele><time>2026-04-11T11:47:18.111Z</time></trkpt><trkpt lat="43.9983808" lon="11.2736315"><ele>295.0</ele><time>2026-04-11T11:47:19.111Z</time></trkpt><trkpt lat="43.9984475" lon="11.2736088"><ele>295.0</ele><time>2026-04-11T11:47:20.111Z</time></trkpt><trkpt lat="43.9985692" lon="11.2735987"><ele>295.0</ele><time>2026-04-11T11:47:22.111Z</time></trkpt><trkpt lat="43.9986933" lon="11.2735902"><ele>295.0</ele><time>2026-04-11T11:47:24.111Z</time></trkpt><trkpt lat="43.9988121" lon="11.2736044"><ele>298.2</ele><time>2026-04-11T11:47:26.111Z</time></trkpt><trkpt lat="43.9989099" lon="11.273615"><ele>301.4</ele><time>2026-04-11T11:47:28.11Z</time></trkpt><trkpt lat="43.9990288" lon="11.2736302"><ele>304.6</ele><time>2026-04-11T11:47:30.111Z</time></trkpt><trkpt lat="43.9991036" lon="11.2736421"><ele>307.8</ele><time>2026-04-11T11:47:31.111Z</time></trkpt><trkpt lat="43.9991686" lon="11.2736791"><ele>311.0</ele><time>2026-04-11T11:47:32.111Z</time></trkpt><trkpt lat="43.9992771" lon="11.2737233"><ele>313.0</ele><time>2026-04-11T11:47:34.109Z</time></trkpt><trkpt lat="43.9993667" lon="11.273681"><ele>315.0</ele><time>2026-04-11T11:47:36.111Z</time></trkpt><trkpt lat="43.9994166" lon="11.2735694"><ele>317.0</ele><time>2026-04-11T11:47:38.11Z</time></trkpt><trkpt lat="43.9994121" lon="11.2734335"><ele>319.0</ele><time>2026-04-11T11:47:40.111Z</time></trkpt><trkpt lat="43.999418" lon="11.2732762"><ele>321.0</ele><time>2026-04-11T11:47:42.111Z</time></trkpt><trkpt lat="43.9994833" lon="11.2731711"><ele>322.6</ele><time>2026-04-11T11:47:44.11Z</time></trkpt><trkpt lat="43.9995703" lon="11.2730518"><ele>324.20000000000005</ele><time>2026-04-11T11:47:46.111Z</time></trkpt><trkpt lat="43.9996703" lon="11.2729661"><ele>325.79999999999995</ele><time>2026-04-11T11:47:48.111Z</time></trkpt><trkpt lat="43.999764" lon="11.2729075"><ele>327.4</ele><time>2026-04-11T11:47:50.111Z</time></trkpt><trkpt lat="43.9998255" lon="11.2728664"><ele>329.0</ele><time>2026-04-11T11:47:51.11Z</time></trkpt><trkpt lat="43.9999263" lon="11.2727681"><ele>329.0</ele><time>2026-04-11T11:47:53.111Z</time></trkpt><trkpt lat="43.9999871" lon="11.2727013"><ele>329.0</ele><time>2026-04-11T11:47:54.111Z</time></trkpt><trkpt lat="44.0000346" lon="11.2726188"><ele>329.0</ele><time>2026-04-11T11:47:55.11Z</time></trkpt><trkpt lat="44.0000833" lon="11.2725445"><ele>329.0</ele><time>2026-04-11T11:47:56.11Z</time></trkpt><trkpt lat="44.0001234" lon="11.2724701"><ele>329.0</ele><time>2026-04-11T11:47:57.11Z</time></trkpt><trkpt lat="44.0001463" lon="11.2723686"><ele>329.0</ele><time>2026-04-11T11:47:58.11Z</time></trkpt><trkpt lat="44.0001613" lon="11.2722141"><ele>329.0</ele><time>2026-04-11T11:48:00.111Z</time></trkpt><trkpt lat="44.0001667" lon="11.2720514"><ele>329.0</ele><time>2026-04-11T11:48:02.111Z</time></trkpt><trkpt lat="44.000172" lon="11.2718899"><ele>329.0</ele><time>2026-04-11T11:48:04.11Z</time></trkpt><trkpt lat="44.0001758" lon="11.2717949"><ele>329.0</ele><time>2026-04-11T11:48:05.11Z</time></trkpt><trkpt lat="44.0002121" lon="11.2716316"><ele>329.0</ele><time>2026-04-11T11:48:07.111Z</time></trkpt><trkpt lat="44.0002385" lon="11.27155"><ele>329.0</ele><time>2026-04-11T11:48:08.111Z</time></trkpt><trkpt lat="44.0002711" lon="11.2714704"><ele>329.0</ele><time>2026-04-11T11:48:09.111Z</time></trkpt><trkpt lat="44.0003538" lon="11.2713493"><ele>329.0</ele><time>2026-04-11T11:48:11.11Z</time></trkpt><trkpt lat="44.0004607" lon="11.2712549"><ele>329.0</ele><time>2026-04-11T11:48:13.111Z</time></trkpt><trkpt lat="44.0005217" lon="11.2712167"><ele>329.0</ele><time>2026-04-11T11:48:14.111Z</time></trkpt><trkpt lat="44.0005885" lon="11.2711747"><ele>328.42857142857144</ele><time>2026-04-11T11:48:15.11Z</time></trkpt><trkpt lat="44.0006593" lon="11.2711424"><ele>327.8571428571429</ele><time>2026-04-11T11:48:16.111Z</time></trkpt><trkpt lat="44.0007357" lon="11.2711237"><ele>327.2857142857143</ele><time>2026-04-11T11:48:17.111Z</time></trkpt><trkpt lat="44.0008021" lon="11.2710992"><ele>326.7142857142857</ele><time>2026-04-11T11:48:18.111Z</time></trkpt><trkpt lat="44.0008673" lon="11.2710819"><ele>326.14285714285717</ele><time>2026-04-11T11:48:19.111Z</time></trkpt><trkpt lat="44.000941" lon="11.2710515"><ele>325.57142857142856</ele><time>2026-04-11T11:48:20.111Z</time></trkpt><trkpt lat="44.0010081" lon="11.2710164"><ele>325.0</ele><time>2026-04-11T11:48:21.111Z</time></trkpt><trkpt lat="44.0010748" lon="11.2709875"><ele>326.66666666666663</ele><time>2026-04-11T11:48:22.111Z</time></trkpt><trkpt lat="44.0011337" lon="11.2709432"><ele>328.3333333333333</ele><time>2026-04-11T11:48:23.111Z</time></trkpt><trkpt lat="44.0011978" lon="11.2709097"><ele>330.0</ele><time>2026-04-11T11:48:24.111Z</time></trkpt><trkpt lat="44.0012806" lon="11.2708322"><ele>331.6666666666667</ele><time>2026-04-11T11:48:26.111Z</time></trkpt><trkpt lat="44.0013189" lon="11.2707037"><ele>333.33333333333337</ele><time>2026-04-11T11:48:28.111Z</time></trkpt><trkpt lat="44.0013093" lon="11.2705546"><ele>335.0</ele><time>2026-04-11T11:48:30.11Z</time></trkpt><trkpt lat="44.0012553" lon="11.2704395"><ele>336.33333333333337</ele><time>2026-04-11T11:48:31.11Z</time></trkpt><trkpt lat="44.001212" lon="11.2703465"><ele>337.6666666666667</ele><time>2026-04-11T11:48:32.11Z</time></trkpt><trkpt lat="44.0011441" lon="11.2702564"><ele>339.0</ele><time>2026-04-11T11:48:33.11Z</time></trkpt><trkpt lat="44.0010713" lon="11.2701853"><ele>340.3333333333333</ele><time>2026-04-11T11:48:34.11Z</time></trkpt><trkpt lat="44.0010055" lon="11.2701377"><ele>341.66666666666663</ele><time>2026-04-11T11:48:35.11Z</time></trkpt><trkpt lat="44.0009295" lon="11.2701152"><ele>343.0</ele><time>2026-04-11T11:48:36.11Z</time></trkpt><trkpt lat="44.00086" lon="11.2701023"><ele>342.8333333333333</ele><time>2026-04-11T11:48:37.11Z</time></trkpt><trkpt lat="44.0007892" lon="11.2700962"><ele>342.66666666666663</ele><time>2026-04-11T11:48:38.111Z</time></trkpt><trkpt lat="44.0006755" lon="11.2700241"><ele>342.5</ele><time>2026-04-11T11:48:40.111Z</time></trkpt><trkpt lat="44.0006341" lon="11.2699514"><ele>342.3333333333333</ele><time>2026-04-11T11:48:41.111Z</time></trkpt><trkpt lat="44.0005915" lon="11.2698639"><ele>342.1666666666667</ele><time>2026-04-11T11:48:42.111Z</time></trkpt><trkpt lat="44.0005409" lon="11.2697854"><ele>342.0</ele><time>2026-04-11T11:48:43.11Z</time></trkpt><trkpt lat="44.0004837" lon="11.269712"><ele>342.5</ele><time>2026-04-11T11:48:44.11Z</time></trkpt><trkpt lat="44.000424" lon="11.269656"><ele>343.0</ele><time>2026-04-11T11:48:45.111Z</time></trkpt><trkpt lat="44.0003033" lon="11.2695944"><ele>343.5</ele><time>2026-04-11T11:48:47.11Z</time></trkpt><trkpt lat="44.0002407" lon="11.2695596"><ele>344.0</ele><time>2026-04-11T11:48:48.109Z</time></trkpt><trkpt lat="44.0001593" lon="11.269528"><ele>344.5</ele><time>2026-04-11T11:48:50.111Z</time></trkpt><trkpt lat="44.0000952" lon="11.2694931"><ele>345.0</ele><time>2026-04-11T11:49:50.111Z</time></trkpt><trkpt lat="44.0000558" lon="11.269385"><ele>345.0</ele><time>2026-04-11T11:49:57.111Z</time></trkpt><trkpt lat="43.9999633" lon="11.2693417"><ele>345.0</ele><time>2026-04-11T11:49:59.11Z</time></trkpt><trkpt lat="43.9998942" lon="11.2693272"><ele>345.0</ele><time>2026-04-11T11:50:00.111Z</time></trkpt><trkpt lat="43.9998186" lon="11.2693104"><ele>345.0</ele><time>2026-04-11T11:50:01.111Z</time></trkpt><trkpt lat="43.9997291" lon="11.2692895"><ele>345.0</ele><time>2026-04-11T11:50:02.111Z</time></trkpt><trkpt lat="43.9996329" lon="11.2692677"><ele>345.0</ele><time>2026-04-11T11:50:03.111Z</time></trkpt><trkpt lat="43.9995328" lon="11.2692444"><ele>345.0</ele><time>2026-04-11T11:50:04.11Z</time></trkpt><trkpt lat="43.9994386" lon="11.2692228"><ele>345.0</ele><time>2026-04-11T11:50:05.11Z</time></trkpt><trkpt lat="43.9993395" lon="11.2692016"><ele>345.0</ele><time>2026-04-11T11:50:06.111Z</time></trkpt><trkpt lat="43.9992366" lon="11.2691767"><ele>345.0</ele><time>2026-04-11T11:50:07.111Z</time></trkpt><trkpt lat="43.9991279" lon="11.2691477"><ele>345.0</ele><time>2026-04-11T11:50:08.111Z</time></trkpt><trkpt lat="43.9990172" lon="11.2691215"><ele>345.6</ele><time>2026-04-11T11:50:09.111Z</time></trkpt><trkpt lat="43.9989171" lon="11.2690996"><ele>346.2</ele><time>2026-04-11T11:50:10.11Z</time></trkpt><trkpt lat="43.9988122" lon="11.2690779"><ele>346.79999999999995</ele><time>2026-04-11T11:50:11.11Z</time></trkpt><trkpt lat="43.9987056" lon="11.2690553"><ele>347.4</ele><time>2026-04-11T11:50:12.11Z</time></trkpt><trkpt lat="43.9985957" lon="11.269032"><ele>348.0</ele><time>2026-04-11T11:50:13.111Z</time></trkpt><trkpt lat="43.9984839" lon="11.2690085"><ele>348.0</ele><time>2026-04-11T11:50:14.11Z</time></trkpt><trkpt lat="43.9983624" lon="11.2689808"><ele>348.0</ele><time>2026-04-11T11:50:15.11Z</time></trkpt><trkpt lat="43.9982505" lon="11.2689508"><ele>348.0</ele><time>2026-04-11T11:50:16.111Z</time></trkpt><trkpt lat="43.998149" lon="11.2689277"><ele>348.0</ele><time>2026-04-11T11:50:17.11Z</time></trkpt><trkpt lat="43.9980507" lon="11.2689091"><ele>348.0</ele><time>2026-04-11T11:50:18.11Z</time></trkpt><trkpt lat="43.9979424" lon="11.2688982"><ele>347.5</ele><time>2026-04-11T11:50:19.111Z</time></trkpt><trkpt lat="43.9978319" lon="11.2689036"><ele>347.0</ele><time>2026-04-11T11:50:20.111Z</time></trkpt><trkpt lat="43.997715" lon="11.2689126"><ele>346.5</ele><time>2026-04-11T11:50:21.111Z</time></trkpt><trkpt lat="43.9976037" lon="11.2689182"><ele>346.0</ele><time>2026-04-11T11:50:22.111Z</time></trkpt><trkpt lat="43.9974873" lon="11.268928"><ele>345.0</ele><time>2026-04-11T11:50:23.111Z</time></trkpt><trkpt lat="43.9973698" lon="11.2689349"><ele>344.0</ele><time>2026-04-11T11:50:24.111Z</time></trkpt><trkpt lat="43.9972517" lon="11.2689377"><ele>343.0</ele><time>2026-04-11T11:50:25.111Z</time></trkpt><trkpt lat="43.9971411" lon="11.2689423"><ele>342.0</ele><time>2026-04-11T11:50:26.111Z</time></trkpt><trkpt lat="43.9970298" lon="11.2689447"><ele>342.0</ele><time>2026-04-11T11:50:27.11Z</time></trkpt><trkpt lat="43.9969158" lon="11.2689341"><ele>342.0</ele><time>2026-04-11T11:50:28.111Z</time></trkpt><trkpt lat="43.9967946" lon="11.2688976"><ele>342.0</ele><time>2026-04-11T11:50:29.11Z</time></trkpt><trkpt lat="43.996672" lon="11.2688392"><ele>342.0</ele><time>2026-04-11T11:50:30.111Z</time></trkpt><trkpt lat="43.9965481" lon="11.2687648"><ele>341.0</ele><time>2026-04-11T11:50:31.11Z</time></trkpt><trkpt lat="43.9964338" lon="11.2686689"><ele>340.0</ele><time>2026-04-11T11:50:32.111Z</time></trkpt><trkpt lat="43.9963392" lon="11.268561"><ele>339.0</ele><time>2026-04-11T11:50:33.11Z</time></trkpt><trkpt lat="43.9962501" lon="11.2684594"><ele>338.0</ele><time>2026-04-11T11:50:34.11Z</time></trkpt><trkpt lat="43.9961454" lon="11.2683659"><ele>338.0</ele><time>2026-04-11T11:50:35.111Z</time></trkpt><trkpt lat="43.9960225" lon="11.2683179"><ele>338.0</ele><time>2026-04-11T11:50:36.11Z</time></trkpt><trkpt lat="43.9958949" lon="11.2683206"><ele>338.0</ele><time>2026-04-11T11:50:37.109Z</time></trkpt><trkpt lat="43.9957708" lon="11.2683388"><ele>338.0</ele><time>2026-04-11T11:50:38.11Z</time></trkpt><trkpt lat="43.9956388" lon="11.2683616"><ele>338.5</ele><time>2026-04-11T11:50:39.11Z</time></trkpt><trkpt lat="43.99551" lon="11.268386"><ele>339.0</ele><time>2026-04-11T11:50:40.11Z</time></trkpt><trkpt lat="43.9953973" lon="11.2684245"><ele>339.5</ele><time>2026-04-11T11:50:41.111Z</time></trkpt><trkpt lat="43.9952931" lon="11.2684923"><ele>340.0</ele><time>2026-04-11T11:50:42.111Z</time></trkpt><trkpt lat="43.9952062" lon="11.2685928"><ele>340.0</ele><time>2026-04-11T11:50:43.111Z</time></trkpt><trkpt lat="43.9951236" lon="11.2686973"><ele>340.0</ele><time>2026-04-11T11:50:44.111Z</time></trkpt><trkpt lat="43.9950213" lon="11.2687814"><ele>340.0</ele><time>2026-04-11T11:50:45.111Z</time></trkpt><trkpt lat="43.9948955" lon="11.268842"><ele>340.0</ele><time>2026-04-11T11:50:46.11Z</time></trkpt><trkpt lat="43.9947668" lon="11.268874"><ele>339.25</ele><time>2026-04-11T11:50:47.111Z</time></trkpt><trkpt lat="43.9946323" lon="11.2688904"><ele>338.5</ele><time>2026-04-11T11:50:48.111Z</time></trkpt><trkpt lat="43.9944844" lon="11.2689004"><ele>337.75</ele><time>2026-04-11T11:50:49.11Z</time></trkpt><trkpt lat="43.9943408" lon="11.2689095"><ele>337.0</ele><time>2026-04-11T11:50:50.11Z</time></trkpt><trkpt lat="43.9941893" lon="11.2689007"><ele>333.3333333333333</ele><time>2026-04-11T11:50:51.111Z</time></trkpt><trkpt lat="43.9940379" lon="11.2688792"><ele>329.6666666666667</ele><time>2026-04-11T11:50:52.111Z</time></trkpt><trkpt lat="43.993874" lon="11.2688677"><ele>326.0</ele><time>2026-04-11T11:50:53.11Z</time></trkpt><trkpt lat="43.9937187" lon="11.2688856"><ele>326.0</ele><time>2026-04-11T11:50:54.11Z</time></trkpt><trkpt lat="43.9935658" lon="11.2689197"><ele>326.0</ele><time>2026-04-11T11:50:55.11Z</time></trkpt><trkpt lat="43.9934202" lon="11.2689488"><ele>326.0</ele><time>2026-04-11T11:50:56.109Z</time></trkpt><trkpt lat="43.9932812" lon="11.2689741"><ele>326.0</ele><time>2026-04-11T11:50:57.109Z</time></trkpt><trkpt lat="43.9931492" lon="11.269008"><ele>326.75</ele><time>2026-04-11T11:50:58.109Z</time></trkpt><trkpt lat="43.9930225" lon="11.2690621"><ele>327.5</ele><time>2026-04-11T11:50:59.11Z</time></trkpt><trkpt lat="43.9929063" lon="11.2691287"><ele>328.25</ele><time>2026-04-11T11:51:00.109Z</time></trkpt><trkpt lat="43.9927943" lon="11.2691955"><ele>329.0</ele><time>2026-04-11T11:51:01.109Z</time></trkpt><trkpt lat="43.992685" lon="11.2692564"><ele>329.0</ele><time>2026-04-11T11:51:02.109Z</time></trkpt><trkpt lat="43.9925663" lon="11.2692993"><ele>329.0</ele><time>2026-04-11T11:51:03.11Z</time></trkpt><trkpt lat="43.992439" lon="11.2692885"><ele>329.0</ele><time>2026-04-11T11:51:04.109Z</time></trkpt><trkpt lat="43.9923061" lon="11.2692439"><ele>329.0</ele><time>2026-04-11T11:51:05.109Z</time></trkpt><trkpt lat="43.9921746" lon="11.2691752"><ele>327.5</ele><time>2026-04-11T11:51:06.109Z</time></trkpt><trkpt lat="43.9920491" lon="11.2691145"><ele>326.0</ele><time>2026-04-11T11:51:07.109Z</time></trkpt><trkpt lat="43.9919287" lon="11.2691034"><ele>324.5</ele><time>2026-04-11T11:51:08.109Z</time></trkpt><trkpt lat="43.9918099" lon="11.2691296"><ele>323.0</ele><time>2026-04-11T11:51:09.109Z</time></trkpt><trkpt lat="43.9917087" lon="11.2692176"><ele>321.75</ele><time>2026-04-11T11:51:10.11Z</time></trkpt><trkpt lat="43.9916379" lon="11.269349"><ele>320.5</ele><time>2026-04-11T11:51:11.11Z</time></trkpt><trkpt lat="43.9916062" lon="11.2695103"><ele>319.25</ele><time>2026-04-11T11:51:12.11Z</time></trkpt><trkpt lat="43.9916001" lon="11.2696909"><ele>318.0</ele><time>2026-04-11T11:51:13.109Z</time></trkpt><trkpt lat="43.9915947" lon="11.2698675"><ele>318.0</ele><time>2026-04-11T11:51:14.11Z</time></trkpt><trkpt lat="43.9915855" lon="11.2700492"><ele>318.0</ele><time>2026-04-11T11:51:15.11Z</time></trkpt><trkpt lat="43.9915427" lon="11.2702356"><ele>318.0</ele><time>2026-04-11T11:51:16.11Z</time></trkpt><trkpt lat="43.9914669" lon="11.270413"><ele>318.0</ele><time>2026-04-11T11:51:17.11Z</time></trkpt><trkpt lat="43.9913723" lon="11.2705649"><ele>317.75</ele><time>2026-04-11T11:51:18.108Z</time></trkpt><trkpt lat="43.9912631" lon="11.2706967"><ele>317.5</ele><time>2026-04-11T11:51:19.108Z</time></trkpt><trkpt lat="43.9911376" lon="11.2708147"><ele>317.25</ele><time>2026-04-11T11:51:20.11Z</time></trkpt><trkpt lat="43.9910105" lon="11.2709286"><ele>317.0</ele><time>2026-04-11T11:51:21.11Z</time></trkpt><trkpt lat="43.9908906" lon="11.2710433"><ele>316.5</ele><time>2026-04-11T11:51:22.11Z</time></trkpt><trkpt lat="43.9907725" lon="11.2711545"><ele>316.0</ele><time>2026-04-11T11:51:23.11Z</time></trkpt><trkpt lat="43.9906508" lon="11.2712715"><ele>315.5</ele><time>2026-04-11T11:51:24.11Z</time></trkpt><trkpt lat="43.9905245" lon="11.2713868"><ele>315.0</ele><time>2026-04-11T11:51:25.11Z</time></trkpt><trkpt lat="43.9903893" lon="11.271511"><ele>315.0</ele><time>2026-04-11T11:51:26.109Z</time></trkpt><trkpt lat="43.99025" lon="11.2716368"><ele>315.0</ele><time>2026-04-11T11:51:27.109Z</time></trkpt><trkpt lat="43.9901055" lon="11.2717648"><ele>315.0</ele><time>2026-04-11T11:51:28.11Z</time></trkpt><trkpt lat="43.9899636" lon="11.2718926"><ele>309.6666666666667</ele><time>2026-04-11T11:51:29.11Z</time></trkpt><trkpt lat="43.9898275" lon="11.272017"><ele>304.33333333333337</ele><time>2026-04-11T11:51:30.11Z</time></trkpt><trkpt lat="43.9896938" lon="11.2721359"><ele>299.0</ele><time>2026-04-11T11:51:31.11Z</time></trkpt><trkpt lat="43.9895682" lon="11.2722512"><ele>298.25</ele><time>2026-04-11T11:51:32.11Z</time></trkpt><trkpt lat="43.9894463" lon="11.2723644"><ele>297.5</ele><time>2026-04-11T11:51:33.109Z</time></trkpt><trkpt lat="43.9893257" lon="11.2724679"><ele>296.75</ele><time>2026-04-11T11:51:34.11Z</time></trkpt><trkpt lat="43.9891948" lon="11.2725602"><ele>296.0</ele><time>2026-04-11T11:51:35.11Z</time></trkpt><trkpt lat="43.9890621" lon="11.272647"><ele>296.0</ele><time>2026-04-11T11:51:36.11Z</time></trkpt><trkpt lat="43.988922" lon="11.2727335"><ele>296.0</ele><time>2026-04-11T11:51:37.11Z</time></trkpt><trkpt lat="43.9887777" lon="11.2728242"><ele>296.0</ele><time>2026-04-11T11:51:38.11Z</time></trkpt><trkpt lat="43.9886369" lon="11.2729054"><ele>296.0</ele><time>2026-04-11T11:51:39.11Z</time></trkpt><trkpt lat="43.9885065" lon="11.2729836"><ele>296.0</ele><time>2026-04-11T11:51:40.11Z</time></trkpt><trkpt lat="43.9883792" lon="11.2730486"><ele>296.0</ele><time>2026-04-11T11:51:41.11Z</time></trkpt><trkpt lat="43.988252" lon="11.2731008"><ele>296.0</ele><time>2026-04-11T11:51:42.11Z</time></trkpt><trkpt lat="43.9881144" lon="11.2731502"><ele>297.0</ele><time>2026-04-11T11:51:43.11Z</time></trkpt><trkpt lat="43.98798" lon="11.2731928"><ele>298.0</ele><time>2026-04-11T11:51:44.11Z</time></trkpt><trkpt lat="43.9878492" lon="11.273227"><ele>299.0</ele><time>2026-04-11T11:51:45.109Z</time></trkpt><trkpt lat="43.9877225" lon="11.2732563"><ele>300.0</ele><time>2026-04-11T11:51:46.109Z</time></trkpt><trkpt lat="43.9875985" lon="11.273282"><ele>297.5</ele><time>2026-04-11T11:51:47.109Z</time></trkpt><trkpt lat="43.9874738" lon="11.2732997"><ele>295.0</ele><time>2026-04-11T11:51:48.109Z</time></trkpt><trkpt lat="43.987344" lon="11.2733153"><ele>292.5</ele><time>2026-04-11T11:51:49.11Z</time></trkpt><trkpt lat="43.9872127" lon="11.2733298"><ele>290.0</ele><time>2026-04-11T11:51:50.11Z</time></trkpt><trkpt lat="43.9870859" lon="11.273341"><ele>290.0</ele><time>2026-04-11T11:51:51.109Z</time></trkpt><trkpt lat="43.9869634" lon="11.2733522"><ele>290.0</ele><time>2026-04-11T11:51:52.109Z</time></trkpt><trkpt lat="43.9868494" lon="11.2733659"><ele>290.0</ele><time>2026-04-11T11:51:53.109Z</time></trkpt><trkpt lat="43.9867416" lon="11.273379"><ele>290.0</ele><time>2026-04-11T11:51:54.109Z</time></trkpt><trkpt lat="43.98664" lon="11.2733922"><ele>290.0</ele><time>2026-04-11T11:51:55.11Z</time></trkpt><trkpt lat="43.9865425" lon="11.2734057"><ele>289.33333333333337</ele><time>2026-04-11T11:51:56.11Z</time></trkpt><trkpt lat="43.9864538" lon="11.2734177"><ele>288.6666666666667</ele><time>2026-04-11T11:51:57.11Z</time></trkpt><trkpt lat="43.9863736" lon="11.273427"><ele>288.0</ele><time>2026-04-11T11:51:58.11Z</time></trkpt><trkpt lat="43.9862971" lon="11.2734378"><ele>287.3333333333333</ele><time>2026-04-11T11:51:59.11Z</time></trkpt><trkpt lat="43.9862226" lon="11.2734461"><ele>286.66666666666663</ele><time>2026-04-11T11:52:00.11Z</time></trkpt><trkpt lat="43.9861538" lon="11.2734505"><ele>286.0</ele><time>2026-04-11T11:52:01.11Z</time></trkpt><trkpt lat="43.9860872" lon="11.2734341"><ele>286.0</ele><time>2026-04-11T11:52:02.11Z</time></trkpt><trkpt lat="43.9860198" lon="11.2733911"><ele>286.0</ele><time>2026-04-11T11:52:03.11Z</time></trkpt><trkpt lat="43.9859651" lon="11.2733245"><ele>286.0</ele><time>2026-04-11T11:52:04.11Z</time></trkpt><trkpt lat="43.9859325" lon="11.273245"><ele>286.0</ele><time>2026-04-11T11:52:05.11Z</time></trkpt><trkpt lat="43.9859315" lon="11.2730803"><ele>286.0</ele><time>2026-04-11T11:52:07.11Z</time></trkpt><trkpt lat="43.9859951" lon="11.2729362"><ele>284.8</ele><time>2026-04-11T11:52:09.109Z</time></trkpt><trkpt lat="43.9860553" lon="11.2728764"><ele>283.6</ele><time>2026-04-11T11:52:10.109Z</time></trkpt><trkpt lat="43.9861315" lon="11.2728228"><ele>282.4</ele><time>2026-04-11T11:52:11.109Z</time></trkpt><trkpt lat="43.9862167" lon="11.2727721"><ele>281.2</ele><time>2026-04-11T11:52:12.11Z</time></trkpt><trkpt lat="43.9863123" lon="11.2727117"><ele>280.0</ele><time>2026-04-11T11:52:13.11Z</time></trkpt><trkpt lat="43.9864171" lon="11.2726485"><ele>280.0</ele><time>2026-04-11T11:52:14.11Z</time></trkpt><trkpt lat="43.9865301" lon="11.2725801"><ele>280.0</ele><time>2026-04-11T11:52:15.11Z</time></trkpt><trkpt lat="43.9866461" lon="11.2725053"><ele>280.0</ele><time>2026-04-11T11:52:16.109Z</time></trkpt><trkpt lat="43.9867614" lon="11.2724227"><ele>280.0</ele><time>2026-04-11T11:52:17.11Z</time></trkpt><trkpt lat="43.9868818" lon="11.2723334"><ele>279.0</ele><time>2026-04-11T11:52:18.109Z</time></trkpt><trkpt lat="43.9870042" lon="11.2722293"><ele>278.0</ele><time>2026-04-11T11:52:19.11Z</time></trkpt><trkpt lat="43.9871264" lon="11.2721127"><ele>277.0</ele><time>2026-04-11T11:52:20.11Z</time></trkpt><trkpt lat="43.987247" lon="11.2719839"><ele>276.0</ele><time>2026-04-11T11:52:21.108Z</time></trkpt><trkpt lat="43.9873648" lon="11.2718435"><ele>276.0</ele><time>2026-04-11T11:52:22.11Z</time></trkpt><trkpt lat="43.9874736" lon="11.2716874"><ele>276.0</ele><time>2026-04-11T11:52:23.11Z</time></trkpt><trkpt lat="43.9875795" lon="11.2715222"><ele>276.0</ele><time>2026-04-11T11:52:24.11Z</time></trkpt><trkpt lat="43.9876841" lon="11.2713522"><ele>274.3333333333333</ele><time>2026-04-11T11:52:25.11Z</time></trkpt><trkpt lat="43.9877884" lon="11.2711758"><ele>272.66666666666663</ele><time>2026-04-11T11:52:26.109Z</time></trkpt><trkpt lat="43.987886" lon="11.2709953"><ele>271.0</ele><time>2026-04-11T11:52:27.109Z</time></trkpt><trkpt lat="43.987984" lon="11.2708018"><ele>269.66666666666663</ele><time>2026-04-11T11:52:28.11Z</time></trkpt><trkpt lat="43.9880787" lon="11.2706051"><ele>268.3333333333333</ele><time>2026-04-11T11:52:29.11Z</time></trkpt><trkpt lat="43.9881668" lon="11.270399"><ele>267.0</ele><time>2026-04-11T11:52:30.11Z</time></trkpt><trkpt lat="43.9882454" lon="11.270189"><ele>267.0</ele><time>2026-04-11T11:52:31.11Z</time></trkpt><trkpt lat="43.9883202" lon="11.2699772"><ele>267.0</ele><time>2026-04-11T11:52:32.11Z</time></trkpt><trkpt lat="43.9883876" lon="11.2697603"><ele>267.0</ele><time>2026-04-11T11:52:33.109Z</time></trkpt><trkpt lat="43.9884518" lon="11.2695418"><ele>269.3333333333333</ele><time>2026-04-11T11:52:34.11Z</time></trkpt><trkpt lat="43.988509" lon="11.269324"><ele>271.66666666666663</ele><time>2026-04-11T11:52:35.11Z</time></trkpt><trkpt lat="43.988559" lon="11.2690982"><ele>274.0</ele><time>2026-04-11T11:52:36.109Z</time></trkpt><trkpt lat="43.988602" lon="11.2688674"><ele>276.3333333333333</ele><time>2026-04-11T11:52:37.109Z</time></trkpt><trkpt lat="43.9886402" lon="11.2686335"><ele>278.6666666666667</ele><time>2026-04-11T11:52:38.109Z</time></trkpt><trkpt lat="43.9886768" lon="11.2683978"><ele>281.0</ele><time>2026-04-11T11:52:39.109Z</time></trkpt><trkpt lat="43.9887044" lon="11.2681601"><ele>282.0</ele><time>2026-04-11T11:52:40.108Z</time></trkpt><trkpt lat="43.9887249" lon="11.267914"><ele>283.0</ele><time>2026-04-11T11:52:41.109Z</time></trkpt><trkpt lat="43.9887387" lon="11.2676599"><ele>284.0</ele><time>2026-04-11T11:52:42.11Z</time></trkpt><trkpt lat="43.9887481" lon="11.2674009"><ele>283.6666666666667</ele><time>2026-04-11T11:52:43.11Z</time></trkpt><trkpt lat="43.9887548" lon="11.2671382"><ele>283.3333333333333</ele><time>2026-04-11T11:52:44.11Z</time></trkpt><trkpt lat="43.98876" lon="11.2668812"><ele>283.0</ele><time>2026-04-11T11:52:45.11Z</time></trkpt><trkpt lat="43.988763" lon="11.2666256"><ele>282.3333333333333</ele><time>2026-04-11T11:52:46.109Z</time></trkpt><trkpt lat="43.9887659" lon="11.266368"><ele>281.6666666666667</ele><time>2026-04-11T11:52:47.109Z</time></trkpt><trkpt lat="43.988766" lon="11.2661124"><ele>281.0</ele><time>2026-04-11T11:52:48.109Z</time></trkpt><trkpt lat="43.9887645" lon="11.2658686"><ele>281.0</ele><time>2026-04-11T11:52:49.109Z</time></trkpt><trkpt lat="43.9887637" lon="11.2656396"><ele>281.0</ele><time>2026-04-11T11:52:50.11Z</time></trkpt><trkpt lat="43.9887626" lon="11.26542"><ele>281.0</ele><time>2026-04-11T11:52:51.11Z</time></trkpt><trkpt lat="43.9887591" lon="11.2651933"><ele>278.6666666666667</ele><time>2026-04-11T11:52:52.11Z</time></trkpt><trkpt lat="43.9887529" lon="11.2649656"><ele>276.3333333333333</ele><time>2026-04-11T11:52:53.11Z</time></trkpt><trkpt lat="43.9887416" lon="11.2647334"><ele>274.0</ele><time>2026-04-11T11:52:54.109Z</time></trkpt><trkpt lat="43.9887274" lon="11.2644959"><ele>270.66666666666663</ele><time>2026-04-11T11:52:55.11Z</time></trkpt><trkpt lat="43.9887125" lon="11.2642535"><ele>267.3333333333333</ele><time>2026-04-11T11:52:56.109Z</time></trkpt><trkpt lat="43.9886983" lon="11.2640056"><ele>264.0</ele><time>2026-04-11T11:52:57.108Z</time></trkpt><trkpt lat="43.988675" lon="11.2637544"><ele>258.3333333333333</ele><time>2026-04-11T11:52:58.109Z</time></trkpt><trkpt lat="43.9886444" lon="11.2635017"><ele>252.66666666666666</ele><time>2026-04-11T11:52:59.11Z</time></trkpt><trkpt lat="43.9886138" lon="11.263267"><ele>247.0</ele><time>2026-04-11T11:53:00.109Z</time></trkpt><trkpt lat="43.9885792" lon="11.2630311"><ele>246.33333333333331</ele><time>2026-04-11T11:53:01.109Z</time></trkpt><trkpt lat="43.9885385" lon="11.2627872"><ele>245.66666666666669</ele><time>2026-04-11T11:53:02.109Z</time></trkpt><trkpt lat="43.9884924" lon="11.2625442"><ele>245.0</ele><time>2026-04-11T11:53:03.11Z</time></trkpt><trkpt lat="43.9884453" lon="11.262298"><ele>246.33333333333334</ele><time>2026-04-11T11:53:04.109Z</time></trkpt><trkpt lat="43.9883948" lon="11.2620555"><ele>247.66666666666669</ele><time>2026-04-11T11:53:05.109Z</time></trkpt><trkpt lat="43.9883467" lon="11.2618354"><ele>249.0</ele><time>2026-04-11T11:53:06.109Z</time></trkpt><trkpt lat="43.9883001" lon="11.2616289"><ele>252.75</ele><time>2026-04-11T11:53:07.11Z</time></trkpt><trkpt lat="43.9882529" lon="11.2614256"><ele>256.5</ele><time>2026-04-11T11:53:08.11Z</time></trkpt><trkpt lat="43.9882051" lon="11.2612331"><ele>260.25</ele><time>2026-04-11T11:53:09.11Z</time></trkpt><trkpt lat="43.988159" lon="11.2610414"><ele>264.0</ele><time>2026-04-11T11:53:10.11Z</time></trkpt><trkpt lat="43.9881113" lon="11.2608504"><ele>264.0</ele><time>2026-04-11T11:53:11.11Z</time></trkpt><trkpt lat="43.988065" lon="11.2606598"><ele>264.0</ele><time>2026-04-11T11:53:12.11Z</time></trkpt><trkpt lat="43.9880219" lon="11.2604771"><ele>264.0</ele><time>2026-04-11T11:53:13.11Z</time></trkpt><trkpt lat="43.9879822" lon="11.2603071"><ele>264.0</ele><time>2026-04-11T11:53:14.11Z</time></trkpt><trkpt lat="43.9879395" lon="11.2601396"><ele>264.75</ele><time>2026-04-11T11:53:15.11Z</time></trkpt><trkpt lat="43.9878976" lon="11.2599663"><ele>265.5</ele><time>2026-04-11T11:53:16.11Z</time></trkpt><trkpt lat="43.9878545" lon="11.2598028"><ele>266.25</ele><time>2026-04-11T11:53:17.11Z</time></trkpt><trkpt lat="43.9878195" lon="11.2596507"><ele>267.0</ele><time>2026-04-11T11:53:18.109Z</time></trkpt><trkpt lat="43.9877856" lon="11.259512"><ele>269.0</ele><time>2026-04-11T11:53:19.109Z</time></trkpt><trkpt lat="43.9877542" lon="11.2593904"><ele>271.0</ele><time>2026-04-11T11:53:20.11Z</time></trkpt><trkpt lat="43.9877261" lon="11.2592786"><ele>273.0</ele><time>2026-04-11T11:53:21.11Z</time></trkpt><trkpt lat="43.9877033" lon="11.2591759"><ele>275.0</ele><time>2026-04-11T11:53:22.11Z</time></trkpt><trkpt lat="43.9876848" lon="11.2590842"><ele>277.0</ele><time>2026-04-11T11:53:23.11Z</time></trkpt><trkpt lat="43.9876522" lon="11.2589125"><ele>278.66666666666663</ele><time>2026-04-11T11:53:25.11Z</time></trkpt><trkpt lat="43.9876376" lon="11.2588251"><ele>280.3333333333333</ele><time>2026-04-11T11:53:26.11Z</time></trkpt><trkpt lat="43.9876127" lon="11.2586858"><ele>282.0</ele><time>2026-04-11T11:53:28.11Z</time></trkpt><trkpt lat="43.9875997" lon="11.2585512"><ele>283.6666666666667</ele><time>2026-04-11T11:53:30.11Z</time></trkpt><trkpt lat="43.9876004" lon="11.2584301"><ele>285.33333333333337</ele><time>2026-04-11T11:53:32.11Z</time></trkpt><trkpt lat="43.9876024" lon="11.2583121"><ele>287.0</ele><time>2026-04-11T11:53:34.11Z</time></trkpt><trkpt lat="43.9876422" lon="11.258158"><ele>288.1666666666667</ele><time>2026-04-11T11:53:36.109Z</time></trkpt><trkpt lat="43.9876931" lon="11.2580935"><ele>289.33333333333337</ele><time>2026-04-11T11:53:37.11Z</time></trkpt><trkpt lat="43.9877898" lon="11.2580409"><ele>290.5</ele><time>2026-04-11T11:53:39.109Z</time></trkpt><trkpt lat="43.9878549" lon="11.2580361"><ele>291.6666666666667</ele><time>2026-04-11T11:53:41.11Z</time></trkpt><trkpt lat="43.9879404" lon="11.2580547"><ele>292.8333333333333</ele><time>2026-04-11T11:53:44.109Z</time></trkpt><trkpt lat="43.9880214" lon="11.2580754"><ele>294.0</ele><time>2026-04-11T11:53:48.11Z</time></trkpt><trkpt lat="43.9881127" lon="11.2581069"><ele>293.0</ele><time>2026-04-11T11:53:51.11Z</time></trkpt><trkpt lat="43.9881835" lon="11.2581224"><ele>292.0</ele><time>2026-04-11T11:53:53.108Z</time></trkpt><trkpt lat="43.9882713" lon="11.2581267"><ele>291.0</ele><time>2026-04-11T11:53:56.109Z</time></trkpt><trkpt lat="43.9883576" lon="11.2581136"><ele>290.0</ele><time>2026-04-11T11:54:00.11Z</time></trkpt><trkpt lat="43.9884205" lon="11.2580829"><ele>289.0</ele><time>2026-04-11T11:54:03.11Z</time></trkpt><trkpt lat="43.9884924" lon="11.2580333"><ele>288.0</ele><time>2026-04-11T11:54:06.109Z</time></trkpt><trkpt lat="43.9885647" lon="11.257971"><ele>288.0</ele><time>2026-04-11T11:54:08.11Z</time></trkpt><trkpt lat="43.9886474" lon="11.25785"><ele>288.0</ele><time>2026-04-11T11:54:10.109Z</time></trkpt><trkpt lat="43.9886901" lon="11.2577755"><ele>288.0</ele><time>2026-04-11T11:54:11.109Z</time></trkpt><trkpt lat="43.9887284" lon="11.2576873"><ele>288.0</ele><time>2026-04-11T11:54:12.11Z</time></trkpt><trkpt lat="43.9887629" lon="11.257586"><ele>288.0</ele><time>2026-04-11T11:54:13.11Z</time></trkpt><trkpt lat="43.9887927" lon="11.257477"><ele>288.0</ele><time>2026-04-11T11:54:14.11Z</time></trkpt><trkpt lat="43.9888199" lon="11.2573383"><ele>289.6</ele><time>2026-04-11T11:54:15.11Z</time></trkpt><trkpt lat="43.9888444" lon="11.2571942"><ele>291.20000000000005</ele><time>2026-04-11T11:54:16.109Z</time></trkpt><trkpt lat="43.9888597" lon="11.2570583"><ele>292.8</ele><time>2026-04-11T11:54:17.109Z</time></trkpt><trkpt lat="43.9888807" lon="11.2569174"><ele>294.40000000000003</ele><time>2026-04-11T11:54:18.11Z</time></trkpt><trkpt lat="43.9889092" lon="11.2567843"><ele>296.0</ele><time>2026-04-11T11:54:19.109Z</time></trkpt><trkpt lat="43.9889467" lon="11.2566643"><ele>296.0</ele><time>2026-04-11T11:54:20.109Z</time></trkpt><trkpt lat="43.9889857" lon="11.2565593"><ele>296.0</ele><time>2026-04-11T11:54:21.108Z</time></trkpt><trkpt lat="43.9890275" lon="11.2564708"><ele>296.0</ele><time>2026-04-11T11:54:22.109Z</time></trkpt><trkpt lat="43.9890668" lon="11.2563914"><ele>296.0</ele><time>2026-04-11T11:54:23.11Z</time></trkpt><trkpt lat="43.9891057" lon="11.2563184"><ele>296.0</ele><time>2026-04-11T11:54:24.109Z</time></trkpt><trkpt lat="43.9891466" lon="11.2562419"><ele>296.0</ele><time>2026-04-11T11:54:25.11Z</time></trkpt><trkpt lat="43.9891928" lon="11.2561651"><ele>296.0</ele><time>2026-04-11T11:54:26.11Z</time></trkpt><trkpt lat="43.9892401" lon="11.2560909"><ele>296.1666666666667</ele><time>2026-04-11T11:54:27.109Z</time></trkpt><trkpt lat="43.9892895" lon="11.2560244"><ele>296.33333333333337</ele><time>2026-04-11T11:54:28.109Z</time></trkpt><trkpt lat="43.9893398" lon="11.2559507"><ele>296.5</ele><time>2026-04-11T11:54:29.11Z</time></trkpt><trkpt lat="43.9893876" lon="11.2558773"><ele>296.6666666666667</ele><time>2026-04-11T11:54:30.109Z</time></trkpt><trkpt lat="43.9894662" lon="11.2557477"><ele>296.8333333333333</ele><time>2026-04-11T11:54:32.11Z</time></trkpt><trkpt lat="43.9895353" lon="11.2556214"><ele>297.0</ele><time>2026-04-11T11:54:34.11Z</time></trkpt><trkpt lat="43.9896087" lon="11.2554881"><ele>297.42857142857144</ele><time>2026-04-11T11:54:36.109Z</time></trkpt><trkpt lat="43.9896461" lon="11.2554103"><ele>297.8571428571429</ele><time>2026-04-11T11:54:37.109Z</time></trkpt><trkpt lat="43.9896888" lon="11.2553305"><ele>298.2857142857143</ele><time>2026-04-11T11:54:38.109Z</time></trkpt><trkpt lat="43.9897361" lon="11.2552532"><ele>298.7142857142857</ele><time>2026-04-11T11:54:39.109Z</time></trkpt><trkpt lat="43.9897799" lon="11.2551764"><ele>299.1428571428571</ele><time>2026-04-11T11:54:40.11Z</time></trkpt><trkpt lat="43.9898276" lon="11.2551129"><ele>299.57142857142856</ele><time>2026-04-11T11:54:41.108Z</time></trkpt><trkpt lat="43.9898737" lon="11.255043"><ele>300.0</ele><time>2026-04-11T11:54:42.11Z</time></trkpt><trkpt lat="43.9899203" lon="11.2549737"><ele>300.0</ele><time>2026-04-11T11:54:43.109Z</time></trkpt><trkpt lat="43.9899669" lon="11.2549011"><ele>300.0</ele><time>2026-04-11T11:54:44.11Z</time></trkpt><trkpt lat="43.990023" lon="11.2548328"><ele>300.0</ele><time>2026-04-11T11:54:45.109Z</time></trkpt><trkpt lat="43.9900879" lon="11.254766"><ele>300.0</ele><time>2026-04-11T11:54:46.11Z</time></trkpt><trkpt lat="43.9901621" lon="11.2547079"><ele>300.0</ele><time>2026-04-11T11:54:47.109Z</time></trkpt><trkpt lat="43.9902366" lon="11.2546565"><ele>300.0</ele><time>2026-04-11T11:54:48.109Z</time></trkpt><trkpt lat="43.9903153" lon="11.2546174"><ele>299.3333333333333</ele><time>2026-04-11T11:54:49.109Z</time></trkpt><trkpt lat="43.9903937" lon="11.2545697"><ele>298.6666666666667</ele><time>2026-04-11T11:54:50.109Z</time></trkpt><trkpt lat="43.9904728" lon="11.2545111"><ele>298.0</ele><time>2026-04-11T11:54:51.11Z</time></trkpt><trkpt lat="43.9905512" lon="11.2544485"><ele>297.33333333333337</ele><time>2026-04-11T11:54:52.109Z</time></trkpt><trkpt lat="43.9906278" lon="11.2543905"><ele>296.6666666666667</ele><time>2026-04-11T11:54:53.11Z</time></trkpt><trkpt lat="43.9906984" lon="11.2543366"><ele>296.0</ele><time>2026-04-11T11:54:54.11Z</time></trkpt><trkpt lat="43.9907715" lon="11.2542804"><ele>296.2</ele><time>2026-04-11T11:54:55.11Z</time></trkpt><trkpt lat="43.9908495" lon="11.2542211"><ele>296.40000000000003</ele><time>2026-04-11T11:54:56.11Z</time></trkpt><trkpt lat="43.990931" lon="11.2541514"><ele>296.6</ele><time>2026-04-11T11:54:57.11Z</time></trkpt><trkpt lat="43.9910142" lon="11.2540855"><ele>296.8</ele><time>2026-04-11T11:54:58.109Z</time></trkpt><trkpt lat="43.9910832" lon="11.2540202"><ele>297.0</ele><time>2026-04-11T11:54:59.11Z</time></trkpt><trkpt lat="43.991156" lon="11.2539424"><ele>297.0</ele><time>2026-04-11T11:55:00.11Z</time></trkpt><trkpt lat="43.9912128" lon="11.2538805"><ele>297.0</ele><time>2026-04-11T11:55:01.109Z</time></trkpt><trkpt lat="43.991268" lon="11.2538279"><ele>297.0</ele><time>2026-04-11T11:55:02.109Z</time></trkpt><trkpt lat="43.991321" lon="11.2537753"><ele>297.0</ele><time>2026-04-11T11:55:03.11Z</time></trkpt><trkpt lat="43.9914275" lon="11.2536679"><ele>297.0</ele><time>2026-04-11T11:55:05.11Z</time></trkpt><trkpt lat="43.9914907" lon="11.2536134"><ele>297.0</ele><time>2026-04-11T11:55:06.109Z</time></trkpt><trkpt lat="43.9915483" lon="11.2535595"><ele>297.0</ele><time>2026-04-11T11:55:07.11Z</time></trkpt><trkpt lat="43.9916064" lon="11.2535074"><ele>297.0</ele><time>2026-04-11T11:55:08.11Z</time></trkpt><trkpt lat="43.9916671" lon="11.2534596"><ele>297.0</ele><time>2026-04-11T11:55:09.11Z</time></trkpt><trkpt lat="43.9917198" lon="11.2534104"><ele>297.0</ele><time>2026-04-11T11:55:10.11Z</time></trkpt><trkpt lat="43.9917727" lon="11.2533587"><ele>297.0</ele><time>2026-04-11T11:55:11.11Z</time></trkpt><trkpt lat="43.9918279" lon="11.253299"><ele>297.0</ele><time>2026-04-11T11:55:12.11Z</time></trkpt><trkpt lat="43.991893" lon="11.2532415"><ele>297.0</ele><time>2026-04-11T11:55:13.11Z</time></trkpt><trkpt lat="43.9919598" lon="11.2531854"><ele>296.3333333333333</ele><time>2026-04-11T11:55:14.11Z</time></trkpt><trkpt lat="43.9920218" lon="11.2531286"><ele>295.6666666666667</ele><time>2026-04-11T11:55:15.11Z</time></trkpt><trkpt lat="43.9920901" lon="11.2530622"><ele>295.0</ele><time>2026-04-11T11:55:16.109Z</time></trkpt><trkpt lat="43.9921497" lon="11.2530099"><ele>294.33333333333337</ele><time>2026-04-11T11:55:17.109Z</time></trkpt><trkpt lat="43.9922117" lon="11.2529501"><ele>293.6666666666667</ele><time>2026-04-11T11:55:18.109Z</time></trkpt><trkpt lat="43.9922771" lon="11.2528991"><ele>293.0</ele><time>2026-04-11T11:55:19.109Z</time></trkpt><trkpt lat="43.9923378" lon="11.2528477"><ele>293.0</ele><time>2026-04-11T11:55:20.109Z</time></trkpt><trkpt lat="43.9924103" lon="11.2527859"><ele>293.0</ele><time>2026-04-11T11:55:21.11Z</time></trkpt><trkpt lat="43.9924856" lon="11.2527259"><ele>293.0</ele><time>2026-04-11T11:55:22.109Z</time></trkpt><trkpt lat="43.9925626" lon="11.2526626"><ele>293.0</ele><time>2026-04-11T11:55:23.11Z</time></trkpt><trkpt lat="43.992639" lon="11.2525948"><ele>293.0</ele><time>2026-04-11T11:55:24.109Z</time></trkpt><trkpt lat="43.9927158" lon="11.2525304"><ele>293.0</ele><time>2026-04-11T11:55:25.109Z</time></trkpt><trkpt lat="43.9927929" lon="11.2524667"><ele>292.83333333333337</ele><time>2026-04-11T11:55:26.109Z</time></trkpt><trkpt lat="43.9928696" lon="11.2524016"><ele>292.6666666666667</ele><time>2026-04-11T11:55:27.11Z</time></trkpt><trkpt lat="43.9929486" lon="11.2523425"><ele>292.5</ele><time>2026-04-11T11:55:28.11Z</time></trkpt><trkpt lat="43.9930263" lon="11.2522865"><ele>292.3333333333333</ele><time>2026-04-11T11:55:29.109Z</time></trkpt><trkpt lat="43.9930981" lon="11.2522269"><ele>292.16666666666663</ele><time>2026-04-11T11:55:30.11Z</time></trkpt><trkpt lat="43.9931734" lon="11.2521718"><ele>292.0</ele><time>2026-04-11T11:55:31.11Z</time></trkpt><trkpt lat="43.9932501" lon="11.2521279"><ele>292.0</ele><time>2026-04-11T11:55:32.109Z</time></trkpt><trkpt lat="43.9933295" lon="11.2520992"><ele>292.0</ele><time>2026-04-11T11:55:33.11Z</time></trkpt><trkpt lat="43.9934103" lon="11.2520653"><ele>292.0</ele><time>2026-04-11T11:55:34.11Z</time></trkpt><trkpt lat="43.9934931" lon="11.2520249"><ele>292.0</ele><time>2026-04-11T11:55:35.11Z</time></trkpt><trkpt lat="43.9935782" lon="11.2519858"><ele>292.0</ele><time>2026-04-11T11:55:36.109Z</time></trkpt><trkpt lat="43.9936614" lon="11.2519444"><ele>292.0</ele><time>2026-04-11T11:55:37.109Z</time></trkpt><trkpt lat="43.9937487" lon="11.2518973"><ele>292.3333333333333</ele><time>2026-04-11T11:55:38.11Z</time></trkpt><trkpt lat="43.9938307" lon="11.2518557"><ele>292.66666666666663</ele><time>2026-04-11T11:55:39.11Z</time></trkpt><trkpt lat="43.9939094" lon="11.2518119"><ele>293.0</ele><time>2026-04-11T11:55:40.11Z</time></trkpt><trkpt lat="43.993993" lon="11.2517646"><ele>293.3333333333333</ele><time>2026-04-11T11:55:41.11Z</time></trkpt><trkpt lat="43.9940767" lon="11.2517154"><ele>293.6666666666667</ele><time>2026-04-11T11:55:42.11Z</time></trkpt><trkpt lat="43.9941605" lon="11.2516647"><ele>294.0</ele><time>2026-04-11T11:55:43.11Z</time></trkpt><trkpt lat="43.9942477" lon="11.2516135"><ele>294.0</ele><time>2026-04-11T11:55:44.108Z</time></trkpt><trkpt lat="43.9943334" lon="11.2515573"><ele>294.0</ele><time>2026-04-11T11:55:45.109Z</time></trkpt><trkpt lat="43.9944185" lon="11.2515"><ele>294.0</ele><time>2026-04-11T11:55:46.11Z</time></trkpt><trkpt lat="43.9944957" lon="11.2514325"><ele>294.0</ele><time>2026-04-11T11:55:47.11Z</time></trkpt><trkpt lat="43.9945645" lon="11.2513488"><ele>294.0</ele><time>2026-04-11T11:55:48.11Z</time></trkpt><trkpt lat="43.9946181" lon="11.251261"><ele>295.1666666666667</ele><time>2026-04-11T11:55:49.11Z</time></trkpt><trkpt lat="43.9946652" lon="11.2511563"><ele>296.3333333333333</ele><time>2026-04-11T11:55:50.109Z</time></trkpt><trkpt lat="43.9947088" lon="11.2510574"><ele>297.5</ele><time>2026-04-11T11:55:51.11Z</time></trkpt><trkpt lat="43.9947563" lon="11.2509538"><ele>298.66666666666663</ele><time>2026-04-11T11:55:52.11Z</time></trkpt><trkpt lat="43.994803" lon="11.250877"><ele>299.8333333333333</ele><time>2026-04-11T11:55:53.109Z</time></trkpt><trkpt lat="43.9948533" lon="11.2508032"><ele>301.0</ele><time>2026-04-11T11:55:54.108Z</time></trkpt><trkpt lat="43.9949091" lon="11.2507291"><ele>301.0</ele><time>2026-04-11T11:55:55.108Z</time></trkpt><trkpt lat="43.9949674" lon="11.2506568"><ele>301.0</ele><time>2026-04-11T11:55:56.108Z</time></trkpt><trkpt lat="43.9950229" lon="11.2505795"><ele>301.0</ele><time>2026-04-11T11:55:57.108Z</time></trkpt><trkpt lat="43.995073" lon="11.2504977"><ele>301.0</ele><time>2026-04-11T11:55:58.108Z</time></trkpt><trkpt lat="43.995115" lon="11.2504214"><ele>301.0</ele><time>2026-04-11T11:55:59.109Z</time></trkpt><trkpt lat="43.9951617" lon="11.2502692"><ele>301.0</ele><time>2026-04-11T11:56:01.108Z</time></trkpt><trkpt lat="43.995151" lon="11.2501211"><ele>302.16666666666663</ele><time>2026-04-11T11:56:03.108Z</time></trkpt><trkpt lat="43.9951453" lon="11.2499562"><ele>303.3333333333333</ele><time>2026-04-11T11:56:05.109Z</time></trkpt><trkpt lat="43.9951447" lon="11.2498667"><ele>304.5</ele><time>2026-04-11T11:56:06.108Z</time></trkpt><trkpt lat="43.9951457" lon="11.2497747"><ele>305.6666666666667</ele><time>2026-04-11T11:56:07.108Z</time></trkpt><trkpt lat="43.9951542" lon="11.2496763"><ele>306.83333333333337</ele><time>2026-04-11T11:56:08.108Z</time></trkpt><trkpt lat="43.995171" lon="11.2495719"><ele>308.0</ele><time>2026-04-11T11:56:09.108Z</time></trkpt><trkpt lat="43.9951946" lon="11.2494762"><ele>308.0</ele><time>2026-04-11T11:56:10.109Z</time></trkpt><trkpt lat="43.9952179" lon="11.2493887"><ele>308.0</ele><time>2026-04-11T11:56:11.108Z</time></trkpt><trkpt lat="43.995264" lon="11.2492406"><ele>308.0</ele><time>2026-04-11T11:56:13.108Z</time></trkpt><trkpt lat="43.9952985" lon="11.2491316"><ele>308.0</ele><time>2026-04-11T11:56:15.108Z</time></trkpt><trkpt lat="43.9953242" lon="11.249047"><ele>308.0</ele><time>2026-04-11T11:56:31.109Z</time></trkpt><trkpt lat="43.995316" lon="11.2489365"><ele>308.0</ele><time>2026-04-11T11:56:35.109Z</time></trkpt><trkpt lat="43.9952776" lon="11.2488556"><ele>307.0</ele><time>2026-04-11T11:56:37.109Z</time></trkpt><trkpt lat="43.9952434" lon="11.2487484"><ele>306.0</ele><time>2026-04-11T11:56:39.109Z</time></trkpt><trkpt lat="43.9952218" lon="11.2486086"><ele>305.0</ele><time>2026-04-11T11:56:41.108Z</time></trkpt><trkpt lat="43.9951948" lon="11.2484531"><ele>304.0</ele><time>2026-04-11T11:56:43.108Z</time></trkpt><trkpt lat="43.9951804" lon="11.2483084"><ele>303.0</ele><time>2026-04-11T11:56:45.109Z</time></trkpt><trkpt lat="43.9952013" lon="11.2481448"><ele>302.0</ele><time>2026-04-11T11:56:47.109Z</time></trkpt><trkpt lat="43.9952173" lon="11.2480549"><ele>301.0</ele><time>2026-04-11T11:56:48.109Z</time></trkpt><trkpt lat="43.9952378" lon="11.2479644"><ele>300.0</ele><time>2026-04-11T11:56:49.109Z</time></trkpt><trkpt lat="43.995263" lon="11.2478794"><ele>299.0</ele><time>2026-04-11T11:56:50.109Z</time></trkpt><trkpt lat="43.9953058" lon="11.2478011"><ele>298.0</ele><time>2026-04-11T11:56:51.108Z</time></trkpt><trkpt lat="43.9953618" lon="11.2477224"><ele>297.0</ele><time>2026-04-11T11:56:52.109Z</time></trkpt><trkpt lat="43.99541" lon="11.2476444"><ele>296.0</ele><time>2026-04-11T11:56:53.109Z</time></trkpt><trkpt lat="43.9954382" lon="11.24756"><ele>296.0</ele><time>2026-04-11T11:56:54.109Z</time></trkpt><trkpt lat="43.99545" lon="11.2474591"><ele>296.0</ele><time>2026-04-11T11:56:55.108Z</time></trkpt><trkpt lat="43.9954439" lon="11.2473608"><ele>296.0</ele><time>2026-04-11T11:56:56.108Z</time></trkpt><trkpt lat="43.9954245" lon="11.2472613"><ele>296.0</ele><time>2026-04-11T11:56:57.108Z</time></trkpt><trkpt lat="43.9953975" lon="11.247158"><ele>296.0</ele><time>2026-04-11T11:56:58.109Z</time></trkpt><trkpt lat="43.9953631" lon="11.2470562"><ele>296.0</ele><time>2026-04-11T11:56:59.108Z</time></trkpt><trkpt lat="43.995334" lon="11.2469522"><ele>295.8571428571429</ele><time>2026-04-11T11:57:00.108Z</time></trkpt><trkpt lat="43.9953075" lon="11.2468578"><ele>295.7142857142857</ele><time>2026-04-11T11:57:01.108Z</time></trkpt><trkpt lat="43.9952797" lon="11.2467605"><ele>295.57142857142856</ele><time>2026-04-11T11:57:02.109Z</time></trkpt><trkpt lat="43.9952465" lon="11.24667"><ele>295.42857142857144</ele><time>2026-04-11T11:57:03.109Z</time></trkpt><trkpt lat="43.9952137" lon="11.2465637"><ele>295.2857142857143</ele><time>2026-04-11T11:57:04.109Z</time></trkpt><trkpt lat="43.9951735" lon="11.2464774"><ele>295.14285714285717</ele><time>2026-04-11T11:57:05.109Z</time></trkpt><trkpt lat="43.9951421" lon="11.2463972"><ele>295.0</ele><time>2026-04-11T11:57:06.108Z</time></trkpt><trkpt lat="43.9951101" lon="11.2463194"><ele>294.6</ele><time>2026-04-11T11:57:07.109Z</time></trkpt><trkpt lat="43.9950756" lon="11.2461388"><ele>294.2</ele><time>2026-04-11T11:57:09.108Z</time></trkpt><trkpt lat="43.995053" lon="11.2460508"><ele>293.8</ele><time>2026-04-11T11:57:10.109Z</time></trkpt><trkpt lat="43.9950351" lon="11.2458924"><ele>293.4</ele><time>2026-04-11T11:57:12.108Z</time></trkpt><trkpt lat="43.9950355" lon="11.2457504"><ele>293.0</ele><time>2026-04-11T11:57:14.109Z</time></trkpt><trkpt lat="43.9950437" lon="11.2456108"><ele>289.8</ele><time>2026-04-11T11:57:16.108Z</time></trkpt><trkpt lat="43.9950784" lon="11.2454875"><ele>286.6</ele><time>2026-04-11T11:57:18.109Z</time></trkpt><trkpt lat="43.9951534" lon="11.2454107"><ele>283.4</ele><time>2026-04-11T11:57:20.108Z</time></trkpt><trkpt lat="43.9952634" lon="11.2454123"><ele>280.2</ele><time>2026-04-11T11:57:22.108Z</time></trkpt><trkpt lat="43.9953462" lon="11.2453931"><ele>277.0</ele><time>2026-04-11T11:57:24.108Z</time></trkpt><trkpt lat="43.9953347" lon="11.2452861"><ele>277.0</ele><time>2026-04-11T11:57:27.109Z</time></trkpt><trkpt lat="43.9952767" lon="11.2452411"><ele>277.0</ele><time>2026-04-11T11:57:30.108Z</time></trkpt><trkpt lat="43.99528" lon="11.2451531"><ele>277.0</ele><time>2026-04-11T11:57:32.109Z</time></trkpt><trkpt lat="43.9953709" lon="11.2450328"><ele>277.0</ele><time>2026-04-11T11:57:34.107Z</time></trkpt><trkpt lat="43.99542" lon="11.2449707"><ele>277.0</ele><time>2026-04-11T11:57:35.108Z</time></trkpt><trkpt lat="43.9954695" lon="11.2448066"><ele>274.7142857142857</ele><time>2026-04-11T11:57:37.109Z</time></trkpt><trkpt lat="43.9954785" lon="11.2447175"><ele>272.4285714285714</ele><time>2026-04-11T11:57:38.109Z</time></trkpt><trkpt lat="43.9954893" lon="11.2446223"><ele>270.1428571428571</ele><time>2026-04-11T11:57:39.109Z</time></trkpt><trkpt lat="43.9954962" lon="11.2445278"><ele>267.85714285714283</ele><time>2026-04-11T11:57:40.109Z</time></trkpt><trkpt lat="43.9955068" lon="11.2444392"><ele>265.57142857142856</ele><time>2026-04-11T11:57:41.109Z</time></trkpt><trkpt lat="43.9955218" lon="11.2443458"><ele>263.2857142857143</ele><time>2026-04-11T11:57:42.109Z</time></trkpt><trkpt lat="43.9955443" lon="11.2442637"><ele>261.0</ele><time>2026-04-11T11:57:43.108Z</time></trkpt><trkpt lat="43.9956171" lon="11.2441445"><ele>261.0</ele><time>2026-04-11T11:57:45.108Z</time></trkpt><trkpt lat="43.995686" lon="11.2440867"><ele>261.0</ele><time>2026-04-11T11:57:46.108Z</time></trkpt><trkpt lat="43.9957553" lon="11.2440285"><ele>261.0</ele><time>2026-04-11T11:57:47.108Z</time></trkpt><trkpt lat="43.9958303" lon="11.2439654"><ele>261.0</ele><time>2026-04-11T11:57:48.109Z</time></trkpt><trkpt lat="43.9958926" lon="11.2439143"><ele>261.0</ele><time>2026-04-11T11:57:49.109Z</time></trkpt><trkpt lat="43.9959477" lon="11.2438689"><ele>261.0</ele><time>2026-04-11T11:57:50.108Z</time></trkpt><trkpt lat="43.9960309" lon="11.2437974"><ele>261.0</ele><time>2026-04-11T11:57:52.107Z</time></trkpt><trkpt lat="43.9961012" lon="11.2437336"><ele>261.0</ele><time>2026-04-11T11:58:20.109Z</time></trkpt><trkpt lat="43.9961753" lon="11.2437028"><ele>261.0</ele><time>2026-04-11T11:58:23.109Z</time></trkpt><trkpt lat="43.9961176" lon="11.2436343"><ele>261.0</ele><time>2026-04-11T11:58:28.108Z</time></trkpt><trkpt lat="43.9960666" lon="11.2437425"><ele>261.0</ele><time>2026-04-11T11:58:31.109Z</time></trkpt><trkpt lat="43.9960145" lon="11.2438167"><ele>261.0</ele><time>2026-04-11T11:58:33.109Z</time></trkpt><trkpt lat="43.9959327" lon="11.243892"><ele>261.0</ele><time>2026-04-11T11:58:35.109Z</time></trkpt><trkpt lat="43.9958268" lon="11.2439829"><ele>261.0</ele><time>2026-04-11T11:58:37.108Z</time></trkpt><trkpt lat="43.9957266" lon="11.2440633"><ele>261.0</ele><time>2026-04-11T11:58:39.108Z</time></trkpt><trkpt lat="43.9956394" lon="11.2441253"><ele>261.0</ele><time>2026-04-11T11:58:41.109Z</time></trkpt><trkpt lat="43.9955655" lon="11.2442073"><ele>261.0</ele><time>2026-04-11T11:58:43.108Z</time></trkpt><trkpt lat="43.9955256" lon="11.2443352"><ele>261.0</ele><time>2026-04-11T11:58:45.109Z</time></trkpt><trkpt lat="43.9955098" lon="11.2444214"><ele>261.0</ele><time>2026-04-11T11:58:46.109Z</time></trkpt><trkpt lat="43.9955012" lon="11.2445243"><ele>261.0</ele><time>2026-04-11T11:58:47.108Z</time></trkpt><trkpt lat="43.9954993" lon="11.2446367"><ele>261.0</ele><time>2026-04-11T11:58:48.109Z</time></trkpt><trkpt lat="43.9954947" lon="11.2447478"><ele>261.0</ele><time>2026-04-11T11:58:49.108Z</time></trkpt><trkpt lat="43.9954786" lon="11.244849"><ele>261.0</ele><time>2026-04-11T11:58:50.108Z</time></trkpt><trkpt lat="43.9954514" lon="11.2449422"><ele>261.0</ele><time>2026-04-11T11:58:51.109Z</time></trkpt><trkpt lat="43.9954113" lon="11.2450103"><ele>263.6666666666667</ele><time>2026-04-11T11:58:52.109Z</time></trkpt><trkpt lat="43.9953657" lon="11.2450736"><ele>266.3333333333333</ele><time>2026-04-11T11:58:53.108Z</time></trkpt><trkpt lat="43.9952961" lon="11.2451605"><ele>269.0</ele><time>2026-04-11T11:58:55.109Z</time></trkpt><trkpt lat="43.9952834" lon="11.2452509"><ele>271.66666666666663</ele><time>2026-04-11T11:58:57.108Z</time></trkpt><trkpt lat="43.9953492" lon="11.2453113"><ele>274.3333333333333</ele><time>2026-04-11T11:58:59.109Z</time></trkpt><trkpt lat="43.9953409" lon="11.2454221"><ele>277.0</ele><time>2026-04-11T11:59:02.108Z</time></trkpt><trkpt lat="43.9952561" lon="11.245435"><ele>277.0</ele><time>2026-04-11T11:59:04.108Z</time></trkpt><trkpt lat="43.9951943" lon="11.2454155"><ele>277.0</ele><time>2026-04-11T11:59:05.109Z</time></trkpt><trkpt lat="43.9951064" lon="11.2454632"><ele>277.0</ele><time>2026-04-11T11:59:07.109Z</time></trkpt><trkpt lat="43.9950562" lon="11.2456029"><ele>277.0</ele><time>2026-04-11T11:59:09.109Z</time></trkpt><trkpt lat="43.9950307" lon="11.2457751"><ele>277.0</ele><time>2026-04-11T11:59:11.108Z</time></trkpt><trkpt lat="43.9950258" lon="11.2458777"><ele>279.66666666666663</ele><time>2026-04-11T11:59:12.109Z</time></trkpt><trkpt lat="43.9950272" lon="11.2459772"><ele>282.3333333333333</ele><time>2026-04-11T11:59:13.109Z</time></trkpt><trkpt lat="43.9950556" lon="11.2460681"><ele>285.0</ele><time>2026-04-11T11:59:14.108Z</time></trkpt><trkpt lat="43.9950899" lon="11.2461534"><ele>287.6666666666667</ele><time>2026-04-11T11:59:15.108Z</time></trkpt><trkpt lat="43.9951103" lon="11.2462412"><ele>290.33333333333337</ele><time>2026-04-11T11:59:16.109Z</time></trkpt><trkpt lat="43.9951526" lon="11.246409"><ele>293.0</ele><time>2026-04-11T11:59:18.108Z</time></trkpt><trkpt lat="43.995208" lon="11.2465742"><ele>293.2857142857143</ele><time>2026-04-11T11:59:20.109Z</time></trkpt><trkpt lat="43.9952414" lon="11.2466518"><ele>293.57142857142856</ele><time>2026-04-11T11:59:21.109Z</time></trkpt><trkpt lat="43.9952719" lon="11.2467442"><ele>293.8571428571429</ele><time>2026-04-11T11:59:22.108Z</time></trkpt><trkpt lat="43.995305" lon="11.2468309"><ele>294.1428571428571</ele><time>2026-04-11T11:59:23.109Z</time></trkpt><trkpt lat="43.9953297" lon="11.2469272"><ele>294.42857142857144</ele><time>2026-04-11T11:59:24.108Z</time></trkpt><trkpt lat="43.9953546" lon="11.2470264"><ele>294.7142857142857</ele><time>2026-04-11T11:59:25.109Z</time></trkpt><trkpt lat="43.9953847" lon="11.2471309"><ele>295.0</ele><time>2026-04-11T11:59:26.109Z</time></trkpt><trkpt lat="43.9954125" lon="11.2472281"><ele>295.14285714285717</ele><time>2026-04-11T11:59:27.109Z</time></trkpt><trkpt lat="43.9954343" lon="11.2473291"><ele>295.2857142857143</ele><time>2026-04-11T11:59:28.109Z</time></trkpt><trkpt lat="43.995442" lon="11.247423"><ele>295.42857142857144</ele><time>2026-04-11T11:59:29.109Z</time></trkpt><trkpt lat="43.9954375" lon="11.2475259"><ele>295.57142857142856</ele><time>2026-04-11T11:59:30.109Z</time></trkpt><trkpt lat="43.9954137" lon="11.2476099"><ele>295.7142857142857</ele><time>2026-04-11T11:59:31.109Z</time></trkpt><trkpt lat="43.995372" lon="11.2477001"><ele>295.8571428571429</ele><time>2026-04-11T11:59:32.107Z</time></trkpt><trkpt lat="43.9953192" lon="11.2477805"><ele>296.0</ele><time>2026-04-11T11:59:33.109Z</time></trkpt><trkpt lat="43.9952794" lon="11.2478502"><ele>296.0</ele><time>2026-04-11T11:59:34.109Z</time></trkpt><trkpt lat="43.995249" lon="11.2479331"><ele>296.0</ele><time>2026-04-11T11:59:35.109Z</time></trkpt><trkpt lat="43.9952271" lon="11.2480197"><ele>296.0</ele><time>2026-04-11T11:59:36.109Z</time></trkpt><trkpt lat="43.9952094" lon="11.2481096"><ele>296.0</ele><time>2026-04-11T11:59:37.109Z</time></trkpt><trkpt lat="43.9951954" lon="11.2482022"><ele>296.0</ele><time>2026-04-11T11:59:38.109Z</time></trkpt><trkpt lat="43.9951874" lon="11.2482934"><ele>296.0</ele><time>2026-04-11T11:59:39.108Z</time></trkpt><trkpt lat="43.9951893" lon="11.2483874"><ele>296.0</ele><time>2026-04-11T11:59:40.109Z</time></trkpt><trkpt lat="43.9952003" lon="11.2484771"><ele>297.1666666666667</ele><time>2026-04-11T11:59:41.109Z</time></trkpt><trkpt lat="43.9952153" lon="11.2485817"><ele>298.33333333333337</ele><time>2026-04-11T11:59:42.109Z</time></trkpt><trkpt lat="43.9952342" lon="11.2486853"><ele>299.5</ele><time>2026-04-11T11:59:43.109Z</time></trkpt><trkpt lat="43.9952699" lon="11.2488396"><ele>300.6666666666667</ele><time>2026-04-11T11:59:45.109Z</time></trkpt><trkpt lat="43.9953185" lon="11.2489369"><ele>301.8333333333333</ele><time>2026-04-11T11:59:48.109Z</time></trkpt><trkpt lat="43.9953307" lon="11.2490588"><ele>303.0</ele><time>2026-04-11T11:59:51.109Z</time></trkpt><trkpt lat="43.9952998" lon="11.2491586"><ele>303.8333333333333</ele><time>2026-04-11T11:59:53.109Z</time></trkpt><trkpt lat="43.9952376" lon="11.2493184"><ele>304.6666666666667</ele><time>2026-04-11T11:59:55.108Z</time></trkpt><trkpt lat="43.9952041" lon="11.2494207"><ele>305.5</ele><time>2026-04-11T11:59:56.109Z</time></trkpt><trkpt lat="43.9951766" lon="11.2495305"><ele>306.33333333333337</ele><time>2026-04-11T11:59:57.108Z</time></trkpt><trkpt lat="43.9951563" lon="11.2496332"><ele>307.1666666666667</ele><time>2026-04-11T11:59:58.109Z</time></trkpt><trkpt lat="43.9951487" lon="11.2497225"><ele>308.0</ele><time>2026-04-11T11:59:59.109Z</time></trkpt><trkpt lat="43.9951446" lon="11.2498665"><ele>308.5</ele><time>2026-04-11T12:00:01.109Z</time></trkpt><trkpt lat="43.9951467" lon="11.2499796"><ele>309.0</ele><time>2026-04-11T12:00:03.108Z</time></trkpt><trkpt lat="43.9951534" lon="11.2500682"><ele>309.5</ele><time>2026-04-11T12:00:05.108Z</time></trkpt><trkpt lat="43.9951631" lon="11.2501733"><ele>310.0</ele><time>2026-04-11T12:00:08.108Z</time></trkpt><trkpt lat="43.9951651" lon="11.2502786"><ele>310.5</ele><time>2026-04-11T12:00:12.109Z</time></trkpt><trkpt lat="43.9951844" lon="11.2503744"><ele>311.0</ele><time>2026-04-11T12:00:17.108Z</time></trkpt><trkpt lat="43.9952864" lon="11.2503946"><ele>311.0</ele><time>2026-04-11T12:00:20.107Z</time></trkpt><trkpt lat="43.9954016" lon="11.2503594"><ele>311.0</ele><time>2026-04-11T12:00:22.107Z</time></trkpt><trkpt lat="43.9955018" lon="11.2502817"><ele>311.0</ele><time>2026-04-11T12:00:24.108Z</time></trkpt><trkpt lat="43.9956061" lon="11.2502037"><ele>311.0</ele><time>2026-04-11T12:00:26.108Z</time></trkpt><trkpt lat="43.9956615" lon="11.2501549"><ele>311.0</ele><time>2026-04-11T12:00:27.107Z</time></trkpt><trkpt lat="43.9957361" lon="11.2501357"><ele>311.0</ele><time>2026-04-11T12:00:28.108Z</time></trkpt><trkpt lat="43.995807" lon="11.2501013"><ele>311.0</ele><time>2026-04-11T12:00:29.107Z</time></trkpt><trkpt lat="43.9958859" lon="11.2500778"><ele>311.0</ele><time>2026-04-11T12:00:30.107Z</time></trkpt><trkpt lat="43.9959629" lon="11.2500575"><ele>311.0</ele><time>2026-04-11T12:00:31.108Z</time></trkpt><trkpt lat="43.9960411" lon="11.2500489"><ele>311.0</ele><time>2026-04-11T12:00:32.108Z</time></trkpt><trkpt lat="43.9961159" lon="11.250039"><ele>311.0</ele><time>2026-04-11T12:00:33.108Z</time></trkpt><trkpt lat="43.9961933" lon="11.2500302"><ele>311.0</ele><time>2026-04-11T12:00:34.108Z</time></trkpt><trkpt lat="43.9962643" lon="11.2500153"><ele>311.0</ele><time>2026-04-11T12:00:35.108Z</time></trkpt><trkpt lat="43.9963302" lon="11.2500123"><ele>311.0</ele><time>2026-04-11T12:00:36.107Z</time></trkpt><trkpt lat="43.9963947" lon="11.250018"><ele>311.0</ele><time>2026-04-11T12:00:37.107Z</time></trkpt><trkpt lat="43.9965159" lon="11.2500743"><ele>311.0</ele><time>2026-04-11T12:00:39.108Z</time></trkpt><trkpt lat="43.9965808" lon="11.2501139"><ele>311.0</ele><time>2026-04-11T12:00:40.108Z</time></trkpt><trkpt lat="43.9966489" lon="11.2501516"><ele>310.6666666666667</ele><time>2026-04-11T12:00:41.108Z</time></trkpt><trkpt lat="43.996722" lon="11.2501786"><ele>310.33333333333337</ele><time>2026-04-11T12:00:42.108Z</time></trkpt><trkpt lat="43.9967964" lon="11.2502026"><ele>310.0</ele><time>2026-04-11T12:00:43.108Z</time></trkpt><trkpt lat="43.9968764" lon="11.2502294"><ele>309.6666666666667</ele><time>2026-04-11T12:00:44.108Z</time></trkpt><trkpt lat="43.9969597" lon="11.2502521"><ele>309.3333333333333</ele><time>2026-04-11T12:00:45.108Z</time></trkpt><trkpt lat="43.9970434" lon="11.2502687"><ele>309.0</ele><time>2026-04-11T12:00:46.108Z</time></trkpt><trkpt lat="43.9971271" lon="11.2502687"><ele>309.0</ele><time>2026-04-11T12:00:47.107Z</time></trkpt><trkpt lat="43.99721" lon="11.250261"><ele>309.0</ele><time>2026-04-11T12:00:48.107Z</time></trkpt><trkpt lat="43.9972908" lon="11.2502427"><ele>309.0</ele><time>2026-04-11T12:00:49.108Z</time></trkpt><trkpt lat="43.9973781" lon="11.250222"><ele>309.0</ele><time>2026-04-11T12:00:50.108Z</time></trkpt><trkpt lat="43.9974603" lon="11.250193"><ele>309.0</ele><time>2026-04-11T12:00:51.108Z</time></trkpt><trkpt lat="43.9975341" lon="11.2501649"><ele>309.0</ele><time>2026-04-11T12:00:52.107Z</time></trkpt><trkpt lat="43.997609" lon="11.2501297"><ele>308.5</ele><time>2026-04-11T12:00:53.108Z</time></trkpt><trkpt lat="43.9976909" lon="11.250106"><ele>308.0</ele><time>2026-04-11T12:00:54.108Z</time></trkpt><trkpt lat="43.9977777" lon="11.2500914"><ele>307.5</ele><time>2026-04-11T12:00:55.107Z</time></trkpt><trkpt lat="43.9978603" lon="11.2500632"><ele>307.0</ele><time>2026-04-11T12:00:56.107Z</time></trkpt><trkpt lat="43.9979399" lon="11.2500322"><ele>306.5</ele><time>2026-04-11T12:00:57.107Z</time></trkpt><trkpt lat="43.9980067" lon="11.2499903"><ele>306.0</ele><time>2026-04-11T12:00:58.108Z</time></trkpt><trkpt lat="43.9980769" lon="11.2499426"><ele>306.0</ele><time>2026-04-11T12:00:59.108Z</time></trkpt><trkpt lat="43.9981954" lon="11.2498748"><ele>306.0</ele><time>2026-04-11T12:01:01.108Z</time></trkpt><trkpt lat="43.9983137" lon="11.2498123"><ele>306.0</ele><time>2026-04-11T12:01:03.108Z</time></trkpt><trkpt lat="43.9983874" lon="11.2497766"><ele>306.0</ele><time>2026-04-11T12:01:04.108Z</time></trkpt><trkpt lat="43.9984578" lon="11.2497374"><ele>306.0</ele><time>2026-04-11T12:01:05.108Z</time></trkpt><trkpt lat="43.9985314" lon="11.2497056"><ele>306.1666666666667</ele><time>2026-04-11T12:01:06.107Z</time></trkpt><trkpt lat="43.9986072" lon="11.2496626"><ele>306.3333333333333</ele><time>2026-04-11T12:01:07.108Z</time></trkpt><trkpt lat="43.9986916" lon="11.2496277"><ele>306.5</ele><time>2026-04-11T12:01:08.108Z</time></trkpt><trkpt lat="43.9987727" lon="11.2495911"><ele>306.66666666666663</ele><time>2026-04-11T12:01:09.108Z</time></trkpt><trkpt lat="43.9988514" lon="11.2495398"><ele>306.8333333333333</ele><time>2026-04-11T12:01:10.108Z</time></trkpt><trkpt lat="43.9989303" lon="11.24949"><ele>307.0</ele><time>2026-04-11T12:01:11.107Z</time></trkpt><trkpt lat="43.9989993" lon="11.2494357"><ele>307.0</ele><time>2026-04-11T12:01:12.108Z</time></trkpt><trkpt lat="43.9990705" lon="11.2493851"><ele>307.0</ele><time>2026-04-11T12:01:13.108Z</time></trkpt><trkpt lat="43.9991479" lon="11.2493312"><ele>307.0</ele><time>2026-04-11T12:01:14.108Z</time></trkpt><trkpt lat="43.9992277" lon="11.2492878"><ele>307.0</ele><time>2026-04-11T12:01:15.108Z</time></trkpt><trkpt lat="43.999304" lon="11.2492509"><ele>307.0</ele><time>2026-04-11T12:01:16.107Z</time></trkpt><trkpt lat="43.9993872" lon="11.2492128"><ele>307.0</ele><time>2026-04-11T12:01:17.108Z</time></trkpt><trkpt lat="43.9994756" lon="11.249182"><ele>305.8</ele><time>2026-04-11T12:01:18.108Z</time></trkpt><trkpt lat="43.9995734" lon="11.2491608"><ele>304.6</ele><time>2026-04-11T12:01:19.107Z</time></trkpt><trkpt lat="43.9996727" lon="11.2491478"><ele>303.40000000000003</ele><time>2026-04-11T12:01:20.106Z</time></trkpt><trkpt lat="43.9997704" lon="11.2491372"><ele>302.2</ele><time>2026-04-11T12:01:21.108Z</time></trkpt><trkpt lat="43.9998632" lon="11.2491195"><ele>301.0</ele><time>2026-04-11T12:01:22.107Z</time></trkpt><trkpt lat="43.9999494" lon="11.2491031"><ele>301.0</ele><time>2026-04-11T12:01:23.107Z</time></trkpt><trkpt lat="44.0000356" lon="11.2490859"><ele>301.0</ele><time>2026-04-11T12:01:24.107Z</time></trkpt><trkpt lat="44.0001211" lon="11.2490676"><ele>301.0</ele><time>2026-04-11T12:01:25.107Z</time></trkpt><trkpt lat="44.0002092" lon="11.2490414"><ele>301.0</ele><time>2026-04-11T12:01:26.107Z</time></trkpt><trkpt lat="44.0002939" lon="11.2490058"><ele>301.0</ele><time>2026-04-11T12:01:27.107Z</time></trkpt><trkpt lat="44.0003836" lon="11.2489695"><ele>301.0</ele><time>2026-04-11T12:01:28.108Z</time></trkpt><trkpt lat="44.000456" lon="11.2489375"><ele>300.8333333333333</ele><time>2026-04-11T12:01:29.107Z</time></trkpt><trkpt lat="44.000535" lon="11.248899"><ele>300.66666666666663</ele><time>2026-04-11T12:01:30.108Z</time></trkpt><trkpt lat="44.0006114" lon="11.2488622"><ele>300.5</ele><time>2026-04-11T12:01:31.108Z</time></trkpt><trkpt lat="44.0006801" lon="11.2488307"><ele>300.3333333333333</ele><time>2026-04-11T12:01:32.108Z</time></trkpt><trkpt lat="44.0007475" lon="11.2488082"><ele>300.1666666666667</ele><time>2026-04-11T12:01:33.107Z</time></trkpt><trkpt lat="44.0008073" lon="11.2487662"><ele>300.0</ele><time>2026-04-11T12:01:34.107Z</time></trkpt><trkpt lat="44.0009116" lon="11.2486833"><ele>300.0</ele><time>2026-04-11T12:01:36.107Z</time></trkpt><trkpt lat="44.0009707" lon="11.2486403"><ele>300.0</ele><time>2026-04-11T12:01:37.108Z</time></trkpt><trkpt lat="44.0010672" lon="11.2485617"><ele>300.0</ele><time>2026-04-11T12:01:39.108Z</time></trkpt><trkpt lat="44.0011376" lon="11.2484896"><ele>300.0</ele><time>2026-04-11T12:01:41.108Z</time></trkpt><trkpt lat="44.0011943" lon="11.2484201"><ele>300.0</ele><time>2026-04-11T12:01:43.108Z</time></trkpt><trkpt lat="44.0012522" lon="11.2483757"><ele>300.0</ele><time>2026-04-11T12:01:45.106Z</time></trkpt><trkpt lat="44.0012966" lon="11.2483059"><ele>300.0</ele><time>2026-04-11T12:01:49.108Z</time></trkpt><trkpt lat="44.0013527" lon="11.2482625"><ele>300.0</ele><time>2026-04-11T12:02:08.108Z</time></trkpt><trkpt lat="44.0013832" lon="11.248184"><ele>300.0</ele><time>2026-04-11T12:02:12.107Z</time></trkpt><trkpt lat="44.0013063" lon="11.248115"><ele>300.0</ele><time>2026-04-11T12:02:14.107Z</time></trkpt><trkpt lat="44.0011874" lon="11.2480434"><ele>300.0</ele><time>2026-04-11T12:02:16.108Z</time></trkpt><trkpt lat="44.0011157" lon="11.2480009"><ele>300.0</ele><time>2026-04-11T12:02:17.107Z</time></trkpt><trkpt lat="44.0010482" lon="11.2479615"><ele>299.1666666666667</ele><time>2026-04-11T12:02:18.108Z</time></trkpt><trkpt lat="44.000975" lon="11.2479216"><ele>298.3333333333333</ele><time>2026-04-11T12:02:19.108Z</time></trkpt><trkpt lat="44.0008988" lon="11.2478762"><ele>297.5</ele><time>2026-04-11T12:02:20.108Z</time></trkpt><trkpt lat="44.0008269" lon="11.2478289"><ele>296.66666666666663</ele><time>2026-04-11T12:02:21.108Z</time></trkpt><trkpt lat="44.0007634" lon="11.2477831"><ele>295.8333333333333</ele><time>2026-04-11T12:02:22.106Z</time></trkpt><trkpt lat="44.0007007" lon="11.2477359"><ele>295.0</ele><time>2026-04-11T12:02:23.107Z</time></trkpt><trkpt lat="44.0006372" lon="11.2476978"><ele>294.66666666666663</ele><time>2026-04-11T12:02:24.107Z</time></trkpt><trkpt lat="44.0005755" lon="11.247671"><ele>294.3333333333333</ele><time>2026-04-11T12:02:25.108Z</time></trkpt><trkpt lat="44.0005047" lon="11.2476488"><ele>294.0</ele><time>2026-04-11T12:02:26.108Z</time></trkpt><trkpt lat="44.0004404" lon="11.2476153"><ele>293.6666666666667</ele><time>2026-04-11T12:02:27.108Z</time></trkpt><trkpt lat="44.0003946" lon="11.2475453"><ele>293.33333333333337</ele><time>2026-04-11T12:02:28.108Z</time></trkpt><trkpt lat="44.0003577" lon="11.2474317"><ele>293.0</ele><time>2026-04-11T12:02:29.108Z</time></trkpt><trkpt lat="44.0003162" lon="11.2473178"><ele>292.0</ele><time>2026-04-11T12:02:30.108Z</time></trkpt><trkpt lat="44.0002773" lon="11.2472135"><ele>291.0</ele><time>2026-04-11T12:02:31.108Z</time></trkpt><trkpt lat="44.0002371" lon="11.2471136"><ele>290.0</ele><time>2026-04-11T12:02:32.108Z</time></trkpt><trkpt lat="44.0002012" lon="11.2470148"><ele>289.0</ele><time>2026-04-11T12:02:33.107Z</time></trkpt><trkpt lat="44.0001678" lon="11.2469191"><ele>288.0</ele><time>2026-04-11T12:02:34.108Z</time></trkpt><trkpt lat="44.0001311" lon="11.2468174"><ele>287.0</ele><time>2026-04-11T12:02:35.108Z</time></trkpt><trkpt lat="44.0001015" lon="11.2467135"><ele>287.0</ele><time>2026-04-11T12:02:36.108Z</time></trkpt><trkpt lat="44.0000714" lon="11.2466121"><ele>287.0</ele><time>2026-04-11T12:02:37.108Z</time></trkpt><trkpt lat="44.0000439" lon="11.2465131"><ele>287.0</ele><time>2026-04-11T12:02:38.107Z</time></trkpt><trkpt lat="44.0000146" lon="11.2464151"><ele>287.0</ele><time>2026-04-11T12:02:39.107Z</time></trkpt><trkpt lat="43.9999797" lon="11.2463171"><ele>287.0</ele><time>2026-04-11T12:02:40.107Z</time></trkpt><trkpt lat="43.9999437" lon="11.2462227"><ele>287.0</ele><time>2026-04-11T12:02:41.106Z</time></trkpt><trkpt lat="43.9999099" lon="11.2461295"><ele>285.33333333333337</ele><time>2026-04-11T12:02:42.107Z</time></trkpt><trkpt lat="43.9998779" lon="11.2460355"><ele>283.6666666666667</ele><time>2026-04-11T12:02:43.107Z</time></trkpt><trkpt lat="43.9998464" lon="11.245941"><ele>282.0</ele><time>2026-04-11T12:02:44.106Z</time></trkpt><trkpt lat="43.9998082" lon="11.245847"><ele>280.3333333333333</ele><time>2026-04-11T12:02:45.107Z</time></trkpt><trkpt lat="43.9997692" lon="11.2457578"><ele>278.66666666666663</ele><time>2026-04-11T12:02:46.108Z</time></trkpt><trkpt lat="43.999726" lon="11.2456691"><ele>277.0</ele><time>2026-04-11T12:02:47.108Z</time></trkpt><trkpt lat="43.9996886" lon="11.245572"><ele>276.16666666666663</ele><time>2026-04-11T12:02:48.108Z</time></trkpt><trkpt lat="43.999651" lon="11.2454717"><ele>275.3333333333333</ele><time>2026-04-11T12:02:49.108Z</time></trkpt><trkpt lat="43.9996096" lon="11.2453676"><ele>274.5</ele><time>2026-04-11T12:02:50.108Z</time></trkpt><trkpt lat="43.999568" lon="11.2452643"><ele>273.6666666666667</ele><time>2026-04-11T12:02:51.108Z</time></trkpt><trkpt lat="43.9995323" lon="11.2451558"><ele>272.83333333333337</ele><time>2026-04-11T12:02:52.108Z</time></trkpt><trkpt lat="43.9994998" lon="11.2450336"><ele>272.0</ele><time>2026-04-11T12:02:53.107Z</time></trkpt><trkpt lat="43.9994678" lon="11.2449068"><ele>271.6</ele><time>2026-04-11T12:02:54.108Z</time></trkpt><trkpt lat="43.9994405" lon="11.2447824"><ele>271.2</ele><time>2026-04-11T12:02:55.108Z</time></trkpt><trkpt lat="43.9994233" lon="11.2446578"><ele>270.8</ele><time>2026-04-11T12:02:56.107Z</time></trkpt><trkpt lat="43.999416" lon="11.244528"><ele>270.4</ele><time>2026-04-11T12:02:57.108Z</time></trkpt><trkpt lat="43.9994229" lon="11.2443967"><ele>270.0</ele><time>2026-04-11T12:02:58.108Z</time></trkpt><trkpt lat="43.9994495" lon="11.2442716"><ele>270.0</ele><time>2026-04-11T12:02:59.108Z</time></trkpt><trkpt lat="43.9994888" lon="11.2441662"><ele>270.0</ele><time>2026-04-11T12:03:00.108Z</time></trkpt><trkpt lat="43.9995351" lon="11.2440766"><ele>270.0</ele><time>2026-04-11T12:03:01.107Z</time></trkpt><trkpt lat="43.9995822" lon="11.243995"><ele>270.0</ele><time>2026-04-11T12:03:02.107Z</time></trkpt><trkpt lat="43.9996243" lon="11.2439238"><ele>270.0</ele><time>2026-04-11T12:03:03.108Z</time></trkpt><trkpt lat="43.9996943" lon="11.243813"><ele>270.0</ele><time>2026-04-11T12:03:05.108Z</time></trkpt><trkpt lat="43.9997502" lon="11.2437326"><ele>269.8333333333333</ele><time>2026-04-11T12:03:07.108Z</time></trkpt><trkpt lat="43.9997877" lon="11.2436605"><ele>269.6666666666667</ele><time>2026-04-11T12:03:10.107Z</time></trkpt><trkpt lat="43.9998236" lon="11.2435708"><ele>269.5</ele><time>2026-04-11T12:06:20.107Z</time></trkpt><trkpt lat="43.9998642" lon="11.2434712"><ele>269.33333333333337</ele><time>2026-04-11T12:06:22.107Z</time></trkpt><trkpt lat="43.9999655" lon="11.2433856"><ele>269.1666666666667</ele><time>2026-04-11T12:06:24.107Z</time></trkpt><trkpt lat="44.0000307" lon="11.2433805"><ele>269.0</ele><time>2026-04-11T12:06:25.106Z</time></trkpt><trkpt lat="44.0001044" lon="11.2434044"><ele>269.0</ele><time>2026-04-11T12:06:26.106Z</time></trkpt><trkpt lat="44.000188" lon="11.2434498"><ele>269.0</ele><time>2026-04-11T12:06:27.106Z</time></trkpt><trkpt lat="44.0002737" lon="11.2434925"><ele>269.0</ele><time>2026-04-11T12:06:28.107Z</time></trkpt><trkpt lat="44.0003767" lon="11.2435369"><ele>269.0</ele><time>2026-04-11T12:06:29.107Z</time></trkpt><trkpt lat="44.0004965" lon="11.2435826"><ele>269.0</ele><time>2026-04-11T12:06:30.107Z</time></trkpt><trkpt lat="44.0006131" lon="11.2436116"><ele>269.0</ele><time>2026-04-11T12:06:31.107Z</time></trkpt><trkpt lat="44.0007327" lon="11.2436274"><ele>269.0</ele><time>2026-04-11T12:06:32.107Z</time></trkpt><trkpt lat="44.0008624" lon="11.2436245"><ele>269.0</ele><time>2026-04-11T12:06:33.107Z</time></trkpt><trkpt lat="44.0009937" lon="11.2436093"><ele>269.0</ele><time>2026-04-11T12:06:34.106Z</time></trkpt><trkpt lat="44.0011319" lon="11.2435702"><ele>269.75</ele><time>2026-04-11T12:06:35.107Z</time></trkpt><trkpt lat="44.0012718" lon="11.2435112"><ele>270.5</ele><time>2026-04-11T12:06:36.106Z</time></trkpt><trkpt lat="44.0014106" lon="11.2434376"><ele>271.25</ele><time>2026-04-11T12:06:37.106Z</time></trkpt><trkpt lat="44.0015472" lon="11.2433554"><ele>272.0</ele><time>2026-04-11T12:06:38.106Z</time></trkpt><trkpt lat="44.0016852" lon="11.2432707"><ele>271.0</ele><time>2026-04-11T12:06:39.106Z</time></trkpt><trkpt lat="44.0018228" lon="11.2431811"><ele>270.0</ele><time>2026-04-11T12:06:40.106Z</time></trkpt><trkpt lat="44.0019621" lon="11.2430884"><ele>269.0</ele><time>2026-04-11T12:06:41.106Z</time></trkpt><trkpt lat="44.0021065" lon="11.2429941"><ele>269.0</ele><time>2026-04-11T12:06:42.106Z</time></trkpt><trkpt lat="44.0022487" lon="11.242902"><ele>269.0</ele><time>2026-04-11T12:06:43.106Z</time></trkpt><trkpt lat="44.0023959" lon="11.2428033"><ele>269.0</ele><time>2026-04-11T12:06:44.106Z</time></trkpt><trkpt lat="44.0025458" lon="11.2427021"><ele>271.0</ele><time>2026-04-11T12:06:45.106Z</time></trkpt><trkpt lat="44.0026982" lon="11.2426033"><ele>273.0</ele><time>2026-04-11T12:06:46.106Z</time></trkpt><trkpt lat="44.0028522" lon="11.2425057"><ele>275.0</ele><time>2026-04-11T12:06:47.107Z</time></trkpt><trkpt lat="44.0029943" lon="11.2424108"><ele>275.0</ele><time>2026-04-11T12:06:48.107Z</time></trkpt><trkpt lat="44.0031309" lon="11.2423068"><ele>275.0</ele><time>2026-04-11T12:06:49.107Z</time></trkpt><trkpt lat="44.0032595" lon="11.2421981"><ele>275.0</ele><time>2026-04-11T12:06:50.106Z</time></trkpt><trkpt lat="44.0033798" lon="11.2420856"><ele>275.0</ele><time>2026-04-11T12:06:51.107Z</time></trkpt><trkpt lat="44.0034893" lon="11.2419617"><ele>275.0</ele><time>2026-04-11T12:06:52.106Z</time></trkpt><trkpt lat="44.003591" lon="11.2418267"><ele>275.0</ele><time>2026-04-11T12:06:53.106Z</time></trkpt><trkpt lat="44.0036844" lon="11.2416829"><ele>275.0</ele><time>2026-04-11T12:06:54.106Z</time></trkpt><trkpt lat="44.0037781" lon="11.2415353"><ele>274.75</ele><time>2026-04-11T12:06:55.106Z</time></trkpt><trkpt lat="44.003872" lon="11.2413874"><ele>274.5</ele><time>2026-04-11T12:06:56.107Z</time></trkpt><trkpt lat="44.0039615" lon="11.2412417"><ele>274.25</ele><time>2026-04-11T12:06:57.106Z</time></trkpt><trkpt lat="44.0040446" lon="11.2411085"><ele>274.0</ele><time>2026-04-11T12:06:58.107Z</time></trkpt><trkpt lat="44.0041224" lon="11.2409801"><ele>274.25</ele><time>2026-04-11T12:06:59.107Z</time></trkpt><trkpt lat="44.0041989" lon="11.240855"><ele>274.5</ele><time>2026-04-11T12:07:00.107Z</time></trkpt><trkpt lat="44.0042807" lon="11.2407298"><ele>274.75</ele><time>2026-04-11T12:07:01.107Z</time></trkpt><trkpt lat="44.004369" lon="11.240611"><ele>275.0</ele><time>2026-04-11T12:07:02.107Z</time></trkpt><trkpt lat="44.0044638" lon="11.2404984"><ele>275.0</ele><time>2026-04-11T12:07:03.106Z</time></trkpt><trkpt lat="44.0045656" lon="11.2403992"><ele>275.0</ele><time>2026-04-11T12:07:04.107Z</time></trkpt><trkpt lat="44.0046738" lon="11.2403156"><ele>275.0</ele><time>2026-04-11T12:07:05.107Z</time></trkpt><trkpt lat="44.0047894" lon="11.2402409"><ele>275.0</ele><time>2026-04-11T12:07:06.107Z</time></trkpt><trkpt lat="44.0049063" lon="11.24018"><ele>275.75</ele><time>2026-04-11T12:07:07.106Z</time></trkpt><trkpt lat="44.0050278" lon="11.2401301"><ele>276.5</ele><time>2026-04-11T12:07:08.106Z</time></trkpt><trkpt lat="44.005152" lon="11.2400946"><ele>277.25</ele><time>2026-04-11T12:07:09.107Z</time></trkpt><trkpt lat="44.0052802" lon="11.2400729"><ele>278.0</ele><time>2026-04-11T12:07:10.106Z</time></trkpt><trkpt lat="44.0054133" lon="11.2400636"><ele>278.0</ele><time>2026-04-11T12:07:11.106Z</time></trkpt><trkpt lat="44.0055544" lon="11.2400681"><ele>278.0</ele><time>2026-04-11T12:07:12.107Z</time></trkpt><trkpt lat="44.0057058" lon="11.2400919"><ele>278.0</ele><time>2026-04-11T12:07:13.106Z</time></trkpt><trkpt lat="44.0058628" lon="11.2401262"><ele>278.5</ele><time>2026-04-11T12:07:14.107Z</time></trkpt><trkpt lat="44.0060113" lon="11.2401619"><ele>279.0</ele><time>2026-04-11T12:07:15.107Z</time></trkpt><trkpt lat="44.0061479" lon="11.240194"><ele>279.5</ele><time>2026-04-11T12:07:16.106Z</time></trkpt><trkpt lat="44.0062883" lon="11.2402272"><ele>280.0</ele><time>2026-04-11T12:07:17.106Z</time></trkpt><trkpt lat="44.0064318" lon="11.240262"><ele>280.0</ele><time>2026-04-11T12:07:18.107Z</time></trkpt><trkpt lat="44.0065642" lon="11.2402933"><ele>280.0</ele><time>2026-04-11T12:07:19.107Z</time></trkpt><trkpt lat="44.0066952" lon="11.240323"><ele>280.0</ele><time>2026-04-11T12:07:20.107Z</time></trkpt><trkpt lat="44.0068266" lon="11.2403533"><ele>280.0</ele><time>2026-04-11T12:07:21.107Z</time></trkpt><trkpt lat="44.0069571" lon="11.2403838"><ele>279.25</ele><time>2026-04-11T12:07:22.107Z</time></trkpt><trkpt lat="44.0070859" lon="11.2404129"><ele>278.5</ele><time>2026-04-11T12:07:23.107Z</time></trkpt><trkpt lat="44.007212" lon="11.2404384"><ele>277.75</ele><time>2026-04-11T12:07:24.107Z</time></trkpt><trkpt lat="44.0073296" lon="11.2404627"><ele>277.0</ele><time>2026-04-11T12:07:25.106Z</time></trkpt><trkpt lat="44.0074418" lon="11.2404852"><ele>277.4</ele><time>2026-04-11T12:07:26.106Z</time></trkpt><trkpt lat="44.0075515" lon="11.2405024"><ele>277.79999999999995</ele><time>2026-04-11T12:07:27.106Z</time></trkpt><trkpt lat="44.0076573" lon="11.240513"><ele>278.2</ele><time>2026-04-11T12:07:28.107Z</time></trkpt><trkpt lat="44.0077548" lon="11.2405167"><ele>278.59999999999997</ele><time>2026-04-11T12:07:29.107Z</time></trkpt><trkpt lat="44.0078466" lon="11.2405165"><ele>279.0</ele><time>2026-04-11T12:07:30.107Z</time></trkpt><trkpt lat="44.0079264" lon="11.2405185"><ele>279.0</ele><time>2026-04-11T12:07:31.107Z</time></trkpt><trkpt lat="44.0079904" lon="11.240518"><ele>279.0</ele><time>2026-04-11T12:07:32.106Z</time></trkpt><trkpt lat="44.008091" lon="11.2405122"><ele>279.0</ele><time>2026-04-11T12:07:34.107Z</time></trkpt><trkpt lat="44.008185" lon="11.2404992"><ele>279.0</ele><time>2026-04-11T12:07:36.107Z</time></trkpt><trkpt lat="44.0082869" lon="11.2405233"><ele>279.0</ele><time>2026-04-11T12:07:38.107Z</time></trkpt><trkpt lat="44.0083581" lon="11.2406219"><ele>279.3333333333333</ele><time>2026-04-11T12:07:40.106Z</time></trkpt><trkpt lat="44.0083953" lon="11.2407046"><ele>279.6666666666667</ele><time>2026-04-11T12:07:42.107Z</time></trkpt><trkpt lat="44.0084211" lon="11.240797"><ele>280.0</ele><time>2026-04-11T12:07:45.107Z</time></trkpt><trkpt lat="44.0084447" lon="11.2409103"><ele>280.33333333333337</ele><time>2026-04-11T12:07:59.107Z</time></trkpt><trkpt lat="44.0084591" lon="11.2410129"><ele>280.6666666666667</ele><time>2026-04-11T12:08:16.107Z</time></trkpt><trkpt lat="44.0084707" lon="11.241104"><ele>281.0</ele><time>2026-04-11T12:08:19.107Z</time></trkpt><trkpt lat="44.0084489" lon="11.2412214"><ele>281.0</ele><time>2026-04-11T12:10:51.106Z</time></trkpt><trkpt lat="44.0084247" lon="11.2413631"><ele>281.0</ele><time>2026-04-11T12:10:54.106Z</time></trkpt><trkpt lat="44.0084042" lon="11.2415065"><ele>281.0</ele><time>2026-04-11T12:10:56.105Z</time></trkpt><trkpt lat="44.0084534" lon="11.2416014"><ele>281.0</ele><time>2026-04-11T12:10:58.105Z</time></trkpt><trkpt lat="44.0085855" lon="11.2416192"><ele>281.0</ele><time>2026-04-11T12:11:00.106Z</time></trkpt><trkpt lat="44.0086726" lon="11.2416283"><ele>281.75</ele><time>2026-04-11T12:11:01.106Z</time></trkpt><trkpt lat="44.0087735" lon="11.2416519"><ele>282.5</ele><time>2026-04-11T12:11:02.105Z</time></trkpt><trkpt lat="44.0088891" lon="11.2416853"><ele>283.25</ele><time>2026-04-11T12:11:03.105Z</time></trkpt><trkpt lat="44.0090069" lon="11.2417154"><ele>284.0</ele><time>2026-04-11T12:11:04.106Z</time></trkpt><trkpt lat="44.0091234" lon="11.2417364"><ele>284.75</ele><time>2026-04-11T12:11:05.106Z</time></trkpt><trkpt lat="44.0092348" lon="11.2417378"><ele>285.5</ele><time>2026-04-11T12:11:06.106Z</time></trkpt><trkpt lat="44.0093565" lon="11.2417166"><ele>286.25</ele><time>2026-04-11T12:11:07.106Z</time></trkpt><trkpt lat="44.0094775" lon="11.2416793"><ele>287.0</ele><time>2026-04-11T12:11:08.106Z</time></trkpt><trkpt lat="44.009601" lon="11.241644"><ele>287.0</ele><time>2026-04-11T12:11:09.106Z</time></trkpt><trkpt lat="44.0097215" lon="11.2416295"><ele>287.0</ele><time>2026-04-11T12:11:10.106Z</time></trkpt><trkpt lat="44.0098424" lon="11.2416402"><ele>287.0</ele><time>2026-04-11T12:11:11.105Z</time></trkpt><trkpt lat="44.0099673" lon="11.2416653"><ele>287.0</ele><time>2026-04-11T12:11:12.106Z</time></trkpt><trkpt lat="44.0100887" lon="11.2416868"><ele>288.5</ele><time>2026-04-11T12:11:13.104Z</time></trkpt><trkpt lat="44.0102079" lon="11.2417017"><ele>290.0</ele><time>2026-04-11T12:11:14.104Z</time></trkpt><trkpt lat="44.0103372" lon="11.2417116"><ele>291.5</ele><time>2026-04-11T12:11:15.105Z</time></trkpt><trkpt lat="44.0104687" lon="11.2417153"><ele>293.0</ele><time>2026-04-11T12:11:16.105Z</time></trkpt><trkpt lat="44.0105859" lon="11.2417179"><ele>293.0</ele><time>2026-04-11T12:11:17.106Z</time></trkpt><trkpt lat="44.0107042" lon="11.2417168"><ele>293.0</ele><time>2026-04-11T12:11:18.106Z</time></trkpt><trkpt lat="44.0108179" lon="11.2417169"><ele>293.0</ele><time>2026-04-11T12:11:19.106Z</time></trkpt><trkpt lat="44.0109288" lon="11.2417168"><ele>293.0</ele><time>2026-04-11T12:11:20.106Z</time></trkpt><trkpt lat="44.0110403" lon="11.2417188"><ele>294.4</ele><time>2026-04-11T12:11:21.106Z</time></trkpt><trkpt lat="44.0111486" lon="11.2417176"><ele>295.8</ele><time>2026-04-11T12:11:22.106Z</time></trkpt><trkpt lat="44.0112543" lon="11.241718"><ele>297.2</ele><time>2026-04-11T12:11:23.105Z</time></trkpt><trkpt lat="44.0113517" lon="11.2417116"><ele>298.6</ele><time>2026-04-11T12:11:24.105Z</time></trkpt><trkpt lat="44.0114515" lon="11.2416971"><ele>300.0</ele><time>2026-04-11T12:11:25.105Z</time></trkpt><trkpt lat="44.0115546" lon="11.2416807"><ele>302.25</ele><time>2026-04-11T12:11:26.106Z</time></trkpt><trkpt lat="44.011661" lon="11.2416556"><ele>304.5</ele><time>2026-04-11T12:11:27.106Z</time></trkpt><trkpt lat="44.0117683" lon="11.2416135"><ele>306.75</ele><time>2026-04-11T12:11:28.106Z</time></trkpt><trkpt lat="44.0118765" lon="11.2415622"><ele>309.0</ele><time>2026-04-11T12:11:29.106Z</time></trkpt><trkpt lat="44.0119854" lon="11.2414983"><ele>308.8</ele><time>2026-04-11T12:11:30.106Z</time></trkpt><trkpt lat="44.0120889" lon="11.2414354"><ele>308.59999999999997</ele><time>2026-04-11T12:11:31.105Z</time></trkpt><trkpt lat="44.0121876" lon="11.2413743"><ele>308.4</ele><time>2026-04-11T12:11:32.105Z</time></trkpt><trkpt lat="44.0122814" lon="11.2413197"><ele>308.2</ele><time>2026-04-11T12:11:33.105Z</time></trkpt><trkpt lat="44.0123754" lon="11.2412732"><ele>308.0</ele><time>2026-04-11T12:11:34.105Z</time></trkpt><trkpt lat="44.0124722" lon="11.2412198"><ele>311.5</ele><time>2026-04-11T12:11:35.105Z</time></trkpt><trkpt lat="44.0125739" lon="11.2411687"><ele>315.0</ele><time>2026-04-11T12:11:36.106Z</time></trkpt><trkpt lat="44.0126823" lon="11.241115"><ele>318.5</ele><time>2026-04-11T12:11:37.105Z</time></trkpt><trkpt lat="44.012792" lon="11.2410652"><ele>322.0</ele><time>2026-04-11T12:11:38.106Z</time></trkpt><trkpt lat="44.0129056" lon="11.2410151"><ele>322.0</ele><time>2026-04-11T12:11:39.106Z</time></trkpt><trkpt lat="44.013026" lon="11.2409709"><ele>322.0</ele><time>2026-04-11T12:11:40.106Z</time></trkpt><trkpt lat="44.0131465" lon="11.2409361"><ele>322.0</ele><time>2026-04-11T12:11:41.106Z</time></trkpt><trkpt lat="44.0132545" lon="11.2409089"><ele>322.0</ele><time>2026-04-11T12:11:42.106Z</time></trkpt><trkpt lat="44.0133627" lon="11.2408855"><ele>324.25</ele><time>2026-04-11T12:11:43.106Z</time></trkpt><trkpt lat="44.0134722" lon="11.2408669"><ele>326.5</ele><time>2026-04-11T12:11:44.105Z</time></trkpt><trkpt lat="44.0135868" lon="11.2408594"><ele>328.75</ele><time>2026-04-11T12:11:45.106Z</time></trkpt><trkpt lat="44.0137152" lon="11.2408662"><ele>331.0</ele><time>2026-04-11T12:11:46.106Z</time></trkpt><trkpt lat="44.0138458" lon="11.2408849"><ele>331.0</ele><time>2026-04-11T12:11:47.106Z</time></trkpt><trkpt lat="44.0139698" lon="11.2409111"><ele>331.0</ele><time>2026-04-11T12:11:48.105Z</time></trkpt><trkpt lat="44.0140941" lon="11.2409435"><ele>331.0</ele><time>2026-04-11T12:11:49.106Z</time></trkpt><trkpt lat="44.0142164" lon="11.240977"><ele>331.0</ele><time>2026-04-11T12:11:50.104Z</time></trkpt><trkpt lat="44.0143375" lon="11.2410067"><ele>333.25</ele><time>2026-04-11T12:11:51.105Z</time></trkpt><trkpt lat="44.014463" lon="11.2410342"><ele>335.5</ele><time>2026-04-11T12:11:52.105Z</time></trkpt><trkpt lat="44.0145904" lon="11.24107"><ele>337.75</ele><time>2026-04-11T12:11:53.105Z</time></trkpt><trkpt lat="44.014718" lon="11.2411235"><ele>340.0</ele><time>2026-04-11T12:11:54.105Z</time></trkpt><trkpt lat="44.0148391" lon="11.2412094"><ele>340.0</ele><time>2026-04-11T12:11:55.104Z</time></trkpt><trkpt lat="44.0149606" lon="11.2412979"><ele>340.0</ele><time>2026-04-11T12:11:56.105Z</time></trkpt><trkpt lat="44.0150816" lon="11.2413842"><ele>340.0</ele><time>2026-04-11T12:11:57.106Z</time></trkpt><trkpt lat="44.0152017" lon="11.2414666"><ele>340.0</ele><time>2026-04-11T12:11:58.106Z</time></trkpt><trkpt lat="44.0153253" lon="11.2415427"><ele>340.6</ele><time>2026-04-11T12:11:59.106Z</time></trkpt><trkpt lat="44.0154405" lon="11.241599"><ele>341.2</ele><time>2026-04-11T12:12:00.105Z</time></trkpt><trkpt lat="44.015541" lon="11.2416298"><ele>341.79999999999995</ele><time>2026-04-11T12:12:01.105Z</time></trkpt><trkpt lat="44.0156411" lon="11.2416444"><ele>342.4</ele><time>2026-04-11T12:12:02.105Z</time></trkpt><trkpt lat="44.0157518" lon="11.2416277"><ele>343.0</ele><time>2026-04-11T12:12:03.105Z</time></trkpt><trkpt lat="44.0158676" lon="11.2415964"><ele>344.59999999999997</ele><time>2026-04-11T12:12:04.106Z</time></trkpt><trkpt lat="44.015988" lon="11.2415548"><ele>346.2</ele><time>2026-04-11T12:12:05.106Z</time></trkpt><trkpt lat="44.0160965" lon="11.241525"><ele>347.8</ele><time>2026-04-11T12:12:06.105Z</time></trkpt><trkpt lat="44.0161928" lon="11.2415251"><ele>349.4</ele><time>2026-04-11T12:12:07.105Z</time></trkpt><trkpt lat="44.0162911" lon="11.2415584"><ele>351.0</ele><time>2026-04-11T12:12:08.105Z</time></trkpt><trkpt lat="44.0163876" lon="11.2416098"><ele>351.0</ele><time>2026-04-11T12:12:09.105Z</time></trkpt><trkpt lat="44.0164838" lon="11.2416686"><ele>351.0</ele><time>2026-04-11T12:12:10.105Z</time></trkpt><trkpt lat="44.0165697" lon="11.2417365"><ele>351.0</ele><time>2026-04-11T12:12:11.105Z</time></trkpt><trkpt lat="44.0166448" lon="11.2417998"><ele>351.0</ele><time>2026-04-11T12:12:12.106Z</time></trkpt><trkpt lat="44.016719" lon="11.2418656"><ele>351.0</ele><time>2026-04-11T12:12:13.106Z</time></trkpt><trkpt lat="44.0167889" lon="11.2419463"><ele>351.8333333333333</ele><time>2026-04-11T12:12:14.106Z</time></trkpt><trkpt lat="44.0168465" lon="11.2420468"><ele>352.6666666666667</ele><time>2026-04-11T12:12:15.106Z</time></trkpt><trkpt lat="44.0168897" lon="11.2421481"><ele>353.5</ele><time>2026-04-11T12:12:16.106Z</time></trkpt><trkpt lat="44.0169239" lon="11.2422514"><ele>354.33333333333337</ele><time>2026-04-11T12:12:17.106Z</time></trkpt><trkpt lat="44.0169552" lon="11.2423622"><ele>355.1666666666667</ele><time>2026-04-11T12:12:18.105Z</time></trkpt><trkpt lat="44.0169817" lon="11.24246"><ele>356.0</ele><time>2026-04-11T12:12:19.106Z</time></trkpt><trkpt lat="44.0170024" lon="11.2425563"><ele>356.33333333333337</ele><time>2026-04-11T12:12:20.106Z</time></trkpt><trkpt lat="44.0170179" lon="11.2426454"><ele>356.6666666666667</ele><time>2026-04-11T12:12:21.106Z</time></trkpt><trkpt lat="44.017037" lon="11.2427348"><ele>357.0</ele><time>2026-04-11T12:12:22.106Z</time></trkpt><trkpt lat="44.0170511" lon="11.2428208"><ele>357.3333333333333</ele><time>2026-04-11T12:12:23.106Z</time></trkpt><trkpt lat="44.0170681" lon="11.2429059"><ele>357.66666666666663</ele><time>2026-04-11T12:12:24.106Z</time></trkpt><trkpt lat="44.0171174" lon="11.2430567"><ele>358.0</ele><time>2026-04-11T12:12:26.105Z</time></trkpt><trkpt lat="44.0171808" lon="11.2432037"><ele>358.16666666666663</ele><time>2026-04-11T12:12:28.105Z</time></trkpt><trkpt lat="44.0172082" lon="11.2432828"><ele>358.3333333333333</ele><time>2026-04-11T12:12:29.105Z</time></trkpt><trkpt lat="44.0172482" lon="11.2433713"><ele>358.5</ele><time>2026-04-11T12:12:30.105Z</time></trkpt><trkpt lat="44.0172814" lon="11.2434611"><ele>358.6666666666667</ele><time>2026-04-11T12:12:31.106Z</time></trkpt><trkpt lat="44.0173247" lon="11.2435525"><ele>358.83333333333337</ele><time>2026-04-11T12:12:32.106Z</time></trkpt><trkpt lat="44.0173674" lon="11.2436471"><ele>359.0</ele><time>2026-04-11T12:12:33.106Z</time></trkpt><trkpt lat="44.0174095" lon="11.243741"><ele>359.0</ele><time>2026-04-11T12:12:34.104Z</time></trkpt><trkpt lat="44.0174519" lon="11.2438364"><ele>359.0</ele><time>2026-04-11T12:12:35.105Z</time></trkpt><trkpt lat="44.0174979" lon="11.2439289"><ele>359.0</ele><time>2026-04-11T12:12:36.106Z</time></trkpt><trkpt lat="44.0175393" lon="11.244021"><ele>359.0</ele><time>2026-04-11T12:12:37.104Z</time></trkpt><trkpt lat="44.0175768" lon="11.2441047"><ele>359.0</ele><time>2026-04-11T12:12:38.105Z</time></trkpt><trkpt lat="44.0176123" lon="11.2441884"><ele>359.0</ele><time>2026-04-11T12:12:39.106Z</time></trkpt><trkpt lat="44.0176461" lon="11.2442676"><ele>359.0</ele><time>2026-04-11T12:12:40.106Z</time></trkpt><trkpt lat="44.0176828" lon="11.2443508"><ele>360.57142857142856</ele><time>2026-04-11T12:12:41.106Z</time></trkpt><trkpt lat="44.0177208" lon="11.2444322"><ele>362.14285714285717</ele><time>2026-04-11T12:12:42.106Z</time></trkpt><trkpt lat="44.0177559" lon="11.2445162"><ele>363.71428571428567</ele><time>2026-04-11T12:12:43.106Z</time></trkpt><trkpt lat="44.0177962" lon="11.2446012"><ele>365.2857142857143</ele><time>2026-04-11T12:12:44.106Z</time></trkpt><trkpt lat="44.0178385" lon="11.2446851"><ele>366.85714285714283</ele><time>2026-04-11T12:12:45.106Z</time></trkpt><trkpt lat="44.0178797" lon="11.2447734"><ele>368.4285714285714</ele><time>2026-04-11T12:12:46.106Z</time></trkpt><trkpt lat="44.0179242" lon="11.2448618"><ele>370.0</ele><time>2026-04-11T12:12:47.106Z</time></trkpt><trkpt lat="44.0179698" lon="11.2449605"><ele>370.0</ele><time>2026-04-11T12:12:48.105Z</time></trkpt><trkpt lat="44.0180187" lon="11.2450609"><ele>370.0</ele><time>2026-04-11T12:12:49.105Z</time></trkpt><trkpt lat="44.0180744" lon="11.2451497"><ele>370.0</ele><time>2026-04-11T12:12:50.104Z</time></trkpt><trkpt lat="44.0181365" lon="11.2452318"><ele>370.0</ele><time>2026-04-11T12:12:51.105Z</time></trkpt><trkpt lat="44.0182016" lon="11.2453107"><ele>370.0</ele><time>2026-04-11T12:12:52.105Z</time></trkpt><trkpt lat="44.0182676" lon="11.2453789"><ele>370.0</ele><time>2026-04-11T12:12:53.105Z</time></trkpt><trkpt lat="44.0183323" lon="11.2454403"><ele>370.66666666666663</ele><time>2026-04-11T12:12:54.105Z</time></trkpt><trkpt lat="44.0184023" lon="11.2454952"><ele>371.3333333333333</ele><time>2026-04-11T12:12:55.105Z</time></trkpt><trkpt lat="44.0184732" lon="11.2455437"><ele>372.0</ele><time>2026-04-11T12:12:56.105Z</time></trkpt><trkpt lat="44.0185504" lon="11.2455752"><ele>372.6666666666667</ele><time>2026-04-11T12:12:57.104Z</time></trkpt><trkpt lat="44.0186301" lon="11.2456016"><ele>373.33333333333337</ele><time>2026-04-11T12:12:58.104Z</time></trkpt><trkpt lat="44.0187188" lon="11.2456136"><ele>374.0</ele><time>2026-04-11T12:12:59.104Z</time></trkpt><trkpt lat="44.0187934" lon="11.2456276"><ele>374.83333333333337</ele><time>2026-04-11T12:13:00.104Z</time></trkpt><trkpt lat="44.0188642" lon="11.2456515"><ele>375.6666666666667</ele><time>2026-04-11T12:13:01.104Z</time></trkpt><trkpt lat="44.0189283" lon="11.2456953"><ele>376.5</ele><time>2026-04-11T12:13:02.104Z</time></trkpt><trkpt lat="44.0189864" lon="11.245731"><ele>377.3333333333333</ele><time>2026-04-11T12:13:03.105Z</time></trkpt><trkpt lat="44.0191102" lon="11.2457296"><ele>378.16666666666663</ele><time>2026-04-11T12:13:05.104Z</time></trkpt><trkpt lat="44.0191718" lon="11.2457075"><ele>379.0</ele><time>2026-04-11T12:13:06.105Z</time></trkpt><trkpt lat="44.0192354" lon="11.2456884"><ele>379.00000000000006</ele><time>2026-04-11T12:13:07.105Z</time></trkpt><trkpt lat="44.0192969" lon="11.2456646"><ele>379.0</ele><time>2026-04-11T12:13:08.104Z</time></trkpt><trkpt lat="44.0193599" lon="11.2456387"><ele>379.0</ele><time>2026-04-11T12:13:09.103Z</time></trkpt><trkpt lat="44.0194262" lon="11.2456125"><ele>379.0</ele><time>2026-04-11T12:13:10.105Z</time></trkpt><trkpt lat="44.0194938" lon="11.2455866"><ele>379.0</ele><time>2026-04-11T12:13:11.104Z</time></trkpt><trkpt lat="44.0195608" lon="11.2455649"><ele>379.00000000000006</ele><time>2026-04-11T12:13:12.104Z</time></trkpt><trkpt lat="44.0196255" lon="11.2455414"><ele>379.0</ele><time>2026-04-11T12:13:13.105Z</time></trkpt><trkpt lat="44.0196911" lon="11.2455189"><ele>379.0</ele><time>2026-04-11T12:13:14.105Z</time></trkpt><trkpt lat="44.0197553" lon="11.2454968"><ele>379.0</ele><time>2026-04-11T12:13:15.105Z</time></trkpt><trkpt lat="44.0198207" lon="11.2454745"><ele>379.0</ele><time>2026-04-11T12:13:16.105Z</time></trkpt><trkpt lat="44.0198865" lon="11.2454494"><ele>379.0</ele><time>2026-04-11T12:13:17.104Z</time></trkpt><trkpt lat="44.0199474" lon="11.2454235"><ele>379.0</ele><time>2026-04-11T12:13:18.105Z</time></trkpt><trkpt lat="44.0200649" lon="11.2453804"><ele>379.0</ele><time>2026-04-11T12:13:20.105Z</time></trkpt><trkpt lat="44.0201851" lon="11.2453384"><ele>381.0</ele><time>2026-04-11T12:13:22.105Z</time></trkpt><trkpt lat="44.0203047" lon="11.245291"><ele>383.0</ele><time>2026-04-11T12:13:24.105Z</time></trkpt><trkpt lat="44.0203722" lon="11.2452654"><ele>385.0</ele><time>2026-04-11T12:13:25.105Z</time></trkpt><trkpt lat="44.020453" lon="11.2452496"><ele>387.0</ele><time>2026-04-11T12:13:26.105Z</time></trkpt><trkpt lat="44.020532" lon="11.2452328"><ele>389.00000000000006</ele><time>2026-04-11T12:13:27.105Z</time></trkpt><trkpt lat="44.0206109" lon="11.2452198"><ele>391.0</ele><time>2026-04-11T12:13:28.104Z</time></trkpt><trkpt lat="44.0206883" lon="11.2452113"><ele>391.00000000000006</ele><time>2026-04-11T12:13:29.104Z</time></trkpt><trkpt lat="44.0207628" lon="11.245201"><ele>391.0</ele><time>2026-04-11T12:13:30.104Z</time></trkpt><trkpt lat="44.0208382" lon="11.2451858"><ele>391.0</ele><time>2026-04-11T12:13:31.105Z</time></trkpt><trkpt lat="44.0209137" lon="11.2451677"><ele>391.0</ele><time>2026-04-11T12:13:32.105Z</time></trkpt><trkpt lat="44.0209868" lon="11.2451391"><ele>391.00000000000006</ele><time>2026-04-11T12:13:33.104Z</time></trkpt><trkpt lat="44.0210538" lon="11.2450884"><ele>391.0</ele><time>2026-04-11T12:13:34.105Z</time></trkpt><trkpt lat="44.0211219" lon="11.2450256"><ele>392.50000000000006</ele><time>2026-04-11T12:13:35.105Z</time></trkpt><trkpt lat="44.0211805" lon="11.2449546"><ele>394.0</ele><time>2026-04-11T12:13:36.104Z</time></trkpt><trkpt lat="44.0212411" lon="11.2448791"><ele>395.5</ele><time>2026-04-11T12:13:37.104Z</time></trkpt><trkpt lat="44.0212964" lon="11.2448026"><ele>397.0</ele><time>2026-04-11T12:13:38.105Z</time></trkpt><trkpt lat="44.0213419" lon="11.2447244"><ele>398.50000000000006</ele><time>2026-04-11T12:13:39.105Z</time></trkpt><trkpt lat="44.0213914" lon="11.244656"><ele>400.0</ele><time>2026-04-11T12:13:40.105Z</time></trkpt><trkpt lat="44.0214975" lon="11.2445828"><ele>400.00000000000006</ele><time>2026-04-11T12:13:42.104Z</time></trkpt><trkpt lat="44.0216126" lon="11.2445764"><ele>400.0</ele><time>2026-04-11T12:13:44.105Z</time></trkpt><trkpt lat="44.0217297" lon="11.2446105"><ele>400.0</ele><time>2026-04-11T12:13:46.104Z</time></trkpt><trkpt lat="44.0217899" lon="11.2446447"><ele>400.0</ele><time>2026-04-11T12:13:47.104Z</time></trkpt><trkpt lat="44.0218499" lon="11.2446857"><ele>400.00000000000006</ele><time>2026-04-11T12:13:48.104Z</time></trkpt><trkpt lat="44.0219119" lon="11.2447255"><ele>400.0</ele><time>2026-04-11T12:13:49.104Z</time></trkpt><trkpt lat="44.0219693" lon="11.2447714"><ele>402.8</ele><time>2026-04-11T12:13:50.104Z</time></trkpt><trkpt lat="44.0220221" lon="11.2448227"><ele>405.6</ele><time>2026-04-11T12:13:51.105Z</time></trkpt><trkpt lat="44.0221349" lon="11.2448949"><ele>408.4</ele><time>2026-04-11T12:13:53.104Z</time></trkpt><trkpt lat="44.0222521" lon="11.2449471"><ele>411.2</ele><time>2026-04-11T12:13:55.105Z</time></trkpt><trkpt lat="44.02237" lon="11.244953"><ele>414.0</ele><time>2026-04-11T12:13:57.104Z</time></trkpt><trkpt lat="44.0224821" lon="11.2449038"><ele>415.4</ele><time>2026-04-11T12:13:59.105Z</time></trkpt><trkpt lat="44.0225843" lon="11.2448372"><ele>416.79999999999995</ele><time>2026-04-11T12:14:01.104Z</time></trkpt><trkpt lat="44.0226687" lon="11.2447429"><ele>418.20000000000005</ele><time>2026-04-11T12:14:03.104Z</time></trkpt><trkpt lat="44.0227439" lon="11.2446483"><ele>419.6</ele><time>2026-04-11T12:14:05.105Z</time></trkpt><trkpt lat="44.0228185" lon="11.2445504"><ele>421.0</ele><time>2026-04-11T12:14:07.105Z</time></trkpt><trkpt lat="44.0228955" lon="11.2444464"><ele>421.0</ele><time>2026-04-11T12:14:09.104Z</time></trkpt><trkpt lat="44.0229897" lon="11.2443295"><ele>421.0</ele><time>2026-04-11T12:14:11.105Z</time></trkpt><trkpt lat="44.0230816" lon="11.2442229"><ele>421.0</ele><time>2026-04-11T12:14:13.104Z</time></trkpt><trkpt lat="44.0231814" lon="11.2441411"><ele>421.0</ele><time>2026-04-11T12:14:15.104Z</time></trkpt><trkpt lat="44.0232787" lon="11.2441208"><ele>425.0</ele><time>2026-04-11T12:14:17.104Z</time></trkpt><trkpt lat="44.0233769" lon="11.2441425"><ele>429.0</ele><time>2026-04-11T12:14:19.105Z</time></trkpt><trkpt lat="44.0234756" lon="11.2441647"><ele>433.0</ele><time>2026-04-11T12:14:21.105Z</time></trkpt><trkpt lat="44.0235702" lon="11.2441917"><ele>437.0</ele><time>2026-04-11T12:14:23.105Z</time></trkpt><trkpt lat="44.0236568" lon="11.2442314"><ele>441.0</ele><time>2026-04-11T12:14:25.105Z</time></trkpt><trkpt lat="44.0237425" lon="11.2442613"><ele>441.0</ele><time>2026-04-11T12:14:27.105Z</time></trkpt><trkpt lat="44.0238317" lon="11.2442989"><ele>441.0</ele><time>2026-04-11T12:14:29.104Z</time></trkpt><trkpt lat="44.0239134" lon="11.2443418"><ele>441.0</ele><time>2026-04-11T12:14:31.104Z</time></trkpt><trkpt lat="44.0239985" lon="11.2443938"><ele>441.0</ele><time>2026-04-11T12:14:33.104Z</time></trkpt><trkpt lat="44.0240967" lon="11.2444386"><ele>441.0</ele><time>2026-04-11T12:14:35.105Z</time></trkpt><trkpt lat="44.02419" lon="11.2444592"><ele>443.20000000000005</ele><time>2026-04-11T12:14:37.104Z</time></trkpt><trkpt lat="44.0242752" lon="11.2444558"><ele>445.40000000000003</ele><time>2026-04-11T12:14:39.104Z</time></trkpt><trkpt lat="44.0243586" lon="11.2444532"><ele>447.6</ele><time>2026-04-11T12:14:41.104Z</time></trkpt><trkpt lat="44.0244466" lon="11.2444476"><ele>449.8</ele><time>2026-04-11T12:14:43.105Z</time></trkpt><trkpt lat="44.0245399" lon="11.2444535"><ele>452.0</ele><time>2026-04-11T12:14:45.104Z</time></trkpt><trkpt lat="44.0246396" lon="11.2444604"><ele>452.0</ele><time>2026-04-11T12:14:47.104Z</time></trkpt><trkpt lat="44.0247314" lon="11.2444838"><ele>452.00000000000006</ele><time>2026-04-11T12:14:49.105Z</time></trkpt><trkpt lat="44.0248228" lon="11.2445393"><ele>452.00000000000006</ele><time>2026-04-11T12:14:51.105Z</time></trkpt><trkpt lat="44.0249098" lon="11.2446224"><ele>452.0</ele><time>2026-04-11T12:14:53.105Z</time></trkpt><trkpt lat="44.0250103" lon="11.2447047"><ele>452.0</ele><time>2026-04-11T12:14:55.105Z</time></trkpt><trkpt lat="44.0251104" lon="11.2447939"><ele>453.8333333333333</ele><time>2026-04-11T12:14:57.105Z</time></trkpt><trkpt lat="44.02519" lon="11.2448703"><ele>455.66666666666663</ele><time>2026-04-11T12:14:59.104Z</time></trkpt><trkpt lat="44.0252731" lon="11.2449433"><ele>457.5</ele><time>2026-04-11T12:15:01.105Z</time></trkpt><trkpt lat="44.025366" lon="11.2450166"><ele>459.33333333333337</ele><time>2026-04-11T12:15:03.104Z</time></trkpt><trkpt lat="44.0254203" lon="11.2450613"><ele>461.1666666666667</ele><time>2026-04-11T12:15:04.104Z</time></trkpt><trkpt lat="44.0254818" lon="11.2451144"><ele>463.0</ele><time>2026-04-11T12:15:05.104Z</time></trkpt><trkpt lat="44.0255414" lon="11.2451721"><ele>463.0</ele><time>2026-04-11T12:15:06.103Z</time></trkpt><trkpt lat="44.0256029" lon="11.2452402"><ele>462.99999999999994</ele><time>2026-04-11T12:15:07.105Z</time></trkpt><trkpt lat="44.0256619" lon="11.2453033"><ele>463.0</ele><time>2026-04-11T12:15:08.105Z</time></trkpt><trkpt lat="44.0257137" lon="11.2453542"><ele>463.0</ele><time>2026-04-11T12:15:09.105Z</time></trkpt><trkpt lat="44.0257738" lon="11.2454106"><ele>462.99999999999994</ele><time>2026-04-11T12:15:10.105Z</time></trkpt><trkpt lat="44.0258359" lon="11.2454682"><ele>463.0</ele><time>2026-04-11T12:15:11.105Z</time></trkpt><trkpt lat="44.0259034" lon="11.2455194"><ele>463.0</ele><time>2026-04-11T12:15:12.105Z</time></trkpt><trkpt lat="44.0259642" lon="11.2455693"><ele>463.1666666666667</ele><time>2026-04-11T12:15:13.105Z</time></trkpt><trkpt lat="44.0260201" lon="11.2456206"><ele>463.33333333333337</ele><time>2026-04-11T12:15:14.105Z</time></trkpt><trkpt lat="44.0260788" lon="11.2456604"><ele>463.5</ele><time>2026-04-11T12:15:15.104Z</time></trkpt><trkpt lat="44.0261384" lon="11.2457014"><ele>463.66666666666663</ele><time>2026-04-11T12:15:16.104Z</time></trkpt><trkpt lat="44.0262387" lon="11.2457797"><ele>463.8333333333333</ele><time>2026-04-11T12:15:18.104Z</time></trkpt><trkpt lat="44.0263356" lon="11.2458619"><ele>464.0</ele><time>2026-04-11T12:15:20.104Z</time></trkpt><trkpt lat="44.026431" lon="11.245928"><ele>465.0</ele><time>2026-04-11T12:15:22.105Z</time></trkpt><trkpt lat="44.0265332" lon="11.2459971"><ele>466.0</ele><time>2026-04-11T12:15:24.105Z</time></trkpt><trkpt lat="44.0266221" lon="11.2460619"><ele>467.0</ele><time>2026-04-11T12:15:26.104Z</time></trkpt><trkpt lat="44.0266876" lon="11.2461223"><ele>468.0</ele><time>2026-04-11T12:15:28.104Z</time></trkpt><trkpt lat="44.0267883" lon="11.2461668"><ele>469.0</ele><time>2026-04-11T12:15:30.103Z</time></trkpt><trkpt lat="44.0268865" lon="11.2462204"><ele>469.2</ele><time>2026-04-11T12:15:32.105Z</time></trkpt><trkpt lat="44.0269911" lon="11.2462932"><ele>469.4</ele><time>2026-04-11T12:15:34.105Z</time></trkpt><trkpt lat="44.0270783" lon="11.2463612"><ele>469.6</ele><time>2026-04-11T12:15:36.103Z</time></trkpt><trkpt lat="44.0271643" lon="11.2464415"><ele>469.8</ele><time>2026-04-11T12:15:38.105Z</time></trkpt><trkpt lat="44.027248" lon="11.2465484"><ele>470.0</ele><time>2026-04-11T12:15:40.105Z</time></trkpt><trkpt lat="44.0273273" lon="11.2466768"><ele>469.2</ele><time>2026-04-11T12:15:42.105Z</time></trkpt><trkpt lat="44.0274104" lon="11.2467833"><ele>468.4</ele><time>2026-04-11T12:15:44.104Z</time></trkpt><trkpt lat="44.0275074" lon="11.246843"><ele>467.6</ele><time>2026-04-11T12:15:46.104Z</time></trkpt><trkpt lat="44.0276268" lon="11.246884"><ele>466.8</ele><time>2026-04-11T12:15:48.104Z</time></trkpt><trkpt lat="44.0277239" lon="11.2469201"><ele>466.0</ele><time>2026-04-11T12:15:50.105Z</time></trkpt><trkpt lat="44.027821" lon="11.2469622"><ele>466.0</ele><time>2026-04-11T12:15:52.104Z</time></trkpt><trkpt lat="44.027945" lon="11.247003"><ele>466.0</ele><time>2026-04-11T12:15:54.105Z</time></trkpt><trkpt lat="44.0280129" lon="11.2470387"><ele>466.0</ele><time>2026-04-11T12:15:55.105Z</time></trkpt><trkpt lat="44.0281164" lon="11.2470953"><ele>466.0</ele><time>2026-04-11T12:15:57.104Z</time></trkpt><trkpt lat="44.0282165" lon="11.2471394"><ele>466.0</ele><time>2026-04-11T12:15:59.104Z</time></trkpt><trkpt lat="44.0283062" lon="11.2471966"><ele>464.6</ele><time>2026-04-11T12:16:01.104Z</time></trkpt><trkpt lat="44.0283906" lon="11.2472824"><ele>463.20000000000005</ele><time>2026-04-11T12:16:03.104Z</time></trkpt><trkpt lat="44.0284715" lon="11.2473902"><ele>461.79999999999995</ele><time>2026-04-11T12:16:05.103Z</time></trkpt><trkpt lat="44.0285549" lon="11.2474898"><ele>460.4</ele><time>2026-04-11T12:16:07.105Z</time></trkpt><trkpt lat="44.0286098" lon="11.247537"><ele>459.0</ele><time>2026-04-11T12:16:08.104Z</time></trkpt><trkpt lat="44.0286948" lon="11.2476208"><ele>462.0</ele><time>2026-04-11T12:16:10.104Z</time></trkpt><trkpt lat="44.0287687" lon="11.2477214"><ele>465.0</ele><time>2026-04-11T12:16:12.105Z</time></trkpt><trkpt lat="44.0288359" lon="11.2478754"><ele>468.0</ele><time>2026-04-11T12:16:14.104Z</time></trkpt><trkpt lat="44.0288965" lon="11.2480006"><ele>471.0</ele><time>2026-04-11T12:16:16.105Z</time></trkpt><trkpt lat="44.0289645" lon="11.248097"><ele>474.0</ele><time>2026-04-11T12:16:18.105Z</time></trkpt><trkpt lat="44.0290443" lon="11.2481378"><ele>474.0</ele><time>2026-04-11T12:16:20.104Z</time></trkpt><trkpt lat="44.0291231" lon="11.2481647"><ele>474.0</ele><time>2026-04-11T12:16:22.104Z</time></trkpt><trkpt lat="44.0291959" lon="11.2481965"><ele>474.0</ele><time>2026-04-11T12:16:24.105Z</time></trkpt><trkpt lat="44.029278" lon="11.2482327"><ele>474.0</ele><time>2026-04-11T12:16:26.105Z</time></trkpt><trkpt lat="44.0293567" lon="11.2482672"><ele>474.0</ele><time>2026-04-11T12:16:28.105Z</time></trkpt><trkpt lat="44.0294461" lon="11.2483221"><ele>474.0</ele><time>2026-04-11T12:16:30.104Z</time></trkpt><trkpt lat="44.029533" lon="11.2483794"><ele>473.4</ele><time>2026-04-11T12:16:32.104Z</time></trkpt><trkpt lat="44.0296088" lon="11.2484277"><ele>472.79999999999995</ele><time>2026-04-11T12:16:34.105Z</time></trkpt><trkpt lat="44.0296873" lon="11.2484758"><ele>472.20000000000005</ele><time>2026-04-11T12:16:36.105Z</time></trkpt><trkpt lat="44.0297653" lon="11.2485289"><ele>471.6</ele><time>2026-04-11T12:16:38.104Z</time></trkpt><trkpt lat="44.0298658" lon="11.2485714"><ele>471.0</ele><time>2026-04-11T12:16:40.104Z</time></trkpt><trkpt lat="44.0299684" lon="11.2485956"><ele>474.20000000000005</ele><time>2026-04-11T12:16:42.105Z</time></trkpt><trkpt lat="44.0300715" lon="11.2486278"><ele>477.40000000000003</ele><time>2026-04-11T12:16:44.104Z</time></trkpt><trkpt lat="44.0301693" lon="11.2486742"><ele>480.6</ele><time>2026-04-11T12:16:46.105Z</time></trkpt><trkpt lat="44.0302561" lon="11.2487243"><ele>483.8</ele><time>2026-04-11T12:16:48.105Z</time></trkpt><trkpt lat="44.0303282" lon="11.2487833"><ele>487.0</ele><time>2026-04-11T12:16:50.105Z</time></trkpt><trkpt lat="44.0304117" lon="11.2488343"><ele>487.0</ele><time>2026-04-11T12:16:52.104Z</time></trkpt><trkpt lat="44.0304966" lon="11.2488602"><ele>487.00000000000006</ele><time>2026-04-11T12:16:54.105Z</time></trkpt><trkpt lat="44.0305907" lon="11.2488651"><ele>487.00000000000006</ele><time>2026-04-11T12:16:56.104Z</time></trkpt><trkpt lat="44.0306711" lon="11.2488836"><ele>487.0</ele><time>2026-04-11T12:16:58.105Z</time></trkpt><trkpt lat="44.0307717" lon="11.2488789"><ele>487.0</ele><time>2026-04-11T12:17:00.105Z</time></trkpt><trkpt lat="44.030877" lon="11.24883"><ele>489.20000000000005</ele><time>2026-04-11T12:17:02.105Z</time></trkpt><trkpt lat="44.0309834" lon="11.2487799"><ele>491.40000000000003</ele><time>2026-04-11T12:17:04.104Z</time></trkpt><trkpt lat="44.0310938" lon="11.2487397"><ele>493.59999999999997</ele><time>2026-04-11T12:17:06.105Z</time></trkpt><trkpt lat="44.0311614" lon="11.2487226"><ele>495.79999999999995</ele><time>2026-04-11T12:17:07.105Z</time></trkpt><trkpt lat="44.0312886" lon="11.2487147"><ele>498.0</ele><time>2026-04-11T12:17:09.105Z</time></trkpt><trkpt lat="44.0313989" lon="11.248727"><ele>498.0</ele><time>2026-04-11T12:17:11.104Z</time></trkpt><trkpt lat="44.031501" lon="11.2487418"><ele>498.0</ele><time>2026-04-11T12:17:13.104Z</time></trkpt><trkpt lat="44.0315648" lon="11.2487478"><ele>498.0</ele><time>2026-04-11T12:17:14.104Z</time></trkpt><trkpt lat="44.0316862" lon="11.2487594"><ele>498.0</ele><time>2026-04-11T12:17:16.104Z</time></trkpt><trkpt lat="44.0317502" lon="11.248748"><ele>498.0</ele><time>2026-04-11T12:17:17.104Z</time></trkpt><trkpt lat="44.0318127" lon="11.2487332"><ele>498.0</ele><time>2026-04-11T12:17:18.103Z</time></trkpt><trkpt lat="44.0319286" lon="11.248687"><ele>498.2</ele><time>2026-04-11T12:17:20.104Z</time></trkpt><trkpt lat="44.0320605" lon="11.2486711"><ele>498.4</ele><time>2026-04-11T12:17:22.104Z</time></trkpt><trkpt lat="44.0321375" lon="11.2486927"><ele>498.59999999999997</ele><time>2026-04-11T12:17:23.103Z</time></trkpt><trkpt lat="44.0322169" lon="11.2487169"><ele>498.79999999999995</ele><time>2026-04-11T12:17:24.104Z</time></trkpt><trkpt lat="44.0322964" lon="11.2487425"><ele>499.0</ele><time>2026-04-11T12:17:25.104Z</time></trkpt><trkpt lat="44.0323743" lon="11.2487568"><ele>499.00000000000006</ele><time>2026-04-11T12:17:26.104Z</time></trkpt><trkpt lat="44.0324439" lon="11.2487626"><ele>499.0</ele><time>2026-04-11T12:17:27.104Z</time></trkpt><trkpt lat="44.0325108" lon="11.2487604"><ele>499.0</ele><time>2026-04-11T12:17:28.104Z</time></trkpt><trkpt lat="44.0326183" lon="11.2487825"><ele>499.0</ele><time>2026-04-11T12:17:30.102Z</time></trkpt><trkpt lat="44.0326987" lon="11.2487864"><ele>499.00000000000006</ele><time>2026-04-11T12:17:33.104Z</time></trkpt><trkpt lat="44.0327731" lon="11.2487819"><ele>499.0</ele><time>2026-04-11T12:17:56.103Z</time></trkpt><trkpt lat="44.0328573" lon="11.2487554"><ele>497.50000000000006</ele><time>2026-04-11T12:17:58.103Z</time></trkpt><trkpt lat="44.0329618" lon="11.2487605"><ele>496.0</ele><time>2026-04-11T12:18:00.103Z</time></trkpt><trkpt lat="44.0330518" lon="11.24884"><ele>494.5</ele><time>2026-04-11T12:18:02.103Z</time></trkpt><trkpt lat="44.0331072" lon="11.2488868"><ele>493.0</ele><time>2026-04-11T12:18:03.104Z</time></trkpt><trkpt lat="44.0331646" lon="11.2489432"><ele>491.50000000000006</ele><time>2026-04-11T12:18:04.103Z</time></trkpt><trkpt lat="44.0332211" lon="11.249024"><ele>490.0</ele><time>2026-04-11T12:18:05.102Z</time></trkpt><trkpt lat="44.0332711" lon="11.2491068"><ele>489.83333333333337</ele><time>2026-04-11T12:18:06.104Z</time></trkpt><trkpt lat="44.0333197" lon="11.2491883"><ele>489.6666666666667</ele><time>2026-04-11T12:18:07.104Z</time></trkpt><trkpt lat="44.0333818" lon="11.2492588"><ele>489.5</ele><time>2026-04-11T12:18:08.103Z</time></trkpt><trkpt lat="44.0334461" lon="11.2493299"><ele>489.33333333333337</ele><time>2026-04-11T12:18:09.103Z</time></trkpt><trkpt lat="44.0335093" lon="11.2493919"><ele>489.1666666666667</ele><time>2026-04-11T12:18:10.104Z</time></trkpt><trkpt lat="44.0335769" lon="11.2494444"><ele>489.0</ele><time>2026-04-11T12:18:11.104Z</time></trkpt><trkpt lat="44.0336505" lon="11.2494968"><ele>489.0</ele><time>2026-04-11T12:18:12.104Z</time></trkpt><trkpt lat="44.0337202" lon="11.2495546"><ele>489.0</ele><time>2026-04-11T12:18:13.103Z</time></trkpt><trkpt lat="44.0337944" lon="11.2496272"><ele>489.0</ele><time>2026-04-11T12:18:14.104Z</time></trkpt><trkpt lat="44.0338711" lon="11.2496899"><ele>489.0</ele><time>2026-04-11T12:18:15.104Z</time></trkpt><trkpt lat="44.033939" lon="11.2497455"><ele>489.0</ele><time>2026-04-11T12:18:16.104Z</time></trkpt><trkpt lat="44.0339982" lon="11.2497925"><ele>489.0</ele><time>2026-04-11T12:18:17.103Z</time></trkpt><trkpt lat="44.0340523" lon="11.2498378"><ele>488.6</ele><time>2026-04-11T12:18:18.103Z</time></trkpt><trkpt lat="44.0341413" lon="11.249934"><ele>488.2</ele><time>2026-04-11T12:18:20.104Z</time></trkpt><trkpt lat="44.0342405" lon="11.2500523"><ele>487.80000000000007</ele><time>2026-04-11T12:18:22.103Z</time></trkpt><trkpt lat="44.0342963" lon="11.250116"><ele>487.40000000000003</ele><time>2026-04-11T12:18:23.104Z</time></trkpt><trkpt lat="44.034355" lon="11.2501834"><ele>487.0</ele><time>2026-04-11T12:18:24.103Z</time></trkpt><trkpt lat="44.0344217" lon="11.2502549"><ele>487.0</ele><time>2026-04-11T12:18:25.102Z</time></trkpt><trkpt lat="44.0344878" lon="11.2503077"><ele>487.0</ele><time>2026-04-11T12:18:26.104Z</time></trkpt><trkpt lat="44.034555" lon="11.2503502"><ele>487.0</ele><time>2026-04-11T12:18:27.104Z</time></trkpt><trkpt lat="44.0346182" lon="11.2503798"><ele>487.0</ele><time>2026-04-11T12:18:28.104Z</time></trkpt><trkpt lat="44.0346823" lon="11.2503832"><ele>487.0</ele><time>2026-04-11T12:18:29.104Z</time></trkpt><trkpt lat="44.0347496" lon="11.2503589"><ele>487.0</ele><time>2026-04-11T12:18:30.104Z</time></trkpt><trkpt lat="44.0348212" lon="11.2503491"><ele>487.0</ele><time>2026-04-11T12:18:31.104Z</time></trkpt><trkpt lat="44.0349768" lon="11.250383"><ele>486.33333333333337</ele><time>2026-04-11T12:18:33.104Z</time></trkpt><trkpt lat="44.0350449" lon="11.2504134"><ele>485.6666666666667</ele><time>2026-04-11T12:18:34.104Z</time></trkpt><trkpt lat="44.0351064" lon="11.2504486"><ele>485.0</ele><time>2026-04-11T12:18:35.103Z</time></trkpt><trkpt lat="44.0351714" lon="11.2505073"><ele>484.33333333333337</ele><time>2026-04-11T12:18:36.104Z</time></trkpt><trkpt lat="44.0352474" lon="11.2505708"><ele>483.6666666666667</ele><time>2026-04-11T12:18:37.104Z</time></trkpt><trkpt lat="44.0353258" lon="11.2506414"><ele>483.0</ele><time>2026-04-11T12:18:38.103Z</time></trkpt><trkpt lat="44.0353918" lon="11.2507125"><ele>483.0</ele><time>2026-04-11T12:18:39.103Z</time></trkpt><trkpt lat="44.0354567" lon="11.2507763"><ele>483.0</ele><time>2026-04-11T12:18:40.104Z</time></trkpt><trkpt lat="44.0355201" lon="11.2508408"><ele>483.0</ele><time>2026-04-11T12:18:41.104Z</time></trkpt><trkpt lat="44.0355905" lon="11.2508951"><ele>483.0</ele><time>2026-04-11T12:18:42.104Z</time></trkpt><trkpt lat="44.0356611" lon="11.2509383"><ele>483.0</ele><time>2026-04-11T12:18:43.104Z</time></trkpt><trkpt lat="44.0357251" lon="11.25099"><ele>483.0</ele><time>2026-04-11T12:18:44.104Z</time></trkpt><trkpt lat="44.0357925" lon="11.2510571"><ele>481.1666666666667</ele><time>2026-04-11T12:18:45.104Z</time></trkpt><trkpt lat="44.0358562" lon="11.2511323"><ele>479.33333333333337</ele><time>2026-04-11T12:18:46.103Z</time></trkpt><trkpt lat="44.0359084" lon="11.2512111"><ele>477.5</ele><time>2026-04-11T12:18:47.103Z</time></trkpt><trkpt lat="44.0359601" lon="11.2513109"><ele>475.6666666666667</ele><time>2026-04-11T12:18:48.103Z</time></trkpt><trkpt lat="44.0360094" lon="11.2514222"><ele>473.83333333333337</ele><time>2026-04-11T12:18:49.104Z</time></trkpt><trkpt lat="44.0360557" lon="11.2515415"><ele>472.0</ele><time>2026-04-11T12:18:50.104Z</time></trkpt><trkpt lat="44.0360953" lon="11.2516567"><ele>472.0</ele><time>2026-04-11T12:18:51.103Z</time></trkpt><trkpt lat="44.0361299" lon="11.25176"><ele>472.0</ele><time>2026-04-11T12:18:52.104Z</time></trkpt><trkpt lat="44.03616" lon="11.2518544"><ele>472.0</ele><time>2026-04-11T12:18:53.103Z</time></trkpt><trkpt lat="44.0361782" lon="11.2519466"><ele>472.0</ele><time>2026-04-11T12:18:54.104Z</time></trkpt><trkpt lat="44.0361863" lon="11.2520423"><ele>472.0</ele><time>2026-04-11T12:18:55.103Z</time></trkpt><trkpt lat="44.0361858" lon="11.2521419"><ele>472.0</ele><time>2026-04-11T12:18:56.103Z</time></trkpt><trkpt lat="44.0361697" lon="11.2522435"><ele>472.0</ele><time>2026-04-11T12:18:57.103Z</time></trkpt><trkpt lat="44.0361381" lon="11.2523417"><ele>471.20000000000005</ele><time>2026-04-11T12:18:58.103Z</time></trkpt><trkpt lat="44.0360918" lon="11.2524514"><ele>470.40000000000003</ele><time>2026-04-11T12:18:59.103Z</time></trkpt><trkpt lat="44.0360396" lon="11.25256"><ele>469.59999999999997</ele><time>2026-04-11T12:19:00.104Z</time></trkpt><trkpt lat="44.0359822" lon="11.252654"><ele>468.79999999999995</ele><time>2026-04-11T12:19:01.104Z</time></trkpt><trkpt lat="44.0359143" lon="11.2527511"><ele>468.0</ele><time>2026-04-11T12:19:02.104Z</time></trkpt><trkpt lat="44.0358505" lon="11.2528414"><ele>467.0</ele><time>2026-04-11T12:19:03.104Z</time></trkpt><trkpt lat="44.0357974" lon="11.2529262"><ele>466.0</ele><time>2026-04-11T12:19:04.104Z</time></trkpt><trkpt lat="44.035758" lon="11.2530225"><ele>465.0</ele><time>2026-04-11T12:19:05.104Z</time></trkpt><trkpt lat="44.035729" lon="11.2531311"><ele>464.0</ele><time>2026-04-11T12:19:06.103Z</time></trkpt><trkpt lat="44.0357131" lon="11.2532591"><ele>463.0</ele><time>2026-04-11T12:19:07.103Z</time></trkpt><trkpt lat="44.035692" lon="11.2533835"><ele>462.0</ele><time>2026-04-11T12:19:08.103Z</time></trkpt><trkpt lat="44.0356595" lon="11.2535374"><ele>462.0</ele><time>2026-04-11T12:19:09.104Z</time></trkpt><trkpt lat="44.0356453" lon="11.2536859"><ele>462.00000000000006</ele><time>2026-04-11T12:19:10.103Z</time></trkpt><trkpt lat="44.0356438" lon="11.2538218"><ele>462.00000000000006</ele><time>2026-04-11T12:19:11.103Z</time></trkpt><trkpt lat="44.035637" lon="11.253964"><ele>462.0</ele><time>2026-04-11T12:19:12.104Z</time></trkpt><trkpt lat="44.0356329" lon="11.2541067"><ele>462.0</ele><time>2026-04-11T12:19:13.104Z</time></trkpt><trkpt lat="44.0356327" lon="11.2542507"><ele>463.40000000000003</ele><time>2026-04-11T12:19:14.104Z</time></trkpt><trkpt lat="44.0356334" lon="11.25438"><ele>464.80000000000007</ele><time>2026-04-11T12:19:15.104Z</time></trkpt><trkpt lat="44.0356344" lon="11.254511"><ele>466.2</ele><time>2026-04-11T12:19:16.103Z</time></trkpt><trkpt lat="44.0356296" lon="11.254642"><ele>467.6</ele><time>2026-04-11T12:19:17.104Z</time></trkpt><trkpt lat="44.0356249" lon="11.2547755"><ele>469.0</ele><time>2026-04-11T12:19:18.104Z</time></trkpt><trkpt lat="44.0356268" lon="11.2549131"><ele>469.0</ele><time>2026-04-11T12:19:19.104Z</time></trkpt><trkpt lat="44.0356293" lon="11.2550495"><ele>469.0</ele><time>2026-04-11T12:19:20.104Z</time></trkpt><trkpt lat="44.035631" lon="11.2551844"><ele>469.0</ele><time>2026-04-11T12:19:21.103Z</time></trkpt><trkpt lat="44.0356357" lon="11.2553182"><ele>469.0</ele><time>2026-04-11T12:19:22.104Z</time></trkpt><trkpt lat="44.0356405" lon="11.2554505"><ele>469.0</ele><time>2026-04-11T12:19:23.104Z</time></trkpt><trkpt lat="44.0356406" lon="11.2555781"><ele>469.1666666666667</ele><time>2026-04-11T12:19:24.104Z</time></trkpt><trkpt lat="44.0356376" lon="11.2557104"><ele>469.33333333333337</ele><time>2026-04-11T12:19:25.102Z</time></trkpt><trkpt lat="44.035641" lon="11.2558309"><ele>469.5</ele><time>2026-04-11T12:19:26.104Z</time></trkpt><trkpt lat="44.0356539" lon="11.2559464"><ele>469.66666666666663</ele><time>2026-04-11T12:19:27.103Z</time></trkpt><trkpt lat="44.0356717" lon="11.2560489"><ele>469.8333333333333</ele><time>2026-04-11T12:19:28.102Z</time></trkpt><trkpt lat="44.0356982" lon="11.2561404"><ele>470.0</ele><time>2026-04-11T12:19:29.103Z</time></trkpt><trkpt lat="44.0357723" lon="11.2562736"><ele>472.8</ele><time>2026-04-11T12:19:31.104Z</time></trkpt><trkpt lat="44.035825" lon="11.2563266"><ele>475.6</ele><time>2026-04-11T12:19:32.104Z</time></trkpt><trkpt lat="44.0359116" lon="11.2563908"><ele>478.4</ele><time>2026-04-11T12:19:34.103Z</time></trkpt><trkpt lat="44.0360178" lon="11.2564424"><ele>481.2</ele><time>2026-04-11T12:19:36.102Z</time></trkpt><trkpt lat="44.0361394" lon="11.2564754"><ele>484.0</ele><time>2026-04-11T12:19:38.103Z</time></trkpt><trkpt lat="44.0362069" lon="11.2564824"><ele>484.00000000000006</ele><time>2026-04-11T12:19:39.104Z</time></trkpt><trkpt lat="44.0362748" lon="11.2564735"><ele>484.0</ele><time>2026-04-11T12:19:40.104Z</time></trkpt><trkpt lat="44.0363415" lon="11.2564457"><ele>484.0</ele><time>2026-04-11T12:19:41.103Z</time></trkpt><trkpt lat="44.0364138" lon="11.2564117"><ele>484.0</ele><time>2026-04-11T12:19:42.103Z</time></trkpt><trkpt lat="44.0364901" lon="11.2563736"><ele>484.00000000000006</ele><time>2026-04-11T12:19:43.104Z</time></trkpt><trkpt lat="44.0365702" lon="11.2563417"><ele>484.0</ele><time>2026-04-11T12:19:44.104Z</time></trkpt><trkpt lat="44.0366531" lon="11.2563249"><ele>485.00000000000006</ele><time>2026-04-11T12:19:45.104Z</time></trkpt><trkpt lat="44.0367351" lon="11.2563356"><ele>486.0</ele><time>2026-04-11T12:19:46.104Z</time></trkpt><trkpt lat="44.0368169" lon="11.2563581"><ele>487.0</ele><time>2026-04-11T12:19:47.103Z</time></trkpt><trkpt lat="44.0368924" lon="11.2563912"><ele>488.0</ele><time>2026-04-11T12:19:48.102Z</time></trkpt><trkpt lat="44.0369685" lon="11.256428"><ele>489.00000000000006</ele><time>2026-04-11T12:19:49.104Z</time></trkpt><trkpt lat="44.0370399" lon="11.256475"><ele>490.0</ele><time>2026-04-11T12:19:50.104Z</time></trkpt><trkpt lat="44.0371124" lon="11.2565292"><ele>490.83333333333337</ele><time>2026-04-11T12:19:51.104Z</time></trkpt><trkpt lat="44.0371804" lon="11.2565833"><ele>491.6666666666667</ele><time>2026-04-11T12:19:52.104Z</time></trkpt><trkpt lat="44.0372513" lon="11.2566367"><ele>492.5</ele><time>2026-04-11T12:19:53.104Z</time></trkpt><trkpt lat="44.037328" lon="11.2566953"><ele>493.33333333333337</ele><time>2026-04-11T12:19:54.104Z</time></trkpt><trkpt lat="44.0374073" lon="11.2567508"><ele>494.1666666666667</ele><time>2026-04-11T12:19:55.103Z</time></trkpt><trkpt lat="44.0374906" lon="11.2567949"><ele>495.0</ele><time>2026-04-11T12:19:56.104Z</time></trkpt><trkpt lat="44.037577" lon="11.2568259"><ele>496.1666666666667</ele><time>2026-04-11T12:19:57.104Z</time></trkpt><trkpt lat="44.0376561" lon="11.2568551"><ele>497.33333333333337</ele><time>2026-04-11T12:19:58.103Z</time></trkpt><trkpt lat="44.0377265" lon="11.256898"><ele>498.5</ele><time>2026-04-11T12:19:59.104Z</time></trkpt><trkpt lat="44.0377943" lon="11.2569597"><ele>499.6666666666667</ele><time>2026-04-11T12:20:00.104Z</time></trkpt><trkpt lat="44.0378587" lon="11.2570399"><ele>500.83333333333337</ele><time>2026-04-11T12:20:01.103Z</time></trkpt><trkpt lat="44.0379252" lon="11.2571188"><ele>502.0</ele><time>2026-04-11T12:20:02.104Z</time></trkpt><trkpt lat="44.0380067" lon="11.2571872"><ele>502.0</ele><time>2026-04-11T12:20:03.104Z</time></trkpt><trkpt lat="44.0380978" lon="11.2572406"><ele>502.00000000000006</ele><time>2026-04-11T12:20:04.103Z</time></trkpt><trkpt lat="44.0381919" lon="11.2572858"><ele>502.00000000000006</ele><time>2026-04-11T12:20:05.104Z</time></trkpt><trkpt lat="44.0382893" lon="11.2573148"><ele>502.0</ele><time>2026-04-11T12:20:06.104Z</time></trkpt><trkpt lat="44.0383834" lon="11.257333"><ele>502.0</ele><time>2026-04-11T12:20:07.103Z</time></trkpt><trkpt lat="44.0384689" lon="11.2573414"><ele>503.33333333333337</ele><time>2026-04-11T12:20:08.104Z</time></trkpt><trkpt lat="44.0385616" lon="11.2573483"><ele>504.6666666666667</ele><time>2026-04-11T12:20:09.104Z</time></trkpt><trkpt lat="44.0386385" lon="11.2573547"><ele>506.0</ele><time>2026-04-11T12:20:10.104Z</time></trkpt><trkpt lat="44.0387247" lon="11.2573545"><ele>507.33333333333337</ele><time>2026-04-11T12:20:11.103Z</time></trkpt><trkpt lat="44.0388094" lon="11.2573339"><ele>508.6666666666667</ele><time>2026-04-11T12:20:12.104Z</time></trkpt><trkpt lat="44.0388898" lon="11.2572936"><ele>510.0</ele><time>2026-04-11T12:20:13.104Z</time></trkpt><trkpt lat="44.0389719" lon="11.257239"><ele>507.7142857142857</ele><time>2026-04-11T12:20:14.104Z</time></trkpt><trkpt lat="44.0390485" lon="11.2571905"><ele>505.42857142857144</ele><time>2026-04-11T12:20:15.104Z</time></trkpt><trkpt lat="44.0391243" lon="11.2571488"><ele>503.14285714285717</ele><time>2026-04-11T12:20:16.103Z</time></trkpt><trkpt lat="44.039194" lon="11.2571322"><ele>500.8571428571429</ele><time>2026-04-11T12:20:17.103Z</time></trkpt><trkpt lat="44.0392664" lon="11.2571354"><ele>498.57142857142856</ele><time>2026-04-11T12:20:18.104Z</time></trkpt><trkpt lat="44.0393295" lon="11.2571608"><ele>496.28571428571433</ele><time>2026-04-11T12:20:19.104Z</time></trkpt><trkpt lat="44.0393959" lon="11.2571999"><ele>494.0</ele><time>2026-04-11T12:20:20.103Z</time></trkpt><trkpt lat="44.0394591" lon="11.2572492"><ele>496.16666666666663</ele><time>2026-04-11T12:20:21.103Z</time></trkpt><trkpt lat="44.0395157" lon="11.2573083"><ele>498.3333333333333</ele><time>2026-04-11T12:20:22.104Z</time></trkpt><trkpt lat="44.0395703" lon="11.2573701"><ele>500.5</ele><time>2026-04-11T12:20:23.104Z</time></trkpt><trkpt lat="44.0396122" lon="11.2574505"><ele>502.66666666666663</ele><time>2026-04-11T12:20:24.103Z</time></trkpt><trkpt lat="44.0396555" lon="11.2575412"><ele>504.8333333333333</ele><time>2026-04-11T12:20:25.103Z</time></trkpt><trkpt lat="44.0396948" lon="11.2576393"><ele>507.0</ele><time>2026-04-11T12:20:26.104Z</time></trkpt><trkpt lat="44.0397347" lon="11.2577354"><ele>507.0</ele><time>2026-04-11T12:20:27.103Z</time></trkpt><trkpt lat="44.0397834" lon="11.2578414"><ele>507.00000000000006</ele><time>2026-04-11T12:20:28.103Z</time></trkpt><trkpt lat="44.0398337" lon="11.2579592"><ele>507.00000000000006</ele><time>2026-04-11T12:20:29.104Z</time></trkpt><trkpt lat="44.0398801" lon="11.2580708"><ele>507.0</ele><time>2026-04-11T12:20:30.103Z</time></trkpt><trkpt lat="44.039925" lon="11.2581846"><ele>507.0</ele><time>2026-04-11T12:20:31.104Z</time></trkpt><trkpt lat="44.0399712" lon="11.2582918"><ele>504.8333333333333</ele><time>2026-04-11T12:20:32.104Z</time></trkpt><trkpt lat="44.0400204" lon="11.2583812"><ele>502.66666666666663</ele><time>2026-04-11T12:20:33.104Z</time></trkpt><trkpt lat="44.0400765" lon="11.2584601"><ele>500.5</ele><time>2026-04-11T12:20:34.104Z</time></trkpt><trkpt lat="44.0401404" lon="11.2585279"><ele>498.3333333333333</ele><time>2026-04-11T12:20:35.103Z</time></trkpt><trkpt lat="44.0402201" lon="11.2585792"><ele>496.16666666666663</ele><time>2026-04-11T12:20:36.104Z</time></trkpt><trkpt lat="44.0403135" lon="11.2586178"><ele>494.0</ele><time>2026-04-11T12:20:37.104Z</time></trkpt><trkpt lat="44.0404038" lon="11.2586341"><ele>494.0</ele><time>2026-04-11T12:20:38.103Z</time></trkpt><trkpt lat="44.0404954" lon="11.2586483"><ele>494.0</ele><time>2026-04-11T12:20:39.104Z</time></trkpt><trkpt lat="44.0405962" lon="11.2586651"><ele>494.0</ele><time>2026-04-11T12:20:40.104Z</time></trkpt><trkpt lat="44.0407038" lon="11.2586796"><ele>494.0</ele><time>2026-04-11T12:20:41.103Z</time></trkpt><trkpt lat="44.0408197" lon="11.2586881"><ele>494.0</ele><time>2026-04-11T12:20:42.103Z</time></trkpt><trkpt lat="44.0409427" lon="11.258699"><ele>492.75</ele><time>2026-04-11T12:20:43.104Z</time></trkpt><trkpt lat="44.0410704" lon="11.2587142"><ele>491.5</ele><time>2026-04-11T12:20:44.104Z</time></trkpt><trkpt lat="44.0411984" lon="11.2587259"><ele>490.25</ele><time>2026-04-11T12:20:45.103Z</time></trkpt><trkpt lat="44.0413147" lon="11.2587394"><ele>489.0</ele><time>2026-04-11T12:20:46.103Z</time></trkpt><trkpt lat="44.0414245" lon="11.2587526"><ele>489.0</ele><time>2026-04-11T12:20:47.104Z</time></trkpt><trkpt lat="44.0415352" lon="11.2587647"><ele>489.0</ele><time>2026-04-11T12:20:48.104Z</time></trkpt><trkpt lat="44.0416449" lon="11.2587883"><ele>489.0</ele><time>2026-04-11T12:20:49.103Z</time></trkpt><trkpt lat="44.0417577" lon="11.2588237"><ele>489.0</ele><time>2026-04-11T12:20:50.103Z</time></trkpt><trkpt lat="44.0418551" lon="11.2588612"><ele>489.0</ele><time>2026-04-11T12:20:51.104Z</time></trkpt><trkpt lat="44.0419417" lon="11.2588992"><ele>488.6666666666667</ele><time>2026-04-11T12:20:52.104Z</time></trkpt><trkpt lat="44.0420255" lon="11.2589269"><ele>488.33333333333337</ele><time>2026-04-11T12:20:53.103Z</time></trkpt><trkpt lat="44.0420941" lon="11.2589553"><ele>488.0</ele><time>2026-04-11T12:20:54.104Z</time></trkpt><trkpt lat="44.0421585" lon="11.2589839"><ele>487.6666666666667</ele><time>2026-04-11T12:20:55.104Z</time></trkpt><trkpt lat="44.0422668" lon="11.2590247"><ele>487.33333333333337</ele><time>2026-04-11T12:20:57.103Z</time></trkpt><trkpt lat="44.0423509" lon="11.2590463"><ele>487.0</ele><time>2026-04-11T12:20:59.103Z</time></trkpt><trkpt lat="44.0424391" lon="11.2590629"><ele>488.20000000000005</ele><time>2026-04-11T12:21:02.103Z</time></trkpt><trkpt lat="44.0425329" lon="11.2590881"><ele>489.40000000000003</ele><time>2026-04-11T12:21:05.104Z</time></trkpt><trkpt lat="44.0426055" lon="11.2590848"><ele>490.59999999999997</ele><time>2026-04-11T12:21:06.104Z</time></trkpt><trkpt lat="44.0426865" lon="11.2590658"><ele>491.79999999999995</ele><time>2026-04-11T12:21:07.103Z</time></trkpt><trkpt lat="44.0427875" lon="11.2590432"><ele>493.0</ele><time>2026-04-11T12:21:08.104Z</time></trkpt><trkpt lat="44.0429095" lon="11.2590187"><ele>493.0</ele><time>2026-04-11T12:21:09.104Z</time></trkpt><trkpt lat="44.0430393" lon="11.2589957"><ele>493.0</ele><time>2026-04-11T12:21:10.103Z</time></trkpt><trkpt lat="44.0431887" lon="11.2589744"><ele>493.0</ele><time>2026-04-11T12:21:11.104Z</time></trkpt><trkpt lat="44.0433545" lon="11.2589584"><ele>493.0</ele><time>2026-04-11T12:21:12.104Z</time></trkpt><trkpt lat="44.0435266" lon="11.2589503"><ele>491.0</ele><time>2026-04-11T12:21:13.104Z</time></trkpt><trkpt lat="44.0437048" lon="11.2589331"><ele>489.0</ele><time>2026-04-11T12:21:14.104Z</time></trkpt><trkpt lat="44.0438909" lon="11.2588933"><ele>487.0</ele><time>2026-04-11T12:21:15.103Z</time></trkpt><trkpt lat="44.0440749" lon="11.2588473"><ele>488.6666666666667</ele><time>2026-04-11T12:21:16.104Z</time></trkpt><trkpt lat="44.044264" lon="11.2587912"><ele>490.33333333333337</ele><time>2026-04-11T12:21:17.104Z</time></trkpt><trkpt lat="44.0444543" lon="11.2587305"><ele>492.0</ele><time>2026-04-11T12:21:18.104Z</time></trkpt><trkpt lat="44.0446323" lon="11.2586769"><ele>492.0</ele><time>2026-04-11T12:21:19.103Z</time></trkpt><trkpt lat="44.044793" lon="11.2586303"><ele>492.0</ele><time>2026-04-11T12:21:20.103Z</time></trkpt><trkpt lat="44.0449405" lon="11.2585858"><ele>492.0</ele><time>2026-04-11T12:21:21.104Z</time></trkpt><trkpt lat="44.0450853" lon="11.2585425"><ele>494.75</ele><time>2026-04-11T12:21:22.103Z</time></trkpt><trkpt lat="44.045222" lon="11.2585053"><ele>497.5</ele><time>2026-04-11T12:21:23.104Z</time></trkpt><trkpt lat="44.0453513" lon="11.2584675"><ele>500.25</ele><time>2026-04-11T12:21:24.104Z</time></trkpt><trkpt lat="44.0454891" lon="11.2584177"><ele>503.0</ele><time>2026-04-11T12:21:25.103Z</time></trkpt><trkpt lat="44.0456311" lon="11.2583452"><ele>503.0</ele><time>2026-04-11T12:21:26.104Z</time></trkpt><trkpt lat="44.0457668" lon="11.2582706"><ele>503.0</ele><time>2026-04-11T12:21:27.103Z</time></trkpt><trkpt lat="44.0458974" lon="11.2582045"><ele>503.0</ele><time>2026-04-11T12:21:28.104Z</time></trkpt><trkpt lat="44.0460216" lon="11.2581503"><ele>503.0</ele><time>2026-04-11T12:21:29.104Z</time></trkpt><trkpt lat="44.0461537" lon="11.2581461"><ele>505.3333333333333</ele><time>2026-04-11T12:21:30.103Z</time></trkpt><trkpt lat="44.046292" lon="11.2582135"><ele>507.66666666666663</ele><time>2026-04-11T12:21:31.104Z</time></trkpt><trkpt lat="44.0464149" lon="11.2583497"><ele>510.0</ele><time>2026-04-11T12:21:32.103Z</time></trkpt><trkpt lat="44.046529" lon="11.2585026"><ele>508.33333333333337</ele><time>2026-04-11T12:21:33.104Z</time></trkpt><trkpt lat="44.0466469" lon="11.2586398"><ele>506.6666666666667</ele><time>2026-04-11T12:21:34.104Z</time></trkpt><trkpt lat="44.0467674" lon="11.2587722"><ele>505.0</ele><time>2026-04-11T12:21:35.103Z</time></trkpt><trkpt lat="44.0468947" lon="11.258899"><ele>509.6666666666667</ele><time>2026-04-11T12:21:36.103Z</time></trkpt><trkpt lat="44.0470201" lon="11.2590317"><ele>514.3333333333334</ele><time>2026-04-11T12:21:37.104Z</time></trkpt><trkpt lat="44.0471439" lon="11.2591648"><ele>519.0</ele><time>2026-04-11T12:21:38.104Z</time></trkpt><trkpt lat="44.047271" lon="11.2592982"><ele>519.0</ele><time>2026-04-11T12:21:39.104Z</time></trkpt><trkpt lat="44.0474018" lon="11.2594302"><ele>519.0</ele><time>2026-04-11T12:21:40.104Z</time></trkpt><trkpt lat="44.0475322" lon="11.2595565"><ele>519.0</ele><time>2026-04-11T12:21:41.104Z</time></trkpt><trkpt lat="44.0476626" lon="11.2596814"><ele>516.3333333333334</ele><time>2026-04-11T12:21:42.104Z</time></trkpt><trkpt lat="44.0477952" lon="11.2598092"><ele>513.6666666666667</ele><time>2026-04-11T12:21:43.104Z</time></trkpt><trkpt lat="44.0479224" lon="11.2599453"><ele>511.0</ele><time>2026-04-11T12:21:44.104Z</time></trkpt><trkpt lat="44.0480253" lon="11.2600893"><ele>511.0</ele><time>2026-04-11T12:21:45.103Z</time></trkpt><trkpt lat="44.048124" lon="11.2602374"><ele>511.0</ele><time>2026-04-11T12:21:46.103Z</time></trkpt><trkpt lat="44.0482311" lon="11.2603817"><ele>511.0</ele><time>2026-04-11T12:21:47.103Z</time></trkpt><trkpt lat="44.0483332" lon="11.2605061"><ele>511.0</ele><time>2026-04-11T12:21:48.103Z</time></trkpt><trkpt lat="44.0484335" lon="11.2606211"><ele>512.75</ele><time>2026-04-11T12:21:49.103Z</time></trkpt><trkpt lat="44.0485383" lon="11.2607393"><ele>514.5</ele><time>2026-04-11T12:21:50.104Z</time></trkpt><trkpt lat="44.0486481" lon="11.2608517"><ele>516.25</ele><time>2026-04-11T12:21:51.104Z</time></trkpt><trkpt lat="44.0487675" lon="11.2609546"><ele>518.0</ele><time>2026-04-11T12:21:52.103Z</time></trkpt><trkpt lat="44.0488978" lon="11.2610459"><ele>518.0</ele><time>2026-04-11T12:21:53.103Z</time></trkpt><trkpt lat="44.0490509" lon="11.2611022"><ele>518.0</ele><time>2026-04-11T12:21:54.103Z</time></trkpt><trkpt lat="44.0492088" lon="11.2611614"><ele>518.0</ele><time>2026-04-11T12:21:55.103Z</time></trkpt><trkpt lat="44.0493657" lon="11.2612186"><ele>516.6666666666666</ele><time>2026-04-11T12:21:56.103Z</time></trkpt><trkpt lat="44.0495229" lon="11.2612669"><ele>515.3333333333334</ele><time>2026-04-11T12:21:57.104Z</time></trkpt><trkpt lat="44.0496873" lon="11.2613025"><ele>514.0</ele><time>2026-04-11T12:21:58.104Z</time></trkpt><trkpt lat="44.0498552" lon="11.2613212"><ele>514.6666666666667</ele><time>2026-04-11T12:21:59.104Z</time></trkpt><trkpt lat="44.0500166" lon="11.2613253"><ele>515.3333333333334</ele><time>2026-04-11T12:22:00.103Z</time></trkpt><trkpt lat="44.0501743" lon="11.2613224"><ele>516.0</ele><time>2026-04-11T12:22:01.103Z</time></trkpt><trkpt lat="44.0503154" lon="11.261308"><ele>516.0</ele><time>2026-04-11T12:22:02.104Z</time></trkpt><trkpt lat="44.0504441" lon="11.2612866"><ele>516.0</ele><time>2026-04-11T12:22:03.104Z</time></trkpt><trkpt lat="44.0505702" lon="11.2612572"><ele>516.0</ele><time>2026-04-11T12:22:04.103Z</time></trkpt><trkpt lat="44.0507002" lon="11.2612205"><ele>516.0</ele><time>2026-04-11T12:22:05.104Z</time></trkpt><trkpt lat="44.0508137" lon="11.2611808"><ele>516.4</ele><time>2026-04-11T12:22:06.104Z</time></trkpt><trkpt lat="44.0509218" lon="11.2611378"><ele>516.8</ele><time>2026-04-11T12:22:07.103Z</time></trkpt><trkpt lat="44.0510289" lon="11.2610962"><ele>517.1999999999999</ele><time>2026-04-11T12:22:08.104Z</time></trkpt><trkpt lat="44.0511364" lon="11.2610585"><ele>517.6</ele><time>2026-04-11T12:22:09.103Z</time></trkpt><trkpt lat="44.0512468" lon="11.2610181"><ele>518.0</ele><time>2026-04-11T12:22:10.102Z</time></trkpt><trkpt lat="44.0513566" lon="11.2609777"><ele>518.0</ele><time>2026-04-11T12:22:11.102Z</time></trkpt><trkpt lat="44.0514699" lon="11.2609348"><ele>518.0</ele><time>2026-04-11T12:22:12.102Z</time></trkpt><trkpt lat="44.0515903" lon="11.2608855"><ele>518.0</ele><time>2026-04-11T12:22:13.102Z</time></trkpt><trkpt lat="44.0517092" lon="11.2608357"><ele>518.0</ele><time>2026-04-11T12:22:14.103Z</time></trkpt><trkpt lat="44.0518203" lon="11.2607927"><ele>518.75</ele><time>2026-04-11T12:22:15.102Z</time></trkpt><trkpt lat="44.0519428" lon="11.2607443"><ele>519.5</ele><time>2026-04-11T12:22:16.103Z</time></trkpt><trkpt lat="44.0520748" lon="11.2606935"><ele>520.25</ele><time>2026-04-11T12:22:17.103Z</time></trkpt><trkpt lat="44.0522103" lon="11.2606544"><ele>521.0</ele><time>2026-04-11T12:22:18.102Z</time></trkpt><trkpt lat="44.0523345" lon="11.2606341"><ele>519.5</ele><time>2026-04-11T12:22:19.102Z</time></trkpt><trkpt lat="44.0524485" lon="11.2606092"><ele>518.0</ele><time>2026-04-11T12:22:20.103Z</time></trkpt><trkpt lat="44.0525504" lon="11.2606059"><ele>516.5</ele><time>2026-04-11T12:22:21.103Z</time></trkpt><trkpt lat="44.0526613" lon="11.2606389"><ele>515.0</ele><time>2026-04-11T12:22:22.103Z</time></trkpt><trkpt lat="44.0527786" lon="11.2606904"><ele>518.25</ele><time>2026-04-11T12:22:23.102Z</time></trkpt><trkpt lat="44.0528935" lon="11.2607655"><ele>521.5</ele><time>2026-04-11T12:22:24.102Z</time></trkpt><trkpt lat="44.053003" lon="11.2608604"><ele>524.75</ele><time>2026-04-11T12:22:25.102Z</time></trkpt><trkpt lat="44.0531246" lon="11.2609671"><ele>528.0</ele><time>2026-04-11T12:22:26.103Z</time></trkpt><trkpt lat="44.0532565" lon="11.2610783"><ele>527.6666666666666</ele><time>2026-04-11T12:22:27.102Z</time></trkpt><trkpt lat="44.0533859" lon="11.2611928"><ele>527.3333333333333</ele><time>2026-04-11T12:22:28.103Z</time></trkpt><trkpt lat="44.0535272" lon="11.2613146"><ele>527.0</ele><time>2026-04-11T12:22:29.103Z</time></trkpt><trkpt lat="44.0536821" lon="11.261429"><ele>529.3333333333333</ele><time>2026-04-11T12:22:30.102Z</time></trkpt><trkpt lat="44.0538543" lon="11.2615282"><ele>531.6666666666666</ele><time>2026-04-11T12:22:31.103Z</time></trkpt><trkpt lat="44.0540375" lon="11.2616134"><ele>534.0</ele><time>2026-04-11T12:22:32.102Z</time></trkpt><trkpt lat="44.0542285" lon="11.2616844"><ele>534.0</ele><time>2026-04-11T12:22:33.103Z</time></trkpt><trkpt lat="44.0544301" lon="11.261762"><ele>534.0</ele><time>2026-04-11T12:22:34.103Z</time></trkpt><trkpt lat="44.0546407" lon="11.2618439"><ele>534.0</ele><time>2026-04-11T12:22:35.103Z</time></trkpt><trkpt lat="44.0548496" lon="11.2619271"><ele>532.6666666666666</ele><time>2026-04-11T12:22:36.101Z</time></trkpt><trkpt lat="44.0550492" lon="11.2620057"><ele>531.3333333333333</ele><time>2026-04-11T12:22:37.102Z</time></trkpt><trkpt lat="44.0552478" lon="11.2620831"><ele>530.0</ele><time>2026-04-11T12:22:38.102Z</time></trkpt><trkpt lat="44.0554284" lon="11.2621556"><ele>530.0</ele><time>2026-04-11T12:22:39.102Z</time></trkpt><trkpt lat="44.0556042" lon="11.2622253"><ele>530.0</ele><time>2026-04-11T12:22:40.102Z</time></trkpt><trkpt lat="44.0557772" lon="11.2622917"><ele>530.0</ele><time>2026-04-11T12:22:41.102Z</time></trkpt><trkpt lat="44.0559424" lon="11.2623577"><ele>533.0</ele><time>2026-04-11T12:22:42.102Z</time></trkpt><trkpt lat="44.0561037" lon="11.2624399"><ele>536.0</ele><time>2026-04-11T12:22:43.102Z</time></trkpt><trkpt lat="44.0562351" lon="11.2625768"><ele>539.0</ele><time>2026-04-11T12:22:44.103Z</time></trkpt><trkpt lat="44.0563474" lon="11.2627071"><ele>539.0</ele><time>2026-04-11T12:22:45.103Z</time></trkpt><trkpt lat="44.0564771" lon="11.262801"><ele>539.0</ele><time>2026-04-11T12:22:46.102Z</time></trkpt><trkpt lat="44.0566048" lon="11.2628261"><ele>539.0</ele><time>2026-04-11T12:22:47.102Z</time></trkpt><trkpt lat="44.0567295" lon="11.2627781"><ele>539.0</ele><time>2026-04-11T12:22:48.101Z</time></trkpt><trkpt lat="44.0568601" lon="11.262691"><ele>541.25</ele><time>2026-04-11T12:22:49.103Z</time></trkpt><trkpt lat="44.0569857" lon="11.2626107"><ele>543.5</ele><time>2026-04-11T12:22:50.103Z</time></trkpt><trkpt lat="44.0571197" lon="11.2625224"><ele>545.75</ele><time>2026-04-11T12:22:51.103Z</time></trkpt><trkpt lat="44.0572586" lon="11.262466"><ele>548.0</ele><time>2026-04-11T12:22:52.102Z</time></trkpt><trkpt lat="44.0574146" lon="11.2624671"><ele>550.3333333333333</ele><time>2026-04-11T12:22:53.101Z</time></trkpt><trkpt lat="44.0575763" lon="11.2625233"><ele>552.6666666666666</ele><time>2026-04-11T12:22:54.102Z</time></trkpt><trkpt lat="44.0577353" lon="11.2626144"><ele>555.0</ele><time>2026-04-11T12:22:55.103Z</time></trkpt><trkpt lat="44.0578962" lon="11.2627315"><ele>555.0</ele><time>2026-04-11T12:22:56.103Z</time></trkpt><trkpt lat="44.0580645" lon="11.2628684"><ele>555.0</ele><time>2026-04-11T12:22:57.103Z</time></trkpt><trkpt lat="44.0582429" lon="11.2629861"><ele>555.0</ele><time>2026-04-11T12:22:58.102Z</time></trkpt><trkpt lat="44.0584367" lon="11.2630476"><ele>556.0</ele><time>2026-04-11T12:22:59.103Z</time></trkpt><trkpt lat="44.0586418" lon="11.26306"><ele>557.0</ele><time>2026-04-11T12:23:00.103Z</time></trkpt><trkpt lat="44.0588452" lon="11.2630542"><ele>558.0</ele><time>2026-04-11T12:23:01.103Z</time></trkpt><trkpt lat="44.0590606" lon="11.2630467"><ele>560.0</ele><time>2026-04-11T12:23:02.102Z</time></trkpt><trkpt lat="44.059276" lon="11.2630417"><ele>562.0</ele><time>2026-04-11T12:23:03.103Z</time></trkpt><trkpt lat="44.0594794" lon="11.2630396"><ele>564.0</ele><time>2026-04-11T12:23:04.103Z</time></trkpt><trkpt lat="44.0596913" lon="11.2630383"><ele>564.0</ele><time>2026-04-11T12:23:05.103Z</time></trkpt><trkpt lat="44.0598896" lon="11.2630424"><ele>564.0</ele><time>2026-04-11T12:23:06.103Z</time></trkpt><trkpt lat="44.0600888" lon="11.2630504"><ele>564.0</ele><time>2026-04-11T12:23:07.103Z</time></trkpt><trkpt lat="44.0602891" lon="11.2630648"><ele>566.6666666666666</ele><time>2026-04-11T12:23:08.103Z</time></trkpt><trkpt lat="44.0604924" lon="11.2630838"><ele>569.3333333333333</ele><time>2026-04-11T12:23:09.103Z</time></trkpt><trkpt lat="44.0606974" lon="11.2631112"><ele>572.0</ele><time>2026-04-11T12:23:10.103Z</time></trkpt><trkpt lat="44.0609014" lon="11.2631655"><ele>572.0</ele><time>2026-04-11T12:23:11.102Z</time></trkpt><trkpt lat="44.0610896" lon="11.2632573"><ele>572.0</ele><time>2026-04-11T12:23:12.103Z</time></trkpt><trkpt lat="44.0612684" lon="11.2633673"><ele>572.0</ele><time>2026-04-11T12:23:13.103Z</time></trkpt><trkpt lat="44.0614492" lon="11.2634835"><ele>573.6666666666666</ele><time>2026-04-11T12:23:14.102Z</time></trkpt><trkpt lat="44.0616333" lon="11.2636043"><ele>575.3333333333334</ele><time>2026-04-11T12:23:15.103Z</time></trkpt><trkpt lat="44.0618199" lon="11.2637285"><ele>577.0</ele><time>2026-04-11T12:23:16.103Z</time></trkpt><trkpt lat="44.0620041" lon="11.263849"><ele>577.3333333333334</ele><time>2026-04-11T12:23:17.103Z</time></trkpt><trkpt lat="44.0621722" lon="11.2639546"><ele>577.6666666666666</ele><time>2026-04-11T12:23:18.103Z</time></trkpt><trkpt lat="44.0623323" lon="11.2640493"><ele>578.0</ele><time>2026-04-11T12:23:19.103Z</time></trkpt><trkpt lat="44.0624994" lon="11.2641437"><ele>581.6666666666666</ele><time>2026-04-11T12:23:20.103Z</time></trkpt><trkpt lat="44.0626667" lon="11.2642436"><ele>585.3333333333334</ele><time>2026-04-11T12:23:21.103Z</time></trkpt><trkpt lat="44.0628302" lon="11.2643571"><ele>589.0</ele><time>2026-04-11T12:23:22.103Z</time></trkpt><trkpt lat="44.0629785" lon="11.2644942"><ele>589.0</ele><time>2026-04-11T12:23:23.102Z</time></trkpt><trkpt lat="44.0631136" lon="11.2646718"><ele>589.0</ele><time>2026-04-11T12:23:24.103Z</time></trkpt><trkpt lat="44.0632233" lon="11.2648851"><ele>589.0</ele><time>2026-04-11T12:23:25.102Z</time></trkpt><trkpt lat="44.0633128" lon="11.2651089"><ele>593.0</ele><time>2026-04-11T12:23:26.103Z</time></trkpt><trkpt lat="44.0634034" lon="11.265341"><ele>597.0</ele><time>2026-04-11T12:23:27.103Z</time></trkpt><trkpt lat="44.0634977" lon="11.2655736"><ele>601.0</ele><time>2026-04-11T12:23:28.102Z</time></trkpt><trkpt lat="44.0636074" lon="11.2657969"><ele>601.0</ele><time>2026-04-11T12:23:29.101Z</time></trkpt><trkpt lat="44.0637335" lon="11.2660101"><ele>601.0</ele><time>2026-04-11T12:23:30.102Z</time></trkpt><trkpt lat="44.0638672" lon="11.266219"><ele>601.0</ele><time>2026-04-11T12:23:31.102Z</time></trkpt><trkpt lat="44.063993" lon="11.2664207"><ele>600.3333333333334</ele><time>2026-04-11T12:23:32.102Z</time></trkpt><trkpt lat="44.0641132" lon="11.2666086"><ele>599.6666666666666</ele><time>2026-04-11T12:23:33.103Z</time></trkpt><trkpt lat="44.064233" lon="11.2667753"><ele>599.0</ele><time>2026-04-11T12:23:34.102Z</time></trkpt><trkpt lat="44.0643598" lon="11.2668892"><ele>604.6666666666666</ele><time>2026-04-11T12:23:35.103Z</time></trkpt><trkpt lat="44.0645131" lon="11.2669518"><ele>610.3333333333334</ele><time>2026-04-11T12:23:36.102Z</time></trkpt><trkpt lat="44.064681" lon="11.2669682"><ele>616.0</ele><time>2026-04-11T12:23:37.102Z</time></trkpt><trkpt lat="44.0648589" lon="11.266968"><ele>619.3333333333334</ele><time>2026-04-11T12:23:38.102Z</time></trkpt><trkpt lat="44.0650445" lon="11.2669829"><ele>622.6666666666666</ele><time>2026-04-11T12:23:39.102Z</time></trkpt><trkpt lat="44.0652327" lon="11.2670501"><ele>626.0</ele><time>2026-04-11T12:23:40.103Z</time></trkpt><trkpt lat="44.0654231" lon="11.2671365"><ele>626.0</ele><time>2026-04-11T12:23:41.103Z</time></trkpt><trkpt lat="44.0656116" lon="11.2672277"><ele>626.0</ele><time>2026-04-11T12:23:42.103Z</time></trkpt><trkpt lat="44.065811" lon="11.2673086"><ele>626.0</ele><time>2026-04-11T12:23:43.103Z</time></trkpt><trkpt lat="44.0660216" lon="11.2673578"><ele>625.6666666666666</ele><time>2026-04-11T12:23:44.103Z</time></trkpt><trkpt lat="44.0662238" lon="11.2673884"><ele>625.3333333333334</ele><time>2026-04-11T12:23:45.103Z</time></trkpt><trkpt lat="44.0664077" lon="11.2674495"><ele>625.0</ele><time>2026-04-11T12:23:46.103Z</time></trkpt><trkpt lat="44.0665821" lon="11.2675842"><ele>627.0</ele><time>2026-04-11T12:23:47.103Z</time></trkpt><trkpt lat="44.0667359" lon="11.2677585"><ele>629.0</ele><time>2026-04-11T12:23:48.103Z</time></trkpt><trkpt lat="44.0668963" lon="11.2679272"><ele>631.0</ele><time>2026-04-11T12:23:49.102Z</time></trkpt><trkpt lat="44.0670721" lon="11.2680508"><ele>629.3333333333334</ele><time>2026-04-11T12:23:50.101Z</time></trkpt><trkpt lat="44.0672604" lon="11.2681353"><ele>627.6666666666666</ele><time>2026-04-11T12:23:51.103Z</time></trkpt><trkpt lat="44.0674338" lon="11.2681989"><ele>626.0</ele><time>2026-04-11T12:23:52.103Z</time></trkpt><trkpt lat="44.0675839" lon="11.2682861"><ele>630.0</ele><time>2026-04-11T12:23:53.103Z</time></trkpt><trkpt lat="44.0677077" lon="11.2684418"><ele>634.0</ele><time>2026-04-11T12:23:54.103Z</time></trkpt><trkpt lat="44.0677894" lon="11.2686439"><ele>638.0</ele><time>2026-04-11T12:23:55.103Z</time></trkpt><trkpt lat="44.0678449" lon="11.2688577"><ele>637.0</ele><time>2026-04-11T12:23:56.101Z</time></trkpt><trkpt lat="44.0678968" lon="11.2690671"><ele>636.0</ele><time>2026-04-11T12:23:57.103Z</time></trkpt><trkpt lat="44.0679585" lon="11.2692774"><ele>635.0</ele><time>2026-04-11T12:23:58.102Z</time></trkpt><trkpt lat="44.0680288" lon="11.269492"><ele>635.0</ele><time>2026-04-11T12:23:59.103Z</time></trkpt><trkpt lat="44.0681197" lon="11.2696941"><ele>635.0</ele><time>2026-04-11T12:24:00.103Z</time></trkpt><trkpt lat="44.0682446" lon="11.2698651"><ele>635.0</ele><time>2026-04-11T12:24:01.103Z</time></trkpt><trkpt lat="44.0683751" lon="11.2700338"><ele>639.6666666666666</ele><time>2026-04-11T12:24:02.103Z</time></trkpt><trkpt lat="44.0685504" lon="11.270106"><ele>644.3333333333334</ele><time>2026-04-11T12:24:03.103Z</time></trkpt><trkpt lat="44.0687285" lon="11.2701759"><ele>649.0</ele><time>2026-04-11T12:24:04.103Z</time></trkpt><trkpt lat="44.0689192" lon="11.2701879"><ele>649.0</ele><time>2026-04-11T12:24:05.102Z</time></trkpt><trkpt lat="44.0691077" lon="11.2701754"><ele>649.0</ele><time>2026-04-11T12:24:06.103Z</time></trkpt><trkpt lat="44.0693045" lon="11.2701489"><ele>649.0</ele><time>2026-04-11T12:24:07.103Z</time></trkpt><trkpt lat="44.0695079" lon="11.2701125"><ele>653.3333333333334</ele><time>2026-04-11T12:24:08.103Z</time></trkpt><trkpt lat="44.0697071" lon="11.2700718"><ele>657.6666666666666</ele><time>2026-04-11T12:24:09.103Z</time></trkpt><trkpt lat="44.0698935" lon="11.270024"><ele>662.0</ele><time>2026-04-11T12:24:10.103Z</time></trkpt><trkpt lat="44.0700687" lon="11.2699648"><ele>664.0</ele><time>2026-04-11T12:24:11.103Z</time></trkpt><trkpt lat="44.070243" lon="11.2698949"><ele>666.0</ele><time>2026-04-11T12:24:12.103Z</time></trkpt><trkpt lat="44.0703988" lon="11.2698515"><ele>668.0</ele><time>2026-04-11T12:24:13.103Z</time></trkpt><trkpt lat="44.0705493" lon="11.2698743"><ele>668.0</ele><time>2026-04-11T12:24:14.102Z</time></trkpt><trkpt lat="44.0706864" lon="11.2699403"><ele>668.0</ele><time>2026-04-11T12:24:15.102Z</time></trkpt><trkpt lat="44.0708236" lon="11.2700308"><ele>668.0</ele><time>2026-04-11T12:24:16.103Z</time></trkpt><trkpt lat="44.0709638" lon="11.2701296"><ele>670.0</ele><time>2026-04-11T12:24:17.103Z</time></trkpt><trkpt lat="44.0711075" lon="11.2702394"><ele>672.0</ele><time>2026-04-11T12:24:18.103Z</time></trkpt><trkpt lat="44.0712538" lon="11.2703639"><ele>674.0</ele><time>2026-04-11T12:24:19.103Z</time></trkpt><trkpt lat="44.071384" lon="11.2705334"><ele>673.0</ele><time>2026-04-11T12:24:20.103Z</time></trkpt><trkpt lat="44.0715055" lon="11.2707253"><ele>672.0</ele><time>2026-04-11T12:24:21.103Z</time></trkpt><trkpt lat="44.0716252" lon="11.2709204"><ele>671.0</ele><time>2026-04-11T12:24:22.103Z</time></trkpt><trkpt lat="44.0717553" lon="11.271088"><ele>674.0</ele><time>2026-04-11T12:24:23.102Z</time></trkpt><trkpt lat="44.0718933" lon="11.2712343"><ele>677.0</ele><time>2026-04-11T12:24:24.103Z</time></trkpt><trkpt lat="44.0720432" lon="11.2713742"><ele>680.0</ele><time>2026-04-11T12:24:25.103Z</time></trkpt><trkpt lat="44.0721768" lon="11.2714972"><ele>680.0</ele><time>2026-04-11T12:24:26.102Z</time></trkpt><trkpt lat="44.0722953" lon="11.2715958"><ele>680.0</ele><time>2026-04-11T12:24:27.102Z</time></trkpt><trkpt lat="44.0724094" lon="11.2716826"><ele>680.0</ele><time>2026-04-11T12:24:28.102Z</time></trkpt><trkpt lat="44.0725377" lon="11.2717286"><ele>680.0</ele><time>2026-04-11T12:24:29.103Z</time></trkpt><trkpt lat="44.0726565" lon="11.2716958"><ele>682.75</ele><time>2026-04-11T12:24:30.103Z</time></trkpt><trkpt lat="44.0727544" lon="11.2716016"><ele>685.5</ele><time>2026-04-11T12:24:31.102Z</time></trkpt><trkpt lat="44.0728138" lon="11.271471"><ele>688.25</ele><time>2026-04-11T12:24:32.103Z</time></trkpt><trkpt lat="44.0728296" lon="11.2712937"><ele>691.0</ele><time>2026-04-11T12:24:33.102Z</time></trkpt><trkpt lat="44.0728308" lon="11.2711023"><ele>692.0</ele><time>2026-04-11T12:24:34.103Z</time></trkpt><trkpt lat="44.0728279" lon="11.2708904"><ele>693.0</ele><time>2026-04-11T12:24:35.102Z</time></trkpt><trkpt lat="44.0728228" lon="11.2706893"><ele>694.0</ele><time>2026-04-11T12:24:36.102Z</time></trkpt><trkpt lat="44.0728129" lon="11.270502"><ele>695.0</ele><time>2026-04-11T12:24:37.103Z</time></trkpt><trkpt lat="44.0728183" lon="11.2703352"><ele>695.0</ele><time>2026-04-11T12:24:38.102Z</time></trkpt><trkpt lat="44.0728662" lon="11.2701948"><ele>695.0</ele><time>2026-04-11T12:24:39.102Z</time></trkpt><trkpt lat="44.0729501" lon="11.2701162"><ele>695.0</ele><time>2026-04-11T12:24:40.102Z</time></trkpt><trkpt lat="44.073062" lon="11.270082"><ele>695.0</ele><time>2026-04-11T12:24:41.103Z</time></trkpt><trkpt lat="44.0731985" lon="11.2700934"><ele>697.0</ele><time>2026-04-11T12:24:42.103Z</time></trkpt><trkpt lat="44.0733259" lon="11.2701449"><ele>699.0</ele><time>2026-04-11T12:24:43.103Z</time></trkpt><trkpt lat="44.0734443" lon="11.2702406"><ele>701.0</ele><time>2026-04-11T12:24:44.101Z</time></trkpt><trkpt lat="44.0735627" lon="11.2703556"><ele>703.0</ele><time>2026-04-11T12:24:45.102Z</time></trkpt><trkpt lat="44.0736844" lon="11.2704916"><ele>703.3333333333334</ele><time>2026-04-11T12:24:46.103Z</time></trkpt><trkpt lat="44.0737964" lon="11.2706692"><ele>703.6666666666666</ele><time>2026-04-11T12:24:47.103Z</time></trkpt><trkpt lat="44.0738842" lon="11.2708726"><ele>704.0</ele><time>2026-04-11T12:24:48.102Z</time></trkpt><trkpt lat="44.0739527" lon="11.2711003"><ele>704.0</ele><time>2026-04-11T12:24:49.102Z</time></trkpt><trkpt lat="44.0740105" lon="11.2713489"><ele>704.0</ele><time>2026-04-11T12:24:50.102Z</time></trkpt><trkpt lat="44.0740559" lon="11.2716114"><ele>704.0</ele><time>2026-04-11T12:24:51.102Z</time></trkpt><trkpt lat="44.074086" lon="11.2718818"><ele>710.6666666666666</ele><time>2026-04-11T12:24:52.103Z</time></trkpt><trkpt lat="44.0741066" lon="11.2721445"><ele>717.3333333333334</ele><time>2026-04-11T12:24:53.103Z</time></trkpt><trkpt lat="44.0741258" lon="11.2724137"><ele>724.0</ele><time>2026-04-11T12:24:54.102Z</time></trkpt><trkpt lat="44.0741434" lon="11.2726559"><ele>725.3333333333334</ele><time>2026-04-11T12:24:55.102Z</time></trkpt><trkpt lat="44.0741521" lon="11.272891"><ele>726.6666666666666</ele><time>2026-04-11T12:24:56.102Z</time></trkpt><trkpt lat="44.0741211" lon="11.2731295"><ele>728.0</ele><time>2026-04-11T12:24:57.103Z</time></trkpt><trkpt lat="44.0740586" lon="11.2733311"><ele>725.75</ele><time>2026-04-11T12:24:58.103Z</time></trkpt><trkpt lat="44.0739934" lon="11.2735199"><ele>723.5</ele><time>2026-04-11T12:24:59.103Z</time></trkpt><trkpt lat="44.0739441" lon="11.27371"><ele>721.25</ele><time>2026-04-11T12:25:00.102Z</time></trkpt><trkpt lat="44.0739308" lon="11.2739055"><ele>719.0</ele><time>2026-04-11T12:25:01.103Z</time></trkpt><trkpt lat="44.073968" lon="11.2740945"><ele>719.0</ele><time>2026-04-11T12:25:02.102Z</time></trkpt><trkpt lat="44.0740471" lon="11.2742697"><ele>719.0</ele><time>2026-04-11T12:25:03.102Z</time></trkpt><trkpt lat="44.0741466" lon="11.2744381"><ele>719.0</ele><time>2026-04-11T12:25:04.102Z</time></trkpt><trkpt lat="44.0742526" lon="11.2746109"><ele>723.6666666666666</ele><time>2026-04-11T12:25:05.103Z</time></trkpt><trkpt lat="44.0743655" lon="11.2747811"><ele>728.3333333333334</ele><time>2026-04-11T12:25:06.103Z</time></trkpt><trkpt lat="44.0744895" lon="11.2749332"><ele>733.0</ele><time>2026-04-11T12:25:07.103Z</time></trkpt><trkpt lat="44.0746288" lon="11.2750523"><ele>733.0</ele><time>2026-04-11T12:25:08.103Z</time></trkpt><trkpt lat="44.0747765" lon="11.2751434"><ele>733.0</ele><time>2026-04-11T12:25:09.101Z</time></trkpt><trkpt lat="44.0749085" lon="11.2752192"><ele>733.0</ele><time>2026-04-11T12:25:10.103Z</time></trkpt><trkpt lat="44.0750204" lon="11.2753186"><ele>733.0</ele><time>2026-04-11T12:25:11.103Z</time></trkpt><trkpt lat="44.0751079" lon="11.2754583"><ele>737.0</ele><time>2026-04-11T12:25:12.101Z</time></trkpt><trkpt lat="44.0751786" lon="11.2756358"><ele>741.0</ele><time>2026-04-11T12:25:13.103Z</time></trkpt><trkpt lat="44.0752488" lon="11.2758316"><ele>745.0</ele><time>2026-04-11T12:25:14.103Z</time></trkpt><trkpt lat="44.0753223" lon="11.2760249"><ele>745.0</ele><time>2026-04-11T12:25:15.103Z</time></trkpt><trkpt lat="44.0754071" lon="11.2761845"><ele>745.0</ele><time>2026-04-11T12:25:16.102Z</time></trkpt><trkpt lat="44.0755136" lon="11.2763508"><ele>745.0</ele><time>2026-04-11T12:25:17.102Z</time></trkpt><trkpt lat="44.0756197" lon="11.2765108"><ele>745.0</ele><time>2026-04-11T12:25:18.103Z</time></trkpt><trkpt lat="44.0757359" lon="11.2766648"><ele>745.0</ele><time>2026-04-11T12:25:19.101Z</time></trkpt><trkpt lat="44.0758175" lon="11.2768145"><ele>745.0</ele><time>2026-04-11T12:25:20.103Z</time></trkpt><trkpt lat="44.0758536" lon="11.2769988"><ele>745.0</ele><time>2026-04-11T12:25:21.103Z</time></trkpt><trkpt lat="44.075842" lon="11.2771976"><ele>750.75</ele><time>2026-04-11T12:25:22.103Z</time></trkpt><trkpt lat="44.0758047" lon="11.2773913"><ele>756.5</ele><time>2026-04-11T12:25:23.102Z</time></trkpt><trkpt lat="44.0757958" lon="11.2775753"><ele>762.25</ele><time>2026-04-11T12:25:24.102Z</time></trkpt><trkpt lat="44.0758175" lon="11.2777804"><ele>768.0</ele><time>2026-04-11T12:25:25.102Z</time></trkpt><trkpt lat="44.0758568" lon="11.2779941"><ele>767.6666666666666</ele><time>2026-04-11T12:25:26.102Z</time></trkpt><trkpt lat="44.0758885" lon="11.2782273"><ele>767.3333333333333</ele><time>2026-04-11T12:25:27.102Z</time></trkpt><trkpt lat="44.0758952" lon="11.2784789"><ele>767.0</ele><time>2026-04-11T12:25:28.102Z</time></trkpt><trkpt lat="44.0758833" lon="11.2787421"><ele>766.6666666666666</ele><time>2026-04-11T12:25:29.103Z</time></trkpt><trkpt lat="44.075868" lon="11.2790055"><ele>766.3333333333334</ele><time>2026-04-11T12:25:30.103Z</time></trkpt><trkpt lat="44.0758557" lon="11.2792545"><ele>766.0</ele><time>2026-04-11T12:25:31.102Z</time></trkpt><trkpt lat="44.0758384" lon="11.2794934"><ele>766.0</ele><time>2026-04-11T12:25:32.102Z</time></trkpt><trkpt lat="44.0758225" lon="11.2797187"><ele>766.0</ele><time>2026-04-11T12:25:33.103Z</time></trkpt><trkpt lat="44.0758096" lon="11.2799205"><ele>766.0</ele><time>2026-04-11T12:25:34.103Z</time></trkpt><trkpt lat="44.0758162" lon="11.2801188"><ele>765.75</ele><time>2026-04-11T12:25:35.103Z</time></trkpt><trkpt lat="44.0758634" lon="11.2803073"><ele>765.5</ele><time>2026-04-11T12:25:36.103Z</time></trkpt><trkpt lat="44.0759525" lon="11.2804689"><ele>765.25</ele><time>2026-04-11T12:25:37.103Z</time></trkpt><trkpt lat="44.0760599" lon="11.2805948"><ele>765.0</ele><time>2026-04-11T12:25:38.102Z</time></trkpt><trkpt lat="44.0761878" lon="11.2806752"><ele>765.0</ele><time>2026-04-11T12:25:39.102Z</time></trkpt><trkpt lat="44.0763195" lon="11.2807163"><ele>765.0</ele><time>2026-04-11T12:25:40.102Z</time></trkpt><trkpt lat="44.0764589" lon="11.2807522"><ele>765.0</ele><time>2026-04-11T12:25:41.103Z</time></trkpt><trkpt lat="44.0766032" lon="11.2808075"><ele>765.0</ele><time>2026-04-11T12:25:42.103Z</time></trkpt><trkpt lat="44.0767297" lon="11.2808914"><ele>765.0</ele><time>2026-04-11T12:25:43.102Z</time></trkpt><trkpt lat="44.0768421" lon="11.281005"><ele>765.0</ele><time>2026-04-11T12:25:44.103Z</time></trkpt><trkpt lat="44.0769479" lon="11.2811205"><ele>765.0</ele><time>2026-04-11T12:25:45.103Z</time></trkpt><trkpt lat="44.077067" lon="11.2812305"><ele>765.0</ele><time>2026-04-11T12:25:46.102Z</time></trkpt><trkpt lat="44.0771958" lon="11.2813207"><ele>765.0</ele><time>2026-04-11T12:25:47.102Z</time></trkpt><trkpt lat="44.0773179" lon="11.281391"><ele>765.0</ele><time>2026-04-11T12:25:48.102Z</time></trkpt><trkpt lat="44.0774479" lon="11.2814579"><ele>765.0</ele><time>2026-04-11T12:25:49.103Z</time></trkpt><trkpt lat="44.0775869" lon="11.281525"><ele>765.0</ele><time>2026-04-11T12:25:50.101Z</time></trkpt><trkpt lat="44.0777333" lon="11.2815918"><ele>764.6666666666666</ele><time>2026-04-11T12:25:51.102Z</time></trkpt><trkpt lat="44.0778736" lon="11.2816627"><ele>764.3333333333333</ele><time>2026-04-11T12:25:52.103Z</time></trkpt><trkpt lat="44.0780226" lon="11.2817335"><ele>764.0</ele><time>2026-04-11T12:25:53.103Z</time></trkpt><trkpt lat="44.0781599" lon="11.2817913"><ele>766.5</ele><time>2026-04-11T12:25:54.103Z</time></trkpt><trkpt lat="44.0782928" lon="11.2818524"><ele>769.0</ele><time>2026-04-11T12:25:55.102Z</time></trkpt><trkpt lat="44.0784251" lon="11.2819203"><ele>771.5</ele><time>2026-04-11T12:25:56.102Z</time></trkpt><trkpt lat="44.0785565" lon="11.2819909"><ele>774.0</ele><time>2026-04-11T12:25:57.102Z</time></trkpt><trkpt lat="44.0786845" lon="11.2820422"><ele>774.0</ele><time>2026-04-11T12:25:58.103Z</time></trkpt><trkpt lat="44.0788286" lon="11.2820742"><ele>774.0</ele><time>2026-04-11T12:25:59.102Z</time></trkpt><trkpt lat="44.0789814" lon="11.2820831"><ele>774.0</ele><time>2026-04-11T12:26:00.102Z</time></trkpt><trkpt lat="44.0791323" lon="11.2820801"><ele>780.0</ele><time>2026-04-11T12:26:01.103Z</time></trkpt><trkpt lat="44.0792926" lon="11.2820662"><ele>786.0</ele><time>2026-04-11T12:26:02.103Z</time></trkpt><trkpt lat="44.0794603" lon="11.2820483"><ele>792.0</ele><time>2026-04-11T12:26:03.103Z</time></trkpt><trkpt lat="44.0796328" lon="11.2820331"><ele>792.0</ele><time>2026-04-11T12:26:04.103Z</time></trkpt><trkpt lat="44.0798116" lon="11.2820171"><ele>792.0</ele><time>2026-04-11T12:26:05.102Z</time></trkpt><trkpt lat="44.0799831" lon="11.2819991"><ele>792.0</ele><time>2026-04-11T12:26:06.102Z</time></trkpt><trkpt lat="44.0801586" lon="11.2819736"><ele>796.6666666666667</ele><time>2026-04-11T12:26:07.103Z</time></trkpt><trkpt lat="44.0803347" lon="11.281954"><ele>801.3333333333334</ele><time>2026-04-11T12:26:08.103Z</time></trkpt><trkpt lat="44.080491" lon="11.2819435"><ele>806.0</ele><time>2026-04-11T12:26:09.103Z</time></trkpt><trkpt lat="44.0806427" lon="11.2819257"><ele>806.75</ele><time>2026-04-11T12:26:10.102Z</time></trkpt><trkpt lat="44.08079" lon="11.2818783"><ele>807.5</ele><time>2026-04-11T12:26:11.102Z</time></trkpt><trkpt lat="44.0809202" lon="11.2818266"><ele>808.25</ele><time>2026-04-11T12:26:12.103Z</time></trkpt><trkpt lat="44.0810526" lon="11.2817719"><ele>809.0</ele><time>2026-04-11T12:26:13.103Z</time></trkpt><trkpt lat="44.0811783" lon="11.2817083"><ele>809.0</ele><time>2026-04-11T12:26:14.103Z</time></trkpt><trkpt lat="44.0812992" lon="11.281641"><ele>809.0</ele><time>2026-04-11T12:26:15.103Z</time></trkpt><trkpt lat="44.0813982" lon="11.2815438"><ele>809.0</ele><time>2026-04-11T12:26:16.102Z</time></trkpt><trkpt lat="44.0814948" lon="11.2814296"><ele>809.0</ele><time>2026-04-11T12:26:17.102Z</time></trkpt><trkpt lat="44.0815852" lon="11.2813196"><ele>813.0</ele><time>2026-04-11T12:26:18.102Z</time></trkpt><trkpt lat="44.081684" lon="11.2812014"><ele>817.0</ele><time>2026-04-11T12:26:19.103Z</time></trkpt><trkpt lat="44.0817685" lon="11.2810873"><ele>821.0</ele><time>2026-04-11T12:26:20.103Z</time></trkpt><trkpt lat="44.0818483" lon="11.2809877"><ele>825.0</ele><time>2026-04-11T12:26:21.103Z</time></trkpt><trkpt lat="44.0819567" lon="11.2809278"><ele>825.0</ele><time>2026-04-11T12:26:22.103Z</time></trkpt><trkpt lat="44.0820857" lon="11.2809217"><ele>825.0</ele><time>2026-04-11T12:26:23.103Z</time></trkpt><trkpt lat="44.082214" lon="11.2809816"><ele>825.0</ele><time>2026-04-11T12:26:24.102Z</time></trkpt><trkpt lat="44.0823261" lon="11.2810929"><ele>825.0</ele><time>2026-04-11T12:26:25.102Z</time></trkpt><trkpt lat="44.0823988" lon="11.2812694"><ele>819.25</ele><time>2026-04-11T12:26:26.102Z</time></trkpt><trkpt lat="44.0824128" lon="11.2814723"><ele>813.5</ele><time>2026-04-11T12:26:27.102Z</time></trkpt><trkpt lat="44.0824158" lon="11.281679"><ele>807.75</ele><time>2026-04-11T12:26:28.101Z</time></trkpt><trkpt lat="44.0824213" lon="11.2818754"><ele>802.0</ele><time>2026-04-11T12:26:29.103Z</time></trkpt><trkpt lat="44.0824269" lon="11.2820919"><ele>806.75</ele><time>2026-04-11T12:26:30.103Z</time></trkpt><trkpt lat="44.0824452" lon="11.2823096"><ele>811.5</ele><time>2026-04-11T12:26:31.102Z</time></trkpt><trkpt lat="44.0824806" lon="11.2824837"><ele>816.25</ele><time>2026-04-11T12:26:32.102Z</time></trkpt><trkpt lat="44.082522" lon="11.2826261"><ele>821.0</ele><time>2026-04-11T12:26:33.103Z</time></trkpt><trkpt lat="44.0825732" lon="11.2827351"><ele>821.0000000000001</ele><time>2026-04-11T12:26:34.103Z</time></trkpt><trkpt lat="44.0826172" lon="11.2828336"><ele>821.0</ele><time>2026-04-11T12:26:35.102Z</time></trkpt><trkpt lat="44.0826571" lon="11.282921"><ele>821.0</ele><time>2026-04-11T12:26:36.103Z</time></trkpt><trkpt lat="44.0826969" lon="11.2830068"><ele>821.0</ele><time>2026-04-11T12:26:37.103Z</time></trkpt><trkpt lat="44.0827553" lon="11.2831267"><ele>821.0000000000001</ele><time>2026-04-11T12:26:39.102Z</time></trkpt><trkpt lat="44.0828029" lon="11.2832184"><ele>821.0</ele><time>2026-04-11T12:26:42.103Z</time></trkpt><trkpt lat="44.0828377" lon="11.2833061"><ele>821.0000000000001</ele><time>2026-04-11T12:26:45.102Z</time></trkpt><trkpt lat="44.0828701" lon="11.283382"><ele>821.0</ele><time>2026-04-11T12:26:48.102Z</time></trkpt><trkpt lat="44.0829206" lon="11.2834579"><ele>821.0</ele><time>2026-04-11T12:27:01.103Z</time></trkpt><trkpt lat="44.0829889" lon="11.283507"><ele>821.0</ele><time>2026-04-11T12:27:05.103Z</time></trkpt><trkpt lat="44.0830574" lon="11.2834719"><ele>821.0000000000001</ele><time>2026-04-11T12:27:08.101Z</time></trkpt><trkpt lat="44.0830052" lon="11.2833514"><ele>821.0</ele><time>2026-04-11T12:27:11.102Z</time></trkpt><trkpt lat="44.082898" lon="11.2833128"><ele>821.0</ele><time>2026-04-11T12:27:13.102Z</time></trkpt><trkpt lat="44.0828377" lon="11.2832157"><ele>821.0</ele><time>2026-04-11T12:27:14.102Z</time></trkpt><trkpt lat="44.0827742" lon="11.2830852"><ele>821.0</ele><time>2026-04-11T12:27:15.101Z</time></trkpt><trkpt lat="44.0827064" lon="11.2829386"><ele>821.0</ele><time>2026-04-11T12:27:16.1Z</time></trkpt><trkpt lat="44.0826358" lon="11.2827986"><ele>821.0</ele><time>2026-04-11T12:27:17.101Z</time></trkpt><trkpt lat="44.0825636" lon="11.2826341"><ele>821.0</ele><time>2026-04-11T12:27:18.101Z</time></trkpt><trkpt lat="44.0824969" lon="11.2824661"><ele>821.0</ele><time>2026-04-11T12:27:19.102Z</time></trkpt><trkpt lat="44.0824698" lon="11.2822778"><ele>821.0</ele><time>2026-04-11T12:27:20.102Z</time></trkpt><trkpt lat="44.0824671" lon="11.2820745"><ele>820.75</ele><time>2026-04-11T12:27:21.102Z</time></trkpt><trkpt lat="44.0824627" lon="11.2818766"><ele>820.5</ele><time>2026-04-11T12:27:22.102Z</time></trkpt><trkpt lat="44.0824609" lon="11.2816749"><ele>820.25</ele><time>2026-04-11T12:27:23.102Z</time></trkpt><trkpt lat="44.0824541" lon="11.2814811"><ele>820.0</ele><time>2026-04-11T12:27:24.102Z</time></trkpt><trkpt lat="44.0824392" lon="11.2813055"><ele>821.25</ele><time>2026-04-11T12:27:25.1Z</time></trkpt><trkpt lat="44.0823897" lon="11.2811553"><ele>822.5</ele><time>2026-04-11T12:27:26.102Z</time></trkpt><trkpt lat="44.0823069" lon="11.2810332"><ele>823.75</ele><time>2026-04-11T12:27:27.102Z</time></trkpt><trkpt lat="44.0822022" lon="11.2809375"><ele>825.0</ele><time>2026-04-11T12:27:28.101Z</time></trkpt><trkpt lat="44.0820849" lon="11.2808978"><ele>825.0</ele><time>2026-04-11T12:27:29.102Z</time></trkpt><trkpt lat="44.0819687" lon="11.2809117"><ele>825.0</ele><time>2026-04-11T12:27:30.101Z</time></trkpt><trkpt lat="44.0818646" lon="11.2809755"><ele>825.0</ele><time>2026-04-11T12:27:31.102Z</time></trkpt><trkpt lat="44.0817805" lon="11.2810519"><ele>825.0</ele><time>2026-04-11T12:27:32.102Z</time></trkpt><trkpt lat="44.0816996" lon="11.2811436"><ele>825.0</ele><time>2026-04-11T12:27:33.102Z</time></trkpt><trkpt lat="44.0816299" lon="11.2812383"><ele>821.8</ele><time>2026-04-11T12:27:34.101Z</time></trkpt><trkpt lat="44.0815582" lon="11.2813203"><ele>818.6</ele><time>2026-04-11T12:27:35.101Z</time></trkpt><trkpt lat="44.0814926" lon="11.281413"><ele>815.4000000000001</ele><time>2026-04-11T12:27:36.101Z</time></trkpt><trkpt lat="44.0814221" lon="11.2814988"><ele>812.2</ele><time>2026-04-11T12:27:37.102Z</time></trkpt><trkpt lat="44.0813508" lon="11.281577"><ele>809.0</ele><time>2026-04-11T12:27:38.102Z</time></trkpt><trkpt lat="44.081276" lon="11.2816334"><ele>809.0000000000001</ele><time>2026-04-11T12:27:39.101Z</time></trkpt><trkpt lat="44.0812013" lon="11.2816832"><ele>809.0</ele><time>2026-04-11T12:27:40.102Z</time></trkpt><trkpt lat="44.0811257" lon="11.281712"><ele>809.0</ele><time>2026-04-11T12:27:41.102Z</time></trkpt><trkpt lat="44.0810538" lon="11.2817433"><ele>809.0</ele><time>2026-04-11T12:27:42.102Z</time></trkpt><trkpt lat="44.080987" lon="11.2817768"><ele>809.0000000000001</ele><time>2026-04-11T12:27:43.102Z</time></trkpt><trkpt lat="44.080922" lon="11.2818081"><ele>809.0</ele><time>2026-04-11T12:27:44.101Z</time></trkpt><trkpt lat="44.080807" lon="11.2818612"><ele>808.5714285714286</ele><time>2026-04-11T12:27:46.101Z</time></trkpt><trkpt lat="44.0807239" lon="11.2818843"><ele>808.1428571428571</ele><time>2026-04-11T12:27:48.101Z</time></trkpt><trkpt lat="44.0806612" lon="11.281905"><ele>807.7142857142858</ele><time>2026-04-11T12:27:50.101Z</time></trkpt><trkpt lat="44.0805873" lon="11.2819256"><ele>807.2857142857142</ele><time>2026-04-11T12:27:53.102Z</time></trkpt><trkpt lat="44.0805185" lon="11.2819334"><ele>806.8571428571428</ele><time>2026-04-11T12:28:01.102Z</time></trkpt><trkpt lat="44.0805259" lon="11.2818325"><ele>806.4285714285714</ele><time>2026-04-11T12:28:12.102Z</time></trkpt><trkpt lat="44.0805865" lon="11.2817834"><ele>806.0</ele><time>2026-04-11T12:28:15.101Z</time></trkpt><trkpt lat="44.0806497" lon="11.2817686"><ele>806.0</ele><time>2026-04-11T12:28:17.102Z</time></trkpt><trkpt lat="44.0807459" lon="11.2817192"><ele>806.0</ele><time>2026-04-11T12:28:19.101Z</time></trkpt><trkpt lat="44.0808525" lon="11.2816739"><ele>806.0</ele><time>2026-04-11T12:28:21.102Z</time></trkpt><trkpt lat="44.0809499" lon="11.2816064"><ele>806.0</ele><time>2026-04-11T12:28:23.101Z</time></trkpt><trkpt lat="44.0810539" lon="11.2815253"><ele>806.0</ele><time>2026-04-11T12:28:25.102Z</time></trkpt><trkpt lat="44.0811068" lon="11.2814571"><ele>812.1666666666667</ele><time>2026-04-11T12:28:26.101Z</time></trkpt><trkpt lat="44.0811605" lon="11.2813894"><ele>818.3333333333334</ele><time>2026-04-11T12:28:27.102Z</time></trkpt><trkpt lat="44.081224" lon="11.281297"><ele>824.5</ele><time>2026-04-11T12:28:28.102Z</time></trkpt><trkpt lat="44.0812826" lon="11.2812215"><ele>830.6666666666667</ele><time>2026-04-11T12:28:29.101Z</time></trkpt><trkpt lat="44.0813357" lon="11.2811419"><ele>836.8333333333334</ele><time>2026-04-11T12:28:30.101Z</time></trkpt><trkpt lat="44.0813918" lon="11.2810785"><ele>843.0</ele><time>2026-04-11T12:28:31.101Z</time></trkpt><trkpt lat="44.0814734" lon="11.2810131"><ele>843.0</ele><time>2026-04-11T12:28:32.101Z</time></trkpt><trkpt lat="44.0815382" lon="11.2809559"><ele>843.0</ele><time>2026-04-11T12:28:33.102Z</time></trkpt><trkpt lat="44.0815969" lon="11.2809231"><ele>843.0</ele><time>2026-04-11T12:28:34.102Z</time></trkpt><trkpt lat="44.0816786" lon="11.280839"><ele>843.0</ele><time>2026-04-11T12:28:36.102Z</time></trkpt><trkpt lat="44.0817302" lon="11.2807879"><ele>843.0</ele><time>2026-04-11T12:28:37.102Z</time></trkpt><trkpt lat="44.0817965" lon="11.2807346"><ele>843.0</ele><time>2026-04-11T12:28:38.102Z</time></trkpt><trkpt lat="44.0818419" lon="11.2806598"><ele>845.0</ele><time>2026-04-11T12:28:39.102Z</time></trkpt><trkpt lat="44.081892" lon="11.280579"><ele>847.0</ele><time>2026-04-11T12:28:40.101Z</time></trkpt><trkpt lat="44.0819317" lon="11.2804992"><ele>849.0</ele><time>2026-04-11T12:28:41.102Z</time></trkpt><trkpt lat="44.0819696" lon="11.2804085"><ele>851.0</ele><time>2026-04-11T12:28:42.102Z</time></trkpt><trkpt lat="44.0820119" lon="11.280333"><ele>853.0</ele><time>2026-04-11T12:28:43.101Z</time></trkpt><trkpt lat="44.0820856" lon="11.2802055"><ele>855.0</ele><time>2026-04-11T12:28:45.102Z</time></trkpt><trkpt lat="44.0821348" lon="11.2801354"><ele>855.0</ele><time>2026-04-11T12:28:46.101Z</time></trkpt><trkpt lat="44.0821913" lon="11.2800937"><ele>855.0</ele><time>2026-04-11T12:28:48.101Z</time></trkpt><trkpt lat="44.0822588" lon="11.2800941"><ele>855.0</ele><time>2026-04-11T12:28:50.102Z</time></trkpt><trkpt lat="44.0823428" lon="11.2801028"><ele>855.0</ele><time>2026-04-11T12:28:52.102Z</time></trkpt><trkpt lat="44.0824517" lon="11.2801222"><ele>855.0</ele><time>2026-04-11T12:28:54.101Z</time></trkpt><trkpt lat="44.0825658" lon="11.2801291"><ele>855.0</ele><time>2026-04-11T12:28:56.101Z</time></trkpt><trkpt lat="44.0826288" lon="11.280131"><ele>851.8</ele><time>2026-04-11T12:28:57.102Z</time></trkpt><trkpt lat="44.0827404" lon="11.2801711"><ele>848.6</ele><time>2026-04-11T12:28:59.101Z</time></trkpt><trkpt lat="44.0828366" lon="11.2801699"><ele>845.4000000000001</ele><time>2026-04-11T12:29:01.102Z</time></trkpt><trkpt lat="44.0829296" lon="11.2801661"><ele>842.2</ele><time>2026-04-11T12:29:03.102Z</time></trkpt><trkpt lat="44.0830255" lon="11.2801276"><ele>839.0</ele><time>2026-04-11T12:29:05.102Z</time></trkpt><trkpt lat="44.0831062" lon="11.280092"><ele>839.0</ele><time>2026-04-11T12:29:07.1Z</time></trkpt><trkpt lat="44.0831922" lon="11.2800639"><ele>839.0</ele><time>2026-04-11T12:29:09.102Z</time></trkpt><trkpt lat="44.0832779" lon="11.2800726"><ele>839.0</ele><time>2026-04-11T12:29:11.101Z</time></trkpt><trkpt lat="44.0833632" lon="11.2800835"><ele>839.0</ele><time>2026-04-11T12:29:13.101Z</time></trkpt><trkpt lat="44.0834468" lon="11.2800846"><ele>839.0</ele><time>2026-04-11T12:29:15.102Z</time></trkpt><trkpt lat="44.0835675" lon="11.2800731"><ele>840.6</ele><time>2026-04-11T12:29:17.101Z</time></trkpt><trkpt lat="44.0836869" lon="11.2800761"><ele>842.2</ele><time>2026-04-11T12:29:19.101Z</time></trkpt><trkpt lat="44.0837928" lon="11.2800742"><ele>843.8000000000001</ele><time>2026-04-11T12:29:21.102Z</time></trkpt><trkpt lat="44.0838948" lon="11.280032"><ele>845.4000000000001</ele><time>2026-04-11T12:29:23.102Z</time></trkpt><trkpt lat="44.0840022" lon="11.2800078"><ele>847.0</ele><time>2026-04-11T12:29:25.101Z</time></trkpt><trkpt lat="44.0840985" lon="11.2800314"><ele>848.6</ele><time>2026-04-11T12:29:27.101Z</time></trkpt><trkpt lat="44.0841892" lon="11.280055"><ele>850.2</ele><time>2026-04-11T12:29:29.102Z</time></trkpt><trkpt lat="44.0842833" lon="11.2800718"><ele>851.8</ele><time>2026-04-11T12:29:31.101Z</time></trkpt><trkpt lat="44.0843816" lon="11.2800405"><ele>853.4</ele><time>2026-04-11T12:29:33.101Z</time></trkpt><trkpt lat="44.084473" lon="11.2799841"><ele>855.0</ele><time>2026-04-11T12:29:35.102Z</time></trkpt><trkpt lat="44.0845649" lon="11.2799042"><ele>855.0</ele><time>2026-04-11T12:29:37.102Z</time></trkpt><trkpt lat="44.0846645" lon="11.279841"><ele>855.0</ele><time>2026-04-11T12:29:39.1Z</time></trkpt><trkpt lat="44.08477" lon="11.2797937"><ele>855.0</ele><time>2026-04-11T12:29:41.102Z</time></trkpt><trkpt lat="44.0848643" lon="11.2797808"><ele>855.0</ele><time>2026-04-11T12:29:43.102Z</time></trkpt><trkpt lat="44.0849813" lon="11.2797735"><ele>855.0</ele><time>2026-04-11T12:29:45.1Z</time></trkpt><trkpt lat="44.0850449" lon="11.2797747"><ele>855.2</ele><time>2026-04-11T12:29:46.102Z</time></trkpt><trkpt lat="44.0851463" lon="11.2797886"><ele>855.4</ele><time>2026-04-11T12:29:48.101Z</time></trkpt><trkpt lat="44.085243" lon="11.2798371"><ele>855.5999999999999</ele><time>2026-04-11T12:29:50.102Z</time></trkpt><trkpt lat="44.0853547" lon="11.279865"><ele>855.8</ele><time>2026-04-11T12:29:52.102Z</time></trkpt><trkpt lat="44.0854709" lon="11.2798467"><ele>856.0</ele><time>2026-04-11T12:29:54.101Z</time></trkpt><trkpt lat="44.085539" lon="11.2798305"><ele>856.0</ele><time>2026-04-11T12:29:55.102Z</time></trkpt><trkpt lat="44.0856014" lon="11.2798179"><ele>855.9999999999999</ele><time>2026-04-11T12:29:56.101Z</time></trkpt><trkpt lat="44.0857309" lon="11.2798116"><ele>855.9999999999999</ele><time>2026-04-11T12:29:58.101Z</time></trkpt><trkpt lat="44.0858031" lon="11.2798093"><ele>856.0</ele><time>2026-04-11T12:29:59.102Z</time></trkpt><trkpt lat="44.0859164" lon="11.2798718"><ele>856.0</ele><time>2026-04-11T12:30:01.102Z</time></trkpt><trkpt lat="44.0859891" lon="11.2799831"><ele>858.4</ele><time>2026-04-11T12:30:03.101Z</time></trkpt><trkpt lat="44.0860384" lon="11.2800547"><ele>860.8</ele><time>2026-04-11T12:30:04.101Z</time></trkpt><trkpt lat="44.0861304" lon="11.2801829"><ele>863.1999999999999</ele><time>2026-04-11T12:30:06.101Z</time></trkpt><trkpt lat="44.0861859" lon="11.280257"><ele>865.5999999999999</ele><time>2026-04-11T12:30:07.101Z</time></trkpt><trkpt lat="44.0862425" lon="11.2803304"><ele>868.0</ele><time>2026-04-11T12:30:08.102Z</time></trkpt><trkpt lat="44.0863193" lon="11.2804765"><ele>867.9999999999999</ele><time>2026-04-11T12:30:10.101Z</time></trkpt><trkpt lat="44.0864099" lon="11.2805736"><ele>868.0</ele><time>2026-04-11T12:30:12.102Z</time></trkpt><trkpt lat="44.0865248" lon="11.2805979"><ele>868.0</ele><time>2026-04-11T12:30:14.101Z</time></trkpt><trkpt lat="44.0865936" lon="11.2805949"><ele>868.0</ele><time>2026-04-11T12:30:15.101Z</time></trkpt><trkpt lat="44.0866638" lon="11.2805809"><ele>867.9999999999999</ele><time>2026-04-11T12:30:16.101Z</time></trkpt><trkpt lat="44.0867288" lon="11.2805818"><ele>868.0</ele><time>2026-04-11T12:30:17.102Z</time></trkpt><trkpt lat="44.0868391" lon="11.2806121"><ele>870.0</ele><time>2026-04-11T12:30:19.102Z</time></trkpt><trkpt lat="44.0869073" lon="11.2806893"><ele>872.0</ele><time>2026-04-11T12:30:21.102Z</time></trkpt><trkpt lat="44.0869333" lon="11.2807749"><ele>874.0</ele><time>2026-04-11T12:30:23.102Z</time></trkpt><trkpt lat="44.0869758" lon="11.2808623"><ele>876.0</ele><time>2026-04-11T12:30:45.102Z</time></trkpt><trkpt lat="44.0870376" lon="11.280836"><ele>878.0</ele><time>2026-04-11T12:30:48.102Z</time></trkpt><trkpt lat="44.0870883" lon="11.2807608"><ele>880.0</ele><time>2026-04-11T12:30:50.102Z</time></trkpt><trkpt lat="44.0871368" lon="11.2807047"><ele>882.0</ele><time>2026-04-11T12:30:51.102Z</time></trkpt><trkpt lat="44.0871995" lon="11.2806374"><ele>880.6666666666666</ele><time>2026-04-11T12:30:52.102Z</time></trkpt><trkpt lat="44.0872742" lon="11.2805583"><ele>879.3333333333333</ele><time>2026-04-11T12:30:53.101Z</time></trkpt><trkpt lat="44.0873506" lon="11.2805163"><ele>878.0</ele><time>2026-04-11T12:30:54.101Z</time></trkpt><trkpt lat="44.0874157" lon="11.2805055"><ele>876.6666666666666</ele><time>2026-04-11T12:30:55.102Z</time></trkpt><trkpt lat="44.0874982" lon="11.2805788"><ele>875.3333333333333</ele><time>2026-04-11T12:30:56.102Z</time></trkpt><trkpt lat="44.0875757" lon="11.2806593"><ele>874.0</ele><time>2026-04-11T12:30:57.102Z</time></trkpt><trkpt lat="44.0876529" lon="11.2807524"><ele>879.0</ele><time>2026-04-11T12:30:58.101Z</time></trkpt><trkpt lat="44.0877251" lon="11.2808398"><ele>884.0</ele><time>2026-04-11T12:30:59.102Z</time></trkpt><trkpt lat="44.0878047" lon="11.2809516"><ele>889.0</ele><time>2026-04-11T12:31:00.102Z</time></trkpt><trkpt lat="44.0878869" lon="11.2810858"><ele>894.0</ele><time>2026-04-11T12:31:01.102Z</time></trkpt><trkpt lat="44.0879818" lon="11.2812179"><ele>894.0</ele><time>2026-04-11T12:31:02.101Z</time></trkpt><trkpt lat="44.0881178" lon="11.2813159"><ele>894.0</ele><time>2026-04-11T12:31:03.101Z</time></trkpt><trkpt lat="44.0882687" lon="11.2813548"><ele>894.0</ele><time>2026-04-11T12:31:04.102Z</time></trkpt><trkpt lat="44.0884216" lon="11.2813648"><ele>895.75</ele><time>2026-04-11T12:31:05.102Z</time></trkpt><trkpt lat="44.0885709" lon="11.2813619"><ele>897.5</ele><time>2026-04-11T12:31:06.102Z</time></trkpt><trkpt lat="44.0887177" lon="11.2813795"><ele>899.25</ele><time>2026-04-11T12:31:07.102Z</time></trkpt><trkpt lat="44.0888486" lon="11.2814227"><ele>901.0</ele><time>2026-04-11T12:31:08.101Z</time></trkpt><trkpt lat="44.0889716" lon="11.2814578"><ele>901.0</ele><time>2026-04-11T12:31:09.101Z</time></trkpt><trkpt lat="44.0890875" lon="11.2814783"><ele>900.9999999999999</ele><time>2026-04-11T12:31:10.102Z</time></trkpt><trkpt lat="44.0891937" lon="11.2814847"><ele>900.9999999999999</ele><time>2026-04-11T12:31:11.102Z</time></trkpt><trkpt lat="44.0892993" lon="11.2814729"><ele>901.0</ele><time>2026-04-11T12:31:12.102Z</time></trkpt><trkpt lat="44.089409" lon="11.2814397"><ele>901.0</ele><time>2026-04-11T12:31:13.101Z</time></trkpt><trkpt lat="44.0895043" lon="11.2813931"><ele>899.5999999999999</ele><time>2026-04-11T12:31:14.102Z</time></trkpt><trkpt lat="44.0895948" lon="11.2813346"><ele>898.1999999999999</ele><time>2026-04-11T12:31:15.102Z</time></trkpt><trkpt lat="44.0896943" lon="11.2812772"><ele>896.8000000000001</ele><time>2026-04-11T12:31:16.101Z</time></trkpt><trkpt lat="44.0897935" lon="11.2812326"><ele>895.4000000000001</ele><time>2026-04-11T12:31:17.102Z</time></trkpt><trkpt lat="44.0898995" lon="11.2811912"><ele>894.0</ele><time>2026-04-11T12:31:18.102Z</time></trkpt><trkpt lat="44.0900016" lon="11.2811555"><ele>894.0</ele><time>2026-04-11T12:31:19.101Z</time></trkpt><trkpt lat="44.0901004" lon="11.2811324"><ele>894.0000000000001</ele><time>2026-04-11T12:31:20.101Z</time></trkpt><trkpt lat="44.0902114" lon="11.281132"><ele>894.0000000000001</ele><time>2026-04-11T12:31:21.101Z</time></trkpt><trkpt lat="44.0903247" lon="11.2811527"><ele>894.0</ele><time>2026-04-11T12:31:22.101Z</time></trkpt><trkpt lat="44.0904324" lon="11.281182"><ele>894.0</ele><time>2026-04-11T12:31:23.102Z</time></trkpt><trkpt lat="44.0905399" lon="11.2812019"><ele>894.0</ele><time>2026-04-11T12:31:24.102Z</time></trkpt><trkpt lat="44.0906623" lon="11.2811784"><ele>894.0</ele><time>2026-04-11T12:31:25.102Z</time></trkpt><trkpt lat="44.0907713" lon="11.2810941"><ele>894.0</ele><time>2026-04-11T12:31:26.101Z</time></trkpt><trkpt lat="44.0908643" lon="11.2809951"><ele>894.0</ele><time>2026-04-11T12:31:27.101Z</time></trkpt><trkpt lat="44.0909705" lon="11.2808859"><ele>894.5</ele><time>2026-04-11T12:31:28.101Z</time></trkpt><trkpt lat="44.0910797" lon="11.2807688"><ele>895.0</ele><time>2026-04-11T12:31:29.101Z</time></trkpt><trkpt lat="44.0911995" lon="11.2806521"><ele>895.5</ele><time>2026-04-11T12:31:30.102Z</time></trkpt><trkpt lat="44.0913408" lon="11.2805522"><ele>896.0</ele><time>2026-04-11T12:31:31.102Z</time></trkpt><trkpt lat="44.0914922" lon="11.280465"><ele>892.6666666666667</ele><time>2026-04-11T12:31:32.101Z</time></trkpt><trkpt lat="44.0916566" lon="11.2803692"><ele>889.3333333333333</ele><time>2026-04-11T12:31:33.101Z</time></trkpt><trkpt lat="44.0918233" lon="11.2802662"><ele>886.0</ele><time>2026-04-11T12:31:34.102Z</time></trkpt><trkpt lat="44.0919798" lon="11.2801685"><ele>886.0</ele><time>2026-04-11T12:31:35.101Z</time></trkpt><trkpt lat="44.0921281" lon="11.2800934"><ele>886.0</ele><time>2026-04-11T12:31:36.101Z</time></trkpt><trkpt lat="44.0922467" lon="11.279993"><ele>886.0</ele><time>2026-04-11T12:31:37.102Z</time></trkpt><trkpt lat="44.0923388" lon="11.2798668"><ele>886.0</ele><time>2026-04-11T12:31:38.102Z</time></trkpt><trkpt lat="44.0924005" lon="11.2797115"><ele>888.75</ele><time>2026-04-11T12:31:39.101Z</time></trkpt><trkpt lat="44.0924495" lon="11.2795425"><ele>891.5</ele><time>2026-04-11T12:31:40.101Z</time></trkpt><trkpt lat="44.0924947" lon="11.2793828"><ele>894.25</ele><time>2026-04-11T12:31:41.101Z</time></trkpt><trkpt lat="44.0925403" lon="11.2792192"><ele>897.0</ele><time>2026-04-11T12:31:42.102Z</time></trkpt><trkpt lat="44.0925796" lon="11.2790464"><ele>895.5</ele><time>2026-04-11T12:31:43.102Z</time></trkpt><trkpt lat="44.0926156" lon="11.2788572"><ele>894.0</ele><time>2026-04-11T12:31:44.102Z</time></trkpt><trkpt lat="44.092682" lon="11.2786683"><ele>892.5</ele><time>2026-04-11T12:31:45.102Z</time></trkpt><trkpt lat="44.0927846" lon="11.2785157"><ele>891.0</ele><time>2026-04-11T12:31:46.102Z</time></trkpt><trkpt lat="44.0928965" lon="11.2784254"><ele>891.0</ele><time>2026-04-11T12:31:47.102Z</time></trkpt><trkpt lat="44.0930131" lon="11.2783835"><ele>891.0</ele><time>2026-04-11T12:31:48.101Z</time></trkpt><trkpt lat="44.0931386" lon="11.2783598"><ele>891.0</ele><time>2026-04-11T12:31:49.101Z</time></trkpt><trkpt lat="44.0932621" lon="11.278331"><ele>891.0</ele><time>2026-04-11T12:31:50.102Z</time></trkpt><trkpt lat="44.0933873" lon="11.2782873"><ele>892.5</ele><time>2026-04-11T12:31:51.102Z</time></trkpt><trkpt lat="44.0935072" lon="11.2782013"><ele>894.0</ele><time>2026-04-11T12:31:52.101Z</time></trkpt><trkpt lat="44.0936146" lon="11.2780755"><ele>895.5</ele><time>2026-04-11T12:31:53.102Z</time></trkpt><trkpt lat="44.0937069" lon="11.2779366"><ele>897.0</ele><time>2026-04-11T12:31:54.101Z</time></trkpt><trkpt lat="44.0937893" lon="11.2777907"><ele>897.0</ele><time>2026-04-11T12:31:55.102Z</time></trkpt><trkpt lat="44.0938644" lon="11.2776368"><ele>897.0</ele><time>2026-04-11T12:31:56.102Z</time></trkpt><trkpt lat="44.0939322" lon="11.2774873"><ele>897.0</ele><time>2026-04-11T12:31:57.102Z</time></trkpt><trkpt lat="44.0939916" lon="11.2773534"><ele>897.0</ele><time>2026-04-11T12:31:58.101Z</time></trkpt><trkpt lat="44.0940442" lon="11.2772316"><ele>896.0</ele><time>2026-04-11T12:31:59.102Z</time></trkpt><trkpt lat="44.0940881" lon="11.277124"><ele>895.0</ele><time>2026-04-11T12:32:00.101Z</time></trkpt><trkpt lat="44.0941225" lon="11.2770142"><ele>894.0</ele><time>2026-04-11T12:32:01.101Z</time></trkpt><trkpt lat="44.094152" lon="11.2768854"><ele>893.0</ele><time>2026-04-11T12:32:02.101Z</time></trkpt><trkpt lat="44.0941843" lon="11.2767599"><ele>892.0</ele><time>2026-04-11T12:32:03.101Z</time></trkpt><trkpt lat="44.094239" lon="11.2766368"><ele>891.6666666666666</ele><time>2026-04-11T12:32:04.101Z</time></trkpt><trkpt lat="44.0942879" lon="11.2765289"><ele>891.3333333333333</ele><time>2026-04-11T12:32:05.102Z</time></trkpt><trkpt lat="44.0942904" lon="11.2764078"><ele>891.0</ele><time>2026-04-11T12:32:06.101Z</time></trkpt><trkpt lat="44.0942532" lon="11.2763044"><ele>890.6666666666667</ele><time>2026-04-11T12:32:07.102Z</time></trkpt><trkpt lat="44.0941864" lon="11.2762465"><ele>890.3333333333334</ele><time>2026-04-11T12:32:08.102Z</time></trkpt><trkpt lat="44.0940959" lon="11.2762316"><ele>890.0</ele><time>2026-04-11T12:32:09.102Z</time></trkpt><trkpt lat="44.0940105" lon="11.2761921"><ele>890.0</ele><time>2026-04-11T12:32:10.101Z</time></trkpt><trkpt lat="44.093959" lon="11.2760976"><ele>890.0</ele><time>2026-04-11T12:32:11.102Z</time></trkpt><trkpt lat="44.093962" lon="11.2759916"><ele>890.0</ele><time>2026-04-11T12:32:12.101Z</time></trkpt><trkpt lat="44.0940055" lon="11.2758948"><ele>890.0</ele><time>2026-04-11T12:32:13.102Z</time></trkpt><trkpt lat="44.0940674" lon="11.2757798"><ele>890.0</ele><time>2026-04-11T12:32:14.101Z</time></trkpt><trkpt lat="44.0941254" lon="11.2756332"><ele>893.75</ele><time>2026-04-11T12:32:15.102Z</time></trkpt><trkpt lat="44.0941746" lon="11.2754724"><ele>897.5</ele><time>2026-04-11T12:32:16.102Z</time></trkpt><trkpt lat="44.0941955" lon="11.2753094"><ele>901.25</ele><time>2026-04-11T12:32:17.102Z</time></trkpt><trkpt lat="44.0941977" lon="11.2751342"><ele>905.0</ele><time>2026-04-11T12:32:18.102Z</time></trkpt><trkpt lat="44.0941885" lon="11.274949"><ele>905.5</ele><time>2026-04-11T12:32:19.102Z</time></trkpt><trkpt lat="44.0941782" lon="11.2747495"><ele>906.0</ele><time>2026-04-11T12:32:20.102Z</time></trkpt><trkpt lat="44.094168" lon="11.274533"><ele>906.5</ele><time>2026-04-11T12:32:21.102Z</time></trkpt><trkpt lat="44.0941607" lon="11.2743315"><ele>907.0</ele><time>2026-04-11T12:32:22.101Z</time></trkpt><trkpt lat="44.0941502" lon="11.274142"><ele>907.0</ele><time>2026-04-11T12:32:23.102Z</time></trkpt><trkpt lat="44.0941424" lon="11.2739641"><ele>907.0</ele><time>2026-04-11T12:32:24.102Z</time></trkpt><trkpt lat="44.0941403" lon="11.2737976"><ele>907.0</ele><time>2026-04-11T12:32:25.102Z</time></trkpt><trkpt lat="44.094135" lon="11.2736463"><ele>907.0</ele><time>2026-04-11T12:32:26.102Z</time></trkpt><trkpt lat="44.0941303" lon="11.2735045"><ele>907.0</ele><time>2026-04-11T12:32:27.102Z</time></trkpt><trkpt lat="44.0941231" lon="11.2733518"><ele>907.0</ele><time>2026-04-11T12:32:28.1Z</time></trkpt><trkpt lat="44.0941107" lon="11.273184"><ele>907.0</ele><time>2026-04-11T12:32:29.1Z</time></trkpt><trkpt lat="44.0940961" lon="11.2730054"><ele>907.0</ele><time>2026-04-11T12:32:30.101Z</time></trkpt><trkpt lat="44.0940782" lon="11.2728252"><ele>903.25</ele><time>2026-04-11T12:32:31.099Z</time></trkpt><trkpt lat="44.094056" lon="11.2726486"><ele>899.5</ele><time>2026-04-11T12:32:32.1Z</time></trkpt><trkpt lat="44.0940338" lon="11.2724715"><ele>895.75</ele><time>2026-04-11T12:32:33.1Z</time></trkpt><trkpt lat="44.0940125" lon="11.2722948"><ele>892.0</ele><time>2026-04-11T12:32:34.1Z</time></trkpt><trkpt lat="44.0939902" lon="11.2721195"><ele>892.0</ele><time>2026-04-11T12:32:35.101Z</time></trkpt><trkpt lat="44.0939684" lon="11.2719455"><ele>892.0</ele><time>2026-04-11T12:32:36.1Z</time></trkpt><trkpt lat="44.0939467" lon="11.271766"><ele>892.0</ele><time>2026-04-11T12:32:37.1Z</time></trkpt><trkpt lat="44.0939244" lon="11.2715771"><ele>892.0</ele><time>2026-04-11T12:32:38.101Z</time></trkpt><trkpt lat="44.0938993" lon="11.2713826"><ele>891.25</ele><time>2026-04-11T12:32:39.101Z</time></trkpt><trkpt lat="44.0938726" lon="11.2711841"><ele>890.5</ele><time>2026-04-11T12:32:40.101Z</time></trkpt><trkpt lat="44.0938476" lon="11.2709818"><ele>889.75</ele><time>2026-04-11T12:32:41.101Z</time></trkpt><trkpt lat="44.0938253" lon="11.2707795"><ele>889.0</ele><time>2026-04-11T12:32:42.1Z</time></trkpt><trkpt lat="44.0938027" lon="11.2705864"><ele>890.5</ele><time>2026-04-11T12:32:43.1Z</time></trkpt><trkpt lat="44.093779" lon="11.2703993"><ele>892.0</ele><time>2026-04-11T12:32:44.1Z</time></trkpt><trkpt lat="44.0937554" lon="11.2702157"><ele>893.5</ele><time>2026-04-11T12:32:45.101Z</time></trkpt><trkpt lat="44.0937303" lon="11.270026"><ele>895.0</ele><time>2026-04-11T12:32:46.101Z</time></trkpt><trkpt lat="44.093697" lon="11.2698316"><ele>896.5</ele><time>2026-04-11T12:32:47.101Z</time></trkpt><trkpt lat="44.0936346" lon="11.2696661"><ele>898.0</ele><time>2026-04-11T12:32:48.101Z</time></trkpt><trkpt lat="44.0935357" lon="11.2695244"><ele>899.5</ele><time>2026-04-11T12:32:49.101Z</time></trkpt><trkpt lat="44.0934099" lon="11.2694217"><ele>901.0</ele><time>2026-04-11T12:32:50.1Z</time></trkpt><trkpt lat="44.0932707" lon="11.2693514"><ele>899.75</ele><time>2026-04-11T12:32:51.1Z</time></trkpt><trkpt lat="44.0931374" lon="11.2692981"><ele>898.5</ele><time>2026-04-11T12:32:52.1Z</time></trkpt><trkpt lat="44.0930128" lon="11.2692505"><ele>897.25</ele><time>2026-04-11T12:32:53.101Z</time></trkpt><trkpt lat="44.092904" lon="11.2692067"><ele>896.0</ele><time>2026-04-11T12:32:54.101Z</time></trkpt><trkpt lat="44.0928038" lon="11.2691686"><ele>896.0000000000001</ele><time>2026-04-11T12:32:55.101Z</time></trkpt><trkpt lat="44.0927227" lon="11.2691446"><ele>896.0</ele><time>2026-04-11T12:32:56.1Z</time></trkpt><trkpt lat="44.092653" lon="11.2691252"><ele>896.0</ele><time>2026-04-11T12:32:57.101Z</time></trkpt><trkpt lat="44.0925407" lon="11.2690943"><ele>896.0</ele><time>2026-04-11T12:32:59.101Z</time></trkpt><trkpt lat="44.0924623" lon="11.2690634"><ele>896.0000000000001</ele><time>2026-04-11T12:33:01.101Z</time></trkpt><trkpt lat="44.0923995" lon="11.2690346"><ele>896.0</ele><time>2026-04-11T12:33:14.1Z</time></trkpt><trkpt lat="44.0923377" lon="11.2690082"><ele>896.6666666666667</ele><time>2026-04-11T12:33:17.1Z</time></trkpt><trkpt lat="44.0922968" lon="11.2689183"><ele>897.3333333333334</ele><time>2026-04-11T12:33:21.1Z</time></trkpt><trkpt lat="44.0923051" lon="11.2688254"><ele>898.0</ele><time>2026-04-11T12:33:23.101Z</time></trkpt><trkpt lat="44.0923484" lon="11.2687504"><ele>898.6666666666667</ele><time>2026-04-11T12:33:25.101Z</time></trkpt><trkpt lat="44.0924195" lon="11.2686798"><ele>899.3333333333334</ele><time>2026-04-11T12:33:27.101Z</time></trkpt><trkpt lat="44.0924945" lon="11.2686327"><ele>900.0</ele><time>2026-04-11T12:33:29.1Z</time></trkpt><trkpt lat="44.0925702" lon="11.2685732"><ele>900.0</ele><time>2026-04-11T12:33:31.101Z</time></trkpt><trkpt lat="44.0926234" lon="11.2684749"><ele>900.0</ele><time>2026-04-11T12:33:33.1Z</time></trkpt><trkpt lat="44.0925743" lon="11.2683688"><ele>900.0</ele><time>2026-04-11T12:33:36.1Z</time></trkpt><trkpt lat="44.0924359" lon="11.268326"><ele>900.0</ele><time>2026-04-11T12:33:38.1Z</time></trkpt><trkpt lat="44.0923605" lon="11.2683049"><ele>900.0</ele><time>2026-04-11T12:33:39.1Z</time></trkpt><trkpt lat="44.092254" lon="11.2682738"><ele>900.5</ele><time>2026-04-11T12:33:41.101Z</time></trkpt><trkpt lat="44.0921753" lon="11.2682535"><ele>901.0</ele><time>2026-04-11T12:33:43.101Z</time></trkpt><trkpt lat="44.0921112" lon="11.2682626"><ele>901.5</ele><time>2026-04-11T12:33:45.099Z</time></trkpt><trkpt lat="44.0920322" lon="11.2682561"><ele>902.0</ele><time>2026-04-11T12:33:49.1Z</time></trkpt><trkpt lat="44.0919484" lon="11.2682259"><ele>902.5</ele><time>2026-04-11T12:33:51.1Z</time></trkpt><trkpt lat="44.0918284" lon="11.2681989"><ele>903.0</ele><time>2026-04-11T12:33:53.101Z</time></trkpt><trkpt lat="44.0917614" lon="11.2681851"><ele>903.0</ele><time>2026-04-11T12:33:54.1Z</time></trkpt><trkpt lat="44.0916807" lon="11.2681666"><ele>903.0</ele><time>2026-04-11T12:33:55.101Z</time></trkpt><trkpt lat="44.0915921" lon="11.2681507"><ele>903.0</ele><time>2026-04-11T12:33:56.101Z</time></trkpt><trkpt lat="44.0915054" lon="11.2681399"><ele>903.0</ele><time>2026-04-11T12:33:57.1Z</time></trkpt><trkpt lat="44.0914263" lon="11.2681253"><ele>903.0</ele><time>2026-04-11T12:33:58.101Z</time></trkpt><trkpt lat="44.0913612" lon="11.2681055"><ele>903.0</ele><time>2026-04-11T12:33:59.1Z</time></trkpt><trkpt lat="44.0912575" lon="11.2680057"><ele>901.6666666666666</ele><time>2026-04-11T12:34:01.101Z</time></trkpt><trkpt lat="44.091212" lon="11.2679266"><ele>900.3333333333333</ele><time>2026-04-11T12:34:02.1Z</time></trkpt><trkpt lat="44.0911781" lon="11.2678222"><ele>899.0</ele><time>2026-04-11T12:34:03.1Z</time></trkpt><trkpt lat="44.0911473" lon="11.2677239"><ele>897.6666666666666</ele><time>2026-04-11T12:34:04.1Z</time></trkpt><trkpt lat="44.0911176" lon="11.2675839"><ele>896.3333333333333</ele><time>2026-04-11T12:34:05.101Z</time></trkpt><trkpt lat="44.0910872" lon="11.2674474"><ele>895.0</ele><time>2026-04-11T12:34:06.1Z</time></trkpt><trkpt lat="44.0910494" lon="11.2672989"><ele>895.2</ele><time>2026-04-11T12:34:07.101Z</time></trkpt><trkpt lat="44.0910114" lon="11.2671414"><ele>895.4</ele><time>2026-04-11T12:34:08.1Z</time></trkpt><trkpt lat="44.0909659" lon="11.2669823"><ele>895.5999999999999</ele><time>2026-04-11T12:34:09.101Z</time></trkpt><trkpt lat="44.0909187" lon="11.2668462"><ele>895.8</ele><time>2026-04-11T12:34:10.101Z</time></trkpt><trkpt lat="44.090868" lon="11.2667291"><ele>896.0</ele><time>2026-04-11T12:34:11.1Z</time></trkpt><trkpt lat="44.0908075" lon="11.2666166"><ele>894.1666666666667</ele><time>2026-04-11T12:34:12.1Z</time></trkpt><trkpt lat="44.0907506" lon="11.2665063"><ele>892.3333333333334</ele><time>2026-04-11T12:34:13.101Z</time></trkpt><trkpt lat="44.0906971" lon="11.2664058"><ele>890.5</ele><time>2026-04-11T12:34:14.1Z</time></trkpt><trkpt lat="44.0906382" lon="11.2663209"><ele>888.6666666666667</ele><time>2026-04-11T12:34:15.101Z</time></trkpt><trkpt lat="44.0905773" lon="11.2662447"><ele>886.8333333333334</ele><time>2026-04-11T12:34:16.101Z</time></trkpt><trkpt lat="44.0905181" lon="11.2661546"><ele>885.0</ele><time>2026-04-11T12:34:17.101Z</time></trkpt><trkpt lat="44.0904752" lon="11.2660558"><ele>885.0</ele><time>2026-04-11T12:34:18.101Z</time></trkpt><trkpt lat="44.0904323" lon="11.2659582"><ele>885.0</ele><time>2026-04-11T12:34:19.101Z</time></trkpt><trkpt lat="44.0903741" lon="11.2658615"><ele>885.0</ele><time>2026-04-11T12:34:20.101Z</time></trkpt><trkpt lat="44.090319" lon="11.2657632"><ele>885.0</ele><time>2026-04-11T12:34:21.101Z</time></trkpt><trkpt lat="44.090274" lon="11.2656595"><ele>885.0</ele><time>2026-04-11T12:34:22.101Z</time></trkpt><trkpt lat="44.0902391" lon="11.2655574"><ele>885.0</ele><time>2026-04-11T12:34:23.101Z</time></trkpt><trkpt lat="44.0902083" lon="11.2654598"><ele>884.4285714285714</ele><time>2026-04-11T12:34:24.101Z</time></trkpt><trkpt lat="44.0901703" lon="11.2653723"><ele>883.8571428571429</ele><time>2026-04-11T12:34:25.1Z</time></trkpt><trkpt lat="44.0901201" lon="11.2653097"><ele>883.2857142857142</ele><time>2026-04-11T12:34:26.1Z</time></trkpt><trkpt lat="44.090068" lon="11.2652563"><ele>882.7142857142858</ele><time>2026-04-11T12:34:27.1Z</time></trkpt><trkpt lat="44.0900076" lon="11.2652228"><ele>882.1428571428572</ele><time>2026-04-11T12:34:28.1Z</time></trkpt><trkpt lat="44.0899317" lon="11.2651936"><ele>881.5714285714286</ele><time>2026-04-11T12:34:29.1Z</time></trkpt><trkpt lat="44.0898602" lon="11.2651493"><ele>881.0</ele><time>2026-04-11T12:34:30.101Z</time></trkpt><trkpt lat="44.0897816" lon="11.2650698"><ele>880.3333333333334</ele><time>2026-04-11T12:34:31.101Z</time></trkpt><trkpt lat="44.0897191" lon="11.2649842"><ele>879.6666666666667</ele><time>2026-04-11T12:34:32.101Z</time></trkpt><trkpt lat="44.0896737" lon="11.2648889"><ele>879.0</ele><time>2026-04-11T12:34:33.1Z</time></trkpt><trkpt lat="44.0896412" lon="11.2647773"><ele>878.3333333333333</ele><time>2026-04-11T12:34:34.101Z</time></trkpt><trkpt lat="44.0896037" lon="11.2646701"><ele>877.6666666666666</ele><time>2026-04-11T12:34:35.101Z</time></trkpt><trkpt lat="44.0895776" lon="11.2645515"><ele>877.0</ele><time>2026-04-11T12:34:36.101Z</time></trkpt><trkpt lat="44.089545" lon="11.2644382"><ele>875.6</ele><time>2026-04-11T12:34:37.1Z</time></trkpt><trkpt lat="44.0895175" lon="11.2643361"><ele>874.2</ele><time>2026-04-11T12:34:38.101Z</time></trkpt><trkpt lat="44.089484" lon="11.2642227"><ele>872.8</ele><time>2026-04-11T12:34:39.101Z</time></trkpt><trkpt lat="44.089447" lon="11.264103"><ele>871.4</ele><time>2026-04-11T12:34:40.101Z</time></trkpt><trkpt lat="44.0894589" lon="11.2639724"><ele>870.0</ele><time>2026-04-11T12:34:41.101Z</time></trkpt><trkpt lat="44.0894397" lon="11.2638181"><ele>869.0</ele><time>2026-04-11T12:34:42.1Z</time></trkpt><trkpt lat="44.0894398" lon="11.263668"><ele>868.0</ele><time>2026-04-11T12:34:43.101Z</time></trkpt><trkpt lat="44.0894295" lon="11.2635026"><ele>867.0</ele><time>2026-04-11T12:34:44.1Z</time></trkpt><trkpt lat="44.0894234" lon="11.2633501"><ele>866.0</ele><time>2026-04-11T12:34:45.101Z</time></trkpt><trkpt lat="44.0894122" lon="11.2632048"><ele>865.0</ele><time>2026-04-11T12:34:46.101Z</time></trkpt><trkpt lat="44.0893991" lon="11.2630607"><ele>865.0</ele><time>2026-04-11T12:34:47.101Z</time></trkpt><trkpt lat="44.0893994" lon="11.262934"><ele>865.0</ele><time>2026-04-11T12:34:48.101Z</time></trkpt><trkpt lat="44.0894004" lon="11.262808"><ele>865.0</ele><time>2026-04-11T12:34:49.1Z</time></trkpt><trkpt lat="44.0894114" lon="11.2626735"><ele>865.0</ele><time>2026-04-11T12:34:50.101Z</time></trkpt><trkpt lat="44.0894318" lon="11.2625441"><ele>865.0</ele><time>2026-04-11T12:34:51.101Z</time></trkpt><trkpt lat="44.0894538" lon="11.2624149"><ele>865.8</ele><time>2026-04-11T12:34:52.101Z</time></trkpt><trkpt lat="44.0894686" lon="11.2622631"><ele>866.6</ele><time>2026-04-11T12:34:53.101Z</time></trkpt><trkpt lat="44.08948" lon="11.2621038"><ele>867.4000000000001</ele><time>2026-04-11T12:34:54.101Z</time></trkpt><trkpt lat="44.0894879" lon="11.2619639"><ele>868.2</ele><time>2026-04-11T12:34:55.101Z</time></trkpt><trkpt lat="44.0894836" lon="11.2618309"><ele>869.0</ele><time>2026-04-11T12:34:56.1Z</time></trkpt><trkpt lat="44.089474" lon="11.2616978"><ele>869.0</ele><time>2026-04-11T12:34:57.099Z</time></trkpt><trkpt lat="44.0894679" lon="11.261566"><ele>869.0000000000001</ele><time>2026-04-11T12:34:58.1Z</time></trkpt><trkpt lat="44.0894687" lon="11.2614207"><ele>869.0000000000001</ele><time>2026-04-11T12:34:59.1Z</time></trkpt><trkpt lat="44.0894884" lon="11.2612869"><ele>869.0</ele><time>2026-04-11T12:35:00.1Z</time></trkpt><trkpt lat="44.0895221" lon="11.261164"><ele>869.0</ele><time>2026-04-11T12:35:01.1Z</time></trkpt><trkpt lat="44.0895616" lon="11.2610533"><ele>869.5000000000001</ele><time>2026-04-11T12:35:02.101Z</time></trkpt><trkpt lat="44.0896062" lon="11.2609534"><ele>870.0</ele><time>2026-04-11T12:35:03.101Z</time></trkpt><trkpt lat="44.089655" lon="11.2608608"><ele>870.5</ele><time>2026-04-11T12:35:04.1Z</time></trkpt><trkpt lat="44.0897057" lon="11.2607733"><ele>871.0</ele><time>2026-04-11T12:35:05.101Z</time></trkpt><trkpt lat="44.0897795" lon="11.2606991"><ele>871.5000000000001</ele><time>2026-04-11T12:35:06.101Z</time></trkpt><trkpt lat="44.0898402" lon="11.260619"><ele>872.0</ele><time>2026-04-11T12:35:07.101Z</time></trkpt><trkpt lat="44.0898883" lon="11.2605367"><ele>870.6666666666667</ele><time>2026-04-11T12:35:08.101Z</time></trkpt><trkpt lat="44.0899273" lon="11.260448"><ele>869.3333333333334</ele><time>2026-04-11T12:35:09.101Z</time></trkpt><trkpt lat="44.0899413" lon="11.2603571"><ele>868.0</ele><time>2026-04-11T12:35:10.101Z</time></trkpt><trkpt lat="44.0899433" lon="11.2602653"><ele>866.6666666666667</ele><time>2026-04-11T12:35:11.101Z</time></trkpt><trkpt lat="44.0899141" lon="11.2601521"><ele>865.3333333333334</ele><time>2026-04-11T12:35:12.101Z</time></trkpt><trkpt lat="44.0898658" lon="11.2600357"><ele>864.0</ele><time>2026-04-11T12:35:13.101Z</time></trkpt><trkpt lat="44.0898047" lon="11.2599249"><ele>864.0</ele><time>2026-04-11T12:35:14.101Z</time></trkpt><trkpt lat="44.0897189" lon="11.2598306"><ele>864.0000000000001</ele><time>2026-04-11T12:35:15.101Z</time></trkpt><trkpt lat="44.089631" lon="11.259743"><ele>864.0000000000001</ele><time>2026-04-11T12:35:16.101Z</time></trkpt><trkpt lat="44.0895427" lon="11.2596529"><ele>864.0</ele><time>2026-04-11T12:35:17.101Z</time></trkpt><trkpt lat="44.0894519" lon="11.2595778"><ele>864.0</ele><time>2026-04-11T12:35:18.101Z</time></trkpt><trkpt lat="44.089371" lon="11.259487"><ele>862.0</ele><time>2026-04-11T12:35:19.101Z</time></trkpt><trkpt lat="44.0892996" lon="11.2593997"><ele>860.0</ele><time>2026-04-11T12:35:20.1Z</time></trkpt><trkpt lat="44.0892431" lon="11.2593074"><ele>858.0</ele><time>2026-04-11T12:35:21.1Z</time></trkpt><trkpt lat="44.0891984" lon="11.2592304"><ele>856.0</ele><time>2026-04-11T12:35:22.101Z</time></trkpt><trkpt lat="44.0891547" lon="11.259154"><ele>854.0</ele><time>2026-04-11T12:35:23.101Z</time></trkpt><trkpt lat="44.0891148" lon="11.259074"><ele>852.0</ele><time>2026-04-11T12:35:24.101Z</time></trkpt><trkpt lat="44.0890929" lon="11.2589694"><ele>850.2</ele><time>2026-04-11T12:35:25.101Z</time></trkpt><trkpt lat="44.0890723" lon="11.258861"><ele>848.4000000000001</ele><time>2026-04-11T12:35:26.101Z</time></trkpt><trkpt lat="44.0890571" lon="11.25873"><ele>846.5999999999999</ele><time>2026-04-11T12:35:27.1Z</time></trkpt><trkpt lat="44.0890502" lon="11.2585824"><ele>844.8</ele><time>2026-04-11T12:35:28.101Z</time></trkpt><trkpt lat="44.0890512" lon="11.2584349"><ele>843.0</ele><time>2026-04-11T12:35:29.101Z</time></trkpt><trkpt lat="44.0890468" lon="11.2582986"><ele>843.0</ele><time>2026-04-11T12:35:30.1Z</time></trkpt><trkpt lat="44.0890389" lon="11.2581692"><ele>843.0</ele><time>2026-04-11T12:35:31.101Z</time></trkpt><trkpt lat="44.0890325" lon="11.2580385"><ele>843.0</ele><time>2026-04-11T12:35:32.101Z</time></trkpt><trkpt lat="44.0890035" lon="11.2579106"><ele>843.0</ele><time>2026-04-11T12:35:33.101Z</time></trkpt><trkpt lat="44.0889716" lon="11.2577855"><ele>843.0</ele><time>2026-04-11T12:35:34.099Z</time></trkpt><trkpt lat="44.0889476" lon="11.2576562"><ele>839.8</ele><time>2026-04-11T12:35:35.101Z</time></trkpt><trkpt lat="44.0889388" lon="11.257525"><ele>836.5999999999999</ele><time>2026-04-11T12:35:36.1Z</time></trkpt><trkpt lat="44.0889434" lon="11.2573809"><ele>833.4000000000001</ele><time>2026-04-11T12:35:37.1Z</time></trkpt><trkpt lat="44.0889664" lon="11.2572324"><ele>830.2</ele><time>2026-04-11T12:35:38.101Z</time></trkpt><trkpt lat="44.0890066" lon="11.2570881"><ele>827.0</ele><time>2026-04-11T12:35:39.1Z</time></trkpt><trkpt lat="44.0890451" lon="11.2569499"><ele>825.0</ele><time>2026-04-11T12:35:40.1Z</time></trkpt><trkpt lat="44.0890643" lon="11.2568027"><ele>823.0</ele><time>2026-04-11T12:35:41.101Z</time></trkpt><trkpt lat="44.0890739" lon="11.2566348"><ele>821.0</ele><time>2026-04-11T12:35:42.101Z</time></trkpt><trkpt lat="44.0890755" lon="11.2564745"><ele>819.0</ele><time>2026-04-11T12:35:43.101Z</time></trkpt><trkpt lat="44.0890868" lon="11.2563186"><ele>818.8000000000001</ele><time>2026-04-11T12:35:44.101Z</time></trkpt><trkpt lat="44.0891024" lon="11.2561697"><ele>818.6</ele><time>2026-04-11T12:35:45.1Z</time></trkpt><trkpt lat="44.0891274" lon="11.2560289"><ele>818.4</ele><time>2026-04-11T12:35:46.1Z</time></trkpt><trkpt lat="44.0891547" lon="11.2558897"><ele>818.2</ele><time>2026-04-11T12:35:47.101Z</time></trkpt><trkpt lat="44.0891905" lon="11.2557499"><ele>818.0</ele><time>2026-04-11T12:35:48.1Z</time></trkpt><trkpt lat="44.0892258" lon="11.2556107"><ele>818.0</ele><time>2026-04-11T12:35:49.1Z</time></trkpt><trkpt lat="44.0892791" lon="11.2554755"><ele>818.0</ele><time>2026-04-11T12:35:50.101Z</time></trkpt><trkpt lat="44.0893403" lon="11.2553623"><ele>818.0</ele><time>2026-04-11T12:35:51.1Z</time></trkpt><trkpt lat="44.0894016" lon="11.2552434"><ele>818.0</ele><time>2026-04-11T12:35:52.101Z</time></trkpt><trkpt lat="44.089457" lon="11.2551508"><ele>818.0</ele><time>2026-04-11T12:35:53.101Z</time></trkpt><trkpt lat="44.0895074" lon="11.2550578"><ele>818.0000000000001</ele><time>2026-04-11T12:35:54.1Z</time></trkpt><trkpt lat="44.0895518" lon="11.2549642"><ele>818.0</ele><time>2026-04-11T12:35:55.101Z</time></trkpt><trkpt lat="44.0895973" lon="11.2548526"><ele>818.0</ele><time>2026-04-11T12:35:56.101Z</time></trkpt><trkpt lat="44.0896291" lon="11.2547351"><ele>818.0</ele><time>2026-04-11T12:35:57.101Z</time></trkpt><trkpt lat="44.0896626" lon="11.25463"><ele>818.0000000000001</ele><time>2026-04-11T12:35:58.101Z</time></trkpt><trkpt lat="44.0896901" lon="11.2545198"><ele>818.0</ele><time>2026-04-11T12:35:59.101Z</time></trkpt><trkpt lat="44.0897236" lon="11.2544219"><ele>816.7142857142857</ele><time>2026-04-11T12:36:00.1Z</time></trkpt><trkpt lat="44.089758" lon="11.2543308"><ele>815.4285714285714</ele><time>2026-04-11T12:36:01.1Z</time></trkpt><trkpt lat="44.0897878" lon="11.2542371"><ele>814.1428571428571</ele><time>2026-04-11T12:36:02.1Z</time></trkpt><trkpt lat="44.0898098" lon="11.2541396"><ele>812.8571428571429</ele><time>2026-04-11T12:36:03.1Z</time></trkpt><trkpt lat="44.0898235" lon="11.2540526"><ele>811.5714285714287</ele><time>2026-04-11T12:36:04.1Z</time></trkpt><trkpt lat="44.0898311" lon="11.25396"><ele>810.2857142857143</ele><time>2026-04-11T12:36:05.1Z</time></trkpt><trkpt lat="44.0898429" lon="11.2538566"><ele>809.0</ele><time>2026-04-11T12:36:06.1Z</time></trkpt><trkpt lat="44.0898555" lon="11.2537373"><ele>808.0000000000001</ele><time>2026-04-11T12:36:07.101Z</time></trkpt><trkpt lat="44.0898744" lon="11.2536208"><ele>807.0</ele><time>2026-04-11T12:36:08.101Z</time></trkpt><trkpt lat="44.0898753" lon="11.2534934"><ele>806.0</ele><time>2026-04-11T12:36:09.101Z</time></trkpt><trkpt lat="44.0898737" lon="11.25338"><ele>805.0</ele><time>2026-04-11T12:36:10.1Z</time></trkpt><trkpt lat="44.0898624" lon="11.2532653"><ele>804.0000000000001</ele><time>2026-04-11T12:36:11.1Z</time></trkpt><trkpt lat="44.0898447" lon="11.2531677"><ele>803.0</ele><time>2026-04-11T12:36:12.101Z</time></trkpt><trkpt lat="44.0898027" lon="11.2530125"><ele>802.6666666666667</ele><time>2026-04-11T12:36:14.101Z</time></trkpt><trkpt lat="44.0897774" lon="11.2529226"><ele>802.3333333333334</ele><time>2026-04-11T12:36:15.1Z</time></trkpt><trkpt lat="44.0897507" lon="11.25284"><ele>802.0</ele><time>2026-04-11T12:36:16.1Z</time></trkpt><trkpt lat="44.089695" lon="11.2526966"><ele>801.6666666666667</ele><time>2026-04-11T12:36:18.1Z</time></trkpt><trkpt lat="44.0896623" lon="11.2526119"><ele>801.3333333333334</ele><time>2026-04-11T12:36:19.101Z</time></trkpt><trkpt lat="44.0896367" lon="11.252444"><ele>801.0</ele><time>2026-04-11T12:36:21.1Z</time></trkpt><trkpt lat="44.0896492" lon="11.2523522"><ele>801.1666666666666</ele><time>2026-04-11T12:36:22.101Z</time></trkpt><trkpt lat="44.0896628" lon="11.2522586"><ele>801.3333333333333</ele><time>2026-04-11T12:36:23.1Z</time></trkpt><trkpt lat="44.0896783" lon="11.2521657"><ele>801.5</ele><time>2026-04-11T12:36:24.1Z</time></trkpt><trkpt lat="44.0897028" lon="11.2520763"><ele>801.6666666666666</ele><time>2026-04-11T12:36:25.101Z</time></trkpt><trkpt lat="44.0897296" lon="11.2519854"><ele>801.8333333333333</ele><time>2026-04-11T12:36:26.1Z</time></trkpt><trkpt lat="44.0897566" lon="11.251905"><ele>802.0</ele><time>2026-04-11T12:36:27.1Z</time></trkpt><trkpt lat="44.0898061" lon="11.2517498"><ele>801.9999999999999</ele><time>2026-04-11T12:36:29.101Z</time></trkpt><trkpt lat="44.0898414" lon="11.2516658"><ele>802.0</ele><time>2026-04-11T12:36:31.101Z</time></trkpt><trkpt lat="44.0898975" lon="11.2515758"><ele>802.0</ele><time>2026-04-11T12:36:34.1Z</time></trkpt><trkpt lat="44.0899446" lon="11.2514844"><ele>802.0</ele><time>2026-04-11T12:36:37.1Z</time></trkpt><trkpt lat="44.0899746" lon="11.2514068"><ele>801.9999999999999</ele><time>2026-04-11T12:36:39.101Z</time></trkpt><trkpt lat="44.0899653" lon="11.2512601"><ele>802.0</ele><time>2026-04-11T12:36:41.101Z</time></trkpt><trkpt lat="44.0899401" lon="11.2511713"><ele>801.8333333333333</ele><time>2026-04-11T12:36:42.101Z</time></trkpt><trkpt lat="44.0898998" lon="11.2510744"><ele>801.6666666666666</ele><time>2026-04-11T12:36:43.101Z</time></trkpt><trkpt lat="44.0898488" lon="11.2509854"><ele>801.5</ele><time>2026-04-11T12:36:44.1Z</time></trkpt><trkpt lat="44.0897795" lon="11.2509039"><ele>801.3333333333333</ele><time>2026-04-11T12:36:45.101Z</time></trkpt><trkpt lat="44.0897057" lon="11.2508441"><ele>801.1666666666666</ele><time>2026-04-11T12:36:46.101Z</time></trkpt><trkpt lat="44.089627" lon="11.2507968"><ele>801.0</ele><time>2026-04-11T12:36:47.101Z</time></trkpt><trkpt lat="44.0895422" lon="11.2507507"><ele>801.0</ele><time>2026-04-11T12:36:48.1Z</time></trkpt><trkpt lat="44.089453" lon="11.2506899"><ele>801.0</ele><time>2026-04-11T12:36:49.1Z</time></trkpt><trkpt lat="44.0893513" lon="11.250627"><ele>801.0</ele><time>2026-04-11T12:36:50.101Z</time></trkpt><trkpt lat="44.0892363" lon="11.2505503"><ele>801.0</ele><time>2026-04-11T12:36:51.101Z</time></trkpt><trkpt lat="44.0891224" lon="11.2504612"><ele>800.25</ele><time>2026-04-11T12:36:52.101Z</time></trkpt><trkpt lat="44.088996" lon="11.2503695"><ele>799.5</ele><time>2026-04-11T12:36:53.1Z</time></trkpt><trkpt lat="44.0888791" lon="11.2502895"><ele>798.75</ele><time>2026-04-11T12:36:54.101Z</time></trkpt><trkpt lat="44.0887639" lon="11.2502189"><ele>798.0</ele><time>2026-04-11T12:36:55.101Z</time></trkpt><trkpt lat="44.0886472" lon="11.2501431"><ele>798.0</ele><time>2026-04-11T12:36:56.1Z</time></trkpt><trkpt lat="44.0885344" lon="11.2500731"><ele>798.0</ele><time>2026-04-11T12:36:57.101Z</time></trkpt><trkpt lat="44.0884153" lon="11.2500207"><ele>798.0</ele><time>2026-04-11T12:36:58.1Z</time></trkpt><trkpt lat="44.0883077" lon="11.2499538"><ele>798.0</ele><time>2026-04-11T12:36:59.1Z</time></trkpt><trkpt lat="44.088208" lon="11.249892"><ele>798.2</ele><time>2026-04-11T12:37:00.099Z</time></trkpt><trkpt lat="44.0881135" lon="11.2498389"><ele>798.4</ele><time>2026-04-11T12:37:01.1Z</time></trkpt><trkpt lat="44.0880167" lon="11.2497918"><ele>798.6</ele><time>2026-04-11T12:37:02.1Z</time></trkpt><trkpt lat="44.0879255" lon="11.2497461"><ele>798.8000000000001</ele><time>2026-04-11T12:37:03.101Z</time></trkpt><trkpt lat="44.0878272" lon="11.2496951"><ele>799.0</ele><time>2026-04-11T12:37:04.1Z</time></trkpt><trkpt lat="44.0877255" lon="11.249637"><ele>799.0</ele><time>2026-04-11T12:37:05.101Z</time></trkpt><trkpt lat="44.0876367" lon="11.2495904"><ele>799.0</ele><time>2026-04-11T12:37:06.1Z</time></trkpt><trkpt lat="44.0875522" lon="11.2495427"><ele>799.0</ele><time>2026-04-11T12:37:07.101Z</time></trkpt><trkpt lat="44.0874641" lon="11.2494776"><ele>799.0</ele><time>2026-04-11T12:37:08.101Z</time></trkpt><trkpt lat="44.0873843" lon="11.2494235"><ele>799.0</ele><time>2026-04-11T12:37:09.101Z</time></trkpt><trkpt lat="44.0872728" lon="11.2494008"><ele>796.0</ele><time>2026-04-11T12:37:10.1Z</time></trkpt><trkpt lat="44.0871606" lon="11.2493807"><ele>793.0</ele><time>2026-04-11T12:37:11.1Z</time></trkpt><trkpt lat="44.0870613" lon="11.2493611"><ele>790.0</ele><time>2026-04-11T12:37:12.099Z</time></trkpt><trkpt lat="44.0869634" lon="11.2493568"><ele>787.0</ele><time>2026-04-11T12:37:13.101Z</time></trkpt><trkpt lat="44.0868711" lon="11.2493402"><ele>784.0</ele><time>2026-04-11T12:37:14.101Z</time></trkpt><trkpt lat="44.0867717" lon="11.2493164"><ele>783.9999999999999</ele><time>2026-04-11T12:37:15.101Z</time></trkpt><trkpt lat="44.0866764" lon="11.249299"><ele>784.0</ele><time>2026-04-11T12:37:16.1Z</time></trkpt><trkpt lat="44.0865918" lon="11.2492818"><ele>784.0</ele><time>2026-04-11T12:37:17.1Z</time></trkpt><trkpt lat="44.0865119" lon="11.2492392"><ele>784.0</ele><time>2026-04-11T12:37:18.101Z</time></trkpt><trkpt lat="44.0864326" lon="11.2491749"><ele>783.9999999999999</ele><time>2026-04-11T12:37:19.101Z</time></trkpt><trkpt lat="44.0863799" lon="11.2490744"><ele>784.0</ele><time>2026-04-11T12:37:20.101Z</time></trkpt><trkpt lat="44.0863374" lon="11.2489812"><ele>780.3333333333333</ele><time>2026-04-11T12:37:21.101Z</time></trkpt><trkpt lat="44.0863191" lon="11.2488829"><ele>776.6666666666666</ele><time>2026-04-11T12:37:22.1Z</time></trkpt><trkpt lat="44.0863174" lon="11.2487387"><ele>773.0</ele><time>2026-04-11T12:37:24.101Z</time></trkpt><trkpt lat="44.0863368" lon="11.2486403"><ele>769.3333333333333</ele><time>2026-04-11T12:37:26.1Z</time></trkpt><trkpt lat="44.0863532" lon="11.2485553"><ele>765.6666666666666</ele><time>2026-04-11T12:37:28.099Z</time></trkpt><trkpt lat="44.0863763" lon="11.2484489"><ele>762.0</ele><time>2026-04-11T12:37:30.101Z</time></trkpt><trkpt lat="44.0864027" lon="11.2483382"><ele>762.0</ele><time>2026-04-11T12:37:32.1Z</time></trkpt><trkpt lat="44.0864342" lon="11.2481802"><ele>762.0</ele><time>2026-04-11T12:37:34.101Z</time></trkpt><trkpt lat="44.0864339" lon="11.248089"><ele>762.0</ele><time>2026-04-11T12:37:35.1Z</time></trkpt><trkpt lat="44.0864262" lon="11.2479931"><ele>762.0</ele><time>2026-04-11T12:37:36.1Z</time></trkpt><trkpt lat="44.0864158" lon="11.2478973"><ele>762.0</ele><time>2026-04-11T12:37:37.101Z</time></trkpt><trkpt lat="44.0864071" lon="11.2477796"><ele>762.0</ele><time>2026-04-11T12:37:38.101Z</time></trkpt><trkpt lat="44.0863968" lon="11.2476705"><ele>762.2</ele><time>2026-04-11T12:37:39.1Z</time></trkpt><trkpt lat="44.0863909" lon="11.2475469"><ele>762.4000000000001</ele><time>2026-04-11T12:37:40.1Z</time></trkpt><trkpt lat="44.0863953" lon="11.2474211"><ele>762.5999999999999</ele><time>2026-04-11T12:37:41.101Z</time></trkpt><trkpt lat="44.0864098" lon="11.2472855"><ele>762.8</ele><time>2026-04-11T12:37:42.1Z</time></trkpt><trkpt lat="44.0864208" lon="11.2471356"><ele>763.0</ele><time>2026-04-11T12:37:43.101Z</time></trkpt><trkpt lat="44.0864283" lon="11.2469961"><ele>763.5</ele><time>2026-04-11T12:37:44.101Z</time></trkpt><trkpt lat="44.0864185" lon="11.2468712"><ele>764.0</ele><time>2026-04-11T12:37:45.1Z</time></trkpt><trkpt lat="44.0864011" lon="11.2467552"><ele>764.5</ele><time>2026-04-11T12:37:46.1Z</time></trkpt><trkpt lat="44.0863474" lon="11.2466586"><ele>765.0</ele><time>2026-04-11T12:37:47.101Z</time></trkpt><trkpt lat="44.0862732" lon="11.2465873"><ele>765.5</ele><time>2026-04-11T12:37:48.101Z</time></trkpt><trkpt lat="44.0862024" lon="11.2465549"><ele>766.0</ele><time>2026-04-11T12:37:49.101Z</time></trkpt><trkpt lat="44.0861395" lon="11.2465424"><ele>766.0</ele><time>2026-04-11T12:37:50.101Z</time></trkpt><trkpt lat="44.0860439" lon="11.2465446"><ele>766.0</ele><time>2026-04-11T12:37:52.101Z</time></trkpt><trkpt lat="44.0859697" lon="11.246553"><ele>766.0</ele><time>2026-04-11T12:37:55.1Z</time></trkpt><trkpt lat="44.0858964" lon="11.2465476"><ele>766.0</ele><time>2026-04-11T12:38:02.1Z</time></trkpt><trkpt lat="44.0858026" lon="11.2464659"><ele>766.0</ele><time>2026-04-11T12:38:04.1Z</time></trkpt><trkpt lat="44.085755" lon="11.2464042"><ele>766.0</ele><time>2026-04-11T12:38:05.101Z</time></trkpt><trkpt lat="44.0857091" lon="11.2463439"><ele>765.0</ele><time>2026-04-11T12:38:06.1Z</time></trkpt><trkpt lat="44.0856629" lon="11.2462802"><ele>764.0</ele><time>2026-04-11T12:38:07.101Z</time></trkpt><trkpt lat="44.0856212" lon="11.2462079"><ele>763.0</ele><time>2026-04-11T12:38:08.101Z</time></trkpt><trkpt lat="44.0855685" lon="11.2460477"><ele>762.0</ele><time>2026-04-11T12:38:10.101Z</time></trkpt><trkpt lat="44.0855513" lon="11.245953"><ele>761.0</ele><time>2026-04-11T12:38:11.1Z</time></trkpt><trkpt lat="44.0855442" lon="11.2458514"><ele>760.0</ele><time>2026-04-11T12:38:12.101Z</time></trkpt><trkpt lat="44.0855471" lon="11.2457549"><ele>760.0</ele><time>2026-04-11T12:38:13.1Z</time></trkpt><trkpt lat="44.0855628" lon="11.2456472"><ele>760.0</ele><time>2026-04-11T12:38:14.1Z</time></trkpt><trkpt lat="44.0855973" lon="11.2455346"><ele>760.0</ele><time>2026-04-11T12:38:15.1Z</time></trkpt><trkpt lat="44.0856607" lon="11.2454234"><ele>760.0</ele><time>2026-04-11T12:38:16.101Z</time></trkpt><trkpt lat="44.085742" lon="11.2453232"><ele>760.0</ele><time>2026-04-11T12:38:17.101Z</time></trkpt><trkpt lat="44.0858178" lon="11.245238"><ele>760.6666666666667</ele><time>2026-04-11T12:38:18.101Z</time></trkpt><trkpt lat="44.0858824" lon="11.2451538"><ele>761.3333333333334</ele><time>2026-04-11T12:38:19.1Z</time></trkpt><trkpt lat="44.0859321" lon="11.2450702"><ele>762.0</ele><time>2026-04-11T12:38:20.101Z</time></trkpt><trkpt lat="44.0859678" lon="11.2449799"><ele>762.6666666666666</ele><time>2026-04-11T12:38:21.1Z</time></trkpt><trkpt lat="44.0859967" lon="11.2448736"><ele>763.3333333333333</ele><time>2026-04-11T12:38:22.101Z</time></trkpt><trkpt lat="44.0859979" lon="11.2447324"><ele>764.0</ele><time>2026-04-11T12:38:23.101Z</time></trkpt><trkpt lat="44.0859797" lon="11.2445812"><ele>764.25</ele><time>2026-04-11T12:38:24.101Z</time></trkpt><trkpt lat="44.0859494" lon="11.2444359"><ele>764.5</ele><time>2026-04-11T12:38:25.1Z</time></trkpt><trkpt lat="44.0859178" lon="11.2442794"><ele>764.75</ele><time>2026-04-11T12:38:26.1Z</time></trkpt><trkpt lat="44.0858856" lon="11.2441238"><ele>765.0</ele><time>2026-04-11T12:38:27.101Z</time></trkpt><trkpt lat="44.0858527" lon="11.2439639"><ele>767.25</ele><time>2026-04-11T12:38:28.101Z</time></trkpt><trkpt lat="44.0858133" lon="11.2437869"><ele>769.5</ele><time>2026-04-11T12:38:29.1Z</time></trkpt><trkpt lat="44.085776" lon="11.2436188"><ele>771.75</ele><time>2026-04-11T12:38:30.1Z</time></trkpt><trkpt lat="44.0857388" lon="11.2434677"><ele>774.0</ele><time>2026-04-11T12:38:31.101Z</time></trkpt><trkpt lat="44.0856712" lon="11.243357"><ele>768.75</ele><time>2026-04-11T12:38:32.101Z</time></trkpt><trkpt lat="44.0855726" lon="11.2432849"><ele>763.5</ele><time>2026-04-11T12:38:33.101Z</time></trkpt><trkpt lat="44.0854602" lon="11.2432468"><ele>758.25</ele><time>2026-04-11T12:38:34.101Z</time></trkpt><trkpt lat="44.0853447" lon="11.2432287"><ele>753.0</ele><time>2026-04-11T12:38:35.101Z</time></trkpt><trkpt lat="44.0852287" lon="11.243209"><ele>753.0</ele><time>2026-04-11T12:38:36.1Z</time></trkpt><trkpt lat="44.0851132" lon="11.2431879"><ele>753.0</ele><time>2026-04-11T12:38:37.1Z</time></trkpt><trkpt lat="44.0850041" lon="11.2431711"><ele>753.0</ele><time>2026-04-11T12:38:38.101Z</time></trkpt><trkpt lat="44.0849005" lon="11.2431523"><ele>753.0</ele><time>2026-04-11T12:38:39.101Z</time></trkpt><trkpt lat="44.0848089" lon="11.2431002"><ele>753.0</ele><time>2026-04-11T12:38:40.101Z</time></trkpt><trkpt lat="44.0847268" lon="11.2430123"><ele>750.4</ele><time>2026-04-11T12:38:41.101Z</time></trkpt><trkpt lat="44.0846687" lon="11.2428963"><ele>747.8</ele><time>2026-04-11T12:38:42.1Z</time></trkpt><trkpt lat="44.0846408" lon="11.242771"><ele>745.2</ele><time>2026-04-11T12:38:43.1Z</time></trkpt><trkpt lat="44.0846355" lon="11.242631"><ele>742.6</ele><time>2026-04-11T12:38:44.099Z</time></trkpt><trkpt lat="44.0846326" lon="11.2424895"><ele>740.0</ele><time>2026-04-11T12:38:45.1Z</time></trkpt><trkpt lat="44.0846303" lon="11.2423433"><ele>743.0</ele><time>2026-04-11T12:38:46.1Z</time></trkpt><trkpt lat="44.0845998" lon="11.2421922"><ele>746.0</ele><time>2026-04-11T12:38:47.099Z</time></trkpt><trkpt lat="44.0845351" lon="11.2420691"><ele>749.0</ele><time>2026-04-11T12:38:48.1Z</time></trkpt><trkpt lat="44.0844505" lon="11.2419925"><ele>752.0</ele><time>2026-04-11T12:38:49.1Z</time></trkpt><trkpt lat="44.0843553" lon="11.2419512"><ele>755.0</ele><time>2026-04-11T12:38:50.1Z</time></trkpt><trkpt lat="44.0842374" lon="11.2419413"><ele>755.0</ele><time>2026-04-11T12:38:51.1Z</time></trkpt><trkpt lat="44.0841146" lon="11.2419268"><ele>755.0</ele><time>2026-04-11T12:38:52.099Z</time></trkpt><trkpt lat="44.0839972" lon="11.2419118"><ele>755.0</ele><time>2026-04-11T12:38:53.099Z</time></trkpt><trkpt lat="44.0838781" lon="11.2418666"><ele>755.0</ele><time>2026-04-11T12:38:54.099Z</time></trkpt><trkpt lat="44.0837578" lon="11.241813"><ele>751.5</ele><time>2026-04-11T12:38:55.099Z</time></trkpt><trkpt lat="44.0836387" lon="11.241735"><ele>748.0</ele><time>2026-04-11T12:38:56.1Z</time></trkpt><trkpt lat="44.0835114" lon="11.2416431"><ele>744.5</ele><time>2026-04-11T12:38:57.1Z</time></trkpt><trkpt lat="44.0833746" lon="11.2415539"><ele>741.0</ele><time>2026-04-11T12:38:58.099Z</time></trkpt><trkpt lat="44.0832405" lon="11.2414572"><ele>738.75</ele><time>2026-04-11T12:38:59.1Z</time></trkpt><trkpt lat="44.08311" lon="11.2413593"><ele>736.5</ele><time>2026-04-11T12:39:00.099Z</time></trkpt><trkpt lat="44.0829753" lon="11.2412649"><ele>734.25</ele><time>2026-04-11T12:39:01.1Z</time></trkpt><trkpt lat="44.0828429" lon="11.2411744"><ele>732.0</ele><time>2026-04-11T12:39:02.1Z</time></trkpt><trkpt lat="44.0827215" lon="11.2410834"><ele>732.0</ele><time>2026-04-11T12:39:03.1Z</time></trkpt><trkpt lat="44.082613" lon="11.2409816"><ele>732.0</ele><time>2026-04-11T12:39:04.099Z</time></trkpt><trkpt lat="44.0825354" lon="11.2408406"><ele>732.0</ele><time>2026-04-11T12:39:05.1Z</time></trkpt><trkpt lat="44.0824992" lon="11.2406811"><ele>732.0</ele><time>2026-04-11T12:39:06.099Z</time></trkpt><trkpt lat="44.082505" lon="11.24052"><ele>731.0</ele><time>2026-04-11T12:39:07.099Z</time></trkpt><trkpt lat="44.082557" lon="11.2403664"><ele>730.0</ele><time>2026-04-11T12:39:08.1Z</time></trkpt><trkpt lat="44.0826165" lon="11.2402172"><ele>729.0</ele><time>2026-04-11T12:39:09.1Z</time></trkpt><trkpt lat="44.0826802" lon="11.240085"><ele>728.0</ele><time>2026-04-11T12:39:10.099Z</time></trkpt><trkpt lat="44.0827253" lon="11.2399288"><ele>725.75</ele><time>2026-04-11T12:39:11.099Z</time></trkpt><trkpt lat="44.0827434" lon="11.2397577"><ele>723.5</ele><time>2026-04-11T12:39:12.099Z</time></trkpt><trkpt lat="44.0827442" lon="11.2395783"><ele>721.25</ele><time>2026-04-11T12:39:13.1Z</time></trkpt><trkpt lat="44.0827749" lon="11.2393946"><ele>719.0</ele><time>2026-04-11T12:39:14.1Z</time></trkpt><trkpt lat="44.0828364" lon="11.2392168"><ele>719.0</ele><time>2026-04-11T12:39:15.099Z</time></trkpt><trkpt lat="44.0829357" lon="11.2390916"><ele>719.0</ele><time>2026-04-11T12:39:16.1Z</time></trkpt><trkpt lat="44.0830262" lon="11.2389588"><ele>719.0</ele><time>2026-04-11T12:39:17.1Z</time></trkpt><trkpt lat="44.0831698" lon="11.2389469"><ele>719.0</ele><time>2026-04-11T12:39:18.1Z</time></trkpt><trkpt lat="44.0833057" lon="11.2388845"><ele>719.5</ele><time>2026-04-11T12:39:19.099Z</time></trkpt><trkpt lat="44.0834298" lon="11.2388322"><ele>720.0</ele><time>2026-04-11T12:39:20.099Z</time></trkpt><trkpt lat="44.083555" lon="11.2387718"><ele>720.5</ele><time>2026-04-11T12:39:21.1Z</time></trkpt><trkpt lat="44.0836655" lon="11.2387071"><ele>721.0</ele><time>2026-04-11T12:39:22.1Z</time></trkpt><trkpt lat="44.0837611" lon="11.2386423"><ele>721.0</ele><time>2026-04-11T12:39:23.1Z</time></trkpt><trkpt lat="44.0838479" lon="11.2385783"><ele>721.0</ele><time>2026-04-11T12:39:24.1Z</time></trkpt><trkpt lat="44.0839299" lon="11.2385203"><ele>721.0</ele><time>2026-04-11T12:39:25.1Z</time></trkpt><trkpt lat="44.0840172" lon="11.2384604"><ele>721.0</ele><time>2026-04-11T12:39:26.1Z</time></trkpt><trkpt lat="44.0841024" lon="11.2383951"><ele>721.0</ele><time>2026-04-11T12:39:27.1Z</time></trkpt><trkpt lat="44.0841854" lon="11.2383243"><ele>721.0</ele><time>2026-04-11T12:39:28.099Z</time></trkpt><trkpt lat="44.0842569" lon="11.2382539"><ele>721.0</ele><time>2026-04-11T12:39:29.099Z</time></trkpt><trkpt lat="44.0843367" lon="11.2381862"><ele>721.0</ele><time>2026-04-11T12:39:30.1Z</time></trkpt><trkpt lat="44.0844187" lon="11.2381238"><ele>721.0</ele><time>2026-04-11T12:39:31.1Z</time></trkpt><trkpt lat="44.0845056" lon="11.2380705"><ele>721.0</ele><time>2026-04-11T12:39:32.1Z</time></trkpt><trkpt lat="44.0846028" lon="11.2380274"><ele>721.0</ele><time>2026-04-11T12:39:33.1Z</time></trkpt><trkpt lat="44.0847105" lon="11.2379925"><ele>721.0</ele><time>2026-04-11T12:39:34.099Z</time></trkpt><trkpt lat="44.0848235" lon="11.2379572"><ele>721.0</ele><time>2026-04-11T12:39:35.099Z</time></trkpt><trkpt lat="44.0849362" lon="11.2379015"><ele>721.0</ele><time>2026-04-11T12:39:36.099Z</time></trkpt><trkpt lat="44.0850466" lon="11.2378169"><ele>726.5</ele><time>2026-04-11T12:39:37.1Z</time></trkpt><trkpt lat="44.0851464" lon="11.2377002"><ele>732.0</ele><time>2026-04-11T12:39:38.1Z</time></trkpt><trkpt lat="44.0852384" lon="11.2375447"><ele>737.5</ele><time>2026-04-11T12:39:39.1Z</time></trkpt><trkpt lat="44.0853342" lon="11.2373757"><ele>743.0</ele><time>2026-04-11T12:39:40.1Z</time></trkpt><trkpt lat="44.0854312" lon="11.2372372"><ele>743.0</ele><time>2026-04-11T12:39:41.1Z</time></trkpt><trkpt lat="44.0855171" lon="11.2371098"><ele>743.0</ele><time>2026-04-11T12:39:42.099Z</time></trkpt><trkpt lat="44.0855795" lon="11.2369646"><ele>743.0</ele><time>2026-04-11T12:39:43.099Z</time></trkpt><trkpt lat="44.0855911" lon="11.2367882"><ele>743.0</ele><time>2026-04-11T12:39:44.1Z</time></trkpt><trkpt lat="44.0855677" lon="11.2366008"><ele>744.25</ele><time>2026-04-11T12:39:45.1Z</time></trkpt><trkpt lat="44.0855251" lon="11.236416"><ele>745.5</ele><time>2026-04-11T12:39:46.1Z</time></trkpt><trkpt lat="44.0854823" lon="11.2362516"><ele>746.75</ele><time>2026-04-11T12:39:47.099Z</time></trkpt><trkpt lat="44.0854383" lon="11.2360888"><ele>748.0</ele><time>2026-04-11T12:39:48.1Z</time></trkpt><trkpt lat="44.0853939" lon="11.2359173"><ele>748.0</ele><time>2026-04-11T12:39:49.099Z</time></trkpt><trkpt lat="44.0853445" lon="11.2357511"><ele>748.0</ele><time>2026-04-11T12:39:50.099Z</time></trkpt><trkpt lat="44.0853065" lon="11.235575"><ele>748.0</ele><time>2026-04-11T12:39:51.099Z</time></trkpt><trkpt lat="44.0852677" lon="11.2353961"><ele>748.0</ele><time>2026-04-11T12:39:52.1Z</time></trkpt><trkpt lat="44.0852241" lon="11.2352177"><ele>751.5</ele><time>2026-04-11T12:39:53.099Z</time></trkpt><trkpt lat="44.0851829" lon="11.235043"><ele>755.0</ele><time>2026-04-11T12:39:54.099Z</time></trkpt><trkpt lat="44.0851446" lon="11.2348741"><ele>758.5</ele><time>2026-04-11T12:39:55.1Z</time></trkpt><trkpt lat="44.085119" lon="11.2347219"><ele>762.0</ele><time>2026-04-11T12:39:56.1Z</time></trkpt><trkpt lat="44.085103" lon="11.2345829"><ele>762.0</ele><time>2026-04-11T12:39:57.1Z</time></trkpt><trkpt lat="44.0851006" lon="11.2344375"><ele>762.0</ele><time>2026-04-11T12:39:58.099Z</time></trkpt><trkpt lat="44.0851152" lon="11.2342831"><ele>762.0</ele><time>2026-04-11T12:39:59.099Z</time></trkpt><trkpt lat="44.0851504" lon="11.234128"><ele>762.0</ele><time>2026-04-11T12:40:00.1Z</time></trkpt><trkpt lat="44.0852021" lon="11.2339658"><ele>762.0</ele><time>2026-04-11T12:40:01.1Z</time></trkpt><trkpt lat="44.085268" lon="11.2337983"><ele>762.0</ele><time>2026-04-11T12:40:02.099Z</time></trkpt><trkpt lat="44.085342" lon="11.2336263"><ele>762.0</ele><time>2026-04-11T12:40:03.1Z</time></trkpt><trkpt lat="44.0854031" lon="11.2334746"><ele>762.0</ele><time>2026-04-11T12:40:04.1Z</time></trkpt><trkpt lat="44.0854569" lon="11.2333349"><ele>762.0</ele><time>2026-04-11T12:40:05.1Z</time></trkpt><trkpt lat="44.0855094" lon="11.2331999"><ele>762.0</ele><time>2026-04-11T12:40:06.1Z</time></trkpt><trkpt lat="44.085568" lon="11.2330562"><ele>762.0</ele><time>2026-04-11T12:40:07.099Z</time></trkpt><trkpt lat="44.0856298" lon="11.2329077"><ele>762.0</ele><time>2026-04-11T12:40:08.099Z</time></trkpt><trkpt lat="44.0856925" lon="11.2327495"><ele>762.0</ele><time>2026-04-11T12:40:09.1Z</time></trkpt><trkpt lat="44.0857565" lon="11.2325977"><ele>762.0</ele><time>2026-04-11T12:40:10.098Z</time></trkpt><trkpt lat="44.085824" lon="11.2324464"><ele>762.0</ele><time>2026-04-11T12:40:11.099Z</time></trkpt><trkpt lat="44.085881" lon="11.2323064"><ele>762.0</ele><time>2026-04-11T12:40:12.1Z</time></trkpt><trkpt lat="44.0859338" lon="11.2321686"><ele>765.0</ele><time>2026-04-11T12:40:13.1Z</time></trkpt><trkpt lat="44.0859801" lon="11.2320441"><ele>768.0</ele><time>2026-04-11T12:40:14.098Z</time></trkpt><trkpt lat="44.0860266" lon="11.231928"><ele>771.0</ele><time>2026-04-11T12:40:15.1Z</time></trkpt><trkpt lat="44.0860795" lon="11.2318085"><ele>774.0</ele><time>2026-04-11T12:40:16.1Z</time></trkpt><trkpt lat="44.0861328" lon="11.2316864"><ele>777.0</ele><time>2026-04-11T12:40:17.1Z</time></trkpt><trkpt lat="44.0861934" lon="11.23155"><ele>775.5</ele><time>2026-04-11T12:40:18.099Z</time></trkpt><trkpt lat="44.0862545" lon="11.2313961"><ele>774.0</ele><time>2026-04-11T12:40:19.1Z</time></trkpt><trkpt lat="44.0863188" lon="11.2312222"><ele>772.5</ele><time>2026-04-11T12:40:20.099Z</time></trkpt><trkpt lat="44.08639" lon="11.2310376"><ele>771.0</ele><time>2026-04-11T12:40:21.099Z</time></trkpt><trkpt lat="44.086462" lon="11.2308523"><ele>771.0</ele><time>2026-04-11T12:40:22.1Z</time></trkpt><trkpt lat="44.0865393" lon="11.2306592"><ele>771.0</ele><time>2026-04-11T12:40:23.1Z</time></trkpt><trkpt lat="44.0866215" lon="11.2304611"><ele>771.0</ele><time>2026-04-11T12:40:24.099Z</time></trkpt><trkpt lat="44.0867079" lon="11.2302666"><ele>773.5</ele><time>2026-04-11T12:40:25.1Z</time></trkpt><trkpt lat="44.0867873" lon="11.2300906"><ele>776.0</ele><time>2026-04-11T12:40:26.1Z</time></trkpt><trkpt lat="44.0868598" lon="11.2299249"><ele>778.5</ele><time>2026-04-11T12:40:27.099Z</time></trkpt><trkpt lat="44.0869234" lon="11.2297759"><ele>781.0</ele><time>2026-04-11T12:40:28.1Z</time></trkpt><trkpt lat="44.086977" lon="11.2296506"><ele>781.4</ele><time>2026-04-11T12:40:29.098Z</time></trkpt><trkpt lat="44.0870233" lon="11.2295392"><ele>781.8</ele><time>2026-04-11T12:40:30.099Z</time></trkpt><trkpt lat="44.0870647" lon="11.2294331"><ele>782.1999999999999</ele><time>2026-04-11T12:40:31.099Z</time></trkpt><trkpt lat="44.0870979" lon="11.2293453"><ele>782.5999999999999</ele><time>2026-04-11T12:40:32.1Z</time></trkpt><trkpt lat="44.0871161" lon="11.229195"><ele>783.0</ele><time>2026-04-11T12:40:34.1Z</time></trkpt><trkpt lat="44.0870704" lon="11.2290434"><ele>784.1666666666666</ele><time>2026-04-11T12:40:36.1Z</time></trkpt><trkpt lat="44.0869912" lon="11.228922"><ele>785.3333333333333</ele><time>2026-04-11T12:40:38.099Z</time></trkpt><trkpt lat="44.0869447" lon="11.2288594"><ele>786.5</ele><time>2026-04-11T12:40:39.1Z</time></trkpt><trkpt lat="44.08689" lon="11.2287925"><ele>787.6666666666666</ele><time>2026-04-11T12:40:40.1Z</time></trkpt><trkpt lat="44.0868289" lon="11.2287229"><ele>788.8333333333333</ele><time>2026-04-11T12:40:41.1Z</time></trkpt><trkpt lat="44.0867732" lon="11.2286572"><ele>790.0</ele><time>2026-04-11T12:40:42.1Z</time></trkpt><trkpt lat="44.0867163" lon="11.2285903"><ele>789.9999999999999</ele><time>2026-04-11T12:40:43.099Z</time></trkpt><trkpt lat="44.0866579" lon="11.2285268"><ele>790.0</ele><time>2026-04-11T12:40:44.1Z</time></trkpt><trkpt lat="44.0866035" lon="11.2284587"><ele>790.0</ele><time>2026-04-11T12:40:45.1Z</time></trkpt><trkpt lat="44.0865526" lon="11.2283874"><ele>790.0</ele><time>2026-04-11T12:40:46.1Z</time></trkpt><trkpt lat="44.0865012" lon="11.2283094"><ele>789.9999999999999</ele><time>2026-04-11T12:40:47.1Z</time></trkpt><trkpt lat="44.0864467" lon="11.2282225"><ele>790.0</ele><time>2026-04-11T12:40:48.1Z</time></trkpt><trkpt lat="44.086385" lon="11.228142"><ele>789.1666666666666</ele><time>2026-04-11T12:40:49.1Z</time></trkpt><trkpt lat="44.0863136" lon="11.2280864"><ele>788.3333333333333</ele><time>2026-04-11T12:40:50.1Z</time></trkpt><trkpt lat="44.0862327" lon="11.2280578"><ele>787.5</ele><time>2026-04-11T12:40:51.1Z</time></trkpt><trkpt lat="44.086154" lon="11.2280592"><ele>786.6666666666667</ele><time>2026-04-11T12:40:52.098Z</time></trkpt><trkpt lat="44.0860776" lon="11.2280927"><ele>785.8333333333334</ele><time>2026-04-11T12:40:53.099Z</time></trkpt><trkpt lat="44.0859975" lon="11.2281242"><ele>785.0</ele><time>2026-04-11T12:40:54.099Z</time></trkpt><trkpt lat="44.0859232" lon="11.2281448"><ele>785.0</ele><time>2026-04-11T12:40:55.099Z</time></trkpt><trkpt lat="44.0858567" lon="11.2281476"><ele>785.0</ele><time>2026-04-11T12:40:56.1Z</time></trkpt><trkpt lat="44.0857893" lon="11.2281379"><ele>785.0</ele><time>2026-04-11T12:40:57.1Z</time></trkpt><trkpt lat="44.0857207" lon="11.2281036"><ele>785.0</ele><time>2026-04-11T12:40:58.099Z</time></trkpt><trkpt lat="44.0856524" lon="11.228063"><ele>785.0</ele><time>2026-04-11T12:40:59.099Z</time></trkpt><trkpt lat="44.0855815" lon="11.2280311"><ele>785.0</ele><time>2026-04-11T12:41:00.1Z</time></trkpt><trkpt lat="44.0855068" lon="11.2280079"><ele>785.0</ele><time>2026-04-11T12:41:01.099Z</time></trkpt><trkpt lat="44.0854367" lon="11.2279807"><ele>785.7142857142858</ele><time>2026-04-11T12:41:02.1Z</time></trkpt><trkpt lat="44.0853691" lon="11.2279565"><ele>786.4285714285713</ele><time>2026-04-11T12:41:03.099Z</time></trkpt><trkpt lat="44.0852989" lon="11.2279365"><ele>787.1428571428571</ele><time>2026-04-11T12:41:04.1Z</time></trkpt><trkpt lat="44.0852302" lon="11.2279112"><ele>787.8571428571429</ele><time>2026-04-11T12:41:05.1Z</time></trkpt><trkpt lat="44.0851576" lon="11.2279026"><ele>788.5714285714287</ele><time>2026-04-11T12:41:06.099Z</time></trkpt><trkpt lat="44.0850977" lon="11.227939"><ele>789.2857142857142</ele><time>2026-04-11T12:41:07.099Z</time></trkpt><trkpt lat="44.0850479" lon="11.2279985"><ele>790.0</ele><time>2026-04-11T12:41:08.099Z</time></trkpt><trkpt lat="44.0850116" lon="11.2280795"><ele>787.3333333333333</ele><time>2026-04-11T12:41:09.099Z</time></trkpt><trkpt lat="44.08497" lon="11.2281541"><ele>784.6666666666666</ele><time>2026-04-11T12:41:10.1Z</time></trkpt><trkpt lat="44.0849213" lon="11.2282586"><ele>782.0</ele><time>2026-04-11T12:41:11.1Z</time></trkpt><trkpt lat="44.0848424" lon="11.2283396"><ele>779.3333333333333</ele><time>2026-04-11T12:41:13.099Z</time></trkpt><trkpt lat="44.0847704" lon="11.2283985"><ele>776.6666666666666</ele><time>2026-04-11T12:41:27.099Z</time></trkpt><trkpt lat="44.084701" lon="11.2283623"><ele>774.0</ele><time>2026-04-11T12:41:29.1Z</time></trkpt><trkpt lat="44.0846096" lon="11.2282984"><ele>774.5</ele><time>2026-04-11T12:41:31.1Z</time></trkpt><trkpt lat="44.0845365" lon="11.2282247"><ele>775.0</ele><time>2026-04-11T12:41:33.099Z</time></trkpt><trkpt lat="44.0844895" lon="11.228145"><ele>775.5</ele><time>2026-04-11T12:41:35.1Z</time></trkpt><trkpt lat="44.0844509" lon="11.2280483"><ele>776.0</ele><time>2026-04-11T12:41:37.1Z</time></trkpt><trkpt lat="44.0844058" lon="11.2278958"><ele>776.5</ele><time>2026-04-11T12:41:39.099Z</time></trkpt><trkpt lat="44.0843785" lon="11.2278028"><ele>777.0</ele><time>2026-04-11T12:41:40.1Z</time></trkpt><trkpt lat="44.0843635" lon="11.227706"><ele>777.0</ele><time>2026-04-11T12:41:41.098Z</time></trkpt><trkpt lat="44.084353" lon="11.2276054"><ele>777.0</ele><time>2026-04-11T12:41:42.1Z</time></trkpt><trkpt lat="44.084338" lon="11.2275201"><ele>777.0</ele><time>2026-04-11T12:41:43.1Z</time></trkpt><trkpt lat="44.0843328" lon="11.2274295"><ele>777.0</ele><time>2026-04-11T12:41:44.099Z</time></trkpt><trkpt lat="44.0842956" lon="11.2273438"><ele>777.0</ele><time>2026-04-11T12:41:45.099Z</time></trkpt><trkpt lat="44.0842154" lon="11.2272513"><ele>777.0</ele><time>2026-04-11T12:41:47.1Z</time></trkpt><trkpt lat="44.0841325" lon="11.2271986"><ele>777.6</ele><time>2026-04-11T12:41:49.099Z</time></trkpt><trkpt lat="44.0840423" lon="11.2271382"><ele>778.2</ele><time>2026-04-11T12:41:51.099Z</time></trkpt><trkpt lat="44.0839403" lon="11.227072"><ele>778.8</ele><time>2026-04-11T12:41:53.1Z</time></trkpt><trkpt lat="44.0838315" lon="11.2269696"><ele>779.4</ele><time>2026-04-11T12:41:55.1Z</time></trkpt><trkpt lat="44.083788" lon="11.2268686"><ele>780.0</ele><time>2026-04-11T12:41:56.098Z</time></trkpt><trkpt lat="44.0837337" lon="11.2267856"><ele>780.0</ele><time>2026-04-11T12:41:57.1Z</time></trkpt><trkpt lat="44.0836638" lon="11.226712"><ele>780.0</ele><time>2026-04-11T12:41:58.1Z</time></trkpt><trkpt lat="44.0835925" lon="11.2266628"><ele>780.0</ele><time>2026-04-11T12:41:59.1Z</time></trkpt><trkpt lat="44.0835165" lon="11.2266124"><ele>780.0</ele><time>2026-04-11T12:42:00.099Z</time></trkpt><trkpt lat="44.0834517" lon="11.2265793"><ele>780.0</ele><time>2026-04-11T12:42:01.1Z</time></trkpt><trkpt lat="44.0833767" lon="11.2265313"><ele>780.0</ele><time>2026-04-11T12:42:02.1Z</time></trkpt><trkpt lat="44.0832984" lon="11.2264834"><ele>781.1666666666666</ele><time>2026-04-11T12:42:03.099Z</time></trkpt><trkpt lat="44.0832285" lon="11.2264463"><ele>782.3333333333333</ele><time>2026-04-11T12:42:04.1Z</time></trkpt><trkpt lat="44.0831598" lon="11.2263871"><ele>783.5</ele><time>2026-04-11T12:42:05.099Z</time></trkpt><trkpt lat="44.0830967" lon="11.226391"><ele>784.6666666666666</ele><time>2026-04-11T12:42:06.1Z</time></trkpt><trkpt lat="44.0830303" lon="11.2264093"><ele>785.8333333333333</ele><time>2026-04-11T12:42:07.1Z</time></trkpt><trkpt lat="44.082945" lon="11.2264632"><ele>787.0</ele><time>2026-04-11T12:42:08.1Z</time></trkpt><trkpt lat="44.0828746" lon="11.2265103"><ele>787.0</ele><time>2026-04-11T12:42:09.1Z</time></trkpt><trkpt lat="44.0828363" lon="11.2266029"><ele>787.0</ele><time>2026-04-11T12:42:10.1Z</time></trkpt><trkpt lat="44.0827975" lon="11.2267547"><ele>787.0</ele><time>2026-04-11T12:42:11.099Z</time></trkpt><trkpt lat="44.0827714" lon="11.2269033"><ele>787.0</ele><time>2026-04-11T12:42:12.099Z</time></trkpt><trkpt lat="44.0827245" lon="11.2270018"><ele>787.0</ele><time>2026-04-11T12:42:13.099Z</time></trkpt><trkpt lat="44.0826784" lon="11.2271047"><ele>787.0</ele><time>2026-04-11T12:42:14.099Z</time></trkpt><trkpt lat="44.0826054" lon="11.2271859"><ele>787.0</ele><time>2026-04-11T12:42:15.1Z</time></trkpt><trkpt lat="44.0825342" lon="11.2272552"><ele>787.0</ele><time>2026-04-11T12:42:16.1Z</time></trkpt><trkpt lat="44.0824368" lon="11.2273077"><ele>787.0</ele><time>2026-04-11T12:42:17.099Z</time></trkpt><trkpt lat="44.0823491" lon="11.2273589"><ele>787.0</ele><time>2026-04-11T12:42:18.099Z</time></trkpt><trkpt lat="44.0822515" lon="11.2274031"><ele>786.5</ele><time>2026-04-11T12:42:19.099Z</time></trkpt><trkpt lat="44.0821396" lon="11.2274732"><ele>786.0</ele><time>2026-04-11T12:42:20.1Z</time></trkpt><trkpt lat="44.0820295" lon="11.2275283"><ele>785.5</ele><time>2026-04-11T12:42:21.099Z</time></trkpt><trkpt lat="44.0819184" lon="11.2275796"><ele>785.0</ele><time>2026-04-11T12:42:22.1Z</time></trkpt><trkpt lat="44.0818062" lon="11.2276247"><ele>785.0</ele><time>2026-04-11T12:42:23.1Z</time></trkpt><trkpt lat="44.0816998" lon="11.2276796"><ele>785.0</ele><time>2026-04-11T12:42:24.1Z</time></trkpt><trkpt lat="44.0815996" lon="11.2277632"><ele>785.0</ele><time>2026-04-11T12:42:25.099Z</time></trkpt><trkpt lat="44.0814936" lon="11.2278201"><ele>785.0</ele><time>2026-04-11T12:42:26.099Z</time></trkpt><trkpt lat="44.0813993" lon="11.2279023"><ele>785.2</ele><time>2026-04-11T12:42:27.1Z</time></trkpt><trkpt lat="44.0813142" lon="11.2280047"><ele>785.4</ele><time>2026-04-11T12:42:28.1Z</time></trkpt><trkpt lat="44.0812307" lon="11.228092"><ele>785.5999999999999</ele><time>2026-04-11T12:42:29.099Z</time></trkpt><trkpt lat="44.0811444" lon="11.2281814"><ele>785.8</ele><time>2026-04-11T12:42:30.1Z</time></trkpt><trkpt lat="44.0810631" lon="11.2282853"><ele>786.0</ele><time>2026-04-11T12:42:31.1Z</time></trkpt><trkpt lat="44.0809749" lon="11.2284003"><ele>786.0</ele><time>2026-04-11T12:42:32.1Z</time></trkpt><trkpt lat="44.0808993" lon="11.2285075"><ele>786.0</ele><time>2026-04-11T12:42:33.1Z</time></trkpt><trkpt lat="44.0808316" lon="11.2286438"><ele>786.0</ele><time>2026-04-11T12:42:34.1Z</time></trkpt><trkpt lat="44.0807658" lon="11.2287936"><ele>786.0</ele><time>2026-04-11T12:42:35.099Z</time></trkpt><trkpt lat="44.0806917" lon="11.228913"><ele>784.8</ele><time>2026-04-11T12:42:36.1Z</time></trkpt><trkpt lat="44.0806137" lon="11.2290417"><ele>783.5999999999999</ele><time>2026-04-11T12:42:37.099Z</time></trkpt><trkpt lat="44.0805337" lon="11.229162"><ele>782.4</ele><time>2026-04-11T12:42:38.099Z</time></trkpt><trkpt lat="44.0804826" lon="11.2292831"><ele>781.2</ele><time>2026-04-11T12:42:39.099Z</time></trkpt><trkpt lat="44.0804338" lon="11.2294074"><ele>780.0</ele><time>2026-04-11T12:42:40.099Z</time></trkpt><trkpt lat="44.0804045" lon="11.2294886"><ele>780.0</ele><time>2026-04-11T12:42:41.099Z</time></trkpt><trkpt lat="44.0803418" lon="11.229561"><ele>780.0</ele><time>2026-04-11T12:42:42.099Z</time></trkpt><trkpt lat="44.0802852" lon="11.2296008"><ele>780.0</ele><time>2026-04-11T12:42:43.1Z</time></trkpt><trkpt lat="44.0802167" lon="11.2295855"><ele>780.0</ele><time>2026-04-11T12:42:44.1Z</time></trkpt><trkpt lat="44.0801464" lon="11.2295365"><ele>780.0</ele><time>2026-04-11T12:42:45.1Z</time></trkpt><trkpt lat="44.0800637" lon="11.2294734"><ele>780.0</ele><time>2026-04-11T12:42:46.099Z</time></trkpt><trkpt lat="44.0799755" lon="11.229422"><ele>776.8333333333334</ele><time>2026-04-11T12:42:47.1Z</time></trkpt><trkpt lat="44.079887" lon="11.2293819"><ele>773.6666666666666</ele><time>2026-04-11T12:42:48.1Z</time></trkpt><trkpt lat="44.0797999" lon="11.229345"><ele>770.5</ele><time>2026-04-11T12:42:49.099Z</time></trkpt><trkpt lat="44.0797228" lon="11.2293018"><ele>767.3333333333333</ele><time>2026-04-11T12:42:50.1Z</time></trkpt><trkpt lat="44.0796483" lon="11.2292597"><ele>764.1666666666666</ele><time>2026-04-11T12:42:51.1Z</time></trkpt><trkpt lat="44.0795701" lon="11.2292203"><ele>761.0</ele><time>2026-04-11T12:42:52.1Z</time></trkpt><trkpt lat="44.0794944" lon="11.2291856"><ele>761.0</ele><time>2026-04-11T12:42:53.1Z</time></trkpt><trkpt lat="44.0794159" lon="11.2291412"><ele>761.0</ele><time>2026-04-11T12:42:54.099Z</time></trkpt><trkpt lat="44.0793411" lon="11.2290822"><ele>761.0</ele><time>2026-04-11T12:42:55.1Z</time></trkpt><trkpt lat="44.0792639" lon="11.2290134"><ele>761.0</ele><time>2026-04-11T12:42:56.1Z</time></trkpt><trkpt lat="44.0791886" lon="11.2289407"><ele>761.0</ele><time>2026-04-11T12:42:57.099Z</time></trkpt><trkpt lat="44.079109" lon="11.2288623"><ele>756.1666666666666</ele><time>2026-04-11T12:42:58.1Z</time></trkpt><trkpt lat="44.0790321" lon="11.2287719"><ele>751.3333333333333</ele><time>2026-04-11T12:42:59.1Z</time></trkpt><trkpt lat="44.0789659" lon="11.2286822"><ele>746.5</ele><time>2026-04-11T12:43:00.099Z</time></trkpt><trkpt lat="44.0789069" lon="11.2286005"><ele>741.6666666666666</ele><time>2026-04-11T12:43:01.099Z</time></trkpt><trkpt lat="44.0788551" lon="11.2285039"><ele>736.8333333333334</ele><time>2026-04-11T12:43:02.1Z</time></trkpt><trkpt lat="44.0788236" lon="11.2283959"><ele>732.0</ele><time>2026-04-11T12:43:03.1Z</time></trkpt><trkpt lat="44.0787846" lon="11.2282733"><ele>732.0</ele><time>2026-04-11T12:43:04.1Z</time></trkpt><trkpt lat="44.078758" lon="11.2281565"><ele>732.0</ele><time>2026-04-11T12:43:05.099Z</time></trkpt><trkpt lat="44.078726" lon="11.2280434"><ele>732.0</ele><time>2026-04-11T12:43:06.099Z</time></trkpt><trkpt lat="44.0786782" lon="11.2279336"><ele>732.0</ele><time>2026-04-11T12:43:07.1Z</time></trkpt><trkpt lat="44.0786166" lon="11.2278409"><ele>732.0</ele><time>2026-04-11T12:43:08.1Z</time></trkpt><trkpt lat="44.0785435" lon="11.2277658"><ele>732.0</ele><time>2026-04-11T12:43:09.099Z</time></trkpt><trkpt lat="44.0784665" lon="11.2277062"><ele>729.5</ele><time>2026-04-11T12:43:10.1Z</time></trkpt><trkpt lat="44.0783852" lon="11.2276632"><ele>727.0</ele><time>2026-04-11T12:43:11.1Z</time></trkpt><trkpt lat="44.0782966" lon="11.227631"><ele>724.5</ele><time>2026-04-11T12:43:12.1Z</time></trkpt><trkpt lat="44.0782094" lon="11.2275985"><ele>722.0</ele><time>2026-04-11T12:43:13.1Z</time></trkpt><trkpt lat="44.0781328" lon="11.2275527"><ele>719.5</ele><time>2026-04-11T12:43:14.1Z</time></trkpt><trkpt lat="44.0780717" lon="11.2274863"><ele>717.0</ele><time>2026-04-11T12:43:15.099Z</time></trkpt><trkpt lat="44.0780187" lon="11.2274096"><ele>717.0</ele><time>2026-04-11T12:43:16.099Z</time></trkpt><trkpt lat="44.0779623" lon="11.227314"><ele>717.0</ele><time>2026-04-11T12:43:17.1Z</time></trkpt><trkpt lat="44.0779096" lon="11.2272119"><ele>717.0</ele><time>2026-04-11T12:43:18.1Z</time></trkpt><trkpt lat="44.0778642" lon="11.2271066"><ele>717.0</ele><time>2026-04-11T12:43:19.1Z</time></trkpt><trkpt lat="44.0778367" lon="11.2269925"><ele>717.0</ele><time>2026-04-11T12:43:20.1Z</time></trkpt><trkpt lat="44.0778142" lon="11.2268759"><ele>717.0</ele><time>2026-04-11T12:43:21.1Z</time></trkpt><trkpt lat="44.077794" lon="11.2267744"><ele>718.0</ele><time>2026-04-11T12:43:22.099Z</time></trkpt><trkpt lat="44.0777723" lon="11.226679"><ele>719.0</ele><time>2026-04-11T12:43:23.1Z</time></trkpt><trkpt lat="44.0777389" lon="11.2265852"><ele>720.0</ele><time>2026-04-11T12:43:24.1Z</time></trkpt><trkpt lat="44.0776845" lon="11.2265297"><ele>721.0</ele><time>2026-04-11T12:43:25.1Z</time></trkpt><trkpt lat="44.0776269" lon="11.2264854"><ele>722.0</ele><time>2026-04-11T12:43:26.1Z</time></trkpt><trkpt lat="44.0775001" lon="11.2264699"><ele>723.0</ele><time>2026-04-11T12:43:28.1Z</time></trkpt><trkpt lat="44.0774208" lon="11.2264792"><ele>723.0</ele><time>2026-04-11T12:43:29.099Z</time></trkpt><trkpt lat="44.0773383" lon="11.2264958"><ele>723.0</ele><time>2026-04-11T12:43:30.1Z</time></trkpt><trkpt lat="44.0772597" lon="11.226532"><ele>723.0</ele><time>2026-04-11T12:43:31.099Z</time></trkpt><trkpt lat="44.0771678" lon="11.2265667"><ele>723.0</ele><time>2026-04-11T12:43:32.1Z</time></trkpt><trkpt lat="44.0770736" lon="11.2265934"><ele>723.0</ele><time>2026-04-11T12:43:33.1Z</time></trkpt><trkpt lat="44.0769791" lon="11.2266061"><ele>723.0</ele><time>2026-04-11T12:43:34.099Z</time></trkpt><trkpt lat="44.0768812" lon="11.226606"><ele>723.0</ele><time>2026-04-11T12:43:35.1Z</time></trkpt><trkpt lat="44.0767807" lon="11.2265873"><ele>723.0</ele><time>2026-04-11T12:43:36.1Z</time></trkpt><trkpt lat="44.0766849" lon="11.2265339"><ele>723.0</ele><time>2026-04-11T12:43:37.099Z</time></trkpt><trkpt lat="44.0766097" lon="11.2264641"><ele>723.0</ele><time>2026-04-11T12:43:38.099Z</time></trkpt><trkpt lat="44.0765546" lon="11.2263799"><ele>726.3333333333334</ele><time>2026-04-11T12:43:39.1Z</time></trkpt><trkpt lat="44.0765104" lon="11.2262746"><ele>729.6666666666666</ele><time>2026-04-11T12:43:40.099Z</time></trkpt><trkpt lat="44.0764713" lon="11.2261655"><ele>733.0</ele><time>2026-04-11T12:43:41.099Z</time></trkpt><trkpt lat="44.076424" lon="11.2260853"><ele>736.3333333333333</ele><time>2026-04-11T12:43:42.099Z</time></trkpt><trkpt lat="44.0763636" lon="11.2260343"><ele>739.6666666666666</ele><time>2026-04-11T12:43:43.1Z</time></trkpt><trkpt lat="44.0762881" lon="11.2260283"><ele>743.0</ele><time>2026-04-11T12:43:44.1Z</time></trkpt><trkpt lat="44.0762094" lon="11.2260552"><ele>743.0</ele><time>2026-04-11T12:43:45.1Z</time></trkpt><trkpt lat="44.0761475" lon="11.2260919"><ele>743.0</ele><time>2026-04-11T12:43:46.1Z</time></trkpt><trkpt lat="44.0760725" lon="11.2261754"><ele>743.0</ele><time>2026-04-11T12:43:47.099Z</time></trkpt><trkpt lat="44.0760041" lon="11.226215"><ele>743.0</ele><time>2026-04-11T12:43:48.1Z</time></trkpt><trkpt lat="44.0759349" lon="11.2262271"><ele>743.0</ele><time>2026-04-11T12:43:49.1Z</time></trkpt><trkpt lat="44.0758694" lon="11.2262138"><ele>743.0</ele><time>2026-04-11T12:43:50.1Z</time></trkpt><trkpt lat="44.0757978" lon="11.2261801"><ele>743.0</ele><time>2026-04-11T12:43:51.099Z</time></trkpt><trkpt lat="44.075729" lon="11.2261462"><ele>741.1666666666666</ele><time>2026-04-11T12:43:52.1Z</time></trkpt><trkpt lat="44.075659" lon="11.2260926"><ele>739.3333333333333</ele><time>2026-04-11T12:43:53.099Z</time></trkpt><trkpt lat="44.0755865" lon="11.2260584"><ele>737.5</ele><time>2026-04-11T12:43:54.1Z</time></trkpt><trkpt lat="44.0755104" lon="11.2260326"><ele>735.6666666666666</ele><time>2026-04-11T12:43:55.1Z</time></trkpt><trkpt lat="44.0754322" lon="11.2260101"><ele>733.8333333333334</ele><time>2026-04-11T12:43:56.099Z</time></trkpt><trkpt lat="44.0753567" lon="11.226002"><ele>732.0</ele><time>2026-04-11T12:43:57.1Z</time></trkpt><trkpt lat="44.0752859" lon="11.2260276"><ele>732.0</ele><time>2026-04-11T12:43:58.1Z</time></trkpt><trkpt lat="44.0752109" lon="11.2261002"><ele>732.0</ele><time>2026-04-11T12:43:59.1Z</time></trkpt><trkpt lat="44.0751403" lon="11.2261686"><ele>732.0</ele><time>2026-04-11T12:44:00.099Z</time></trkpt><trkpt lat="44.0750876" lon="11.2262683"><ele>732.0</ele><time>2026-04-11T12:44:01.099Z</time></trkpt><trkpt lat="44.0750131" lon="11.2263235"><ele>732.0</ele><time>2026-04-11T12:44:02.1Z</time></trkpt><trkpt lat="44.0749469" lon="11.2263701"><ele>732.0</ele><time>2026-04-11T12:44:03.1Z</time></trkpt><trkpt lat="44.0748846" lon="11.2264008"><ele>729.8333333333334</ele><time>2026-04-11T12:44:04.1Z</time></trkpt><trkpt lat="44.0748205" lon="11.2264086"><ele>727.6666666666666</ele><time>2026-04-11T12:44:05.1Z</time></trkpt><trkpt lat="44.0747549" lon="11.2263941"><ele>725.5</ele><time>2026-04-11T12:44:06.099Z</time></trkpt><trkpt lat="44.0746878" lon="11.2263549"><ele>723.3333333333333</ele><time>2026-04-11T12:44:07.099Z</time></trkpt><trkpt lat="44.0746124" lon="11.2262958"><ele>721.1666666666666</ele><time>2026-04-11T12:44:08.1Z</time></trkpt><trkpt lat="44.0745322" lon="11.2262324"><ele>719.0</ele><time>2026-04-11T12:44:09.1Z</time></trkpt><trkpt lat="44.0744496" lon="11.2261693"><ele>719.0</ele><time>2026-04-11T12:44:10.1Z</time></trkpt><trkpt lat="44.0743661" lon="11.22612"><ele>719.0</ele><time>2026-04-11T12:44:11.1Z</time></trkpt><trkpt lat="44.0742834" lon="11.226084"><ele>719.0</ele><time>2026-04-11T12:44:12.1Z</time></trkpt><trkpt lat="44.0741922" lon="11.2260573"><ele>719.0</ele><time>2026-04-11T12:44:13.099Z</time></trkpt><trkpt lat="44.0740987" lon="11.2260436"><ele>719.0</ele><time>2026-04-11T12:44:14.1Z</time></trkpt><trkpt lat="44.0739973" lon="11.2260617"><ele>715.8000000000001</ele><time>2026-04-11T12:44:15.1Z</time></trkpt><trkpt lat="44.0739025" lon="11.2260772"><ele>712.6</ele><time>2026-04-11T12:44:16.099Z</time></trkpt><trkpt lat="44.0738154" lon="11.2261098"><ele>709.4</ele><time>2026-04-11T12:44:17.099Z</time></trkpt><trkpt lat="44.0737189" lon="11.2261693"><ele>706.2</ele><time>2026-04-11T12:44:18.099Z</time></trkpt><trkpt lat="44.0736259" lon="11.2262286"><ele>703.0</ele><time>2026-04-11T12:44:19.1Z</time></trkpt><trkpt lat="44.0735349" lon="11.2262607"><ele>703.0</ele><time>2026-04-11T12:44:20.099Z</time></trkpt><trkpt lat="44.0734462" lon="11.2262789"><ele>703.0</ele><time>2026-04-11T12:44:21.099Z</time></trkpt><trkpt lat="44.0733589" lon="11.2262501"><ele>703.0</ele><time>2026-04-11T12:44:22.099Z</time></trkpt><trkpt lat="44.0732701" lon="11.2262158"><ele>703.0</ele><time>2026-04-11T12:44:23.1Z</time></trkpt><trkpt lat="44.0731726" lon="11.2261637"><ele>703.0</ele><time>2026-04-11T12:44:24.099Z</time></trkpt><trkpt lat="44.0730737" lon="11.2261111"><ele>699.6666666666667</ele><time>2026-04-11T12:44:25.099Z</time></trkpt><trkpt lat="44.0730045" lon="11.226054"><ele>696.3333333333334</ele><time>2026-04-11T12:44:26.099Z</time></trkpt><trkpt lat="44.0729576" lon="11.2259677"><ele>693.0</ele><time>2026-04-11T12:44:27.099Z</time></trkpt><trkpt lat="44.0729189" lon="11.225875"><ele>689.6666666666666</ele><time>2026-04-11T12:44:28.1Z</time></trkpt><trkpt lat="44.0728901" lon="11.2257763"><ele>686.3333333333333</ele><time>2026-04-11T12:44:29.1Z</time></trkpt><trkpt lat="44.0728654" lon="11.2256912"><ele>683.0</ele><time>2026-04-11T12:44:30.1Z</time></trkpt><trkpt lat="44.0728139" lon="11.2255267"><ele>682.6666666666666</ele><time>2026-04-11T12:44:32.099Z</time></trkpt><trkpt lat="44.0727671" lon="11.2254607"><ele>682.3333333333333</ele><time>2026-04-11T12:44:33.099Z</time></trkpt><trkpt lat="44.0726989" lon="11.2253974"><ele>682.0</ele><time>2026-04-11T12:44:34.099Z</time></trkpt><trkpt lat="44.0726166" lon="11.225339"><ele>681.6666666666666</ele><time>2026-04-11T12:44:35.099Z</time></trkpt><trkpt lat="44.0725256" lon="11.2252845"><ele>681.3333333333334</ele><time>2026-04-11T12:44:36.099Z</time></trkpt><trkpt lat="44.0724378" lon="11.2252332"><ele>681.0</ele><time>2026-04-11T12:44:37.099Z</time></trkpt><trkpt lat="44.0723507" lon="11.225184"><ele>681.0</ele><time>2026-04-11T12:44:38.099Z</time></trkpt><trkpt lat="44.0722632" lon="11.225127"><ele>681.0</ele><time>2026-04-11T12:44:39.099Z</time></trkpt><trkpt lat="44.0721836" lon="11.2250717"><ele>681.0</ele><time>2026-04-11T12:44:40.1Z</time></trkpt><trkpt lat="44.0721046" lon="11.225029"><ele>681.0</ele><time>2026-04-11T12:44:41.1Z</time></trkpt><trkpt lat="44.0720306" lon="11.2249976"><ele>681.0</ele><time>2026-04-11T12:44:42.099Z</time></trkpt><trkpt lat="44.0719566" lon="11.2249858"><ele>681.0</ele><time>2026-04-11T12:44:43.099Z</time></trkpt><trkpt lat="44.0718844" lon="11.2250009"><ele>681.0</ele><time>2026-04-11T12:44:44.099Z</time></trkpt><trkpt lat="44.0718109" lon="11.2250423"><ele>681.0</ele><time>2026-04-11T12:44:45.1Z</time></trkpt><trkpt lat="44.0717444" lon="11.225099"><ele>681.0</ele><time>2026-04-11T12:44:46.1Z</time></trkpt><trkpt lat="44.0716732" lon="11.225159"><ele>681.0</ele><time>2026-04-11T12:44:47.1Z</time></trkpt><trkpt lat="44.0715978" lon="11.225202"><ele>681.0</ele><time>2026-04-11T12:44:48.099Z</time></trkpt><trkpt lat="44.0715214" lon="11.2252324"><ele>681.0</ele><time>2026-04-11T12:44:49.099Z</time></trkpt><trkpt lat="44.0714465" lon="11.2252418"><ele>681.6666666666666</ele><time>2026-04-11T12:44:50.099Z</time></trkpt><trkpt lat="44.0713728" lon="11.2252416"><ele>682.3333333333334</ele><time>2026-04-11T12:44:51.1Z</time></trkpt><trkpt lat="44.0712937" lon="11.2252696"><ele>683.0</ele><time>2026-04-11T12:44:52.1Z</time></trkpt><trkpt lat="44.0712209" lon="11.225318"><ele>683.6666666666667</ele><time>2026-04-11T12:44:53.1Z</time></trkpt><trkpt lat="44.0711496" lon="11.2253739"><ele>684.3333333333334</ele><time>2026-04-11T12:44:54.099Z</time></trkpt><trkpt lat="44.0710748" lon="11.2254417"><ele>685.0</ele><time>2026-04-11T12:44:55.098Z</time></trkpt><trkpt lat="44.0710006" lon="11.2255083"><ele>685.0</ele><time>2026-04-11T12:44:56.099Z</time></trkpt><trkpt lat="44.0709221" lon="11.2255604"><ele>685.0</ele><time>2026-04-11T12:44:57.1Z</time></trkpt><trkpt lat="44.0708444" lon="11.2255976"><ele>685.0</ele><time>2026-04-11T12:44:58.1Z</time></trkpt><trkpt lat="44.0707643" lon="11.2256238"><ele>685.0</ele><time>2026-04-11T12:44:59.099Z</time></trkpt><trkpt lat="44.0706771" lon="11.22564"><ele>685.0</ele><time>2026-04-11T12:45:00.1Z</time></trkpt><trkpt lat="44.0705868" lon="11.2256346"><ele>685.0</ele><time>2026-04-11T12:45:01.099Z</time></trkpt><trkpt lat="44.0704976" lon="11.2256095"><ele>684.0</ele><time>2026-04-11T12:45:02.098Z</time></trkpt><trkpt lat="44.0704133" lon="11.2255676"><ele>683.0</ele><time>2026-04-11T12:45:03.1Z</time></trkpt><trkpt lat="44.0703199" lon="11.2255325"><ele>682.0</ele><time>2026-04-11T12:45:04.1Z</time></trkpt><trkpt lat="44.0702395" lon="11.2255211"><ele>681.0</ele><time>2026-04-11T12:45:05.099Z</time></trkpt><trkpt lat="44.0701655" lon="11.2255282"><ele>680.0</ele><time>2026-04-11T12:45:06.099Z</time></trkpt><trkpt lat="44.0700966" lon="11.225559"><ele>679.0</ele><time>2026-04-11T12:45:07.099Z</time></trkpt><trkpt lat="44.0700215" lon="11.2256079"><ele>675.8333333333334</ele><time>2026-04-11T12:45:08.098Z</time></trkpt><trkpt lat="44.0699401" lon="11.2256555"><ele>672.6666666666667</ele><time>2026-04-11T12:45:09.1Z</time></trkpt><trkpt lat="44.0698561" lon="11.2256945"><ele>669.5</ele><time>2026-04-11T12:45:10.1Z</time></trkpt><trkpt lat="44.069763" lon="11.2257248"><ele>666.3333333333334</ele><time>2026-04-11T12:45:11.1Z</time></trkpt><trkpt lat="44.0696753" lon="11.2257417"><ele>663.1666666666666</ele><time>2026-04-11T12:45:12.099Z</time></trkpt><trkpt lat="44.0695946" lon="11.2257501"><ele>660.0</ele><time>2026-04-11T12:45:13.099Z</time></trkpt><trkpt lat="44.0695235" lon="11.2257498"><ele>660.0</ele><time>2026-04-11T12:45:14.099Z</time></trkpt><trkpt lat="44.0694517" lon="11.2257406"><ele>660.0</ele><time>2026-04-11T12:45:15.099Z</time></trkpt><trkpt lat="44.0693711" lon="11.2257376"><ele>660.0</ele><time>2026-04-11T12:45:16.1Z</time></trkpt><trkpt lat="44.0692949" lon="11.2257353"><ele>660.0</ele><time>2026-04-11T12:45:17.1Z</time></trkpt><trkpt lat="44.0692037" lon="11.2257348"><ele>660.0</ele><time>2026-04-11T12:45:18.1Z</time></trkpt><trkpt lat="44.0691132" lon="11.2257382"><ele>660.0</ele><time>2026-04-11T12:45:19.099Z</time></trkpt><trkpt lat="44.0690283" lon="11.2257514"><ele>658.5</ele><time>2026-04-11T12:45:20.099Z</time></trkpt><trkpt lat="44.0689408" lon="11.225761"><ele>657.0</ele><time>2026-04-11T12:45:21.099Z</time></trkpt><trkpt lat="44.0688504" lon="11.2257528"><ele>655.5</ele><time>2026-04-11T12:45:22.099Z</time></trkpt><trkpt lat="44.0687664" lon="11.2257296"><ele>654.0</ele><time>2026-04-11T12:45:23.1Z</time></trkpt><trkpt lat="44.0686866" lon="11.225696"><ele>652.5</ele><time>2026-04-11T12:45:24.1Z</time></trkpt><trkpt lat="44.0686116" lon="11.2256689"><ele>651.0</ele><time>2026-04-11T12:45:25.1Z</time></trkpt><trkpt lat="44.0685401" lon="11.2256569"><ele>651.0</ele><time>2026-04-11T12:45:26.1Z</time></trkpt><trkpt lat="44.0684677" lon="11.2256536"><ele>651.0</ele><time>2026-04-11T12:45:27.1Z</time></trkpt><trkpt lat="44.0684048" lon="11.225658"><ele>651.0</ele><time>2026-04-11T12:45:28.099Z</time></trkpt><trkpt lat="44.0683092" lon="11.2256765"><ele>651.0</ele><time>2026-04-11T12:45:30.1Z</time></trkpt><trkpt lat="44.0682397" lon="11.2256809"><ele>651.0</ele><time>2026-04-11T12:45:44.099Z</time></trkpt><trkpt lat="44.0681794" lon="11.2257289"><ele>651.0</ele><time>2026-04-11T12:45:46.098Z</time></trkpt><trkpt lat="44.0680827" lon="11.2257809"><ele>651.8</ele><time>2026-04-11T12:45:48.099Z</time></trkpt><trkpt lat="44.0680041" lon="11.2258283"><ele>652.5999999999999</ele><time>2026-04-11T12:45:50.099Z</time></trkpt><trkpt lat="44.0679135" lon="11.225861"><ele>653.4</ele><time>2026-04-11T12:45:52.1Z</time></trkpt><trkpt lat="44.0678289" lon="11.2258904"><ele>654.2</ele><time>2026-04-11T12:45:54.099Z</time></trkpt><trkpt lat="44.0677157" lon="11.225933"><ele>655.0</ele><time>2026-04-11T12:45:56.1Z</time></trkpt><trkpt lat="44.067604" lon="11.2259735"><ele>655.0</ele><time>2026-04-11T12:45:58.1Z</time></trkpt><trkpt lat="44.0675147" lon="11.226009"><ele>655.0</ele><time>2026-04-11T12:46:00.1Z</time></trkpt><trkpt lat="44.0674397" lon="11.2260359"><ele>655.0</ele><time>2026-04-11T12:46:02.099Z</time></trkpt><trkpt lat="44.0673693" lon="11.2260691"><ele>655.0</ele><time>2026-04-11T12:46:04.1Z</time></trkpt><trkpt lat="44.0672867" lon="11.226105"><ele>655.0</ele><time>2026-04-11T12:46:06.099Z</time></trkpt><trkpt lat="44.0672091" lon="11.2261326"><ele>655.0</ele><time>2026-04-11T12:46:08.099Z</time></trkpt><trkpt lat="44.0671279" lon="11.2261615"><ele>653.8</ele><time>2026-04-11T12:46:10.099Z</time></trkpt><trkpt lat="44.0670331" lon="11.2262079"><ele>652.6</ele><time>2026-04-11T12:46:12.1Z</time></trkpt><trkpt lat="44.0669481" lon="11.2262896"><ele>651.4000000000001</ele><time>2026-04-11T12:46:14.1Z</time></trkpt><trkpt lat="44.066909" lon="11.2264305"><ele>650.2</ele><time>2026-04-11T12:46:16.099Z</time></trkpt><trkpt lat="44.0669156" lon="11.2265327"><ele>649.0</ele><time>2026-04-11T12:46:18.099Z</time></trkpt><trkpt lat="44.066908" lon="11.2266774"><ele>649.0</ele><time>2026-04-11T12:46:20.1Z</time></trkpt><trkpt lat="44.0668394" lon="11.2267742"><ele>649.0</ele><time>2026-04-11T12:46:22.099Z</time></trkpt><trkpt lat="44.0667528" lon="11.226839"><ele>649.0</ele><time>2026-04-11T12:46:24.099Z</time></trkpt><trkpt lat="44.0666764" lon="11.2269224"><ele>649.0</ele><time>2026-04-11T12:46:26.098Z</time></trkpt><trkpt lat="44.0666261" lon="11.2270567"><ele>649.0</ele><time>2026-04-11T12:46:28.1Z</time></trkpt><trkpt lat="44.0666268" lon="11.2272017"><ele>648.8000000000001</ele><time>2026-04-11T12:46:30.099Z</time></trkpt><trkpt lat="44.0666383" lon="11.2273256"><ele>648.6</ele><time>2026-04-11T12:46:32.097Z</time></trkpt><trkpt lat="44.0666207" lon="11.2275013"><ele>648.4</ele><time>2026-04-11T12:46:34.099Z</time></trkpt><trkpt lat="44.0665905" lon="11.2276211"><ele>648.2</ele><time>2026-04-11T12:46:35.098Z</time></trkpt><trkpt lat="44.0665444" lon="11.2277254"><ele>648.0</ele><time>2026-04-11T12:46:36.099Z</time></trkpt><trkpt lat="44.0664919" lon="11.2278126"><ele>648.0</ele><time>2026-04-11T12:46:37.099Z</time></trkpt><trkpt lat="44.0664363" lon="11.2278814"><ele>648.0</ele><time>2026-04-11T12:46:38.098Z</time></trkpt><trkpt lat="44.0663698" lon="11.2279415"><ele>648.0</ele><time>2026-04-11T12:46:39.098Z</time></trkpt><trkpt lat="44.0663045" lon="11.2279847"><ele>648.0</ele><time>2026-04-11T12:46:40.099Z</time></trkpt><trkpt lat="44.0662421" lon="11.2280195"><ele>648.0</ele><time>2026-04-11T12:46:41.098Z</time></trkpt><trkpt lat="44.0661777" lon="11.2280545"><ele>648.0</ele><time>2026-04-11T12:46:42.098Z</time></trkpt><trkpt lat="44.066065" lon="11.2281613"><ele>647.0</ele><time>2026-04-11T12:46:44.099Z</time></trkpt><trkpt lat="44.0660238" lon="11.2282284"><ele>646.0</ele><time>2026-04-11T12:46:45.099Z</time></trkpt><trkpt lat="44.0659829" lon="11.2283872"><ele>645.0</ele><time>2026-04-11T12:46:47.098Z</time></trkpt><trkpt lat="44.0659624" lon="11.228487"><ele>644.0</ele><time>2026-04-11T12:46:48.098Z</time></trkpt><trkpt lat="44.0659359" lon="11.2285718"><ele>643.0</ele><time>2026-04-11T12:46:49.099Z</time></trkpt><trkpt lat="44.0659011" lon="11.2286501"><ele>642.0</ele><time>2026-04-11T12:46:50.099Z</time></trkpt><trkpt lat="44.065855" lon="11.2287394"><ele>642.0</ele><time>2026-04-11T12:46:51.098Z</time></trkpt><trkpt lat="44.0657942" lon="11.2288271"><ele>642.0</ele><time>2026-04-11T12:46:52.098Z</time></trkpt><trkpt lat="44.0657331" lon="11.2288974"><ele>642.0</ele><time>2026-04-11T12:46:53.099Z</time></trkpt><trkpt lat="44.0656665" lon="11.2289615"><ele>642.0</ele><time>2026-04-11T12:46:54.099Z</time></trkpt><trkpt lat="44.065591" lon="11.2290301"><ele>642.0</ele><time>2026-04-11T12:46:55.099Z</time></trkpt><trkpt lat="44.0655183" lon="11.2290909"><ele>642.0</ele><time>2026-04-11T12:46:56.099Z</time></trkpt><trkpt lat="44.0654416" lon="11.2291543"><ele>641.3333333333334</ele><time>2026-04-11T12:46:57.099Z</time></trkpt><trkpt lat="44.0653725" lon="11.229208"><ele>640.6666666666666</ele><time>2026-04-11T12:46:58.098Z</time></trkpt><trkpt lat="44.0653048" lon="11.229253"><ele>640.0</ele><time>2026-04-11T12:46:59.099Z</time></trkpt><trkpt lat="44.0652332" lon="11.2293009"><ele>639.3333333333333</ele><time>2026-04-11T12:47:00.099Z</time></trkpt><trkpt lat="44.0651532" lon="11.2293581"><ele>638.6666666666666</ele><time>2026-04-11T12:47:01.097Z</time></trkpt><trkpt lat="44.0650667" lon="11.2294149"><ele>638.0</ele><time>2026-04-11T12:47:02.099Z</time></trkpt><trkpt lat="44.0649862" lon="11.2294634"><ele>637.1999999999999</ele><time>2026-04-11T12:47:03.098Z</time></trkpt><trkpt lat="44.0648982" lon="11.2295239"><ele>636.4</ele><time>2026-04-11T12:47:04.098Z</time></trkpt><trkpt lat="44.0648043" lon="11.2295865"><ele>635.5999999999999</ele><time>2026-04-11T12:47:05.098Z</time></trkpt><trkpt lat="44.0647088" lon="11.2296561"><ele>634.8</ele><time>2026-04-11T12:47:06.099Z</time></trkpt><trkpt lat="44.0646088" lon="11.2297335"><ele>634.0</ele><time>2026-04-11T12:47:07.099Z</time></trkpt><trkpt lat="44.0645026" lon="11.2298135"><ele>634.0</ele><time>2026-04-11T12:47:08.098Z</time></trkpt><trkpt lat="44.0643996" lon="11.2299009"><ele>634.0</ele><time>2026-04-11T12:47:09.098Z</time></trkpt><trkpt lat="44.0642863" lon="11.2299932"><ele>634.0</ele><time>2026-04-11T12:47:10.099Z</time></trkpt><trkpt lat="44.0641674" lon="11.2300907"><ele>634.0</ele><time>2026-04-11T12:47:11.097Z</time></trkpt><trkpt lat="44.0640542" lon="11.2301811"><ele>632.5</ele><time>2026-04-11T12:47:12.098Z</time></trkpt><trkpt lat="44.0639479" lon="11.2302739"><ele>631.0</ele><time>2026-04-11T12:47:13.099Z</time></trkpt><trkpt lat="44.0638636" lon="11.2304401"><ele>629.5</ele><time>2026-04-11T12:47:14.098Z</time></trkpt><trkpt lat="44.0637798" lon="11.2305916"><ele>628.0</ele><time>2026-04-11T12:47:15.099Z</time></trkpt><trkpt lat="44.0637157" lon="11.2307695"><ele>627.75</ele><time>2026-04-11T12:47:16.099Z</time></trkpt><trkpt lat="44.0636395" lon="11.230926"><ele>627.5</ele><time>2026-04-11T12:47:17.099Z</time></trkpt><trkpt lat="44.0635449" lon="11.2310711"><ele>627.25</ele><time>2026-04-11T12:47:18.098Z</time></trkpt><trkpt lat="44.0634485" lon="11.2312171"><ele>627.0</ele><time>2026-04-11T12:47:19.099Z</time></trkpt><trkpt lat="44.0633355" lon="11.2313197"><ele>624.25</ele><time>2026-04-11T12:47:20.099Z</time></trkpt><trkpt lat="44.0632156" lon="11.2314319"><ele>621.5</ele><time>2026-04-11T12:47:21.098Z</time></trkpt><trkpt lat="44.0630928" lon="11.2315466"><ele>618.75</ele><time>2026-04-11T12:47:22.098Z</time></trkpt><trkpt lat="44.0629742" lon="11.231655"><ele>616.0</ele><time>2026-04-11T12:47:23.099Z</time></trkpt><trkpt lat="44.0628602" lon="11.2317795"><ele>616.0</ele><time>2026-04-11T12:47:24.099Z</time></trkpt><trkpt lat="44.0627683" lon="11.2319211"><ele>616.0</ele><time>2026-04-11T12:47:25.099Z</time></trkpt><trkpt lat="44.062678" lon="11.2320871"><ele>616.0</ele><time>2026-04-11T12:47:26.098Z</time></trkpt><trkpt lat="44.062582" lon="11.2322471"><ele>616.0</ele><time>2026-04-11T12:47:27.097Z</time></trkpt><trkpt lat="44.062471" lon="11.2323948"><ele>615.3333333333334</ele><time>2026-04-11T12:47:28.098Z</time></trkpt><trkpt lat="44.062349" lon="11.2325412"><ele>614.6666666666666</ele><time>2026-04-11T12:47:29.099Z</time></trkpt><trkpt lat="44.0622224" lon="11.232691"><ele>614.0</ele><time>2026-04-11T12:47:30.099Z</time></trkpt><trkpt lat="44.0620961" lon="11.2328523"><ele>614.0</ele><time>2026-04-11T12:47:31.099Z</time></trkpt><trkpt lat="44.0619657" lon="11.2329976"><ele>614.0</ele><time>2026-04-11T12:47:32.099Z</time></trkpt><trkpt lat="44.0618339" lon="11.2331306"><ele>614.0</ele><time>2026-04-11T12:47:33.098Z</time></trkpt><trkpt lat="44.0617282" lon="11.2332709"><ele>612.75</ele><time>2026-04-11T12:47:34.098Z</time></trkpt><trkpt lat="44.0616504" lon="11.2334402"><ele>611.5</ele><time>2026-04-11T12:47:35.099Z</time></trkpt><trkpt lat="44.0615895" lon="11.2336334"><ele>610.25</ele><time>2026-04-11T12:47:36.099Z</time></trkpt><trkpt lat="44.061558" lon="11.2338248"><ele>609.0</ele><time>2026-04-11T12:47:37.099Z</time></trkpt><trkpt lat="44.0615236" lon="11.2340181"><ele>607.25</ele><time>2026-04-11T12:47:38.099Z</time></trkpt><trkpt lat="44.0615078" lon="11.2342113"><ele>605.5</ele><time>2026-04-11T12:47:39.098Z</time></trkpt><trkpt lat="44.0615134" lon="11.2344099"><ele>603.75</ele><time>2026-04-11T12:47:40.098Z</time></trkpt><trkpt lat="44.0615386" lon="11.2345928"><ele>602.0</ele><time>2026-04-11T12:47:41.099Z</time></trkpt><trkpt lat="44.0615885" lon="11.2347597"><ele>600.2</ele><time>2026-04-11T12:47:42.099Z</time></trkpt><trkpt lat="44.0616458" lon="11.2348896"><ele>598.4000000000001</ele><time>2026-04-11T12:47:43.098Z</time></trkpt><trkpt lat="44.0617188" lon="11.2349713"><ele>596.5999999999999</ele><time>2026-04-11T12:47:44.099Z</time></trkpt><trkpt lat="44.0617956" lon="11.2350173"><ele>594.8</ele><time>2026-04-11T12:47:45.099Z</time></trkpt><trkpt lat="44.061893" lon="11.2349595"><ele>593.0</ele><time>2026-04-11T12:47:46.098Z</time></trkpt><trkpt lat="44.0619727" lon="11.2348993"><ele>593.0</ele><time>2026-04-11T12:47:47.099Z</time></trkpt><trkpt lat="44.0620618" lon="11.2348688"><ele>593.0</ele><time>2026-04-11T12:47:48.099Z</time></trkpt><trkpt lat="44.0621428" lon="11.2348926"><ele>593.0</ele><time>2026-04-11T12:47:49.098Z</time></trkpt><trkpt lat="44.062195" lon="11.2349741"><ele>593.0</ele><time>2026-04-11T12:47:50.098Z</time></trkpt><trkpt lat="44.0621999" lon="11.235088"><ele>593.0</ele><time>2026-04-11T12:47:51.099Z</time></trkpt><trkpt lat="44.0621574" lon="11.2352235"><ele>593.0</ele><time>2026-04-11T12:47:52.099Z</time></trkpt><trkpt lat="44.0620814" lon="11.2353536"><ele>593.0</ele><time>2026-04-11T12:47:53.098Z</time></trkpt><trkpt lat="44.0619957" lon="11.2354704"><ele>593.0</ele><time>2026-04-11T12:47:54.098Z</time></trkpt><trkpt lat="44.0619048" lon="11.2355883"><ele>593.0</ele><time>2026-04-11T12:47:55.099Z</time></trkpt><trkpt lat="44.0618059" lon="11.2357091"><ele>593.0</ele><time>2026-04-11T12:47:56.098Z</time></trkpt><trkpt lat="44.0617043" lon="11.2358321"><ele>590.75</ele><time>2026-04-11T12:47:57.098Z</time></trkpt><trkpt lat="44.0616081" lon="11.2359515"><ele>588.5</ele><time>2026-04-11T12:47:58.099Z</time></trkpt><trkpt lat="44.061519" lon="11.2360755"><ele>586.25</ele><time>2026-04-11T12:47:59.099Z</time></trkpt><trkpt lat="44.0614521" lon="11.2362034"><ele>584.0</ele><time>2026-04-11T12:48:00.098Z</time></trkpt><trkpt lat="44.0613956" lon="11.2363426"><ele>580.5</ele><time>2026-04-11T12:48:01.098Z</time></trkpt><trkpt lat="44.061374" lon="11.2364997"><ele>577.0</ele><time>2026-04-11T12:48:02.098Z</time></trkpt><trkpt lat="44.0613754" lon="11.2366674"><ele>573.5</ele><time>2026-04-11T12:48:03.098Z</time></trkpt><trkpt lat="44.0614005" lon="11.236839"><ele>570.0</ele><time>2026-04-11T12:48:04.099Z</time></trkpt><trkpt lat="44.0614384" lon="11.2370233"><ele>570.0</ele><time>2026-04-11T12:48:05.099Z</time></trkpt><trkpt lat="44.0614799" lon="11.2372053"><ele>570.0</ele><time>2026-04-11T12:48:06.099Z</time></trkpt><trkpt lat="44.0615168" lon="11.2373973"><ele>570.0</ele><time>2026-04-11T12:48:07.098Z</time></trkpt><trkpt lat="44.0615549" lon="11.2375925"><ele>570.0</ele><time>2026-04-11T12:48:08.099Z</time></trkpt><trkpt lat="44.0615992" lon="11.237797"><ele>569.0</ele><time>2026-04-11T12:48:09.098Z</time></trkpt><trkpt lat="44.0616415" lon="11.237989"><ele>568.0</ele><time>2026-04-11T12:48:10.098Z</time></trkpt><trkpt lat="44.0616798" lon="11.2381617"><ele>567.0</ele><time>2026-04-11T12:48:11.098Z</time></trkpt><trkpt lat="44.0616786" lon="11.23833"><ele>566.0</ele><time>2026-04-11T12:48:12.099Z</time></trkpt><trkpt lat="44.0616709" lon="11.2385149"><ele>563.6</ele><time>2026-04-11T12:48:13.099Z</time></trkpt><trkpt lat="44.0616087" lon="11.2386823"><ele>561.2</ele><time>2026-04-11T12:48:14.098Z</time></trkpt><trkpt lat="44.0615683" lon="11.2388436"><ele>558.8</ele><time>2026-04-11T12:48:15.099Z</time></trkpt><trkpt lat="44.0615084" lon="11.2389493"><ele>556.4</ele><time>2026-04-11T12:48:16.099Z</time></trkpt><trkpt lat="44.0614395" lon="11.2389907"><ele>554.0</ele><time>2026-04-11T12:48:17.099Z</time></trkpt><trkpt lat="44.0613682" lon="11.2389755"><ele>554.0</ele><time>2026-04-11T12:48:18.098Z</time></trkpt><trkpt lat="44.0613018" lon="11.238859"><ele>554.0</ele><time>2026-04-11T12:48:19.098Z</time></trkpt><trkpt lat="44.0612273" lon="11.2387522"><ele>554.0</ele><time>2026-04-11T12:48:20.098Z</time></trkpt><trkpt lat="44.0611641" lon="11.238547"><ele>554.0</ele><time>2026-04-11T12:48:21.098Z</time></trkpt><trkpt lat="44.0610991" lon="11.2383967"><ele>554.0</ele><time>2026-04-11T12:48:22.099Z</time></trkpt><trkpt lat="44.0609928" lon="11.2382631"><ele>554.0</ele><time>2026-04-11T12:48:23.098Z</time></trkpt><trkpt lat="44.0608645" lon="11.2381609"><ele>554.0</ele><time>2026-04-11T12:48:24.098Z</time></trkpt><trkpt lat="44.060717" lon="11.2381046"><ele>554.0</ele><time>2026-04-11T12:48:25.099Z</time></trkpt><trkpt lat="44.0605628" lon="11.2380164"><ele>553.6666666666666</ele><time>2026-04-11T12:48:26.098Z</time></trkpt><trkpt lat="44.0604167" lon="11.2379038"><ele>553.3333333333334</ele><time>2026-04-11T12:48:27.099Z</time></trkpt><trkpt lat="44.0602784" lon="11.2377879"><ele>553.0</ele><time>2026-04-11T12:48:28.099Z</time></trkpt><trkpt lat="44.0601401" lon="11.2376817"><ele>553.0</ele><time>2026-04-11T12:48:29.099Z</time></trkpt><trkpt lat="44.0600073" lon="11.2376"><ele>553.0</ele><time>2026-04-11T12:48:30.099Z</time></trkpt><trkpt lat="44.0598798" lon="11.2375534"><ele>553.0</ele><time>2026-04-11T12:48:31.098Z</time></trkpt><trkpt lat="44.0597548" lon="11.2375522"><ele>553.0</ele><time>2026-04-11T12:48:32.099Z</time></trkpt><trkpt lat="44.0596331" lon="11.2376006"><ele>553.25</ele><time>2026-04-11T12:48:33.099Z</time></trkpt><trkpt lat="44.0595134" lon="11.2377029"><ele>553.5</ele><time>2026-04-11T12:48:34.099Z</time></trkpt><trkpt lat="44.0594037" lon="11.2378359"><ele>553.75</ele><time>2026-04-11T12:48:35.099Z</time></trkpt><trkpt lat="44.0593131" lon="11.2379844"><ele>554.0</ele><time>2026-04-11T12:48:36.098Z</time></trkpt><trkpt lat="44.0592244" lon="11.2381259"><ele>550.75</ele><time>2026-04-11T12:48:37.099Z</time></trkpt><trkpt lat="44.0591195" lon="11.2382632"><ele>547.5</ele><time>2026-04-11T12:48:38.098Z</time></trkpt><trkpt lat="44.059013" lon="11.2383964"><ele>544.25</ele><time>2026-04-11T12:48:39.098Z</time></trkpt><trkpt lat="44.0589016" lon="11.2385284"><ele>541.0</ele><time>2026-04-11T12:48:40.097Z</time></trkpt><trkpt lat="44.058798" lon="11.2386515"><ele>540.5</ele><time>2026-04-11T12:48:41.099Z</time></trkpt><trkpt lat="44.0587052" lon="11.2387587"><ele>540.0</ele><time>2026-04-11T12:48:42.099Z</time></trkpt><trkpt lat="44.0586146" lon="11.2388607"><ele>539.5</ele><time>2026-04-11T12:48:43.099Z</time></trkpt><trkpt lat="44.0585158" lon="11.238955"><ele>539.0</ele><time>2026-04-11T12:48:44.099Z</time></trkpt><trkpt lat="44.0584158" lon="11.2390294"><ele>534.75</ele><time>2026-04-11T12:48:45.098Z</time></trkpt><trkpt lat="44.0583088" lon="11.239074"><ele>530.5</ele><time>2026-04-11T12:48:46.099Z</time></trkpt><trkpt lat="44.0581821" lon="11.2390853"><ele>526.25</ele><time>2026-04-11T12:48:47.099Z</time></trkpt><trkpt lat="44.058056" lon="11.2390641"><ele>522.0</ele><time>2026-04-11T12:48:48.098Z</time></trkpt><trkpt lat="44.0579321" lon="11.2390224"><ele>521.0</ele><time>2026-04-11T12:48:49.098Z</time></trkpt><trkpt lat="44.057819" lon="11.2389571"><ele>520.0</ele><time>2026-04-11T12:48:50.099Z</time></trkpt><trkpt lat="44.0577214" lon="11.2388839"><ele>519.0</ele><time>2026-04-11T12:48:51.098Z</time></trkpt><trkpt lat="44.057634" lon="11.2388031"><ele>518.0</ele><time>2026-04-11T12:48:52.099Z</time></trkpt><trkpt lat="44.0575733" lon="11.2387145"><ele>517.0</ele><time>2026-04-11T12:48:53.099Z</time></trkpt><trkpt lat="44.0575442" lon="11.238605"><ele>517.0</ele><time>2026-04-11T12:48:54.097Z</time></trkpt><trkpt lat="44.0575424" lon="11.2384632"><ele>517.0</ele><time>2026-04-11T12:48:55.099Z</time></trkpt><trkpt lat="44.0575487" lon="11.2383089"><ele>517.0</ele><time>2026-04-11T12:48:56.098Z</time></trkpt><trkpt lat="44.0575412" lon="11.2381583"><ele>517.0</ele><time>2026-04-11T12:48:57.098Z</time></trkpt><trkpt lat="44.0575049" lon="11.2380252"><ele>517.0</ele><time>2026-04-11T12:48:58.098Z</time></trkpt><trkpt lat="44.0574405" lon="11.2379145"><ele>515.0</ele><time>2026-04-11T12:48:59.099Z</time></trkpt><trkpt lat="44.0573288" lon="11.2378302"><ele>513.0</ele><time>2026-04-11T12:49:00.099Z</time></trkpt><trkpt lat="44.0572028" lon="11.2377664"><ele>511.0</ele><time>2026-04-11T12:49:01.099Z</time></trkpt><trkpt lat="44.0570687" lon="11.2377236"><ele>509.0</ele><time>2026-04-11T12:49:02.098Z</time></trkpt><trkpt lat="44.0569374" lon="11.2377201"><ele>509.0</ele><time>2026-04-11T12:49:03.098Z</time></trkpt><trkpt lat="44.0567874" lon="11.2377672"><ele>509.0</ele><time>2026-04-11T12:49:04.098Z</time></trkpt><trkpt lat="44.0566559" lon="11.237842"><ele>509.0</ele><time>2026-04-11T12:49:05.099Z</time></trkpt><trkpt lat="44.0565253" lon="11.2379231"><ele>509.0</ele><time>2026-04-11T12:49:06.099Z</time></trkpt><trkpt lat="44.0563971" lon="11.2379806"><ele>506.25</ele><time>2026-04-11T12:49:07.099Z</time></trkpt><trkpt lat="44.0562591" lon="11.2380064"><ele>503.5</ele><time>2026-04-11T12:49:08.098Z</time></trkpt><trkpt lat="44.0561188" lon="11.2380073"><ele>500.75</ele><time>2026-04-11T12:49:09.099Z</time></trkpt><trkpt lat="44.0559757" lon="11.2380026"><ele>498.0</ele><time>2026-04-11T12:49:10.097Z</time></trkpt><trkpt lat="44.0558455" lon="11.2379898"><ele>497.5</ele><time>2026-04-11T12:49:11.098Z</time></trkpt><trkpt lat="44.0557182" lon="11.2379471"><ele>497.0</ele><time>2026-04-11T12:49:12.098Z</time></trkpt><trkpt lat="44.055584" lon="11.2378822"><ele>496.5</ele><time>2026-04-11T12:49:13.099Z</time></trkpt><trkpt lat="44.0554472" lon="11.2378199"><ele>496.0</ele><time>2026-04-11T12:49:14.099Z</time></trkpt><trkpt lat="44.0553164" lon="11.2377816"><ele>496.0</ele><time>2026-04-11T12:49:15.099Z</time></trkpt><trkpt lat="44.05519" lon="11.2377899"><ele>496.0</ele><time>2026-04-11T12:49:16.098Z</time></trkpt><trkpt lat="44.0550614" lon="11.2378494"><ele>496.0</ele><time>2026-04-11T12:49:17.098Z</time></trkpt><trkpt lat="44.0549479" lon="11.2379553"><ele>496.0</ele><time>2026-04-11T12:49:18.098Z</time></trkpt><trkpt lat="44.0548412" lon="11.2381019"><ele>495.6666666666667</ele><time>2026-04-11T12:49:19.099Z</time></trkpt><trkpt lat="44.0547456" lon="11.2382753"><ele>495.33333333333337</ele><time>2026-04-11T12:49:20.098Z</time></trkpt><trkpt lat="44.0546431" lon="11.2384258"><ele>495.0</ele><time>2026-04-11T12:49:21.099Z</time></trkpt><trkpt lat="44.0545244" lon="11.2385627"><ele>495.0</ele><time>2026-04-11T12:49:22.099Z</time></trkpt><trkpt lat="44.0543956" lon="11.2386958"><ele>495.0</ele><time>2026-04-11T12:49:23.098Z</time></trkpt><trkpt lat="44.0542712" lon="11.2388101"><ele>495.0</ele><time>2026-04-11T12:49:24.097Z</time></trkpt><trkpt lat="44.0541402" lon="11.238893"><ele>498.0</ele><time>2026-04-11T12:49:25.099Z</time></trkpt><trkpt lat="44.0539923" lon="11.2389411"><ele>501.0</ele><time>2026-04-11T12:49:26.099Z</time></trkpt><trkpt lat="44.0538423" lon="11.2389825"><ele>504.0</ele><time>2026-04-11T12:49:27.098Z</time></trkpt><trkpt lat="44.0536913" lon="11.2390133"><ele>495.33333333333337</ele><time>2026-04-11T12:49:28.098Z</time></trkpt><trkpt lat="44.0535413" lon="11.2390227"><ele>486.6666666666667</ele><time>2026-04-11T12:49:29.099Z</time></trkpt><trkpt lat="44.0533852" lon="11.2390168"><ele>478.0</ele><time>2026-04-11T12:49:30.098Z</time></trkpt><trkpt lat="44.0532249" lon="11.2390116"><ele>477.6666666666667</ele><time>2026-04-11T12:49:31.099Z</time></trkpt><trkpt lat="44.0530624" lon="11.2390211"><ele>477.33333333333337</ele><time>2026-04-11T12:49:32.099Z</time></trkpt><trkpt lat="44.0529031" lon="11.2390553"><ele>477.0</ele><time>2026-04-11T12:49:33.098Z</time></trkpt><trkpt lat="44.0527547" lon="11.2391026"><ele>477.0</ele><time>2026-04-11T12:49:34.098Z</time></trkpt><trkpt lat="44.0526046" lon="11.239135"><ele>477.0</ele><time>2026-04-11T12:49:35.099Z</time></trkpt><trkpt lat="44.0524523" lon="11.2391354"><ele>477.0</ele><time>2026-04-11T12:49:36.097Z</time></trkpt><trkpt lat="44.0522981" lon="11.2391517"><ele>473.33333333333337</ele><time>2026-04-11T12:49:37.099Z</time></trkpt><trkpt lat="44.0521451" lon="11.2391655"><ele>469.6666666666667</ele><time>2026-04-11T12:49:38.098Z</time></trkpt><trkpt lat="44.0519961" lon="11.2391765"><ele>466.0</ele><time>2026-04-11T12:49:39.099Z</time></trkpt><trkpt lat="44.051842" lon="11.2391827"><ele>466.0</ele><time>2026-04-11T12:49:40.098Z</time></trkpt><trkpt lat="44.0516866" lon="11.2391733"><ele>466.0</ele><time>2026-04-11T12:49:41.098Z</time></trkpt><trkpt lat="44.0515328" lon="11.2391656"><ele>466.0</ele><time>2026-04-11T12:49:42.099Z</time></trkpt><trkpt lat="44.051385" lon="11.2391586"><ele>464.0</ele><time>2026-04-11T12:49:43.099Z</time></trkpt><trkpt lat="44.0512332" lon="11.239152"><ele>462.0</ele><time>2026-04-11T12:49:44.098Z</time></trkpt><trkpt lat="44.051079" lon="11.2391443"><ele>460.0</ele><time>2026-04-11T12:49:45.099Z</time></trkpt><trkpt lat="44.0509212" lon="11.2391315"><ele>459.33333333333337</ele><time>2026-04-11T12:49:46.099Z</time></trkpt><trkpt lat="44.05076" lon="11.2391238"><ele>458.66666666666663</ele><time>2026-04-11T12:49:47.099Z</time></trkpt><trkpt lat="44.0505977" lon="11.2391202"><ele>458.0</ele><time>2026-04-11T12:49:48.098Z</time></trkpt><trkpt lat="44.0504336" lon="11.2391203"><ele>458.0</ele><time>2026-04-11T12:49:49.098Z</time></trkpt><trkpt lat="44.0502735" lon="11.2391192"><ele>458.0</ele><time>2026-04-11T12:49:50.099Z</time></trkpt><trkpt lat="44.050109" lon="11.2391151"><ele>458.0</ele><time>2026-04-11T12:49:51.099Z</time></trkpt><trkpt lat="44.0499432" lon="11.2391108"><ele>458.66666666666663</ele><time>2026-04-11T12:49:52.099Z</time></trkpt><trkpt lat="44.0497927" lon="11.2391042"><ele>459.33333333333337</ele><time>2026-04-11T12:49:53.098Z</time></trkpt><trkpt lat="44.049639" lon="11.2390848"><ele>460.0</ele><time>2026-04-11T12:49:54.097Z</time></trkpt><trkpt lat="44.0494902" lon="11.2390345"><ele>459.6666666666667</ele><time>2026-04-11T12:49:55.099Z</time></trkpt><trkpt lat="44.0493468" lon="11.2389551"><ele>459.33333333333337</ele><time>2026-04-11T12:49:56.099Z</time></trkpt><trkpt lat="44.0492065" lon="11.2388605"><ele>459.0</ele><time>2026-04-11T12:49:57.099Z</time></trkpt><trkpt lat="44.0490618" lon="11.238766"><ele>459.0</ele><time>2026-04-11T12:49:58.099Z</time></trkpt><trkpt lat="44.0489136" lon="11.2386863"><ele>459.0</ele><time>2026-04-11T12:49:59.098Z</time></trkpt><trkpt lat="44.0487728" lon="11.2386454"><ele>459.0</ele><time>2026-04-11T12:50:00.098Z</time></trkpt><trkpt lat="44.0486284" lon="11.2386375"><ele>459.0</ele><time>2026-04-11T12:50:01.099Z</time></trkpt><trkpt lat="44.0484992" lon="11.2386713"><ele>459.0</ele><time>2026-04-11T12:50:02.099Z</time></trkpt><trkpt lat="44.0483667" lon="11.2387521"><ele>459.0</ele><time>2026-04-11T12:50:03.099Z</time></trkpt><trkpt lat="44.0482381" lon="11.2388554"><ele>459.0</ele><time>2026-04-11T12:50:04.098Z</time></trkpt><trkpt lat="44.0480996" lon="11.2389741"><ele>461.0</ele><time>2026-04-11T12:50:05.098Z</time></trkpt><trkpt lat="44.0479565" lon="11.239058"><ele>463.0</ele><time>2026-04-11T12:50:06.098Z</time></trkpt><trkpt lat="44.0478063" lon="11.2391236"><ele>465.0</ele><time>2026-04-11T12:50:07.099Z</time></trkpt><trkpt lat="44.0476617" lon="11.2391804"><ele>465.0</ele><time>2026-04-11T12:50:08.099Z</time></trkpt><trkpt lat="44.0474986" lon="11.239232"><ele>465.0</ele><time>2026-04-11T12:50:09.099Z</time></trkpt><trkpt lat="44.0473389" lon="11.2392886"><ele>465.0</ele><time>2026-04-11T12:50:10.099Z</time></trkpt><trkpt lat="44.0471743" lon="11.2393411"><ele>462.33333333333337</ele><time>2026-04-11T12:50:11.099Z</time></trkpt><trkpt lat="44.0470166" lon="11.2393969"><ele>459.6666666666667</ele><time>2026-04-11T12:50:12.099Z</time></trkpt><trkpt lat="44.0468538" lon="11.2394561"><ele>457.0</ele><time>2026-04-11T12:50:13.099Z</time></trkpt><trkpt lat="44.0466929" lon="11.2395124"><ele>454.0</ele><time>2026-04-11T12:50:14.099Z</time></trkpt><trkpt lat="44.0465392" lon="11.2395629"><ele>451.0</ele><time>2026-04-11T12:50:15.098Z</time></trkpt><trkpt lat="44.0463884" lon="11.2396073"><ele>448.0</ele><time>2026-04-11T12:50:16.098Z</time></trkpt><trkpt lat="44.0462405" lon="11.2396331"><ele>448.0</ele><time>2026-04-11T12:50:17.098Z</time></trkpt><trkpt lat="44.0460983" lon="11.2396406"><ele>448.0</ele><time>2026-04-11T12:50:18.099Z</time></trkpt><trkpt lat="44.0459633" lon="11.2396467"><ele>448.0</ele><time>2026-04-11T12:50:19.099Z</time></trkpt><trkpt lat="44.0458328" lon="11.2396786"><ele>448.0</ele><time>2026-04-11T12:50:20.099Z</time></trkpt><trkpt lat="44.0457074" lon="11.2397466"><ele>447.0</ele><time>2026-04-11T12:50:21.098Z</time></trkpt><trkpt lat="44.0455832" lon="11.2398542"><ele>446.0</ele><time>2026-04-11T12:50:22.098Z</time></trkpt><trkpt lat="44.0454697" lon="11.2399869"><ele>445.0</ele><time>2026-04-11T12:50:23.098Z</time></trkpt><trkpt lat="44.0453535" lon="11.2401409"><ele>445.0</ele><time>2026-04-11T12:50:24.098Z</time></trkpt><trkpt lat="44.0452246" lon="11.240293"><ele>445.0</ele><time>2026-04-11T12:50:25.098Z</time></trkpt><trkpt lat="44.0450899" lon="11.240442"><ele>445.0</ele><time>2026-04-11T12:50:26.098Z</time></trkpt><trkpt lat="44.0449609" lon="11.2405841"><ele>444.33333333333337</ele><time>2026-04-11T12:50:27.099Z</time></trkpt><trkpt lat="44.0448322" lon="11.24072"><ele>443.66666666666663</ele><time>2026-04-11T12:50:28.098Z</time></trkpt><trkpt lat="44.0447019" lon="11.2408607"><ele>443.0</ele><time>2026-04-11T12:50:29.098Z</time></trkpt><trkpt lat="44.0445754" lon="11.2410044"><ele>443.0</ele><time>2026-04-11T12:50:30.099Z</time></trkpt><trkpt lat="44.0444531" lon="11.2411416"><ele>443.0</ele><time>2026-04-11T12:50:31.099Z</time></trkpt><trkpt lat="44.0443341" lon="11.2412693"><ele>443.0</ele><time>2026-04-11T12:50:32.099Z</time></trkpt><trkpt lat="44.0442176" lon="11.2413886"><ele>439.75</ele><time>2026-04-11T12:50:33.099Z</time></trkpt><trkpt lat="44.0441068" lon="11.2415057"><ele>436.5</ele><time>2026-04-11T12:50:34.099Z</time></trkpt><trkpt lat="44.0439979" lon="11.2416086"><ele>433.25</ele><time>2026-04-11T12:50:35.099Z</time></trkpt><trkpt lat="44.0438725" lon="11.2416736"><ele>430.0</ele><time>2026-04-11T12:50:36.099Z</time></trkpt><trkpt lat="44.0437276" lon="11.2416972"><ele>430.0</ele><time>2026-04-11T12:50:37.099Z</time></trkpt><trkpt lat="44.0435738" lon="11.24171"><ele>430.0</ele><time>2026-04-11T12:50:38.099Z</time></trkpt><trkpt lat="44.0434126" lon="11.2417185"><ele>430.0</ele><time>2026-04-11T12:50:39.099Z</time></trkpt><trkpt lat="44.043245" lon="11.2416966"><ele>426.6666666666667</ele><time>2026-04-11T12:50:40.098Z</time></trkpt><trkpt lat="44.0430772" lon="11.241635"><ele>423.33333333333337</ele><time>2026-04-11T12:50:41.098Z</time></trkpt><trkpt lat="44.0429188" lon="11.241548"><ele>420.0</ele><time>2026-04-11T12:50:42.098Z</time></trkpt><trkpt lat="44.0427659" lon="11.2414638"><ele>417.66666666666663</ele><time>2026-04-11T12:50:43.098Z</time></trkpt><trkpt lat="44.0426187" lon="11.2413876"><ele>415.3333333333333</ele><time>2026-04-11T12:50:44.099Z</time></trkpt><trkpt lat="44.0424723" lon="11.2413448"><ele>413.0</ele><time>2026-04-11T12:50:45.099Z</time></trkpt><trkpt lat="44.0423059" lon="11.2413478"><ele>412.0</ele><time>2026-04-11T12:50:46.098Z</time></trkpt><trkpt lat="44.0421542" lon="11.2414098"><ele>411.0</ele><time>2026-04-11T12:50:47.098Z</time></trkpt><trkpt lat="44.0420217" lon="11.2415075"><ele>410.0</ele><time>2026-04-11T12:50:48.097Z</time></trkpt><trkpt lat="44.0419043" lon="11.2416672"><ele>410.0</ele><time>2026-04-11T12:50:49.098Z</time></trkpt><trkpt lat="44.0418033" lon="11.2418556"><ele>410.0</ele><time>2026-04-11T12:50:50.097Z</time></trkpt><trkpt lat="44.0416768" lon="11.2420259"><ele>410.0</ele><time>2026-04-11T12:50:51.098Z</time></trkpt><trkpt lat="44.0415609" lon="11.2421714"><ele>413.75</ele><time>2026-04-11T12:50:52.098Z</time></trkpt><trkpt lat="44.0414701" lon="11.2423264"><ele>417.5</ele><time>2026-04-11T12:50:53.098Z</time></trkpt><trkpt lat="44.0414033" lon="11.2425138"><ele>421.25</ele><time>2026-04-11T12:50:54.097Z</time></trkpt><trkpt lat="44.0413611" lon="11.2427008"><ele>425.0</ele><time>2026-04-11T12:50:55.098Z</time></trkpt><trkpt lat="44.0413104" lon="11.2428735"><ele>425.0</ele><time>2026-04-11T12:50:56.099Z</time></trkpt><trkpt lat="44.0412414" lon="11.2430374"><ele>425.0</ele><time>2026-04-11T12:50:57.099Z</time></trkpt><trkpt lat="44.0411507" lon="11.2431897"><ele>425.0</ele><time>2026-04-11T12:50:58.098Z</time></trkpt><trkpt lat="44.0410403" lon="11.2433228"><ele>425.0</ele><time>2026-04-11T12:50:59.098Z</time></trkpt><trkpt lat="44.0409168" lon="11.2434396"><ele>426.5</ele><time>2026-04-11T12:51:00.099Z</time></trkpt><trkpt lat="44.0407891" lon="11.2435524"><ele>428.0</ele><time>2026-04-11T12:51:01.098Z</time></trkpt><trkpt lat="44.0406699" lon="11.2436671"><ele>429.5</ele><time>2026-04-11T12:51:02.099Z</time></trkpt><trkpt lat="44.0405566" lon="11.243784"><ele>431.0</ele><time>2026-04-11T12:51:03.099Z</time></trkpt><trkpt lat="44.0404417" lon="11.243895"><ele>427.0</ele><time>2026-04-11T12:51:04.099Z</time></trkpt><trkpt lat="44.0403094" lon="11.243982"><ele>423.0</ele><time>2026-04-11T12:51:05.098Z</time></trkpt><trkpt lat="44.040166" lon="11.2440376"><ele>419.0</ele><time>2026-04-11T12:51:06.098Z</time></trkpt><trkpt lat="44.0400154" lon="11.2440563"><ele>415.0</ele><time>2026-04-11T12:51:07.098Z</time></trkpt><trkpt lat="44.0398599" lon="11.2440432"><ele>417.6666666666667</ele><time>2026-04-11T12:51:08.098Z</time></trkpt><trkpt lat="44.0396983" lon="11.2440084"><ele>420.33333333333337</ele><time>2026-04-11T12:51:09.098Z</time></trkpt><trkpt lat="44.0395387" lon="11.243968"><ele>423.0</ele><time>2026-04-11T12:51:10.099Z</time></trkpt><trkpt lat="44.0393869" lon="11.2439252"><ele>423.0</ele><time>2026-04-11T12:51:11.099Z</time></trkpt><trkpt lat="44.039244" lon="11.2438636"><ele>423.0</ele><time>2026-04-11T12:51:12.099Z</time></trkpt><trkpt lat="44.0391194" lon="11.2437692"><ele>423.0</ele><time>2026-04-11T12:51:13.099Z</time></trkpt><trkpt lat="44.0390104" lon="11.2436458"><ele>423.0</ele><time>2026-04-11T12:51:14.099Z</time></trkpt><trkpt lat="44.0389183" lon="11.243494"><ele>418.0</ele><time>2026-04-11T12:51:15.098Z</time></trkpt><trkpt lat="44.0388481" lon="11.2433198"><ele>413.0</ele><time>2026-04-11T12:51:16.098Z</time></trkpt><trkpt lat="44.0387936" lon="11.2431337"><ele>408.0</ele><time>2026-04-11T12:51:17.098Z</time></trkpt><trkpt lat="44.0387453" lon="11.24295"><ele>403.0</ele><time>2026-04-11T12:51:18.098Z</time></trkpt><trkpt lat="44.0386819" lon="11.2427677"><ele>403.0</ele><time>2026-04-11T12:51:19.099Z</time></trkpt><trkpt lat="44.0385863" lon="11.2425988"><ele>403.0</ele><time>2026-04-11T12:51:20.099Z</time></trkpt><trkpt lat="44.0384655" lon="11.2424483"><ele>403.0</ele><time>2026-04-11T12:51:21.099Z</time></trkpt><trkpt lat="44.0383322" lon="11.2423235"><ele>400.0</ele><time>2026-04-11T12:51:22.099Z</time></trkpt><trkpt lat="44.0381902" lon="11.2422134"><ele>397.0</ele><time>2026-04-11T12:51:23.099Z</time></trkpt><trkpt lat="44.0380425" lon="11.2421023"><ele>394.0</ele><time>2026-04-11T12:51:24.098Z</time></trkpt><trkpt lat="44.0379002" lon="11.2419891"><ele>394.0</ele><time>2026-04-11T12:51:25.098Z</time></trkpt><trkpt lat="44.0377595" lon="11.2418827"><ele>394.0</ele><time>2026-04-11T12:51:26.099Z</time></trkpt><trkpt lat="44.0376164" lon="11.2417813"><ele>394.0</ele><time>2026-04-11T12:51:27.099Z</time></trkpt><trkpt lat="44.0374692" lon="11.2416827"><ele>393.0</ele><time>2026-04-11T12:51:28.098Z</time></trkpt><trkpt lat="44.0373268" lon="11.2415978"><ele>392.0</ele><time>2026-04-11T12:51:29.098Z</time></trkpt><trkpt lat="44.0371891" lon="11.2415387"><ele>391.0</ele><time>2026-04-11T12:51:30.098Z</time></trkpt><trkpt lat="44.0370605" lon="11.2414994"><ele>390.0</ele><time>2026-04-11T12:51:31.098Z</time></trkpt><trkpt lat="44.0369272" lon="11.2414677"><ele>389.25</ele><time>2026-04-11T12:51:32.099Z</time></trkpt><trkpt lat="44.0367842" lon="11.241439"><ele>388.5</ele><time>2026-04-11T12:51:33.099Z</time></trkpt><trkpt lat="44.0366417" lon="11.2414061"><ele>387.75</ele><time>2026-04-11T12:51:34.099Z</time></trkpt><trkpt lat="44.036497" lon="11.2413613"><ele>387.0</ele><time>2026-04-11T12:51:35.098Z</time></trkpt><trkpt lat="44.0363476" lon="11.2413013"><ele>386.0</ele><time>2026-04-11T12:51:36.097Z</time></trkpt><trkpt lat="44.0362106" lon="11.2412256"><ele>385.0</ele><time>2026-04-11T12:51:37.099Z</time></trkpt><trkpt lat="44.036082" lon="11.241135"><ele>384.0</ele><time>2026-04-11T12:51:38.099Z</time></trkpt><trkpt lat="44.0359593" lon="11.2410345"><ele>383.0</ele><time>2026-04-11T12:51:39.099Z</time></trkpt><trkpt lat="44.0358387" lon="11.2409304"><ele>380.75</ele><time>2026-04-11T12:51:40.098Z</time></trkpt><trkpt lat="44.0357154" lon="11.2408352"><ele>378.5</ele><time>2026-04-11T12:51:41.099Z</time></trkpt><trkpt lat="44.0355782" lon="11.2407717"><ele>376.25</ele><time>2026-04-11T12:51:42.099Z</time></trkpt><trkpt lat="44.0354349" lon="11.2407519"><ele>374.0</ele><time>2026-04-11T12:51:43.098Z</time></trkpt><trkpt lat="44.0352969" lon="11.2407568"><ele>374.0</ele><time>2026-04-11T12:51:44.099Z</time></trkpt><trkpt lat="44.0351597" lon="11.2407954"><ele>374.0</ele><time>2026-04-11T12:51:45.099Z</time></trkpt><trkpt lat="44.0350346" lon="11.2408752"><ele>374.0</ele><time>2026-04-11T12:51:46.099Z</time></trkpt><trkpt lat="44.0349121" lon="11.24095"><ele>374.0</ele><time>2026-04-11T12:51:47.099Z</time></trkpt><trkpt lat="44.0347684" lon="11.2409922"><ele>375.6666666666667</ele><time>2026-04-11T12:51:48.099Z</time></trkpt><trkpt lat="44.0346154" lon="11.24101"><ele>377.3333333333333</ele><time>2026-04-11T12:51:49.099Z</time></trkpt><trkpt lat="44.0344543" lon="11.2410229"><ele>379.0</ele><time>2026-04-11T12:51:50.098Z</time></trkpt><trkpt lat="44.0342871" lon="11.2410295"><ele>375.0</ele><time>2026-04-11T12:51:51.098Z</time></trkpt><trkpt lat="44.034114" lon="11.2410221"><ele>371.0</ele><time>2026-04-11T12:51:52.098Z</time></trkpt><trkpt lat="44.0339381" lon="11.2409972"><ele>367.0</ele><time>2026-04-11T12:51:53.098Z</time></trkpt><trkpt lat="44.0337666" lon="11.2409618"><ele>367.0</ele><time>2026-04-11T12:51:54.099Z</time></trkpt><trkpt lat="44.03359" lon="11.2409229"><ele>367.0</ele><time>2026-04-11T12:51:55.099Z</time></trkpt><trkpt lat="44.033411" lon="11.240886"><ele>367.0</ele><time>2026-04-11T12:51:56.099Z</time></trkpt><trkpt lat="44.0332386" lon="11.2408392"><ele>366.0</ele><time>2026-04-11T12:51:57.099Z</time></trkpt><trkpt lat="44.0330747" lon="11.240768"><ele>365.0</ele><time>2026-04-11T12:51:58.098Z</time></trkpt><trkpt lat="44.0329209" lon="11.24067"><ele>364.0</ele><time>2026-04-11T12:51:59.098Z</time></trkpt><trkpt lat="44.0327726" lon="11.2405742"><ele>364.0</ele><time>2026-04-11T12:52:00.099Z</time></trkpt><trkpt lat="44.0326199" lon="11.2405104"><ele>364.0</ele><time>2026-04-11T12:52:01.099Z</time></trkpt><trkpt lat="44.0324676" lon="11.2404756"><ele>364.0</ele><time>2026-04-11T12:52:02.099Z</time></trkpt><trkpt lat="44.0323212" lon="11.2404606"><ele>359.75</ele><time>2026-04-11T12:52:03.099Z</time></trkpt><trkpt lat="44.0321824" lon="11.240469"><ele>355.5</ele><time>2026-04-11T12:52:04.098Z</time></trkpt><trkpt lat="44.0320485" lon="11.2404936"><ele>351.25</ele><time>2026-04-11T12:52:05.098Z</time></trkpt><trkpt lat="44.0319163" lon="11.2405026"><ele>347.0</ele><time>2026-04-11T12:52:06.099Z</time></trkpt><trkpt lat="44.0317907" lon="11.2404681"><ele>347.0</ele><time>2026-04-11T12:52:07.098Z</time></trkpt><trkpt lat="44.0316987" lon="11.2404047"><ele>347.0</ele><time>2026-04-11T12:52:08.098Z</time></trkpt><trkpt lat="44.031619" lon="11.2402814"><ele>347.0</ele><time>2026-04-11T12:52:09.098Z</time></trkpt><trkpt lat="44.0315428" lon="11.240117"><ele>347.0</ele><time>2026-04-11T12:52:10.099Z</time></trkpt><trkpt lat="44.0314615" lon="11.2399493"><ele>340.75</ele><time>2026-04-11T12:52:11.099Z</time></trkpt><trkpt lat="44.0313882" lon="11.2397864"><ele>334.5</ele><time>2026-04-11T12:52:12.099Z</time></trkpt><trkpt lat="44.0313225" lon="11.2396226"><ele>328.25</ele><time>2026-04-11T12:52:13.099Z</time></trkpt><trkpt lat="44.0312659" lon="11.2394653"><ele>322.0</ele><time>2026-04-11T12:52:14.099Z</time></trkpt><trkpt lat="44.0312527" lon="11.2392959"><ele>322.0</ele><time>2026-04-11T12:52:15.098Z</time></trkpt><trkpt lat="44.0312873" lon="11.239103"><ele>322.0</ele><time>2026-04-11T12:52:16.098Z</time></trkpt><trkpt lat="44.031353" lon="11.2389244"><ele>322.0</ele><time>2026-04-11T12:52:17.098Z</time></trkpt><trkpt lat="44.0314031" lon="11.2387679"><ele>322.0</ele><time>2026-04-11T12:52:18.099Z</time></trkpt><trkpt lat="44.031428" lon="11.2386066"><ele>320.40000000000003</ele><time>2026-04-11T12:52:19.099Z</time></trkpt><trkpt lat="44.0314219" lon="11.2384552"><ele>318.8</ele><time>2026-04-11T12:52:20.099Z</time></trkpt><trkpt lat="44.0313804" lon="11.2383213"><ele>317.2</ele><time>2026-04-11T12:52:21.099Z</time></trkpt><trkpt lat="44.0313139" lon="11.2382183"><ele>315.6</ele><time>2026-04-11T12:52:22.099Z</time></trkpt><trkpt lat="44.0312263" lon="11.2381626"><ele>314.0</ele><time>2026-04-11T12:52:23.099Z</time></trkpt><trkpt lat="44.031123" lon="11.2381529"><ele>314.0</ele><time>2026-04-11T12:52:24.099Z</time></trkpt><trkpt lat="44.031026" lon="11.2381981"><ele>314.0</ele><time>2026-04-11T12:52:25.098Z</time></trkpt><trkpt lat="44.030944" lon="11.2382822"><ele>314.0</ele><time>2026-04-11T12:52:26.099Z</time></trkpt><trkpt lat="44.0308766" lon="11.2383978"><ele>314.0</ele><time>2026-04-11T12:52:27.099Z</time></trkpt><trkpt lat="44.0308229" lon="11.238515"><ele>314.0</ele><time>2026-04-11T12:52:28.099Z</time></trkpt><trkpt lat="44.0307657" lon="11.2386115"><ele>313.6666666666667</ele><time>2026-04-11T12:52:29.098Z</time></trkpt><trkpt lat="44.0307045" lon="11.2386898"><ele>313.33333333333337</ele><time>2026-04-11T12:52:30.099Z</time></trkpt><trkpt lat="44.0306455" lon="11.2387581"><ele>313.0</ele><time>2026-04-11T12:52:31.099Z</time></trkpt><trkpt lat="44.0305886" lon="11.2388195"><ele>312.6666666666667</ele><time>2026-04-11T12:52:32.099Z</time></trkpt><trkpt lat="44.0305193" lon="11.2388455"><ele>312.3333333333333</ele><time>2026-04-11T12:52:33.098Z</time></trkpt><trkpt lat="44.0304379" lon="11.2388198"><ele>312.0</ele><time>2026-04-11T12:52:34.099Z</time></trkpt><trkpt lat="44.0303587" lon="11.2387436"><ele>312.0</ele><time>2026-04-11T12:52:35.099Z</time></trkpt><trkpt lat="44.0302745" lon="11.2386563"><ele>312.0</ele><time>2026-04-11T12:52:36.098Z</time></trkpt><trkpt lat="44.0301855" lon="11.238574"><ele>312.0</ele><time>2026-04-11T12:52:37.099Z</time></trkpt><trkpt lat="44.0300932" lon="11.2384898"><ele>312.0</ele><time>2026-04-11T12:52:38.099Z</time></trkpt><trkpt lat="44.0300017" lon="11.2384047"><ele>312.0</ele><time>2026-04-11T12:52:39.099Z</time></trkpt><trkpt lat="44.0299129" lon="11.2383086"><ele>311.75</ele><time>2026-04-11T12:52:40.097Z</time></trkpt><trkpt lat="44.029818" lon="11.2382117"><ele>311.5</ele><time>2026-04-11T12:52:41.098Z</time></trkpt><trkpt lat="44.029714" lon="11.2381196"><ele>311.25</ele><time>2026-04-11T12:52:42.098Z</time></trkpt><trkpt lat="44.0296059" lon="11.238038"><ele>311.0</ele><time>2026-04-11T12:52:43.099Z</time></trkpt><trkpt lat="44.0294951" lon="11.237963"><ele>313.25</ele><time>2026-04-11T12:52:44.099Z</time></trkpt><trkpt lat="44.0293846" lon="11.237894"><ele>315.5</ele><time>2026-04-11T12:52:45.099Z</time></trkpt><trkpt lat="44.0292711" lon="11.2378255"><ele>317.75</ele><time>2026-04-11T12:52:46.098Z</time></trkpt><trkpt lat="44.0291568" lon="11.2377525"><ele>320.0</ele><time>2026-04-11T12:52:47.099Z</time></trkpt><trkpt lat="44.029038" lon="11.2376776"><ele>320.0</ele><time>2026-04-11T12:52:48.099Z</time></trkpt><trkpt lat="44.0289192" lon="11.2376042"><ele>320.0</ele><time>2026-04-11T12:52:49.099Z</time></trkpt><trkpt lat="44.0287926" lon="11.2375274"><ele>320.0</ele><time>2026-04-11T12:52:50.099Z</time></trkpt><trkpt lat="44.0286621" lon="11.237431"><ele>320.0</ele><time>2026-04-11T12:52:51.099Z</time></trkpt><trkpt lat="44.0285433" lon="11.2373282"><ele>320.6666666666667</ele><time>2026-04-11T12:52:52.099Z</time></trkpt><trkpt lat="44.028424" lon="11.2372072"><ele>321.3333333333333</ele><time>2026-04-11T12:52:53.099Z</time></trkpt><trkpt lat="44.0283049" lon="11.2370736"><ele>322.0</ele><time>2026-04-11T12:52:54.099Z</time></trkpt><trkpt lat="44.0281906" lon="11.2369372"><ele>322.0</ele><time>2026-04-11T12:52:55.099Z</time></trkpt><trkpt lat="44.0280665" lon="11.2368099"><ele>322.0</ele><time>2026-04-11T12:52:56.099Z</time></trkpt><trkpt lat="44.0279489" lon="11.2367082"><ele>322.0</ele><time>2026-04-11T12:52:57.099Z</time></trkpt><trkpt lat="44.0278358" lon="11.2366279"><ele>322.0</ele><time>2026-04-11T12:52:58.099Z</time></trkpt><trkpt lat="44.0277136" lon="11.2365703"><ele>322.0</ele><time>2026-04-11T12:52:59.099Z</time></trkpt><trkpt lat="44.0275954" lon="11.2365363"><ele>322.0</ele><time>2026-04-11T12:53:00.098Z</time></trkpt><trkpt lat="44.0274817" lon="11.2365118"><ele>322.0</ele><time>2026-04-11T12:53:01.099Z</time></trkpt><trkpt lat="44.0273736" lon="11.2364876"><ele>322.0</ele><time>2026-04-11T12:53:02.098Z</time></trkpt><trkpt lat="44.0272714" lon="11.2364644"><ele>322.0</ele><time>2026-04-11T12:53:03.099Z</time></trkpt><trkpt lat="44.0271762" lon="11.2364439"><ele>323.6</ele><time>2026-04-11T12:53:04.099Z</time></trkpt><trkpt lat="44.0270856" lon="11.2364148"><ele>325.20000000000005</ele><time>2026-04-11T12:53:05.098Z</time></trkpt><trkpt lat="44.0269862" lon="11.2363587"><ele>326.8</ele><time>2026-04-11T12:53:06.098Z</time></trkpt><trkpt lat="44.0268842" lon="11.236285"><ele>328.4</ele><time>2026-04-11T12:53:07.098Z</time></trkpt><trkpt lat="44.0267896" lon="11.2362126"><ele>330.0</ele><time>2026-04-11T12:53:08.098Z</time></trkpt><trkpt lat="44.0266908" lon="11.2361296"><ele>327.0</ele><time>2026-04-11T12:53:09.099Z</time></trkpt><trkpt lat="44.0265952" lon="11.2360634"><ele>324.0</ele><time>2026-04-11T12:53:10.099Z</time></trkpt><trkpt lat="44.026498" lon="11.236009"><ele>321.0</ele><time>2026-04-11T12:53:11.098Z</time></trkpt><trkpt lat="44.0263895" lon="11.235968"><ele>318.0</ele><time>2026-04-11T12:53:12.099Z</time></trkpt><trkpt lat="44.0262796" lon="11.2359451"><ele>315.0</ele><time>2026-04-11T12:53:13.099Z</time></trkpt><trkpt lat="44.0261654" lon="11.2359297"><ele>315.0</ele><time>2026-04-11T12:53:14.099Z</time></trkpt><trkpt lat="44.0260605" lon="11.2359163"><ele>315.0</ele><time>2026-04-11T12:53:15.099Z</time></trkpt><trkpt lat="44.0259596" lon="11.2359011"><ele>315.0</ele><time>2026-04-11T12:53:16.099Z</time></trkpt><trkpt lat="44.0258646" lon="11.235892"><ele>315.0</ele><time>2026-04-11T12:53:17.098Z</time></trkpt><trkpt lat="44.0257717" lon="11.2358805"><ele>315.0</ele><time>2026-04-11T12:53:18.099Z</time></trkpt><trkpt lat="44.0256718" lon="11.2358635"><ele>311.75</ele><time>2026-04-11T12:53:19.099Z</time></trkpt><trkpt lat="44.0255694" lon="11.235824"><ele>308.5</ele><time>2026-04-11T12:53:20.099Z</time></trkpt><trkpt lat="44.0254632" lon="11.2357688"><ele>305.25</ele><time>2026-04-11T12:53:21.099Z</time></trkpt><trkpt lat="44.025352" lon="11.235709"><ele>302.0</ele><time>2026-04-11T12:53:22.098Z</time></trkpt><trkpt lat="44.0252461" lon="11.2356527"><ele>302.25</ele><time>2026-04-11T12:53:23.099Z</time></trkpt><trkpt lat="44.025146" lon="11.2355988"><ele>302.5</ele><time>2026-04-11T12:53:24.099Z</time></trkpt><trkpt lat="44.0250422" lon="11.2355455"><ele>302.75</ele><time>2026-04-11T12:53:25.098Z</time></trkpt><trkpt lat="44.0249312" lon="11.235497"><ele>303.0</ele><time>2026-04-11T12:53:26.099Z</time></trkpt><trkpt lat="44.0248132" lon="11.2354615"><ele>303.0</ele><time>2026-04-11T12:53:27.098Z</time></trkpt><trkpt lat="44.0246919" lon="11.2354259"><ele>303.0</ele><time>2026-04-11T12:53:28.098Z</time></trkpt><trkpt lat="44.024565" lon="11.2353861"><ele>303.0</ele><time>2026-04-11T12:53:29.098Z</time></trkpt><trkpt lat="44.0244439" lon="11.2353528"><ele>303.0</ele><time>2026-04-11T12:53:30.098Z</time></trkpt><trkpt lat="44.0243296" lon="11.2353265"><ele>303.0</ele><time>2026-04-11T12:53:31.099Z</time></trkpt><trkpt lat="44.0242182" lon="11.2353015"><ele>303.0</ele><time>2026-04-11T12:53:32.099Z</time></trkpt><trkpt lat="44.0241018" lon="11.235272"><ele>303.0</ele><time>2026-04-11T12:53:33.099Z</time></trkpt><trkpt lat="44.0239864" lon="11.2352398"><ele>303.0</ele><time>2026-04-11T12:53:34.099Z</time></trkpt><trkpt lat="44.0238666" lon="11.2352129"><ele>302.0</ele><time>2026-04-11T12:53:35.099Z</time></trkpt><trkpt lat="44.0237445" lon="11.2351871"><ele>301.0</ele><time>2026-04-11T12:53:36.099Z</time></trkpt><trkpt lat="44.0236273" lon="11.2351587"><ele>300.0</ele><time>2026-04-11T12:53:37.099Z</time></trkpt><trkpt lat="44.0235127" lon="11.2351291"><ele>299.0</ele><time>2026-04-11T12:53:38.098Z</time></trkpt><trkpt lat="44.0233992" lon="11.235096"><ele>298.75</ele><time>2026-04-11T12:53:39.098Z</time></trkpt><trkpt lat="44.023276" lon="11.2350496"><ele>298.5</ele><time>2026-04-11T12:53:40.098Z</time></trkpt><trkpt lat="44.0231564" lon="11.2349886"><ele>298.25</ele><time>2026-04-11T12:53:41.098Z</time></trkpt><trkpt lat="44.0230466" lon="11.2349271"><ele>298.0</ele><time>2026-04-11T12:53:42.098Z</time></trkpt><trkpt lat="44.0229305" lon="11.2348662"><ele>298.0</ele><time>2026-04-11T12:53:43.098Z</time></trkpt><trkpt lat="44.0228217" lon="11.2348015"><ele>298.0</ele><time>2026-04-11T12:53:44.097Z</time></trkpt><trkpt lat="44.0227134" lon="11.2347279"><ele>298.0</ele><time>2026-04-11T12:53:45.099Z</time></trkpt><trkpt lat="44.0226069" lon="11.2346414"><ele>298.0</ele><time>2026-04-11T12:53:46.098Z</time></trkpt><trkpt lat="44.0225046" lon="11.2345464"><ele>297.8</ele><time>2026-04-11T12:53:47.099Z</time></trkpt><trkpt lat="44.0224025" lon="11.2344538"><ele>297.6</ele><time>2026-04-11T12:53:48.098Z</time></trkpt><trkpt lat="44.0223057" lon="11.2343659"><ele>297.4</ele><time>2026-04-11T12:53:49.099Z</time></trkpt><trkpt lat="44.0222175" lon="11.234289"><ele>297.2</ele><time>2026-04-11T12:53:50.099Z</time></trkpt><trkpt lat="44.0221436" lon="11.2342191"><ele>297.0</ele><time>2026-04-11T12:53:51.099Z</time></trkpt><trkpt lat="44.022083" lon="11.2341541"><ele>297.0</ele><time>2026-04-11T12:53:52.099Z</time></trkpt><trkpt lat="44.0220271" lon="11.2340899"><ele>297.0</ele><time>2026-04-11T12:53:53.098Z</time></trkpt><trkpt lat="44.0219736" lon="11.2340266"><ele>297.0</ele><time>2026-04-11T12:53:54.098Z</time></trkpt><trkpt lat="44.0219191" lon="11.2339593"><ele>297.0</ele><time>2026-04-11T12:53:55.098Z</time></trkpt><trkpt lat="44.0218728" lon="11.233896"><ele>297.0</ele><time>2026-04-11T12:53:56.098Z</time></trkpt><trkpt lat="44.0218249" lon="11.2338301"><ele>297.0</ele><time>2026-04-11T12:53:57.098Z</time></trkpt><trkpt lat="44.0217733" lon="11.2337568"><ele>297.0</ele><time>2026-04-11T12:53:58.098Z</time></trkpt><trkpt lat="44.021729" lon="11.2336877"><ele>297.1666666666667</ele><time>2026-04-11T12:53:59.098Z</time></trkpt><trkpt lat="44.0216844" lon="11.2336117"><ele>297.3333333333333</ele><time>2026-04-11T12:54:00.098Z</time></trkpt><trkpt lat="44.0216327" lon="11.2335298"><ele>297.5</ele><time>2026-04-11T12:54:01.098Z</time></trkpt><trkpt lat="44.0215775" lon="11.2334454"><ele>297.66666666666663</ele><time>2026-04-11T12:54:02.099Z</time></trkpt><trkpt lat="44.0215281" lon="11.2333728"><ele>297.8333333333333</ele><time>2026-04-11T12:54:03.099Z</time></trkpt><trkpt lat="44.0214809" lon="11.2333048"><ele>298.0</ele><time>2026-04-11T12:54:04.099Z</time></trkpt><trkpt lat="44.0214269" lon="11.2332212"><ele>297.8</ele><time>2026-04-11T12:54:05.099Z</time></trkpt><trkpt lat="44.0213626" lon="11.2331421"><ele>297.6</ele><time>2026-04-11T12:54:06.099Z</time></trkpt><trkpt lat="44.0213008" lon="11.2330486"><ele>297.4</ele><time>2026-04-11T12:54:07.099Z</time></trkpt><trkpt lat="44.021242" lon="11.2329468"><ele>297.2</ele><time>2026-04-11T12:54:08.099Z</time></trkpt><trkpt lat="44.0211808" lon="11.2328488"><ele>297.0</ele><time>2026-04-11T12:54:09.099Z</time></trkpt><trkpt lat="44.0211178" lon="11.2327491"><ele>297.0</ele><time>2026-04-11T12:54:10.099Z</time></trkpt><trkpt lat="44.0210558" lon="11.2326452"><ele>297.0</ele><time>2026-04-11T12:54:11.099Z</time></trkpt><trkpt lat="44.0209957" lon="11.232551"><ele>297.0</ele><time>2026-04-11T12:54:12.098Z</time></trkpt><trkpt lat="44.0209361" lon="11.2324635"><ele>297.0</ele><time>2026-04-11T12:54:13.099Z</time></trkpt><trkpt lat="44.0208772" lon="11.2323664"><ele>297.0</ele><time>2026-04-11T12:54:14.098Z</time></trkpt><trkpt lat="44.0208152" lon="11.2322676"><ele>297.2</ele><time>2026-04-11T12:54:15.099Z</time></trkpt><trkpt lat="44.0207523" lon="11.2321643"><ele>297.4</ele><time>2026-04-11T12:54:16.099Z</time></trkpt><trkpt lat="44.0206821" lon="11.232056"><ele>297.6</ele><time>2026-04-11T12:54:17.098Z</time></trkpt><trkpt lat="44.0206141" lon="11.2319549"><ele>297.8</ele><time>2026-04-11T12:54:18.099Z</time></trkpt><trkpt lat="44.0205544" lon="11.2318639"><ele>298.0</ele><time>2026-04-11T12:54:19.099Z</time></trkpt><trkpt lat="44.0205008" lon="11.2317759"><ele>298.0</ele><time>2026-04-11T12:54:20.098Z</time></trkpt><trkpt lat="44.020442" lon="11.2316906"><ele>298.0</ele><time>2026-04-11T12:54:21.098Z</time></trkpt><trkpt lat="44.0203837" lon="11.231609"><ele>298.0</ele><time>2026-04-11T12:54:22.099Z</time></trkpt><trkpt lat="44.0203255" lon="11.2315219"><ele>298.0</ele><time>2026-04-11T12:54:23.098Z</time></trkpt><trkpt lat="44.0202655" lon="11.2314328"><ele>298.0</ele><time>2026-04-11T12:54:24.098Z</time></trkpt><trkpt lat="44.0202017" lon="11.2313388"><ele>298.0</ele><time>2026-04-11T12:54:25.098Z</time></trkpt><trkpt lat="44.0201367" lon="11.2312387"><ele>297.8</ele><time>2026-04-11T12:54:26.098Z</time></trkpt><trkpt lat="44.0200726" lon="11.2311391"><ele>297.6</ele><time>2026-04-11T12:54:27.099Z</time></trkpt><trkpt lat="44.0200075" lon="11.2310426"><ele>297.4</ele><time>2026-04-11T12:54:28.099Z</time></trkpt><trkpt lat="44.0199421" lon="11.2309428"><ele>297.2</ele><time>2026-04-11T12:54:29.099Z</time></trkpt><trkpt lat="44.0198806" lon="11.2308468"><ele>297.0</ele><time>2026-04-11T12:54:30.099Z</time></trkpt><trkpt lat="44.0198187" lon="11.2307533"><ele>297.0</ele><time>2026-04-11T12:54:31.098Z</time></trkpt><trkpt lat="44.0197572" lon="11.2306602"><ele>297.0</ele><time>2026-04-11T12:54:32.098Z</time></trkpt><trkpt lat="44.0196952" lon="11.2305632"><ele>297.0</ele><time>2026-04-11T12:54:33.098Z</time></trkpt><trkpt lat="44.0196312" lon="11.2304629"><ele>297.0</ele><time>2026-04-11T12:54:34.098Z</time></trkpt><trkpt lat="44.0195663" lon="11.2303595"><ele>297.0</ele><time>2026-04-11T12:54:35.098Z</time></trkpt><trkpt lat="44.0195075" lon="11.2302725"><ele>297.3333333333333</ele><time>2026-04-11T12:54:36.098Z</time></trkpt><trkpt lat="44.0194441" lon="11.2301952"><ele>297.6666666666667</ele><time>2026-04-11T12:54:37.099Z</time></trkpt><trkpt lat="44.0193805" lon="11.2301049"><ele>298.0</ele><time>2026-04-11T12:54:38.099Z</time></trkpt><trkpt lat="44.0193269" lon="11.2300182"><ele>298.33333333333337</ele><time>2026-04-11T12:54:39.098Z</time></trkpt><trkpt lat="44.0192759" lon="11.2299401"><ele>298.6666666666667</ele><time>2026-04-11T12:54:40.098Z</time></trkpt><trkpt lat="44.0192352" lon="11.2298619"><ele>299.0</ele><time>2026-04-11T12:54:41.099Z</time></trkpt><trkpt lat="44.0191933" lon="11.229787"><ele>299.33333333333337</ele><time>2026-04-11T12:54:42.099Z</time></trkpt><trkpt lat="44.0191412" lon="11.2297134"><ele>299.6666666666667</ele><time>2026-04-11T12:54:43.099Z</time></trkpt><trkpt lat="44.0190811" lon="11.2296389"><ele>300.0</ele><time>2026-04-11T12:54:44.099Z</time></trkpt><trkpt lat="44.0190241" lon="11.229564"><ele>300.3333333333333</ele><time>2026-04-11T12:54:45.098Z</time></trkpt><trkpt lat="44.0189734" lon="11.2294999"><ele>300.66666666666663</ele><time>2026-04-11T12:54:46.098Z</time></trkpt><trkpt lat="44.0189271" lon="11.2294377"><ele>301.0</ele><time>2026-04-11T12:54:47.098Z</time></trkpt><trkpt lat="44.0188611" lon="11.229345"><ele>301.0</ele><time>2026-04-11T12:54:49.098Z</time></trkpt><trkpt lat="44.0187751" lon="11.2293407"><ele>301.0</ele><time>2026-04-11T12:54:54.099Z</time></trkpt><trkpt lat="44.018703" lon="11.2294675"><ele>301.0</ele><time>2026-04-11T12:54:56.099Z</time></trkpt><trkpt lat="44.0186424" lon="11.2295673"><ele>301.0</ele><time>2026-04-11T12:54:57.098Z</time></trkpt><trkpt lat="44.0185678" lon="11.2296615"><ele>301.0</ele><time>2026-04-11T12:54:58.098Z</time></trkpt><trkpt lat="44.0184762" lon="11.2297718"><ele>300.25</ele><time>2026-04-11T12:54:59.096Z</time></trkpt><trkpt lat="44.0183757" lon="11.2298906"><ele>299.5</ele><time>2026-04-11T12:55:00.097Z</time></trkpt><trkpt lat="44.0182689" lon="11.2300155"><ele>298.75</ele><time>2026-04-11T12:55:01.097Z</time></trkpt><trkpt lat="44.0181552" lon="11.2301482"><ele>298.0</ele><time>2026-04-11T12:55:02.097Z</time></trkpt><trkpt lat="44.0180375" lon="11.2302942"><ele>297.0</ele><time>2026-04-11T12:55:03.097Z</time></trkpt><trkpt lat="44.0179253" lon="11.2304475"><ele>296.0</ele><time>2026-04-11T12:55:04.097Z</time></trkpt><trkpt lat="44.0178198" lon="11.2306101"><ele>295.0</ele><time>2026-04-11T12:55:05.098Z</time></trkpt><trkpt lat="44.0177158" lon="11.2307565"><ele>295.0</ele><time>2026-04-11T12:55:06.098Z</time></trkpt><trkpt lat="44.0176072" lon="11.2308797"><ele>295.0</ele><time>2026-04-11T12:55:07.097Z</time></trkpt><trkpt lat="44.0174907" lon="11.2309899"><ele>295.0</ele><time>2026-04-11T12:55:08.097Z</time></trkpt><trkpt lat="44.0173859" lon="11.2311126"><ele>295.0</ele><time>2026-04-11T12:55:09.097Z</time></trkpt><trkpt lat="44.0172906" lon="11.2312487"><ele>294.25</ele><time>2026-04-11T12:55:10.097Z</time></trkpt><trkpt lat="44.0172015" lon="11.2313889"><ele>293.5</ele><time>2026-04-11T12:55:11.097Z</time></trkpt><trkpt lat="44.0171137" lon="11.23152"><ele>292.75</ele><time>2026-04-11T12:55:12.097Z</time></trkpt><trkpt lat="44.0170234" lon="11.2316373"><ele>292.0</ele><time>2026-04-11T12:55:13.096Z</time></trkpt><trkpt lat="44.0169442" lon="11.2317249"><ele>292.0</ele><time>2026-04-11T12:55:14.097Z</time></trkpt><trkpt lat="44.016871" lon="11.2317749"><ele>292.0</ele><time>2026-04-11T12:55:15.098Z</time></trkpt><trkpt lat="44.0167946" lon="11.2317878"><ele>292.0</ele><time>2026-04-11T12:55:16.097Z</time></trkpt><trkpt lat="44.0167245" lon="11.2317697"><ele>292.0</ele><time>2026-04-11T12:55:17.097Z</time></trkpt><trkpt lat="44.0166619" lon="11.2317126"><ele>292.0</ele><time>2026-04-11T12:55:18.097Z</time></trkpt><trkpt lat="44.0166118" lon="11.2316097"><ele>292.0</ele><time>2026-04-11T12:55:19.097Z</time></trkpt><trkpt lat="44.0165584" lon="11.2314823"><ele>291.5</ele><time>2026-04-11T12:55:20.098Z</time></trkpt><trkpt lat="44.0164935" lon="11.2313405"><ele>291.0</ele><time>2026-04-11T12:55:21.098Z</time></trkpt><trkpt lat="44.0164184" lon="11.2311874"><ele>290.5</ele><time>2026-04-11T12:55:22.098Z</time></trkpt><trkpt lat="44.0163323" lon="11.2310312"><ele>290.0</ele><time>2026-04-11T12:55:23.097Z</time></trkpt><trkpt lat="44.0162434" lon="11.2308818"><ele>290.0</ele><time>2026-04-11T12:55:24.098Z</time></trkpt><trkpt lat="44.0161619" lon="11.2307457"><ele>290.0</ele><time>2026-04-11T12:55:25.098Z</time></trkpt><trkpt lat="44.0160828" lon="11.2306071"><ele>290.0</ele><time>2026-04-11T12:55:26.098Z</time></trkpt><trkpt lat="44.016006" lon="11.2304691"><ele>290.0</ele><time>2026-04-11T12:55:27.098Z</time></trkpt><trkpt lat="44.0159408" lon="11.230346"><ele>291.0</ele><time>2026-04-11T12:55:28.098Z</time></trkpt><trkpt lat="44.0158897" lon="11.2302255"><ele>292.0</ele><time>2026-04-11T12:55:29.097Z</time></trkpt><trkpt lat="44.0158347" lon="11.2301243"><ele>293.0</ele><time>2026-04-11T12:55:30.096Z</time></trkpt><trkpt lat="44.015762" lon="11.2300667"><ele>294.0</ele><time>2026-04-11T12:55:31.097Z</time></trkpt><trkpt lat="44.0156744" lon="11.2300537"><ele>295.0</ele><time>2026-04-11T12:55:32.097Z</time></trkpt><trkpt lat="44.0155803" lon="11.230095"><ele>295.5</ele><time>2026-04-11T12:55:33.096Z</time></trkpt><trkpt lat="44.01548" lon="11.2301688"><ele>296.0</ele><time>2026-04-11T12:55:34.098Z</time></trkpt><trkpt lat="44.0153643" lon="11.2302489"><ele>296.5</ele><time>2026-04-11T12:55:35.096Z</time></trkpt><trkpt lat="44.0152325" lon="11.2303172"><ele>297.0</ele><time>2026-04-11T12:55:36.098Z</time></trkpt><trkpt lat="44.0150965" lon="11.2303784"><ele>298.0</ele><time>2026-04-11T12:55:37.098Z</time></trkpt><trkpt lat="44.0149456" lon="11.230437"><ele>299.0</ele><time>2026-04-11T12:55:38.097Z</time></trkpt><trkpt lat="44.0147801" lon="11.2304761"><ele>300.0</ele><time>2026-04-11T12:55:39.098Z</time></trkpt><trkpt lat="44.0146078" lon="11.2304887"><ele>300.0</ele><time>2026-04-11T12:55:40.098Z</time></trkpt><trkpt lat="44.0144322" lon="11.2304832"><ele>300.0</ele><time>2026-04-11T12:55:41.098Z</time></trkpt><trkpt lat="44.0142606" lon="11.2304578"><ele>300.0</ele><time>2026-04-11T12:55:42.098Z</time></trkpt><trkpt lat="44.0141057" lon="11.2304078"><ele>298.3333333333333</ele><time>2026-04-11T12:55:43.098Z</time></trkpt><trkpt lat="44.0139584" lon="11.2303477"><ele>296.66666666666663</ele><time>2026-04-11T12:55:44.098Z</time></trkpt><trkpt lat="44.0138103" lon="11.2302905"><ele>295.0</ele><time>2026-04-11T12:55:45.097Z</time></trkpt><trkpt lat="44.013656" lon="11.2302391"><ele>295.0</ele><time>2026-04-11T12:55:46.097Z</time></trkpt><trkpt lat="44.013498" lon="11.2301886"><ele>295.0</ele><time>2026-04-11T12:55:47.098Z</time></trkpt><trkpt lat="44.0133351" lon="11.2301324"><ele>295.0</ele><time>2026-04-11T12:55:48.098Z</time></trkpt><trkpt lat="44.0131652" lon="11.2300731"><ele>293.0</ele><time>2026-04-11T12:55:49.098Z</time></trkpt><trkpt lat="44.0129879" lon="11.2300132"><ele>291.0</ele><time>2026-04-11T12:55:50.098Z</time></trkpt><trkpt lat="44.0128154" lon="11.2299509"><ele>289.0</ele><time>2026-04-11T12:55:51.097Z</time></trkpt><trkpt lat="44.0126476" lon="11.2298863"><ele>289.3333333333333</ele><time>2026-04-11T12:55:52.098Z</time></trkpt><trkpt lat="44.0124756" lon="11.2298233"><ele>289.6666666666667</ele><time>2026-04-11T12:55:53.097Z</time></trkpt><trkpt lat="44.0123069" lon="11.2297717"><ele>290.0</ele><time>2026-04-11T12:55:54.097Z</time></trkpt><trkpt lat="44.0121384" lon="11.2297367"><ele>290.0</ele><time>2026-04-11T12:55:55.098Z</time></trkpt><trkpt lat="44.0119595" lon="11.2297161"><ele>290.0</ele><time>2026-04-11T12:55:56.098Z</time></trkpt><trkpt lat="44.0117749" lon="11.2297233"><ele>290.0</ele><time>2026-04-11T12:55:57.098Z</time></trkpt><trkpt lat="44.0115881" lon="11.2297682"><ele>291.33333333333337</ele><time>2026-04-11T12:55:58.097Z</time></trkpt><trkpt lat="44.0114077" lon="11.2298422"><ele>292.6666666666667</ele><time>2026-04-11T12:55:59.098Z</time></trkpt><trkpt lat="44.0112388" lon="11.2299494"><ele>294.0</ele><time>2026-04-11T12:56:00.098Z</time></trkpt><trkpt lat="44.0110706" lon="11.2300877"><ele>294.0</ele><time>2026-04-11T12:56:01.097Z</time></trkpt><trkpt lat="44.0109055" lon="11.2302452"><ele>294.0</ele><time>2026-04-11T12:56:02.097Z</time></trkpt><trkpt lat="44.0107373" lon="11.2304099"><ele>294.0</ele><time>2026-04-11T12:56:03.097Z</time></trkpt><trkpt lat="44.0105671" lon="11.2305492"><ele>291.3333333333333</ele><time>2026-04-11T12:56:04.097Z</time></trkpt><trkpt lat="44.0103913" lon="11.2306619"><ele>288.66666666666663</ele><time>2026-04-11T12:56:05.097Z</time></trkpt><trkpt lat="44.0102073" lon="11.230742"><ele>286.0</ele><time>2026-04-11T12:56:06.097Z</time></trkpt><trkpt lat="44.0100147" lon="11.2307905"><ele>285.0</ele><time>2026-04-11T12:56:07.097Z</time></trkpt><trkpt lat="44.0098186" lon="11.2308118"><ele>284.0</ele><time>2026-04-11T12:56:08.096Z</time></trkpt><trkpt lat="44.0096207" lon="11.2307981"><ele>283.0</ele><time>2026-04-11T12:56:09.097Z</time></trkpt><trkpt lat="44.0094244" lon="11.2307511"><ele>283.0</ele><time>2026-04-11T12:56:10.097Z</time></trkpt><trkpt lat="44.0092364" lon="11.2306683"><ele>283.0</ele><time>2026-04-11T12:56:11.098Z</time></trkpt><trkpt lat="44.0090618" lon="11.2305497"><ele>283.0</ele><time>2026-04-11T12:56:12.098Z</time></trkpt><trkpt lat="44.0088955" lon="11.2304131"><ele>290.66666666666663</ele><time>2026-04-11T12:56:13.098Z</time></trkpt><trkpt lat="44.0087329" lon="11.2302724"><ele>298.3333333333333</ele><time>2026-04-11T12:56:14.098Z</time></trkpt><trkpt lat="44.008572" lon="11.2301342"><ele>306.0</ele><time>2026-04-11T12:56:15.097Z</time></trkpt><trkpt lat="44.0084151" lon="11.2299948"><ele>307.3333333333333</ele><time>2026-04-11T12:56:16.098Z</time></trkpt><trkpt lat="44.0082576" lon="11.2298555"><ele>308.66666666666663</ele><time>2026-04-11T12:56:17.098Z</time></trkpt><trkpt lat="44.0081066" lon="11.2297157"><ele>310.0</ele><time>2026-04-11T12:56:18.097Z</time></trkpt><trkpt lat="44.0079503" lon="11.2295735"><ele>311.5</ele><time>2026-04-11T12:56:19.097Z</time></trkpt><trkpt lat="44.0077962" lon="11.229432"><ele>313.0</ele><time>2026-04-11T12:56:20.097Z</time></trkpt><trkpt lat="44.0066759" lon="11.2284146"><ele>312.3333333333333</ele><time>2026-04-11T12:56:27.097Z</time></trkpt><trkpt lat="44.0065021" lon="11.2282742"><ele>311.6666666666667</ele><time>2026-04-11T12:56:28.097Z</time></trkpt><trkpt lat="44.006327" lon="11.2281467"><ele>311.0</ele><time>2026-04-11T12:56:29.098Z</time></trkpt><trkpt lat="44.0061369" lon="11.2280523"><ele>313.0</ele><time>2026-04-11T12:56:30.098Z</time></trkpt><trkpt lat="44.0059375" lon="11.227982"><ele>315.0</ele><time>2026-04-11T12:56:31.097Z</time></trkpt><trkpt lat="44.0057294" lon="11.2279421"><ele>317.0</ele><time>2026-04-11T12:56:32.097Z</time></trkpt><trkpt lat="44.0055174" lon="11.2279375"><ele>318.0</ele><time>2026-04-11T12:56:33.098Z</time></trkpt><trkpt lat="44.0053112" lon="11.2279584"><ele>319.0</ele><time>2026-04-11T12:56:34.098Z</time></trkpt><trkpt lat="44.0051108" lon="11.2280144"><ele>320.0</ele><time>2026-04-11T12:56:35.098Z</time></trkpt><trkpt lat="44.0049087" lon="11.228107"><ele>315.6666666666667</ele><time>2026-04-11T12:56:36.098Z</time></trkpt><trkpt lat="44.0047065" lon="11.2282285"><ele>311.3333333333333</ele><time>2026-04-11T12:56:37.098Z</time></trkpt><trkpt lat="44.0045103" lon="11.2283575"><ele>307.0</ele><time>2026-04-11T12:56:38.098Z</time></trkpt><trkpt lat="44.0043157" lon="11.2284884"><ele>307.0</ele><time>2026-04-11T12:56:39.097Z</time></trkpt><trkpt lat="44.0041144" lon="11.2286247"><ele>307.0</ele><time>2026-04-11T12:56:40.098Z</time></trkpt><trkpt lat="44.0039133" lon="11.228762"><ele>307.0</ele><time>2026-04-11T12:56:41.098Z</time></trkpt><trkpt lat="44.0037211" lon="11.228896"><ele>307.0</ele><time>2026-04-11T12:56:42.098Z</time></trkpt><trkpt lat="44.0035302" lon="11.229026"><ele>307.0</ele><time>2026-04-11T12:56:43.098Z</time></trkpt><trkpt lat="44.0033439" lon="11.2291498"><ele>307.0</ele><time>2026-04-11T12:56:44.097Z</time></trkpt><trkpt lat="44.0031657" lon="11.2292711"><ele>307.0</ele><time>2026-04-11T12:56:45.098Z</time></trkpt><trkpt lat="44.0029976" lon="11.2293864"><ele>307.0</ele><time>2026-04-11T12:56:46.098Z</time></trkpt><trkpt lat="44.0028358" lon="11.2294943"><ele>307.0</ele><time>2026-04-11T12:56:47.098Z</time></trkpt><trkpt lat="44.0026801" lon="11.2295944"><ele>307.0</ele><time>2026-04-11T12:56:48.097Z</time></trkpt><trkpt lat="44.0025228" lon="11.2296907"><ele>307.0</ele><time>2026-04-11T12:56:49.098Z</time></trkpt><trkpt lat="44.0023612" lon="11.2297732"><ele>307.0</ele><time>2026-04-11T12:56:50.097Z</time></trkpt><trkpt lat="44.002191" lon="11.2298389"><ele>306.3333333333333</ele><time>2026-04-11T12:56:51.097Z</time></trkpt><trkpt lat="44.002008" lon="11.2299008"><ele>305.6666666666667</ele><time>2026-04-11T12:56:52.098Z</time></trkpt><trkpt lat="44.0018163" lon="11.2299656"><ele>305.0</ele><time>2026-04-11T12:56:53.097Z</time></trkpt><trkpt lat="44.0016146" lon="11.2300279"><ele>302.33333333333337</ele><time>2026-04-11T12:56:54.098Z</time></trkpt><trkpt lat="44.0014063" lon="11.2300936"><ele>299.6666666666667</ele><time>2026-04-11T12:56:55.097Z</time></trkpt><trkpt lat="44.0012047" lon="11.2301972"><ele>297.0</ele><time>2026-04-11T12:56:56.097Z</time></trkpt><trkpt lat="44.0010232" lon="11.2303237"><ele>297.0</ele><time>2026-04-11T12:56:57.098Z</time></trkpt><trkpt lat="44.0008522" lon="11.2304492"><ele>297.0</ele><time>2026-04-11T12:56:58.098Z</time></trkpt><trkpt lat="44.0006896" lon="11.2305707"><ele>297.0</ele><time>2026-04-11T12:56:59.097Z</time></trkpt><trkpt lat="44.000537" lon="11.2306905"><ele>297.5</ele><time>2026-04-11T12:57:00.098Z</time></trkpt><trkpt lat="44.0003952" lon="11.2308029"><ele>298.0</ele><time>2026-04-11T12:57:01.098Z</time></trkpt><trkpt lat="44.000273" lon="11.2308981"><ele>298.5</ele><time>2026-04-11T12:57:02.098Z</time></trkpt><trkpt lat="44.0001676" lon="11.230979"><ele>299.0</ele><time>2026-04-11T12:57:03.097Z</time></trkpt><trkpt lat="44.0000668" lon="11.2310578"><ele>299.0</ele><time>2026-04-11T12:57:04.097Z</time></trkpt><trkpt lat="43.9999568" lon="11.2311426"><ele>299.0</ele><time>2026-04-11T12:57:05.098Z</time></trkpt><trkpt lat="43.9998486" lon="11.2312218"><ele>299.0</ele><time>2026-04-11T12:57:06.098Z</time></trkpt><trkpt lat="43.9997428" lon="11.2312923"><ele>299.0</ele><time>2026-04-11T12:57:07.097Z</time></trkpt><trkpt lat="43.9996241" lon="11.2313606"><ele>299.0</ele><time>2026-04-11T12:57:08.098Z</time></trkpt><trkpt lat="43.9995078" lon="11.2314248"><ele>299.0</ele><time>2026-04-11T12:57:09.098Z</time></trkpt><trkpt lat="43.9993769" lon="11.2314902"><ele>299.0</ele><time>2026-04-11T12:57:10.098Z</time></trkpt><trkpt lat="43.9992287" lon="11.2315608"><ele>299.0</ele><time>2026-04-11T12:57:11.097Z</time></trkpt><trkpt lat="43.999069" lon="11.231639"><ele>297.6666666666667</ele><time>2026-04-11T12:57:12.098Z</time></trkpt><trkpt lat="43.9989252" lon="11.2317151"><ele>296.3333333333333</ele><time>2026-04-11T12:57:13.098Z</time></trkpt><trkpt lat="43.9987884" lon="11.2317865"><ele>295.0</ele><time>2026-04-11T12:57:14.098Z</time></trkpt><trkpt lat="43.9986425" lon="11.2318571"><ele>295.0</ele><time>2026-04-11T12:57:15.097Z</time></trkpt><trkpt lat="43.9984982" lon="11.2319267"><ele>295.0</ele><time>2026-04-11T12:57:16.098Z</time></trkpt><trkpt lat="43.9983563" lon="11.2319958"><ele>295.0</ele><time>2026-04-11T12:57:17.097Z</time></trkpt><trkpt lat="43.9982102" lon="11.2320675"><ele>294.0</ele><time>2026-04-11T12:57:18.097Z</time></trkpt><trkpt lat="43.9980622" lon="11.2321406"><ele>293.0</ele><time>2026-04-11T12:57:19.097Z</time></trkpt><trkpt lat="43.9979124" lon="11.2322129"><ele>292.0</ele><time>2026-04-11T12:57:20.097Z</time></trkpt><trkpt lat="43.9977633" lon="11.2322835"><ele>292.0</ele><time>2026-04-11T12:57:21.097Z</time></trkpt><trkpt lat="43.9976188" lon="11.2323473"><ele>292.0</ele><time>2026-04-11T12:57:22.097Z</time></trkpt><trkpt lat="43.9974823" lon="11.2324039"><ele>292.0</ele><time>2026-04-11T12:57:23.097Z</time></trkpt><trkpt lat="43.997348" lon="11.2324612"><ele>292.0</ele><time>2026-04-11T12:57:24.097Z</time></trkpt><trkpt lat="43.9972065" lon="11.232525"><ele>292.0</ele><time>2026-04-11T12:57:25.097Z</time></trkpt><trkpt lat="43.9970749" lon="11.2325825"><ele>292.0</ele><time>2026-04-11T12:57:26.098Z</time></trkpt><trkpt lat="43.9969482" lon="11.2326343"><ele>292.0</ele><time>2026-04-11T12:57:27.098Z</time></trkpt><trkpt lat="43.9968208" lon="11.2326819"><ele>292.0</ele><time>2026-04-11T12:57:28.098Z</time></trkpt><trkpt lat="43.9966924" lon="11.2327243"><ele>291.25</ele><time>2026-04-11T12:57:29.098Z</time></trkpt><trkpt lat="43.996565" lon="11.2327644"><ele>290.5</ele><time>2026-04-11T12:57:30.097Z</time></trkpt><trkpt lat="43.9964327" lon="11.2328068"><ele>289.75</ele><time>2026-04-11T12:57:31.096Z</time></trkpt><trkpt lat="43.9962977" lon="11.2328477"><ele>289.0</ele><time>2026-04-11T12:57:32.098Z</time></trkpt><trkpt lat="43.9961649" lon="11.232886"><ele>289.0</ele><time>2026-04-11T12:57:33.097Z</time></trkpt><trkpt lat="43.9960293" lon="11.2329246"><ele>289.0</ele><time>2026-04-11T12:57:34.097Z</time></trkpt><trkpt lat="43.9958948" lon="11.2329614"><ele>289.0</ele><time>2026-04-11T12:57:35.097Z</time></trkpt><trkpt lat="43.9957579" lon="11.2330014"><ele>289.0</ele><time>2026-04-11T12:57:36.098Z</time></trkpt><trkpt lat="43.9956188" lon="11.2330449"><ele>288.0</ele><time>2026-04-11T12:57:37.098Z</time></trkpt><trkpt lat="43.9954773" lon="11.2330861"><ele>287.0</ele><time>2026-04-11T12:57:38.097Z</time></trkpt><trkpt lat="43.9953342" lon="11.2331258"><ele>286.0</ele><time>2026-04-11T12:57:39.098Z</time></trkpt><trkpt lat="43.9951839" lon="11.2331673"><ele>285.0</ele><time>2026-04-11T12:57:40.097Z</time></trkpt><trkpt lat="43.9950285" lon="11.2332125"><ele>283.0</ele><time>2026-04-11T12:57:41.097Z</time></trkpt><trkpt lat="43.9948703" lon="11.233261"><ele>281.0</ele><time>2026-04-11T12:57:42.097Z</time></trkpt><trkpt lat="43.9947155" lon="11.2333186"><ele>279.0</ele><time>2026-04-11T12:57:43.097Z</time></trkpt><trkpt lat="43.9945636" lon="11.2333871"><ele>279.0</ele><time>2026-04-11T12:57:44.097Z</time></trkpt><trkpt lat="43.9944082" lon="11.233461"><ele>279.0</ele><time>2026-04-11T12:57:45.097Z</time></trkpt><trkpt lat="43.9942525" lon="11.2335395"><ele>279.0</ele><time>2026-04-11T12:57:46.098Z</time></trkpt><trkpt lat="43.9940977" lon="11.2336213"><ele>277.6666666666667</ele><time>2026-04-11T12:57:47.098Z</time></trkpt><trkpt lat="43.9939441" lon="11.2337043"><ele>276.33333333333337</ele><time>2026-04-11T12:57:48.097Z</time></trkpt><trkpt lat="43.9937957" lon="11.23379"><ele>275.0</ele><time>2026-04-11T12:57:49.097Z</time></trkpt><trkpt lat="43.9936504" lon="11.2338807"><ele>275.0</ele><time>2026-04-11T12:57:50.097Z</time></trkpt><trkpt lat="43.9935118" lon="11.2339753"><ele>275.0</ele><time>2026-04-11T12:57:51.097Z</time></trkpt><trkpt lat="43.9933867" lon="11.2340788"><ele>275.0</ele><time>2026-04-11T12:57:52.098Z</time></trkpt><trkpt lat="43.9932676" lon="11.2341958"><ele>275.0</ele><time>2026-04-11T12:57:53.097Z</time></trkpt><trkpt lat="43.9931499" lon="11.2343184"><ele>274.0</ele><time>2026-04-11T12:57:54.098Z</time></trkpt><trkpt lat="43.993031" lon="11.2344456"><ele>273.0</ele><time>2026-04-11T12:57:55.097Z</time></trkpt><trkpt lat="43.9929113" lon="11.2345694"><ele>272.0</ele><time>2026-04-11T12:57:56.097Z</time></trkpt><trkpt lat="43.9928065" lon="11.2346694"><ele>271.0</ele><time>2026-04-11T12:57:57.098Z</time></trkpt><trkpt lat="43.9927085" lon="11.2347579"><ele>270.40000000000003</ele><time>2026-04-11T12:57:58.097Z</time></trkpt><trkpt lat="43.9926202" lon="11.2348488"><ele>269.8</ele><time>2026-04-11T12:57:59.097Z</time></trkpt><trkpt lat="43.9925382" lon="11.2349297"><ele>269.20000000000005</ele><time>2026-04-11T12:58:00.097Z</time></trkpt><trkpt lat="43.9924613" lon="11.2350028"><ele>268.6</ele><time>2026-04-11T12:58:01.097Z</time></trkpt><trkpt lat="43.9923873" lon="11.2350782"><ele>268.0</ele><time>2026-04-11T12:58:02.098Z</time></trkpt><trkpt lat="43.992317" lon="11.2351496"><ele>267.8333333333333</ele><time>2026-04-11T12:58:03.098Z</time></trkpt><trkpt lat="43.992251" lon="11.2352216"><ele>267.66666666666663</ele><time>2026-04-11T12:58:04.097Z</time></trkpt><trkpt lat="43.9921854" lon="11.2352959"><ele>267.5</ele><time>2026-04-11T12:58:05.098Z</time></trkpt><trkpt lat="43.9921247" lon="11.2353526"><ele>267.3333333333333</ele><time>2026-04-11T12:58:06.098Z</time></trkpt><trkpt lat="43.9920678" lon="11.2354019"><ele>267.1666666666667</ele><time>2026-04-11T12:58:07.098Z</time></trkpt><trkpt lat="43.9919776" lon="11.2354872"><ele>267.0</ele><time>2026-04-11T12:58:09.098Z</time></trkpt><trkpt lat="43.9919078" lon="11.2355266"><ele>267.0</ele><time>2026-04-11T12:58:11.098Z</time></trkpt><trkpt lat="43.9918388" lon="11.2355512"><ele>267.0</ele><time>2026-04-11T12:58:15.096Z</time></trkpt><trkpt lat="43.9917265" lon="11.2355722"><ele>267.0</ele><time>2026-04-11T12:58:28.098Z</time></trkpt><trkpt lat="43.9915905" lon="11.23559"><ele>267.0</ele><time>2026-04-11T12:58:30.098Z</time></trkpt><trkpt lat="43.9915239" lon="11.2356447"><ele>267.0</ele><time>2026-04-11T12:58:31.098Z</time></trkpt><trkpt lat="43.9914863" lon="11.2357351"><ele>266.6666666666667</ele><time>2026-04-11T12:58:32.098Z</time></trkpt><trkpt lat="43.9914831" lon="11.2358431"><ele>266.3333333333333</ele><time>2026-04-11T12:58:33.097Z</time></trkpt><trkpt lat="43.9915136" lon="11.2359299"><ele>266.0</ele><time>2026-04-11T12:58:34.097Z</time></trkpt><trkpt lat="43.9915725" lon="11.2360073"><ele>265.66666666666663</ele><time>2026-04-11T12:58:35.097Z</time></trkpt><trkpt lat="43.9916502" lon="11.2360592"><ele>265.3333333333333</ele><time>2026-04-11T12:58:36.097Z</time></trkpt><trkpt lat="43.9917237" lon="11.2361227"><ele>265.0</ele><time>2026-04-11T12:58:37.098Z</time></trkpt><trkpt lat="43.9917839" lon="11.236224"><ele>265.0</ele><time>2026-04-11T12:58:38.098Z</time></trkpt><trkpt lat="43.9918316" lon="11.2363476"><ele>265.0</ele><time>2026-04-11T12:58:39.098Z</time></trkpt><trkpt lat="43.9918823" lon="11.236486"><ele>265.0</ele><time>2026-04-11T12:58:40.097Z</time></trkpt><trkpt lat="43.9919473" lon="11.2366594"><ele>265.0</ele><time>2026-04-11T12:58:41.098Z</time></trkpt><trkpt lat="43.9920081" lon="11.2368465"><ele>264.3333333333333</ele><time>2026-04-11T12:58:42.097Z</time></trkpt><trkpt lat="43.9920745" lon="11.2370609"><ele>263.6666666666667</ele><time>2026-04-11T12:58:43.098Z</time></trkpt><trkpt lat="43.9921387" lon="11.2372782"><ele>263.0</ele><time>2026-04-11T12:58:44.097Z</time></trkpt><trkpt lat="43.9922042" lon="11.237485"><ele>263.0</ele><time>2026-04-11T12:58:45.097Z</time></trkpt><trkpt lat="43.9922699" lon="11.2376677"><ele>263.0</ele><time>2026-04-11T12:58:46.097Z</time></trkpt><trkpt lat="43.9923292" lon="11.2378329"><ele>263.0</ele><time>2026-04-11T12:58:47.097Z</time></trkpt><trkpt lat="43.9923798" lon="11.2379853"><ele>263.0</ele><time>2026-04-11T12:58:48.097Z</time></trkpt><trkpt lat="43.9924173" lon="11.2381177"><ele>263.0</ele><time>2026-04-11T12:58:49.097Z</time></trkpt><trkpt lat="43.9924297" lon="11.2382186"><ele>262.0</ele><time>2026-04-11T12:58:50.098Z</time></trkpt><trkpt lat="43.9924241" lon="11.2383487"><ele>262.0</ele><time>2026-04-11T12:58:52.098Z</time></trkpt></trkseg><trkseg><trkpt lat="43.9924824" lon="11.2384803"><ele>262.0</ele><time>2026-04-11T13:24:51.092Z</time></trkpt><trkpt lat="43.9924964" lon="11.2385841"><ele>262.0</ele><time>2026-04-11T13:24:53.093Z</time></trkpt><trkpt lat="43.9925408" lon="11.238656"><ele>262.0</ele><time>2026-04-11T13:24:57.093Z</time></trkpt><trkpt lat="43.9926063" lon="11.2387168"><ele>262.0</ele><time>2026-04-11T13:25:24.091Z</time></trkpt><trkpt lat="43.9926713" lon="11.2388127"><ele>262.0</ele><time>2026-04-11T13:25:26.091Z</time></trkpt><trkpt lat="43.9927017" lon="11.2388983"><ele>262.0</ele><time>2026-04-11T13:25:27.092Z</time></trkpt><trkpt lat="43.9927318" lon="11.2389827"><ele>262.2</ele><time>2026-04-11T13:25:28.092Z</time></trkpt><trkpt lat="43.9927827" lon="11.2391424"><ele>262.4</ele><time>2026-04-11T13:25:30.092Z</time></trkpt><trkpt lat="43.9928123" lon="11.2392327"><ele>262.6</ele><time>2026-04-11T13:25:31.091Z</time></trkpt><trkpt lat="43.992841" lon="11.2393152"><ele>262.8</ele><time>2026-04-11T13:25:32.091Z</time></trkpt><trkpt lat="43.9928853" lon="11.2394477"><ele>263.0</ele><time>2026-04-11T13:25:34.092Z</time></trkpt><trkpt lat="43.992929" lon="11.239579"><ele>263.0</ele><time>2026-04-11T13:25:36.092Z</time></trkpt><trkpt lat="43.9929564" lon="11.2396588"><ele>263.0</ele><time>2026-04-11T13:25:37.092Z</time></trkpt><trkpt lat="43.9929858" lon="11.2397494"><ele>263.0</ele><time>2026-04-11T13:25:38.092Z</time></trkpt><trkpt lat="43.9930153" lon="11.2398392"><ele>263.0</ele><time>2026-04-11T13:25:39.092Z</time></trkpt><trkpt lat="43.9930435" lon="11.2399282"><ele>263.0</ele><time>2026-04-11T13:25:40.091Z</time></trkpt><trkpt lat="43.9930659" lon="11.2400228"><ele>263.0</ele><time>2026-04-11T13:25:41.091Z</time></trkpt><trkpt lat="43.9930804" lon="11.2401166"><ele>263.0</ele><time>2026-04-11T13:25:42.092Z</time></trkpt><trkpt lat="43.9930907" lon="11.2402082"><ele>263.0</ele><time>2026-04-11T13:25:43.091Z</time></trkpt><trkpt lat="43.9930903" lon="11.2402994"><ele>263.0</ele><time>2026-04-11T13:25:44.092Z</time></trkpt><trkpt lat="43.9930863" lon="11.2403957"><ele>263.0</ele><time>2026-04-11T13:25:45.092Z</time></trkpt><trkpt lat="43.9930719" lon="11.2404936"><ele>263.0</ele><time>2026-04-11T13:25:46.092Z</time></trkpt><trkpt lat="43.9930333" lon="11.2405726"><ele>263.0</ele><time>2026-04-11T13:25:47.092Z</time></trkpt><trkpt lat="43.9929149" lon="11.2406324"><ele>263.0</ele><time>2026-04-11T13:25:49.092Z</time></trkpt><trkpt lat="43.9928444" lon="11.2406357"><ele>263.0</ele><time>2026-04-11T13:25:50.092Z</time></trkpt><trkpt lat="43.9927715" lon="11.2406365"><ele>263.0</ele><time>2026-04-11T13:25:51.092Z</time></trkpt><trkpt lat="43.992696" lon="11.2406342"><ele>263.0</ele><time>2026-04-11T13:25:52.091Z</time></trkpt><trkpt lat="43.992615" lon="11.2406365"><ele>263.0</ele><time>2026-04-11T13:25:53.091Z</time></trkpt><trkpt lat="43.9925333" lon="11.240629"><ele>263.0</ele><time>2026-04-11T13:25:54.091Z</time></trkpt><trkpt lat="43.9924472" lon="11.2406213"><ele>263.0</ele><time>2026-04-11T13:25:55.092Z</time></trkpt><trkpt lat="43.9923589" lon="11.240614"><ele>262.4</ele><time>2026-04-11T13:25:56.092Z</time></trkpt><trkpt lat="43.9922551" lon="11.2406088"><ele>261.8</ele><time>2026-04-11T13:25:57.092Z</time></trkpt><trkpt lat="43.9921428" lon="11.2406002"><ele>261.2</ele><time>2026-04-11T13:25:58.092Z</time></trkpt><trkpt lat="43.9920278" lon="11.2405825"><ele>260.6</ele><time>2026-04-11T13:25:59.092Z</time></trkpt><trkpt lat="43.9919215" lon="11.240567"><ele>260.0</ele><time>2026-04-11T13:26:00.091Z</time></trkpt><trkpt lat="43.9918169" lon="11.2405542"><ele>260.0</ele><time>2026-04-11T13:26:01.091Z</time></trkpt><trkpt lat="43.9917108" lon="11.2405447"><ele>260.0</ele><time>2026-04-11T13:26:02.092Z</time></trkpt><trkpt lat="43.9916137" lon="11.2405372"><ele>260.0</ele><time>2026-04-11T13:26:03.092Z</time></trkpt><trkpt lat="43.9915167" lon="11.2405246"><ele>260.0</ele><time>2026-04-11T13:26:04.092Z</time></trkpt><trkpt lat="43.9914191" lon="11.2405144"><ele>260.0</ele><time>2026-04-11T13:26:05.091Z</time></trkpt><trkpt lat="43.9913227" lon="11.2405029"><ele>259.6</ele><time>2026-04-11T13:26:06.092Z</time></trkpt><trkpt lat="43.9912304" lon="11.2404893"><ele>259.2</ele><time>2026-04-11T13:26:07.092Z</time></trkpt><trkpt lat="43.9911403" lon="11.240476"><ele>258.8</ele><time>2026-04-11T13:26:08.091Z</time></trkpt><trkpt lat="43.9910516" lon="11.2404643"><ele>258.4</ele><time>2026-04-11T13:26:09.092Z</time></trkpt><trkpt lat="43.9909512" lon="11.2404577"><ele>258.0</ele><time>2026-04-11T13:26:10.092Z</time></trkpt><trkpt lat="43.9908445" lon="11.2404529"><ele>258.4</ele><time>2026-04-11T13:26:11.092Z</time></trkpt><trkpt lat="43.9907314" lon="11.2404469"><ele>258.8</ele><time>2026-04-11T13:26:12.092Z</time></trkpt><trkpt lat="43.9906204" lon="11.2404431"><ele>259.2</ele><time>2026-04-11T13:26:13.091Z</time></trkpt><trkpt lat="43.9905142" lon="11.2404394"><ele>259.6</ele><time>2026-04-11T13:26:14.091Z</time></trkpt><trkpt lat="43.9904117" lon="11.2404432"><ele>260.0</ele><time>2026-04-11T13:26:15.092Z</time></trkpt><trkpt lat="43.990304" lon="11.240451"><ele>260.0</ele><time>2026-04-11T13:26:16.092Z</time></trkpt><trkpt lat="43.9901951" lon="11.2404638"><ele>260.0</ele><time>2026-04-11T13:26:17.092Z</time></trkpt><trkpt lat="43.9900833" lon="11.2404921"><ele>260.0</ele><time>2026-04-11T13:26:18.092Z</time></trkpt><trkpt lat="43.9899756" lon="11.240519"><ele>260.0</ele><time>2026-04-11T13:26:19.091Z</time></trkpt><trkpt lat="43.9898749" lon="11.2405449"><ele>260.0</ele><time>2026-04-11T13:26:20.092Z</time></trkpt><trkpt lat="43.9897747" lon="11.2405693"><ele>259.6</ele><time>2026-04-11T13:26:21.092Z</time></trkpt><trkpt lat="43.9896687" lon="11.2405909"><ele>259.2</ele><time>2026-04-11T13:26:22.091Z</time></trkpt><trkpt lat="43.9895586" lon="11.2405992"><ele>258.8</ele><time>2026-04-11T13:26:23.091Z</time></trkpt><trkpt lat="43.9894564" lon="11.240613"><ele>258.4</ele><time>2026-04-11T13:26:24.091Z</time></trkpt><trkpt lat="43.9893535" lon="11.2406303"><ele>258.0</ele><time>2026-04-11T13:26:25.092Z</time></trkpt><trkpt lat="43.9892473" lon="11.2406509"><ele>257.8333333333333</ele><time>2026-04-11T13:26:26.091Z</time></trkpt><trkpt lat="43.9891492" lon="11.2406733"><ele>257.6666666666667</ele><time>2026-04-11T13:26:27.091Z</time></trkpt><trkpt lat="43.9890649" lon="11.2406919"><ele>257.5</ele><time>2026-04-11T13:26:28.092Z</time></trkpt><trkpt lat="43.9889847" lon="11.2407136"><ele>257.33333333333337</ele><time>2026-04-11T13:26:29.092Z</time></trkpt><trkpt lat="43.9888988" lon="11.2407331"><ele>257.1666666666667</ele><time>2026-04-11T13:26:30.091Z</time></trkpt><trkpt lat="43.9888166" lon="11.2407499"><ele>257.0</ele><time>2026-04-11T13:26:31.091Z</time></trkpt><trkpt lat="43.9887358" lon="11.2407691"><ele>257.0</ele><time>2026-04-11T13:26:32.091Z</time></trkpt><trkpt lat="43.9886644" lon="11.2407816"><ele>257.0</ele><time>2026-04-11T13:26:33.091Z</time></trkpt><trkpt lat="43.9885995" lon="11.2407867"><ele>257.0</ele><time>2026-04-11T13:26:34.091Z</time></trkpt><trkpt lat="43.9884911" lon="11.2407403"><ele>257.0</ele><time>2026-04-11T13:26:36.092Z</time></trkpt><trkpt lat="43.988445" lon="11.2406292"><ele>257.0</ele><time>2026-04-11T13:26:38.092Z</time></trkpt><trkpt lat="43.9884174" lon="11.2404645"><ele>257.0</ele><time>2026-04-11T13:26:40.092Z</time></trkpt><trkpt lat="43.9883663" lon="11.240317"><ele>257.0</ele><time>2026-04-11T13:26:42.091Z</time></trkpt><trkpt lat="43.988322" lon="11.2401805"><ele>257.0</ele><time>2026-04-11T13:26:44.091Z</time></trkpt><trkpt lat="43.9882753" lon="11.2400521"><ele>257.0</ele><time>2026-04-11T13:26:46.091Z</time></trkpt><trkpt lat="43.9882242" lon="11.2399089"><ele>257.0</ele><time>2026-04-11T13:26:48.092Z</time></trkpt><trkpt lat="43.9881781" lon="11.2397585"><ele>256.4</ele><time>2026-04-11T13:26:50.091Z</time></trkpt><trkpt lat="43.9881358" lon="11.2396194"><ele>255.79999999999998</ele><time>2026-04-11T13:26:52.092Z</time></trkpt><trkpt lat="43.988114" lon="11.2395159"><ele>255.2</ele><time>2026-04-11T13:26:54.091Z</time></trkpt><trkpt lat="43.9881162" lon="11.239383"><ele>254.6</ele><time>2026-04-11T13:26:57.091Z</time></trkpt><trkpt lat="43.9880979" lon="11.2392955"><ele>254.0</ele><time>2026-04-11T13:26:59.092Z</time></trkpt><trkpt lat="43.9880549" lon="11.2391666"><ele>254.0</ele><time>2026-04-11T13:27:02.091Z</time></trkpt><trkpt lat="43.988027" lon="11.2390229"><ele>253.99999999999997</ele><time>2026-04-11T13:27:04.091Z</time></trkpt><trkpt lat="43.9880297" lon="11.2388681"><ele>253.99999999999997</ele><time>2026-04-11T13:27:06.092Z</time></trkpt><trkpt lat="43.9880808" lon="11.2387192"><ele>254.0</ele><time>2026-04-11T13:27:08.091Z</time></trkpt><trkpt lat="43.988135" lon="11.2386036"><ele>254.0</ele><time>2026-04-11T13:27:10.092Z</time></trkpt><trkpt lat="43.9881964" lon="11.2385126"><ele>254.00000000000003</ele><time>2026-04-11T13:27:12.092Z</time></trkpt><trkpt lat="43.9882629" lon="11.2383891"><ele>254.0</ele><time>2026-04-11T13:27:14.091Z</time></trkpt><trkpt lat="43.9883055" lon="11.2383231"><ele>254.0</ele><time>2026-04-11T13:27:15.091Z</time></trkpt><trkpt lat="43.988351" lon="11.2382528"><ele>254.0</ele><time>2026-04-11T13:27:16.092Z</time></trkpt><trkpt lat="43.988397" lon="11.2381779"><ele>254.00000000000003</ele><time>2026-04-11T13:27:17.092Z</time></trkpt><trkpt lat="43.9884376" lon="11.2381042"><ele>254.0</ele><time>2026-04-11T13:27:18.091Z</time></trkpt><trkpt lat="43.9884742" lon="11.2380201"><ele>254.66666666666669</ele><time>2026-04-11T13:27:19.092Z</time></trkpt><trkpt lat="43.9885074" lon="11.2379313"><ele>255.33333333333334</ele><time>2026-04-11T13:27:20.092Z</time></trkpt><trkpt lat="43.9885417" lon="11.2378421"><ele>256.0</ele><time>2026-04-11T13:27:21.092Z</time></trkpt><trkpt lat="43.9885714" lon="11.237759"><ele>256.6666666666667</ele><time>2026-04-11T13:27:22.09Z</time></trkpt><trkpt lat="43.9885965" lon="11.2376727"><ele>257.3333333333333</ele><time>2026-04-11T13:27:23.091Z</time></trkpt><trkpt lat="43.9886114" lon="11.2375843"><ele>258.0</ele><time>2026-04-11T13:27:24.092Z</time></trkpt><trkpt lat="43.9886523" lon="11.2374316"><ele>258.2</ele><time>2026-04-11T13:27:26.092Z</time></trkpt><trkpt lat="43.9886934" lon="11.2372719"><ele>258.4</ele><time>2026-04-11T13:27:28.091Z</time></trkpt><trkpt lat="43.9886922" lon="11.2371181"><ele>258.59999999999997</ele><time>2026-04-11T13:27:30.092Z</time></trkpt><trkpt lat="43.9886854" lon="11.2369917"><ele>258.8</ele><time>2026-04-11T13:27:32.092Z</time></trkpt><trkpt lat="43.9886726" lon="11.2368387"><ele>259.0</ele><time>2026-04-11T13:27:34.092Z</time></trkpt><trkpt lat="43.9887015" lon="11.2366815"><ele>259.0</ele><time>2026-04-11T13:27:36.092Z</time></trkpt><trkpt lat="43.9887291" lon="11.2366012"><ele>259.0</ele><time>2026-04-11T13:27:37.092Z</time></trkpt><trkpt lat="43.9887556" lon="11.2365189"><ele>259.0</ele><time>2026-04-11T13:27:38.092Z</time></trkpt><trkpt lat="43.9887725" lon="11.2364272"><ele>259.0</ele><time>2026-04-11T13:27:39.092Z</time></trkpt><trkpt lat="43.9887801" lon="11.23634"><ele>259.0</ele><time>2026-04-11T13:27:40.092Z</time></trkpt><trkpt lat="43.988791" lon="11.2361957"><ele>259.0</ele><time>2026-04-11T13:27:42.092Z</time></trkpt><trkpt lat="43.9888573" lon="11.236124"><ele>259.0</ele><time>2026-04-11T13:27:44.091Z</time></trkpt><trkpt lat="43.988942" lon="11.2360713"><ele>259.2</ele><time>2026-04-11T13:27:46.091Z</time></trkpt><trkpt lat="43.9889928" lon="11.23595"><ele>259.4</ele><time>2026-04-11T13:27:48.092Z</time></trkpt><trkpt lat="43.989015" lon="11.2357763"><ele>259.6</ele><time>2026-04-11T13:27:50.092Z</time></trkpt><trkpt lat="43.989028" lon="11.2356695"><ele>259.8</ele><time>2026-04-11T13:27:51.091Z</time></trkpt><trkpt lat="43.9890357" lon="11.2355532"><ele>260.0</ele><time>2026-04-11T13:27:52.092Z</time></trkpt><trkpt lat="43.989042" lon="11.235449"><ele>260.0</ele><time>2026-04-11T13:27:53.092Z</time></trkpt><trkpt lat="43.989056" lon="11.235352"><ele>260.0</ele><time>2026-04-11T13:27:54.091Z</time></trkpt><trkpt lat="43.9890902" lon="11.235264"><ele>260.0</ele><time>2026-04-11T13:27:55.091Z</time></trkpt><trkpt lat="43.9891399" lon="11.2351867"><ele>260.0</ele><time>2026-04-11T13:27:56.092Z</time></trkpt><trkpt lat="43.9891925" lon="11.2351079"><ele>260.0</ele><time>2026-04-11T13:27:57.092Z</time></trkpt><trkpt lat="43.9892498" lon="11.2350204"><ele>260.0</ele><time>2026-04-11T13:27:58.092Z</time></trkpt><trkpt lat="43.9892954" lon="11.2349299"><ele>260.0</ele><time>2026-04-11T13:27:59.091Z</time></trkpt><trkpt lat="43.9893348" lon="11.2348449"><ele>260.0</ele><time>2026-04-11T13:28:00.092Z</time></trkpt><trkpt lat="43.9893715" lon="11.2347596"><ele>260.0</ele><time>2026-04-11T13:28:01.092Z</time></trkpt><trkpt lat="43.989411" lon="11.2346798"><ele>260.0</ele><time>2026-04-11T13:28:02.092Z</time></trkpt><trkpt lat="43.9895051" lon="11.2346048"><ele>260.0</ele><time>2026-04-11T13:28:04.092Z</time></trkpt><trkpt lat="43.989576" lon="11.2346407"><ele>260.0</ele><time>2026-04-11T13:28:06.091Z</time></trkpt><trkpt lat="43.989642" lon="11.234587"><ele>260.0</ele><time>2026-04-11T13:28:16.092Z</time></trkpt><trkpt lat="43.9896104" lon="11.2344873"><ele>260.0</ele><time>2026-04-11T13:28:18.091Z</time></trkpt><trkpt lat="43.9895561" lon="11.2344396"><ele>260.0</ele><time>2026-04-11T13:28:19.091Z</time></trkpt><trkpt lat="43.9894804" lon="11.2343868"><ele>260.0</ele><time>2026-04-11T13:28:20.092Z</time></trkpt><trkpt lat="43.9893971" lon="11.2343334"><ele>260.0</ele><time>2026-04-11T13:28:21.092Z</time></trkpt><trkpt lat="43.9893127" lon="11.2342751"><ele>260.0</ele><time>2026-04-11T13:28:22.091Z</time></trkpt><trkpt lat="43.9892241" lon="11.2342124"><ele>259.6</ele><time>2026-04-11T13:28:23.091Z</time></trkpt><trkpt lat="43.9891329" lon="11.2341417"><ele>259.2</ele><time>2026-04-11T13:28:24.091Z</time></trkpt><trkpt lat="43.9890432" lon="11.2340668"><ele>258.8</ele><time>2026-04-11T13:28:25.091Z</time></trkpt><trkpt lat="43.9889551" lon="11.2339918"><ele>258.4</ele><time>2026-04-11T13:28:26.091Z</time></trkpt><trkpt lat="43.988868" lon="11.2339069"><ele>258.0</ele><time>2026-04-11T13:28:27.092Z</time></trkpt><trkpt lat="43.9887846" lon="11.2338208"><ele>257.8</ele><time>2026-04-11T13:28:28.092Z</time></trkpt><trkpt lat="43.9887004" lon="11.2337316"><ele>257.6</ele><time>2026-04-11T13:28:29.092Z</time></trkpt><trkpt lat="43.988616" lon="11.2336396"><ele>257.4</ele><time>2026-04-11T13:28:30.092Z</time></trkpt><trkpt lat="43.9885299" lon="11.233548"><ele>257.2</ele><time>2026-04-11T13:28:31.092Z</time></trkpt><trkpt lat="43.9884381" lon="11.2334508"><ele>257.0</ele><time>2026-04-11T13:28:32.091Z</time></trkpt><trkpt lat="43.9883396" lon="11.2333453"><ele>256.75</ele><time>2026-04-11T13:28:33.091Z</time></trkpt><trkpt lat="43.9882376" lon="11.2332392"><ele>256.5</ele><time>2026-04-11T13:28:34.091Z</time></trkpt><trkpt lat="43.9881302" lon="11.2331481"><ele>256.25</ele><time>2026-04-11T13:28:35.091Z</time></trkpt><trkpt lat="43.9880105" lon="11.2330748"><ele>256.0</ele><time>2026-04-11T13:28:36.091Z</time></trkpt><trkpt lat="43.987881" lon="11.2330196"><ele>256.5</ele><time>2026-04-11T13:28:37.091Z</time></trkpt><trkpt lat="43.9877511" lon="11.2329827"><ele>257.0</ele><time>2026-04-11T13:28:38.091Z</time></trkpt><trkpt lat="43.9876218" lon="11.232963"><ele>257.5</ele><time>2026-04-11T13:28:39.092Z</time></trkpt><trkpt lat="43.9874906" lon="11.2329503"><ele>258.0</ele><time>2026-04-11T13:28:40.092Z</time></trkpt><trkpt lat="43.9873575" lon="11.2329384"><ele>258.5</ele><time>2026-04-11T13:28:41.092Z</time></trkpt><trkpt lat="43.9872239" lon="11.232928"><ele>259.0</ele><time>2026-04-11T13:28:42.092Z</time></trkpt><trkpt lat="43.9870864" lon="11.2329176"><ele>259.5</ele><time>2026-04-11T13:28:43.091Z</time></trkpt><trkpt lat="43.9869442" lon="11.2329086"><ele>260.0</ele><time>2026-04-11T13:28:44.092Z</time></trkpt><trkpt lat="43.9867962" lon="11.2329024"><ele>261.0</ele><time>2026-04-11T13:28:45.092Z</time></trkpt><trkpt lat="43.9866445" lon="11.2329046"><ele>262.0</ele><time>2026-04-11T13:28:46.092Z</time></trkpt><trkpt lat="43.9864908" lon="11.2329222"><ele>263.0</ele><time>2026-04-11T13:28:47.092Z</time></trkpt><trkpt lat="43.9863335" lon="11.2329627"><ele>263.0</ele><time>2026-04-11T13:28:48.092Z</time></trkpt><trkpt lat="43.9861713" lon="11.2330279"><ele>263.0</ele><time>2026-04-11T13:28:49.092Z</time></trkpt><trkpt lat="43.9860072" lon="11.2331091"><ele>263.0</ele><time>2026-04-11T13:28:50.09Z</time></trkpt><trkpt lat="43.985859" lon="11.2331875"><ele>262.5</ele><time>2026-04-11T13:28:51.091Z</time></trkpt><trkpt lat="43.9857236" lon="11.23325"><ele>262.0</ele><time>2026-04-11T13:28:52.091Z</time></trkpt><trkpt lat="43.9856018" lon="11.2332946"><ele>261.5</ele><time>2026-04-11T13:28:53.092Z</time></trkpt><trkpt lat="43.9854962" lon="11.233319"><ele>261.0</ele><time>2026-04-11T13:28:54.092Z</time></trkpt><trkpt lat="43.9853994" lon="11.2333277"><ele>261.0</ele><time>2026-04-11T13:28:55.092Z</time></trkpt><trkpt lat="43.9853054" lon="11.2333228"><ele>261.0</ele><time>2026-04-11T13:28:56.092Z</time></trkpt><trkpt lat="43.9852052" lon="11.2333101"><ele>261.0</ele><time>2026-04-11T13:28:57.092Z</time></trkpt><trkpt lat="43.9851013" lon="11.2332917"><ele>261.0</ele><time>2026-04-11T13:28:58.092Z</time></trkpt><trkpt lat="43.9849981" lon="11.2332709"><ele>261.0</ele><time>2026-04-11T13:28:59.092Z</time></trkpt><trkpt lat="43.984895" lon="11.2332489"><ele>264.0</ele><time>2026-04-11T13:29:00.092Z</time></trkpt><trkpt lat="43.9847848" lon="11.2332226"><ele>267.0</ele><time>2026-04-11T13:29:01.091Z</time></trkpt><trkpt lat="43.984675" lon="11.2332052"><ele>270.0</ele><time>2026-04-11T13:29:02.091Z</time></trkpt><trkpt lat="43.9845616" lon="11.2331969"><ele>273.0</ele><time>2026-04-11T13:29:03.091Z</time></trkpt><trkpt lat="43.984443" lon="11.2331821"><ele>273.0</ele><time>2026-04-11T13:29:04.091Z</time></trkpt><trkpt lat="43.9843232" lon="11.2331493"><ele>273.0</ele><time>2026-04-11T13:29:05.091Z</time></trkpt><trkpt lat="43.9842082" lon="11.2331058"><ele>273.0</ele><time>2026-04-11T13:29:06.091Z</time></trkpt><trkpt lat="43.9840947" lon="11.233051"><ele>273.0</ele><time>2026-04-11T13:29:07.091Z</time></trkpt><trkpt lat="43.9839813" lon="11.2329951"><ele>272.25</ele><time>2026-04-11T13:29:08.092Z</time></trkpt><trkpt lat="43.9838699" lon="11.2329396"><ele>271.5</ele><time>2026-04-11T13:29:09.092Z</time></trkpt><trkpt lat="43.9837539" lon="11.2328924"><ele>270.75</ele><time>2026-04-11T13:29:10.092Z</time></trkpt><trkpt lat="43.9836373" lon="11.2328575"><ele>270.0</ele><time>2026-04-11T13:29:11.092Z</time></trkpt><trkpt lat="43.9835291" lon="11.2328282"><ele>270.0</ele><time>2026-04-11T13:29:12.091Z</time></trkpt><trkpt lat="43.9834317" lon="11.2328021"><ele>270.0</ele><time>2026-04-11T13:29:13.091Z</time></trkpt><trkpt lat="43.9833326" lon="11.2327817"><ele>270.0</ele><time>2026-04-11T13:29:14.091Z</time></trkpt><trkpt lat="43.9832263" lon="11.2327623"><ele>270.0</ele><time>2026-04-11T13:29:15.092Z</time></trkpt><trkpt lat="43.9831299" lon="11.2327472"><ele>270.0</ele><time>2026-04-11T13:29:16.091Z</time></trkpt><trkpt lat="43.9830331" lon="11.2327268"><ele>269.6</ele><time>2026-04-11T13:29:17.092Z</time></trkpt><trkpt lat="43.9829291" lon="11.2327066"><ele>269.2</ele><time>2026-04-11T13:29:18.092Z</time></trkpt><trkpt lat="43.9828189" lon="11.2326845"><ele>268.8</ele><time>2026-04-11T13:29:19.092Z</time></trkpt><trkpt lat="43.9827071" lon="11.2326636"><ele>268.4</ele><time>2026-04-11T13:29:20.09Z</time></trkpt><trkpt lat="43.9825914" lon="11.2326443"><ele>268.0</ele><time>2026-04-11T13:29:21.09Z</time></trkpt><trkpt lat="43.9824738" lon="11.2326225"><ele>267.75</ele><time>2026-04-11T13:29:22.09Z</time></trkpt><trkpt lat="43.9823532" lon="11.2325977"><ele>267.5</ele><time>2026-04-11T13:29:23.09Z</time></trkpt><trkpt lat="43.9822321" lon="11.2325715"><ele>267.25</ele><time>2026-04-11T13:29:24.09Z</time></trkpt><trkpt lat="43.9821183" lon="11.2325479"><ele>267.0</ele><time>2026-04-11T13:29:25.09Z</time></trkpt><trkpt lat="43.9820131" lon="11.232529"><ele>267.0</ele><time>2026-04-11T13:29:26.09Z</time></trkpt><trkpt lat="43.9819217" lon="11.23251"><ele>267.0</ele><time>2026-04-11T13:29:27.089Z</time></trkpt><trkpt lat="43.9818396" lon="11.2324886"><ele>267.0</ele><time>2026-04-11T13:29:28.091Z</time></trkpt><trkpt lat="43.9817635" lon="11.2324719"><ele>267.0</ele><time>2026-04-11T13:29:29.091Z</time></trkpt><trkpt lat="43.9816969" lon="11.2324603"><ele>267.0</ele><time>2026-04-11T13:29:30.091Z</time></trkpt><trkpt lat="43.9816155" lon="11.2324549"><ele>267.0</ele><time>2026-04-11T13:29:32.09Z</time></trkpt><trkpt lat="43.9815433" lon="11.232447"><ele>267.0</ele><time>2026-04-11T13:29:35.09Z</time></trkpt><trkpt lat="43.9814426" lon="11.2324158"><ele>267.0</ele><time>2026-04-11T13:29:37.091Z</time></trkpt><trkpt lat="43.9813577" lon="11.2323786"><ele>267.0</ele><time>2026-04-11T13:29:39.09Z</time></trkpt><trkpt lat="43.9812696" lon="11.2323449"><ele>267.0</ele><time>2026-04-11T13:29:42.09Z</time></trkpt><trkpt lat="43.981142" lon="11.2322898"><ele>267.0</ele><time>2026-04-11T13:29:44.09Z</time></trkpt><trkpt lat="43.9810614" lon="11.2322782"><ele>267.0</ele><time>2026-04-11T13:29:45.09Z</time></trkpt><trkpt lat="43.9809709" lon="11.2322945"><ele>267.0</ele><time>2026-04-11T13:29:46.09Z</time></trkpt><trkpt lat="43.9808768" lon="11.2323356"><ele>267.0</ele><time>2026-04-11T13:29:47.091Z</time></trkpt><trkpt lat="43.9807883" lon="11.2323656"><ele>267.0</ele><time>2026-04-11T13:29:48.091Z</time></trkpt><trkpt lat="43.9807097" lon="11.2323829"><ele>267.0</ele><time>2026-04-11T13:29:49.091Z</time></trkpt><trkpt lat="43.9806432" lon="11.2323922"><ele>267.0</ele><time>2026-04-11T13:29:50.091Z</time></trkpt><trkpt lat="43.9805287" lon="11.2324042"><ele>266.8</ele><time>2026-04-11T13:29:52.091Z</time></trkpt><trkpt lat="43.9804456" lon="11.2324075"><ele>266.6</ele><time>2026-04-11T13:29:53.09Z</time></trkpt><trkpt lat="43.9803552" lon="11.2323853"><ele>266.40000000000003</ele><time>2026-04-11T13:29:54.091Z</time></trkpt><trkpt lat="43.980253" lon="11.2323365"><ele>266.2</ele><time>2026-04-11T13:29:55.091Z</time></trkpt><trkpt lat="43.9801418" lon="11.2322695"><ele>266.0</ele><time>2026-04-11T13:29:56.091Z</time></trkpt><trkpt lat="43.9800288" lon="11.2321968"><ele>264.25</ele><time>2026-04-11T13:29:57.09Z</time></trkpt><trkpt lat="43.9799042" lon="11.2321177"><ele>262.5</ele><time>2026-04-11T13:29:58.09Z</time></trkpt><trkpt lat="43.9797777" lon="11.2320348"><ele>260.75</ele><time>2026-04-11T13:29:59.09Z</time></trkpt><trkpt lat="43.9796497" lon="11.2319507"><ele>259.0</ele><time>2026-04-11T13:30:00.09Z</time></trkpt><trkpt lat="43.9795298" lon="11.231872"><ele>259.0</ele><time>2026-04-11T13:30:01.09Z</time></trkpt><trkpt lat="43.9794187" lon="11.2317924"><ele>259.0</ele><time>2026-04-11T13:30:02.09Z</time></trkpt><trkpt lat="43.9793158" lon="11.2317075"><ele>259.0</ele><time>2026-04-11T13:30:03.089Z</time></trkpt><trkpt lat="43.9792193" lon="11.2316028"><ele>259.0</ele><time>2026-04-11T13:30:04.09Z</time></trkpt><trkpt lat="43.9791535" lon="11.2314603"><ele>257.8</ele><time>2026-04-11T13:30:05.09Z</time></trkpt><trkpt lat="43.9791081" lon="11.2312937"><ele>256.59999999999997</ele><time>2026-04-11T13:30:06.091Z</time></trkpt><trkpt lat="43.9790878" lon="11.2311372"><ele>255.4</ele><time>2026-04-11T13:30:07.09Z</time></trkpt><trkpt lat="43.9790803" lon="11.2310013"><ele>254.2</ele><time>2026-04-11T13:30:08.09Z</time></trkpt><trkpt lat="43.979073" lon="11.2308924"><ele>253.0</ele><time>2026-04-11T13:30:09.09Z</time></trkpt><trkpt lat="43.9789884" lon="11.2307796"><ele>253.0</ele><time>2026-04-11T13:30:11.091Z</time></trkpt><trkpt lat="43.9789144" lon="11.2307836"><ele>253.0</ele><time>2026-04-11T13:30:12.091Z</time></trkpt><trkpt lat="43.9788269" lon="11.2308011"><ele>253.0</ele><time>2026-04-11T13:30:13.09Z</time></trkpt><trkpt lat="43.9787229" lon="11.2307999"><ele>253.0</ele><time>2026-04-11T13:30:14.09Z</time></trkpt><trkpt lat="43.9786097" lon="11.23077"><ele>253.0</ele><time>2026-04-11T13:30:15.091Z</time></trkpt><trkpt lat="43.9784922" lon="11.2307095"><ele>252.75</ele><time>2026-04-11T13:30:16.091Z</time></trkpt><trkpt lat="43.9783723" lon="11.2306199"><ele>252.5</ele><time>2026-04-11T13:30:17.09Z</time></trkpt><trkpt lat="43.9782492" lon="11.2305172"><ele>252.25</ele><time>2026-04-11T13:30:18.091Z</time></trkpt><trkpt lat="43.9781193" lon="11.2304132"><ele>252.0</ele><time>2026-04-11T13:30:19.091Z</time></trkpt><trkpt lat="43.977983" lon="11.2303136"><ele>252.0</ele><time>2026-04-11T13:30:20.091Z</time></trkpt><trkpt lat="43.9778392" lon="11.2302267"><ele>252.0</ele><time>2026-04-11T13:30:21.09Z</time></trkpt><trkpt lat="43.9776869" lon="11.2301542"><ele>252.0</ele><time>2026-04-11T13:30:22.09Z</time></trkpt><trkpt lat="43.9775299" lon="11.2300884"><ele>252.66666666666669</ele><time>2026-04-11T13:30:23.09Z</time></trkpt><trkpt lat="43.9773725" lon="11.2300202"><ele>253.33333333333334</ele><time>2026-04-11T13:30:24.09Z</time></trkpt><trkpt lat="43.9772171" lon="11.2299567"><ele>254.0</ele><time>2026-04-11T13:30:25.091Z</time></trkpt><trkpt lat="43.9770732" lon="11.2299165"><ele>254.0</ele><time>2026-04-11T13:30:26.091Z</time></trkpt><trkpt lat="43.9769238" lon="11.2299283"><ele>254.0</ele><time>2026-04-11T13:30:27.091Z</time></trkpt><trkpt lat="43.9767918" lon="11.2299855"><ele>254.0</ele><time>2026-04-11T13:30:28.091Z</time></trkpt><trkpt lat="43.9766759" lon="11.2300784"><ele>254.0</ele><time>2026-04-11T13:30:29.091Z</time></trkpt><trkpt lat="43.976559" lon="11.2302046"><ele>257.6666666666667</ele><time>2026-04-11T13:30:30.089Z</time></trkpt><trkpt lat="43.9764342" lon="11.230337"><ele>261.3333333333333</ele><time>2026-04-11T13:30:31.09Z</time></trkpt><trkpt lat="43.9762976" lon="11.2304746"><ele>265.0</ele><time>2026-04-11T13:30:32.09Z</time></trkpt><trkpt lat="43.9761515" lon="11.2306126"><ele>264.0</ele><time>2026-04-11T13:30:33.091Z</time></trkpt><trkpt lat="43.9760027" lon="11.230756"><ele>263.0</ele><time>2026-04-11T13:30:34.091Z</time></trkpt><trkpt lat="43.9758675" lon="11.2308927"><ele>262.0</ele><time>2026-04-11T13:30:35.09Z</time></trkpt><trkpt lat="43.9757365" lon="11.2310279"><ele>262.0</ele><time>2026-04-11T13:30:36.09Z</time></trkpt><trkpt lat="43.9756227" lon="11.231154"><ele>262.0</ele><time>2026-04-11T13:30:37.09Z</time></trkpt><trkpt lat="43.9755296" lon="11.2312919"><ele>262.0</ele><time>2026-04-11T13:30:38.09Z</time></trkpt><trkpt lat="43.9754564" lon="11.231465"><ele>262.0</ele><time>2026-04-11T13:30:39.09Z</time></trkpt><trkpt lat="43.9754224" lon="11.2316634"><ele>260.3333333333333</ele><time>2026-04-11T13:30:40.09Z</time></trkpt><trkpt lat="43.9754227" lon="11.2318827"><ele>258.6666666666667</ele><time>2026-04-11T13:30:41.091Z</time></trkpt><trkpt lat="43.9754539" lon="11.2321093"><ele>257.0</ele><time>2026-04-11T13:30:42.091Z</time></trkpt><trkpt lat="43.9755013" lon="11.2323447"><ele>257.0</ele><time>2026-04-11T13:30:43.091Z</time></trkpt><trkpt lat="43.9755548" lon="11.2325867"><ele>257.0</ele><time>2026-04-11T13:30:44.09Z</time></trkpt><trkpt lat="43.9756083" lon="11.2328209"><ele>257.0</ele><time>2026-04-11T13:30:45.09Z</time></trkpt><trkpt lat="43.975668" lon="11.2330527"><ele>258.6666666666667</ele><time>2026-04-11T13:30:46.091Z</time></trkpt><trkpt lat="43.9757426" lon="11.2332782"><ele>260.3333333333333</ele><time>2026-04-11T13:30:47.091Z</time></trkpt><trkpt lat="43.9758304" lon="11.2334941"><ele>262.0</ele><time>2026-04-11T13:30:48.091Z</time></trkpt><trkpt lat="43.9759311" lon="11.2337023"><ele>259.0</ele><time>2026-04-11T13:30:49.09Z</time></trkpt><trkpt lat="43.9760473" lon="11.2339078"><ele>256.0</ele><time>2026-04-11T13:30:50.091Z</time></trkpt><trkpt lat="43.9761756" lon="11.2341113"><ele>253.0</ele><time>2026-04-11T13:30:51.091Z</time></trkpt><trkpt lat="43.9763106" lon="11.2343182"><ele>253.0</ele><time>2026-04-11T13:30:52.09Z</time></trkpt><trkpt lat="43.976449" lon="11.2345293"><ele>253.0</ele><time>2026-04-11T13:30:53.09Z</time></trkpt><trkpt lat="43.9765852" lon="11.2347423"><ele>253.0</ele><time>2026-04-11T13:30:54.091Z</time></trkpt><trkpt lat="43.9767197" lon="11.2349518"><ele>252.0</ele><time>2026-04-11T13:30:55.09Z</time></trkpt><trkpt lat="43.9768524" lon="11.2351527"><ele>251.0</ele><time>2026-04-11T13:30:56.09Z</time></trkpt><trkpt lat="43.9769894" lon="11.2353524"><ele>250.0</ele><time>2026-04-11T13:30:57.091Z</time></trkpt><trkpt lat="43.9771249" lon="11.235551"><ele>251.33333333333331</ele><time>2026-04-11T13:30:58.09Z</time></trkpt><trkpt lat="43.9772587" lon="11.2357516"><ele>252.66666666666669</ele><time>2026-04-11T13:30:59.091Z</time></trkpt><trkpt lat="43.9773884" lon="11.2359527"><ele>254.0</ele><time>2026-04-11T13:31:00.091Z</time></trkpt><trkpt lat="43.9775063" lon="11.2361427"><ele>252.66666666666669</ele><time>2026-04-11T13:31:01.091Z</time></trkpt><trkpt lat="43.977613" lon="11.2363384"><ele>251.33333333333331</ele><time>2026-04-11T13:31:02.091Z</time></trkpt><trkpt lat="43.9777014" lon="11.2365538"><ele>250.0</ele><time>2026-04-11T13:31:03.091Z</time></trkpt><trkpt lat="43.9777776" lon="11.2367847"><ele>250.33333333333331</ele><time>2026-04-11T13:31:04.09Z</time></trkpt><trkpt lat="43.9778485" lon="11.2370276"><ele>250.66666666666669</ele><time>2026-04-11T13:31:05.09Z</time></trkpt><trkpt lat="43.977913" lon="11.2372776"><ele>251.0</ele><time>2026-04-11T13:31:06.09Z</time></trkpt><trkpt lat="43.9779656" lon="11.2375116"><ele>251.0</ele><time>2026-04-11T13:31:07.091Z</time></trkpt><trkpt lat="43.9779828" lon="11.2377403"><ele>251.0</ele><time>2026-04-11T13:31:08.09Z</time></trkpt><trkpt lat="43.9779645" lon="11.2379718"><ele>251.0</ele><time>2026-04-11T13:31:09.09Z</time></trkpt><trkpt lat="43.9779101" lon="11.2381793"><ele>251.33333333333334</ele><time>2026-04-11T13:31:10.091Z</time></trkpt><trkpt lat="43.9778186" lon="11.2383698"><ele>251.66666666666669</ele><time>2026-04-11T13:31:11.091Z</time></trkpt><trkpt lat="43.9777013" lon="11.2385361"><ele>252.0</ele><time>2026-04-11T13:31:12.091Z</time></trkpt><trkpt lat="43.9775573" lon="11.2386566"><ele>254.33333333333331</ele><time>2026-04-11T13:31:13.091Z</time></trkpt><trkpt lat="43.9773961" lon="11.2387462"><ele>256.66666666666663</ele><time>2026-04-11T13:31:14.091Z</time></trkpt><trkpt lat="43.9772284" lon="11.2388265"><ele>259.0</ele><time>2026-04-11T13:31:15.091Z</time></trkpt><trkpt lat="43.9770529" lon="11.2389061"><ele>258.66666666666663</ele><time>2026-04-11T13:31:16.091Z</time></trkpt><trkpt lat="43.976874" lon="11.2389886"><ele>258.3333333333333</ele><time>2026-04-11T13:31:17.091Z</time></trkpt><trkpt lat="43.9766924" lon="11.2390718"><ele>258.0</ele><time>2026-04-11T13:31:18.091Z</time></trkpt><trkpt lat="43.9765105" lon="11.2391561"><ele>258.0</ele><time>2026-04-11T13:31:19.09Z</time></trkpt><trkpt lat="43.9763276" lon="11.2392419"><ele>258.0</ele><time>2026-04-11T13:31:20.09Z</time></trkpt><trkpt lat="43.976143" lon="11.2393302"><ele>258.0</ele><time>2026-04-11T13:31:21.091Z</time></trkpt><trkpt lat="43.9759595" lon="11.2394202"><ele>261.3333333333333</ele><time>2026-04-11T13:31:22.091Z</time></trkpt><trkpt lat="43.9757772" lon="11.2395052"><ele>264.66666666666663</ele><time>2026-04-11T13:31:23.091Z</time></trkpt><trkpt lat="43.9756009" lon="11.2395867"><ele>268.0</ele><time>2026-04-11T13:31:24.09Z</time></trkpt><trkpt lat="43.975435" lon="11.2396659"><ele>268.0</ele><time>2026-04-11T13:31:25.091Z</time></trkpt><trkpt lat="43.9752679" lon="11.2397445"><ele>268.0</ele><time>2026-04-11T13:31:26.091Z</time></trkpt><trkpt lat="43.9750975" lon="11.2398241"><ele>268.0</ele><time>2026-04-11T13:31:27.091Z</time></trkpt><trkpt lat="43.9749238" lon="11.2399039"><ele>264.66666666666663</ele><time>2026-04-11T13:31:28.091Z</time></trkpt><trkpt lat="43.9747434" lon="11.2399779"><ele>261.3333333333333</ele><time>2026-04-11T13:31:29.091Z</time></trkpt><trkpt lat="43.9745673" lon="11.2400234"><ele>258.0</ele><time>2026-04-11T13:31:30.091Z</time></trkpt><trkpt lat="43.9743894" lon="11.2400333"><ele>258.0</ele><time>2026-04-11T13:31:31.091Z</time></trkpt><trkpt lat="43.9742075" lon="11.2400236"><ele>258.0</ele><time>2026-04-11T13:31:32.091Z</time></trkpt><trkpt lat="43.9740261" lon="11.2400063"><ele>258.0</ele><time>2026-04-11T13:31:33.09Z</time></trkpt><trkpt lat="43.97385" lon="11.2399897"><ele>258.3333333333333</ele><time>2026-04-11T13:31:34.091Z</time></trkpt><trkpt lat="43.9736762" lon="11.2399775"><ele>258.66666666666663</ele><time>2026-04-11T13:31:35.09Z</time></trkpt><trkpt lat="43.9735172" lon="11.2399672"><ele>259.0</ele><time>2026-04-11T13:31:36.091Z</time></trkpt><trkpt lat="43.9733718" lon="11.2399706"><ele>259.0</ele><time>2026-04-11T13:31:37.091Z</time></trkpt><trkpt lat="43.9732431" lon="11.2400048"><ele>259.0</ele><time>2026-04-11T13:31:38.091Z</time></trkpt><trkpt lat="43.9731288" lon="11.2400839"><ele>259.0</ele><time>2026-04-11T13:31:39.091Z</time></trkpt><trkpt lat="43.9730328" lon="11.2402114"><ele>259.0</ele><time>2026-04-11T13:31:40.091Z</time></trkpt><trkpt lat="43.9729521" lon="11.2403634"><ele>259.0</ele><time>2026-04-11T13:31:41.091Z</time></trkpt><trkpt lat="43.9728843" lon="11.24052"><ele>259.0</ele><time>2026-04-11T13:31:42.091Z</time></trkpt><trkpt lat="43.9728315" lon="11.2406757"><ele>259.0</ele><time>2026-04-11T13:31:43.09Z</time></trkpt><trkpt lat="43.9728096" lon="11.2408446"><ele>259.0</ele><time>2026-04-11T13:31:44.09Z</time></trkpt><trkpt lat="43.9728208" lon="11.2410247"><ele>257.25</ele><time>2026-04-11T13:31:45.09Z</time></trkpt><trkpt lat="43.9728641" lon="11.2411969"><ele>255.5</ele><time>2026-04-11T13:31:46.091Z</time></trkpt><trkpt lat="43.9729213" lon="11.2413681"><ele>253.75</ele><time>2026-04-11T13:31:47.091Z</time></trkpt><trkpt lat="43.9729808" lon="11.2415367"><ele>252.0</ele><time>2026-04-11T13:31:48.091Z</time></trkpt><trkpt lat="43.9730416" lon="11.2417056"><ele>252.0</ele><time>2026-04-11T13:31:49.09Z</time></trkpt><trkpt lat="43.9731002" lon="11.2418834"><ele>252.0</ele><time>2026-04-11T13:31:50.09Z</time></trkpt><trkpt lat="43.9731582" lon="11.2420658"><ele>252.0</ele><time>2026-04-11T13:31:51.091Z</time></trkpt><trkpt lat="43.9732244" lon="11.2422471"><ele>252.0</ele><time>2026-04-11T13:31:52.091Z</time></trkpt><trkpt lat="43.9733052" lon="11.2424202"><ele>251.66666666666669</ele><time>2026-04-11T13:31:53.091Z</time></trkpt><trkpt lat="43.9733993" lon="11.2425821"><ele>251.33333333333334</ele><time>2026-04-11T13:31:54.09Z</time></trkpt><trkpt lat="43.9735014" lon="11.2427356"><ele>251.0</ele><time>2026-04-11T13:31:55.091Z</time></trkpt><trkpt lat="43.9736038" lon="11.2428928"><ele>251.0</ele><time>2026-04-11T13:31:56.09Z</time></trkpt><trkpt lat="43.9737064" lon="11.2430502"><ele>251.0</ele><time>2026-04-11T13:31:57.091Z</time></trkpt><trkpt lat="43.9738103" lon="11.2432064"><ele>251.0</ele><time>2026-04-11T13:31:58.09Z</time></trkpt><trkpt lat="43.9739144" lon="11.2433623"><ele>250.66666666666669</ele><time>2026-04-11T13:31:59.09Z</time></trkpt><trkpt lat="43.9740202" lon="11.2435162"><ele>250.33333333333331</ele><time>2026-04-11T13:32:00.09Z</time></trkpt><trkpt lat="43.9741239" lon="11.243669"><ele>250.0</ele><time>2026-04-11T13:32:01.09Z</time></trkpt><trkpt lat="43.9742275" lon="11.243827"><ele>252.33333333333331</ele><time>2026-04-11T13:32:02.09Z</time></trkpt><trkpt lat="43.9743323" lon="11.2439866"><ele>254.66666666666669</ele><time>2026-04-11T13:32:03.09Z</time></trkpt><trkpt lat="43.9744513" lon="11.2441238"><ele>257.0</ele><time>2026-04-11T13:32:04.09Z</time></trkpt><trkpt lat="43.9745833" lon="11.2442218"><ele>257.0</ele><time>2026-04-11T13:32:05.091Z</time></trkpt><trkpt lat="43.9747275" lon="11.2442808"><ele>257.0</ele><time>2026-04-11T13:32:06.091Z</time></trkpt><trkpt lat="43.9748839" lon="11.2443182"><ele>257.0</ele><time>2026-04-11T13:32:07.091Z</time></trkpt><trkpt lat="43.9750369" lon="11.2443486"><ele>254.75</ele><time>2026-04-11T13:32:08.091Z</time></trkpt><trkpt lat="43.9751871" lon="11.2443765"><ele>252.5</ele><time>2026-04-11T13:32:09.091Z</time></trkpt><trkpt lat="43.9753347" lon="11.2444074"><ele>250.25</ele><time>2026-04-11T13:32:10.091Z</time></trkpt><trkpt lat="43.9754747" lon="11.2444576"><ele>248.0</ele><time>2026-04-11T13:32:11.091Z</time></trkpt><trkpt lat="43.9756007" lon="11.2445496"><ele>248.0</ele><time>2026-04-11T13:32:12.091Z</time></trkpt><trkpt lat="43.9757084" lon="11.2446877"><ele>248.0</ele><time>2026-04-11T13:32:13.091Z</time></trkpt><trkpt lat="43.9757923" lon="11.2448537"><ele>248.0</ele><time>2026-04-11T13:32:14.091Z</time></trkpt><trkpt lat="43.9758664" lon="11.2450294"><ele>248.0</ele><time>2026-04-11T13:32:15.09Z</time></trkpt><trkpt lat="43.9759392" lon="11.2452064"><ele>247.25</ele><time>2026-04-11T13:32:16.091Z</time></trkpt><trkpt lat="43.9760018" lon="11.245392"><ele>246.5</ele><time>2026-04-11T13:32:17.091Z</time></trkpt><trkpt lat="43.9760271" lon="11.245588"><ele>245.75</ele><time>2026-04-11T13:32:18.091Z</time></trkpt><trkpt lat="43.9760153" lon="11.2457809"><ele>245.0</ele><time>2026-04-11T13:32:19.091Z</time></trkpt><trkpt lat="43.9759729" lon="11.245961"><ele>245.0</ele><time>2026-04-11T13:32:20.091Z</time></trkpt><trkpt lat="43.9759125" lon="11.2461286"><ele>245.0</ele><time>2026-04-11T13:32:21.091Z</time></trkpt><trkpt lat="43.9758464" lon="11.2462918"><ele>245.0</ele><time>2026-04-11T13:32:22.091Z</time></trkpt><trkpt lat="43.9757792" lon="11.2464613"><ele>245.0</ele><time>2026-04-11T13:32:23.09Z</time></trkpt><trkpt lat="43.9757092" lon="11.2466309"><ele>247.25</ele><time>2026-04-11T13:32:24.091Z</time></trkpt><trkpt lat="43.975637" lon="11.2468042"><ele>249.5</ele><time>2026-04-11T13:32:25.091Z</time></trkpt><trkpt lat="43.9755643" lon="11.2469785"><ele>251.75</ele><time>2026-04-11T13:32:26.091Z</time></trkpt><trkpt lat="43.9754925" lon="11.2471554"><ele>254.0</ele><time>2026-04-11T13:32:27.091Z</time></trkpt><trkpt lat="43.9754211" lon="11.2473369"><ele>254.0</ele><time>2026-04-11T13:32:28.09Z</time></trkpt><trkpt lat="43.975349" lon="11.2475263"><ele>254.0</ele><time>2026-04-11T13:32:29.091Z</time></trkpt><trkpt lat="43.9752722" lon="11.2477176"><ele>254.0</ele><time>2026-04-11T13:32:30.09Z</time></trkpt><trkpt lat="43.9751904" lon="11.2478983"><ele>254.0</ele><time>2026-04-11T13:32:31.09Z</time></trkpt><trkpt lat="43.9750903" lon="11.2480515"><ele>254.0</ele><time>2026-04-11T13:32:32.091Z</time></trkpt><trkpt lat="43.9749593" lon="11.2481747"><ele>254.0</ele><time>2026-04-11T13:32:33.091Z</time></trkpt><trkpt lat="43.9748151" lon="11.2482635"><ele>257.0</ele><time>2026-04-11T13:32:34.091Z</time></trkpt><trkpt lat="43.974679" lon="11.2483339"><ele>260.0</ele><time>2026-04-11T13:32:35.091Z</time></trkpt><trkpt lat="43.9745427" lon="11.2484259"><ele>263.0</ele><time>2026-04-11T13:32:36.091Z</time></trkpt><trkpt lat="43.9744212" lon="11.2485607"><ele>263.0</ele><time>2026-04-11T13:32:37.09Z</time></trkpt><trkpt lat="43.9743306" lon="11.2487316"><ele>263.0</ele><time>2026-04-11T13:32:38.091Z</time></trkpt><trkpt lat="43.9742598" lon="11.2489194"><ele>263.0</ele><time>2026-04-11T13:32:39.091Z</time></trkpt><trkpt lat="43.9741923" lon="11.2490944"><ele>263.0</ele><time>2026-04-11T13:32:40.091Z</time></trkpt><trkpt lat="43.9741062" lon="11.2492322"><ele>264.5</ele><time>2026-04-11T13:32:41.091Z</time></trkpt><trkpt lat="43.973998" lon="11.2493472"><ele>266.0</ele><time>2026-04-11T13:32:42.09Z</time></trkpt><trkpt lat="43.9738828" lon="11.2494054"><ele>267.5</ele><time>2026-04-11T13:32:43.09Z</time></trkpt><trkpt lat="43.9737643" lon="11.2494167"><ele>269.0</ele><time>2026-04-11T13:32:44.09Z</time></trkpt><trkpt lat="43.9736517" lon="11.2494085"><ele>269.0</ele><time>2026-04-11T13:32:45.09Z</time></trkpt><trkpt lat="43.9735309" lon="11.2493884"><ele>269.0</ele><time>2026-04-11T13:32:46.091Z</time></trkpt><trkpt lat="43.9734088" lon="11.2493629"><ele>269.0</ele><time>2026-04-11T13:32:47.091Z</time></trkpt><trkpt lat="43.9732888" lon="11.2493332"><ele>269.0</ele><time>2026-04-11T13:32:48.091Z</time></trkpt><trkpt lat="43.9731806" lon="11.2492981"><ele>270.0</ele><time>2026-04-11T13:32:49.09Z</time></trkpt><trkpt lat="43.9730677" lon="11.2492625"><ele>271.0</ele><time>2026-04-11T13:32:50.09Z</time></trkpt><trkpt lat="43.9729371" lon="11.2492273"><ele>272.0</ele><time>2026-04-11T13:32:51.09Z</time></trkpt><trkpt lat="43.972807" lon="11.2491911"><ele>273.0</ele><time>2026-04-11T13:32:52.091Z</time></trkpt><trkpt lat="43.9726797" lon="11.2491539"><ele>273.0</ele><time>2026-04-11T13:32:53.091Z</time></trkpt><trkpt lat="43.9725477" lon="11.2491164"><ele>273.0</ele><time>2026-04-11T13:32:54.091Z</time></trkpt><trkpt lat="43.9724161" lon="11.2490766"><ele>273.0</ele><time>2026-04-11T13:32:55.091Z</time></trkpt><trkpt lat="43.9722852" lon="11.2490385"><ele>273.0</ele><time>2026-04-11T13:32:56.09Z</time></trkpt><trkpt lat="43.9721631" lon="11.2490042"><ele>272.5</ele><time>2026-04-11T13:32:57.09Z</time></trkpt><trkpt lat="43.9720451" lon="11.2489799"><ele>272.0</ele><time>2026-04-11T13:32:58.089Z</time></trkpt><trkpt lat="43.9719263" lon="11.2489908"><ele>271.5</ele><time>2026-04-11T13:32:59.09Z</time></trkpt><trkpt lat="43.971812" lon="11.2490458"><ele>271.0</ele><time>2026-04-11T13:33:00.09Z</time></trkpt><trkpt lat="43.9717083" lon="11.2491267"><ele>270.8</ele><time>2026-04-11T13:33:01.09Z</time></trkpt><trkpt lat="43.9716175" lon="11.249211"><ele>270.6</ele><time>2026-04-11T13:33:02.09Z</time></trkpt><trkpt lat="43.9715273" lon="11.2492979"><ele>270.4</ele><time>2026-04-11T13:33:03.09Z</time></trkpt><trkpt lat="43.9714451" lon="11.249396"><ele>270.2</ele><time>2026-04-11T13:33:04.09Z</time></trkpt><trkpt lat="43.9713835" lon="11.2495147"><ele>270.0</ele><time>2026-04-11T13:33:05.09Z</time></trkpt><trkpt lat="43.971345" lon="11.2496501"><ele>269.6</ele><time>2026-04-11T13:33:06.09Z</time></trkpt><trkpt lat="43.9713274" lon="11.2497964"><ele>269.2</ele><time>2026-04-11T13:33:07.09Z</time></trkpt><trkpt lat="43.9713431" lon="11.2499527"><ele>268.8</ele><time>2026-04-11T13:33:08.091Z</time></trkpt><trkpt lat="43.9713843" lon="11.2500915"><ele>268.4</ele><time>2026-04-11T13:33:09.09Z</time></trkpt><trkpt lat="43.9714467" lon="11.2501993"><ele>268.0</ele><time>2026-04-11T13:33:10.09Z</time></trkpt><trkpt lat="43.9715169" lon="11.2502891"><ele>268.0</ele><time>2026-04-11T13:33:11.09Z</time></trkpt><trkpt lat="43.9715925" lon="11.2503669"><ele>268.0</ele><time>2026-04-11T13:33:12.09Z</time></trkpt><trkpt lat="43.9716694" lon="11.2504573"><ele>268.0</ele><time>2026-04-11T13:33:13.09Z</time></trkpt><trkpt lat="43.9717399" lon="11.2505606"><ele>268.0</ele><time>2026-04-11T13:33:14.09Z</time></trkpt><trkpt lat="43.9718009" lon="11.2506831"><ele>268.0</ele><time>2026-04-11T13:33:15.089Z</time></trkpt><trkpt lat="43.9718365" lon="11.2508206"><ele>268.25</ele><time>2026-04-11T13:33:16.09Z</time></trkpt><trkpt lat="43.971849" lon="11.250974"><ele>268.5</ele><time>2026-04-11T13:33:17.09Z</time></trkpt><trkpt lat="43.9718311" lon="11.2511313"><ele>268.75</ele><time>2026-04-11T13:33:18.09Z</time></trkpt><trkpt lat="43.971781" lon="11.2512804"><ele>269.0</ele><time>2026-04-11T13:33:19.089Z</time></trkpt><trkpt lat="43.9717136" lon="11.2514221"><ele>270.5</ele><time>2026-04-11T13:33:20.091Z</time></trkpt><trkpt lat="43.9716367" lon="11.2515599"><ele>272.0</ele><time>2026-04-11T13:33:21.091Z</time></trkpt><trkpt lat="43.971554" lon="11.251694"><ele>273.5</ele><time>2026-04-11T13:33:22.091Z</time></trkpt><trkpt lat="43.971464" lon="11.2518096"><ele>275.0</ele><time>2026-04-11T13:33:23.091Z</time></trkpt><trkpt lat="43.9713504" lon="11.2519096"><ele>275.0</ele><time>2026-04-11T13:33:24.091Z</time></trkpt><trkpt lat="43.9712228" lon="11.2519769"><ele>275.0</ele><time>2026-04-11T13:33:25.091Z</time></trkpt><trkpt lat="43.9710874" lon="11.2520358"><ele>275.0</ele><time>2026-04-11T13:33:26.091Z</time></trkpt><trkpt lat="43.9709488" lon="11.2520992"><ele>275.0</ele><time>2026-04-11T13:33:27.09Z</time></trkpt><trkpt lat="43.9708074" lon="11.252164"><ele>275.75</ele><time>2026-04-11T13:33:28.09Z</time></trkpt><trkpt lat="43.9706723" lon="11.2522244"><ele>276.5</ele><time>2026-04-11T13:33:29.09Z</time></trkpt><trkpt lat="43.9705476" lon="11.2522907"><ele>277.25</ele><time>2026-04-11T13:33:30.09Z</time></trkpt><trkpt lat="43.9704416" lon="11.2523911"><ele>278.0</ele><time>2026-04-11T13:33:31.09Z</time></trkpt><trkpt lat="43.9703595" lon="11.2525187"><ele>278.0</ele><time>2026-04-11T13:33:32.09Z</time></trkpt><trkpt lat="43.9703183" lon="11.2526471"><ele>278.0</ele><time>2026-04-11T13:33:33.09Z</time></trkpt><trkpt lat="43.9703083" lon="11.252795"><ele>278.0</ele><time>2026-04-11T13:33:34.09Z</time></trkpt><trkpt lat="43.9703261" lon="11.2529279"><ele>278.0</ele><time>2026-04-11T13:33:35.09Z</time></trkpt><trkpt lat="43.9703785" lon="11.2530592"><ele>278.0</ele><time>2026-04-11T13:33:36.09Z</time></trkpt><trkpt lat="43.9704615" lon="11.2531714"><ele>278.75</ele><time>2026-04-11T13:33:37.09Z</time></trkpt><trkpt lat="43.970556" lon="11.2532543"><ele>279.5</ele><time>2026-04-11T13:33:38.09Z</time></trkpt><trkpt lat="43.9706597" lon="11.2533353"><ele>280.25</ele><time>2026-04-11T13:33:39.089Z</time></trkpt><trkpt lat="43.9707636" lon="11.2534231"><ele>281.0</ele><time>2026-04-11T13:33:40.09Z</time></trkpt><trkpt lat="43.9708441" lon="11.2535405"><ele>281.0</ele><time>2026-04-11T13:33:41.09Z</time></trkpt><trkpt lat="43.9709089" lon="11.2537047"><ele>281.0</ele><time>2026-04-11T13:33:42.09Z</time></trkpt><trkpt lat="43.9709549" lon="11.2538992"><ele>281.0</ele><time>2026-04-11T13:33:43.09Z</time></trkpt><trkpt lat="43.9710106" lon="11.2541042"><ele>281.0</ele><time>2026-04-11T13:33:44.09Z</time></trkpt><trkpt lat="43.9710669" lon="11.2543128"><ele>281.0</ele><time>2026-04-11T13:33:45.09Z</time></trkpt><trkpt lat="43.9711212" lon="11.2545202"><ele>281.0</ele><time>2026-04-11T13:33:46.09Z</time></trkpt><trkpt lat="43.9711748" lon="11.2547158"><ele>281.0</ele><time>2026-04-11T13:33:47.09Z</time></trkpt><trkpt lat="43.9712287" lon="11.2549077"><ele>280.5</ele><time>2026-04-11T13:33:48.09Z</time></trkpt><trkpt lat="43.971281" lon="11.2550949"><ele>280.0</ele><time>2026-04-11T13:33:49.09Z</time></trkpt><trkpt lat="43.9713192" lon="11.2552798"><ele>279.5</ele><time>2026-04-11T13:33:50.09Z</time></trkpt><trkpt lat="43.9713178" lon="11.2554664"><ele>279.0</ele><time>2026-04-11T13:33:51.09Z</time></trkpt><trkpt lat="43.971274" lon="11.2556469"><ele>279.5</ele><time>2026-04-11T13:33:52.09Z</time></trkpt><trkpt lat="43.9711939" lon="11.2557994"><ele>280.0</ele><time>2026-04-11T13:33:53.091Z</time></trkpt><trkpt lat="43.9710813" lon="11.2559337"><ele>280.5</ele><time>2026-04-11T13:33:54.091Z</time></trkpt><trkpt lat="43.9709528" lon="11.2560565"><ele>281.0</ele><time>2026-04-11T13:33:55.091Z</time></trkpt><trkpt lat="43.9708127" lon="11.2561756"><ele>281.0</ele><time>2026-04-11T13:33:56.09Z</time></trkpt><trkpt lat="43.9706641" lon="11.2562833"><ele>281.0</ele><time>2026-04-11T13:33:57.091Z</time></trkpt><trkpt lat="43.9705099" lon="11.2563845"><ele>281.0</ele><time>2026-04-11T13:33:58.091Z</time></trkpt><trkpt lat="43.9703533" lon="11.2564879"><ele>278.6666666666667</ele><time>2026-04-11T13:33:59.09Z</time></trkpt><trkpt lat="43.9701929" lon="11.2565934"><ele>276.3333333333333</ele><time>2026-04-11T13:34:00.09Z</time></trkpt><trkpt lat="43.9700343" lon="11.2567007"><ele>274.0</ele><time>2026-04-11T13:34:01.09Z</time></trkpt><trkpt lat="43.9698772" lon="11.2568078"><ele>274.0</ele><time>2026-04-11T13:34:02.09Z</time></trkpt><trkpt lat="43.9697222" lon="11.2569095"><ele>274.0</ele><time>2026-04-11T13:34:03.09Z</time></trkpt><trkpt lat="43.969565" lon="11.2570125"><ele>274.0</ele><time>2026-04-11T13:34:04.09Z</time></trkpt><trkpt lat="43.9694152" lon="11.2571141"><ele>274.0</ele><time>2026-04-11T13:34:05.09Z</time></trkpt><trkpt lat="43.969279" lon="11.2572227"><ele>274.0</ele><time>2026-04-11T13:34:06.089Z</time></trkpt><trkpt lat="43.9691705" lon="11.2573543"><ele>274.0</ele><time>2026-04-11T13:34:07.09Z</time></trkpt><trkpt lat="43.9690863" lon="11.2575111"><ele>274.0</ele><time>2026-04-11T13:34:08.09Z</time></trkpt><trkpt lat="43.9690302" lon="11.2576953"><ele>271.5</ele><time>2026-04-11T13:34:09.091Z</time></trkpt><trkpt lat="43.969011" lon="11.2578996"><ele>269.0</ele><time>2026-04-11T13:34:10.091Z</time></trkpt><trkpt lat="43.969027" lon="11.2581099"><ele>266.5</ele><time>2026-04-11T13:34:11.091Z</time></trkpt><trkpt lat="43.9690666" lon="11.2582994"><ele>264.0</ele><time>2026-04-11T13:34:12.091Z</time></trkpt><trkpt lat="43.9691196" lon="11.2584741"><ele>263.75</ele><time>2026-04-11T13:34:13.09Z</time></trkpt><trkpt lat="43.9691659" lon="11.2586376"><ele>263.5</ele><time>2026-04-11T13:34:14.09Z</time></trkpt><trkpt lat="43.9692117" lon="11.2588107"><ele>263.25</ele><time>2026-04-11T13:34:15.09Z</time></trkpt><trkpt lat="43.9692661" lon="11.258986"><ele>263.0</ele><time>2026-04-11T13:34:16.091Z</time></trkpt><trkpt lat="43.9693144" lon="11.2591491"><ele>262.83333333333337</ele><time>2026-04-11T13:34:17.09Z</time></trkpt><trkpt lat="43.9693538" lon="11.2592875"><ele>262.6666666666667</ele><time>2026-04-11T13:34:18.09Z</time></trkpt><trkpt lat="43.9693891" lon="11.2594089"><ele>262.5</ele><time>2026-04-11T13:34:19.089Z</time></trkpt><trkpt lat="43.9694156" lon="11.2595108"><ele>262.3333333333333</ele><time>2026-04-11T13:34:20.089Z</time></trkpt><trkpt lat="43.9694386" lon="11.2595983"><ele>262.16666666666663</ele><time>2026-04-11T13:34:21.09Z</time></trkpt><trkpt lat="43.9694691" lon="11.2597063"><ele>262.0</ele><time>2026-04-11T13:34:23.089Z</time></trkpt><trkpt lat="43.9694898" lon="11.2597992"><ele>262.66666666666663</ele><time>2026-04-11T13:34:26.089Z</time></trkpt><trkpt lat="43.9695045" lon="11.2598912"><ele>263.3333333333333</ele><time>2026-04-11T13:34:31.09Z</time></trkpt><trkpt lat="43.9695297" lon="11.2599756"><ele>264.0</ele><time>2026-04-11T13:34:47.09Z</time></trkpt><trkpt lat="43.9695745" lon="11.2600389"><ele>264.6666666666667</ele><time>2026-04-11T13:34:54.09Z</time></trkpt><trkpt lat="43.9696123" lon="11.2601147"><ele>265.33333333333337</ele><time>2026-04-11T13:35:28.09Z</time></trkpt><trkpt lat="43.9696711" lon="11.2602442"><ele>266.0</ele><time>2026-04-11T13:35:30.089Z</time></trkpt><trkpt lat="43.9697392" lon="11.2603541"><ele>266.0</ele><time>2026-04-11T13:35:32.089Z</time></trkpt><trkpt lat="43.9698012" lon="11.2604834"><ele>266.0</ele><time>2026-04-11T13:35:34.089Z</time></trkpt><trkpt lat="43.9698091" lon="11.2606626"><ele>266.0</ele><time>2026-04-11T13:35:36.09Z</time></trkpt><trkpt lat="43.969795" lon="11.2607579"><ele>266.0</ele><time>2026-04-11T13:35:37.09Z</time></trkpt><trkpt lat="43.9697883" lon="11.2608478"><ele>266.0</ele><time>2026-04-11T13:35:38.09Z</time></trkpt><trkpt lat="43.9698346" lon="11.2609819"><ele>266.0</ele><time>2026-04-11T13:35:40.09Z</time></trkpt><trkpt lat="43.9698933" lon="11.2610467"><ele>266.0</ele><time>2026-04-11T13:35:41.09Z</time></trkpt><trkpt lat="43.9699533" lon="11.2611215"><ele>266.0</ele><time>2026-04-11T13:35:42.09Z</time></trkpt><trkpt lat="43.970004" lon="11.2612157"><ele>266.0</ele><time>2026-04-11T13:35:43.09Z</time></trkpt><trkpt lat="43.9700545" lon="11.2613395"><ele>266.0</ele><time>2026-04-11T13:35:44.089Z</time></trkpt><trkpt lat="43.9700919" lon="11.2614682"><ele>266.0</ele><time>2026-04-11T13:35:45.089Z</time></trkpt><trkpt lat="43.9700947" lon="11.2615873"><ele>266.83333333333337</ele><time>2026-04-11T13:35:46.09Z</time></trkpt><trkpt lat="43.97007" lon="11.2616833"><ele>267.6666666666667</ele><time>2026-04-11T13:35:47.09Z</time></trkpt><trkpt lat="43.9700294" lon="11.261769"><ele>268.5</ele><time>2026-04-11T13:35:48.089Z</time></trkpt><trkpt lat="43.9699692" lon="11.2618563"><ele>269.3333333333333</ele><time>2026-04-11T13:35:49.09Z</time></trkpt><trkpt lat="43.9699053" lon="11.2619496"><ele>270.16666666666663</ele><time>2026-04-11T13:35:50.09Z</time></trkpt><trkpt lat="43.9698139" lon="11.2620591"><ele>271.0</ele><time>2026-04-11T13:35:51.09Z</time></trkpt><trkpt lat="43.9697264" lon="11.2621596"><ele>273.0</ele><time>2026-04-11T13:35:52.09Z</time></trkpt><trkpt lat="43.9696252" lon="11.26227"><ele>275.0</ele><time>2026-04-11T13:35:53.089Z</time></trkpt><trkpt lat="43.9695137" lon="11.2623793"><ele>277.0</ele><time>2026-04-11T13:35:54.089Z</time></trkpt><trkpt lat="43.9694128" lon="11.262481"><ele>279.0</ele><time>2026-04-11T13:35:55.089Z</time></trkpt><trkpt lat="43.9693175" lon="11.2625741"><ele>279.0</ele><time>2026-04-11T13:35:56.09Z</time></trkpt><trkpt lat="43.969223" lon="11.26266"><ele>279.0</ele><time>2026-04-11T13:35:57.09Z</time></trkpt><trkpt lat="43.9691357" lon="11.2627628"><ele>279.0</ele><time>2026-04-11T13:35:58.089Z</time></trkpt><trkpt lat="43.9690616" lon="11.2628857"><ele>279.0</ele><time>2026-04-11T13:35:59.089Z</time></trkpt><trkpt lat="43.9689969" lon="11.263024"><ele>282.25</ele><time>2026-04-11T13:36:00.09Z</time></trkpt><trkpt lat="43.9689489" lon="11.2631738"><ele>285.5</ele><time>2026-04-11T13:36:01.09Z</time></trkpt><trkpt lat="43.968921" lon="11.2633436"><ele>288.75</ele><time>2026-04-11T13:36:02.09Z</time></trkpt><trkpt lat="43.968901" lon="11.2635226"><ele>292.0</ele><time>2026-04-11T13:36:03.09Z</time></trkpt><trkpt lat="43.9689189" lon="11.2636897"><ele>292.0</ele><time>2026-04-11T13:36:04.09Z</time></trkpt><trkpt lat="43.9689291" lon="11.2638398"><ele>292.0</ele><time>2026-04-11T13:36:05.09Z</time></trkpt><trkpt lat="43.9689559" lon="11.2639828"><ele>292.0</ele><time>2026-04-11T13:36:06.089Z</time></trkpt><trkpt lat="43.9689923" lon="11.2641035"><ele>292.0</ele><time>2026-04-11T13:36:07.089Z</time></trkpt><trkpt lat="43.9690359" lon="11.2642103"><ele>292.0</ele><time>2026-04-11T13:36:08.089Z</time></trkpt><trkpt lat="43.9690581" lon="11.264313"><ele>293.6</ele><time>2026-04-11T13:36:09.09Z</time></trkpt><trkpt lat="43.9690471" lon="11.2644278"><ele>295.2</ele><time>2026-04-11T13:36:10.09Z</time></trkpt><trkpt lat="43.9689985" lon="11.2645406"><ele>296.8</ele><time>2026-04-11T13:36:12.089Z</time></trkpt><trkpt lat="43.9689262" lon="11.2645345"><ele>298.4</ele><time>2026-04-11T13:36:14.09Z</time></trkpt><trkpt lat="43.968811" lon="11.2645092"><ele>300.0</ele><time>2026-04-11T13:36:16.089Z</time></trkpt><trkpt lat="43.9686995" lon="11.2645724"><ele>300.0</ele><time>2026-04-11T13:36:18.09Z</time></trkpt><trkpt lat="43.9686324" lon="11.2646101"><ele>300.0</ele><time>2026-04-11T13:36:19.09Z</time></trkpt><trkpt lat="43.9685673" lon="11.2646299"><ele>300.0</ele><time>2026-04-11T13:36:20.09Z</time></trkpt><trkpt lat="43.9685003" lon="11.2646511"><ele>300.0</ele><time>2026-04-11T13:36:21.089Z</time></trkpt><trkpt lat="43.9684241" lon="11.2646725"><ele>300.0</ele><time>2026-04-11T13:36:22.089Z</time></trkpt><trkpt lat="43.9683435" lon="11.2646965"><ele>300.0</ele><time>2026-04-11T13:36:23.089Z</time></trkpt><trkpt lat="43.9682615" lon="11.264725"><ele>302.0</ele><time>2026-04-11T13:36:24.09Z</time></trkpt><trkpt lat="43.9681748" lon="11.264758"><ele>304.0</ele><time>2026-04-11T13:36:25.09Z</time></trkpt><trkpt lat="43.9680875" lon="11.2647861"><ele>306.0</ele><time>2026-04-11T13:36:26.09Z</time></trkpt><trkpt lat="43.9680008" lon="11.2648067"><ele>308.0</ele><time>2026-04-11T13:36:27.089Z</time></trkpt><trkpt lat="43.9679148" lon="11.2648231"><ele>310.0</ele><time>2026-04-11T13:36:28.09Z</time></trkpt><trkpt lat="43.9678323" lon="11.2648471"><ele>312.0</ele><time>2026-04-11T13:36:29.089Z</time></trkpt><trkpt lat="43.96776" lon="11.2648802"><ele>312.8</ele><time>2026-04-11T13:36:30.09Z</time></trkpt><trkpt lat="43.9676843" lon="11.2649303"><ele>313.6</ele><time>2026-04-11T13:36:31.089Z</time></trkpt><trkpt lat="43.9676077" lon="11.2649962"><ele>314.40000000000003</ele><time>2026-04-11T13:36:32.089Z</time></trkpt><trkpt lat="43.9675293" lon="11.2650715"><ele>315.2</ele><time>2026-04-11T13:36:33.089Z</time></trkpt><trkpt lat="43.9674568" lon="11.2651529"><ele>316.0</ele><time>2026-04-11T13:36:34.089Z</time></trkpt><trkpt lat="43.9673838" lon="11.2652329"><ele>318.4</ele><time>2026-04-11T13:36:35.089Z</time></trkpt><trkpt lat="43.9672999" lon="11.2653159"><ele>320.8</ele><time>2026-04-11T13:36:36.09Z</time></trkpt><trkpt lat="43.9672169" lon="11.265393"><ele>323.2</ele><time>2026-04-11T13:36:37.09Z</time></trkpt><trkpt lat="43.9671313" lon="11.2654709"><ele>325.59999999999997</ele><time>2026-04-11T13:36:38.09Z</time></trkpt><trkpt lat="43.9670431" lon="11.2655347"><ele>328.0</ele><time>2026-04-11T13:36:39.09Z</time></trkpt><trkpt lat="43.9669601" lon="11.265586"><ele>328.0</ele><time>2026-04-11T13:36:40.09Z</time></trkpt><trkpt lat="43.9668891" lon="11.2655964"><ele>328.0</ele><time>2026-04-11T13:36:41.09Z</time></trkpt><trkpt lat="43.9668203" lon="11.2655627"><ele>328.0</ele><time>2026-04-11T13:36:42.089Z</time></trkpt><trkpt lat="43.966753" lon="11.2655031"><ele>328.0</ele><time>2026-04-11T13:36:43.089Z</time></trkpt><trkpt lat="43.966674" lon="11.2654371"><ele>328.0</ele><time>2026-04-11T13:36:44.09Z</time></trkpt><trkpt lat="43.9665851" lon="11.265375"><ele>328.0</ele><time>2026-04-11T13:36:45.09Z</time></trkpt><trkpt lat="43.966484" lon="11.2653243"><ele>330.2</ele><time>2026-04-11T13:36:46.089Z</time></trkpt><trkpt lat="43.9663744" lon="11.2652894"><ele>332.4</ele><time>2026-04-11T13:36:47.089Z</time></trkpt><trkpt lat="43.9662686" lon="11.2652636"><ele>334.59999999999997</ele><time>2026-04-11T13:36:48.089Z</time></trkpt><trkpt lat="43.9661697" lon="11.2652617"><ele>336.79999999999995</ele><time>2026-04-11T13:36:49.089Z</time></trkpt><trkpt lat="43.9660679" lon="11.2652581"><ele>339.0</ele><time>2026-04-11T13:36:50.09Z</time></trkpt><trkpt lat="43.9659666" lon="11.2652513"><ele>341.4</ele><time>2026-04-11T13:36:51.089Z</time></trkpt><trkpt lat="43.9658616" lon="11.26525"><ele>343.79999999999995</ele><time>2026-04-11T13:36:52.089Z</time></trkpt><trkpt lat="43.9657609" lon="11.2652512"><ele>346.20000000000005</ele><time>2026-04-11T13:36:53.089Z</time></trkpt><trkpt lat="43.965657" lon="11.2652547"><ele>348.6</ele><time>2026-04-11T13:36:54.09Z</time></trkpt><trkpt lat="43.9655516" lon="11.2652744"><ele>351.0</ele><time>2026-04-11T13:36:55.089Z</time></trkpt><trkpt lat="43.9654484" lon="11.2652981"><ele>351.0</ele><time>2026-04-11T13:36:56.089Z</time></trkpt><trkpt lat="43.9653665" lon="11.2653156"><ele>351.0</ele><time>2026-04-11T13:36:57.09Z</time></trkpt><trkpt lat="43.9652944" lon="11.2653432"><ele>351.0</ele><time>2026-04-11T13:36:58.089Z</time></trkpt><trkpt lat="43.9652315" lon="11.2653873"><ele>351.0</ele><time>2026-04-11T13:36:59.089Z</time></trkpt><trkpt lat="43.9651765" lon="11.2654897"><ele>351.0</ele><time>2026-04-11T13:37:00.09Z</time></trkpt><trkpt lat="43.9651451" lon="11.2656021"><ele>351.0</ele><time>2026-04-11T13:37:01.09Z</time></trkpt><trkpt lat="43.9651277" lon="11.2657435"><ele>351.8</ele><time>2026-04-11T13:37:02.089Z</time></trkpt><trkpt lat="43.9651265" lon="11.2659057"><ele>352.6</ele><time>2026-04-11T13:37:03.09Z</time></trkpt><trkpt lat="43.9651365" lon="11.266061"><ele>353.4</ele><time>2026-04-11T13:37:04.09Z</time></trkpt><trkpt lat="43.965138" lon="11.2661839"><ele>354.2</ele><time>2026-04-11T13:37:05.09Z</time></trkpt><trkpt lat="43.9651155" lon="11.2662724"><ele>355.0</ele><time>2026-04-11T13:37:06.089Z</time></trkpt><trkpt lat="43.9650947" lon="11.2663666"><ele>356.3333333333333</ele><time>2026-04-11T13:37:07.089Z</time></trkpt><trkpt lat="43.965026" lon="11.2663673"><ele>357.66666666666663</ele><time>2026-04-11T13:37:08.09Z</time></trkpt><trkpt lat="43.9648996" lon="11.2663891"><ele>359.0</ele><time>2026-04-11T13:37:10.09Z</time></trkpt><trkpt lat="43.9648231" lon="11.2663994"><ele>360.3333333333333</ele><time>2026-04-11T13:37:11.089Z</time></trkpt><trkpt lat="43.9647492" lon="11.2663886"><ele>361.6666666666667</ele><time>2026-04-11T13:37:12.089Z</time></trkpt><trkpt lat="43.9646518" lon="11.2663914"><ele>363.0</ele><time>2026-04-11T13:37:13.09Z</time></trkpt><trkpt lat="43.9645655" lon="11.2663921"><ele>363.0</ele><time>2026-04-11T13:37:14.09Z</time></trkpt><trkpt lat="43.9644745" lon="11.2664003"><ele>363.0</ele><time>2026-04-11T13:37:15.09Z</time></trkpt><trkpt lat="43.9643811" lon="11.2663992"><ele>363.0</ele><time>2026-04-11T13:37:16.09Z</time></trkpt><trkpt lat="43.9642867" lon="11.2663975"><ele>363.0</ele><time>2026-04-11T13:37:17.089Z</time></trkpt><trkpt lat="43.9641996" lon="11.2663962"><ele>363.0</ele><time>2026-04-11T13:37:18.089Z</time></trkpt><trkpt lat="43.9641304" lon="11.2663945"><ele>363.0</ele><time>2026-04-11T13:37:19.089Z</time></trkpt><trkpt lat="43.9640521" lon="11.2664589"><ele>363.59999999999997</ele><time>2026-04-11T13:37:21.09Z</time></trkpt><trkpt lat="43.9640471" lon="11.2665683"><ele>364.2</ele><time>2026-04-11T13:37:23.089Z</time></trkpt><trkpt lat="43.9640967" lon="11.266722"><ele>364.8</ele><time>2026-04-11T13:37:25.09Z</time></trkpt><trkpt lat="43.9641266" lon="11.2668134"><ele>365.4</ele><time>2026-04-11T13:37:26.089Z</time></trkpt><trkpt lat="43.9641617" lon="11.2669051"><ele>366.0</ele><time>2026-04-11T13:37:27.089Z</time></trkpt><trkpt lat="43.9642258" lon="11.2670637"><ele>366.0</ele><time>2026-04-11T13:37:29.09Z</time></trkpt><trkpt lat="43.9642631" lon="11.2671587"><ele>366.0</ele><time>2026-04-11T13:37:30.089Z</time></trkpt><trkpt lat="43.9642987" lon="11.2672599"><ele>366.0</ele><time>2026-04-11T13:37:31.09Z</time></trkpt><trkpt lat="43.9643354" lon="11.2673637"><ele>366.0</ele><time>2026-04-11T13:37:32.09Z</time></trkpt><trkpt lat="43.9643647" lon="11.2674626"><ele>366.0</ele><time>2026-04-11T13:37:33.09Z</time></trkpt><trkpt lat="43.9643846" lon="11.2675803"><ele>366.0</ele><time>2026-04-11T13:37:34.09Z</time></trkpt><trkpt lat="43.9643973" lon="11.2677096"><ele>366.0</ele><time>2026-04-11T13:37:35.09Z</time></trkpt><trkpt lat="43.964406" lon="11.2678376"><ele>366.0</ele><time>2026-04-11T13:37:36.089Z</time></trkpt><trkpt lat="43.9644122" lon="11.2679716"><ele>366.0</ele><time>2026-04-11T13:37:37.089Z</time></trkpt><trkpt lat="43.9644175" lon="11.2681075"><ele>366.0</ele><time>2026-04-11T13:37:38.09Z</time></trkpt><trkpt lat="43.9644307" lon="11.2682417"><ele>366.0</ele><time>2026-04-11T13:37:39.09Z</time></trkpt><trkpt lat="43.9644535" lon="11.2683757"><ele>366.6</ele><time>2026-04-11T13:37:40.09Z</time></trkpt><trkpt lat="43.9644779" lon="11.2684941"><ele>367.20000000000005</ele><time>2026-04-11T13:37:41.09Z</time></trkpt><trkpt lat="43.9645058" lon="11.2686035"><ele>367.79999999999995</ele><time>2026-04-11T13:37:42.089Z</time></trkpt><trkpt lat="43.9645432" lon="11.2687095"><ele>368.4</ele><time>2026-04-11T13:37:43.089Z</time></trkpt><trkpt lat="43.9645927" lon="11.2688332"><ele>369.0</ele><time>2026-04-11T13:37:44.09Z</time></trkpt><trkpt lat="43.964643" lon="11.2689591"><ele>369.2</ele><time>2026-04-11T13:37:45.089Z</time></trkpt><trkpt lat="43.9646884" lon="11.2690918"><ele>369.4</ele><time>2026-04-11T13:37:46.09Z</time></trkpt><trkpt lat="43.9647221" lon="11.2692262"><ele>369.6</ele><time>2026-04-11T13:37:47.089Z</time></trkpt><trkpt lat="43.9647422" lon="11.269344"><ele>369.8</ele><time>2026-04-11T13:37:48.09Z</time></trkpt><trkpt lat="43.9647465" lon="11.2694558"><ele>370.0</ele><time>2026-04-11T13:37:49.089Z</time></trkpt><trkpt lat="43.96473" lon="11.2695695"><ele>370.0</ele><time>2026-04-11T13:37:50.089Z</time></trkpt><trkpt lat="43.9647152" lon="11.2696978"><ele>370.0</ele><time>2026-04-11T13:37:51.089Z</time></trkpt><trkpt lat="43.9647079" lon="11.2698386"><ele>370.0</ele><time>2026-04-11T13:37:52.09Z</time></trkpt><trkpt lat="43.9647106" lon="11.2699632"><ele>370.0</ele><time>2026-04-11T13:37:53.089Z</time></trkpt><trkpt lat="43.9647235" lon="11.2700736"><ele>370.0</ele><time>2026-04-11T13:37:54.09Z</time></trkpt><trkpt lat="43.964754" lon="11.2701992"><ele>370.2</ele><time>2026-04-11T13:37:55.089Z</time></trkpt><trkpt lat="43.964795" lon="11.2703233"><ele>370.4</ele><time>2026-04-11T13:37:56.09Z</time></trkpt><trkpt lat="43.9648509" lon="11.2704504"><ele>370.6</ele><time>2026-04-11T13:37:57.089Z</time></trkpt><trkpt lat="43.9649128" lon="11.2705677"><ele>370.8</ele><time>2026-04-11T13:37:58.09Z</time></trkpt><trkpt lat="43.9649781" lon="11.2706707"><ele>371.0</ele><time>2026-04-11T13:37:59.09Z</time></trkpt><trkpt lat="43.9650382" lon="11.2707576"><ele>371.0</ele><time>2026-04-11T13:38:00.09Z</time></trkpt><trkpt lat="43.9650865" lon="11.2708254"><ele>371.0</ele><time>2026-04-11T13:38:01.089Z</time></trkpt><trkpt lat="43.9651346" lon="11.2709251"><ele>371.0</ele><time>2026-04-11T13:38:03.089Z</time></trkpt><trkpt lat="43.9651137" lon="11.2710197"><ele>371.0</ele><time>2026-04-11T13:38:05.09Z</time></trkpt><trkpt lat="43.9650486" lon="11.271182"><ele>371.0</ele><time>2026-04-11T13:38:07.089Z</time></trkpt><trkpt lat="43.965008" lon="11.2712964"><ele>373.0</ele><time>2026-04-11T13:38:08.09Z</time></trkpt><trkpt lat="43.9649662" lon="11.2714102"><ele>375.0</ele><time>2026-04-11T13:38:09.09Z</time></trkpt><trkpt lat="43.9649208" lon="11.2715269"><ele>377.0</ele><time>2026-04-11T13:38:10.09Z</time></trkpt><trkpt lat="43.9648737" lon="11.2716416"><ele>379.0</ele><time>2026-04-11T13:38:11.089Z</time></trkpt><trkpt lat="43.9648266" lon="11.2717503"><ele>381.0</ele><time>2026-04-11T13:38:12.09Z</time></trkpt><trkpt lat="43.9647825" lon="11.271849"><ele>381.0</ele><time>2026-04-11T13:38:13.089Z</time></trkpt><trkpt lat="43.964737" lon="11.2719383"><ele>381.0</ele><time>2026-04-11T13:38:14.09Z</time></trkpt><trkpt lat="43.9646821" lon="11.272036"><ele>381.0</ele><time>2026-04-11T13:38:15.089Z</time></trkpt><trkpt lat="43.9646536" lon="11.2721452"><ele>381.0</ele><time>2026-04-11T13:38:16.089Z</time></trkpt><trkpt lat="43.9646241" lon="11.2722622"><ele>381.0</ele><time>2026-04-11T13:38:17.089Z</time></trkpt><trkpt lat="43.964597" lon="11.2724013"><ele>381.0</ele><time>2026-04-11T13:38:18.09Z</time></trkpt><trkpt lat="43.9645725" lon="11.2725401"><ele>380.20000000000005</ele><time>2026-04-11T13:38:19.09Z</time></trkpt><trkpt lat="43.9645553" lon="11.2726737"><ele>379.40000000000003</ele><time>2026-04-11T13:38:20.089Z</time></trkpt><trkpt lat="43.9645338" lon="11.2728075"><ele>378.6</ele><time>2026-04-11T13:38:21.09Z</time></trkpt><trkpt lat="43.9645134" lon="11.2729421"><ele>377.8</ele><time>2026-04-11T13:38:22.09Z</time></trkpt><trkpt lat="43.9644866" lon="11.2730815"><ele>377.0</ele><time>2026-04-11T13:38:23.09Z</time></trkpt><trkpt lat="43.9644487" lon="11.2732203"><ele>375.8</ele><time>2026-04-11T13:38:24.089Z</time></trkpt><trkpt lat="43.9644015" lon="11.2733398"><ele>374.6</ele><time>2026-04-11T13:38:25.089Z</time></trkpt><trkpt lat="43.9643428" lon="11.2734585"><ele>373.40000000000003</ele><time>2026-04-11T13:38:26.089Z</time></trkpt><trkpt lat="43.9642727" lon="11.2735712"><ele>372.20000000000005</ele><time>2026-04-11T13:38:27.089Z</time></trkpt><trkpt lat="43.9641882" lon="11.2736798"><ele>371.0</ele><time>2026-04-11T13:38:28.09Z</time></trkpt><trkpt lat="43.9640944" lon="11.2737647"><ele>377.0</ele><time>2026-04-11T13:38:29.09Z</time></trkpt><trkpt lat="43.964004" lon="11.2738169"><ele>383.0</ele><time>2026-04-11T13:38:30.089Z</time></trkpt><trkpt lat="43.9639121" lon="11.2738419"><ele>389.0</ele><time>2026-04-11T13:38:31.09Z</time></trkpt><trkpt lat="43.9638098" lon="11.2738602"><ele>395.0</ele><time>2026-04-11T13:38:32.089Z</time></trkpt><trkpt lat="43.9637026" lon="11.2738525"><ele>401.0</ele><time>2026-04-11T13:38:33.089Z</time></trkpt><trkpt lat="43.9635941" lon="11.2738487"><ele>401.0</ele><time>2026-04-11T13:38:34.089Z</time></trkpt><trkpt lat="43.9634758" lon="11.273829"><ele>401.0</ele><time>2026-04-11T13:38:35.089Z</time></trkpt><trkpt lat="43.963378" lon="11.2738078"><ele>401.0</ele><time>2026-04-11T13:38:36.09Z</time></trkpt><trkpt lat="43.9632607" lon="11.2738002"><ele>401.0</ele><time>2026-04-11T13:38:37.089Z</time></trkpt><trkpt lat="43.9631558" lon="11.2738005"><ele>401.0</ele><time>2026-04-11T13:38:38.09Z</time></trkpt><trkpt lat="43.9630563" lon="11.2738089"><ele>401.16666666666663</ele><time>2026-04-11T13:38:39.09Z</time></trkpt><trkpt lat="43.9629581" lon="11.2738069"><ele>401.3333333333333</ele><time>2026-04-11T13:38:40.089Z</time></trkpt><trkpt lat="43.9628798" lon="11.273805"><ele>401.5</ele><time>2026-04-11T13:38:41.089Z</time></trkpt><trkpt lat="43.9628154" lon="11.2738633"><ele>401.66666666666663</ele><time>2026-04-11T13:38:42.089Z</time></trkpt><trkpt lat="43.9627431" lon="11.2739253"><ele>401.8333333333333</ele><time>2026-04-11T13:38:43.089Z</time></trkpt><trkpt lat="43.9626838" lon="11.2739881"><ele>402.0</ele><time>2026-04-11T13:38:44.089Z</time></trkpt><trkpt lat="43.9626354" lon="11.2740657"><ele>402.0</ele><time>2026-04-11T13:38:45.09Z</time></trkpt><trkpt lat="43.9625904" lon="11.2741789"><ele>402.0</ele><time>2026-04-11T13:38:46.09Z</time></trkpt><trkpt lat="43.9625308" lon="11.274293"><ele>402.0</ele><time>2026-04-11T13:38:47.09Z</time></trkpt><trkpt lat="43.9624624" lon="11.2744047"><ele>402.0</ele><time>2026-04-11T13:38:48.09Z</time></trkpt><trkpt lat="43.9623971" lon="11.2745269"><ele>402.0</ele><time>2026-04-11T13:38:49.09Z</time></trkpt><trkpt lat="43.9623295" lon="11.2746321"><ele>404.0</ele><time>2026-04-11T13:38:50.09Z</time></trkpt><trkpt lat="43.9622586" lon="11.2747391"><ele>406.0</ele><time>2026-04-11T13:38:51.09Z</time></trkpt><trkpt lat="43.9621849" lon="11.2748464"><ele>408.0</ele><time>2026-04-11T13:38:52.09Z</time></trkpt><trkpt lat="43.9621088" lon="11.2749504"><ele>410.0</ele><time>2026-04-11T13:38:53.09Z</time></trkpt><trkpt lat="43.9620289" lon="11.2750526"><ele>412.0</ele><time>2026-04-11T13:38:54.089Z</time></trkpt><trkpt lat="43.9619603" lon="11.2751536"><ele>412.0</ele><time>2026-04-11T13:38:55.089Z</time></trkpt><trkpt lat="43.9618902" lon="11.2752523"><ele>412.0</ele><time>2026-04-11T13:38:56.09Z</time></trkpt><trkpt lat="43.9618169" lon="11.2753468"><ele>412.0</ele><time>2026-04-11T13:38:57.09Z</time></trkpt><trkpt lat="43.9617437" lon="11.2754298"><ele>412.0</ele><time>2026-04-11T13:38:58.09Z</time></trkpt><trkpt lat="43.961663" lon="11.2755053"><ele>412.0</ele><time>2026-04-11T13:38:59.09Z</time></trkpt><trkpt lat="43.9615803" lon="11.2755628"><ele>413.8</ele><time>2026-04-11T13:39:00.09Z</time></trkpt><trkpt lat="43.9614881" lon="11.2756091"><ele>415.6</ele><time>2026-04-11T13:39:01.09Z</time></trkpt><trkpt lat="43.961387" lon="11.2756245"><ele>417.40000000000003</ele><time>2026-04-11T13:39:02.09Z</time></trkpt><trkpt lat="43.961281" lon="11.275624"><ele>419.20000000000005</ele><time>2026-04-11T13:39:03.089Z</time></trkpt><trkpt lat="43.9611806" lon="11.2756232"><ele>421.0</ele><time>2026-04-11T13:39:04.089Z</time></trkpt><trkpt lat="43.9610865" lon="11.2756441"><ele>421.00000000000006</ele><time>2026-04-11T13:39:05.09Z</time></trkpt><trkpt lat="43.9609996" lon="11.2756831"><ele>421.0</ele><time>2026-04-11T13:39:06.09Z</time></trkpt><trkpt lat="43.9609183" lon="11.2757242"><ele>421.0</ele><time>2026-04-11T13:39:07.09Z</time></trkpt><trkpt lat="43.9608488" lon="11.2757633"><ele>421.0</ele><time>2026-04-11T13:39:08.09Z</time></trkpt><trkpt lat="43.9607693" lon="11.2758233"><ele>421.00000000000006</ele><time>2026-04-11T13:39:10.09Z</time></trkpt><trkpt lat="43.9607122" lon="11.2759315"><ele>421.0</ele><time>2026-04-11T13:41:45.089Z</time></trkpt><trkpt lat="43.960668" lon="11.2760124"><ele>424.4</ele><time>2026-04-11T13:41:48.088Z</time></trkpt><trkpt lat="43.9605856" lon="11.2760879"><ele>427.8</ele><time>2026-04-11T13:41:58.089Z</time></trkpt><trkpt lat="43.960504" lon="11.2761857"><ele>431.19999999999993</ele><time>2026-04-11T13:42:00.088Z</time></trkpt><trkpt lat="43.9604183" lon="11.2762705"><ele>434.59999999999997</ele><time>2026-04-11T13:42:02.089Z</time></trkpt><trkpt lat="43.9603265" lon="11.2763316"><ele>438.0</ele><time>2026-04-11T13:42:04.089Z</time></trkpt><trkpt lat="43.9602546" lon="11.2763357"><ele>438.0</ele><time>2026-04-11T13:42:06.088Z</time></trkpt><trkpt lat="43.9601891" lon="11.2763151"><ele>437.99999999999994</ele><time>2026-04-11T13:42:08.089Z</time></trkpt><trkpt lat="43.9601139" lon="11.2762617"><ele>437.99999999999994</ele><time>2026-04-11T13:42:10.088Z</time></trkpt><trkpt lat="43.9600349" lon="11.2761601"><ele>438.0</ele><time>2026-04-11T13:42:12.101Z</time></trkpt><trkpt lat="43.9599528" lon="11.2760419"><ele>438.0</ele><time>2026-04-11T13:42:14.098Z</time></trkpt><trkpt lat="43.9598936" lon="11.275938"><ele>438.6666666666667</ele><time>2026-04-11T13:42:16.098Z</time></trkpt><trkpt lat="43.9598434" lon="11.2758382"><ele>439.33333333333337</ele><time>2026-04-11T13:42:18.101Z</time></trkpt><trkpt lat="43.9598019" lon="11.2757683"><ele>440.0</ele><time>2026-04-11T13:42:20.1Z</time></trkpt><trkpt lat="43.9597567" lon="11.2757042"><ele>440.6666666666667</ele><time>2026-04-11T13:42:23.101Z</time></trkpt><trkpt lat="43.9596838" lon="11.2756119"><ele>441.33333333333337</ele><time>2026-04-11T13:42:26.101Z</time></trkpt><trkpt lat="43.9596134" lon="11.2755457"><ele>442.0</ele><time>2026-04-11T13:42:28.101Z</time></trkpt><trkpt lat="43.959524" lon="11.2754851"><ele>443.50000000000006</ele><time>2026-04-11T13:42:30.101Z</time></trkpt><trkpt lat="43.9594046" lon="11.275404"><ele>445.0</ele><time>2026-04-11T13:42:32.101Z</time></trkpt><trkpt lat="43.9593358" lon="11.2753547"><ele>446.5</ele><time>2026-04-11T13:42:33.101Z</time></trkpt><trkpt lat="43.9592749" lon="11.2753151"><ele>448.0</ele><time>2026-04-11T13:42:34.101Z</time></trkpt><trkpt lat="43.9592059" lon="11.2752798"><ele>449.50000000000006</ele><time>2026-04-11T13:42:35.101Z</time></trkpt><trkpt lat="43.9591392" lon="11.2752563"><ele>451.0</ele><time>2026-04-11T13:42:36.101Z</time></trkpt><trkpt lat="43.9590592" lon="11.2752414"><ele>451.00000000000006</ele><time>2026-04-11T13:42:37.101Z</time></trkpt><trkpt lat="43.9589743" lon="11.2752292"><ele>451.0</ele><time>2026-04-11T13:42:38.101Z</time></trkpt><trkpt lat="43.958899" lon="11.2752222"><ele>451.0</ele><time>2026-04-11T13:42:39.101Z</time></trkpt><trkpt lat="43.9588261" lon="11.2752159"><ele>451.0</ele><time>2026-04-11T13:42:40.101Z</time></trkpt><trkpt lat="43.9587581" lon="11.2751952"><ele>451.00000000000006</ele><time>2026-04-11T13:42:41.101Z</time></trkpt><trkpt lat="43.9586541" lon="11.2751269"><ele>451.0</ele><time>2026-04-11T13:42:43.101Z</time></trkpt><trkpt lat="43.9586163" lon="11.2750549"><ele>451.0</ele><time>2026-04-11T13:42:44.101Z</time></trkpt><trkpt lat="43.9585429" lon="11.2749283"><ele>451.0</ele><time>2026-04-11T13:42:46.101Z</time></trkpt><trkpt lat="43.9584715" lon="11.274806"><ele>451.0</ele><time>2026-04-11T13:42:48.101Z</time></trkpt><trkpt lat="43.958422" lon="11.2747506"><ele>451.0</ele><time>2026-04-11T13:42:49.101Z</time></trkpt><trkpt lat="43.9583285" lon="11.2746412"><ele>451.0</ele><time>2026-04-11T13:42:51.101Z</time></trkpt><trkpt lat="43.9582246" lon="11.274574"><ele>453.4</ele><time>2026-04-11T13:42:53.101Z</time></trkpt><trkpt lat="43.9581388" lon="11.2745277"><ele>455.8</ele><time>2026-04-11T13:42:55.101Z</time></trkpt><trkpt lat="43.958049" lon="11.2744874"><ele>458.19999999999993</ele><time>2026-04-11T13:42:57.101Z</time></trkpt><trkpt lat="43.9579259" lon="11.2744159"><ele>460.59999999999997</ele><time>2026-04-11T13:42:59.101Z</time></trkpt><trkpt lat="43.9578606" lon="11.2743577"><ele>463.0</ele><time>2026-04-11T13:43:01.101Z</time></trkpt><trkpt lat="43.9577932" lon="11.2743028"><ele>463.00000000000006</ele><time>2026-04-11T13:43:03.101Z</time></trkpt><trkpt lat="43.9576993" lon="11.274256"><ele>463.0</ele><time>2026-04-11T13:43:05.101Z</time></trkpt><trkpt lat="43.9575897" lon="11.2741614"><ele>463.0</ele><time>2026-04-11T13:43:07.101Z</time></trkpt><trkpt lat="43.9575242" lon="11.2741216"><ele>463.0</ele><time>2026-04-11T13:43:08.101Z</time></trkpt><trkpt lat="43.9574561" lon="11.2740749"><ele>463.00000000000006</ele><time>2026-04-11T13:43:09.101Z</time></trkpt><trkpt lat="43.9574042" lon="11.2740198"><ele>463.0</ele><time>2026-04-11T13:43:10.101Z</time></trkpt><trkpt lat="43.9573437" lon="11.2739689"><ele>464.2</ele><time>2026-04-11T13:43:11.101Z</time></trkpt><trkpt lat="43.9572843" lon="11.2739142"><ele>465.4</ele><time>2026-04-11T13:43:12.101Z</time></trkpt><trkpt lat="43.9572165" lon="11.2738093"><ele>466.59999999999997</ele><time>2026-04-11T13:43:14.101Z</time></trkpt><trkpt lat="43.9571677" lon="11.2736458"><ele>467.79999999999995</ele><time>2026-04-11T13:43:16.1Z</time></trkpt><trkpt lat="43.9571408" lon="11.2735538"><ele>469.0</ele><time>2026-04-11T13:43:17.101Z</time></trkpt><trkpt lat="43.9570889" lon="11.2734448"><ele>469.0</ele><time>2026-04-11T13:43:18.1Z</time></trkpt><trkpt lat="43.9570579" lon="11.2733601"><ele>469.0</ele><time>2026-04-11T13:43:19.101Z</time></trkpt><trkpt lat="43.9570342" lon="11.2732619"><ele>469.0</ele><time>2026-04-11T13:43:20.101Z</time></trkpt><trkpt lat="43.9570006" lon="11.273159"><ele>469.0</ele><time>2026-04-11T13:43:21.101Z</time></trkpt><trkpt lat="43.956982" lon="11.2730706"><ele>469.0</ele><time>2026-04-11T13:43:22.101Z</time></trkpt><trkpt lat="43.9569685" lon="11.2729743"><ele>469.0</ele><time>2026-04-11T13:43:23.101Z</time></trkpt><trkpt lat="43.9569617" lon="11.2728851"><ele>469.0</ele><time>2026-04-11T13:43:24.101Z</time></trkpt><trkpt lat="43.9569515" lon="11.2727887"><ele>469.1666666666667</ele><time>2026-04-11T13:43:25.101Z</time></trkpt><trkpt lat="43.9569284" lon="11.2726321"><ele>469.33333333333337</ele><time>2026-04-11T13:43:27.101Z</time></trkpt><trkpt lat="43.9568622" lon="11.2725851"><ele>469.5</ele><time>2026-04-11T13:43:29.101Z</time></trkpt><trkpt lat="43.9568109" lon="11.2726654"><ele>469.66666666666663</ele><time>2026-04-11T13:43:32.101Z</time></trkpt><trkpt lat="43.956746" lon="11.2726963"><ele>469.8333333333333</ele><time>2026-04-11T13:43:36.101Z</time></trkpt><trkpt lat="43.9566778" lon="11.2726489"><ele>470.0</ele><time>2026-04-11T13:43:40.101Z</time></trkpt><trkpt lat="43.9565873" lon="11.2726991"><ele>469.99999999999994</ele><time>2026-04-11T13:43:43.101Z</time></trkpt><trkpt lat="43.9564971" lon="11.2727166"><ele>470.0</ele><time>2026-04-11T13:43:45.089Z</time></trkpt><trkpt lat="43.9564303" lon="11.2727795"><ele>470.0</ele><time>2026-04-11T13:43:47.088Z</time></trkpt><trkpt lat="43.9563666" lon="11.2728359"><ele>470.0</ele><time>2026-04-11T13:43:49.088Z</time></trkpt><trkpt lat="43.956288" lon="11.2728359"><ele>469.99999999999994</ele><time>2026-04-11T13:43:51.088Z</time></trkpt><trkpt lat="43.9562112" lon="11.2728396"><ele>470.0</ele><time>2026-04-11T13:43:53.089Z</time></trkpt><trkpt lat="43.9561438" lon="11.2729314"><ele>470.0</ele><time>2026-04-11T13:43:56.088Z</time></trkpt><trkpt lat="43.9560775" lon="11.2730109"><ele>470.0</ele><time>2026-04-11T13:43:59.089Z</time></trkpt><trkpt lat="43.9559847" lon="11.2729961"><ele>470.0</ele><time>2026-04-11T13:44:02.089Z</time></trkpt><trkpt lat="43.9559245" lon="11.2728927"><ele>470.0</ele><time>2026-04-11T13:44:04.089Z</time></trkpt><trkpt lat="43.9558655" lon="11.2727749"><ele>470.0</ele><time>2026-04-11T13:44:06.089Z</time></trkpt><trkpt lat="43.9558048" lon="11.272691"><ele>470.49999999999994</ele><time>2026-04-11T13:44:08.087Z</time></trkpt><trkpt lat="43.9557474" lon="11.2726094"><ele>471.0</ele><time>2026-04-11T13:44:10.088Z</time></trkpt><trkpt lat="43.9556743" lon="11.272546"><ele>471.5</ele><time>2026-04-11T13:44:12.088Z</time></trkpt><trkpt lat="43.955603" lon="11.2724817"><ele>472.0</ele><time>2026-04-11T13:44:14.088Z</time></trkpt><trkpt lat="43.9555357" lon="11.2724022"><ele>472.49999999999994</ele><time>2026-04-11T13:44:16.088Z</time></trkpt><trkpt lat="43.9554372" lon="11.2723593"><ele>473.0</ele><time>2026-04-11T13:44:18.089Z</time></trkpt><trkpt lat="43.9553229" lon="11.2723225"><ele>473.0</ele><time>2026-04-11T13:44:20.088Z</time></trkpt><trkpt lat="43.9552133" lon="11.2723256"><ele>472.99999999999994</ele><time>2026-04-11T13:44:22.088Z</time></trkpt><trkpt lat="43.9551092" lon="11.2723457"><ele>472.99999999999994</ele><time>2026-04-11T13:44:24.088Z</time></trkpt><trkpt lat="43.9550365" lon="11.2724465"><ele>473.0</ele><time>2026-04-11T13:44:26.087Z</time></trkpt><trkpt lat="43.9549937" lon="11.2725826"><ele>473.0</ele><time>2026-04-11T13:44:28.087Z</time></trkpt><trkpt lat="43.9549751" lon="11.2727566"><ele>472.79999999999995</ele><time>2026-04-11T13:44:30.087Z</time></trkpt><trkpt lat="43.9549667" lon="11.2729379"><ele>472.59999999999997</ele><time>2026-04-11T13:44:32.087Z</time></trkpt><trkpt lat="43.9549505" lon="11.2730372"><ele>472.40000000000003</ele><time>2026-04-11T13:44:33.087Z</time></trkpt><trkpt lat="43.9549355" lon="11.2731244"><ele>472.20000000000005</ele><time>2026-04-11T13:44:34.087Z</time></trkpt><trkpt lat="43.9548617" lon="11.2732202"><ele>472.0</ele><time>2026-04-11T13:44:36.088Z</time></trkpt><trkpt lat="43.9547606" lon="11.2732721"><ele>470.1666666666667</ele><time>2026-04-11T13:44:38.087Z</time></trkpt><trkpt lat="43.9546801" lon="11.2732823"><ele>468.33333333333337</ele><time>2026-04-11T13:44:39.088Z</time></trkpt><trkpt lat="43.9545989" lon="11.2732949"><ele>466.5</ele><time>2026-04-11T13:44:40.088Z</time></trkpt><trkpt lat="43.9545098" lon="11.2733333"><ele>464.66666666666663</ele><time>2026-04-11T13:44:41.088Z</time></trkpt><trkpt lat="43.954427" lon="11.2733775"><ele>462.8333333333333</ele><time>2026-04-11T13:44:42.087Z</time></trkpt><trkpt lat="43.9543487" lon="11.2734299"><ele>461.0</ele><time>2026-04-11T13:44:43.088Z</time></trkpt><trkpt lat="43.9542694" lon="11.2734966"><ele>459.8333333333333</ele><time>2026-04-11T13:44:44.088Z</time></trkpt><trkpt lat="43.9541957" lon="11.2735661"><ele>458.66666666666663</ele><time>2026-04-11T13:44:45.088Z</time></trkpt><trkpt lat="43.9541323" lon="11.2736455"><ele>457.5</ele><time>2026-04-11T13:44:46.087Z</time></trkpt><trkpt lat="43.9540744" lon="11.2737259"><ele>456.33333333333337</ele><time>2026-04-11T13:44:47.086Z</time></trkpt><trkpt lat="43.9540197" lon="11.2738146"><ele>455.1666666666667</ele><time>2026-04-11T13:44:48.088Z</time></trkpt><trkpt lat="43.9539693" lon="11.2738802"><ele>454.0</ele><time>2026-04-11T13:44:49.088Z</time></trkpt><trkpt lat="43.9538771" lon="11.2740005"><ele>454.00000000000006</ele><time>2026-04-11T13:44:51.087Z</time></trkpt><trkpt lat="43.9537855" lon="11.2741094"><ele>454.0</ele><time>2026-04-11T13:44:53.087Z</time></trkpt><trkpt lat="43.9537315" lon="11.2741612"><ele>454.0</ele><time>2026-04-11T13:44:54.086Z</time></trkpt><trkpt lat="43.9536703" lon="11.2742204"><ele>454.0</ele><time>2026-04-11T13:44:56.088Z</time></trkpt><trkpt lat="43.9536457" lon="11.2743374"><ele>454.00000000000006</ele><time>2026-04-11T13:45:57.088Z</time></trkpt><trkpt lat="43.95365" lon="11.2744521"><ele>454.0</ele><time>2026-04-11T13:45:59.086Z</time></trkpt><trkpt lat="43.9536585" lon="11.274569"><ele>454.0</ele><time>2026-04-11T13:46:01.087Z</time></trkpt><trkpt lat="43.9536812" lon="11.2747007"><ele>454.0</ele><time>2026-04-11T13:46:03.088Z</time></trkpt><trkpt lat="43.9536996" lon="11.2748388"><ele>454.0</ele><time>2026-04-11T13:46:05.088Z</time></trkpt><trkpt lat="43.9537217" lon="11.2750271"><ele>454.0</ele><time>2026-04-11T13:46:07.087Z</time></trkpt><trkpt lat="43.9537347" lon="11.2751159"><ele>454.0</ele><time>2026-04-11T13:46:08.088Z</time></trkpt><trkpt lat="43.9537453" lon="11.2752061"><ele>452.0</ele><time>2026-04-11T13:46:09.087Z</time></trkpt><trkpt lat="43.9537525" lon="11.275379"><ele>450.0</ele><time>2026-04-11T13:46:11.088Z</time></trkpt><trkpt lat="43.9537402" lon="11.2754692"><ele>448.0</ele><time>2026-04-11T13:46:12.088Z</time></trkpt><trkpt lat="43.9537179" lon="11.275559"><ele>446.0</ele><time>2026-04-11T13:46:13.088Z</time></trkpt><trkpt lat="43.9536693" lon="11.2757216"><ele>444.0</ele><time>2026-04-11T13:46:15.087Z</time></trkpt><trkpt lat="43.9536415" lon="11.2758065"><ele>443.1666666666667</ele><time>2026-04-11T13:46:16.087Z</time></trkpt><trkpt lat="43.9536063" lon="11.2758815"><ele>442.33333333333337</ele><time>2026-04-11T13:46:17.088Z</time></trkpt><trkpt lat="43.9535542" lon="11.2760363"><ele>441.5</ele><time>2026-04-11T13:46:19.088Z</time></trkpt><trkpt lat="43.9535265" lon="11.2761234"><ele>440.6666666666667</ele><time>2026-04-11T13:46:20.087Z</time></trkpt><trkpt lat="43.9534901" lon="11.2762143"><ele>439.83333333333337</ele><time>2026-04-11T13:46:21.088Z</time></trkpt><trkpt lat="43.9534512" lon="11.2763037"><ele>439.0</ele><time>2026-04-11T13:46:22.088Z</time></trkpt><trkpt lat="43.9534134" lon="11.2763883"><ele>440.0</ele><time>2026-04-11T13:46:23.087Z</time></trkpt><trkpt lat="43.9533829" lon="11.2764741"><ele>441.0</ele><time>2026-04-11T13:46:24.086Z</time></trkpt><trkpt lat="43.953349" lon="11.2765614"><ele>442.0</ele><time>2026-04-11T13:46:25.088Z</time></trkpt><trkpt lat="43.9533094" lon="11.2766416"><ele>443.0</ele><time>2026-04-11T13:46:26.088Z</time></trkpt><trkpt lat="43.953265" lon="11.2767327"><ele>444.0</ele><time>2026-04-11T13:46:27.088Z</time></trkpt><trkpt lat="43.953228" lon="11.2768159"><ele>445.0</ele><time>2026-04-11T13:46:28.088Z</time></trkpt><trkpt lat="43.9532028" lon="11.276909"><ele>446.0</ele><time>2026-04-11T13:46:29.088Z</time></trkpt><trkpt lat="43.9531781" lon="11.2770064"><ele>445.99999999999994</ele><time>2026-04-11T13:46:30.087Z</time></trkpt><trkpt lat="43.9531494" lon="11.2770886"><ele>446.0</ele><time>2026-04-11T13:46:31.087Z</time></trkpt><trkpt lat="43.9531091" lon="11.2771683"><ele>446.0</ele><time>2026-04-11T13:46:32.087Z</time></trkpt><trkpt lat="43.9530564" lon="11.2772425"><ele>446.0</ele><time>2026-04-11T13:46:33.087Z</time></trkpt><trkpt lat="43.9529984" lon="11.2773054"><ele>445.99999999999994</ele><time>2026-04-11T13:46:34.088Z</time></trkpt><trkpt lat="43.9529459" lon="11.2773616"><ele>446.0</ele><time>2026-04-11T13:46:35.088Z</time></trkpt><trkpt lat="43.9528985" lon="11.2775131"><ele>443.8</ele><time>2026-04-11T13:46:37.087Z</time></trkpt><trkpt lat="43.9528916" lon="11.2776009"><ele>441.6</ele><time>2026-04-11T13:46:38.087Z</time></trkpt><trkpt lat="43.952892" lon="11.2776923"><ele>439.4</ele><time>2026-04-11T13:46:39.088Z</time></trkpt><trkpt lat="43.9528887" lon="11.2778309"><ele>437.2</ele><time>2026-04-11T13:46:41.088Z</time></trkpt><trkpt lat="43.9528583" lon="11.2779761"><ele>435.0</ele><time>2026-04-11T13:46:43.088Z</time></trkpt><trkpt lat="43.9528208" lon="11.2781311"><ele>433.1666666666667</ele><time>2026-04-11T13:46:45.088Z</time></trkpt><trkpt lat="43.952792" lon="11.2782177"><ele>431.33333333333337</ele><time>2026-04-11T13:46:46.087Z</time></trkpt><trkpt lat="43.9527606" lon="11.2783089"><ele>429.5</ele><time>2026-04-11T13:46:47.087Z</time></trkpt><trkpt lat="43.9527314" lon="11.2784061"><ele>427.6666666666667</ele><time>2026-04-11T13:46:48.087Z</time></trkpt><trkpt lat="43.9527014" lon="11.2785195"><ele>425.83333333333337</ele><time>2026-04-11T13:46:49.088Z</time></trkpt><trkpt lat="43.9526717" lon="11.2786272"><ele>424.0</ele><time>2026-04-11T13:46:50.088Z</time></trkpt><trkpt lat="43.9526404" lon="11.2787314"><ele>424.00000000000006</ele><time>2026-04-11T13:46:51.087Z</time></trkpt><trkpt lat="43.9525996" lon="11.2788291"><ele>424.0</ele><time>2026-04-11T13:46:52.087Z</time></trkpt><trkpt lat="43.952561" lon="11.2789212"><ele>424.0</ele><time>2026-04-11T13:46:53.087Z</time></trkpt><trkpt lat="43.9525291" lon="11.2790015"><ele>424.0</ele><time>2026-04-11T13:46:54.088Z</time></trkpt><trkpt lat="43.9524663" lon="11.2791712"><ele>424.00000000000006</ele><time>2026-04-11T13:46:56.087Z</time></trkpt><trkpt lat="43.9524334" lon="11.2792577"><ele>424.0</ele><time>2026-04-11T13:46:57.087Z</time></trkpt><trkpt lat="43.9524045" lon="11.2793389"><ele>424.5714285714286</ele><time>2026-04-11T13:46:58.087Z</time></trkpt><trkpt lat="43.9523677" lon="11.2794207"><ele>425.1428571428571</ele><time>2026-04-11T13:46:59.088Z</time></trkpt><trkpt lat="43.9523312" lon="11.2794989"><ele>425.7142857142857</ele><time>2026-04-11T13:47:00.088Z</time></trkpt><trkpt lat="43.9522972" lon="11.2795782"><ele>426.28571428571433</ele><time>2026-04-11T13:47:01.087Z</time></trkpt><trkpt lat="43.9522721" lon="11.279664"><ele>426.8571428571429</ele><time>2026-04-11T13:47:02.086Z</time></trkpt><trkpt lat="43.9522587" lon="11.2797532"><ele>427.42857142857144</ele><time>2026-04-11T13:47:03.087Z</time></trkpt><trkpt lat="43.9522606" lon="11.2798566"><ele>428.0</ele><time>2026-04-11T13:47:04.088Z</time></trkpt><trkpt lat="43.9522686" lon="11.2799483"><ele>428.66666666666663</ele><time>2026-04-11T13:47:05.088Z</time></trkpt><trkpt lat="43.9523024" lon="11.2801125"><ele>429.3333333333333</ele><time>2026-04-11T13:47:07.088Z</time></trkpt><trkpt lat="43.9523254" lon="11.280206"><ele>430.0</ele><time>2026-04-11T13:47:08.088Z</time></trkpt><trkpt lat="43.9523475" lon="11.2802957"><ele>430.66666666666663</ele><time>2026-04-11T13:47:09.086Z</time></trkpt><trkpt lat="43.9523718" lon="11.2803977"><ele>431.3333333333333</ele><time>2026-04-11T13:47:10.087Z</time></trkpt><trkpt lat="43.9524195" lon="11.2804774"><ele>432.0</ele><time>2026-04-11T13:47:11.088Z</time></trkpt><trkpt lat="43.952444" lon="11.2805792"><ele>433.8</ele><time>2026-04-11T13:47:12.088Z</time></trkpt><trkpt lat="43.9524807" lon="11.2806795"><ele>435.6</ele><time>2026-04-11T13:47:13.088Z</time></trkpt><trkpt lat="43.9525174" lon="11.2807805"><ele>437.40000000000003</ele><time>2026-04-11T13:47:14.088Z</time></trkpt><trkpt lat="43.9525578" lon="11.280884"><ele>439.20000000000005</ele><time>2026-04-11T13:47:15.087Z</time></trkpt><trkpt lat="43.9525627" lon="11.2810616"><ele>441.0</ele><time>2026-04-11T13:47:17.088Z</time></trkpt><trkpt lat="43.9525426" lon="11.2811692"><ele>441.0</ele><time>2026-04-11T13:47:18.088Z</time></trkpt><trkpt lat="43.952523" lon="11.2812856"><ele>441.0</ele><time>2026-04-11T13:47:19.088Z</time></trkpt><trkpt lat="43.9524982" lon="11.281406"><ele>441.0</ele><time>2026-04-11T13:47:20.088Z</time></trkpt><trkpt lat="43.9524669" lon="11.2815561"><ele>441.0</ele><time>2026-04-11T13:47:21.088Z</time></trkpt><trkpt lat="43.9524428" lon="11.2816735"><ele>441.0</ele><time>2026-04-11T13:47:22.087Z</time></trkpt><trkpt lat="43.9524088" lon="11.2817919"><ele>441.0</ele><time>2026-04-11T13:47:23.087Z</time></trkpt><trkpt lat="43.9523756" lon="11.2818951"><ele>441.0</ele><time>2026-04-11T13:47:24.087Z</time></trkpt><trkpt lat="43.9523348" lon="11.2820068"><ele>441.0</ele><time>2026-04-11T13:47:25.088Z</time></trkpt><trkpt lat="43.9522984" lon="11.2820947"><ele>441.0</ele><time>2026-04-11T13:47:26.088Z</time></trkpt><trkpt lat="43.9522519" lon="11.2822112"><ele>441.0</ele><time>2026-04-11T13:47:27.088Z</time></trkpt><trkpt lat="43.9522024" lon="11.2823071"><ele>441.0</ele><time>2026-04-11T13:47:28.088Z</time></trkpt><trkpt lat="43.9521537" lon="11.2824098"><ele>440.6</ele><time>2026-04-11T13:47:29.088Z</time></trkpt><trkpt lat="43.9520928" lon="11.2824998"><ele>440.20000000000005</ele><time>2026-04-11T13:47:30.087Z</time></trkpt><trkpt lat="43.9520396" lon="11.2826022"><ele>439.79999999999995</ele><time>2026-04-11T13:47:31.087Z</time></trkpt><trkpt lat="43.9519827" lon="11.2827006"><ele>439.4</ele><time>2026-04-11T13:47:32.088Z</time></trkpt><trkpt lat="43.9519287" lon="11.2828116"><ele>439.0</ele><time>2026-04-11T13:47:33.088Z</time></trkpt><trkpt lat="43.9518782" lon="11.2829222"><ele>439.0</ele><time>2026-04-11T13:47:34.088Z</time></trkpt><trkpt lat="43.9518344" lon="11.2830446"><ele>439.0</ele><time>2026-04-11T13:47:35.088Z</time></trkpt><trkpt lat="43.9517965" lon="11.2831787"><ele>439.0</ele><time>2026-04-11T13:47:36.088Z</time></trkpt><trkpt lat="43.951765" lon="11.283321"><ele>439.0</ele><time>2026-04-11T13:47:37.087Z</time></trkpt><trkpt lat="43.951744" lon="11.28346"><ele>439.0</ele><time>2026-04-11T13:47:38.088Z</time></trkpt><trkpt lat="43.9517278" lon="11.2835904"><ele>438.2</ele><time>2026-04-11T13:47:39.088Z</time></trkpt><trkpt lat="43.9517288" lon="11.2837279"><ele>437.4</ele><time>2026-04-11T13:47:40.087Z</time></trkpt><trkpt lat="43.9517431" lon="11.2838522"><ele>436.6</ele><time>2026-04-11T13:47:41.088Z</time></trkpt><trkpt lat="43.9517757" lon="11.2839746"><ele>435.8</ele><time>2026-04-11T13:47:42.088Z</time></trkpt><trkpt lat="43.9518154" lon="11.2841027"><ele>435.0</ele><time>2026-04-11T13:47:43.088Z</time></trkpt><trkpt lat="43.9518643" lon="11.2842429"><ele>434.6</ele><time>2026-04-11T13:47:44.087Z</time></trkpt><trkpt lat="43.9519162" lon="11.2843736"><ele>434.2</ele><time>2026-04-11T13:47:45.088Z</time></trkpt><trkpt lat="43.9519769" lon="11.2845058"><ele>433.79999999999995</ele><time>2026-04-11T13:47:46.087Z</time></trkpt><trkpt lat="43.952032" lon="11.2846318"><ele>433.4</ele><time>2026-04-11T13:47:47.087Z</time></trkpt><trkpt lat="43.9520865" lon="11.2847515"><ele>433.0</ele><time>2026-04-11T13:47:48.088Z</time></trkpt><trkpt lat="43.9521382" lon="11.2848679"><ele>433.00000000000006</ele><time>2026-04-11T13:47:49.088Z</time></trkpt><trkpt lat="43.9521893" lon="11.2849769"><ele>433.0</ele><time>2026-04-11T13:47:50.087Z</time></trkpt><trkpt lat="43.9522398" lon="11.2850849"><ele>433.0</ele><time>2026-04-11T13:47:51.088Z</time></trkpt><trkpt lat="43.9522908" lon="11.2851862"><ele>433.0</ele><time>2026-04-11T13:47:52.088Z</time></trkpt><trkpt lat="43.9523345" lon="11.2852734"><ele>433.00000000000006</ele><time>2026-04-11T13:47:53.088Z</time></trkpt><trkpt lat="43.9523646" lon="11.2853509"><ele>433.0</ele><time>2026-04-11T13:47:54.088Z</time></trkpt><trkpt lat="43.9523903" lon="11.2854349"><ele>433.0</ele><time>2026-04-11T13:47:55.088Z</time></trkpt><trkpt lat="43.9524026" lon="11.2855435"><ele>432.99999999999994</ele><time>2026-04-11T13:47:56.087Z</time></trkpt><trkpt lat="43.9524119" lon="11.285656"><ele>432.99999999999994</ele><time>2026-04-11T13:47:57.088Z</time></trkpt><trkpt lat="43.9524319" lon="11.2857883"><ele>433.0</ele><time>2026-04-11T13:47:58.088Z</time></trkpt><trkpt lat="43.9524438" lon="11.285925"><ele>433.0</ele><time>2026-04-11T13:47:59.088Z</time></trkpt><trkpt lat="43.9524592" lon="11.2860693"><ele>433.59999999999997</ele><time>2026-04-11T13:48:00.088Z</time></trkpt><trkpt lat="43.9524749" lon="11.2862152"><ele>434.19999999999993</ele><time>2026-04-11T13:48:01.088Z</time></trkpt><trkpt lat="43.9524829" lon="11.2863653"><ele>434.8</ele><time>2026-04-11T13:48:02.087Z</time></trkpt><trkpt lat="43.9524829" lon="11.2865156"><ele>435.4</ele><time>2026-04-11T13:48:03.088Z</time></trkpt><trkpt lat="43.9524774" lon="11.2866604"><ele>436.0</ele><time>2026-04-11T13:48:04.088Z</time></trkpt><trkpt lat="43.9524714" lon="11.286793"><ele>436.50000000000006</ele><time>2026-04-11T13:48:05.088Z</time></trkpt><trkpt lat="43.9524816" lon="11.2869015"><ele>437.0</ele><time>2026-04-11T13:48:06.088Z</time></trkpt><trkpt lat="43.9524934" lon="11.2870075"><ele>437.5</ele><time>2026-04-11T13:48:07.087Z</time></trkpt><trkpt lat="43.9525078" lon="11.2871307"><ele>438.0</ele><time>2026-04-11T13:48:08.088Z</time></trkpt><trkpt lat="43.9525268" lon="11.2872486"><ele>438.50000000000006</ele><time>2026-04-11T13:48:09.088Z</time></trkpt><trkpt lat="43.9525421" lon="11.2873708"><ele>439.0</ele><time>2026-04-11T13:48:10.087Z</time></trkpt><trkpt lat="43.9525684" lon="11.2874885"><ele>439.42857142857144</ele><time>2026-04-11T13:48:11.087Z</time></trkpt><trkpt lat="43.952595" lon="11.2875997"><ele>439.85714285714283</ele><time>2026-04-11T13:48:12.087Z</time></trkpt><trkpt lat="43.95262" lon="11.2877076"><ele>440.28571428571433</ele><time>2026-04-11T13:48:13.087Z</time></trkpt><trkpt lat="43.952651" lon="11.2877872"><ele>440.7142857142857</ele><time>2026-04-11T13:48:14.087Z</time></trkpt><trkpt lat="43.9526836" lon="11.2878721"><ele>441.14285714285717</ele><time>2026-04-11T13:48:15.088Z</time></trkpt><trkpt lat="43.9527286" lon="11.2879402"><ele>441.5714285714286</ele><time>2026-04-11T13:48:16.088Z</time></trkpt><trkpt lat="43.9527798" lon="11.287995"><ele>442.0</ele><time>2026-04-11T13:48:17.087Z</time></trkpt><trkpt lat="43.9528396" lon="11.288041"><ele>438.6</ele><time>2026-04-11T13:48:18.087Z</time></trkpt><trkpt lat="43.9529541" lon="11.288107"><ele>435.20000000000005</ele><time>2026-04-11T13:48:20.087Z</time></trkpt><trkpt lat="43.9530176" lon="11.2881268"><ele>431.8</ele><time>2026-04-11T13:48:21.088Z</time></trkpt><trkpt lat="43.9531244" lon="11.2881721"><ele>428.4</ele><time>2026-04-11T13:48:23.087Z</time></trkpt><trkpt lat="43.9532373" lon="11.2882311"><ele>425.0</ele><time>2026-04-11T13:48:25.088Z</time></trkpt><trkpt lat="43.9533025" lon="11.2882909"><ele>424.99999999999994</ele><time>2026-04-11T13:48:26.088Z</time></trkpt><trkpt lat="43.9533627" lon="11.2883535"><ele>425.0</ele><time>2026-04-11T13:48:27.088Z</time></trkpt><trkpt lat="43.9534238" lon="11.2884218"><ele>425.0</ele><time>2026-04-11T13:48:28.087Z</time></trkpt><trkpt lat="43.953483" lon="11.2884898"><ele>425.0</ele><time>2026-04-11T13:48:29.088Z</time></trkpt><trkpt lat="43.9535384" lon="11.2885615"><ele>424.99999999999994</ele><time>2026-04-11T13:48:30.088Z</time></trkpt><trkpt lat="43.9536045" lon="11.2886316"><ele>425.0</ele><time>2026-04-11T13:48:31.087Z</time></trkpt><trkpt lat="43.9536537" lon="11.2887068"><ele>421.3333333333333</ele><time>2026-04-11T13:48:32.087Z</time></trkpt><trkpt lat="43.9537031" lon="11.2887829"><ele>417.66666666666663</ele><time>2026-04-11T13:48:33.088Z</time></trkpt><trkpt lat="43.9537406" lon="11.2888724"><ele>414.0</ele><time>2026-04-11T13:48:34.088Z</time></trkpt><trkpt lat="43.9537831" lon="11.2889718"><ele>410.33333333333337</ele><time>2026-04-11T13:48:35.088Z</time></trkpt><trkpt lat="43.9538214" lon="11.289079"><ele>406.6666666666667</ele><time>2026-04-11T13:48:36.088Z</time></trkpt><trkpt lat="43.9538441" lon="11.2891782"><ele>403.0</ele><time>2026-04-11T13:48:37.087Z</time></trkpt><trkpt lat="43.9538852" lon="11.2892858"><ele>402.83333333333337</ele><time>2026-04-11T13:48:38.087Z</time></trkpt><trkpt lat="43.9539249" lon="11.2893853"><ele>402.6666666666667</ele><time>2026-04-11T13:48:39.088Z</time></trkpt><trkpt lat="43.953971" lon="11.2894865"><ele>402.5</ele><time>2026-04-11T13:48:40.088Z</time></trkpt><trkpt lat="43.954015" lon="11.2895756"><ele>402.33333333333337</ele><time>2026-04-11T13:48:41.088Z</time></trkpt><trkpt lat="43.9540663" lon="11.2896881"><ele>402.1666666666667</ele><time>2026-04-11T13:48:42.088Z</time></trkpt><trkpt lat="43.9540963" lon="11.2897992"><ele>402.0</ele><time>2026-04-11T13:48:43.087Z</time></trkpt><trkpt lat="43.9541188" lon="11.2898965"><ele>401.20000000000005</ele><time>2026-04-11T13:48:44.087Z</time></trkpt><trkpt lat="43.95417" lon="11.2900055"><ele>400.4</ele><time>2026-04-11T13:48:45.088Z</time></trkpt><trkpt lat="43.9542165" lon="11.2901243"><ele>399.6</ele><time>2026-04-11T13:48:46.087Z</time></trkpt><trkpt lat="43.9542561" lon="11.2902494"><ele>398.79999999999995</ele><time>2026-04-11T13:48:47.088Z</time></trkpt><trkpt lat="43.9542955" lon="11.290371"><ele>398.0</ele><time>2026-04-11T13:48:48.088Z</time></trkpt><trkpt lat="43.9543138" lon="11.2905018"><ele>397.79999999999995</ele><time>2026-04-11T13:48:49.088Z</time></trkpt><trkpt lat="43.9543292" lon="11.2906367"><ele>397.6</ele><time>2026-04-11T13:48:50.087Z</time></trkpt><trkpt lat="43.9543361" lon="11.2907836"><ele>397.4</ele><time>2026-04-11T13:48:51.087Z</time></trkpt><trkpt lat="43.9543322" lon="11.2909231"><ele>397.20000000000005</ele><time>2026-04-11T13:48:52.087Z</time></trkpt><trkpt lat="43.9543353" lon="11.2910632"><ele>397.0</ele><time>2026-04-11T13:48:53.088Z</time></trkpt><trkpt lat="43.9543427" lon="11.2912102"><ele>397.0</ele><time>2026-04-11T13:48:54.088Z</time></trkpt><trkpt lat="43.9543438" lon="11.2913604"><ele>397.0</ele><time>2026-04-11T13:48:55.087Z</time></trkpt><trkpt lat="43.9543415" lon="11.2915332"><ele>397.0</ele><time>2026-04-11T13:48:56.088Z</time></trkpt><trkpt lat="43.9543374" lon="11.2917052"><ele>397.0</ele><time>2026-04-11T13:48:57.088Z</time></trkpt><trkpt lat="43.9543411" lon="11.2918571"><ele>395.8</ele><time>2026-04-11T13:48:58.087Z</time></trkpt><trkpt lat="43.9543401" lon="11.2920225"><ele>394.6</ele><time>2026-04-11T13:48:59.087Z</time></trkpt><trkpt lat="43.9543428" lon="11.2921653"><ele>393.40000000000003</ele><time>2026-04-11T13:49:00.088Z</time></trkpt><trkpt lat="43.954347" lon="11.2923018"><ele>392.20000000000005</ele><time>2026-04-11T13:49:01.088Z</time></trkpt><trkpt lat="43.954345" lon="11.2924324"><ele>391.0</ele><time>2026-04-11T13:49:02.088Z</time></trkpt><trkpt lat="43.9543412" lon="11.2925652"><ele>391.00000000000006</ele><time>2026-04-11T13:49:03.088Z</time></trkpt><trkpt lat="43.9543453" lon="11.2926628"><ele>391.0</ele><time>2026-04-11T13:49:04.088Z</time></trkpt><trkpt lat="43.9543518" lon="11.2927679"><ele>391.0</ele><time>2026-04-11T13:49:05.088Z</time></trkpt><trkpt lat="43.9543615" lon="11.2928687"><ele>391.0</ele><time>2026-04-11T13:49:06.087Z</time></trkpt><trkpt lat="43.9543909" lon="11.292973"><ele>391.00000000000006</ele><time>2026-04-11T13:49:07.088Z</time></trkpt><trkpt lat="43.9544106" lon="11.2930744"><ele>391.0</ele><time>2026-04-11T13:49:08.087Z</time></trkpt><trkpt lat="43.9544266" lon="11.2931839"><ele>391.4285714285714</ele><time>2026-04-11T13:49:09.087Z</time></trkpt><trkpt lat="43.9544367" lon="11.2932897"><ele>391.85714285714283</ele><time>2026-04-11T13:49:10.088Z</time></trkpt><trkpt lat="43.954455" lon="11.2933937"><ele>392.2857142857143</ele><time>2026-04-11T13:49:11.087Z</time></trkpt><trkpt lat="43.9544644" lon="11.2934901"><ele>392.71428571428567</ele><time>2026-04-11T13:49:12.087Z</time></trkpt><trkpt lat="43.9544508" lon="11.2935911"><ele>393.14285714285717</ele><time>2026-04-11T13:49:13.087Z</time></trkpt><trkpt lat="43.9544306" lon="11.2936926"><ele>393.57142857142856</ele><time>2026-04-11T13:49:14.087Z</time></trkpt><trkpt lat="43.9544105" lon="11.2937941"><ele>394.0</ele><time>2026-04-11T13:49:15.087Z</time></trkpt><trkpt lat="43.9543941" lon="11.293904"><ele>394.83333333333337</ele><time>2026-04-11T13:49:16.087Z</time></trkpt><trkpt lat="43.9543822" lon="11.2940229"><ele>395.6666666666667</ele><time>2026-04-11T13:49:17.087Z</time></trkpt><trkpt lat="43.9543779" lon="11.294143"><ele>396.5</ele><time>2026-04-11T13:49:18.088Z</time></trkpt><trkpt lat="43.9543818" lon="11.2942596"><ele>397.33333333333337</ele><time>2026-04-11T13:49:19.088Z</time></trkpt><trkpt lat="43.9543901" lon="11.2943708"><ele>398.1666666666667</ele><time>2026-04-11T13:49:20.087Z</time></trkpt><trkpt lat="43.9543915" lon="11.2944776"><ele>399.0</ele><time>2026-04-11T13:49:21.088Z</time></trkpt><trkpt lat="43.954397" lon="11.2945766"><ele>399.0</ele><time>2026-04-11T13:49:22.088Z</time></trkpt><trkpt lat="43.9543976" lon="11.2946716"><ele>399.0</ele><time>2026-04-11T13:49:23.088Z</time></trkpt><trkpt lat="43.9544266" lon="11.2948388"><ele>399.0</ele><time>2026-04-11T13:49:25.088Z</time></trkpt><trkpt lat="43.9544695" lon="11.2949234"><ele>399.0</ele><time>2026-04-11T13:49:26.087Z</time></trkpt><trkpt lat="43.9545209" lon="11.2950026"><ele>399.0</ele><time>2026-04-11T13:49:27.087Z</time></trkpt><trkpt lat="43.9545763" lon="11.2950924"><ele>399.0</ele><time>2026-04-11T13:49:28.088Z</time></trkpt><trkpt lat="43.9546337" lon="11.2951869"><ele>396.8333333333333</ele><time>2026-04-11T13:49:29.088Z</time></trkpt><trkpt lat="43.9546944" lon="11.2952809"><ele>394.66666666666663</ele><time>2026-04-11T13:49:30.088Z</time></trkpt><trkpt lat="43.9547515" lon="11.2953727"><ele>392.5</ele><time>2026-04-11T13:49:31.088Z</time></trkpt><trkpt lat="43.9548114" lon="11.2954653"><ele>390.3333333333333</ele><time>2026-04-11T13:49:32.088Z</time></trkpt><trkpt lat="43.9548698" lon="11.2955555"><ele>388.16666666666663</ele><time>2026-04-11T13:49:33.087Z</time></trkpt><trkpt lat="43.95493" lon="11.2956484"><ele>386.0</ele><time>2026-04-11T13:49:34.087Z</time></trkpt><trkpt lat="43.9549875" lon="11.2957429"><ele>384.3333333333333</ele><time>2026-04-11T13:49:35.087Z</time></trkpt><trkpt lat="43.9550347" lon="11.2958464"><ele>382.66666666666663</ele><time>2026-04-11T13:49:36.087Z</time></trkpt><trkpt lat="43.9550658" lon="11.2959478"><ele>381.0</ele><time>2026-04-11T13:49:37.087Z</time></trkpt><trkpt lat="43.9550919" lon="11.2960518"><ele>379.3333333333333</ele><time>2026-04-11T13:49:38.087Z</time></trkpt><trkpt lat="43.9550992" lon="11.2961586"><ele>377.66666666666663</ele><time>2026-04-11T13:49:39.087Z</time></trkpt><trkpt lat="43.9550678" lon="11.2962511"><ele>376.0</ele><time>2026-04-11T13:49:40.087Z</time></trkpt><trkpt lat="43.9550454" lon="11.2963482"><ele>375.0</ele><time>2026-04-11T13:49:41.086Z</time></trkpt><trkpt lat="43.9550215" lon="11.2964649"><ele>374.0</ele><time>2026-04-11T13:49:42.087Z</time></trkpt><trkpt lat="43.9550169" lon="11.2965746"><ele>373.0</ele><time>2026-04-11T13:49:43.087Z</time></trkpt><trkpt lat="43.9550305" lon="11.2966791"><ele>372.0</ele><time>2026-04-11T13:49:44.087Z</time></trkpt><trkpt lat="43.955059" lon="11.2967757"><ele>371.0</ele><time>2026-04-11T13:49:45.087Z</time></trkpt><trkpt lat="43.955092" lon="11.2968743"><ele>370.0</ele><time>2026-04-11T13:49:46.086Z</time></trkpt><trkpt lat="43.9551156" lon="11.2969772"><ele>370.0</ele><time>2026-04-11T13:49:47.086Z</time></trkpt><trkpt lat="43.9551382" lon="11.2970911"><ele>370.0</ele><time>2026-04-11T13:49:48.086Z</time></trkpt><trkpt lat="43.9551585" lon="11.2972188"><ele>370.0</ele><time>2026-04-11T13:49:49.086Z</time></trkpt><trkpt lat="43.9551753" lon="11.297343"><ele>370.0</ele><time>2026-04-11T13:49:50.087Z</time></trkpt><trkpt lat="43.9551935" lon="11.2974579"><ele>370.0</ele><time>2026-04-11T13:49:51.087Z</time></trkpt><trkpt lat="43.9552044" lon="11.297579"><ele>370.0</ele><time>2026-04-11T13:49:52.087Z</time></trkpt><trkpt lat="43.9552179" lon="11.2977019"><ele>369.3333333333333</ele><time>2026-04-11T13:49:53.087Z</time></trkpt><trkpt lat="43.9552328" lon="11.2978208"><ele>368.66666666666663</ele><time>2026-04-11T13:49:54.086Z</time></trkpt><trkpt lat="43.9552545" lon="11.2979322"><ele>368.0</ele><time>2026-04-11T13:49:55.086Z</time></trkpt><trkpt lat="43.9552692" lon="11.2980419"><ele>367.3333333333333</ele><time>2026-04-11T13:49:56.086Z</time></trkpt><trkpt lat="43.9552702" lon="11.2981555"><ele>366.6666666666667</ele><time>2026-04-11T13:49:57.087Z</time></trkpt><trkpt lat="43.9552549" lon="11.298258"><ele>366.0</ele><time>2026-04-11T13:49:58.087Z</time></trkpt><trkpt lat="43.9552269" lon="11.2983817"><ele>363.6</ele><time>2026-04-11T13:49:59.086Z</time></trkpt><trkpt lat="43.9551846" lon="11.2985054"><ele>361.20000000000005</ele><time>2026-04-11T13:50:00.086Z</time></trkpt><trkpt lat="43.955142" lon="11.2986291"><ele>358.79999999999995</ele><time>2026-04-11T13:50:01.086Z</time></trkpt><trkpt lat="43.9550927" lon="11.2987555"><ele>356.4</ele><time>2026-04-11T13:50:02.087Z</time></trkpt><trkpt lat="43.9550508" lon="11.2988867"><ele>354.0</ele><time>2026-04-11T13:50:03.087Z</time></trkpt><trkpt lat="43.9550042" lon="11.2990009"><ele>349.0</ele><time>2026-04-11T13:50:04.086Z</time></trkpt><trkpt lat="43.9549574" lon="11.2991172"><ele>344.0</ele><time>2026-04-11T13:50:05.086Z</time></trkpt><trkpt lat="43.9549065" lon="11.2992192"><ele>339.0</ele><time>2026-04-11T13:50:06.087Z</time></trkpt><trkpt lat="43.9548614" lon="11.2993094"><ele>334.0</ele><time>2026-04-11T13:50:07.087Z</time></trkpt><trkpt lat="43.9548309" lon="11.2994024"><ele>329.0</ele><time>2026-04-11T13:50:08.087Z</time></trkpt><trkpt lat="43.9548162" lon="11.2994992"><ele>324.0</ele><time>2026-04-11T13:50:09.086Z</time></trkpt><trkpt lat="43.9548594" lon="11.2996471"><ele>324.0</ele><time>2026-04-11T13:50:11.086Z</time></trkpt><trkpt lat="43.9549227" lon="11.2996923"><ele>324.0</ele><time>2026-04-11T13:50:12.086Z</time></trkpt><trkpt lat="43.954995" lon="11.2997093"><ele>324.0</ele><time>2026-04-11T13:50:13.086Z</time></trkpt><trkpt lat="43.9550723" lon="11.2996771"><ele>324.0</ele><time>2026-04-11T13:50:14.087Z</time></trkpt><trkpt lat="43.9551506" lon="11.2996464"><ele>324.0</ele><time>2026-04-11T13:50:15.087Z</time></trkpt><trkpt lat="43.9552201" lon="11.2996008"><ele>324.0</ele><time>2026-04-11T13:50:16.087Z</time></trkpt><trkpt lat="43.9552935" lon="11.2995703"><ele>325.5</ele><time>2026-04-11T13:50:17.087Z</time></trkpt><trkpt lat="43.9553664" lon="11.2995517"><ele>327.0</ele><time>2026-04-11T13:50:18.087Z</time></trkpt><trkpt lat="43.9554449" lon="11.2995314"><ele>328.5</ele><time>2026-04-11T13:50:19.087Z</time></trkpt><trkpt lat="43.9555187" lon="11.2995431"><ele>330.0</ele><time>2026-04-11T13:50:20.086Z</time></trkpt><trkpt lat="43.9555871" lon="11.2995671"><ele>331.5</ele><time>2026-04-11T13:50:21.086Z</time></trkpt><trkpt lat="43.9556572" lon="11.2996246"><ele>333.0</ele><time>2026-04-11T13:50:22.087Z</time></trkpt><trkpt lat="43.9556752" lon="11.2998257"><ele>329.3333333333333</ele><time>2026-04-11T13:50:24.087Z</time></trkpt><trkpt lat="43.9556825" lon="11.2999211"><ele>325.6666666666667</ele><time>2026-04-11T13:50:25.087Z</time></trkpt><trkpt lat="43.9556715" lon="11.3000324"><ele>322.0</ele><time>2026-04-11T13:50:26.087Z</time></trkpt><trkpt lat="43.9556605" lon="11.3001378"><ele>318.33333333333337</ele><time>2026-04-11T13:50:27.087Z</time></trkpt><trkpt lat="43.9556611" lon="11.3002611"><ele>314.6666666666667</ele><time>2026-04-11T13:50:28.086Z</time></trkpt><trkpt lat="43.9556712" lon="11.3003716"><ele>311.0</ele><time>2026-04-11T13:50:29.086Z</time></trkpt><trkpt lat="43.9556809" lon="11.3004845"><ele>308.5</ele><time>2026-04-11T13:50:30.086Z</time></trkpt><trkpt lat="43.9556924" lon="11.3005837"><ele>306.0</ele><time>2026-04-11T13:50:31.087Z</time></trkpt><trkpt lat="43.9556943" lon="11.3006801"><ele>303.5</ele><time>2026-04-11T13:50:32.087Z</time></trkpt><trkpt lat="43.9556901" lon="11.3007752"><ele>301.0</ele><time>2026-04-11T13:50:33.087Z</time></trkpt><trkpt lat="43.9556759" lon="11.3008627"><ele>298.5</ele><time>2026-04-11T13:50:34.087Z</time></trkpt><trkpt lat="43.9555876" lon="11.3009751"><ele>296.0</ele><time>2026-04-11T13:50:36.086Z</time></trkpt><trkpt lat="43.9555192" lon="11.3009767"><ele>296.0</ele><time>2026-04-11T13:50:37.086Z</time></trkpt><trkpt lat="43.9554522" lon="11.3009701"><ele>296.0</ele><time>2026-04-11T13:50:38.086Z</time></trkpt><trkpt lat="43.955332" lon="11.3010243"><ele>296.0</ele><time>2026-04-11T13:50:40.087Z</time></trkpt><trkpt lat="43.9552402" lon="11.3011888"><ele>296.0</ele><time>2026-04-11T13:50:42.087Z</time></trkpt><trkpt lat="43.955184" lon="11.3012883"><ele>296.0</ele><time>2026-04-11T13:50:43.087Z</time></trkpt><trkpt lat="43.9551213" lon="11.3013942"><ele>294.0</ele><time>2026-04-11T13:50:44.086Z</time></trkpt><trkpt lat="43.9550558" lon="11.3014841"><ele>292.0</ele><time>2026-04-11T13:50:45.086Z</time></trkpt><trkpt lat="43.9549855" lon="11.301561"><ele>290.0</ele><time>2026-04-11T13:50:46.086Z</time></trkpt><trkpt lat="43.9549203" lon="11.3016207"><ele>288.0</ele><time>2026-04-11T13:50:47.087Z</time></trkpt><trkpt lat="43.9548568" lon="11.3016725"><ele>286.0</ele><time>2026-04-11T13:50:48.087Z</time></trkpt><trkpt lat="43.9547928" lon="11.3017233"><ele>284.0</ele><time>2026-04-11T13:50:49.087Z</time></trkpt><trkpt lat="43.954723" lon="11.3017658"><ele>284.0</ele><time>2026-04-11T13:50:50.086Z</time></trkpt><trkpt lat="43.9546555" lon="11.3017946"><ele>284.0</ele><time>2026-04-11T13:50:51.086Z</time></trkpt><trkpt lat="43.9545787" lon="11.3018278"><ele>284.0</ele><time>2026-04-11T13:50:52.086Z</time></trkpt><trkpt lat="43.9545131" lon="11.3018668"><ele>284.0</ele><time>2026-04-11T13:50:53.086Z</time></trkpt><trkpt lat="43.954444" lon="11.3019117"><ele>284.0</ele><time>2026-04-11T13:50:54.086Z</time></trkpt><trkpt lat="43.9543796" lon="11.3019632"><ele>284.0</ele><time>2026-04-11T13:50:55.087Z</time></trkpt><trkpt lat="43.9543174" lon="11.3020229"><ele>284.0</ele><time>2026-04-11T13:50:56.086Z</time></trkpt><trkpt lat="43.9542794" lon="11.3020944"><ele>284.0</ele><time>2026-04-11T13:50:57.086Z</time></trkpt><trkpt lat="43.954274" lon="11.3021823"><ele>284.0</ele><time>2026-04-11T13:50:58.087Z</time></trkpt><trkpt lat="43.9542678" lon="11.3022735"><ele>284.0</ele><time>2026-04-11T13:50:59.087Z</time></trkpt><trkpt lat="43.9542789" lon="11.3023933"><ele>284.0</ele><time>2026-04-11T13:51:00.087Z</time></trkpt><trkpt lat="43.9543034" lon="11.3025111"><ele>284.0</ele><time>2026-04-11T13:51:01.085Z</time></trkpt><trkpt lat="43.9543259" lon="11.3026233"><ele>284.0</ele><time>2026-04-11T13:51:02.085Z</time></trkpt><trkpt lat="43.9543478" lon="11.3027391"><ele>282.5</ele><time>2026-04-11T13:51:03.087Z</time></trkpt><trkpt lat="43.9543744" lon="11.3028583"><ele>281.0</ele><time>2026-04-11T13:51:04.086Z</time></trkpt><trkpt lat="43.9544003" lon="11.3029822"><ele>279.5</ele><time>2026-04-11T13:51:05.086Z</time></trkpt><trkpt lat="43.9544309" lon="11.3030919"><ele>278.0</ele><time>2026-04-11T13:51:06.086Z</time></trkpt><trkpt lat="43.9544637" lon="11.3032003"><ele>276.5</ele><time>2026-04-11T13:51:07.086Z</time></trkpt><trkpt lat="43.9545046" lon="11.3033158"><ele>275.0</ele><time>2026-04-11T13:51:08.087Z</time></trkpt><trkpt lat="43.954544" lon="11.3034159"><ele>273.5</ele><time>2026-04-11T13:51:09.085Z</time></trkpt><trkpt lat="43.9545842" lon="11.303518"><ele>272.0</ele><time>2026-04-11T13:51:10.087Z</time></trkpt><trkpt lat="43.9546298" lon="11.3036316"><ele>270.5</ele><time>2026-04-11T13:51:11.086Z</time></trkpt><trkpt lat="43.9546679" lon="11.3037212"><ele>269.0</ele><time>2026-04-11T13:51:12.087Z</time></trkpt><trkpt lat="43.9547025" lon="11.3038246"><ele>267.5</ele><time>2026-04-11T13:51:13.087Z</time></trkpt><trkpt lat="43.9547253" lon="11.3039441"><ele>266.0</ele><time>2026-04-11T13:51:14.086Z</time></trkpt><trkpt lat="43.9547298" lon="11.3040612"><ele>265.40000000000003</ele><time>2026-04-11T13:51:15.086Z</time></trkpt><trkpt lat="43.9547375" lon="11.3041947"><ele>264.8</ele><time>2026-04-11T13:51:16.086Z</time></trkpt><trkpt lat="43.9547617" lon="11.3043286"><ele>264.20000000000005</ele><time>2026-04-11T13:51:17.087Z</time></trkpt><trkpt lat="43.9547893" lon="11.3044621"><ele>263.6</ele><time>2026-04-11T13:51:18.087Z</time></trkpt><trkpt lat="43.9548268" lon="11.3045982"><ele>263.0</ele><time>2026-04-11T13:51:19.086Z</time></trkpt><trkpt lat="43.9548711" lon="11.3047445"><ele>262.2</ele><time>2026-04-11T13:51:20.086Z</time></trkpt><trkpt lat="43.9549083" lon="11.3048853"><ele>261.4</ele><time>2026-04-11T13:51:21.087Z</time></trkpt><trkpt lat="43.9549372" lon="11.3050169"><ele>260.59999999999997</ele><time>2026-04-11T13:51:22.087Z</time></trkpt><trkpt lat="43.9549546" lon="11.3051411"><ele>259.8</ele><time>2026-04-11T13:51:23.087Z</time></trkpt><trkpt lat="43.9549626" lon="11.3052616"><ele>259.0</ele><time>2026-04-11T13:51:24.087Z</time></trkpt><trkpt lat="43.9549572" lon="11.3053756"><ele>259.0</ele><time>2026-04-11T13:51:25.087Z</time></trkpt><trkpt lat="43.9549529" lon="11.3054817"><ele>259.0</ele><time>2026-04-11T13:51:26.087Z</time></trkpt><trkpt lat="43.9549667" lon="11.3055757"><ele>259.0</ele><time>2026-04-11T13:51:27.086Z</time></trkpt><trkpt lat="43.9549972" lon="11.3056579"><ele>259.0</ele><time>2026-04-11T13:51:28.086Z</time></trkpt><trkpt lat="43.9550501" lon="11.3057107"><ele>259.0</ele><time>2026-04-11T13:51:29.087Z</time></trkpt><trkpt lat="43.9551277" lon="11.3057318"><ele>259.0</ele><time>2026-04-11T13:51:30.086Z</time></trkpt><trkpt lat="43.9552016" lon="11.3057093"><ele>259.0</ele><time>2026-04-11T13:51:31.087Z</time></trkpt><trkpt lat="43.9553057" lon="11.3056508"><ele>257.5</ele><time>2026-04-11T13:51:33.087Z</time></trkpt><trkpt lat="43.9553686" lon="11.3056156"><ele>256.0</ele><time>2026-04-11T13:51:35.086Z</time></trkpt><trkpt lat="43.9554286" lon="11.3055849"><ele>254.5</ele><time>2026-04-11T13:52:14.086Z</time></trkpt><trkpt lat="43.9554999" lon="11.3056292"><ele>253.0</ele><time>2026-04-11T13:52:18.086Z</time></trkpt><trkpt lat="43.9554636" lon="11.3057191"><ele>251.49999999999997</ele><time>2026-04-11T13:52:21.087Z</time></trkpt><trkpt lat="43.9553593" lon="11.3057597"><ele>250.0</ele><time>2026-04-11T13:52:23.087Z</time></trkpt><trkpt lat="43.955289" lon="11.3057767"><ele>250.0</ele><time>2026-04-11T13:52:24.086Z</time></trkpt><trkpt lat="43.9552067" lon="11.3058107"><ele>250.0</ele><time>2026-04-11T13:52:25.087Z</time></trkpt><trkpt lat="43.9551241" lon="11.3058506"><ele>250.0</ele><time>2026-04-11T13:52:26.087Z</time></trkpt><trkpt lat="43.9550355" lon="11.3058974"><ele>250.0</ele><time>2026-04-11T13:52:27.086Z</time></trkpt><trkpt lat="43.9549422" lon="11.3059477"><ele>250.0</ele><time>2026-04-11T13:52:28.086Z</time></trkpt><trkpt lat="43.9548495" lon="11.3059972"><ele>251.2</ele><time>2026-04-11T13:52:29.087Z</time></trkpt><trkpt lat="43.9547648" lon="11.3060443"><ele>252.4</ele><time>2026-04-11T13:52:30.087Z</time></trkpt><trkpt lat="43.9546775" lon="11.3060873"><ele>253.60000000000002</ele><time>2026-04-11T13:52:31.087Z</time></trkpt><trkpt lat="43.954584" lon="11.3061397"><ele>254.8</ele><time>2026-04-11T13:52:32.086Z</time></trkpt><trkpt lat="43.9544881" lon="11.3061905"><ele>256.0</ele><time>2026-04-11T13:52:33.086Z</time></trkpt><trkpt lat="43.9543891" lon="11.306237"><ele>256.0</ele><time>2026-04-11T13:52:34.087Z</time></trkpt><trkpt lat="43.9542869" lon="11.3062733"><ele>256.0</ele><time>2026-04-11T13:52:35.087Z</time></trkpt><trkpt lat="43.9541801" lon="11.3063029"><ele>256.0</ele><time>2026-04-11T13:52:36.087Z</time></trkpt><trkpt lat="43.9540703" lon="11.3063227"><ele>256.0</ele><time>2026-04-11T13:52:37.087Z</time></trkpt><trkpt lat="43.9539495" lon="11.3063367"><ele>256.0</ele><time>2026-04-11T13:52:38.086Z</time></trkpt><trkpt lat="43.9538249" lon="11.3063415"><ele>255.66666666666666</ele><time>2026-04-11T13:52:39.087Z</time></trkpt><trkpt lat="43.9536821" lon="11.3063522"><ele>255.33333333333331</ele><time>2026-04-11T13:52:40.087Z</time></trkpt><trkpt lat="43.9535338" lon="11.3063863"><ele>255.0</ele><time>2026-04-11T13:52:41.086Z</time></trkpt><trkpt lat="43.9533823" lon="11.3064595"><ele>254.33333333333331</ele><time>2026-04-11T13:52:42.086Z</time></trkpt><trkpt lat="43.9532341" lon="11.3065547"><ele>253.66666666666666</ele><time>2026-04-11T13:52:43.086Z</time></trkpt><trkpt lat="43.9530838" lon="11.3066641"><ele>253.0</ele><time>2026-04-11T13:52:44.087Z</time></trkpt><trkpt lat="43.952931" lon="11.3067827"><ele>253.0</ele><time>2026-04-11T13:52:45.087Z</time></trkpt><trkpt lat="43.9527876" lon="11.3068931"><ele>253.0</ele><time>2026-04-11T13:52:46.087Z</time></trkpt><trkpt lat="43.9526488" lon="11.3070034"><ele>253.0</ele><time>2026-04-11T13:52:47.087Z</time></trkpt><trkpt lat="43.9525176" lon="11.3071128"><ele>250.5</ele><time>2026-04-11T13:52:48.087Z</time></trkpt><trkpt lat="43.9523897" lon="11.3072147"><ele>248.0</ele><time>2026-04-11T13:52:49.086Z</time></trkpt><trkpt lat="43.9522756" lon="11.3073324"><ele>245.5</ele><time>2026-04-11T13:52:50.086Z</time></trkpt><trkpt lat="43.9521858" lon="11.3074771"><ele>243.0</ele><time>2026-04-11T13:52:51.086Z</time></trkpt><trkpt lat="43.9521225" lon="11.3076318"><ele>242.5</ele><time>2026-04-11T13:52:52.087Z</time></trkpt><trkpt lat="43.9520789" lon="11.3077966"><ele>242.0</ele><time>2026-04-11T13:52:53.086Z</time></trkpt><trkpt lat="43.9520573" lon="11.3079782"><ele>241.5</ele><time>2026-04-11T13:52:54.086Z</time></trkpt><trkpt lat="43.9520586" lon="11.3081711"><ele>241.0</ele><time>2026-04-11T13:52:55.087Z</time></trkpt><trkpt lat="43.9520755" lon="11.3083693"><ele>241.0</ele><time>2026-04-11T13:52:56.087Z</time></trkpt><trkpt lat="43.9521018" lon="11.308568"><ele>241.0</ele><time>2026-04-11T13:52:57.086Z</time></trkpt><trkpt lat="43.9521391" lon="11.3087723"><ele>241.0</ele><time>2026-04-11T13:52:58.087Z</time></trkpt><trkpt lat="43.9521716" lon="11.3089722"><ele>241.0</ele><time>2026-04-11T13:52:59.085Z</time></trkpt><trkpt lat="43.952202" lon="11.3091582"><ele>240.0</ele><time>2026-04-11T13:53:00.087Z</time></trkpt><trkpt lat="43.9522322" lon="11.3093317"><ele>239.0</ele><time>2026-04-11T13:53:01.087Z</time></trkpt><trkpt lat="43.9522605" lon="11.3094941"><ele>238.0</ele><time>2026-04-11T13:53:02.087Z</time></trkpt><trkpt lat="43.9522888" lon="11.3096458"><ele>237.0</ele><time>2026-04-11T13:53:03.086Z</time></trkpt><trkpt lat="43.9523148" lon="11.3097911"><ele>235.66666666666666</ele><time>2026-04-11T13:53:04.087Z</time></trkpt><trkpt lat="43.9523368" lon="11.3099215"><ele>234.33333333333331</ele><time>2026-04-11T13:53:05.086Z</time></trkpt><trkpt lat="43.9523576" lon="11.3100432"><ele>233.0</ele><time>2026-04-11T13:53:06.086Z</time></trkpt><trkpt lat="43.9523779" lon="11.3101561"><ele>231.66666666666666</ele><time>2026-04-11T13:53:07.086Z</time></trkpt><trkpt lat="43.9523978" lon="11.310267"><ele>230.33333333333331</ele><time>2026-04-11T13:53:08.087Z</time></trkpt><trkpt lat="43.9524206" lon="11.3103895"><ele>229.0</ele><time>2026-04-11T13:53:09.086Z</time></trkpt><trkpt lat="43.9524442" lon="11.3105216"><ele>229.0</ele><time>2026-04-11T13:53:10.087Z</time></trkpt><trkpt lat="43.9524619" lon="11.3106509"><ele>228.99999999999997</ele><time>2026-04-11T13:53:11.087Z</time></trkpt><trkpt lat="43.952464" lon="11.3107735"><ele>228.99999999999997</ele><time>2026-04-11T13:53:12.086Z</time></trkpt><trkpt lat="43.9524336" lon="11.3108953"><ele>229.0</ele><time>2026-04-11T13:53:13.086Z</time></trkpt><trkpt lat="43.9523835" lon="11.3110125"><ele>229.0</ele><time>2026-04-11T13:53:14.086Z</time></trkpt><trkpt lat="43.952348" lon="11.3111345"><ele>229.0</ele><time>2026-04-11T13:53:15.087Z</time></trkpt><trkpt lat="43.9523494" lon="11.3112721"><ele>228.99999999999997</ele><time>2026-04-11T13:53:16.087Z</time></trkpt><trkpt lat="43.9523738" lon="11.3113872"><ele>228.99999999999997</ele><time>2026-04-11T13:53:17.087Z</time></trkpt><trkpt lat="43.9524313" lon="11.3114898"><ele>229.0</ele><time>2026-04-11T13:53:18.087Z</time></trkpt><trkpt lat="43.9525091" lon="11.3115514"><ele>229.0</ele><time>2026-04-11T13:53:19.086Z</time></trkpt><trkpt lat="43.952596" lon="11.3115647"><ele>228.16666666666666</ele><time>2026-04-11T13:53:20.086Z</time></trkpt><trkpt lat="43.9526747" lon="11.3115409"><ele>227.33333333333331</ele><time>2026-04-11T13:53:21.087Z</time></trkpt><trkpt lat="43.9527495" lon="11.3114926"><ele>226.5</ele><time>2026-04-11T13:53:22.087Z</time></trkpt><trkpt lat="43.9528289" lon="11.3114415"><ele>225.66666666666669</ele><time>2026-04-11T13:53:23.086Z</time></trkpt><trkpt lat="43.9529159" lon="11.3114151"><ele>224.83333333333334</ele><time>2026-04-11T13:53:24.086Z</time></trkpt><trkpt lat="43.9530099" lon="11.311423"><ele>224.0</ele><time>2026-04-11T13:53:25.087Z</time></trkpt><trkpt lat="43.9531097" lon="11.3114589"><ele>224.0</ele><time>2026-04-11T13:53:26.087Z</time></trkpt><trkpt lat="43.9532165" lon="11.3115077"><ele>224.0</ele><time>2026-04-11T13:53:27.087Z</time></trkpt><trkpt lat="43.953337" lon="11.3115626"><ele>224.0</ele><time>2026-04-11T13:53:28.086Z</time></trkpt><trkpt lat="43.9534667" lon="11.3116193"><ele>224.0</ele><time>2026-04-11T13:53:29.086Z</time></trkpt><trkpt lat="43.9535885" lon="11.3116679"><ele>223.5</ele><time>2026-04-11T13:53:30.086Z</time></trkpt><trkpt lat="43.9537071" lon="11.3117183"><ele>223.0</ele><time>2026-04-11T13:53:31.087Z</time></trkpt><trkpt lat="43.9538333" lon="11.311773"><ele>222.5</ele><time>2026-04-11T13:53:32.087Z</time></trkpt><trkpt lat="43.9539682" lon="11.3118335"><ele>222.0</ele><time>2026-04-11T13:53:33.087Z</time></trkpt><trkpt lat="43.9541012" lon="11.3119054"><ele>222.5</ele><time>2026-04-11T13:53:34.086Z</time></trkpt><trkpt lat="43.9542281" lon="11.3119983"><ele>223.0</ele><time>2026-04-11T13:53:35.086Z</time></trkpt><trkpt lat="43.9543454" lon="11.3121082"><ele>223.5</ele><time>2026-04-11T13:53:36.087Z</time></trkpt><trkpt lat="43.954445" lon="11.3122243"><ele>224.0</ele><time>2026-04-11T13:53:37.087Z</time></trkpt><trkpt lat="43.9545298" lon="11.312344"><ele>222.79999999999998</ele><time>2026-04-11T13:53:38.086Z</time></trkpt><trkpt lat="43.9545995" lon="11.3124608"><ele>221.59999999999997</ele><time>2026-04-11T13:53:39.086Z</time></trkpt><trkpt lat="43.9546578" lon="11.3125715"><ele>220.4</ele><time>2026-04-11T13:53:40.086Z</time></trkpt><trkpt lat="43.9547141" lon="11.3126715"><ele>219.2</ele><time>2026-04-11T13:53:41.087Z</time></trkpt><trkpt lat="43.9547667" lon="11.3127562"><ele>218.0</ele><time>2026-04-11T13:53:42.087Z</time></trkpt><trkpt lat="43.954815" lon="11.3128368"><ele>218.00000000000003</ele><time>2026-04-11T13:53:43.087Z</time></trkpt><trkpt lat="43.9548565" lon="11.3129061"><ele>218.0</ele><time>2026-04-11T13:53:44.086Z</time></trkpt><trkpt lat="43.9549338" lon="11.3130322"><ele>218.0</ele><time>2026-04-11T13:53:46.086Z</time></trkpt><trkpt lat="43.9549865" lon="11.3131293"><ele>218.0</ele><time>2026-04-11T13:53:48.087Z</time></trkpt><trkpt lat="43.9550332" lon="11.3132083"><ele>218.00000000000003</ele><time>2026-04-11T13:53:50.087Z</time></trkpt><trkpt lat="43.9551039" lon="11.3132396"><ele>218.0</ele><time>2026-04-11T13:53:53.087Z</time></trkpt><trkpt lat="43.9551543" lon="11.3131834"><ele>217.0</ele><time>2026-04-11T13:53:57.086Z</time></trkpt><trkpt lat="43.9551436" lon="11.3130858"><ele>217.0</ele><time>2026-04-11T13:54:00.086Z</time></trkpt><trkpt lat="43.9550998" lon="11.3130024"><ele>219.0</ele><time>2026-04-11T13:54:03.087Z</time></trkpt><trkpt lat="43.9550468" lon="11.3129345"><ele>219.0</ele><time>2026-04-11T13:54:07.086Z</time></trkpt><trkpt lat="43.9549763" lon="11.3129198"><ele>218.0</ele><time>2026-04-11T13:54:16.087Z</time></trkpt></trkseg></trk></gpx>